<?xml version='1.0' encoding='UTF-8'?><gpx version="1.1" creator="JPX - https://github.com/jenetics/jpx" xmlns="http://www.topografix.com/GPX/1/1"><trk><trkseg><trkpt lat="40.8963009" lon="9.4991622"><ele>16.0</ele><time>2026-03-27T08:48:37.36Z</time></trkpt><trkpt lat="40.8962123" lon="9.4992124"><ele>16.0</ele><time>2026-03-27T08:48:38.348Z</time></trkpt><trkpt lat="40.8961268" lon="9.4992445"><ele>16.0</ele><time>2026-03-27T08:48:39.326Z</time></trkpt><trkpt lat="40.8960491" lon="9.499293"><ele>16.0</ele><time>2026-03-27T08:48:40.347Z</time></trkpt><trkpt lat="40.8959573" lon="9.4994971"><ele>15.25</ele><time>2026-03-27T08:48:42.326Z</time></trkpt><trkpt lat="40.8959161" lon="9.4996203"><ele>14.5</ele><time>2026-03-27T08:48:43.374Z</time></trkpt><trkpt lat="40.8958411" lon="9.4997349"><ele>13.75</ele><time>2026-03-27T08:48:44.33Z</time></trkpt><trkpt lat="40.8957452" lon="9.4998316"><ele>13.0</ele><time>2026-03-27T08:48:45.333Z</time></trkpt><trkpt lat="40.8956468" lon="9.4999242"><ele>13.0</ele><time>2026-03-27T08:48:46.347Z</time></trkpt><trkpt lat="40.895547" lon="9.5000019"><ele>13.0</ele><time>2026-03-27T08:48:47.324Z</time></trkpt><trkpt lat="40.8954518" lon="9.5000765"><ele>13.0</ele><time>2026-03-27T08:48:48.348Z</time></trkpt><trkpt lat="40.8953564" lon="9.5001512"><ele>13.0</ele><time>2026-03-27T08:48:49.361Z</time></trkpt><trkpt lat="40.8952626" lon="9.5002255"><ele>13.0</ele><time>2026-03-27T08:48:50.337Z</time></trkpt><trkpt lat="40.8951623" lon="9.5003111"><ele>12.8</ele><time>2026-03-27T08:48:51.323Z</time></trkpt><trkpt lat="40.8950676" lon="9.5003888"><ele>12.600000000000001</ele><time>2026-03-27T08:48:52.318Z</time></trkpt><trkpt lat="40.8949674" lon="9.5004684"><ele>12.399999999999999</ele><time>2026-03-27T08:48:53.329Z</time></trkpt><trkpt lat="40.8948698" lon="9.5005464"><ele>12.2</ele><time>2026-03-27T08:48:54.378Z</time></trkpt><trkpt lat="40.8947781" lon="9.5006195"><ele>12.0</ele><time>2026-03-27T08:48:55.343Z</time></trkpt><trkpt lat="40.894693" lon="9.5006908"><ele>12.0</ele><time>2026-03-27T08:48:56.326Z</time></trkpt><trkpt lat="40.8946111" lon="9.5007604"><ele>12.0</ele><time>2026-03-27T08:48:57.327Z</time></trkpt><trkpt lat="40.8945248" lon="9.5008354"><ele>12.0</ele><time>2026-03-27T08:48:58.35Z</time></trkpt><trkpt lat="40.8944309" lon="9.5009161"><ele>12.0</ele><time>2026-03-27T08:48:59.327Z</time></trkpt><trkpt lat="40.8943265" lon="9.5010066"><ele>12.0</ele><time>2026-03-27T08:49:00.321Z</time></trkpt><trkpt lat="40.8942126" lon="9.5011048"><ele>12.0</ele><time>2026-03-27T08:49:01.347Z</time></trkpt><trkpt lat="40.8940895" lon="9.5012114"><ele>12.0</ele><time>2026-03-27T08:49:02.34Z</time></trkpt><trkpt lat="40.8939618" lon="9.5013193"><ele>12.0</ele><time>2026-03-27T08:49:03.343Z</time></trkpt><trkpt lat="40.8938344" lon="9.5014256"><ele>12.0</ele><time>2026-03-27T08:49:04.336Z</time></trkpt><trkpt lat="40.8937119" lon="9.5015272"><ele>12.0</ele><time>2026-03-27T08:49:05.332Z</time></trkpt><trkpt lat="40.8935857" lon="9.5016223"><ele>12.0</ele><time>2026-03-27T08:49:06.321Z</time></trkpt><trkpt lat="40.8934637" lon="9.5017145"><ele>12.0</ele><time>2026-03-27T08:49:07.34Z</time></trkpt><trkpt lat="40.8933461" lon="9.501805"><ele>12.0</ele><time>2026-03-27T08:49:08.338Z</time></trkpt><trkpt lat="40.8932357" lon="9.501897"><ele>11.75</ele><time>2026-03-27T08:49:09.339Z</time></trkpt><trkpt lat="40.8931268" lon="9.5019934"><ele>11.5</ele><time>2026-03-27T08:49:10.334Z</time></trkpt><trkpt lat="40.8930199" lon="9.5020886"><ele>11.25</ele><time>2026-03-27T08:49:11.329Z</time></trkpt><trkpt lat="40.892911" lon="9.5021836"><ele>11.0</ele><time>2026-03-27T08:49:12.329Z</time></trkpt><trkpt lat="40.8927857" lon="9.5022869"><ele>11.0</ele><time>2026-03-27T08:49:13.327Z</time></trkpt><trkpt lat="40.8926696" lon="9.5023808"><ele>11.0</ele><time>2026-03-27T08:49:14.327Z</time></trkpt><trkpt lat="40.8925462" lon="9.5024794"><ele>11.0</ele><time>2026-03-27T08:49:15.358Z</time></trkpt><trkpt lat="40.8924118" lon="9.5025877"><ele>11.0</ele><time>2026-03-27T08:49:16.341Z</time></trkpt><trkpt lat="40.8922697" lon="9.5027049"><ele>11.0</ele><time>2026-03-27T08:49:17.325Z</time></trkpt><trkpt lat="40.8921176" lon="9.5028281"><ele>11.0</ele><time>2026-03-27T08:49:18.328Z</time></trkpt><trkpt lat="40.8919625" lon="9.5029622"><ele>11.0</ele><time>2026-03-27T08:49:19.324Z</time></trkpt><trkpt lat="40.8918061" lon="9.503095"><ele>11.0</ele><time>2026-03-27T08:49:20.322Z</time></trkpt><trkpt lat="40.8916514" lon="9.5032227"><ele>11.0</ele><time>2026-03-27T08:49:21.329Z</time></trkpt><trkpt lat="40.8915025" lon="9.5033487"><ele>11.0</ele><time>2026-03-27T08:49:22.33Z</time></trkpt><trkpt lat="40.8913549" lon="9.503458"><ele>11.0</ele><time>2026-03-27T08:49:23.335Z</time></trkpt><trkpt lat="40.891199" lon="9.5035546"><ele>11.0</ele><time>2026-03-27T08:49:24.329Z</time></trkpt><trkpt lat="40.8910451" lon="9.5036412"><ele>11.0</ele><time>2026-03-27T08:49:25.341Z</time></trkpt><trkpt lat="40.8908915" lon="9.5037191"><ele>10.333333333333332</ele><time>2026-03-27T08:49:26.336Z</time></trkpt><trkpt lat="40.8907436" lon="9.5037862"><ele>9.666666666666666</ele><time>2026-03-27T08:49:27.343Z</time></trkpt><trkpt lat="40.8905979" lon="9.5038498"><ele>9.0</ele><time>2026-03-27T08:49:28.349Z</time></trkpt><trkpt lat="40.8904513" lon="9.5039145"><ele>9.0</ele><time>2026-03-27T08:49:29.325Z</time></trkpt><trkpt lat="40.8903056" lon="9.5039851"><ele>9.0</ele><time>2026-03-27T08:49:30.319Z</time></trkpt><trkpt lat="40.8901629" lon="9.5040432"><ele>9.0</ele><time>2026-03-27T08:49:31.324Z</time></trkpt><trkpt lat="40.8900248" lon="9.5040989"><ele>9.0</ele><time>2026-03-27T08:49:32.324Z</time></trkpt><trkpt lat="40.8898884" lon="9.5041533"><ele>9.25</ele><time>2026-03-27T08:49:33.32Z</time></trkpt><trkpt lat="40.8897574" lon="9.5042026"><ele>9.5</ele><time>2026-03-27T08:49:34.322Z</time></trkpt><trkpt lat="40.8896261" lon="9.5042743"><ele>9.75</ele><time>2026-03-27T08:49:35.331Z</time></trkpt><trkpt lat="40.8894996" lon="9.5043286"><ele>10.0</ele><time>2026-03-27T08:49:36.33Z</time></trkpt><trkpt lat="40.889379" lon="9.5043869"><ele>10.0</ele><time>2026-03-27T08:49:37.329Z</time></trkpt><trkpt lat="40.8892602" lon="9.5044466"><ele>10.0</ele><time>2026-03-27T08:49:38.324Z</time></trkpt><trkpt lat="40.889141" lon="9.5045002"><ele>10.0</ele><time>2026-03-27T08:49:39.317Z</time></trkpt><trkpt lat="40.8890251" lon="9.5045516"><ele>10.0</ele><time>2026-03-27T08:49:40.334Z</time></trkpt><trkpt lat="40.8889084" lon="9.5046066"><ele>9.75</ele><time>2026-03-27T08:49:41.33Z</time></trkpt><trkpt lat="40.8887896" lon="9.5046626"><ele>9.5</ele><time>2026-03-27T08:49:42.336Z</time></trkpt><trkpt lat="40.8886659" lon="9.5047209"><ele>9.25</ele><time>2026-03-27T08:49:43.333Z</time></trkpt><trkpt lat="40.8885373" lon="9.5047798"><ele>9.0</ele><time>2026-03-27T08:49:44.33Z</time></trkpt><trkpt lat="40.8884092" lon="9.5048399"><ele>9.0</ele><time>2026-03-27T08:49:45.357Z</time></trkpt><trkpt lat="40.8882742" lon="9.5049033"><ele>9.0</ele><time>2026-03-27T08:49:46.328Z</time></trkpt><trkpt lat="40.8881397" lon="9.50497"><ele>9.0</ele><time>2026-03-27T08:49:47.324Z</time></trkpt><trkpt lat="40.888002" lon="9.5050381"><ele>9.0</ele><time>2026-03-27T08:49:48.353Z</time></trkpt><trkpt lat="40.8878575" lon="9.5051076"><ele>9.0</ele><time>2026-03-27T08:49:49.326Z</time></trkpt><trkpt lat="40.8877018" lon="9.5051776"><ele>9.0</ele><time>2026-03-27T08:49:50.322Z</time></trkpt><trkpt lat="40.8875429" lon="9.5052562"><ele>9.0</ele><time>2026-03-27T08:49:51.333Z</time></trkpt><trkpt lat="40.8873732" lon="9.5053352"><ele>8.666666666666666</ele><time>2026-03-27T08:49:52.334Z</time></trkpt><trkpt lat="40.8872007" lon="9.5054156"><ele>8.333333333333332</ele><time>2026-03-27T08:49:53.326Z</time></trkpt><trkpt lat="40.8870287" lon="9.5054922"><ele>8.0</ele><time>2026-03-27T08:49:54.333Z</time></trkpt><trkpt lat="40.8868683" lon="9.5055636"><ele>8.75</ele><time>2026-03-27T08:49:55.325Z</time></trkpt><trkpt lat="40.8867206" lon="9.5056276"><ele>9.5</ele><time>2026-03-27T08:49:56.335Z</time></trkpt><trkpt lat="40.8865801" lon="9.5056851"><ele>10.25</ele><time>2026-03-27T08:49:57.328Z</time></trkpt><trkpt lat="40.886447" lon="9.5057412"><ele>11.0</ele><time>2026-03-27T08:49:58.331Z</time></trkpt><trkpt lat="40.8863134" lon="9.5057932"><ele>11.0</ele><time>2026-03-27T08:49:59.33Z</time></trkpt><trkpt lat="40.8861809" lon="9.5058492"><ele>11.0</ele><time>2026-03-27T08:50:00.326Z</time></trkpt><trkpt lat="40.8860485" lon="9.5059048"><ele>11.0</ele><time>2026-03-27T08:50:01.326Z</time></trkpt><trkpt lat="40.8859278" lon="9.5059552"><ele>11.0</ele><time>2026-03-27T08:50:02.33Z</time></trkpt><trkpt lat="40.8858171" lon="9.5059999"><ele>11.25</ele><time>2026-03-27T08:50:03.321Z</time></trkpt><trkpt lat="40.8857109" lon="9.506042"><ele>11.5</ele><time>2026-03-27T08:50:04.328Z</time></trkpt><trkpt lat="40.8856051" lon="9.5060856"><ele>11.75</ele><time>2026-03-27T08:50:05.322Z</time></trkpt><trkpt lat="40.8854966" lon="9.5061305"><ele>12.0</ele><time>2026-03-27T08:50:06.319Z</time></trkpt><trkpt lat="40.8853874" lon="9.5061778"><ele>12.0</ele><time>2026-03-27T08:50:07.317Z</time></trkpt><trkpt lat="40.8852736" lon="9.5062248"><ele>12.0</ele><time>2026-03-27T08:50:08.321Z</time></trkpt><trkpt lat="40.8851563" lon="9.5062736"><ele>12.0</ele><time>2026-03-27T08:50:09.329Z</time></trkpt><trkpt lat="40.885047" lon="9.5063206"><ele>12.0</ele><time>2026-03-27T08:50:10.319Z</time></trkpt><trkpt lat="40.8849456" lon="9.5063637"><ele>12.333333333333334</ele><time>2026-03-27T08:50:11.32Z</time></trkpt><trkpt lat="40.8848454" lon="9.5064072"><ele>12.666666666666668</ele><time>2026-03-27T08:50:12.318Z</time></trkpt><trkpt lat="40.8847543" lon="9.5064465"><ele>13.0</ele><time>2026-03-27T08:50:13.327Z</time></trkpt><trkpt lat="40.8846729" lon="9.5064823"><ele>13.333333333333334</ele><time>2026-03-27T08:50:14.318Z</time></trkpt><trkpt lat="40.8845963" lon="9.5065184"><ele>13.666666666666668</ele><time>2026-03-27T08:50:15.361Z</time></trkpt><trkpt lat="40.8845237" lon="9.5065531"><ele>14.0</ele><time>2026-03-27T08:50:16.322Z</time></trkpt><trkpt lat="40.884459" lon="9.5065778"><ele>14.0</ele><time>2026-03-27T08:50:17.319Z</time></trkpt><trkpt lat="40.8843448" lon="9.5065456"><ele>13.999999999999998</ele><time>2026-03-27T08:50:19.321Z</time></trkpt><trkpt lat="40.8842852" lon="9.5064832"><ele>13.999999999999998</ele><time>2026-03-27T08:50:20.32Z</time></trkpt><trkpt lat="40.8842197" lon="9.506404"><ele>14.0</ele><time>2026-03-27T08:50:21.325Z</time></trkpt><trkpt lat="40.8841491" lon="9.5063197"><ele>14.0</ele><time>2026-03-27T08:50:22.323Z</time></trkpt><trkpt lat="40.8840777" lon="9.506234"><ele>15.0</ele><time>2026-03-27T08:50:23.326Z</time></trkpt><trkpt lat="40.8840113" lon="9.5061491"><ele>15.999999999999998</ele><time>2026-03-27T08:50:24.321Z</time></trkpt><trkpt lat="40.8839553" lon="9.5060626"><ele>17.0</ele><time>2026-03-27T08:50:25.321Z</time></trkpt><trkpt lat="40.8838996" lon="9.5059723"><ele>18.0</ele><time>2026-03-27T08:50:26.323Z</time></trkpt><trkpt lat="40.8838797" lon="9.505855"><ele>19.0</ele><time>2026-03-27T08:50:27.321Z</time></trkpt><trkpt lat="40.8838826" lon="9.5057292"><ele>19.0</ele><time>2026-03-27T08:50:28.32Z</time></trkpt><trkpt lat="40.8838969" lon="9.5055913"><ele>19.0</ele><time>2026-03-27T08:50:29.322Z</time></trkpt><trkpt lat="40.8839156" lon="9.5054559"><ele>19.0</ele><time>2026-03-27T08:50:30.322Z</time></trkpt><trkpt lat="40.8839352" lon="9.505323"><ele>19.0</ele><time>2026-03-27T08:50:31.318Z</time></trkpt><trkpt lat="40.8839537" lon="9.5051901"><ele>19.0</ele><time>2026-03-27T08:50:32.322Z</time></trkpt><trkpt lat="40.8839578" lon="9.5050592"><ele>18.8</ele><time>2026-03-27T08:50:33.316Z</time></trkpt><trkpt lat="40.8839468" lon="9.5049299"><ele>18.599999999999998</ele><time>2026-03-27T08:50:34.33Z</time></trkpt><trkpt lat="40.8839398" lon="9.5048005"><ele>18.4</ele><time>2026-03-27T08:50:35.322Z</time></trkpt><trkpt lat="40.8839311" lon="9.5046594"><ele>18.2</ele><time>2026-03-27T08:50:36.328Z</time></trkpt><trkpt lat="40.8839215" lon="9.5045025"><ele>18.0</ele><time>2026-03-27T08:50:37.325Z</time></trkpt><trkpt lat="40.8839155" lon="9.5043412"><ele>18.0</ele><time>2026-03-27T08:50:38.32Z</time></trkpt><trkpt lat="40.8839105" lon="9.5041948"><ele>18.0</ele><time>2026-03-27T08:50:39.319Z</time></trkpt><trkpt lat="40.8839018" lon="9.5040523"><ele>18.0</ele><time>2026-03-27T08:50:40.325Z</time></trkpt><trkpt lat="40.8838863" lon="9.5039041"><ele>18.0</ele><time>2026-03-27T08:50:41.32Z</time></trkpt><trkpt lat="40.8838651" lon="9.5037488"><ele>18.0</ele><time>2026-03-27T08:50:42.328Z</time></trkpt><trkpt lat="40.8838408" lon="9.5035884"><ele>18.0</ele><time>2026-03-27T08:50:43.318Z</time></trkpt><trkpt lat="40.8838159" lon="9.5034305"><ele>18.0</ele><time>2026-03-27T08:50:44.32Z</time></trkpt><trkpt lat="40.8837919" lon="9.5032735"><ele>18.0</ele><time>2026-03-27T08:50:45.317Z</time></trkpt><trkpt lat="40.8837629" lon="9.5031124"><ele>18.0</ele><time>2026-03-27T08:50:46.327Z</time></trkpt><trkpt lat="40.8837369" lon="9.5029535"><ele>18.0</ele><time>2026-03-27T08:50:47.325Z</time></trkpt><trkpt lat="40.8837098" lon="9.5027949"><ele>18.0</ele><time>2026-03-27T08:50:48.32Z</time></trkpt><trkpt lat="40.8836901" lon="9.50264"><ele>18.0</ele><time>2026-03-27T08:50:49.325Z</time></trkpt><trkpt lat="40.8836674" lon="9.5024915"><ele>18.5</ele><time>2026-03-27T08:50:50.32Z</time></trkpt><trkpt lat="40.8836375" lon="9.5023428"><ele>19.0</ele><time>2026-03-27T08:50:51.322Z</time></trkpt><trkpt lat="40.8835953" lon="9.5021953"><ele>19.5</ele><time>2026-03-27T08:50:52.32Z</time></trkpt><trkpt lat="40.8835437" lon="9.5020459"><ele>20.0</ele><time>2026-03-27T08:50:53.334Z</time></trkpt><trkpt lat="40.8834898" lon="9.5018888"><ele>20.6</ele><time>2026-03-27T08:50:54.325Z</time></trkpt><trkpt lat="40.8834381" lon="9.5017275"><ele>21.2</ele><time>2026-03-27T08:50:55.323Z</time></trkpt><trkpt lat="40.8833931" lon="9.501586"><ele>21.799999999999997</ele><time>2026-03-27T08:50:56.323Z</time></trkpt><trkpt lat="40.8833548" lon="9.5014617"><ele>22.4</ele><time>2026-03-27T08:50:57.319Z</time></trkpt><trkpt lat="40.8833198" lon="9.5013523"><ele>23.0</ele><time>2026-03-27T08:50:58.324Z</time></trkpt><trkpt lat="40.8832891" lon="9.5012627"><ele>24.0</ele><time>2026-03-27T08:50:59.323Z</time></trkpt><trkpt lat="40.8832643" lon="9.5011843"><ele>25.0</ele><time>2026-03-27T08:51:00.341Z</time></trkpt><trkpt lat="40.883235" lon="9.5010951"><ele>26.0</ele><time>2026-03-27T08:51:01.32Z</time></trkpt><trkpt lat="40.8831996" lon="9.5009911"><ele>27.0</ele><time>2026-03-27T08:51:02.324Z</time></trkpt><trkpt lat="40.8831572" lon="9.5008718"><ele>27.999999999999996</ele><time>2026-03-27T08:51:03.324Z</time></trkpt><trkpt lat="40.8830995" lon="9.5007472"><ele>29.0</ele><time>2026-03-27T08:51:04.324Z</time></trkpt><trkpt lat="40.8830221" lon="9.5006227"><ele>29.0</ele><time>2026-03-27T08:51:05.322Z</time></trkpt><trkpt lat="40.882926" lon="9.5005037"><ele>29.0</ele><time>2026-03-27T08:51:06.32Z</time></trkpt><trkpt lat="40.8828188" lon="9.5003856"><ele>29.0</ele><time>2026-03-27T08:51:07.322Z</time></trkpt><trkpt lat="40.8827123" lon="9.5002726"><ele>29.0</ele><time>2026-03-27T08:51:08.323Z</time></trkpt><trkpt lat="40.8826138" lon="9.5001548"><ele>30.25</ele><time>2026-03-27T08:51:09.32Z</time></trkpt><trkpt lat="40.8825269" lon="9.5000249"><ele>31.5</ele><time>2026-03-27T08:51:10.329Z</time></trkpt><trkpt lat="40.8824486" lon="9.499885"><ele>32.75</ele><time>2026-03-27T08:51:11.321Z</time></trkpt><trkpt lat="40.8823746" lon="9.4997411"><ele>34.0</ele><time>2026-03-27T08:51:12.321Z</time></trkpt><trkpt lat="40.8823027" lon="9.499595"><ele>34.5</ele><time>2026-03-27T08:51:13.323Z</time></trkpt><trkpt lat="40.882236" lon="9.4994461"><ele>35.0</ele><time>2026-03-27T08:51:14.324Z</time></trkpt><trkpt lat="40.8821777" lon="9.4992919"><ele>35.5</ele><time>2026-03-27T08:51:15.324Z</time></trkpt><trkpt lat="40.8821263" lon="9.4991296"><ele>36.0</ele><time>2026-03-27T08:51:16.334Z</time></trkpt><trkpt lat="40.8820761" lon="9.4989594"><ele>36.0</ele><time>2026-03-27T08:51:17.316Z</time></trkpt><trkpt lat="40.8820254" lon="9.4987838"><ele>36.0</ele><time>2026-03-27T08:51:18.322Z</time></trkpt><trkpt lat="40.8819718" lon="9.4986049"><ele>36.0</ele><time>2026-03-27T08:51:19.32Z</time></trkpt><trkpt lat="40.8819164" lon="9.498425"><ele>36.0</ele><time>2026-03-27T08:51:20.326Z</time></trkpt><trkpt lat="40.8818614" lon="9.4982581"><ele>36.25</ele><time>2026-03-27T08:51:21.32Z</time></trkpt><trkpt lat="40.881799" lon="9.4981069"><ele>36.5</ele><time>2026-03-27T08:51:22.33Z</time></trkpt><trkpt lat="40.881719" lon="9.4979665"><ele>36.75</ele><time>2026-03-27T08:51:23.319Z</time></trkpt><trkpt lat="40.8816299" lon="9.4978296"><ele>37.0</ele><time>2026-03-27T08:51:24.32Z</time></trkpt><trkpt lat="40.8815466" lon="9.4976847"><ele>37.25</ele><time>2026-03-27T08:51:25.32Z</time></trkpt><trkpt lat="40.881475" lon="9.4975304"><ele>37.5</ele><time>2026-03-27T08:51:26.32Z</time></trkpt><trkpt lat="40.8814119" lon="9.4973681"><ele>37.75</ele><time>2026-03-27T08:51:27.328Z</time></trkpt><trkpt lat="40.8813548" lon="9.4972016"><ele>38.0</ele><time>2026-03-27T08:51:28.325Z</time></trkpt><trkpt lat="40.8813" lon="9.497033"><ele>39.0</ele><time>2026-03-27T08:51:29.32Z</time></trkpt><trkpt lat="40.8812475" lon="9.4968621"><ele>40.0</ele><time>2026-03-27T08:51:30.324Z</time></trkpt><trkpt lat="40.8811944" lon="9.4966911"><ele>41.0</ele><time>2026-03-27T08:51:31.321Z</time></trkpt><trkpt lat="40.8811393" lon="9.4965208"><ele>42.0</ele><time>2026-03-27T08:51:32.321Z</time></trkpt><trkpt lat="40.8810821" lon="9.4963519"><ele>42.0</ele><time>2026-03-27T08:51:33.321Z</time></trkpt><trkpt lat="40.8810233" lon="9.4961843"><ele>42.0</ele><time>2026-03-27T08:51:34.328Z</time></trkpt><trkpt lat="40.8809644" lon="9.4960181"><ele>42.0</ele><time>2026-03-27T08:51:35.327Z</time></trkpt><trkpt lat="40.8809072" lon="9.4958527"><ele>42.0</ele><time>2026-03-27T08:51:36.328Z</time></trkpt><trkpt lat="40.8808532" lon="9.4956876"><ele>42.0</ele><time>2026-03-27T08:51:37.316Z</time></trkpt><trkpt lat="40.8808056" lon="9.4955206"><ele>42.0</ele><time>2026-03-27T08:51:38.323Z</time></trkpt><trkpt lat="40.8807626" lon="9.4953512"><ele>42.0</ele><time>2026-03-27T08:51:39.328Z</time></trkpt><trkpt lat="40.8807192" lon="9.4951813"><ele>42.0</ele><time>2026-03-27T08:51:40.321Z</time></trkpt><trkpt lat="40.8806727" lon="9.4950127"><ele>42.5</ele><time>2026-03-27T08:51:41.327Z</time></trkpt><trkpt lat="40.8806223" lon="9.4948464"><ele>43.0</ele><time>2026-03-27T08:51:42.322Z</time></trkpt><trkpt lat="40.8805735" lon="9.4946807"><ele>43.5</ele><time>2026-03-27T08:51:43.32Z</time></trkpt><trkpt lat="40.8805338" lon="9.4945112"><ele>44.0</ele><time>2026-03-27T08:51:44.32Z</time></trkpt><trkpt lat="40.8805083" lon="9.4943369"><ele>44.75</ele><time>2026-03-27T08:51:45.324Z</time></trkpt><trkpt lat="40.8804957" lon="9.4941606"><ele>45.5</ele><time>2026-03-27T08:51:46.323Z</time></trkpt><trkpt lat="40.8804924" lon="9.4939836"><ele>46.25</ele><time>2026-03-27T08:51:47.318Z</time></trkpt><trkpt lat="40.8804919" lon="9.4938039"><ele>47.0</ele><time>2026-03-27T08:51:48.319Z</time></trkpt><trkpt lat="40.8804909" lon="9.4936191"><ele>47.0</ele><time>2026-03-27T08:51:49.322Z</time></trkpt><trkpt lat="40.8804883" lon="9.4934293"><ele>47.0</ele><time>2026-03-27T08:51:50.318Z</time></trkpt><trkpt lat="40.8804834" lon="9.4932377"><ele>47.0</ele><time>2026-03-27T08:51:51.316Z</time></trkpt><trkpt lat="40.880478" lon="9.4930492"><ele>47.0</ele><time>2026-03-27T08:51:52.323Z</time></trkpt><trkpt lat="40.8804722" lon="9.4928587"><ele>46.75</ele><time>2026-03-27T08:51:53.325Z</time></trkpt><trkpt lat="40.8804673" lon="9.4926661"><ele>46.5</ele><time>2026-03-27T08:51:54.322Z</time></trkpt><trkpt lat="40.8804629" lon="9.4924722"><ele>46.25</ele><time>2026-03-27T08:51:55.321Z</time></trkpt><trkpt lat="40.8804562" lon="9.492273"><ele>46.0</ele><time>2026-03-27T08:51:56.32Z</time></trkpt><trkpt lat="40.8804454" lon="9.4920699"><ele>45.333333333333336</ele><time>2026-03-27T08:51:57.317Z</time></trkpt><trkpt lat="40.8804292" lon="9.4918654"><ele>44.666666666666664</ele><time>2026-03-27T08:51:58.324Z</time></trkpt><trkpt lat="40.8804083" lon="9.4916598"><ele>44.0</ele><time>2026-03-27T08:51:59.325Z</time></trkpt><trkpt lat="40.8803826" lon="9.4914521"><ele>43.666666666666664</ele><time>2026-03-27T08:52:00.324Z</time></trkpt><trkpt lat="40.8803513" lon="9.4912436"><ele>43.333333333333336</ele><time>2026-03-27T08:52:01.328Z</time></trkpt><trkpt lat="40.880315" lon="9.4910352"><ele>43.0</ele><time>2026-03-27T08:52:02.319Z</time></trkpt><trkpt lat="40.8802737" lon="9.4908265"><ele>43.0</ele><time>2026-03-27T08:52:03.326Z</time></trkpt><trkpt lat="40.88023" lon="9.4906174"><ele>43.0</ele><time>2026-03-27T08:52:04.319Z</time></trkpt><trkpt lat="40.8801865" lon="9.4904109"><ele>43.0</ele><time>2026-03-27T08:52:05.327Z</time></trkpt><trkpt lat="40.8801431" lon="9.4902057"><ele>43.333333333333336</ele><time>2026-03-27T08:52:06.323Z</time></trkpt><trkpt lat="40.8800992" lon="9.4900031"><ele>43.666666666666664</ele><time>2026-03-27T08:52:07.325Z</time></trkpt><trkpt lat="40.8800499" lon="9.4898059"><ele>44.0</ele><time>2026-03-27T08:52:08.32Z</time></trkpt><trkpt lat="40.8799872" lon="9.4896287"><ele>44.75</ele><time>2026-03-27T08:52:09.325Z</time></trkpt><trkpt lat="40.8799112" lon="9.4894802"><ele>45.5</ele><time>2026-03-27T08:52:10.32Z</time></trkpt><trkpt lat="40.8798209" lon="9.4893508"><ele>46.25</ele><time>2026-03-27T08:52:11.319Z</time></trkpt><trkpt lat="40.8797209" lon="9.4892236"><ele>47.0</ele><time>2026-03-27T08:52:12.32Z</time></trkpt><trkpt lat="40.8796202" lon="9.4890891"><ele>47.0</ele><time>2026-03-27T08:52:13.321Z</time></trkpt><trkpt lat="40.8795211" lon="9.4889507"><ele>47.0</ele><time>2026-03-27T08:52:14.325Z</time></trkpt><trkpt lat="40.8794245" lon="9.4888138"><ele>47.0</ele><time>2026-03-27T08:52:15.321Z</time></trkpt><trkpt lat="40.8793288" lon="9.4886758"><ele>47.0</ele><time>2026-03-27T08:52:16.326Z</time></trkpt><trkpt lat="40.8792359" lon="9.4885385"><ele>47.75</ele><time>2026-03-27T08:52:17.319Z</time></trkpt><trkpt lat="40.8791386" lon="9.4884262"><ele>48.5</ele><time>2026-03-27T08:52:18.333Z</time></trkpt><trkpt lat="40.8790531" lon="9.4883097"><ele>49.25</ele><time>2026-03-27T08:52:19.322Z</time></trkpt><trkpt lat="40.8789636" lon="9.4882159"><ele>50.0</ele><time>2026-03-27T08:52:20.321Z</time></trkpt><trkpt lat="40.8788668" lon="9.4881516"><ele>50.0</ele><time>2026-03-27T08:52:21.317Z</time></trkpt><trkpt lat="40.8787622" lon="9.4881037"><ele>50.0</ele><time>2026-03-27T08:52:22.319Z</time></trkpt><trkpt lat="40.878661" lon="9.4880693"><ele>50.0</ele><time>2026-03-27T08:52:23.322Z</time></trkpt><trkpt lat="40.8785738" lon="9.4880196"><ele>50.0</ele><time>2026-03-27T08:52:24.321Z</time></trkpt><trkpt lat="40.8784975" lon="9.4879563"><ele>50.0</ele><time>2026-03-27T08:52:25.318Z</time></trkpt><trkpt lat="40.8784306" lon="9.4878778"><ele>50.0</ele><time>2026-03-27T08:52:26.316Z</time></trkpt><trkpt lat="40.878378" lon="9.487779"><ele>50.0</ele><time>2026-03-27T08:52:27.323Z</time></trkpt><trkpt lat="40.8783375" lon="9.4876603"><ele>50.0</ele><time>2026-03-27T08:52:28.316Z</time></trkpt><trkpt lat="40.8783002" lon="9.487534"><ele>50.0</ele><time>2026-03-27T08:52:29.33Z</time></trkpt><trkpt lat="40.8782651" lon="9.4874084"><ele>50.0</ele><time>2026-03-27T08:52:30.325Z</time></trkpt><trkpt lat="40.8782315" lon="9.4872773"><ele>50.0</ele><time>2026-03-27T08:52:31.318Z</time></trkpt><trkpt lat="40.8781957" lon="9.4871419"><ele>50.0</ele><time>2026-03-27T08:52:32.324Z</time></trkpt><trkpt lat="40.8781478" lon="9.4870096"><ele>50.0</ele><time>2026-03-27T08:52:33.325Z</time></trkpt><trkpt lat="40.8780921" lon="9.4868847"><ele>50.0</ele><time>2026-03-27T08:52:34.323Z</time></trkpt><trkpt lat="40.8780446" lon="9.4867414"><ele>50.0</ele><time>2026-03-27T08:52:35.324Z</time></trkpt><trkpt lat="40.8779966" lon="9.4866099"><ele>50.2</ele><time>2026-03-27T08:52:36.325Z</time></trkpt><trkpt lat="40.8779449" lon="9.4864925"><ele>50.4</ele><time>2026-03-27T08:52:37.324Z</time></trkpt><trkpt lat="40.8778888" lon="9.4863904"><ele>50.599999999999994</ele><time>2026-03-27T08:52:38.321Z</time></trkpt><trkpt lat="40.8778246" lon="9.4862935"><ele>50.8</ele><time>2026-03-27T08:52:39.32Z</time></trkpt><trkpt lat="40.8777613" lon="9.4862076"><ele>51.0</ele><time>2026-03-27T08:52:40.323Z</time></trkpt><trkpt lat="40.8776985" lon="9.4861262"><ele>50.4</ele><time>2026-03-27T08:52:41.321Z</time></trkpt><trkpt lat="40.8776318" lon="9.4860484"><ele>49.8</ele><time>2026-03-27T08:52:42.323Z</time></trkpt><trkpt lat="40.8775519" lon="9.4859714"><ele>49.199999999999996</ele><time>2026-03-27T08:52:43.323Z</time></trkpt><trkpt lat="40.8774665" lon="9.4858966"><ele>48.599999999999994</ele><time>2026-03-27T08:52:44.318Z</time></trkpt><trkpt lat="40.8773838" lon="9.485824"><ele>48.0</ele><time>2026-03-27T08:52:45.323Z</time></trkpt><trkpt lat="40.8773051" lon="9.4857569"><ele>46.8</ele><time>2026-03-27T08:52:46.316Z</time></trkpt><trkpt lat="40.877245" lon="9.485661"><ele>45.599999999999994</ele><time>2026-03-27T08:52:47.321Z</time></trkpt><trkpt lat="40.8771886" lon="9.4855473"><ele>44.400000000000006</ele><time>2026-03-27T08:52:48.32Z</time></trkpt><trkpt lat="40.8771418" lon="9.4854312"><ele>43.2</ele><time>2026-03-27T08:52:49.329Z</time></trkpt><trkpt lat="40.8770939" lon="9.4852982"><ele>42.0</ele><time>2026-03-27T08:52:50.316Z</time></trkpt><trkpt lat="40.8770224" lon="9.4851652"><ele>41.75</ele><time>2026-03-27T08:52:51.316Z</time></trkpt><trkpt lat="40.8769481" lon="9.4850218"><ele>41.5</ele><time>2026-03-27T08:52:52.317Z</time></trkpt><trkpt lat="40.8768761" lon="9.484886"><ele>41.25</ele><time>2026-03-27T08:52:53.321Z</time></trkpt><trkpt lat="40.8768091" lon="9.4847581"><ele>41.0</ele><time>2026-03-27T08:52:54.316Z</time></trkpt><trkpt lat="40.8767392" lon="9.4846303"><ele>39.8</ele><time>2026-03-27T08:52:55.321Z</time></trkpt><trkpt lat="40.8766782" lon="9.4845154"><ele>38.599999999999994</ele><time>2026-03-27T08:52:56.319Z</time></trkpt><trkpt lat="40.8766208" lon="9.4844104"><ele>37.4</ele><time>2026-03-27T08:52:57.323Z</time></trkpt><trkpt lat="40.8765677" lon="9.4843154"><ele>36.2</ele><time>2026-03-27T08:52:58.318Z</time></trkpt><trkpt lat="40.8765199" lon="9.484245"><ele>35.0</ele><time>2026-03-27T08:52:59.327Z</time></trkpt><trkpt lat="40.8764162" lon="9.4841698"><ele>35.0</ele><time>2026-03-27T08:53:01.327Z</time></trkpt><trkpt lat="40.8763487" lon="9.4841726"><ele>35.0</ele><time>2026-03-27T08:53:02.316Z</time></trkpt><trkpt lat="40.8762633" lon="9.4842004"><ele>35.0</ele><time>2026-03-27T08:53:03.316Z</time></trkpt><trkpt lat="40.8761554" lon="9.4842254"><ele>35.0</ele><time>2026-03-27T08:53:04.32Z</time></trkpt><trkpt lat="40.8760296" lon="9.4842738"><ele>35.0</ele><time>2026-03-27T08:53:05.319Z</time></trkpt><trkpt lat="40.8759058" lon="9.4843087"><ele>35.0</ele><time>2026-03-27T08:53:06.318Z</time></trkpt><trkpt lat="40.8757882" lon="9.4843306"><ele>35.0</ele><time>2026-03-27T08:53:07.316Z</time></trkpt><trkpt lat="40.8756731" lon="9.4843605"><ele>35.0</ele><time>2026-03-27T08:53:08.32Z</time></trkpt><trkpt lat="40.8755636" lon="9.4843747"><ele>35.0</ele><time>2026-03-27T08:53:09.32Z</time></trkpt><trkpt lat="40.8754524" lon="9.4843888"><ele>35.0</ele><time>2026-03-27T08:53:10.324Z</time></trkpt><trkpt lat="40.8753376" lon="9.4843992"><ele>35.0</ele><time>2026-03-27T08:53:11.319Z</time></trkpt><trkpt lat="40.8752325" lon="9.4844128"><ele>35.0</ele><time>2026-03-27T08:53:12.321Z</time></trkpt><trkpt lat="40.8751377" lon="9.4844273"><ele>35.0</ele><time>2026-03-27T08:53:13.341Z</time></trkpt><trkpt lat="40.8750385" lon="9.4844435"><ele>35.0</ele><time>2026-03-27T08:53:14.317Z</time></trkpt><trkpt lat="40.8749359" lon="9.4844591"><ele>35.0</ele><time>2026-03-27T08:53:15.313Z</time></trkpt><trkpt lat="40.8748251" lon="9.4844819"><ele>35.0</ele><time>2026-03-27T08:53:16.323Z</time></trkpt><trkpt lat="40.8747166" lon="9.4844949"><ele>35.0</ele><time>2026-03-27T08:53:17.316Z</time></trkpt><trkpt lat="40.8746036" lon="9.4845141"><ele>35.0</ele><time>2026-03-27T08:53:18.321Z</time></trkpt><trkpt lat="40.8745016" lon="9.4845313"><ele>35.0</ele><time>2026-03-27T08:53:19.326Z</time></trkpt><trkpt lat="40.8743837" lon="9.4845504"><ele>34.25</ele><time>2026-03-27T08:53:20.321Z</time></trkpt><trkpt lat="40.8742652" lon="9.4845647"><ele>33.5</ele><time>2026-03-27T08:53:21.329Z</time></trkpt><trkpt lat="40.8741405" lon="9.4845846"><ele>32.75</ele><time>2026-03-27T08:53:22.319Z</time></trkpt><trkpt lat="40.8740086" lon="9.4845903"><ele>32.0</ele><time>2026-03-27T08:53:23.317Z</time></trkpt><trkpt lat="40.8738919" lon="9.4846115"><ele>31.0</ele><time>2026-03-27T08:53:24.319Z</time></trkpt><trkpt lat="40.8737563" lon="9.4846252"><ele>30.0</ele><time>2026-03-27T08:53:25.32Z</time></trkpt><trkpt lat="40.8736189" lon="9.4846484"><ele>29.0</ele><time>2026-03-27T08:53:26.314Z</time></trkpt><trkpt lat="40.8734754" lon="9.4846735"><ele>28.0</ele><time>2026-03-27T08:53:27.316Z</time></trkpt><trkpt lat="40.8733254" lon="9.4847034"><ele>27.0</ele><time>2026-03-27T08:53:28.317Z</time></trkpt><trkpt lat="40.8731773" lon="9.4847354"><ele>26.0</ele><time>2026-03-27T08:53:29.322Z</time></trkpt><trkpt lat="40.8730331" lon="9.4847627"><ele>25.0</ele><time>2026-03-27T08:53:30.317Z</time></trkpt><trkpt lat="40.87289" lon="9.4847908"><ele>24.0</ele><time>2026-03-27T08:53:31.316Z</time></trkpt><trkpt lat="40.8727515" lon="9.4848165"><ele>24.0</ele><time>2026-03-27T08:53:32.323Z</time></trkpt><trkpt lat="40.8726214" lon="9.4848408"><ele>24.0</ele><time>2026-03-27T08:53:33.327Z</time></trkpt><trkpt lat="40.8724938" lon="9.4848614"><ele>24.0</ele><time>2026-03-27T08:53:34.321Z</time></trkpt><trkpt lat="40.8723613" lon="9.4848775"><ele>24.0</ele><time>2026-03-27T08:53:35.33Z</time></trkpt><trkpt lat="40.8722351" lon="9.4848992"><ele>24.0</ele><time>2026-03-27T08:53:36.327Z</time></trkpt><trkpt lat="40.8721151" lon="9.4849249"><ele>24.0</ele><time>2026-03-27T08:53:37.321Z</time></trkpt><trkpt lat="40.8720008" lon="9.4849495"><ele>24.0</ele><time>2026-03-27T08:53:38.32Z</time></trkpt><trkpt lat="40.8718957" lon="9.4849794"><ele>24.0</ele><time>2026-03-27T08:53:39.319Z</time></trkpt><trkpt lat="40.8718039" lon="9.4850089"><ele>24.0</ele><time>2026-03-27T08:53:40.327Z</time></trkpt><trkpt lat="40.8717295" lon="9.4850392"><ele>24.166666666666668</ele><time>2026-03-27T08:53:41.321Z</time></trkpt><trkpt lat="40.8716668" lon="9.4850549"><ele>24.333333333333336</ele><time>2026-03-27T08:53:42.317Z</time></trkpt><trkpt lat="40.8716019" lon="9.485061"><ele>24.5</ele><time>2026-03-27T08:53:43.319Z</time></trkpt><trkpt lat="40.8715259" lon="9.4850648"><ele>24.666666666666668</ele><time>2026-03-27T08:53:44.318Z</time></trkpt><trkpt lat="40.8714359" lon="9.4850726"><ele>24.833333333333336</ele><time>2026-03-27T08:53:45.319Z</time></trkpt><trkpt lat="40.8713492" lon="9.485084"><ele>25.0</ele><time>2026-03-27T08:53:46.324Z</time></trkpt><trkpt lat="40.8712635" lon="9.4850981"><ele>25.000000000000004</ele><time>2026-03-27T08:53:47.319Z</time></trkpt><trkpt lat="40.8711808" lon="9.4851117"><ele>25.0</ele><time>2026-03-27T08:53:48.321Z</time></trkpt><trkpt lat="40.8710963" lon="9.4851308"><ele>25.0</ele><time>2026-03-27T08:53:49.322Z</time></trkpt><trkpt lat="40.8710084" lon="9.4851294"><ele>25.0</ele><time>2026-03-27T08:53:50.32Z</time></trkpt><trkpt lat="40.8709191" lon="9.4851349"><ele>25.000000000000004</ele><time>2026-03-27T08:53:51.34Z</time></trkpt><trkpt lat="40.8708257" lon="9.4851673"><ele>25.0</ele><time>2026-03-27T08:53:52.32Z</time></trkpt><trkpt lat="40.8707355" lon="9.4851827"><ele>24.8</ele><time>2026-03-27T08:53:53.325Z</time></trkpt><trkpt lat="40.8706337" lon="9.4852195"><ele>24.6</ele><time>2026-03-27T08:53:54.32Z</time></trkpt><trkpt lat="40.8705401" lon="9.4852197"><ele>24.4</ele><time>2026-03-27T08:53:55.325Z</time></trkpt><trkpt lat="40.8704497" lon="9.485224"><ele>24.2</ele><time>2026-03-27T08:53:56.331Z</time></trkpt><trkpt lat="40.8703509" lon="9.485228"><ele>24.0</ele><time>2026-03-27T08:53:57.319Z</time></trkpt><trkpt lat="40.8702572" lon="9.4852283"><ele>24.0</ele><time>2026-03-27T08:53:58.322Z</time></trkpt><trkpt lat="40.8701696" lon="9.4852436"><ele>24.0</ele><time>2026-03-27T08:53:59.323Z</time></trkpt><trkpt lat="40.8700785" lon="9.4852815"><ele>24.0</ele><time>2026-03-27T08:54:00.319Z</time></trkpt><trkpt lat="40.8699829" lon="9.4853202"><ele>24.0</ele><time>2026-03-27T08:54:01.322Z</time></trkpt><trkpt lat="40.8698872" lon="9.4853556"><ele>24.0</ele><time>2026-03-27T08:54:02.323Z</time></trkpt><trkpt lat="40.8697805" lon="9.485393"><ele>24.75</ele><time>2026-03-27T08:54:03.32Z</time></trkpt><trkpt lat="40.8696711" lon="9.4854324"><ele>25.5</ele><time>2026-03-27T08:54:04.325Z</time></trkpt><trkpt lat="40.8695619" lon="9.4854804"><ele>26.25</ele><time>2026-03-27T08:54:05.315Z</time></trkpt><trkpt lat="40.8694507" lon="9.4855299"><ele>27.0</ele><time>2026-03-27T08:54:06.328Z</time></trkpt><trkpt lat="40.8693378" lon="9.4855724"><ele>27.25</ele><time>2026-03-27T08:54:07.324Z</time></trkpt><trkpt lat="40.8692224" lon="9.4856107"><ele>27.5</ele><time>2026-03-27T08:54:08.322Z</time></trkpt><trkpt lat="40.86911" lon="9.4856473"><ele>27.75</ele><time>2026-03-27T08:54:09.322Z</time></trkpt><trkpt lat="40.8689979" lon="9.4856826"><ele>28.0</ele><time>2026-03-27T08:54:10.32Z</time></trkpt><trkpt lat="40.8688866" lon="9.4857128"><ele>28.0</ele><time>2026-03-27T08:54:11.32Z</time></trkpt><trkpt lat="40.8687751" lon="9.4857358"><ele>27.999999999999996</ele><time>2026-03-27T08:54:12.323Z</time></trkpt><trkpt lat="40.8686698" lon="9.4857564"><ele>27.999999999999996</ele><time>2026-03-27T08:54:13.321Z</time></trkpt><trkpt lat="40.8685722" lon="9.4857565"><ele>28.0</ele><time>2026-03-27T08:54:14.323Z</time></trkpt><trkpt lat="40.8684728" lon="9.4857614"><ele>28.0</ele><time>2026-03-27T08:54:15.318Z</time></trkpt><trkpt lat="40.868372" lon="9.485768"><ele>28.0</ele><time>2026-03-27T08:54:16.323Z</time></trkpt><trkpt lat="40.8682662" lon="9.4857909"><ele>27.999999999999996</ele><time>2026-03-27T08:54:17.32Z</time></trkpt><trkpt lat="40.8681657" lon="9.4858104"><ele>27.999999999999996</ele><time>2026-03-27T08:54:18.326Z</time></trkpt><trkpt lat="40.8680628" lon="9.4858117"><ele>28.0</ele><time>2026-03-27T08:54:19.324Z</time></trkpt><trkpt lat="40.8679624" lon="9.4858094"><ele>28.0</ele><time>2026-03-27T08:54:20.326Z</time></trkpt><trkpt lat="40.8678589" lon="9.4858041"><ele>28.0</ele><time>2026-03-27T08:54:21.325Z</time></trkpt><trkpt lat="40.8677517" lon="9.4857978"><ele>28.0</ele><time>2026-03-27T08:54:22.32Z</time></trkpt><trkpt lat="40.8676371" lon="9.4857827"><ele>28.0</ele><time>2026-03-27T08:54:23.322Z</time></trkpt><trkpt lat="40.8675206" lon="9.4857524"><ele>28.0</ele><time>2026-03-27T08:54:24.324Z</time></trkpt><trkpt lat="40.8673954" lon="9.4857187"><ele>27.75</ele><time>2026-03-27T08:54:25.324Z</time></trkpt><trkpt lat="40.8672688" lon="9.4856685"><ele>27.5</ele><time>2026-03-27T08:54:26.324Z</time></trkpt><trkpt lat="40.8671511" lon="9.4856255"><ele>27.25</ele><time>2026-03-27T08:54:27.322Z</time></trkpt><trkpt lat="40.8670415" lon="9.4855818"><ele>27.0</ele><time>2026-03-27T08:54:28.33Z</time></trkpt><trkpt lat="40.8669446" lon="9.4855553"><ele>27.0</ele><time>2026-03-27T08:54:29.32Z</time></trkpt><trkpt lat="40.8668514" lon="9.4855309"><ele>27.000000000000004</ele><time>2026-03-27T08:54:30.326Z</time></trkpt><trkpt lat="40.8667551" lon="9.4855048"><ele>27.000000000000004</ele><time>2026-03-27T08:54:31.326Z</time></trkpt><trkpt lat="40.8666596" lon="9.4854806"><ele>27.0</ele><time>2026-03-27T08:54:32.325Z</time></trkpt><trkpt lat="40.8665617" lon="9.485454"><ele>27.0</ele><time>2026-03-27T08:54:33.324Z</time></trkpt><trkpt lat="40.8664612" lon="9.4854202"><ele>27.0</ele><time>2026-03-27T08:54:34.323Z</time></trkpt><trkpt lat="40.8663674" lon="9.4853761"><ele>27.000000000000004</ele><time>2026-03-27T08:54:35.325Z</time></trkpt><trkpt lat="40.8662737" lon="9.4853249"><ele>27.000000000000004</ele><time>2026-03-27T08:54:36.327Z</time></trkpt><trkpt lat="40.8661803" lon="9.4852742"><ele>27.0</ele><time>2026-03-27T08:54:37.324Z</time></trkpt><trkpt lat="40.8660839" lon="9.4852244"><ele>27.0</ele><time>2026-03-27T08:54:38.331Z</time></trkpt><trkpt lat="40.8659895" lon="9.4851865"><ele>27.333333333333332</ele><time>2026-03-27T08:54:39.323Z</time></trkpt><trkpt lat="40.8659107" lon="9.4851547"><ele>27.666666666666664</ele><time>2026-03-27T08:54:40.325Z</time></trkpt><trkpt lat="40.8658435" lon="9.4851137"><ele>28.0</ele><time>2026-03-27T08:54:42.324Z</time></trkpt><trkpt lat="40.8657737" lon="9.4850647"><ele>28.333333333333332</ele><time>2026-03-27T08:54:46.322Z</time></trkpt><trkpt lat="40.865689" lon="9.4850145"><ele>28.666666666666664</ele><time>2026-03-27T08:54:49.322Z</time></trkpt><trkpt lat="40.8656253" lon="9.4849814"><ele>29.0</ele><time>2026-03-27T08:54:51.32Z</time></trkpt><trkpt lat="40.8655316" lon="9.4849407"><ele>29.0</ele><time>2026-03-27T08:54:53.317Z</time></trkpt><trkpt lat="40.8654125" lon="9.4849036"><ele>29.0</ele><time>2026-03-27T08:54:55.316Z</time></trkpt><trkpt lat="40.8653106" lon="9.4848728"><ele>29.0</ele><time>2026-03-27T08:54:57.321Z</time></trkpt><trkpt lat="40.865213" lon="9.4848414"><ele>29.0</ele><time>2026-03-27T08:54:59.322Z</time></trkpt><trkpt lat="40.8651245" lon="9.4848101"><ele>29.0</ele><time>2026-03-27T08:55:01.32Z</time></trkpt><trkpt lat="40.8650318" lon="9.4847657"><ele>29.2</ele><time>2026-03-27T08:55:03.325Z</time></trkpt><trkpt lat="40.8649152" lon="9.4847157"><ele>29.4</ele><time>2026-03-27T08:55:05.318Z</time></trkpt><trkpt lat="40.8648191" lon="9.4846936"><ele>29.6</ele><time>2026-03-27T08:55:07.325Z</time></trkpt><trkpt lat="40.8647498" lon="9.4846792"><ele>29.8</ele><time>2026-03-27T08:55:09.322Z</time></trkpt><trkpt lat="40.8646646" lon="9.4846491"><ele>30.0</ele><time>2026-03-27T08:55:11.323Z</time></trkpt><trkpt lat="40.8645632" lon="9.4846043"><ele>30.0</ele><time>2026-03-27T08:55:13.322Z</time></trkpt><trkpt lat="40.864451" lon="9.4845408"><ele>30.0</ele><time>2026-03-27T08:55:15.32Z</time></trkpt><trkpt lat="40.8643885" lon="9.4845091"><ele>30.0</ele><time>2026-03-27T08:55:16.324Z</time></trkpt><trkpt lat="40.864317" lon="9.4844703"><ele>30.0</ele><time>2026-03-27T08:55:17.323Z</time></trkpt><trkpt lat="40.8642399" lon="9.4844305"><ele>30.0</ele><time>2026-03-27T08:55:18.323Z</time></trkpt><trkpt lat="40.8641548" lon="9.484396"><ele>30.0</ele><time>2026-03-27T08:55:19.32Z</time></trkpt><trkpt lat="40.8640758" lon="9.4843577"><ele>30.0</ele><time>2026-03-27T08:55:20.324Z</time></trkpt><trkpt lat="40.863994" lon="9.4843185"><ele>30.0</ele><time>2026-03-27T08:55:21.324Z</time></trkpt><trkpt lat="40.8639239" lon="9.4842533"><ele>30.0</ele><time>2026-03-27T08:55:22.32Z</time></trkpt><trkpt lat="40.8638703" lon="9.4841836"><ele>30.0</ele><time>2026-03-27T08:55:23.324Z</time></trkpt><trkpt lat="40.8638154" lon="9.4841075"><ele>30.0</ele><time>2026-03-27T08:55:24.329Z</time></trkpt><trkpt lat="40.8637567" lon="9.4840287"><ele>30.0</ele><time>2026-03-27T08:55:25.316Z</time></trkpt><trkpt lat="40.8636898" lon="9.4839529"><ele>30.0</ele><time>2026-03-27T08:55:26.32Z</time></trkpt><trkpt lat="40.863618" lon="9.4838871"><ele>30.0</ele><time>2026-03-27T08:55:27.321Z</time></trkpt><trkpt lat="40.8635345" lon="9.4838381"><ele>30.0</ele><time>2026-03-27T08:55:28.319Z</time></trkpt><trkpt lat="40.8634566" lon="9.4838007"><ele>30.0</ele><time>2026-03-27T08:55:29.321Z</time></trkpt><trkpt lat="40.8633928" lon="9.4837749"><ele>30.0</ele><time>2026-03-27T08:55:30.328Z</time></trkpt><trkpt lat="40.8632647" lon="9.483756"><ele>30.0</ele><time>2026-03-27T08:55:32.32Z</time></trkpt><trkpt lat="40.8631989" lon="9.4837561"><ele>30.0</ele><time>2026-03-27T08:55:33.32Z</time></trkpt><trkpt lat="40.8631106" lon="9.4837656"><ele>30.0</ele><time>2026-03-27T08:55:35.321Z</time></trkpt><trkpt lat="40.8630288" lon="9.4837861"><ele>30.0</ele><time>2026-03-27T08:55:37.317Z</time></trkpt><trkpt lat="40.8629018" lon="9.4838091"><ele>30.0</ele><time>2026-03-27T08:55:39.322Z</time></trkpt><trkpt lat="40.8628182" lon="9.4838195"><ele>30.0</ele><time>2026-03-27T08:55:40.325Z</time></trkpt><trkpt lat="40.8627233" lon="9.483831"><ele>30.0</ele><time>2026-03-27T08:55:41.32Z</time></trkpt><trkpt lat="40.8626273" lon="9.4838376"><ele>30.0</ele><time>2026-03-27T08:55:42.322Z</time></trkpt><trkpt lat="40.8625256" lon="9.4838413"><ele>30.0</ele><time>2026-03-27T08:55:43.329Z</time></trkpt><trkpt lat="40.8624221" lon="9.4838464"><ele>30.0</ele><time>2026-03-27T08:55:44.32Z</time></trkpt><trkpt lat="40.8623163" lon="9.4838461"><ele>30.0</ele><time>2026-03-27T08:55:45.318Z</time></trkpt><trkpt lat="40.8622009" lon="9.4838388"><ele>30.0</ele><time>2026-03-27T08:55:46.324Z</time></trkpt><trkpt lat="40.8620881" lon="9.4838312"><ele>30.0</ele><time>2026-03-27T08:55:47.33Z</time></trkpt><trkpt lat="40.8619788" lon="9.4838271"><ele>30.0</ele><time>2026-03-27T08:55:48.321Z</time></trkpt><trkpt lat="40.8618688" lon="9.4838232"><ele>30.0</ele><time>2026-03-27T08:55:49.328Z</time></trkpt><trkpt lat="40.8617541" lon="9.4838202"><ele>30.25</ele><time>2026-03-27T08:55:50.324Z</time></trkpt><trkpt lat="40.8616366" lon="9.4838195"><ele>30.5</ele><time>2026-03-27T08:55:51.322Z</time></trkpt><trkpt lat="40.8615184" lon="9.4838167"><ele>30.75</ele><time>2026-03-27T08:55:52.321Z</time></trkpt><trkpt lat="40.8613944" lon="9.4838143"><ele>31.0</ele><time>2026-03-27T08:55:53.32Z</time></trkpt><trkpt lat="40.8612638" lon="9.4838113"><ele>31.0</ele><time>2026-03-27T08:55:54.325Z</time></trkpt><trkpt lat="40.8611292" lon="9.4838091"><ele>31.0</ele><time>2026-03-27T08:55:55.319Z</time></trkpt><trkpt lat="40.8609825" lon="9.4838072"><ele>31.0</ele><time>2026-03-27T08:55:56.326Z</time></trkpt><trkpt lat="40.8608394" lon="9.4838043"><ele>31.0</ele><time>2026-03-27T08:55:57.321Z</time></trkpt><trkpt lat="40.8607052" lon="9.4838002"><ele>31.0</ele><time>2026-03-27T08:55:58.321Z</time></trkpt><trkpt lat="40.8605761" lon="9.483794"><ele>31.0</ele><time>2026-03-27T08:55:59.319Z</time></trkpt><trkpt lat="40.8604517" lon="9.4837925"><ele>31.0</ele><time>2026-03-27T08:56:00.325Z</time></trkpt><trkpt lat="40.8603121" lon="9.483793"><ele>31.0</ele><time>2026-03-27T08:56:01.333Z</time></trkpt><trkpt lat="40.8601634" lon="9.4837916"><ele>31.75</ele><time>2026-03-27T08:56:02.323Z</time></trkpt><trkpt lat="40.8600104" lon="9.4837889"><ele>32.5</ele><time>2026-03-27T08:56:03.32Z</time></trkpt><trkpt lat="40.8598648" lon="9.4837895"><ele>33.25</ele><time>2026-03-27T08:56:04.318Z</time></trkpt><trkpt lat="40.8597277" lon="9.4837969"><ele>34.0</ele><time>2026-03-27T08:56:05.321Z</time></trkpt><trkpt lat="40.8596037" lon="9.483798"><ele>34.0</ele><time>2026-03-27T08:56:06.328Z</time></trkpt><trkpt lat="40.8595096" lon="9.4837998"><ele>34.0</ele><time>2026-03-27T08:56:07.323Z</time></trkpt><trkpt lat="40.8594364" lon="9.4838137"><ele>34.0</ele><time>2026-03-27T08:56:08.329Z</time></trkpt><trkpt lat="40.8593434" lon="9.4838785"><ele>34.0</ele><time>2026-03-27T08:56:10.323Z</time></trkpt><trkpt lat="40.8593119" lon="9.4840462"><ele>34.0</ele><time>2026-03-27T08:56:12.327Z</time></trkpt><trkpt lat="40.8593254" lon="9.4841801"><ele>34.0</ele><time>2026-03-27T08:56:13.317Z</time></trkpt><trkpt lat="40.8593426" lon="9.484332"><ele>34.0</ele><time>2026-03-27T08:56:14.322Z</time></trkpt><trkpt lat="40.859349" lon="9.4845208"><ele>34.0</ele><time>2026-03-27T08:56:15.324Z</time></trkpt><trkpt lat="40.8593571" lon="9.4847127"><ele>34.0</ele><time>2026-03-27T08:56:16.32Z</time></trkpt><trkpt lat="40.8593638" lon="9.4849176"><ele>33.333333333333336</ele><time>2026-03-27T08:56:17.331Z</time></trkpt><trkpt lat="40.8593741" lon="9.4851268"><ele>32.666666666666664</ele><time>2026-03-27T08:56:18.321Z</time></trkpt><trkpt lat="40.859386" lon="9.4853355"><ele>32.0</ele><time>2026-03-27T08:56:19.319Z</time></trkpt><trkpt lat="40.8593961" lon="9.4855341"><ele>32.0</ele><time>2026-03-27T08:56:20.32Z</time></trkpt><trkpt lat="40.8594096" lon="9.4857392"><ele>32.0</ele><time>2026-03-27T08:56:21.315Z</time></trkpt><trkpt lat="40.8594257" lon="9.4859534"><ele>32.0</ele><time>2026-03-27T08:56:22.322Z</time></trkpt><trkpt lat="40.8594249" lon="9.4861584"><ele>31.666666666666664</ele><time>2026-03-27T08:56:23.321Z</time></trkpt><trkpt lat="40.8594354" lon="9.4863742"><ele>31.333333333333336</ele><time>2026-03-27T08:56:24.319Z</time></trkpt><trkpt lat="40.8594403" lon="9.4865815"><ele>31.0</ele><time>2026-03-27T08:56:25.319Z</time></trkpt><trkpt lat="40.8594462" lon="9.4867836"><ele>31.0</ele><time>2026-03-27T08:56:26.317Z</time></trkpt><trkpt lat="40.8594523" lon="9.4869669"><ele>31.0</ele><time>2026-03-27T08:56:27.322Z</time></trkpt><trkpt lat="40.8594527" lon="9.4871345"><ele>31.0</ele><time>2026-03-27T08:56:28.319Z</time></trkpt><trkpt lat="40.8594539" lon="9.4872751"><ele>31.0</ele><time>2026-03-27T08:56:29.32Z</time></trkpt><trkpt lat="40.8594642" lon="9.4874001"><ele>31.25</ele><time>2026-03-27T08:56:30.32Z</time></trkpt><trkpt lat="40.8594714" lon="9.4875223"><ele>31.5</ele><time>2026-03-27T08:56:31.32Z</time></trkpt><trkpt lat="40.8594819" lon="9.4876617"><ele>31.75</ele><time>2026-03-27T08:56:32.325Z</time></trkpt><trkpt lat="40.8594913" lon="9.4878601"><ele>32.0</ele><time>2026-03-27T08:56:33.317Z</time></trkpt><trkpt lat="40.8594968" lon="9.4880578"><ele>32.33333333333333</ele><time>2026-03-27T08:56:34.32Z</time></trkpt><trkpt lat="40.8595078" lon="9.4882525"><ele>32.666666666666664</ele><time>2026-03-27T08:56:35.32Z</time></trkpt><trkpt lat="40.8595165" lon="9.4884532"><ele>33.0</ele><time>2026-03-27T08:56:36.319Z</time></trkpt><trkpt lat="40.8595278" lon="9.488654"><ele>32.333333333333336</ele><time>2026-03-27T08:56:37.322Z</time></trkpt><trkpt lat="40.8595443" lon="9.4888572"><ele>31.666666666666668</ele><time>2026-03-27T08:56:38.319Z</time></trkpt><trkpt lat="40.8595575" lon="9.4890597"><ele>31.0</ele><time>2026-03-27T08:56:39.323Z</time></trkpt><trkpt lat="40.8595773" lon="9.4892647"><ele>31.0</ele><time>2026-03-27T08:56:40.32Z</time></trkpt><trkpt lat="40.8595947" lon="9.4894743"><ele>31.0</ele><time>2026-03-27T08:56:41.319Z</time></trkpt><trkpt lat="40.8596117" lon="9.4896812"><ele>31.0</ele><time>2026-03-27T08:56:42.325Z</time></trkpt><trkpt lat="40.8596463" lon="9.4898682"><ele>30.75</ele><time>2026-03-27T08:56:43.32Z</time></trkpt><trkpt lat="40.8596589" lon="9.4900385"><ele>30.5</ele><time>2026-03-27T08:56:44.327Z</time></trkpt><trkpt lat="40.8596469" lon="9.4901938"><ele>30.25</ele><time>2026-03-27T08:56:45.315Z</time></trkpt><trkpt lat="40.8596315" lon="9.4903424"><ele>30.0</ele><time>2026-03-27T08:56:46.321Z</time></trkpt><trkpt lat="40.8596013" lon="9.4905282"><ele>29.5</ele><time>2026-03-27T08:56:47.319Z</time></trkpt><trkpt lat="40.8595682" lon="9.4907149"><ele>29.0</ele><time>2026-03-27T08:56:48.32Z</time></trkpt><trkpt lat="40.8595365" lon="9.4909229"><ele>28.5</ele><time>2026-03-27T08:56:49.32Z</time></trkpt><trkpt lat="40.8595082" lon="9.4911015"><ele>28.0</ele><time>2026-03-27T08:56:50.32Z</time></trkpt><trkpt lat="40.8594847" lon="9.4912618"><ele>28.0</ele><time>2026-03-27T08:56:51.32Z</time></trkpt><trkpt lat="40.8594766" lon="9.4914186"><ele>28.0</ele><time>2026-03-27T08:56:52.318Z</time></trkpt><trkpt lat="40.8594788" lon="9.491605"><ele>28.0</ele><time>2026-03-27T08:56:53.316Z</time></trkpt><trkpt lat="40.8594731" lon="9.4918066"><ele>28.0</ele><time>2026-03-27T08:56:54.317Z</time></trkpt><trkpt lat="40.8594616" lon="9.4920094"><ele>27.25</ele><time>2026-03-27T08:56:55.32Z</time></trkpt><trkpt lat="40.8594425" lon="9.4922039"><ele>26.5</ele><time>2026-03-27T08:56:56.32Z</time></trkpt><trkpt lat="40.8594281" lon="9.4923955"><ele>25.75</ele><time>2026-03-27T08:56:57.318Z</time></trkpt><trkpt lat="40.859426" lon="9.492599"><ele>25.0</ele><time>2026-03-27T08:56:58.328Z</time></trkpt><trkpt lat="40.8594311" lon="9.4927955"><ele>25.0</ele><time>2026-03-27T08:56:59.321Z</time></trkpt><trkpt lat="40.8594279" lon="9.4929712"><ele>25.0</ele><time>2026-03-27T08:57:00.321Z</time></trkpt><trkpt lat="40.859421" lon="9.493141"><ele>25.0</ele><time>2026-03-27T08:57:01.32Z</time></trkpt><trkpt lat="40.8594168" lon="9.4933042"><ele>25.0</ele><time>2026-03-27T08:57:02.323Z</time></trkpt><trkpt lat="40.8594256" lon="9.4934654"><ele>25.0</ele><time>2026-03-27T08:57:03.318Z</time></trkpt><trkpt lat="40.8594478" lon="9.4936276"><ele>25.0</ele><time>2026-03-27T08:57:04.321Z</time></trkpt><trkpt lat="40.8594791" lon="9.4937963"><ele>25.0</ele><time>2026-03-27T08:57:05.33Z</time></trkpt><trkpt lat="40.8595162" lon="9.493976"><ele>25.0</ele><time>2026-03-27T08:57:06.321Z</time></trkpt><trkpt lat="40.8595581" lon="9.4941825"><ele>25.0</ele><time>2026-03-27T08:57:07.32Z</time></trkpt><trkpt lat="40.8595985" lon="9.4943829"><ele>25.0</ele><time>2026-03-27T08:57:08.316Z</time></trkpt><trkpt lat="40.8596383" lon="9.4945741"><ele>25.0</ele><time>2026-03-27T08:57:09.32Z</time></trkpt><trkpt lat="40.859666" lon="9.494755"><ele>25.0</ele><time>2026-03-27T08:57:10.32Z</time></trkpt><trkpt lat="40.8596807" lon="9.4949525"><ele>25.0</ele><time>2026-03-27T08:57:11.32Z</time></trkpt><trkpt lat="40.8596889" lon="9.4951489"><ele>25.0</ele><time>2026-03-27T08:57:12.323Z</time></trkpt><trkpt lat="40.8596913" lon="9.4953546"><ele>25.0</ele><time>2026-03-27T08:57:13.32Z</time></trkpt><trkpt lat="40.859685" lon="9.4955662"><ele>25.333333333333336</ele><time>2026-03-27T08:57:14.335Z</time></trkpt><trkpt lat="40.8596788" lon="9.4957809"><ele>25.666666666666664</ele><time>2026-03-27T08:57:15.32Z</time></trkpt><trkpt lat="40.8596713" lon="9.4959966"><ele>26.0</ele><time>2026-03-27T08:57:16.325Z</time></trkpt><trkpt lat="40.8596683" lon="9.496204"><ele>26.0</ele><time>2026-03-27T08:57:17.319Z</time></trkpt><trkpt lat="40.8596634" lon="9.4964098"><ele>26.0</ele><time>2026-03-27T08:57:18.324Z</time></trkpt><trkpt lat="40.8596476" lon="9.4966149"><ele>26.0</ele><time>2026-03-27T08:57:19.32Z</time></trkpt><trkpt lat="40.8596211" lon="9.4968165"><ele>26.0</ele><time>2026-03-27T08:57:20.325Z</time></trkpt><trkpt lat="40.859592" lon="9.4970091"><ele>26.0</ele><time>2026-03-27T08:57:21.324Z</time></trkpt><trkpt lat="40.8595617" lon="9.4972025"><ele>26.0</ele><time>2026-03-27T08:57:22.321Z</time></trkpt><trkpt lat="40.8595306" lon="9.4974017"><ele>26.0</ele><time>2026-03-27T08:57:23.328Z</time></trkpt><trkpt lat="40.859504" lon="9.4976012"><ele>26.0</ele><time>2026-03-27T08:57:24.319Z</time></trkpt><trkpt lat="40.8594745" lon="9.4977957"><ele>26.0</ele><time>2026-03-27T08:57:25.316Z</time></trkpt><trkpt lat="40.8594475" lon="9.4979836"><ele>26.0</ele><time>2026-03-27T08:57:26.319Z</time></trkpt><trkpt lat="40.8594229" lon="9.4981571"><ele>26.5</ele><time>2026-03-27T08:57:27.318Z</time></trkpt><trkpt lat="40.8594009" lon="9.4983227"><ele>27.0</ele><time>2026-03-27T08:57:28.324Z</time></trkpt><trkpt lat="40.8593805" lon="9.4984825"><ele>27.5</ele><time>2026-03-27T08:57:29.32Z</time></trkpt><trkpt lat="40.8593623" lon="9.4986387"><ele>28.0</ele><time>2026-03-27T08:57:30.319Z</time></trkpt><trkpt lat="40.8593431" lon="9.4987896"><ele>28.0</ele><time>2026-03-27T08:57:31.324Z</time></trkpt><trkpt lat="40.8593153" lon="9.4989214"><ele>27.999999999999996</ele><time>2026-03-27T08:57:32.317Z</time></trkpt><trkpt lat="40.8592888" lon="9.4990591"><ele>27.999999999999996</ele><time>2026-03-27T08:57:33.322Z</time></trkpt><trkpt lat="40.8592697" lon="9.4991883"><ele>28.0</ele><time>2026-03-27T08:57:34.321Z</time></trkpt><trkpt lat="40.8592524" lon="9.4993357"><ele>28.0</ele><time>2026-03-27T08:57:35.33Z</time></trkpt><trkpt lat="40.8592343" lon="9.4994897"><ele>27.25</ele><time>2026-03-27T08:57:36.317Z</time></trkpt><trkpt lat="40.8592157" lon="9.4996567"><ele>26.5</ele><time>2026-03-27T08:57:37.319Z</time></trkpt><trkpt lat="40.8591876" lon="9.4998201"><ele>25.75</ele><time>2026-03-27T08:57:38.326Z</time></trkpt><trkpt lat="40.859156" lon="9.4999764"><ele>25.0</ele><time>2026-03-27T08:57:39.318Z</time></trkpt><trkpt lat="40.8591311" lon="9.5001263"><ele>25.0</ele><time>2026-03-27T08:57:40.32Z</time></trkpt><trkpt lat="40.8591068" lon="9.5002645"><ele>25.0</ele><time>2026-03-27T08:57:41.321Z</time></trkpt><trkpt lat="40.8590883" lon="9.5003988"><ele>25.0</ele><time>2026-03-27T08:57:42.315Z</time></trkpt><trkpt lat="40.8590702" lon="9.5005407"><ele>25.0</ele><time>2026-03-27T08:57:43.315Z</time></trkpt><trkpt lat="40.8590511" lon="9.5006739"><ele>25.0</ele><time>2026-03-27T08:57:44.321Z</time></trkpt><trkpt lat="40.8590296" lon="9.5007906"><ele>24.833333333333336</ele><time>2026-03-27T08:57:45.327Z</time></trkpt><trkpt lat="40.8590123" lon="9.5008921"><ele>24.666666666666668</ele><time>2026-03-27T08:57:46.328Z</time></trkpt><trkpt lat="40.8590019" lon="9.5009844"><ele>24.5</ele><time>2026-03-27T08:57:47.321Z</time></trkpt><trkpt lat="40.859001" lon="9.5010702"><ele>24.333333333333336</ele><time>2026-03-27T08:57:48.324Z</time></trkpt><trkpt lat="40.8590214" lon="9.5012114"><ele>24.166666666666668</ele><time>2026-03-27T08:57:50.316Z</time></trkpt><trkpt lat="40.8590188" lon="9.5013195"><ele>24.0</ele><time>2026-03-27T08:57:58.322Z</time></trkpt><trkpt lat="40.8589639" lon="9.5014592"><ele>23.75</ele><time>2026-03-27T08:58:00.323Z</time></trkpt><trkpt lat="40.8589187" lon="9.5015832"><ele>23.5</ele><time>2026-03-27T08:58:01.333Z</time></trkpt><trkpt lat="40.8588698" lon="9.5017339"><ele>23.25</ele><time>2026-03-27T08:58:02.328Z</time></trkpt><trkpt lat="40.858816" lon="9.5019046"><ele>23.0</ele><time>2026-03-27T08:58:03.316Z</time></trkpt><trkpt lat="40.8587692" lon="9.5021169"><ele>22.666666666666668</ele><time>2026-03-27T08:58:04.316Z</time></trkpt><trkpt lat="40.8587122" lon="9.5023675"><ele>22.333333333333332</ele><time>2026-03-27T08:58:05.322Z</time></trkpt><trkpt lat="40.8586566" lon="9.5026322"><ele>22.0</ele><time>2026-03-27T08:58:06.32Z</time></trkpt><trkpt lat="40.8585981" lon="9.5029178"><ele>21.333333333333332</ele><time>2026-03-27T08:58:07.323Z</time></trkpt><trkpt lat="40.8585375" lon="9.5031947"><ele>20.666666666666668</ele><time>2026-03-27T08:58:08.335Z</time></trkpt><trkpt lat="40.8584826" lon="9.5034618"><ele>20.0</ele><time>2026-03-27T08:58:09.317Z</time></trkpt><trkpt lat="40.8584277" lon="9.5037135"><ele>20.333333333333336</ele><time>2026-03-27T08:58:10.319Z</time></trkpt><trkpt lat="40.8583754" lon="9.5039679"><ele>20.666666666666668</ele><time>2026-03-27T08:58:11.33Z</time></trkpt><trkpt lat="40.8583247" lon="9.504225"><ele>21.0</ele><time>2026-03-27T08:58:12.326Z</time></trkpt><trkpt lat="40.8582781" lon="9.5044596"><ele>21.333333333333332</ele><time>2026-03-27T08:58:13.325Z</time></trkpt><trkpt lat="40.8582425" lon="9.5046849"><ele>21.666666666666664</ele><time>2026-03-27T08:58:14.32Z</time></trkpt><trkpt lat="40.8582138" lon="9.5048765"><ele>22.0</ele><time>2026-03-27T08:58:15.313Z</time></trkpt><trkpt lat="40.8581811" lon="9.5050621"><ele>22.0</ele><time>2026-03-27T08:58:16.316Z</time></trkpt><trkpt lat="40.8581483" lon="9.5052334"><ele>22.0</ele><time>2026-03-27T08:58:17.316Z</time></trkpt><trkpt lat="40.8581138" lon="9.5054127"><ele>22.0</ele><time>2026-03-27T08:58:18.326Z</time></trkpt><trkpt lat="40.8580697" lon="9.5055945"><ele>22.0</ele><time>2026-03-27T08:58:19.313Z</time></trkpt><trkpt lat="40.8580397" lon="9.5057644"><ele>21.6</ele><time>2026-03-27T08:58:20.33Z</time></trkpt><trkpt lat="40.8580148" lon="9.505905"><ele>21.200000000000003</ele><time>2026-03-27T08:58:21.319Z</time></trkpt><trkpt lat="40.8579916" lon="9.5060418"><ele>20.8</ele><time>2026-03-27T08:58:22.321Z</time></trkpt><trkpt lat="40.8579774" lon="9.5061783"><ele>20.4</ele><time>2026-03-27T08:58:23.324Z</time></trkpt><trkpt lat="40.8579896" lon="9.5063358"><ele>20.0</ele><time>2026-03-27T08:58:24.329Z</time></trkpt><trkpt lat="40.8579956" lon="9.5064894"><ele>20.0</ele><time>2026-03-27T08:58:25.322Z</time></trkpt><trkpt lat="40.858012" lon="9.5066466"><ele>20.0</ele><time>2026-03-27T08:58:26.324Z</time></trkpt><trkpt lat="40.8580331" lon="9.5068016"><ele>20.0</ele><time>2026-03-27T08:58:27.316Z</time></trkpt><trkpt lat="40.8580653" lon="9.5069778"><ele>20.0</ele><time>2026-03-27T08:58:28.316Z</time></trkpt><trkpt lat="40.8580854" lon="9.5071428"><ele>19.5</ele><time>2026-03-27T08:58:29.32Z</time></trkpt><trkpt lat="40.8581046" lon="9.5072989"><ele>19.0</ele><time>2026-03-27T08:58:30.322Z</time></trkpt><trkpt lat="40.8581265" lon="9.5074689"><ele>18.5</ele><time>2026-03-27T08:58:31.324Z</time></trkpt><trkpt lat="40.858175" lon="9.5076327"><ele>18.0</ele><time>2026-03-27T08:58:32.321Z</time></trkpt><trkpt lat="40.8582408" lon="9.5078449"><ele>18.333333333333332</ele><time>2026-03-27T08:58:33.315Z</time></trkpt><trkpt lat="40.8582988" lon="9.508047"><ele>18.666666666666664</ele><time>2026-03-27T08:58:34.319Z</time></trkpt><trkpt lat="40.8583545" lon="9.5082466"><ele>19.0</ele><time>2026-03-27T08:58:35.321Z</time></trkpt><trkpt lat="40.8583919" lon="9.5084107"><ele>19.0</ele><time>2026-03-27T08:58:36.317Z</time></trkpt><trkpt lat="40.8584342" lon="9.508559"><ele>19.0</ele><time>2026-03-27T08:58:37.316Z</time></trkpt><trkpt lat="40.8584738" lon="9.5087114"><ele>19.0</ele><time>2026-03-27T08:58:38.317Z</time></trkpt><trkpt lat="40.8584997" lon="9.508883"><ele>19.0</ele><time>2026-03-27T08:58:39.316Z</time></trkpt><trkpt lat="40.8585423" lon="9.5090711"><ele>18.666666666666664</ele><time>2026-03-27T08:58:40.32Z</time></trkpt><trkpt lat="40.8585878" lon="9.5092787"><ele>18.333333333333332</ele><time>2026-03-27T08:58:41.317Z</time></trkpt><trkpt lat="40.8586427" lon="9.5094926"><ele>18.0</ele><time>2026-03-27T08:58:42.324Z</time></trkpt><trkpt lat="40.8586893" lon="9.5097048"><ele>17.666666666666668</ele><time>2026-03-27T08:58:43.318Z</time></trkpt><trkpt lat="40.8587309" lon="9.5099097"><ele>17.333333333333336</ele><time>2026-03-27T08:58:44.318Z</time></trkpt><trkpt lat="40.8587647" lon="9.5101091"><ele>17.0</ele><time>2026-03-27T08:58:45.325Z</time></trkpt><trkpt lat="40.8587939" lon="9.5102966"><ele>17.0</ele><time>2026-03-27T08:58:46.32Z</time></trkpt><trkpt lat="40.8588128" lon="9.5104711"><ele>17.0</ele><time>2026-03-27T08:58:47.319Z</time></trkpt><trkpt lat="40.8588368" lon="9.5106348"><ele>17.0</ele><time>2026-03-27T08:58:48.32Z</time></trkpt><trkpt lat="40.8588645" lon="9.5107939"><ele>17.0</ele><time>2026-03-27T08:58:49.316Z</time></trkpt><trkpt lat="40.8588813" lon="9.5109344"><ele>17.0</ele><time>2026-03-27T08:58:50.323Z</time></trkpt><trkpt lat="40.8588924" lon="9.5110847"><ele>17.0</ele><time>2026-03-27T08:58:51.328Z</time></trkpt><trkpt lat="40.8588954" lon="9.5112475"><ele>17.0</ele><time>2026-03-27T08:58:52.322Z</time></trkpt><trkpt lat="40.858898" lon="9.511421"><ele>17.0</ele><time>2026-03-27T08:58:53.318Z</time></trkpt><trkpt lat="40.8588966" lon="9.5116298"><ele>17.5</ele><time>2026-03-27T08:58:54.318Z</time></trkpt><trkpt lat="40.8588976" lon="9.511816"><ele>18.0</ele><time>2026-03-27T08:58:55.321Z</time></trkpt><trkpt lat="40.8589008" lon="9.5119858"><ele>18.5</ele><time>2026-03-27T08:58:56.322Z</time></trkpt><trkpt lat="40.858895" lon="9.5121482"><ele>19.0</ele><time>2026-03-27T08:58:57.324Z</time></trkpt><trkpt lat="40.8588926" lon="9.5123167"><ele>19.0</ele><time>2026-03-27T08:58:58.32Z</time></trkpt><trkpt lat="40.8588771" lon="9.5124917"><ele>19.0</ele><time>2026-03-27T08:58:59.328Z</time></trkpt><trkpt lat="40.8588617" lon="9.5126644"><ele>19.0</ele><time>2026-03-27T08:59:00.322Z</time></trkpt><trkpt lat="40.858846" lon="9.5128313"><ele>19.0</ele><time>2026-03-27T08:59:01.326Z</time></trkpt><trkpt lat="40.8588326" lon="9.5129862"><ele>18.8</ele><time>2026-03-27T08:59:02.321Z</time></trkpt><trkpt lat="40.8588218" lon="9.5131368"><ele>18.599999999999998</ele><time>2026-03-27T08:59:03.316Z</time></trkpt><trkpt lat="40.8588086" lon="9.5132579"><ele>18.4</ele><time>2026-03-27T08:59:04.319Z</time></trkpt><trkpt lat="40.8587778" lon="9.5133735"><ele>18.2</ele><time>2026-03-27T08:59:05.322Z</time></trkpt><trkpt lat="40.8587436" lon="9.5135034"><ele>18.0</ele><time>2026-03-27T08:59:06.323Z</time></trkpt><trkpt lat="40.8587177" lon="9.5136395"><ele>17.75</ele><time>2026-03-27T08:59:07.315Z</time></trkpt><trkpt lat="40.8587028" lon="9.5137874"><ele>17.5</ele><time>2026-03-27T08:59:08.326Z</time></trkpt><trkpt lat="40.8586918" lon="9.5139521"><ele>17.25</ele><time>2026-03-27T08:59:09.322Z</time></trkpt><trkpt lat="40.8586879" lon="9.5141313"><ele>17.0</ele><time>2026-03-27T08:59:10.314Z</time></trkpt><trkpt lat="40.858681" lon="9.5143156"><ele>17.0</ele><time>2026-03-27T08:59:11.323Z</time></trkpt><trkpt lat="40.8586723" lon="9.5145052"><ele>17.0</ele><time>2026-03-27T08:59:12.317Z</time></trkpt><trkpt lat="40.8586605" lon="9.5146973"><ele>17.0</ele><time>2026-03-27T08:59:13.327Z</time></trkpt><trkpt lat="40.8586481" lon="9.5148901"><ele>17.0</ele><time>2026-03-27T08:59:14.317Z</time></trkpt><trkpt lat="40.8586389" lon="9.5150838"><ele>17.25</ele><time>2026-03-27T08:59:15.331Z</time></trkpt><trkpt lat="40.8586329" lon="9.5152655"><ele>17.5</ele><time>2026-03-27T08:59:16.317Z</time></trkpt><trkpt lat="40.8586246" lon="9.5154438"><ele>17.75</ele><time>2026-03-27T08:59:17.319Z</time></trkpt><trkpt lat="40.8586167" lon="9.5156219"><ele>18.0</ele><time>2026-03-27T08:59:18.318Z</time></trkpt><trkpt lat="40.858607" lon="9.5158"><ele>18.6</ele><time>2026-03-27T08:59:19.323Z</time></trkpt><trkpt lat="40.8586006" lon="9.5159683"><ele>19.200000000000003</ele><time>2026-03-27T08:59:20.324Z</time></trkpt><trkpt lat="40.8585932" lon="9.5161215"><ele>19.8</ele><time>2026-03-27T08:59:21.318Z</time></trkpt><trkpt lat="40.8585865" lon="9.5162612"><ele>20.400000000000002</ele><time>2026-03-27T08:59:22.329Z</time></trkpt><trkpt lat="40.8585806" lon="9.5163867"><ele>21.0</ele><time>2026-03-27T08:59:23.328Z</time></trkpt><trkpt lat="40.858575" lon="9.5165039"><ele>21.0</ele><time>2026-03-27T08:59:24.321Z</time></trkpt><trkpt lat="40.8585702" lon="9.5166151"><ele>21.0</ele><time>2026-03-27T08:59:25.319Z</time></trkpt><trkpt lat="40.8585642" lon="9.516721"><ele>21.0</ele><time>2026-03-27T08:59:26.321Z</time></trkpt><trkpt lat="40.8585588" lon="9.5168233"><ele>21.0</ele><time>2026-03-27T08:59:27.32Z</time></trkpt><trkpt lat="40.8585531" lon="9.5169195"><ele>21.0</ele><time>2026-03-27T08:59:28.317Z</time></trkpt><trkpt lat="40.8585547" lon="9.5170597"><ele>21.0</ele><time>2026-03-27T08:59:30.317Z</time></trkpt><trkpt lat="40.8586145" lon="9.5171289"><ele>21.0</ele><time>2026-03-27T08:59:33.324Z</time></trkpt><trkpt lat="40.8587566" lon="9.5170605"><ele>21.0</ele><time>2026-03-27T08:59:35.317Z</time></trkpt><trkpt lat="40.85887" lon="9.5169924"><ele>21.0</ele><time>2026-03-27T08:59:36.327Z</time></trkpt><trkpt lat="40.8589946" lon="9.5169352"><ele>21.0</ele><time>2026-03-27T08:59:37.321Z</time></trkpt><trkpt lat="40.8591159" lon="9.5168817"><ele>21.0</ele><time>2026-03-27T08:59:38.318Z</time></trkpt><trkpt lat="40.8592342" lon="9.5168287"><ele>21.0</ele><time>2026-03-27T08:59:39.319Z</time></trkpt><trkpt lat="40.8593508" lon="9.5167749"><ele>21.0</ele><time>2026-03-27T08:59:40.325Z</time></trkpt><trkpt lat="40.8594656" lon="9.5167363"><ele>21.0</ele><time>2026-03-27T08:59:41.322Z</time></trkpt><trkpt lat="40.8595706" lon="9.5167112"><ele>20.8</ele><time>2026-03-27T08:59:42.324Z</time></trkpt><trkpt lat="40.859677" lon="9.5167315"><ele>20.6</ele><time>2026-03-27T08:59:43.323Z</time></trkpt><trkpt lat="40.8597817" lon="9.5167807"><ele>20.4</ele><time>2026-03-27T08:59:44.316Z</time></trkpt><trkpt lat="40.8598651" lon="9.5168451"><ele>20.2</ele><time>2026-03-27T08:59:45.323Z</time></trkpt><trkpt lat="40.8599339" lon="9.5169515"><ele>20.0</ele><time>2026-03-27T08:59:46.318Z</time></trkpt><trkpt lat="40.8599838" lon="9.517063"><ele>19.8</ele><time>2026-03-27T08:59:47.323Z</time></trkpt><trkpt lat="40.8600191" lon="9.5171586"><ele>19.6</ele><time>2026-03-27T08:59:48.32Z</time></trkpt><trkpt lat="40.8600493" lon="9.5172336"><ele>19.4</ele><time>2026-03-27T08:59:49.323Z</time></trkpt><trkpt lat="40.8600726" lon="9.5173484"><ele>19.2</ele><time>2026-03-27T08:59:51.317Z</time></trkpt><trkpt lat="40.8600362" lon="9.5174668"><ele>19.0</ele><time>2026-03-27T08:59:53.328Z</time></trkpt><trkpt lat="40.8600366" lon="9.5176374"><ele>19.0</ele><time>2026-03-27T08:59:55.322Z</time></trkpt><trkpt lat="40.8600538" lon="9.5177408"><ele>19.0</ele><time>2026-03-27T08:59:56.323Z</time></trkpt><trkpt lat="40.8600958" lon="9.5178638"><ele>19.0</ele><time>2026-03-27T08:59:57.318Z</time></trkpt><trkpt lat="40.8601354" lon="9.5180045"><ele>19.0</ele><time>2026-03-27T08:59:58.322Z</time></trkpt><trkpt lat="40.8601731" lon="9.5181399"><ele>19.0</ele><time>2026-03-27T08:59:59.324Z</time></trkpt><trkpt lat="40.860208" lon="9.5182624"><ele>19.2</ele><time>2026-03-27T09:00:00.322Z</time></trkpt><trkpt lat="40.8602582" lon="9.5183808"><ele>19.4</ele><time>2026-03-27T09:00:01.316Z</time></trkpt><trkpt lat="40.860319" lon="9.5185098"><ele>19.6</ele><time>2026-03-27T09:00:02.322Z</time></trkpt><trkpt lat="40.8603756" lon="9.518624"><ele>19.8</ele><time>2026-03-27T09:00:03.318Z</time></trkpt><trkpt lat="40.8604434" lon="9.5187429"><ele>20.0</ele><time>2026-03-27T09:00:04.328Z</time></trkpt><trkpt lat="40.8605127" lon="9.5188422"><ele>20.0</ele><time>2026-03-27T09:00:05.328Z</time></trkpt><trkpt lat="40.8605895" lon="9.5189169"><ele>20.0</ele><time>2026-03-27T09:00:06.324Z</time></trkpt><trkpt lat="40.8606703" lon="9.5189868"><ele>20.0</ele><time>2026-03-27T09:00:07.323Z</time></trkpt><trkpt lat="40.8607547" lon="9.519061"><ele>20.0</ele><time>2026-03-27T09:00:08.327Z</time></trkpt><trkpt lat="40.8608612" lon="9.5191465"><ele>20.0</ele><time>2026-03-27T09:00:09.328Z</time></trkpt><trkpt lat="40.8609407" lon="9.5191997"><ele>20.0</ele><time>2026-03-27T09:00:10.336Z</time></trkpt><trkpt lat="40.8610317" lon="9.5192859"><ele>20.0</ele><time>2026-03-27T09:00:11.325Z</time></trkpt><trkpt lat="40.8611285" lon="9.5193632"><ele>20.0</ele><time>2026-03-27T09:00:12.32Z</time></trkpt><trkpt lat="40.861216" lon="9.5194321"><ele>20.0</ele><time>2026-03-27T09:00:13.317Z</time></trkpt><trkpt lat="40.8612995" lon="9.5195041"><ele>20.0</ele><time>2026-03-27T09:00:14.324Z</time></trkpt><trkpt lat="40.8613848" lon="9.5195852"><ele>20.166666666666668</ele><time>2026-03-27T09:00:15.326Z</time></trkpt><trkpt lat="40.8614612" lon="9.5196709"><ele>20.333333333333336</ele><time>2026-03-27T09:00:16.32Z</time></trkpt><trkpt lat="40.8615347" lon="9.5197554"><ele>20.5</ele><time>2026-03-27T09:00:17.317Z</time></trkpt><trkpt lat="40.8616022" lon="9.5198288"><ele>20.666666666666668</ele><time>2026-03-27T09:00:18.325Z</time></trkpt><trkpt lat="40.8616578" lon="9.5198876"><ele>20.833333333333332</ele><time>2026-03-27T09:00:19.318Z</time></trkpt><trkpt lat="40.8617153" lon="9.5199482"><ele>21.0</ele><time>2026-03-27T09:00:20.323Z</time></trkpt><trkpt lat="40.8617723" lon="9.5200291"><ele>21.0</ele><time>2026-03-27T09:00:22.321Z</time></trkpt><trkpt lat="40.8617772" lon="9.5201501"><ele>21.0</ele><time>2026-03-27T09:00:25.324Z</time></trkpt><trkpt lat="40.8616869" lon="9.520266"><ele>21.0</ele><time>2026-03-27T09:00:27.32Z</time></trkpt><trkpt lat="40.8616299" lon="9.5203323"><ele>21.0</ele><time>2026-03-27T09:00:28.319Z</time></trkpt><trkpt lat="40.8615817" lon="9.5203914"><ele>21.0</ele><time>2026-03-27T09:00:29.317Z</time></trkpt><trkpt lat="40.8615082" lon="9.5204699"><ele>20.833333333333332</ele><time>2026-03-27T09:00:31.316Z</time></trkpt><trkpt lat="40.8614586" lon="9.5205272"><ele>20.666666666666668</ele><time>2026-03-27T09:00:33.319Z</time></trkpt><trkpt lat="40.8614038" lon="9.5205994"><ele>20.5</ele><time>2026-03-27T09:00:35.326Z</time></trkpt><trkpt lat="40.8613336" lon="9.5206633"><ele>20.333333333333336</ele><time>2026-03-27T09:00:37.322Z</time></trkpt><trkpt lat="40.8612355" lon="9.5207722"><ele>20.166666666666668</ele><time>2026-03-27T09:00:39.316Z</time></trkpt><trkpt lat="40.8611789" lon="9.5208328"><ele>20.0</ele><time>2026-03-27T09:00:40.316Z</time></trkpt><trkpt lat="40.8611107" lon="9.5209113"><ele>20.0</ele><time>2026-03-27T09:00:41.324Z</time></trkpt><trkpt lat="40.8610417" lon="9.5210079"><ele>20.0</ele><time>2026-03-27T09:00:42.321Z</time></trkpt><trkpt lat="40.8609589" lon="9.5211028"><ele>20.0</ele><time>2026-03-27T09:00:43.315Z</time></trkpt><trkpt lat="40.860878" lon="9.5212003"><ele>20.0</ele><time>2026-03-27T09:00:44.322Z</time></trkpt><trkpt lat="40.8607899" lon="9.521304"><ele>20.0</ele><time>2026-03-27T09:00:45.316Z</time></trkpt><trkpt lat="40.8606943" lon="9.5214178"><ele>20.25</ele><time>2026-03-27T09:00:46.316Z</time></trkpt><trkpt lat="40.8605968" lon="9.521539"><ele>20.5</ele><time>2026-03-27T09:00:47.325Z</time></trkpt><trkpt lat="40.8604968" lon="9.5216612"><ele>20.75</ele><time>2026-03-27T09:00:48.317Z</time></trkpt><trkpt lat="40.8603999" lon="9.5217815"><ele>21.0</ele><time>2026-03-27T09:00:49.32Z</time></trkpt><trkpt lat="40.8602997" lon="9.521899"><ele>21.0</ele><time>2026-03-27T09:00:50.32Z</time></trkpt><trkpt lat="40.8602021" lon="9.5220137"><ele>21.0</ele><time>2026-03-27T09:00:51.313Z</time></trkpt><trkpt lat="40.8601068" lon="9.5221292"><ele>21.0</ele><time>2026-03-27T09:00:52.325Z</time></trkpt><trkpt lat="40.8599989" lon="9.5222459"><ele>21.0</ele><time>2026-03-27T09:00:53.328Z</time></trkpt><trkpt lat="40.8598923" lon="9.5223721"><ele>21.0</ele><time>2026-03-27T09:00:54.32Z</time></trkpt><trkpt lat="40.8597828" lon="9.5225042"><ele>21.0</ele><time>2026-03-27T09:00:55.321Z</time></trkpt><trkpt lat="40.859666" lon="9.5226431"><ele>21.0</ele><time>2026-03-27T09:00:56.317Z</time></trkpt><trkpt lat="40.8595501" lon="9.5227742"><ele>21.666666666666668</ele><time>2026-03-27T09:00:57.32Z</time></trkpt><trkpt lat="40.8594337" lon="9.5229129"><ele>22.333333333333336</ele><time>2026-03-27T09:00:58.317Z</time></trkpt><trkpt lat="40.8593215" lon="9.5230479"><ele>23.0</ele><time>2026-03-27T09:00:59.319Z</time></trkpt><trkpt lat="40.8592041" lon="9.5231849"><ele>23.333333333333336</ele><time>2026-03-27T09:01:00.323Z</time></trkpt><trkpt lat="40.8590841" lon="9.5233257"><ele>23.666666666666668</ele><time>2026-03-27T09:01:01.323Z</time></trkpt><trkpt lat="40.8589681" lon="9.5234637"><ele>24.0</ele><time>2026-03-27T09:01:02.317Z</time></trkpt><trkpt lat="40.858852" lon="9.5235995"><ele>24.0</ele><time>2026-03-27T09:01:03.323Z</time></trkpt><trkpt lat="40.858741" lon="9.5237277"><ele>24.0</ele><time>2026-03-27T09:01:04.316Z</time></trkpt><trkpt lat="40.8586337" lon="9.5238487"><ele>24.0</ele><time>2026-03-27T09:01:05.318Z</time></trkpt><trkpt lat="40.8585297" lon="9.5239682"><ele>24.0</ele><time>2026-03-27T09:01:06.317Z</time></trkpt><trkpt lat="40.8584281" lon="9.5240959"><ele>24.5</ele><time>2026-03-27T09:01:07.321Z</time></trkpt><trkpt lat="40.8583361" lon="9.5242129"><ele>25.0</ele><time>2026-03-27T09:01:08.325Z</time></trkpt><trkpt lat="40.858241" lon="9.5243185"><ele>25.5</ele><time>2026-03-27T09:01:09.321Z</time></trkpt><trkpt lat="40.8581501" lon="9.5244203"><ele>26.0</ele><time>2026-03-27T09:01:10.325Z</time></trkpt><trkpt lat="40.8580602" lon="9.5245198"><ele>26.4</ele><time>2026-03-27T09:01:11.317Z</time></trkpt><trkpt lat="40.8579815" lon="9.5246112"><ele>26.8</ele><time>2026-03-27T09:01:12.316Z</time></trkpt><trkpt lat="40.8579122" lon="9.5247045"><ele>27.199999999999996</ele><time>2026-03-27T09:01:13.324Z</time></trkpt><trkpt lat="40.8578304" lon="9.5247919"><ele>27.599999999999998</ele><time>2026-03-27T09:01:14.316Z</time></trkpt><trkpt lat="40.8577712" lon="9.5248686"><ele>28.0</ele><time>2026-03-27T09:01:15.32Z</time></trkpt><trkpt lat="40.8577149" lon="9.5249354"><ele>28.0</ele><time>2026-03-27T09:01:16.318Z</time></trkpt><trkpt lat="40.8576625" lon="9.5249905"><ele>27.999999999999996</ele><time>2026-03-27T09:01:17.322Z</time></trkpt><trkpt lat="40.8575911" lon="9.5250945"><ele>27.999999999999996</ele><time>2026-03-27T09:01:19.323Z</time></trkpt><trkpt lat="40.8575143" lon="9.5251697"><ele>28.0</ele><time>2026-03-27T09:01:21.318Z</time></trkpt><trkpt lat="40.8574135" lon="9.5252853"><ele>28.0</ele><time>2026-03-27T09:01:23.319Z</time></trkpt><trkpt lat="40.8573438" lon="9.5253666"><ele>28.25</ele><time>2026-03-27T09:01:24.325Z</time></trkpt><trkpt lat="40.8572579" lon="9.5254641"><ele>28.5</ele><time>2026-03-27T09:01:25.317Z</time></trkpt><trkpt lat="40.8571625" lon="9.5255727"><ele>28.75</ele><time>2026-03-27T09:01:26.327Z</time></trkpt><trkpt lat="40.8570802" lon="9.5256753"><ele>29.0</ele><time>2026-03-27T09:01:27.326Z</time></trkpt><trkpt lat="40.8569909" lon="9.5257771"><ele>29.0</ele><time>2026-03-27T09:01:28.317Z</time></trkpt><trkpt lat="40.8568981" lon="9.5258732"><ele>29.0</ele><time>2026-03-27T09:01:29.321Z</time></trkpt><trkpt lat="40.856804" lon="9.5259761"><ele>29.0</ele><time>2026-03-27T09:01:30.321Z</time></trkpt><trkpt lat="40.8567097" lon="9.526075"><ele>29.0</ele><time>2026-03-27T09:01:31.321Z</time></trkpt><trkpt lat="40.8566217" lon="9.5261701"><ele>29.2</ele><time>2026-03-27T09:01:32.325Z</time></trkpt><trkpt lat="40.8565362" lon="9.5262637"><ele>29.4</ele><time>2026-03-27T09:01:33.317Z</time></trkpt><trkpt lat="40.856448" lon="9.5263589"><ele>29.6</ele><time>2026-03-27T09:01:34.319Z</time></trkpt><trkpt lat="40.8563634" lon="9.5264502"><ele>29.8</ele><time>2026-03-27T09:01:35.32Z</time></trkpt><trkpt lat="40.8562798" lon="9.5265388"><ele>30.0</ele><time>2026-03-27T09:01:36.321Z</time></trkpt><trkpt lat="40.8561985" lon="9.5266285"><ele>30.0</ele><time>2026-03-27T09:01:37.319Z</time></trkpt><trkpt lat="40.8561181" lon="9.5267191"><ele>30.0</ele><time>2026-03-27T09:01:38.32Z</time></trkpt><trkpt lat="40.8560353" lon="9.5268107"><ele>30.0</ele><time>2026-03-27T09:01:39.315Z</time></trkpt><trkpt lat="40.8559484" lon="9.5269037"><ele>30.0</ele><time>2026-03-27T09:01:40.323Z</time></trkpt><trkpt lat="40.8558582" lon="9.526992"><ele>30.0</ele><time>2026-03-27T09:01:41.32Z</time></trkpt><trkpt lat="40.8557634" lon="9.5270705"><ele>30.8</ele><time>2026-03-27T09:01:42.322Z</time></trkpt><trkpt lat="40.8556713" lon="9.5271303"><ele>31.6</ele><time>2026-03-27T09:01:43.334Z</time></trkpt><trkpt lat="40.8555837" lon="9.5271875"><ele>32.4</ele><time>2026-03-27T09:01:44.319Z</time></trkpt><trkpt lat="40.8554924" lon="9.5272609"><ele>33.2</ele><time>2026-03-27T09:01:45.32Z</time></trkpt><trkpt lat="40.8554175" lon="9.5273141"><ele>34.0</ele><time>2026-03-27T09:01:46.323Z</time></trkpt><trkpt lat="40.8553274" lon="9.5273358"><ele>34.0</ele><time>2026-03-27T09:01:48.326Z</time></trkpt><trkpt lat="40.8552672" lon="9.5272868"><ele>34.0</ele><time>2026-03-27T09:01:50.328Z</time></trkpt><trkpt lat="40.8551484" lon="9.5272962"><ele>34.0</ele><time>2026-03-27T09:01:52.322Z</time></trkpt><trkpt lat="40.8550872" lon="9.5273191"><ele>34.0</ele><time>2026-03-27T09:01:53.325Z</time></trkpt><trkpt lat="40.855021" lon="9.5273365"><ele>34.0</ele><time>2026-03-27T09:01:54.324Z</time></trkpt><trkpt lat="40.8549551" lon="9.5273508"><ele>34.0</ele><time>2026-03-27T09:01:55.334Z</time></trkpt><trkpt lat="40.8548797" lon="9.5273672"><ele>34.833333333333336</ele><time>2026-03-27T09:01:56.324Z</time></trkpt><trkpt lat="40.8548059" lon="9.5273834"><ele>35.66666666666667</ele><time>2026-03-27T09:01:57.321Z</time></trkpt><trkpt lat="40.8547191" lon="9.5274076"><ele>36.5</ele><time>2026-03-27T09:01:58.324Z</time></trkpt><trkpt lat="40.8546475" lon="9.5274226"><ele>37.333333333333336</ele><time>2026-03-27T09:01:59.324Z</time></trkpt><trkpt lat="40.8545787" lon="9.5274355"><ele>38.166666666666664</ele><time>2026-03-27T09:02:00.322Z</time></trkpt><trkpt lat="40.8545101" lon="9.5274518"><ele>39.0</ele><time>2026-03-27T09:02:01.325Z</time></trkpt><trkpt lat="40.8544313" lon="9.5274784"><ele>39.0</ele><time>2026-03-27T09:02:02.32Z</time></trkpt><trkpt lat="40.8543353" lon="9.5274966"><ele>39.0</ele><time>2026-03-27T09:02:03.323Z</time></trkpt><trkpt lat="40.8542326" lon="9.5275031"><ele>39.0</ele><time>2026-03-27T09:02:04.325Z</time></trkpt><trkpt lat="40.8541225" lon="9.5275202"><ele>39.0</ele><time>2026-03-27T09:02:05.316Z</time></trkpt><trkpt lat="40.85402" lon="9.52754"><ele>39.0</ele><time>2026-03-27T09:02:06.324Z</time></trkpt><trkpt lat="40.8539185" lon="9.5275653"><ele>39.2</ele><time>2026-03-27T09:02:07.313Z</time></trkpt><trkpt lat="40.8538134" lon="9.5275858"><ele>39.4</ele><time>2026-03-27T09:02:08.318Z</time></trkpt><trkpt lat="40.853713" lon="9.5276101"><ele>39.6</ele><time>2026-03-27T09:02:09.329Z</time></trkpt><trkpt lat="40.8536094" lon="9.5276356"><ele>39.8</ele><time>2026-03-27T09:02:10.323Z</time></trkpt><trkpt lat="40.8535061" lon="9.5276562"><ele>40.0</ele><time>2026-03-27T09:02:11.329Z</time></trkpt><trkpt lat="40.853404" lon="9.5276782"><ele>40.8</ele><time>2026-03-27T09:02:12.319Z</time></trkpt><trkpt lat="40.8532971" lon="9.5277042"><ele>41.6</ele><time>2026-03-27T09:02:13.318Z</time></trkpt><trkpt lat="40.8532104" lon="9.527734"><ele>42.400000000000006</ele><time>2026-03-27T09:02:14.323Z</time></trkpt><trkpt lat="40.8531078" lon="9.5277554"><ele>43.2</ele><time>2026-03-27T09:02:15.321Z</time></trkpt><trkpt lat="40.8530129" lon="9.5277729"><ele>44.0</ele><time>2026-03-27T09:02:16.331Z</time></trkpt><trkpt lat="40.8529344" lon="9.5277869"><ele>44.0</ele><time>2026-03-27T09:02:17.32Z</time></trkpt><trkpt lat="40.85285" lon="9.5277992"><ele>44.0</ele><time>2026-03-27T09:02:18.322Z</time></trkpt><trkpt lat="40.8527655" lon="9.5278193"><ele>44.0</ele><time>2026-03-27T09:02:19.322Z</time></trkpt><trkpt lat="40.8526832" lon="9.5278365"><ele>44.0</ele><time>2026-03-27T09:02:20.32Z</time></trkpt><trkpt lat="40.8526043" lon="9.5278519"><ele>44.0</ele><time>2026-03-27T09:02:21.318Z</time></trkpt><trkpt lat="40.8525347" lon="9.5278657"><ele>44.0</ele><time>2026-03-27T09:02:22.32Z</time></trkpt><trkpt lat="40.8524652" lon="9.5278865"><ele>44.800000000000004</ele><time>2026-03-27T09:02:23.321Z</time></trkpt><trkpt lat="40.852384" lon="9.5279018"><ele>45.6</ele><time>2026-03-27T09:02:24.327Z</time></trkpt><trkpt lat="40.8522952" lon="9.5279284"><ele>46.4</ele><time>2026-03-27T09:02:25.322Z</time></trkpt><trkpt lat="40.8521898" lon="9.5279503"><ele>47.2</ele><time>2026-03-27T09:02:26.327Z</time></trkpt><trkpt lat="40.8520897" lon="9.5279582"><ele>48.0</ele><time>2026-03-27T09:02:27.318Z</time></trkpt><trkpt lat="40.8519819" lon="9.5279892"><ele>48.0</ele><time>2026-03-27T09:02:28.322Z</time></trkpt><trkpt lat="40.8518747" lon="9.5280101"><ele>48.0</ele><time>2026-03-27T09:02:29.325Z</time></trkpt><trkpt lat="40.8517594" lon="9.5280375"><ele>48.0</ele><time>2026-03-27T09:02:30.324Z</time></trkpt><trkpt lat="40.8516461" lon="9.5280584"><ele>48.0</ele><time>2026-03-27T09:02:31.324Z</time></trkpt><trkpt lat="40.8515361" lon="9.5280859"><ele>47.8</ele><time>2026-03-27T09:02:32.333Z</time></trkpt><trkpt lat="40.8514247" lon="9.5281101"><ele>47.599999999999994</ele><time>2026-03-27T09:02:33.324Z</time></trkpt><trkpt lat="40.851328" lon="9.528143"><ele>47.400000000000006</ele><time>2026-03-27T09:02:34.322Z</time></trkpt><trkpt lat="40.8511999" lon="9.5281751"><ele>47.2</ele><time>2026-03-27T09:02:35.322Z</time></trkpt><trkpt lat="40.8510959" lon="9.5281849"><ele>47.0</ele><time>2026-03-27T09:02:36.318Z</time></trkpt><trkpt lat="40.8509841" lon="9.528205"><ele>47.25</ele><time>2026-03-27T09:02:37.318Z</time></trkpt><trkpt lat="40.8508626" lon="9.5282261"><ele>47.5</ele><time>2026-03-27T09:02:38.315Z</time></trkpt><trkpt lat="40.8507415" lon="9.5282495"><ele>47.75</ele><time>2026-03-27T09:02:39.319Z</time></trkpt><trkpt lat="40.8506195" lon="9.5282851"><ele>48.0</ele><time>2026-03-27T09:02:40.328Z</time></trkpt><trkpt lat="40.8504913" lon="9.5283082"><ele>48.0</ele><time>2026-03-27T09:02:41.319Z</time></trkpt><trkpt lat="40.85037" lon="9.5283383"><ele>48.0</ele><time>2026-03-27T09:02:42.327Z</time></trkpt><trkpt lat="40.8502582" lon="9.5283498"><ele>48.0</ele><time>2026-03-27T09:02:43.32Z</time></trkpt><trkpt lat="40.8501506" lon="9.5283672"><ele>48.0</ele><time>2026-03-27T09:02:44.321Z</time></trkpt><trkpt lat="40.8500344" lon="9.5283897"><ele>48.0</ele><time>2026-03-27T09:02:45.322Z</time></trkpt><trkpt lat="40.8499156" lon="9.5284141"><ele>48.0</ele><time>2026-03-27T09:02:46.316Z</time></trkpt><trkpt lat="40.8497855" lon="9.5284404"><ele>48.0</ele><time>2026-03-27T09:02:47.319Z</time></trkpt><trkpt lat="40.849642" lon="9.5284814"><ele>48.0</ele><time>2026-03-27T09:02:48.322Z</time></trkpt><trkpt lat="40.8494892" lon="9.5285119"><ele>48.0</ele><time>2026-03-27T09:02:49.32Z</time></trkpt><trkpt lat="40.8493408" lon="9.5285405"><ele>48.0</ele><time>2026-03-27T09:02:50.323Z</time></trkpt><trkpt lat="40.8492073" lon="9.5285673"><ele>48.0</ele><time>2026-03-27T09:02:51.313Z</time></trkpt><trkpt lat="40.8490656" lon="9.5285913"><ele>48.0</ele><time>2026-03-27T09:02:52.32Z</time></trkpt><trkpt lat="40.8489294" lon="9.5286236"><ele>48.66666666666667</ele><time>2026-03-27T09:02:53.317Z</time></trkpt><trkpt lat="40.848778" lon="9.5286798"><ele>49.333333333333336</ele><time>2026-03-27T09:02:54.314Z</time></trkpt><trkpt lat="40.8486322" lon="9.528732"><ele>50.0</ele><time>2026-03-27T09:02:55.323Z</time></trkpt><trkpt lat="40.8484944" lon="9.5287861"><ele>50.75</ele><time>2026-03-27T09:02:56.318Z</time></trkpt><trkpt lat="40.8483601" lon="9.5288202"><ele>51.5</ele><time>2026-03-27T09:02:57.32Z</time></trkpt><trkpt lat="40.8482234" lon="9.5288672"><ele>52.25</ele><time>2026-03-27T09:02:58.322Z</time></trkpt><trkpt lat="40.8480972" lon="9.5289045"><ele>53.0</ele><time>2026-03-27T09:02:59.32Z</time></trkpt><trkpt lat="40.8479812" lon="9.5289519"><ele>53.0</ele><time>2026-03-27T09:03:00.327Z</time></trkpt><trkpt lat="40.8478504" lon="9.5290114"><ele>53.0</ele><time>2026-03-27T09:03:01.321Z</time></trkpt><trkpt lat="40.8477481" lon="9.5290262"><ele>53.0</ele><time>2026-03-27T09:03:02.327Z</time></trkpt><trkpt lat="40.8476382" lon="9.5290545"><ele>53.0</ele><time>2026-03-27T09:03:03.318Z</time></trkpt><trkpt lat="40.8475208" lon="9.5290978"><ele>53.25</ele><time>2026-03-27T09:03:04.321Z</time></trkpt><trkpt lat="40.8474095" lon="9.5291421"><ele>53.5</ele><time>2026-03-27T09:03:05.319Z</time></trkpt><trkpt lat="40.8472914" lon="9.529189"><ele>53.75</ele><time>2026-03-27T09:03:06.32Z</time></trkpt><trkpt lat="40.8471821" lon="9.529229"><ele>54.0</ele><time>2026-03-27T09:03:07.315Z</time></trkpt><trkpt lat="40.8470653" lon="9.5292754"><ele>54.0</ele><time>2026-03-27T09:03:08.323Z</time></trkpt><trkpt lat="40.8469536" lon="9.5293137"><ele>54.00000000000001</ele><time>2026-03-27T09:03:09.322Z</time></trkpt><trkpt lat="40.8468384" lon="9.5293358"><ele>54.00000000000001</ele><time>2026-03-27T09:03:10.325Z</time></trkpt><trkpt lat="40.8467387" lon="9.529362"><ele>54.0</ele><time>2026-03-27T09:03:11.322Z</time></trkpt><trkpt lat="40.8466534" lon="9.5293735"><ele>54.0</ele><time>2026-03-27T09:03:12.324Z</time></trkpt><trkpt lat="40.846563" lon="9.5293933"><ele>55.0</ele><time>2026-03-27T09:03:13.323Z</time></trkpt><trkpt lat="40.8464816" lon="9.5294332"><ele>56.00000000000001</ele><time>2026-03-27T09:03:14.321Z</time></trkpt><trkpt lat="40.8463992" lon="9.5294759"><ele>57.00000000000001</ele><time>2026-03-27T09:03:15.321Z</time></trkpt><trkpt lat="40.8463168" lon="9.5295155"><ele>58.0</ele><time>2026-03-27T09:03:16.325Z</time></trkpt><trkpt lat="40.8462209" lon="9.5295494"><ele>59.0</ele><time>2026-03-27T09:03:17.323Z</time></trkpt><trkpt lat="40.8460929" lon="9.5296033"><ele>61.25</ele><time>2026-03-27T09:03:18.334Z</time></trkpt><trkpt lat="40.8459569" lon="9.529652"><ele>63.5</ele><time>2026-03-27T09:03:19.316Z</time></trkpt><trkpt lat="40.8458161" lon="9.5296953"><ele>65.75</ele><time>2026-03-27T09:03:20.318Z</time></trkpt><trkpt lat="40.8456949" lon="9.5297395"><ele>68.0</ele><time>2026-03-27T09:03:21.318Z</time></trkpt><trkpt lat="40.8455822" lon="9.5297831"><ele>68.0</ele><time>2026-03-27T09:03:22.321Z</time></trkpt><trkpt lat="40.8454761" lon="9.5298185"><ele>68.0</ele><time>2026-03-27T09:03:23.322Z</time></trkpt><trkpt lat="40.845385" lon="9.5298513"><ele>68.0</ele><time>2026-03-27T09:03:24.316Z</time></trkpt><trkpt lat="40.8452891" lon="9.529893"><ele>68.0</ele><time>2026-03-27T09:03:25.317Z</time></trkpt><trkpt lat="40.8451893" lon="9.5299337"><ele>68.0</ele><time>2026-03-27T09:03:26.325Z</time></trkpt><trkpt lat="40.8451121" lon="9.5299572"><ele>68.4</ele><time>2026-03-27T09:03:27.314Z</time></trkpt><trkpt lat="40.8450179" lon="9.5299661"><ele>68.8</ele><time>2026-03-27T09:03:29.324Z</time></trkpt><trkpt lat="40.8449521" lon="9.5299014"><ele>69.2</ele><time>2026-03-27T09:03:32.332Z</time></trkpt><trkpt lat="40.8449212" lon="9.5297261"><ele>69.6</ele><time>2026-03-27T09:03:34.321Z</time></trkpt><trkpt lat="40.8449131" lon="9.5296106"><ele>70.0</ele><time>2026-03-27T09:03:35.32Z</time></trkpt><trkpt lat="40.8448942" lon="9.5294959"><ele>69.2</ele><time>2026-03-27T09:03:36.322Z</time></trkpt><trkpt lat="40.8448702" lon="9.5293662"><ele>68.4</ele><time>2026-03-27T09:03:37.32Z</time></trkpt><trkpt lat="40.844841" lon="9.5292397"><ele>67.6</ele><time>2026-03-27T09:03:38.329Z</time></trkpt><trkpt lat="40.8448139" lon="9.5291154"><ele>66.8</ele><time>2026-03-27T09:03:39.321Z</time></trkpt><trkpt lat="40.8447801" lon="9.5289896"><ele>66.0</ele><time>2026-03-27T09:03:40.32Z</time></trkpt><trkpt lat="40.8447475" lon="9.5288535"><ele>64.75</ele><time>2026-03-27T09:03:41.323Z</time></trkpt><trkpt lat="40.8447133" lon="9.5287162"><ele>63.5</ele><time>2026-03-27T09:03:42.32Z</time></trkpt><trkpt lat="40.8446755" lon="9.5285716"><ele>62.25</ele><time>2026-03-27T09:03:43.32Z</time></trkpt><trkpt lat="40.8446369" lon="9.5284254"><ele>61.0</ele><time>2026-03-27T09:03:44.329Z</time></trkpt><trkpt lat="40.8445943" lon="9.5282808"><ele>61.0</ele><time>2026-03-27T09:03:45.323Z</time></trkpt><trkpt lat="40.8445488" lon="9.528133"><ele>61.0</ele><time>2026-03-27T09:03:46.327Z</time></trkpt><trkpt lat="40.8445041" lon="9.5279754"><ele>61.0</ele><time>2026-03-27T09:03:47.323Z</time></trkpt><trkpt lat="40.8444644" lon="9.5278122"><ele>61.0</ele><time>2026-03-27T09:03:48.32Z</time></trkpt><trkpt lat="40.8444255" lon="9.5276447"><ele>60.5</ele><time>2026-03-27T09:03:49.325Z</time></trkpt><trkpt lat="40.8443883" lon="9.5274779"><ele>60.0</ele><time>2026-03-27T09:03:50.316Z</time></trkpt><trkpt lat="40.8443465" lon="9.5273159"><ele>59.5</ele><time>2026-03-27T09:03:51.319Z</time></trkpt><trkpt lat="40.8443039" lon="9.5271562"><ele>59.0</ele><time>2026-03-27T09:03:52.32Z</time></trkpt><trkpt lat="40.8442608" lon="9.526997"><ele>62.0</ele><time>2026-03-27T09:03:53.32Z</time></trkpt><trkpt lat="40.8442206" lon="9.5268379"><ele>65.0</ele><time>2026-03-27T09:03:54.319Z</time></trkpt><trkpt lat="40.8441761" lon="9.5266827"><ele>68.0</ele><time>2026-03-27T09:03:55.325Z</time></trkpt><trkpt lat="40.8441333" lon="9.5265281"><ele>71.0</ele><time>2026-03-27T09:03:56.316Z</time></trkpt><trkpt lat="40.8440893" lon="9.5263611"><ele>70.75</ele><time>2026-03-27T09:03:57.319Z</time></trkpt><trkpt lat="40.8440296" lon="9.5261991"><ele>70.5</ele><time>2026-03-27T09:03:58.318Z</time></trkpt><trkpt lat="40.8439601" lon="9.5260382"><ele>70.25</ele><time>2026-03-27T09:03:59.322Z</time></trkpt><trkpt lat="40.8438748" lon="9.5258812"><ele>70.0</ele><time>2026-03-27T09:04:00.318Z</time></trkpt><trkpt lat="40.8437854" lon="9.5257255"><ele>70.0</ele><time>2026-03-27T09:04:01.33Z</time></trkpt><trkpt lat="40.843687" lon="9.5255719"><ele>70.0</ele><time>2026-03-27T09:04:02.317Z</time></trkpt><trkpt lat="40.8435896" lon="9.5254169"><ele>70.0</ele><time>2026-03-27T09:04:03.321Z</time></trkpt><trkpt lat="40.8434947" lon="9.5252597"><ele>69.25</ele><time>2026-03-27T09:04:04.322Z</time></trkpt><trkpt lat="40.8434025" lon="9.5251016"><ele>68.5</ele><time>2026-03-27T09:04:05.321Z</time></trkpt><trkpt lat="40.843322" lon="9.5249536"><ele>67.75</ele><time>2026-03-27T09:04:06.325Z</time></trkpt><trkpt lat="40.8432271" lon="9.5248063"><ele>67.0</ele><time>2026-03-27T09:04:07.323Z</time></trkpt><trkpt lat="40.8431284" lon="9.5246511"><ele>65.0</ele><time>2026-03-27T09:04:08.319Z</time></trkpt><trkpt lat="40.8430295" lon="9.5244868"><ele>63.0</ele><time>2026-03-27T09:04:09.32Z</time></trkpt><trkpt lat="40.8429292" lon="9.5243246"><ele>61.0</ele><time>2026-03-27T09:04:10.317Z</time></trkpt><trkpt lat="40.8428203" lon="9.5241654"><ele>61.0</ele><time>2026-03-27T09:04:11.322Z</time></trkpt><trkpt lat="40.8426993" lon="9.5240207"><ele>61.0</ele><time>2026-03-27T09:04:12.315Z</time></trkpt><trkpt lat="40.8425725" lon="9.5238981"><ele>61.0</ele><time>2026-03-27T09:04:13.316Z</time></trkpt><trkpt lat="40.8424446" lon="9.5237901"><ele>60.666666666666664</ele><time>2026-03-27T09:04:14.318Z</time></trkpt><trkpt lat="40.8423007" lon="9.5237345"><ele>60.33333333333333</ele><time>2026-03-27T09:04:15.316Z</time></trkpt><trkpt lat="40.8421403" lon="9.5237107"><ele>60.0</ele><time>2026-03-27T09:04:16.323Z</time></trkpt><trkpt lat="40.8419921" lon="9.5236925"><ele>60.0</ele><time>2026-03-27T09:04:17.319Z</time></trkpt><trkpt lat="40.8418248" lon="9.5236645"><ele>60.0</ele><time>2026-03-27T09:04:18.328Z</time></trkpt><trkpt lat="40.8416681" lon="9.5235964"><ele>60.0</ele><time>2026-03-27T09:04:19.324Z</time></trkpt><trkpt lat="40.8415231" lon="9.5234859"><ele>60.33333333333333</ele><time>2026-03-27T09:04:20.321Z</time></trkpt><trkpt lat="40.841401" lon="9.5233365"><ele>60.666666666666664</ele><time>2026-03-27T09:04:21.322Z</time></trkpt><trkpt lat="40.841291" lon="9.5231558"><ele>61.0</ele><time>2026-03-27T09:04:22.32Z</time></trkpt><trkpt lat="40.8411854" lon="9.5229613"><ele>59.666666666666664</ele><time>2026-03-27T09:04:23.32Z</time></trkpt><trkpt lat="40.8410775" lon="9.5227632"><ele>58.33333333333333</ele><time>2026-03-27T09:04:24.32Z</time></trkpt><trkpt lat="40.8409627" lon="9.5225575"><ele>57.0</ele><time>2026-03-27T09:04:25.325Z</time></trkpt><trkpt lat="40.8408439" lon="9.5223449"><ele>58.66666666666667</ele><time>2026-03-27T09:04:26.315Z</time></trkpt><trkpt lat="40.8407337" lon="9.5221395"><ele>60.333333333333336</ele><time>2026-03-27T09:04:27.328Z</time></trkpt><trkpt lat="40.8406131" lon="9.5219567"><ele>62.0</ele><time>2026-03-27T09:04:28.319Z</time></trkpt><trkpt lat="40.8404952" lon="9.521789"><ele>62.0</ele><time>2026-03-27T09:04:29.317Z</time></trkpt><trkpt lat="40.840365" lon="9.5216327"><ele>62.0</ele><time>2026-03-27T09:04:30.324Z</time></trkpt><trkpt lat="40.8402298" lon="9.5214909"><ele>62.0</ele><time>2026-03-27T09:04:31.316Z</time></trkpt><trkpt lat="40.8400943" lon="9.5213546"><ele>62.333333333333336</ele><time>2026-03-27T09:04:32.337Z</time></trkpt><trkpt lat="40.8399537" lon="9.5212199"><ele>62.66666666666667</ele><time>2026-03-27T09:04:33.32Z</time></trkpt><trkpt lat="40.8398113" lon="9.5210863"><ele>63.0</ele><time>2026-03-27T09:04:34.321Z</time></trkpt><trkpt lat="40.8396696" lon="9.5209519"><ele>63.0</ele><time>2026-03-27T09:04:35.317Z</time></trkpt><trkpt lat="40.839529" lon="9.520821"><ele>63.0</ele><time>2026-03-27T09:04:36.318Z</time></trkpt><trkpt lat="40.8393944" lon="9.5206835"><ele>63.0</ele><time>2026-03-27T09:04:37.315Z</time></trkpt><trkpt lat="40.8392686" lon="9.5205293"><ele>62.0</ele><time>2026-03-27T09:04:38.323Z</time></trkpt><trkpt lat="40.839148" lon="9.5203655"><ele>61.0</ele><time>2026-03-27T09:04:39.315Z</time></trkpt><trkpt lat="40.8390358" lon="9.5201823"><ele>60.0</ele><time>2026-03-27T09:04:40.317Z</time></trkpt><trkpt lat="40.8389379" lon="9.5199793"><ele>60.0</ele><time>2026-03-27T09:04:41.315Z</time></trkpt><trkpt lat="40.83884" lon="9.5197772"><ele>60.0</ele><time>2026-03-27T09:04:42.321Z</time></trkpt><trkpt lat="40.8387467" lon="9.5195655"><ele>60.0</ele><time>2026-03-27T09:04:43.321Z</time></trkpt><trkpt lat="40.8386505" lon="9.5193559"><ele>59.33333333333333</ele><time>2026-03-27T09:04:44.316Z</time></trkpt><trkpt lat="40.8385504" lon="9.5191477"><ele>58.666666666666664</ele><time>2026-03-27T09:04:45.317Z</time></trkpt><trkpt lat="40.8384501" lon="9.5189387"><ele>58.0</ele><time>2026-03-27T09:04:46.319Z</time></trkpt><trkpt lat="40.838348" lon="9.5187313"><ele>57.666666666666664</ele><time>2026-03-27T09:04:47.317Z</time></trkpt><trkpt lat="40.8382443" lon="9.5185258"><ele>57.33333333333333</ele><time>2026-03-27T09:04:48.327Z</time></trkpt><trkpt lat="40.8381415" lon="9.5183224"><ele>57.0</ele><time>2026-03-27T09:04:49.316Z</time></trkpt><trkpt lat="40.8380427" lon="9.518118"><ele>57.0</ele><time>2026-03-27T09:04:50.321Z</time></trkpt><trkpt lat="40.8379439" lon="9.517915"><ele>57.0</ele><time>2026-03-27T09:04:51.326Z</time></trkpt><trkpt lat="40.8378462" lon="9.5177115"><ele>57.0</ele><time>2026-03-27T09:04:52.32Z</time></trkpt><trkpt lat="40.8377495" lon="9.5175089"><ele>57.33333333333333</ele><time>2026-03-27T09:04:53.32Z</time></trkpt><trkpt lat="40.8376492" lon="9.5173196"><ele>57.666666666666664</ele><time>2026-03-27T09:04:54.32Z</time></trkpt><trkpt lat="40.8375593" lon="9.517118"><ele>58.0</ele><time>2026-03-27T09:04:55.322Z</time></trkpt><trkpt lat="40.8374963" lon="9.5169007"><ele>57.666666666666664</ele><time>2026-03-27T09:04:56.32Z</time></trkpt><trkpt lat="40.8374635" lon="9.5166669"><ele>57.33333333333333</ele><time>2026-03-27T09:04:57.317Z</time></trkpt><trkpt lat="40.8374589" lon="9.51643"><ele>57.0</ele><time>2026-03-27T09:04:58.32Z</time></trkpt><trkpt lat="40.8374663" lon="9.5161972"><ele>57.0</ele><time>2026-03-27T09:04:59.324Z</time></trkpt><trkpt lat="40.8375228" lon="9.5159748"><ele>57.0</ele><time>2026-03-27T09:05:00.321Z</time></trkpt><trkpt lat="40.8375957" lon="9.5157633"><ele>57.0</ele><time>2026-03-27T09:05:01.318Z</time></trkpt><trkpt lat="40.8376749" lon="9.515555"><ele>56.33333333333333</ele><time>2026-03-27T09:05:02.318Z</time></trkpt><trkpt lat="40.8377583" lon="9.5153391"><ele>55.666666666666664</ele><time>2026-03-27T09:05:03.316Z</time></trkpt><trkpt lat="40.8378489" lon="9.5151191"><ele>55.0</ele><time>2026-03-27T09:05:04.319Z</time></trkpt><trkpt lat="40.8379313" lon="9.5149094"><ele>55.0</ele><time>2026-03-27T09:05:05.32Z</time></trkpt><trkpt lat="40.8380127" lon="9.5147017"><ele>55.0</ele><time>2026-03-27T09:05:06.325Z</time></trkpt><trkpt lat="40.838089" lon="9.5144984"><ele>55.0</ele><time>2026-03-27T09:05:07.317Z</time></trkpt><trkpt lat="40.8381495" lon="9.5143124"><ele>56.25</ele><time>2026-03-27T09:05:08.321Z</time></trkpt><trkpt lat="40.8381879" lon="9.5141418"><ele>57.5</ele><time>2026-03-27T09:05:09.313Z</time></trkpt><trkpt lat="40.8381858" lon="9.5139877"><ele>58.75</ele><time>2026-03-27T09:05:10.314Z</time></trkpt><trkpt lat="40.8381474" lon="9.5138456"><ele>60.0</ele><time>2026-03-27T09:05:11.313Z</time></trkpt><trkpt lat="40.8380964" lon="9.5137073"><ele>62.5</ele><time>2026-03-27T09:05:12.317Z</time></trkpt><trkpt lat="40.8380055" lon="9.5135753"><ele>65.0</ele><time>2026-03-27T09:05:13.327Z</time></trkpt><trkpt lat="40.8379037" lon="9.5134303"><ele>67.5</ele><time>2026-03-27T09:05:14.316Z</time></trkpt><trkpt lat="40.8378078" lon="9.5132593"><ele>70.0</ele><time>2026-03-27T09:05:15.319Z</time></trkpt><trkpt lat="40.8377176" lon="9.5130938"><ele>70.0</ele><time>2026-03-27T09:05:16.315Z</time></trkpt><trkpt lat="40.837654" lon="9.5129316"><ele>70.0</ele><time>2026-03-27T09:05:17.322Z</time></trkpt><trkpt lat="40.8376066" lon="9.5127615"><ele>70.0</ele><time>2026-03-27T09:05:18.325Z</time></trkpt><trkpt lat="40.8375862" lon="9.5126002"><ele>70.0</ele><time>2026-03-27T09:05:19.316Z</time></trkpt><trkpt lat="40.8376003" lon="9.512455"><ele>70.0</ele><time>2026-03-27T09:05:20.33Z</time></trkpt><trkpt lat="40.8376328" lon="9.5123527"><ele>70.0</ele><time>2026-03-27T09:05:21.325Z</time></trkpt><trkpt lat="40.8376487" lon="9.5122657"><ele>70.0</ele><time>2026-03-27T09:05:22.326Z</time></trkpt><trkpt lat="40.8376453" lon="9.5121401"><ele>70.0</ele><time>2026-03-27T09:05:24.321Z</time></trkpt><trkpt lat="40.8375626" lon="9.5120721"><ele>70.0</ele><time>2026-03-27T09:05:26.323Z</time></trkpt><trkpt lat="40.8374463" lon="9.5121286"><ele>70.8</ele><time>2026-03-27T09:05:28.323Z</time></trkpt><trkpt lat="40.8373791" lon="9.5121894"><ele>71.6</ele><time>2026-03-27T09:05:29.32Z</time></trkpt><trkpt lat="40.8372957" lon="9.5122606"><ele>72.4</ele><time>2026-03-27T09:05:30.318Z</time></trkpt><trkpt lat="40.8371956" lon="9.5123333"><ele>73.2</ele><time>2026-03-27T09:05:31.32Z</time></trkpt><trkpt lat="40.8370789" lon="9.5124078"><ele>74.0</ele><time>2026-03-27T09:05:32.318Z</time></trkpt><trkpt lat="40.8369569" lon="9.5124835"><ele>74.0</ele><time>2026-03-27T09:05:33.324Z</time></trkpt><trkpt lat="40.8368324" lon="9.5125555"><ele>74.0</ele><time>2026-03-27T09:05:34.316Z</time></trkpt><trkpt lat="40.8367073" lon="9.5126159"><ele>74.0</ele><time>2026-03-27T09:05:35.32Z</time></trkpt><trkpt lat="40.8365851" lon="9.5126655"><ele>74.0</ele><time>2026-03-27T09:05:36.322Z</time></trkpt><trkpt lat="40.8364662" lon="9.5127088"><ele>74.75</ele><time>2026-03-27T09:05:37.323Z</time></trkpt><trkpt lat="40.836353" lon="9.5127486"><ele>75.5</ele><time>2026-03-27T09:05:38.324Z</time></trkpt><trkpt lat="40.8362409" lon="9.5127918"><ele>76.25</ele><time>2026-03-27T09:05:39.321Z</time></trkpt><trkpt lat="40.8361237" lon="9.5128372"><ele>77.0</ele><time>2026-03-27T09:05:40.316Z</time></trkpt><trkpt lat="40.8360049" lon="9.5128826"><ele>74.25</ele><time>2026-03-27T09:05:41.319Z</time></trkpt><trkpt lat="40.8358803" lon="9.5129255"><ele>71.5</ele><time>2026-03-27T09:05:42.32Z</time></trkpt><trkpt lat="40.8357566" lon="9.5129608"><ele>68.75</ele><time>2026-03-27T09:05:43.32Z</time></trkpt><trkpt lat="40.835631" lon="9.5129945"><ele>66.0</ele><time>2026-03-27T09:05:44.327Z</time></trkpt><trkpt lat="40.8355001" lon="9.5130295"><ele>66.0</ele><time>2026-03-27T09:05:45.32Z</time></trkpt><trkpt lat="40.8353638" lon="9.5130666"><ele>66.0</ele><time>2026-03-27T09:05:46.317Z</time></trkpt><trkpt lat="40.8352259" lon="9.5131044"><ele>66.0</ele><time>2026-03-27T09:05:47.316Z</time></trkpt><trkpt lat="40.8350871" lon="9.5131406"><ele>66.0</ele><time>2026-03-27T09:05:48.326Z</time></trkpt><trkpt lat="40.8349498" lon="9.5131741"><ele>66.25</ele><time>2026-03-27T09:05:49.316Z</time></trkpt><trkpt lat="40.8348117" lon="9.5132079"><ele>66.5</ele><time>2026-03-27T09:05:50.333Z</time></trkpt><trkpt lat="40.8346729" lon="9.513237"><ele>66.75</ele><time>2026-03-27T09:05:51.321Z</time></trkpt><trkpt lat="40.8345333" lon="9.5132552"><ele>67.0</ele><time>2026-03-27T09:05:52.32Z</time></trkpt><trkpt lat="40.8343899" lon="9.5132599"><ele>68.5</ele><time>2026-03-27T09:05:53.318Z</time></trkpt><trkpt lat="40.8342435" lon="9.5132503"><ele>70.0</ele><time>2026-03-27T09:05:54.328Z</time></trkpt><trkpt lat="40.8341025" lon="9.5132305"><ele>71.5</ele><time>2026-03-27T09:05:55.325Z</time></trkpt><trkpt lat="40.8339577" lon="9.5132049"><ele>73.0</ele><time>2026-03-27T09:05:56.313Z</time></trkpt><trkpt lat="40.833809" lon="9.5131757"><ele>73.0</ele><time>2026-03-27T09:05:57.319Z</time></trkpt><trkpt lat="40.8336567" lon="9.5131457"><ele>73.0</ele><time>2026-03-27T09:05:58.321Z</time></trkpt><trkpt lat="40.8335032" lon="9.5131163"><ele>73.0</ele><time>2026-03-27T09:05:59.316Z</time></trkpt><trkpt lat="40.833348" lon="9.513087"><ele>72.66666666666666</ele><time>2026-03-27T09:06:00.317Z</time></trkpt><trkpt lat="40.8331925" lon="9.5130567"><ele>72.33333333333333</ele><time>2026-03-27T09:06:01.322Z</time></trkpt><trkpt lat="40.8330381" lon="9.5130237"><ele>72.0</ele><time>2026-03-27T09:06:02.317Z</time></trkpt><trkpt lat="40.832885" lon="9.5129827"><ele>72.0</ele><time>2026-03-27T09:06:03.323Z</time></trkpt><trkpt lat="40.8327313" lon="9.5129287"><ele>72.0</ele><time>2026-03-27T09:06:04.316Z</time></trkpt><trkpt lat="40.8325764" lon="9.5128623"><ele>72.0</ele><time>2026-03-27T09:06:05.322Z</time></trkpt><trkpt lat="40.8324192" lon="9.5127883"><ele>74.33333333333333</ele><time>2026-03-27T09:06:06.314Z</time></trkpt><trkpt lat="40.8322596" lon="9.5127145"><ele>76.66666666666666</ele><time>2026-03-27T09:06:07.327Z</time></trkpt><trkpt lat="40.8320977" lon="9.5126448"><ele>79.0</ele><time>2026-03-27T09:06:08.316Z</time></trkpt><trkpt lat="40.8319337" lon="9.51258"><ele>79.0</ele><time>2026-03-27T09:06:09.325Z</time></trkpt><trkpt lat="40.8317684" lon="9.512519"><ele>79.0</ele><time>2026-03-27T09:06:10.317Z</time></trkpt><trkpt lat="40.8316021" lon="9.5124613"><ele>79.0</ele><time>2026-03-27T09:06:11.312Z</time></trkpt><trkpt lat="40.831435" lon="9.5124058"><ele>79.0</ele><time>2026-03-27T09:06:12.318Z</time></trkpt><trkpt lat="40.8312714" lon="9.5123565"><ele>79.0</ele><time>2026-03-27T09:06:13.317Z</time></trkpt><trkpt lat="40.8311131" lon="9.5123085"><ele>79.0</ele><time>2026-03-27T09:06:14.314Z</time></trkpt><trkpt lat="40.8309502" lon="9.5122768"><ele>80.33333333333333</ele><time>2026-03-27T09:06:15.313Z</time></trkpt><trkpt lat="40.8307874" lon="9.5122693"><ele>81.66666666666667</ele><time>2026-03-27T09:06:16.321Z</time></trkpt><trkpt lat="40.8306205" lon="9.5122787"><ele>83.0</ele><time>2026-03-27T09:06:17.315Z</time></trkpt><trkpt lat="40.830452" lon="9.5122965"><ele>83.0</ele><time>2026-03-27T09:06:18.315Z</time></trkpt><trkpt lat="40.8302796" lon="9.5123201"><ele>83.0</ele><time>2026-03-27T09:06:19.309Z</time></trkpt><trkpt lat="40.830106" lon="9.5123471"><ele>83.0</ele><time>2026-03-27T09:06:20.314Z</time></trkpt><trkpt lat="40.8299304" lon="9.5123757"><ele>83.66666666666667</ele><time>2026-03-27T09:06:21.312Z</time></trkpt><trkpt lat="40.8297546" lon="9.5124"><ele>84.33333333333333</ele><time>2026-03-27T09:06:22.319Z</time></trkpt><trkpt lat="40.8295801" lon="9.5124204"><ele>85.0</ele><time>2026-03-27T09:06:23.313Z</time></trkpt><trkpt lat="40.8294037" lon="9.5124364"><ele>87.66666666666666</ele><time>2026-03-27T09:06:24.311Z</time></trkpt><trkpt lat="40.8292259" lon="9.5124492"><ele>90.33333333333333</ele><time>2026-03-27T09:06:25.313Z</time></trkpt><trkpt lat="40.8290465" lon="9.5124585"><ele>93.0</ele><time>2026-03-27T09:06:26.316Z</time></trkpt><trkpt lat="40.8288645" lon="9.512464"><ele>93.0</ele><time>2026-03-27T09:06:27.313Z</time></trkpt><trkpt lat="40.8286811" lon="9.5124657"><ele>93.0</ele><time>2026-03-27T09:06:28.318Z</time></trkpt><trkpt lat="40.8284954" lon="9.5124645"><ele>93.0</ele><time>2026-03-27T09:06:29.318Z</time></trkpt><trkpt lat="40.8283091" lon="9.5124643"><ele>96.33333333333334</ele><time>2026-03-27T09:06:30.319Z</time></trkpt><trkpt lat="40.8281226" lon="9.512472"><ele>99.66666666666667</ele><time>2026-03-27T09:06:31.323Z</time></trkpt><trkpt lat="40.8279361" lon="9.5124934"><ele>103.0</ele><time>2026-03-27T09:06:32.313Z</time></trkpt><trkpt lat="40.8277495" lon="9.512525"><ele>106.0</ele><time>2026-03-27T09:06:33.322Z</time></trkpt><trkpt lat="40.8275639" lon="9.512559"><ele>109.0</ele><time>2026-03-27T09:06:34.315Z</time></trkpt><trkpt lat="40.8273777" lon="9.5125888"><ele>112.0</ele><time>2026-03-27T09:06:35.316Z</time></trkpt><trkpt lat="40.8271917" lon="9.5126139"><ele>112.0</ele><time>2026-03-27T09:06:36.32Z</time></trkpt><trkpt lat="40.8270076" lon="9.5126364"><ele>112.0</ele><time>2026-03-27T09:06:37.314Z</time></trkpt><trkpt lat="40.8268237" lon="9.5126566"><ele>112.0</ele><time>2026-03-27T09:06:38.32Z</time></trkpt><trkpt lat="40.8266415" lon="9.5126753"><ele>114.33333333333334</ele><time>2026-03-27T09:06:39.319Z</time></trkpt><trkpt lat="40.8264594" lon="9.5126935"><ele>116.66666666666666</ele><time>2026-03-27T09:06:40.316Z</time></trkpt><trkpt lat="40.8262784" lon="9.5127122"><ele>119.0</ele><time>2026-03-27T09:06:41.316Z</time></trkpt><trkpt lat="40.8260966" lon="9.5127269"><ele>122.0</ele><time>2026-03-27T09:06:42.322Z</time></trkpt><trkpt lat="40.8259126" lon="9.5127302"><ele>125.0</ele><time>2026-03-27T09:06:43.315Z</time></trkpt><trkpt lat="40.8257269" lon="9.5127185"><ele>128.0</ele><time>2026-03-27T09:06:44.32Z</time></trkpt><trkpt lat="40.8255376" lon="9.5126905"><ele>128.0</ele><time>2026-03-27T09:06:45.319Z</time></trkpt><trkpt lat="40.825341" lon="9.5126557"><ele>128.0</ele><time>2026-03-27T09:06:46.315Z</time></trkpt><trkpt lat="40.8251449" lon="9.5126264"><ele>128.0</ele><time>2026-03-27T09:06:47.318Z</time></trkpt><trkpt lat="40.8249519" lon="9.5126144"><ele>126.66666666666666</ele><time>2026-03-27T09:06:48.317Z</time></trkpt><trkpt lat="40.8247579" lon="9.5126303"><ele>125.33333333333334</ele><time>2026-03-27T09:06:49.325Z</time></trkpt><trkpt lat="40.8245598" lon="9.5126718"><ele>124.0</ele><time>2026-03-27T09:06:50.316Z</time></trkpt><trkpt lat="40.8243566" lon="9.5127217"><ele>121.0</ele><time>2026-03-27T09:06:51.314Z</time></trkpt><trkpt lat="40.8241491" lon="9.5127728"><ele>118.0</ele><time>2026-03-27T09:06:52.317Z</time></trkpt><trkpt lat="40.8239389" lon="9.5128232"><ele>115.0</ele><time>2026-03-27T09:06:53.313Z</time></trkpt><trkpt lat="40.8237261" lon="9.5128739"><ele>116.33333333333334</ele><time>2026-03-27T09:06:54.325Z</time></trkpt><trkpt lat="40.8235119" lon="9.5129248"><ele>117.66666666666666</ele><time>2026-03-27T09:06:55.321Z</time></trkpt><trkpt lat="40.8232972" lon="9.5129771"><ele>119.0</ele><time>2026-03-27T09:06:56.318Z</time></trkpt><trkpt lat="40.8230832" lon="9.5130319"><ele>115.33333333333333</ele><time>2026-03-27T09:06:57.315Z</time></trkpt><trkpt lat="40.8228735" lon="9.5130895"><ele>111.66666666666666</ele><time>2026-03-27T09:06:58.314Z</time></trkpt><trkpt lat="40.8226671" lon="9.513147"><ele>108.0</ele><time>2026-03-27T09:06:59.317Z</time></trkpt><trkpt lat="40.8224618" lon="9.5132031"><ele>106.66666666666666</ele><time>2026-03-27T09:07:00.315Z</time></trkpt><trkpt lat="40.822258" lon="9.5132594"><ele>105.33333333333333</ele><time>2026-03-27T09:07:01.316Z</time></trkpt><trkpt lat="40.822056" lon="9.5133162"><ele>104.0</ele><time>2026-03-27T09:07:02.319Z</time></trkpt><trkpt lat="40.8218559" lon="9.5133735"><ele>103.33333333333333</ele><time>2026-03-27T09:07:03.31Z</time></trkpt><trkpt lat="40.8216567" lon="9.5134296"><ele>102.66666666666666</ele><time>2026-03-27T09:07:04.314Z</time></trkpt><trkpt lat="40.8214584" lon="9.5134827"><ele>102.0</ele><time>2026-03-27T09:07:05.319Z</time></trkpt><trkpt lat="40.8212624" lon="9.5135355"><ele>102.0</ele><time>2026-03-27T09:07:06.313Z</time></trkpt><trkpt lat="40.8210685" lon="9.513589"><ele>102.0</ele><time>2026-03-27T09:07:07.32Z</time></trkpt><trkpt lat="40.820877" lon="9.5136423"><ele>102.0</ele><time>2026-03-27T09:07:08.317Z</time></trkpt><trkpt lat="40.8206878" lon="9.513694"><ele>99.66666666666667</ele><time>2026-03-27T09:07:09.315Z</time></trkpt><trkpt lat="40.8204997" lon="9.5137449"><ele>97.33333333333334</ele><time>2026-03-27T09:07:10.318Z</time></trkpt><trkpt lat="40.8203102" lon="9.5137984"><ele>95.0</ele><time>2026-03-27T09:07:11.312Z</time></trkpt><trkpt lat="40.8201196" lon="9.5138526"><ele>93.66666666666667</ele><time>2026-03-27T09:07:12.323Z</time></trkpt><trkpt lat="40.8199271" lon="9.5139023"><ele>92.33333333333333</ele><time>2026-03-27T09:07:13.315Z</time></trkpt><trkpt lat="40.8197324" lon="9.5139419"><ele>91.0</ele><time>2026-03-27T09:07:14.321Z</time></trkpt><trkpt lat="40.8195354" lon="9.5139639"><ele>91.0</ele><time>2026-03-27T09:07:15.317Z</time></trkpt><trkpt lat="40.8193374" lon="9.5139654"><ele>91.0</ele><time>2026-03-27T09:07:16.317Z</time></trkpt><trkpt lat="40.81914" lon="9.5139552"><ele>91.0</ele><time>2026-03-27T09:07:17.316Z</time></trkpt><trkpt lat="40.8189426" lon="9.5139399"><ele>90.66666666666666</ele><time>2026-03-27T09:07:18.315Z</time></trkpt><trkpt lat="40.8187446" lon="9.5139229"><ele>90.33333333333333</ele><time>2026-03-27T09:07:19.318Z</time></trkpt><trkpt lat="40.8185469" lon="9.5139062"><ele>90.0</ele><time>2026-03-27T09:07:20.313Z</time></trkpt><trkpt lat="40.8183495" lon="9.51389"><ele>89.33333333333333</ele><time>2026-03-27T09:07:21.32Z</time></trkpt><trkpt lat="40.8181526" lon="9.5138737"><ele>88.66666666666666</ele><time>2026-03-27T09:07:22.316Z</time></trkpt><trkpt lat="40.8179566" lon="9.5138536"><ele>88.0</ele><time>2026-03-27T09:07:23.315Z</time></trkpt><trkpt lat="40.8177631" lon="9.5138228"><ele>87.66666666666666</ele><time>2026-03-27T09:07:24.313Z</time></trkpt><trkpt lat="40.8175754" lon="9.5137759"><ele>87.33333333333333</ele><time>2026-03-27T09:07:25.318Z</time></trkpt><trkpt lat="40.8173925" lon="9.5137218"><ele>87.0</ele><time>2026-03-27T09:07:26.313Z</time></trkpt><trkpt lat="40.8172122" lon="9.5136748"><ele>86.0</ele><time>2026-03-27T09:07:27.337Z</time></trkpt><trkpt lat="40.817032" lon="9.5136457"><ele>85.0</ele><time>2026-03-27T09:07:28.32Z</time></trkpt><trkpt lat="40.816854" lon="9.51364"><ele>84.0</ele><time>2026-03-27T09:07:29.314Z</time></trkpt><trkpt lat="40.816678" lon="9.5136494"><ele>84.0</ele><time>2026-03-27T09:07:30.319Z</time></trkpt><trkpt lat="40.8165021" lon="9.5136625"><ele>84.0</ele><time>2026-03-27T09:07:31.319Z</time></trkpt><trkpt lat="40.8163241" lon="9.513675"><ele>84.0</ele><time>2026-03-27T09:07:32.317Z</time></trkpt><trkpt lat="40.8161446" lon="9.5136872"><ele>84.0</ele><time>2026-03-27T09:07:33.32Z</time></trkpt><trkpt lat="40.8159635" lon="9.5137009"><ele>84.0</ele><time>2026-03-27T09:07:34.316Z</time></trkpt><trkpt lat="40.8157819" lon="9.5137147"><ele>84.0</ele><time>2026-03-27T09:07:35.319Z</time></trkpt><trkpt lat="40.8156022" lon="9.5137285"><ele>83.33333333333333</ele><time>2026-03-27T09:07:36.317Z</time></trkpt><trkpt lat="40.8154194" lon="9.5137395"><ele>82.66666666666666</ele><time>2026-03-27T09:07:37.313Z</time></trkpt><trkpt lat="40.8152381" lon="9.5137481"><ele>82.0</ele><time>2026-03-27T09:07:38.316Z</time></trkpt><trkpt lat="40.815058" lon="9.5137625"><ele>81.33333333333333</ele><time>2026-03-27T09:07:39.32Z</time></trkpt><trkpt lat="40.8148774" lon="9.5137711"><ele>80.66666666666667</ele><time>2026-03-27T09:07:40.312Z</time></trkpt><trkpt lat="40.8146957" lon="9.5137813"><ele>80.0</ele><time>2026-03-27T09:07:41.316Z</time></trkpt><trkpt lat="40.814519" lon="9.5137904"><ele>80.0</ele><time>2026-03-27T09:07:42.308Z</time></trkpt><trkpt lat="40.8143391" lon="9.5138012"><ele>80.0</ele><time>2026-03-27T09:07:43.306Z</time></trkpt><trkpt lat="40.8141588" lon="9.5138139"><ele>80.0</ele><time>2026-03-27T09:07:44.311Z</time></trkpt><trkpt lat="40.8139756" lon="9.5138274"><ele>79.66666666666667</ele><time>2026-03-27T09:07:45.311Z</time></trkpt><trkpt lat="40.8137932" lon="9.5138394"><ele>79.33333333333333</ele><time>2026-03-27T09:07:46.314Z</time></trkpt><trkpt lat="40.8136105" lon="9.5138524"><ele>79.0</ele><time>2026-03-27T09:07:47.307Z</time></trkpt><trkpt lat="40.8134281" lon="9.5138666"><ele>78.66666666666666</ele><time>2026-03-27T09:07:48.311Z</time></trkpt><trkpt lat="40.8132456" lon="9.5138787"><ele>78.33333333333333</ele><time>2026-03-27T09:07:49.307Z</time></trkpt><trkpt lat="40.8130624" lon="9.51389"><ele>78.0</ele><time>2026-03-27T09:07:50.312Z</time></trkpt><trkpt lat="40.8128787" lon="9.5139014"><ele>78.0</ele><time>2026-03-27T09:07:51.314Z</time></trkpt><trkpt lat="40.8126949" lon="9.5139145"><ele>78.0</ele><time>2026-03-27T09:07:52.31Z</time></trkpt><trkpt lat="40.8125104" lon="9.5139335"><ele>78.0</ele><time>2026-03-27T09:07:53.309Z</time></trkpt><trkpt lat="40.8123261" lon="9.51396"><ele>78.0</ele><time>2026-03-27T09:07:54.312Z</time></trkpt><trkpt lat="40.8121422" lon="9.5139976"><ele>78.0</ele><time>2026-03-27T09:07:55.317Z</time></trkpt><trkpt lat="40.8119586" lon="9.5140443"><ele>78.0</ele><time>2026-03-27T09:07:56.316Z</time></trkpt><trkpt lat="40.8117762" lon="9.5140943"><ele>78.66666666666667</ele><time>2026-03-27T09:07:57.308Z</time></trkpt><trkpt lat="40.8115922" lon="9.5141443"><ele>79.33333333333334</ele><time>2026-03-27T09:07:58.313Z</time></trkpt><trkpt lat="40.8114078" lon="9.5141947"><ele>80.0</ele><time>2026-03-27T09:07:59.312Z</time></trkpt><trkpt lat="40.8112204" lon="9.514245"><ele>80.0</ele><time>2026-03-27T09:08:00.312Z</time></trkpt><trkpt lat="40.811031" lon="9.514296"><ele>80.0</ele><time>2026-03-27T09:08:01.315Z</time></trkpt><trkpt lat="40.8108401" lon="9.5143461"><ele>80.0</ele><time>2026-03-27T09:08:02.312Z</time></trkpt><trkpt lat="40.8106478" lon="9.5143974"><ele>80.33333333333334</ele><time>2026-03-27T09:08:03.316Z</time></trkpt><trkpt lat="40.8104557" lon="9.5144496"><ele>80.66666666666667</ele><time>2026-03-27T09:08:04.312Z</time></trkpt><trkpt lat="40.8102668" lon="9.5145016"><ele>81.0</ele><time>2026-03-27T09:08:05.317Z</time></trkpt><trkpt lat="40.8100807" lon="9.5145547"><ele>81.0</ele><time>2026-03-27T09:08:06.312Z</time></trkpt><trkpt lat="40.8098956" lon="9.514609"><ele>81.0</ele><time>2026-03-27T09:08:07.32Z</time></trkpt><trkpt lat="40.8097123" lon="9.5146642"><ele>81.0</ele><time>2026-03-27T09:08:08.312Z</time></trkpt><trkpt lat="40.8095306" lon="9.5147177"><ele>81.0</ele><time>2026-03-27T09:08:09.317Z</time></trkpt><trkpt lat="40.8093497" lon="9.5147716"><ele>81.0</ele><time>2026-03-27T09:08:10.313Z</time></trkpt><trkpt lat="40.8091693" lon="9.5148266"><ele>81.0</ele><time>2026-03-27T09:08:11.315Z</time></trkpt><trkpt lat="40.8089878" lon="9.5148811"><ele>82.66666666666667</ele><time>2026-03-27T09:08:12.311Z</time></trkpt><trkpt lat="40.8088061" lon="9.5149353"><ele>84.33333333333334</ele><time>2026-03-27T09:08:13.318Z</time></trkpt><trkpt lat="40.8086229" lon="9.5149891"><ele>86.0</ele><time>2026-03-27T09:08:14.312Z</time></trkpt><trkpt lat="40.8084396" lon="9.5150431"><ele>86.33333333333334</ele><time>2026-03-27T09:08:15.312Z</time></trkpt><trkpt lat="40.8082556" lon="9.5150994"><ele>86.66666666666667</ele><time>2026-03-27T09:08:16.311Z</time></trkpt><trkpt lat="40.8080705" lon="9.5151574"><ele>87.0</ele><time>2026-03-27T09:08:17.313Z</time></trkpt><trkpt lat="40.8078836" lon="9.5152173"><ele>87.0</ele><time>2026-03-27T09:08:18.31Z</time></trkpt><trkpt lat="40.8076959" lon="9.5152776"><ele>87.0</ele><time>2026-03-27T09:08:19.313Z</time></trkpt><trkpt lat="40.8075078" lon="9.5153367"><ele>87.0</ele><time>2026-03-27T09:08:20.315Z</time></trkpt><trkpt lat="40.8073188" lon="9.51539"><ele>87.0</ele><time>2026-03-27T09:08:21.315Z</time></trkpt><trkpt lat="40.8071288" lon="9.515426"><ele>87.0</ele><time>2026-03-27T09:08:22.313Z</time></trkpt><trkpt lat="40.8069402" lon="9.5154357"><ele>87.0</ele><time>2026-03-27T09:08:23.312Z</time></trkpt><trkpt lat="40.8067536" lon="9.5154243"><ele>88.0</ele><time>2026-03-27T09:08:24.311Z</time></trkpt><trkpt lat="40.8065693" lon="9.515398"><ele>89.0</ele><time>2026-03-27T09:08:25.312Z</time></trkpt><trkpt lat="40.806386" lon="9.5153672"><ele>90.0</ele><time>2026-03-27T09:08:26.311Z</time></trkpt><trkpt lat="40.8062053" lon="9.5153303"><ele>90.0</ele><time>2026-03-27T09:08:27.311Z</time></trkpt><trkpt lat="40.806027" lon="9.5152831"><ele>90.0</ele><time>2026-03-27T09:08:28.315Z</time></trkpt><trkpt lat="40.8058518" lon="9.5152187"><ele>90.0</ele><time>2026-03-27T09:08:29.311Z</time></trkpt><trkpt lat="40.8056806" lon="9.515135"><ele>92.0</ele><time>2026-03-27T09:08:30.312Z</time></trkpt><trkpt lat="40.8055122" lon="9.5150362"><ele>94.0</ele><time>2026-03-27T09:08:31.308Z</time></trkpt><trkpt lat="40.8053451" lon="9.5149305"><ele>96.0</ele><time>2026-03-27T09:08:32.311Z</time></trkpt><trkpt lat="40.8051762" lon="9.5148221"><ele>97.66666666666666</ele><time>2026-03-27T09:08:33.316Z</time></trkpt><trkpt lat="40.8050018" lon="9.5147083"><ele>99.33333333333333</ele><time>2026-03-27T09:08:34.316Z</time></trkpt><trkpt lat="40.8048184" lon="9.5145941"><ele>101.0</ele><time>2026-03-27T09:08:35.314Z</time></trkpt><trkpt lat="40.8046275" lon="9.5144879"><ele>101.33333333333333</ele><time>2026-03-27T09:08:36.311Z</time></trkpt><trkpt lat="40.8044343" lon="9.5144037"><ele>101.66666666666666</ele><time>2026-03-27T09:08:37.312Z</time></trkpt><trkpt lat="40.8042423" lon="9.5143473"><ele>102.0</ele><time>2026-03-27T09:08:38.313Z</time></trkpt><trkpt lat="40.8040526" lon="9.5143175"><ele>103.33333333333334</ele><time>2026-03-27T09:08:39.312Z</time></trkpt><trkpt lat="40.8038653" lon="9.5143083"><ele>104.66666666666667</ele><time>2026-03-27T09:08:40.311Z</time></trkpt><trkpt lat="40.8036811" lon="9.5143087"><ele>106.0</ele><time>2026-03-27T09:08:41.31Z</time></trkpt><trkpt lat="40.8035051" lon="9.5143046"><ele>108.66666666666667</ele><time>2026-03-27T09:08:42.312Z</time></trkpt><trkpt lat="40.8033178" lon="9.5143162"><ele>111.33333333333334</ele><time>2026-03-27T09:08:43.309Z</time></trkpt><trkpt lat="40.8031317" lon="9.5143219"><ele>114.0</ele><time>2026-03-27T09:08:44.304Z</time></trkpt><trkpt lat="40.8029476" lon="9.5143292"><ele>114.0</ele><time>2026-03-27T09:08:45.307Z</time></trkpt><trkpt lat="40.8027591" lon="9.5143508"><ele>114.0</ele><time>2026-03-27T09:08:46.307Z</time></trkpt><trkpt lat="40.8025731" lon="9.5143903"><ele>114.0</ele><time>2026-03-27T09:08:47.312Z</time></trkpt><trkpt lat="40.8023853" lon="9.514461"><ele>116.33333333333334</ele><time>2026-03-27T09:08:48.322Z</time></trkpt><trkpt lat="40.8022084" lon="9.5145598"><ele>118.66666666666667</ele><time>2026-03-27T09:08:49.307Z</time></trkpt><trkpt lat="40.8020297" lon="9.514675"><ele>121.0</ele><time>2026-03-27T09:08:50.327Z</time></trkpt><trkpt lat="40.8018502" lon="9.5147893"><ele>125.0</ele><time>2026-03-27T09:08:51.307Z</time></trkpt><trkpt lat="40.8016718" lon="9.5149061"><ele>129.0</ele><time>2026-03-27T09:08:52.312Z</time></trkpt><trkpt lat="40.8014904" lon="9.5150226"><ele>133.0</ele><time>2026-03-27T09:08:53.316Z</time></trkpt><trkpt lat="40.8013145" lon="9.5151397"><ele>133.0</ele><time>2026-03-27T09:08:54.308Z</time></trkpt><trkpt lat="40.8011368" lon="9.5152553"><ele>133.0</ele><time>2026-03-27T09:08:55.317Z</time></trkpt><trkpt lat="40.80096" lon="9.5153726"><ele>133.0</ele><time>2026-03-27T09:08:56.315Z</time></trkpt><trkpt lat="40.8007826" lon="9.5154856"><ele>133.0</ele><time>2026-03-27T09:08:57.309Z</time></trkpt><trkpt lat="40.8006071" lon="9.5155989"><ele>133.0</ele><time>2026-03-27T09:08:58.308Z</time></trkpt><trkpt lat="40.8004326" lon="9.5157106"><ele>133.0</ele><time>2026-03-27T09:08:59.314Z</time></trkpt><trkpt lat="40.8004326" lon="9.5157106"><ele>133.0</ele><time>2026-03-27T09:08:59.314Z</time></trkpt><trkpt lat="40.7978637" lon="9.5165604"><ele>148.0</ele><time>2026-03-27T09:09:13.324Z</time></trkpt><trkpt lat="40.7976687" lon="9.5165523"><ele>163.0</ele><time>2026-03-27T09:09:14.328Z</time></trkpt><trkpt lat="40.7970805" lon="9.5165289"><ele>165.0</ele><time>2026-03-27T09:09:17.314Z</time></trkpt><trkpt lat="40.7968869" lon="9.5165229"><ele>167.0</ele><time>2026-03-27T09:09:18.306Z</time></trkpt><trkpt lat="40.7966921" lon="9.5165155"><ele>169.0</ele><time>2026-03-27T09:09:19.31Z</time></trkpt><trkpt lat="40.7964965" lon="9.5165074"><ele>170.33333333333334</ele><time>2026-03-27T09:09:20.31Z</time></trkpt><trkpt lat="40.7963024" lon="9.5164984"><ele>171.66666666666666</ele><time>2026-03-27T09:09:21.316Z</time></trkpt><trkpt lat="40.7961084" lon="9.5164901"><ele>173.0</ele><time>2026-03-27T09:09:22.32Z</time></trkpt><trkpt lat="40.7959143" lon="9.5164815"><ele>175.0</ele><time>2026-03-27T09:09:23.312Z</time></trkpt><trkpt lat="40.795721" lon="9.5164729"><ele>177.0</ele><time>2026-03-27T09:09:24.313Z</time></trkpt><trkpt lat="40.7955278" lon="9.5164661"><ele>179.0</ele><time>2026-03-27T09:09:25.319Z</time></trkpt><trkpt lat="40.795335" lon="9.5164648"><ele>181.0</ele><time>2026-03-27T09:09:26.311Z</time></trkpt><trkpt lat="40.7951414" lon="9.5164725"><ele>183.0</ele><time>2026-03-27T09:09:27.313Z</time></trkpt><trkpt lat="40.7949477" lon="9.5164884"><ele>185.0</ele><time>2026-03-27T09:09:28.311Z</time></trkpt><trkpt lat="40.7947536" lon="9.5165073"><ele>185.0</ele><time>2026-03-27T09:09:29.313Z</time></trkpt><trkpt lat="40.7945533" lon="9.5165278"><ele>185.0</ele><time>2026-03-27T09:09:30.314Z</time></trkpt><trkpt lat="40.7943495" lon="9.5165487"><ele>185.0</ele><time>2026-03-27T09:09:31.31Z</time></trkpt><trkpt lat="40.794146" lon="9.5165669"><ele>186.66666666666666</ele><time>2026-03-27T09:09:32.321Z</time></trkpt><trkpt lat="40.7939452" lon="9.5165823"><ele>188.33333333333334</ele><time>2026-03-27T09:09:33.308Z</time></trkpt><trkpt lat="40.7937458" lon="9.5165845"><ele>190.0</ele><time>2026-03-27T09:09:34.32Z</time></trkpt><trkpt lat="40.7935412" lon="9.5165752"><ele>192.66666666666669</ele><time>2026-03-27T09:09:35.309Z</time></trkpt><trkpt lat="40.7933401" lon="9.5165627"><ele>195.33333333333334</ele><time>2026-03-27T09:09:36.312Z</time></trkpt><trkpt lat="40.7931412" lon="9.51655"><ele>198.0</ele><time>2026-03-27T09:09:37.312Z</time></trkpt><trkpt lat="40.7929433" lon="9.5165372"><ele>198.0</ele><time>2026-03-27T09:09:38.307Z</time></trkpt><trkpt lat="40.7927425" lon="9.5165214"><ele>198.0</ele><time>2026-03-27T09:09:39.312Z</time></trkpt><trkpt lat="40.7925409" lon="9.5165071"><ele>198.0</ele><time>2026-03-27T09:09:40.308Z</time></trkpt><trkpt lat="40.7923409" lon="9.5164932"><ele>198.66666666666669</ele><time>2026-03-27T09:09:41.313Z</time></trkpt><trkpt lat="40.7921402" lon="9.5164801"><ele>199.33333333333334</ele><time>2026-03-27T09:09:42.312Z</time></trkpt><trkpt lat="40.7919382" lon="9.5164707"><ele>200.0</ele><time>2026-03-27T09:09:43.312Z</time></trkpt><trkpt lat="40.7917288" lon="9.5164629"><ele>200.33333333333334</ele><time>2026-03-27T09:09:44.329Z</time></trkpt><trkpt lat="40.7915223" lon="9.5164549"><ele>200.66666666666669</ele><time>2026-03-27T09:09:45.312Z</time></trkpt><trkpt lat="40.7913146" lon="9.5164473"><ele>201.0</ele><time>2026-03-27T09:09:46.31Z</time></trkpt><trkpt lat="40.7911062" lon="9.5164433"><ele>204.66666666666669</ele><time>2026-03-27T09:09:47.309Z</time></trkpt><trkpt lat="40.7908987" lon="9.5164409"><ele>208.33333333333334</ele><time>2026-03-27T09:09:48.311Z</time></trkpt><trkpt lat="40.7906909" lon="9.5164461"><ele>212.0</ele><time>2026-03-27T09:09:49.313Z</time></trkpt><trkpt lat="40.790483" lon="9.516459"><ele>212.0</ele><time>2026-03-27T09:09:50.312Z</time></trkpt><trkpt lat="40.7902771" lon="9.5164815"><ele>212.0</ele><time>2026-03-27T09:09:51.314Z</time></trkpt><trkpt lat="40.7900721" lon="9.5165124"><ele>212.0</ele><time>2026-03-27T09:09:52.32Z</time></trkpt><trkpt lat="40.7898675" lon="9.5165502"><ele>216.0</ele><time>2026-03-27T09:09:53.315Z</time></trkpt><trkpt lat="40.7896651" lon="9.5165936"><ele>220.0</ele><time>2026-03-27T09:09:54.316Z</time></trkpt><trkpt lat="40.7894651" lon="9.5166399"><ele>224.0</ele><time>2026-03-27T09:09:55.312Z</time></trkpt><trkpt lat="40.7892621" lon="9.5166866"><ele>228.0</ele><time>2026-03-27T09:09:56.315Z</time></trkpt><trkpt lat="40.7890589" lon="9.516736"><ele>232.0</ele><time>2026-03-27T09:09:57.312Z</time></trkpt><trkpt lat="40.788855" lon="9.5167865"><ele>236.0</ele><time>2026-03-27T09:09:58.306Z</time></trkpt><trkpt lat="40.7886509" lon="9.5168361"><ele>242.0</ele><time>2026-03-27T09:09:59.316Z</time></trkpt><trkpt lat="40.7884451" lon="9.5168868"><ele>248.0</ele><time>2026-03-27T09:10:00.308Z</time></trkpt><trkpt lat="40.7882396" lon="9.5169383"><ele>254.0</ele><time>2026-03-27T09:10:01.308Z</time></trkpt><trkpt lat="40.7880323" lon="9.5169897"><ele>254.0</ele><time>2026-03-27T09:10:02.31Z</time></trkpt><trkpt lat="40.7878392" lon="9.5170366"><ele>254.0</ele><time>2026-03-27T09:10:03.305Z</time></trkpt><trkpt lat="40.7876813" lon="9.5170728"><ele>254.0</ele><time>2026-03-27T09:10:04.304Z</time></trkpt><trkpt lat="40.7875482" lon="9.5171038"><ele>254.50000000000003</ele><time>2026-03-27T09:10:05.309Z</time></trkpt><trkpt lat="40.7874336" lon="9.5171291"><ele>255.0</ele><time>2026-03-27T09:10:06.305Z</time></trkpt><trkpt lat="40.7873376" lon="9.517151"><ele>255.5</ele><time>2026-03-27T09:10:07.313Z</time></trkpt><trkpt lat="40.7872573" lon="9.5171685"><ele>256.0</ele><time>2026-03-27T09:10:08.31Z</time></trkpt><trkpt lat="40.7871862" lon="9.5171823"><ele>256.5</ele><time>2026-03-27T09:10:09.312Z</time></trkpt><trkpt lat="40.787112" lon="9.5171971"><ele>257.0</ele><time>2026-03-27T09:10:10.313Z</time></trkpt><trkpt lat="40.787034" lon="9.5172103"><ele>257.0</ele><time>2026-03-27T09:10:11.31Z</time></trkpt><trkpt lat="40.7869524" lon="9.5172188"><ele>257.0</ele><time>2026-03-27T09:10:12.307Z</time></trkpt><trkpt lat="40.7868682" lon="9.5172245"><ele>257.0</ele><time>2026-03-27T09:10:13.318Z</time></trkpt><trkpt lat="40.7867803" lon="9.5172291"><ele>257.0</ele><time>2026-03-27T09:10:14.31Z</time></trkpt><trkpt lat="40.7866885" lon="9.5172294"><ele>257.0</ele><time>2026-03-27T09:10:15.313Z</time></trkpt><trkpt lat="40.7865964" lon="9.5172272"><ele>257.0</ele><time>2026-03-27T09:10:16.309Z</time></trkpt><trkpt lat="40.7865104" lon="9.5172242"><ele>256.1666666666667</ele><time>2026-03-27T09:10:17.309Z</time></trkpt><trkpt lat="40.7864303" lon="9.5172175"><ele>255.33333333333334</ele><time>2026-03-27T09:10:18.308Z</time></trkpt><trkpt lat="40.7863564" lon="9.5172041"><ele>254.5</ele><time>2026-03-27T09:10:19.311Z</time></trkpt><trkpt lat="40.7862832" lon="9.5171874"><ele>253.66666666666669</ele><time>2026-03-27T09:10:20.31Z</time></trkpt><trkpt lat="40.7861991" lon="9.5171742"><ele>252.83333333333334</ele><time>2026-03-27T09:10:21.311Z</time></trkpt><trkpt lat="40.7861085" lon="9.5171547"><ele>252.0</ele><time>2026-03-27T09:10:22.311Z</time></trkpt><trkpt lat="40.7860121" lon="9.5171301"><ele>251.0</ele><time>2026-03-27T09:10:23.311Z</time></trkpt><trkpt lat="40.7859151" lon="9.5171013"><ele>250.0</ele><time>2026-03-27T09:10:24.317Z</time></trkpt><trkpt lat="40.7858195" lon="9.5170682"><ele>249.0</ele><time>2026-03-27T09:10:25.328Z</time></trkpt><trkpt lat="40.7857233" lon="9.5170311"><ele>248.0</ele><time>2026-03-27T09:10:26.315Z</time></trkpt><trkpt lat="40.7856256" lon="9.5169879"><ele>247.0</ele><time>2026-03-27T09:10:27.312Z</time></trkpt><trkpt lat="40.7855278" lon="9.5169423"><ele>247.0</ele><time>2026-03-27T09:10:28.317Z</time></trkpt><trkpt lat="40.7854316" lon="9.5168902"><ele>247.0</ele><time>2026-03-27T09:10:29.316Z</time></trkpt><trkpt lat="40.7853343" lon="9.5168339"><ele>247.0</ele><time>2026-03-27T09:10:30.317Z</time></trkpt><trkpt lat="40.785237" lon="9.5167741"><ele>247.0</ele><time>2026-03-27T09:10:31.31Z</time></trkpt><trkpt lat="40.7851378" lon="9.51671"><ele>247.0</ele><time>2026-03-27T09:10:32.316Z</time></trkpt><trkpt lat="40.7850348" lon="9.5166452"><ele>244.5</ele><time>2026-03-27T09:10:33.313Z</time></trkpt><trkpt lat="40.7849276" lon="9.5165638"><ele>242.0</ele><time>2026-03-27T09:10:34.315Z</time></trkpt><trkpt lat="40.7848228" lon="9.5164793"><ele>239.5</ele><time>2026-03-27T09:10:35.316Z</time></trkpt><trkpt lat="40.7847264" lon="9.5164075"><ele>237.0</ele><time>2026-03-27T09:10:36.316Z</time></trkpt><trkpt lat="40.784635" lon="9.516341"><ele>237.0</ele><time>2026-03-27T09:10:37.317Z</time></trkpt><trkpt lat="40.7845486" lon="9.5162826"><ele>237.0</ele><time>2026-03-27T09:10:38.315Z</time></trkpt><trkpt lat="40.7844701" lon="9.5162249"><ele>237.0</ele><time>2026-03-27T09:10:39.313Z</time></trkpt><trkpt lat="40.7843988" lon="9.5161727"><ele>237.0</ele><time>2026-03-27T09:10:40.308Z</time></trkpt><trkpt lat="40.7843388" lon="9.5161315"><ele>237.0</ele><time>2026-03-27T09:10:41.316Z</time></trkpt><trkpt lat="40.7842834" lon="9.516081"><ele>237.0</ele><time>2026-03-27T09:10:43.314Z</time></trkpt><trkpt lat="40.7843816" lon="9.5160824"><ele>237.0</ele><time>2026-03-27T09:10:47.321Z</time></trkpt><trkpt lat="40.7844931" lon="9.5161379"><ele>237.0</ele><time>2026-03-27T09:10:49.317Z</time></trkpt><trkpt lat="40.7845706" lon="9.5161801"><ele>237.0</ele><time>2026-03-27T09:10:50.313Z</time></trkpt><trkpt lat="40.7846405" lon="9.5162259"><ele>237.0</ele><time>2026-03-27T09:10:51.315Z</time></trkpt><trkpt lat="40.7847441" lon="9.5162916"><ele>237.0</ele><time>2026-03-27T09:11:00.319Z</time></trkpt><trkpt lat="40.7848438" lon="9.516311"><ele>237.0</ele><time>2026-03-27T09:11:09.32Z</time></trkpt><trkpt lat="40.7849621" lon="9.5163381"><ele>237.0</ele><time>2026-03-27T09:11:11.316Z</time></trkpt><trkpt lat="40.785029" lon="9.5163614"><ele>237.0</ele><time>2026-03-27T09:11:12.321Z</time></trkpt><trkpt lat="40.7851282" lon="9.5164246"><ele>237.0</ele><time>2026-03-27T09:11:14.314Z</time></trkpt><trkpt lat="40.7852062" lon="9.5164102"><ele>237.0</ele><time>2026-03-27T09:11:17.323Z</time></trkpt><trkpt lat="40.78512" lon="9.5163777"><ele>237.0</ele><time>2026-03-27T09:11:21.323Z</time></trkpt><trkpt lat="40.785026" lon="9.516351"><ele>237.0</ele><time>2026-03-27T09:11:23.328Z</time></trkpt><trkpt lat="40.7848871" lon="9.5162921"><ele>237.0</ele><time>2026-03-27T09:11:25.33Z</time></trkpt><trkpt lat="40.7848007" lon="9.5162678"><ele>237.0</ele><time>2026-03-27T09:11:26.316Z</time></trkpt><trkpt lat="40.7847279" lon="9.5162431"><ele>237.0</ele><time>2026-03-27T09:11:27.308Z</time></trkpt><trkpt lat="40.7846534" lon="9.5162003"><ele>237.5</ele><time>2026-03-27T09:11:28.312Z</time></trkpt><trkpt lat="40.7845818" lon="9.5161437"><ele>238.0</ele><time>2026-03-27T09:11:29.314Z</time></trkpt><trkpt lat="40.7844952" lon="9.5161024"><ele>238.5</ele><time>2026-03-27T09:11:30.313Z</time></trkpt><trkpt lat="40.7844236" lon="9.5160783"><ele>239.0</ele><time>2026-03-27T09:11:31.313Z</time></trkpt><trkpt lat="40.7843601" lon="9.5160605"><ele>239.5</ele><time>2026-03-27T09:11:32.319Z</time></trkpt><trkpt lat="40.7842475" lon="9.5160514"><ele>240.0</ele><time>2026-03-27T09:11:34.32Z</time></trkpt><trkpt lat="40.7841672" lon="9.5160423"><ele>240.0</ele><time>2026-03-27T09:11:35.313Z</time></trkpt><trkpt lat="40.7840699" lon="9.5160026"><ele>240.0</ele><time>2026-03-27T09:11:36.32Z</time></trkpt><trkpt lat="40.7839656" lon="9.5159484"><ele>240.0</ele><time>2026-03-27T09:11:37.317Z</time></trkpt><trkpt lat="40.7838544" lon="9.5158915"><ele>240.0</ele><time>2026-03-27T09:11:38.326Z</time></trkpt><trkpt lat="40.783732" lon="9.5158406"><ele>240.0</ele><time>2026-03-27T09:11:39.313Z</time></trkpt><trkpt lat="40.783605" lon="9.5157961"><ele>240.0</ele><time>2026-03-27T09:11:40.318Z</time></trkpt><trkpt lat="40.7834699" lon="9.5157569"><ele>240.0</ele><time>2026-03-27T09:11:41.316Z</time></trkpt><trkpt lat="40.7833306" lon="9.5157263"><ele>240.0</ele><time>2026-03-27T09:11:42.32Z</time></trkpt><trkpt lat="40.7831812" lon="9.5156987"><ele>235.0</ele><time>2026-03-27T09:11:43.319Z</time></trkpt><trkpt lat="40.7830218" lon="9.5156728"><ele>230.0</ele><time>2026-03-27T09:11:44.33Z</time></trkpt><trkpt lat="40.7828579" lon="9.5156541"><ele>225.0</ele><time>2026-03-27T09:11:45.317Z</time></trkpt><trkpt lat="40.7827009" lon="9.5156411"><ele>223.0</ele><time>2026-03-27T09:11:46.317Z</time></trkpt><trkpt lat="40.7825419" lon="9.5156351"><ele>221.0</ele><time>2026-03-27T09:11:47.32Z</time></trkpt><trkpt lat="40.7823731" lon="9.5156397"><ele>219.0</ele><time>2026-03-27T09:11:48.323Z</time></trkpt><trkpt lat="40.7821957" lon="9.515655"><ele>219.0</ele><time>2026-03-27T09:11:49.32Z</time></trkpt><trkpt lat="40.7820265" lon="9.5156785"><ele>219.0</ele><time>2026-03-27T09:11:50.318Z</time></trkpt><trkpt lat="40.7818576" lon="9.5157098"><ele>219.0</ele><time>2026-03-27T09:11:51.316Z</time></trkpt><trkpt lat="40.7816797" lon="9.5157553"><ele>216.66666666666669</ele><time>2026-03-27T09:11:52.325Z</time></trkpt><trkpt lat="40.7814969" lon="9.5158132"><ele>214.33333333333334</ele><time>2026-03-27T09:11:53.319Z</time></trkpt><trkpt lat="40.7813121" lon="9.5158814"><ele>212.0</ele><time>2026-03-27T09:11:54.318Z</time></trkpt><trkpt lat="40.7811265" lon="9.5159558"><ele>208.66666666666669</ele><time>2026-03-27T09:11:55.313Z</time></trkpt><trkpt lat="40.7809385" lon="9.5160339"><ele>205.33333333333331</ele><time>2026-03-27T09:11:56.323Z</time></trkpt><trkpt lat="40.7807497" lon="9.5161165"><ele>202.0</ele><time>2026-03-27T09:11:57.315Z</time></trkpt><trkpt lat="40.7805607" lon="9.516201"><ele>201.33333333333331</ele><time>2026-03-27T09:11:58.32Z</time></trkpt><trkpt lat="40.7803687" lon="9.5162855"><ele>200.66666666666669</ele><time>2026-03-27T09:11:59.324Z</time></trkpt><trkpt lat="40.7801771" lon="9.5163712"><ele>200.0</ele><time>2026-03-27T09:12:00.316Z</time></trkpt><trkpt lat="40.7799838" lon="9.5164577"><ele>197.0</ele><time>2026-03-27T09:12:01.325Z</time></trkpt><trkpt lat="40.7797874" lon="9.5165442"><ele>194.0</ele><time>2026-03-27T09:12:02.316Z</time></trkpt><trkpt lat="40.7795891" lon="9.516631"><ele>191.0</ele><time>2026-03-27T09:12:03.32Z</time></trkpt><trkpt lat="40.7793909" lon="9.5167165"><ele>189.0</ele><time>2026-03-27T09:12:04.319Z</time></trkpt><trkpt lat="40.7791919" lon="9.5168023"><ele>187.0</ele><time>2026-03-27T09:12:05.316Z</time></trkpt><trkpt lat="40.7789948" lon="9.5168891"><ele>185.0</ele><time>2026-03-27T09:12:06.32Z</time></trkpt><trkpt lat="40.7787982" lon="9.5169767"><ele>185.0</ele><time>2026-03-27T09:12:07.312Z</time></trkpt><trkpt lat="40.7786023" lon="9.5170671"><ele>185.0</ele><time>2026-03-27T09:12:08.319Z</time></trkpt><trkpt lat="40.7784098" lon="9.5171593"><ele>185.0</ele><time>2026-03-27T09:12:09.323Z</time></trkpt><trkpt lat="40.778217" lon="9.517252"><ele>187.33333333333331</ele><time>2026-03-27T09:12:10.321Z</time></trkpt><trkpt lat="40.7780241" lon="9.5173447"><ele>189.66666666666666</ele><time>2026-03-27T09:12:11.318Z</time></trkpt><trkpt lat="40.7778307" lon="9.517436"><ele>192.0</ele><time>2026-03-27T09:12:12.317Z</time></trkpt><trkpt lat="40.7776418" lon="9.5175268"><ele>194.33333333333331</ele><time>2026-03-27T09:12:13.312Z</time></trkpt><trkpt lat="40.7774655" lon="9.517617"><ele>196.66666666666666</ele><time>2026-03-27T09:12:14.316Z</time></trkpt><trkpt lat="40.7773001" lon="9.5177049"><ele>199.0</ele><time>2026-03-27T09:12:15.312Z</time></trkpt><trkpt lat="40.7771439" lon="9.5177876"><ele>199.0</ele><time>2026-03-27T09:12:16.314Z</time></trkpt><trkpt lat="40.7769932" lon="9.5178645"><ele>199.0</ele><time>2026-03-27T09:12:17.313Z</time></trkpt><trkpt lat="40.7768393" lon="9.5179465"><ele>199.0</ele><time>2026-03-27T09:12:18.313Z</time></trkpt><trkpt lat="40.7766831" lon="9.5180352"><ele>197.0</ele><time>2026-03-27T09:12:19.309Z</time></trkpt><trkpt lat="40.7765236" lon="9.5181248"><ele>195.0</ele><time>2026-03-27T09:12:20.318Z</time></trkpt><trkpt lat="40.7763596" lon="9.5182131"><ele>193.0</ele><time>2026-03-27T09:12:21.321Z</time></trkpt><trkpt lat="40.7761931" lon="9.5183027"><ele>193.0</ele><time>2026-03-27T09:12:22.316Z</time></trkpt><trkpt lat="40.7760238" lon="9.5183902"><ele>193.0</ele><time>2026-03-27T09:12:23.312Z</time></trkpt><trkpt lat="40.7758563" lon="9.5184812"><ele>193.0</ele><time>2026-03-27T09:12:24.316Z</time></trkpt><trkpt lat="40.7756855" lon="9.5185696"><ele>192.33333333333331</ele><time>2026-03-27T09:12:25.321Z</time></trkpt><trkpt lat="40.775515" lon="9.5186638"><ele>191.66666666666666</ele><time>2026-03-27T09:12:26.313Z</time></trkpt><trkpt lat="40.7753462" lon="9.5187674"><ele>191.0</ele><time>2026-03-27T09:12:27.317Z</time></trkpt><trkpt lat="40.7751806" lon="9.5188717"><ele>190.33333333333331</ele><time>2026-03-27T09:12:28.32Z</time></trkpt><trkpt lat="40.7750144" lon="9.5189784"><ele>189.66666666666666</ele><time>2026-03-27T09:12:29.314Z</time></trkpt><trkpt lat="40.774848" lon="9.5190878"><ele>189.0</ele><time>2026-03-27T09:12:30.319Z</time></trkpt><trkpt lat="40.7746794" lon="9.5191968"><ele>189.0</ele><time>2026-03-27T09:12:31.316Z</time></trkpt><trkpt lat="40.7745082" lon="9.5193059"><ele>189.0</ele><time>2026-03-27T09:12:32.314Z</time></trkpt><trkpt lat="40.7743355" lon="9.5194176"><ele>189.0</ele><time>2026-03-27T09:12:33.324Z</time></trkpt><trkpt lat="40.7741594" lon="9.5195248"><ele>189.33333333333334</ele><time>2026-03-27T09:12:34.316Z</time></trkpt><trkpt lat="40.7739777" lon="9.5196234"><ele>189.66666666666669</ele><time>2026-03-27T09:12:35.315Z</time></trkpt><trkpt lat="40.7737944" lon="9.5197154"><ele>190.0</ele><time>2026-03-27T09:12:36.313Z</time></trkpt><trkpt lat="40.7735999" lon="9.5197873"><ele>189.33333333333334</ele><time>2026-03-27T09:12:37.313Z</time></trkpt><trkpt lat="40.7734031" lon="9.5198476"><ele>188.66666666666666</ele><time>2026-03-27T09:12:38.314Z</time></trkpt><trkpt lat="40.7732025" lon="9.5198891"><ele>188.0</ele><time>2026-03-27T09:12:39.313Z</time></trkpt><trkpt lat="40.7729986" lon="9.5199145"><ele>188.0</ele><time>2026-03-27T09:12:40.326Z</time></trkpt><trkpt lat="40.7727981" lon="9.5199326"><ele>188.0</ele><time>2026-03-27T09:12:41.319Z</time></trkpt><trkpt lat="40.7726002" lon="9.5199518"><ele>188.0</ele><time>2026-03-27T09:12:42.316Z</time></trkpt><trkpt lat="40.7724102" lon="9.5199818"><ele>188.33333333333331</ele><time>2026-03-27T09:12:43.315Z</time></trkpt><trkpt lat="40.7722274" lon="9.5200305"><ele>188.66666666666666</ele><time>2026-03-27T09:12:44.315Z</time></trkpt><trkpt lat="40.772052" lon="9.5200957"><ele>189.0</ele><time>2026-03-27T09:12:45.32Z</time></trkpt><trkpt lat="40.7718952" lon="9.5201656"><ele>188.25</ele><time>2026-03-27T09:12:46.317Z</time></trkpt><trkpt lat="40.7717573" lon="9.5202308"><ele>187.5</ele><time>2026-03-27T09:12:47.316Z</time></trkpt><trkpt lat="40.7716256" lon="9.5202936"><ele>186.75</ele><time>2026-03-27T09:12:48.319Z</time></trkpt><trkpt lat="40.7715043" lon="9.5203495"><ele>186.0</ele><time>2026-03-27T09:12:49.314Z</time></trkpt><trkpt lat="40.7713797" lon="9.520417"><ele>185.0</ele><time>2026-03-27T09:12:50.315Z</time></trkpt><trkpt lat="40.7712636" lon="9.5204699"><ele>184.0</ele><time>2026-03-27T09:12:51.326Z</time></trkpt><trkpt lat="40.7711446" lon="9.5205305"><ele>183.0</ele><time>2026-03-27T09:12:52.315Z</time></trkpt><trkpt lat="40.7710329" lon="9.5206031"><ele>182.0</ele><time>2026-03-27T09:12:53.334Z</time></trkpt><trkpt lat="40.7709314" lon="9.5206785"><ele>181.39999999999998</ele><time>2026-03-27T09:12:54.312Z</time></trkpt><trkpt lat="40.7708378" lon="9.5207499"><ele>180.79999999999998</ele><time>2026-03-27T09:12:55.32Z</time></trkpt><trkpt lat="40.7707502" lon="9.5208231"><ele>180.2</ele><time>2026-03-27T09:12:56.317Z</time></trkpt><trkpt lat="40.7706577" lon="9.5208878"><ele>179.6</ele><time>2026-03-27T09:12:57.325Z</time></trkpt><trkpt lat="40.7705649" lon="9.5209447"><ele>179.0</ele><time>2026-03-27T09:12:58.32Z</time></trkpt><trkpt lat="40.7704611" lon="9.5209991"><ele>179.0</ele><time>2026-03-27T09:12:59.319Z</time></trkpt><trkpt lat="40.7703497" lon="9.5210526"><ele>179.0</ele><time>2026-03-27T09:13:00.317Z</time></trkpt><trkpt lat="40.7702297" lon="9.521106"><ele>179.0</ele><time>2026-03-27T09:13:01.318Z</time></trkpt><trkpt lat="40.7701022" lon="9.5211608"><ele>179.0</ele><time>2026-03-27T09:13:02.32Z</time></trkpt><trkpt lat="40.7699739" lon="9.5212207"><ele>177.5</ele><time>2026-03-27T09:13:03.316Z</time></trkpt><trkpt lat="40.7698465" lon="9.5212907"><ele>176.0</ele><time>2026-03-27T09:13:04.316Z</time></trkpt><trkpt lat="40.7697255" lon="9.5213707"><ele>174.5</ele><time>2026-03-27T09:13:05.32Z</time></trkpt><trkpt lat="40.7696112" lon="9.5214523"><ele>173.0</ele><time>2026-03-27T09:13:06.32Z</time></trkpt><trkpt lat="40.7695038" lon="9.521532"><ele>173.0</ele><time>2026-03-27T09:13:07.321Z</time></trkpt><trkpt lat="40.7693999" lon="9.5216023"><ele>173.0</ele><time>2026-03-27T09:13:08.322Z</time></trkpt><trkpt lat="40.7693022" lon="9.5216637"><ele>173.0</ele><time>2026-03-27T09:13:09.319Z</time></trkpt><trkpt lat="40.7692077" lon="9.5217141"><ele>173.0</ele><time>2026-03-27T09:13:10.323Z</time></trkpt><trkpt lat="40.7691207" lon="9.5217583"><ele>173.0</ele><time>2026-03-27T09:13:11.318Z</time></trkpt><trkpt lat="40.7690413" lon="9.521795"><ele>173.0</ele><time>2026-03-27T09:13:12.321Z</time></trkpt><trkpt lat="40.7689699" lon="9.5218243"><ele>173.0</ele><time>2026-03-27T09:13:13.32Z</time></trkpt><trkpt lat="40.7689088" lon="9.5218506"><ele>173.0</ele><time>2026-03-27T09:13:14.324Z</time></trkpt><trkpt lat="40.7688032" lon="9.5218914"><ele>173.0</ele><time>2026-03-27T09:13:16.325Z</time></trkpt><trkpt lat="40.7686971" lon="9.5219234"><ele>173.0</ele><time>2026-03-27T09:13:18.316Z</time></trkpt><trkpt lat="40.7685664" lon="9.5219192"><ele>171.83333333333331</ele><time>2026-03-27T09:13:20.316Z</time></trkpt><trkpt lat="40.7684998" lon="9.5219097"><ele>170.66666666666666</ele><time>2026-03-27T09:13:21.312Z</time></trkpt><trkpt lat="40.7684171" lon="9.5218769"><ele>169.5</ele><time>2026-03-27T09:13:22.316Z</time></trkpt><trkpt lat="40.7683349" lon="9.5218443"><ele>168.33333333333334</ele><time>2026-03-27T09:13:23.322Z</time></trkpt><trkpt lat="40.7682592" lon="9.5218026"><ele>167.16666666666669</ele><time>2026-03-27T09:13:24.321Z</time></trkpt><trkpt lat="40.7681908" lon="9.5217712"><ele>166.0</ele><time>2026-03-27T09:13:25.315Z</time></trkpt><trkpt lat="40.7681274" lon="9.5217516"><ele>166.0</ele><time>2026-03-27T09:13:26.318Z</time></trkpt><trkpt lat="40.7680256" lon="9.5216775"><ele>166.0</ele><time>2026-03-27T09:13:28.317Z</time></trkpt><trkpt lat="40.7679745" lon="9.5216272"><ele>166.0</ele><time>2026-03-27T09:13:29.322Z</time></trkpt><trkpt lat="40.7678846" lon="9.5215132"><ele>166.0</ele><time>2026-03-27T09:13:31.315Z</time></trkpt><trkpt lat="40.7678226" lon="9.5214494"><ele>166.0</ele><time>2026-03-27T09:13:32.319Z</time></trkpt><trkpt lat="40.7677676" lon="9.5213816"><ele>166.0</ele><time>2026-03-27T09:13:33.314Z</time></trkpt><trkpt lat="40.7677019" lon="9.5213198"><ele>166.0</ele><time>2026-03-27T09:13:34.316Z</time></trkpt><trkpt lat="40.7676175" lon="9.5212565"><ele>166.0</ele><time>2026-03-27T09:13:35.318Z</time></trkpt><trkpt lat="40.7675157" lon="9.5211876"><ele>166.0</ele><time>2026-03-27T09:13:36.317Z</time></trkpt><trkpt lat="40.7674144" lon="9.5211093"><ele>166.0</ele><time>2026-03-27T09:13:37.321Z</time></trkpt><trkpt lat="40.7673015" lon="9.5210421"><ele>164.75</ele><time>2026-03-27T09:13:38.318Z</time></trkpt><trkpt lat="40.7671805" lon="9.5209967"><ele>163.5</ele><time>2026-03-27T09:13:39.329Z</time></trkpt><trkpt lat="40.7670601" lon="9.5209716"><ele>162.25</ele><time>2026-03-27T09:13:40.316Z</time></trkpt><trkpt lat="40.7669384" lon="9.5209537"><ele>161.0</ele><time>2026-03-27T09:13:41.32Z</time></trkpt><trkpt lat="40.7668119" lon="9.5209643"><ele>161.0</ele><time>2026-03-27T09:13:42.316Z</time></trkpt><trkpt lat="40.7666847" lon="9.5209741"><ele>161.0</ele><time>2026-03-27T09:13:43.315Z</time></trkpt><trkpt lat="40.76657" lon="9.5209953"><ele>161.0</ele><time>2026-03-27T09:13:44.32Z</time></trkpt><trkpt lat="40.766466" lon="9.5210132"><ele>161.0</ele><time>2026-03-27T09:13:45.317Z</time></trkpt><trkpt lat="40.7663697" lon="9.521029"><ele>161.0</ele><time>2026-03-27T09:13:46.319Z</time></trkpt><trkpt lat="40.766287" lon="9.521035"><ele>161.0</ele><time>2026-03-27T09:13:47.318Z</time></trkpt><trkpt lat="40.7662049" lon="9.5210483"><ele>161.0</ele><time>2026-03-27T09:13:48.317Z</time></trkpt><trkpt lat="40.7661317" lon="9.5210529"><ele>161.0</ele><time>2026-03-27T09:13:49.319Z</time></trkpt><trkpt lat="40.7660688" lon="9.521049"><ele>161.0</ele><time>2026-03-27T09:13:50.317Z</time></trkpt><trkpt lat="40.7660014" lon="9.5210716"><ele>161.0</ele><time>2026-03-27T09:13:51.314Z</time></trkpt><trkpt lat="40.7658873" lon="9.5210742"><ele>161.0</ele><time>2026-03-27T09:13:53.319Z</time></trkpt><trkpt lat="40.7657947" lon="9.5210901"><ele>161.4</ele><time>2026-03-27T09:13:55.317Z</time></trkpt><trkpt lat="40.7657053" lon="9.5210935"><ele>161.8</ele><time>2026-03-27T09:13:57.317Z</time></trkpt><trkpt lat="40.7656423" lon="9.5210106"><ele>162.20000000000002</ele><time>2026-03-27T09:13:59.319Z</time></trkpt><trkpt lat="40.7655855" lon="9.5208871"><ele>162.60000000000002</ele><time>2026-03-27T09:14:01.32Z</time></trkpt><trkpt lat="40.765523" lon="9.5207764"><ele>163.0</ele><time>2026-03-27T09:14:03.318Z</time></trkpt><trkpt lat="40.7654595" lon="9.5206846"><ele>163.0</ele><time>2026-03-27T09:14:05.312Z</time></trkpt><trkpt lat="40.765426" lon="9.5205386"><ele>163.0</ele><time>2026-03-27T09:14:07.313Z</time></trkpt><trkpt lat="40.7654187" lon="9.5204528"><ele>163.0</ele><time>2026-03-27T09:14:08.309Z</time></trkpt><trkpt lat="40.7654106" lon="9.5203522"><ele>163.0</ele><time>2026-03-27T09:14:09.315Z</time></trkpt><trkpt lat="40.7653985" lon="9.5202443"><ele>163.0</ele><time>2026-03-27T09:14:10.317Z</time></trkpt><trkpt lat="40.7653793" lon="9.520137"><ele>163.0</ele><time>2026-03-27T09:14:11.319Z</time></trkpt><trkpt lat="40.7653527" lon="9.5200287"><ele>164.0</ele><time>2026-03-27T09:14:12.317Z</time></trkpt><trkpt lat="40.765322" lon="9.5199155"><ele>165.0</ele><time>2026-03-27T09:14:13.314Z</time></trkpt><trkpt lat="40.7652937" lon="9.5198138"><ele>166.0</ele><time>2026-03-27T09:14:14.318Z</time></trkpt><trkpt lat="40.7652697" lon="9.5197319"><ele>167.0</ele><time>2026-03-27T09:14:15.314Z</time></trkpt><trkpt lat="40.7652269" lon="9.51961"><ele>168.0</ele><time>2026-03-27T09:14:17.316Z</time></trkpt><trkpt lat="40.7651794" lon="9.5194808"><ele>168.5</ele><time>2026-03-27T09:14:19.318Z</time></trkpt><trkpt lat="40.7651296" lon="9.5194148"><ele>169.0</ele><time>2026-03-27T09:14:20.311Z</time></trkpt><trkpt lat="40.7650687" lon="9.5193263"><ele>169.5</ele><time>2026-03-27T09:14:21.32Z</time></trkpt><trkpt lat="40.7649922" lon="9.5192453"><ele>170.0</ele><time>2026-03-27T09:14:22.32Z</time></trkpt><trkpt lat="40.764917" lon="9.5191763"><ele>170.5</ele><time>2026-03-27T09:14:23.315Z</time></trkpt><trkpt lat="40.7648402" lon="9.5191044"><ele>171.0</ele><time>2026-03-27T09:14:24.315Z</time></trkpt><trkpt lat="40.7647684" lon="9.5190308"><ele>171.0</ele><time>2026-03-27T09:14:25.314Z</time></trkpt><trkpt lat="40.7646966" lon="9.5189627"><ele>171.0</ele><time>2026-03-27T09:14:26.318Z</time></trkpt><trkpt lat="40.7646196" lon="9.5189138"><ele>171.0</ele><time>2026-03-27T09:14:27.319Z</time></trkpt><trkpt lat="40.7645394" lon="9.5188835"><ele>171.0</ele><time>2026-03-27T09:14:28.312Z</time></trkpt><trkpt lat="40.7644582" lon="9.518866"><ele>171.0</ele><time>2026-03-27T09:14:29.321Z</time></trkpt><trkpt lat="40.7643731" lon="9.5188569"><ele>171.0</ele><time>2026-03-27T09:14:30.312Z</time></trkpt><trkpt lat="40.7642795" lon="9.5188491"><ele>170.16666666666666</ele><time>2026-03-27T09:14:31.317Z</time></trkpt><trkpt lat="40.7641876" lon="9.5188415"><ele>169.33333333333334</ele><time>2026-03-27T09:14:32.316Z</time></trkpt><trkpt lat="40.7640967" lon="9.5188352"><ele>168.5</ele><time>2026-03-27T09:14:33.324Z</time></trkpt><trkpt lat="40.7640079" lon="9.5188279"><ele>167.66666666666669</ele><time>2026-03-27T09:14:34.315Z</time></trkpt><trkpt lat="40.7639215" lon="9.518812"><ele>166.83333333333334</ele><time>2026-03-27T09:14:35.322Z</time></trkpt><trkpt lat="40.7638422" lon="9.5187855"><ele>166.0</ele><time>2026-03-27T09:14:36.314Z</time></trkpt><trkpt lat="40.7637692" lon="9.5187514"><ele>166.42857142857142</ele><time>2026-03-27T09:14:37.313Z</time></trkpt><trkpt lat="40.7637051" lon="9.5187179"><ele>166.85714285714286</ele><time>2026-03-27T09:14:38.313Z</time></trkpt><trkpt lat="40.7636435" lon="9.5186834"><ele>167.28571428571428</ele><time>2026-03-27T09:14:39.313Z</time></trkpt><trkpt lat="40.7635776" lon="9.5186502"><ele>167.71428571428572</ele><time>2026-03-27T09:14:40.316Z</time></trkpt><trkpt lat="40.7635135" lon="9.5186188"><ele>168.14285714285714</ele><time>2026-03-27T09:14:41.313Z</time></trkpt><trkpt lat="40.7634517" lon="9.5185943"><ele>168.57142857142858</ele><time>2026-03-27T09:14:42.313Z</time></trkpt><trkpt lat="40.7633936" lon="9.5185612"><ele>169.0</ele><time>2026-03-27T09:14:43.313Z</time></trkpt><trkpt lat="40.7633295" lon="9.5185233"><ele>169.0</ele><time>2026-03-27T09:14:44.323Z</time></trkpt><trkpt lat="40.763264" lon="9.5184809"><ele>169.0</ele><time>2026-03-27T09:14:45.316Z</time></trkpt><trkpt lat="40.7632065" lon="9.5184453"><ele>169.0</ele><time>2026-03-27T09:14:46.314Z</time></trkpt><trkpt lat="40.7631057" lon="9.5183877"><ele>169.0</ele><time>2026-03-27T09:14:48.316Z</time></trkpt><trkpt lat="40.7630156" lon="9.5183476"><ele>169.0</ele><time>2026-03-27T09:14:50.315Z</time></trkpt><trkpt lat="40.7629097" lon="9.518298"><ele>169.0</ele><time>2026-03-27T09:14:52.318Z</time></trkpt><trkpt lat="40.7628493" lon="9.5182656"><ele>169.0</ele><time>2026-03-27T09:14:53.316Z</time></trkpt><trkpt lat="40.7627555" lon="9.518198"><ele>169.0</ele><time>2026-03-27T09:14:55.323Z</time></trkpt><trkpt lat="40.7626907" lon="9.5181786"><ele>169.0</ele><time>2026-03-27T09:14:57.316Z</time></trkpt><trkpt lat="40.7626804" lon="9.5182658"><ele>169.0</ele><time>2026-03-27T09:15:00.318Z</time></trkpt><trkpt lat="40.7627781" lon="9.5182778"><ele>169.0</ele><time>2026-03-27T09:15:03.319Z</time></trkpt><trkpt lat="40.7629182" lon="9.5183227"><ele>169.0</ele><time>2026-03-27T09:15:05.319Z</time></trkpt><trkpt lat="40.7630093" lon="9.5183665"><ele>169.0</ele><time>2026-03-27T09:15:06.317Z</time></trkpt><trkpt lat="40.7631048" lon="9.5184156"><ele>169.0</ele><time>2026-03-27T09:15:07.32Z</time></trkpt><trkpt lat="40.7632001" lon="9.518464"><ele>169.0</ele><time>2026-03-27T09:15:08.317Z</time></trkpt><trkpt lat="40.7632939" lon="9.5185172"><ele>169.0</ele><time>2026-03-27T09:15:09.321Z</time></trkpt><trkpt lat="40.7633857" lon="9.5185679"><ele>169.0</ele><time>2026-03-27T09:15:10.317Z</time></trkpt><trkpt lat="40.7634764" lon="9.5186156"><ele>169.0</ele><time>2026-03-27T09:15:11.319Z</time></trkpt><trkpt lat="40.763576" lon="9.5186641"><ele>169.0</ele><time>2026-03-27T09:15:12.314Z</time></trkpt><trkpt lat="40.7636764" lon="9.5187204"><ele>169.0</ele><time>2026-03-27T09:15:13.323Z</time></trkpt><trkpt lat="40.7637773" lon="9.5187753"><ele>169.0</ele><time>2026-03-27T09:15:14.322Z</time></trkpt><trkpt lat="40.763885" lon="9.5188213"><ele>168.25</ele><time>2026-03-27T09:15:15.317Z</time></trkpt><trkpt lat="40.7639979" lon="9.5188503"><ele>167.5</ele><time>2026-03-27T09:15:16.318Z</time></trkpt><trkpt lat="40.7641176" lon="9.5188691"><ele>166.75</ele><time>2026-03-27T09:15:17.32Z</time></trkpt><trkpt lat="40.7642368" lon="9.518885"><ele>166.0</ele><time>2026-03-27T09:15:18.316Z</time></trkpt><trkpt lat="40.7643437" lon="9.5188963"><ele>166.83333333333334</ele><time>2026-03-27T09:15:19.318Z</time></trkpt><trkpt lat="40.7644288" lon="9.5188987"><ele>167.66666666666669</ele><time>2026-03-27T09:15:20.316Z</time></trkpt><trkpt lat="40.764519" lon="9.5188527"><ele>168.5</ele><time>2026-03-27T09:15:22.318Z</time></trkpt><trkpt lat="40.7645254" lon="9.5187294"><ele>169.33333333333334</ele><time>2026-03-27T09:15:24.323Z</time></trkpt><trkpt lat="40.764517" lon="9.5186405"><ele>170.16666666666666</ele><time>2026-03-27T09:15:25.324Z</time></trkpt><trkpt lat="40.7644879" lon="9.51852"><ele>171.0</ele><time>2026-03-27T09:15:26.321Z</time></trkpt><trkpt lat="40.7644532" lon="9.5183824"><ele>171.0</ele><time>2026-03-27T09:15:27.316Z</time></trkpt><trkpt lat="40.7644122" lon="9.5182294"><ele>171.0</ele><time>2026-03-27T09:15:28.316Z</time></trkpt><trkpt lat="40.7643694" lon="9.5180656"><ele>171.0</ele><time>2026-03-27T09:15:29.315Z</time></trkpt><trkpt lat="40.7643221" lon="9.5179091"><ele>171.0</ele><time>2026-03-27T09:15:30.329Z</time></trkpt><trkpt lat="40.7642713" lon="9.5177507"><ele>171.75</ele><time>2026-03-27T09:15:31.319Z</time></trkpt><trkpt lat="40.7642157" lon="9.5175919"><ele>172.5</ele><time>2026-03-27T09:15:32.312Z</time></trkpt><trkpt lat="40.7641511" lon="9.5174297"><ele>173.25</ele><time>2026-03-27T09:15:33.323Z</time></trkpt><trkpt lat="40.7640866" lon="9.5172702"><ele>174.0</ele><time>2026-03-27T09:15:34.312Z</time></trkpt><trkpt lat="40.7640222" lon="9.5171113"><ele>174.25</ele><time>2026-03-27T09:15:35.317Z</time></trkpt><trkpt lat="40.7639622" lon="9.5169504"><ele>174.5</ele><time>2026-03-27T09:15:36.318Z</time></trkpt><trkpt lat="40.7639005" lon="9.516799"><ele>174.75</ele><time>2026-03-27T09:15:37.32Z</time></trkpt><trkpt lat="40.7638294" lon="9.5166649"><ele>175.0</ele><time>2026-03-27T09:15:38.322Z</time></trkpt><trkpt lat="40.7637625" lon="9.5165442"><ele>175.0</ele><time>2026-03-27T09:15:39.319Z</time></trkpt><trkpt lat="40.7636934" lon="9.5164507"><ele>175.0</ele><time>2026-03-27T09:15:40.329Z</time></trkpt><trkpt lat="40.7636123" lon="9.5163795"><ele>175.0</ele><time>2026-03-27T09:15:41.331Z</time></trkpt><trkpt lat="40.7635127" lon="9.5163295"><ele>175.0</ele><time>2026-03-27T09:15:42.346Z</time></trkpt><trkpt lat="40.763401" lon="9.5162716"><ele>175.0</ele><time>2026-03-27T09:15:43.321Z</time></trkpt><trkpt lat="40.7632679" lon="9.5162159"><ele>175.75</ele><time>2026-03-27T09:15:44.322Z</time></trkpt><trkpt lat="40.7631425" lon="9.516166"><ele>176.5</ele><time>2026-03-27T09:15:45.317Z</time></trkpt><trkpt lat="40.7630167" lon="9.5161065"><ele>177.25</ele><time>2026-03-27T09:15:46.318Z</time></trkpt><trkpt lat="40.7628893" lon="9.5160504"><ele>178.0</ele><time>2026-03-27T09:15:47.319Z</time></trkpt><trkpt lat="40.7627622" lon="9.516001"><ele>177.5</ele><time>2026-03-27T09:15:48.32Z</time></trkpt><trkpt lat="40.7626351" lon="9.5159561"><ele>177.0</ele><time>2026-03-27T09:15:49.314Z</time></trkpt><trkpt lat="40.7625038" lon="9.5159518"><ele>176.5</ele><time>2026-03-27T09:15:50.324Z</time></trkpt><trkpt lat="40.7623634" lon="9.5159522"><ele>176.0</ele><time>2026-03-27T09:15:51.319Z</time></trkpt><trkpt lat="40.762217" lon="9.515952"><ele>176.0</ele><time>2026-03-27T09:15:52.32Z</time></trkpt><trkpt lat="40.762063" lon="9.5159466"><ele>176.0</ele><time>2026-03-27T09:15:53.321Z</time></trkpt><trkpt lat="40.7619042" lon="9.5159436"><ele>176.0</ele><time>2026-03-27T09:15:54.321Z</time></trkpt><trkpt lat="40.761748" lon="9.5159541"><ele>177.0</ele><time>2026-03-27T09:15:55.322Z</time></trkpt><trkpt lat="40.7616019" lon="9.5159735"><ele>178.0</ele><time>2026-03-27T09:15:56.323Z</time></trkpt><trkpt lat="40.761471" lon="9.5159964"><ele>179.0</ele><time>2026-03-27T09:15:57.317Z</time></trkpt><trkpt lat="40.7613537" lon="9.516002"><ele>180.0</ele><time>2026-03-27T09:15:58.33Z</time></trkpt><trkpt lat="40.7612483" lon="9.5159954"><ele>180.0</ele><time>2026-03-27T09:15:59.327Z</time></trkpt><trkpt lat="40.7611586" lon="9.5159349"><ele>180.0</ele><time>2026-03-27T09:16:00.319Z</time></trkpt><trkpt lat="40.761072" lon="9.5158698"><ele>180.0</ele><time>2026-03-27T09:16:01.318Z</time></trkpt><trkpt lat="40.7609667" lon="9.5158"><ele>180.0</ele><time>2026-03-27T09:16:02.32Z</time></trkpt><trkpt lat="40.7608714" lon="9.5157214"><ele>180.0</ele><time>2026-03-27T09:16:03.32Z</time></trkpt><trkpt lat="40.7607819" lon="9.5156199"><ele>181.2</ele><time>2026-03-27T09:16:04.322Z</time></trkpt><trkpt lat="40.7607181" lon="9.5155076"><ele>182.4</ele><time>2026-03-27T09:16:05.321Z</time></trkpt><trkpt lat="40.7606885" lon="9.515383"><ele>183.60000000000002</ele><time>2026-03-27T09:16:06.324Z</time></trkpt><trkpt lat="40.7606943" lon="9.5152456"><ele>184.8</ele><time>2026-03-27T09:16:07.321Z</time></trkpt><trkpt lat="40.760711" lon="9.5151005"><ele>186.0</ele><time>2026-03-27T09:16:08.321Z</time></trkpt><trkpt lat="40.7607277" lon="9.5149439"><ele>187.0</ele><time>2026-03-27T09:16:09.329Z</time></trkpt><trkpt lat="40.7607396" lon="9.5147866"><ele>188.0</ele><time>2026-03-27T09:16:10.316Z</time></trkpt><trkpt lat="40.7607399" lon="9.5146424"><ele>189.0</ele><time>2026-03-27T09:16:11.32Z</time></trkpt><trkpt lat="40.7607252" lon="9.5145014"><ele>190.0</ele><time>2026-03-27T09:16:12.323Z</time></trkpt><trkpt lat="40.7606925" lon="9.5143562"><ele>190.75</ele><time>2026-03-27T09:16:13.316Z</time></trkpt><trkpt lat="40.7606491" lon="9.5142017"><ele>191.5</ele><time>2026-03-27T09:16:14.323Z</time></trkpt><trkpt lat="40.7605971" lon="9.514043"><ele>192.25</ele><time>2026-03-27T09:16:15.321Z</time></trkpt><trkpt lat="40.7605434" lon="9.5138905"><ele>193.0</ele><time>2026-03-27T09:16:16.32Z</time></trkpt><trkpt lat="40.7604873" lon="9.5137455"><ele>193.5</ele><time>2026-03-27T09:16:17.324Z</time></trkpt><trkpt lat="40.7604326" lon="9.5136068"><ele>194.0</ele><time>2026-03-27T09:16:18.321Z</time></trkpt><trkpt lat="40.7603793" lon="9.5134668"><ele>194.5</ele><time>2026-03-27T09:16:19.317Z</time></trkpt><trkpt lat="40.7603301" lon="9.513322"><ele>195.0</ele><time>2026-03-27T09:16:20.321Z</time></trkpt><trkpt lat="40.7602873" lon="9.5131709"><ele>195.0</ele><time>2026-03-27T09:16:21.318Z</time></trkpt><trkpt lat="40.7602523" lon="9.513012"><ele>195.0</ele><time>2026-03-27T09:16:22.32Z</time></trkpt><trkpt lat="40.7602258" lon="9.5128485"><ele>195.0</ele><time>2026-03-27T09:16:23.323Z</time></trkpt><trkpt lat="40.7602008" lon="9.512682"><ele>195.0</ele><time>2026-03-27T09:16:24.315Z</time></trkpt><trkpt lat="40.7601733" lon="9.5125205"><ele>197.0</ele><time>2026-03-27T09:16:25.325Z</time></trkpt><trkpt lat="40.7601443" lon="9.5123599"><ele>199.0</ele><time>2026-03-27T09:16:26.322Z</time></trkpt><trkpt lat="40.7600786" lon="9.512242"><ele>201.0</ele><time>2026-03-27T09:16:27.325Z</time></trkpt><trkpt lat="40.7600018" lon="9.5121478"><ele>203.0</ele><time>2026-03-27T09:16:28.32Z</time></trkpt><trkpt lat="40.7599086" lon="9.5120729"><ele>204.2</ele><time>2026-03-27T09:16:29.316Z</time></trkpt><trkpt lat="40.75982" lon="9.5120046"><ele>205.4</ele><time>2026-03-27T09:16:30.324Z</time></trkpt><trkpt lat="40.7597445" lon="9.51192"><ele>206.6</ele><time>2026-03-27T09:16:31.316Z</time></trkpt><trkpt lat="40.759685" lon="9.5118052"><ele>207.79999999999998</ele><time>2026-03-27T09:16:32.315Z</time></trkpt><trkpt lat="40.7596294" lon="9.5116729"><ele>209.0</ele><time>2026-03-27T09:16:33.316Z</time></trkpt><trkpt lat="40.7595907" lon="9.5115207"><ele>209.0</ele><time>2026-03-27T09:16:34.326Z</time></trkpt><trkpt lat="40.7595635" lon="9.511363"><ele>209.0</ele><time>2026-03-27T09:16:35.325Z</time></trkpt><trkpt lat="40.7595202" lon="9.5112141"><ele>209.0</ele><time>2026-03-27T09:16:36.327Z</time></trkpt><trkpt lat="40.7594626" lon="9.5110851"><ele>209.0</ele><time>2026-03-27T09:16:37.326Z</time></trkpt><trkpt lat="40.7593823" lon="9.5109793"><ele>210.25</ele><time>2026-03-27T09:16:38.32Z</time></trkpt><trkpt lat="40.7592842" lon="9.5109029"><ele>211.5</ele><time>2026-03-27T09:16:39.32Z</time></trkpt><trkpt lat="40.7591672" lon="9.5108488"><ele>212.75</ele><time>2026-03-27T09:16:40.318Z</time></trkpt><trkpt lat="40.7590533" lon="9.5107957"><ele>214.0</ele><time>2026-03-27T09:16:41.322Z</time></trkpt><trkpt lat="40.7589433" lon="9.5107314"><ele>214.0</ele><time>2026-03-27T09:16:42.315Z</time></trkpt><trkpt lat="40.7588592" lon="9.5106407"><ele>213.99999999999997</ele><time>2026-03-27T09:16:43.32Z</time></trkpt><trkpt lat="40.7587985" lon="9.5105467"><ele>213.99999999999997</ele><time>2026-03-27T09:16:44.319Z</time></trkpt><trkpt lat="40.758773" lon="9.5104649"><ele>214.0</ele><time>2026-03-27T09:16:45.317Z</time></trkpt><trkpt lat="40.7587997" lon="9.5103437"><ele>214.0</ele><time>2026-03-27T09:16:47.318Z</time></trkpt><trkpt lat="40.7587706" lon="9.5102034"><ele>215.2857142857143</ele><time>2026-03-27T09:16:49.316Z</time></trkpt><trkpt lat="40.7587508" lon="9.5101196"><ele>216.57142857142858</ele><time>2026-03-27T09:16:50.324Z</time></trkpt><trkpt lat="40.7587482" lon="9.5100124"><ele>217.85714285714286</ele><time>2026-03-27T09:16:51.323Z</time></trkpt><trkpt lat="40.7587573" lon="9.5099094"><ele>219.14285714285717</ele><time>2026-03-27T09:16:52.314Z</time></trkpt><trkpt lat="40.758791" lon="9.5098326"><ele>220.42857142857142</ele><time>2026-03-27T09:16:53.317Z</time></trkpt><trkpt lat="40.7588297" lon="9.5097646"><ele>221.71428571428572</ele><time>2026-03-27T09:16:54.319Z</time></trkpt><trkpt lat="40.7588702" lon="9.5096995"><ele>223.0</ele><time>2026-03-27T09:16:55.323Z</time></trkpt><trkpt lat="40.7589347" lon="9.5095756"><ele>224.2</ele><time>2026-03-27T09:16:57.315Z</time></trkpt><trkpt lat="40.7590198" lon="9.5094535"><ele>225.4</ele><time>2026-03-27T09:16:59.317Z</time></trkpt><trkpt lat="40.7590744" lon="9.5093727"><ele>226.59999999999997</ele><time>2026-03-27T09:17:00.325Z</time></trkpt><trkpt lat="40.7591269" lon="9.5092896"><ele>227.79999999999998</ele><time>2026-03-27T09:17:01.314Z</time></trkpt><trkpt lat="40.7591635" lon="9.5091773"><ele>229.0</ele><time>2026-03-27T09:17:02.315Z</time></trkpt><trkpt lat="40.759195" lon="9.5090591"><ele>228.99999999999997</ele><time>2026-03-27T09:17:03.323Z</time></trkpt><trkpt lat="40.7592155" lon="9.5089411"><ele>229.0</ele><time>2026-03-27T09:17:04.316Z</time></trkpt><trkpt lat="40.759229" lon="9.5088139"><ele>229.0</ele><time>2026-03-27T09:17:05.32Z</time></trkpt><trkpt lat="40.759232" lon="9.5086984"><ele>229.0</ele><time>2026-03-27T09:17:06.316Z</time></trkpt><trkpt lat="40.7592343" lon="9.5085836"><ele>228.99999999999997</ele><time>2026-03-27T09:17:07.318Z</time></trkpt><trkpt lat="40.7592327" lon="9.5084783"><ele>229.0</ele><time>2026-03-27T09:17:08.315Z</time></trkpt><trkpt lat="40.7592246" lon="9.508381"><ele>228.99999999999997</ele><time>2026-03-27T09:17:09.322Z</time></trkpt><trkpt lat="40.7592161" lon="9.5082972"><ele>229.0</ele><time>2026-03-27T09:17:10.319Z</time></trkpt><trkpt lat="40.7591985" lon="9.5081522"><ele>229.0</ele><time>2026-03-27T09:17:12.32Z</time></trkpt><trkpt lat="40.7592019" lon="9.508048"><ele>229.0</ele><time>2026-03-27T09:17:14.321Z</time></trkpt><trkpt lat="40.7592516" lon="9.5079632"><ele>228.99999999999997</ele><time>2026-03-27T09:17:16.325Z</time></trkpt><trkpt lat="40.7593201" lon="9.5078852"><ele>229.0</ele><time>2026-03-27T09:17:18.316Z</time></trkpt><trkpt lat="40.7594017" lon="9.5078108"><ele>231.2</ele><time>2026-03-27T09:17:20.324Z</time></trkpt><trkpt lat="40.7594929" lon="9.5077618"><ele>233.39999999999998</ele><time>2026-03-27T09:17:22.32Z</time></trkpt><trkpt lat="40.759589" lon="9.5077289"><ele>235.6</ele><time>2026-03-27T09:17:24.319Z</time></trkpt><trkpt lat="40.7596749" lon="9.5076606"><ele>237.8</ele><time>2026-03-27T09:17:26.317Z</time></trkpt><trkpt lat="40.7597346" lon="9.5075219"><ele>240.0</ele><time>2026-03-27T09:17:28.331Z</time></trkpt><trkpt lat="40.7597789" lon="9.5074335"><ele>240.0</ele><time>2026-03-27T09:17:29.32Z</time></trkpt><trkpt lat="40.759827" lon="9.5073489"><ele>240.0</ele><time>2026-03-27T09:17:30.318Z</time></trkpt><trkpt lat="40.759884" lon="9.507264"><ele>240.0</ele><time>2026-03-27T09:17:31.32Z</time></trkpt><trkpt lat="40.759942" lon="9.5071808"><ele>240.0</ele><time>2026-03-27T09:17:32.317Z</time></trkpt><trkpt lat="40.7599947" lon="9.5071119"><ele>240.0</ele><time>2026-03-27T09:17:33.318Z</time></trkpt><trkpt lat="40.7600268" lon="9.5069822"><ele>240.0</ele><time>2026-03-27T09:17:35.315Z</time></trkpt><trkpt lat="40.7599614" lon="9.5068598"><ele>241.16666666666666</ele><time>2026-03-27T09:17:37.317Z</time></trkpt><trkpt lat="40.7599015" lon="9.5067573"><ele>242.33333333333331</ele><time>2026-03-27T09:17:39.316Z</time></trkpt><trkpt lat="40.7598653" lon="9.5066477"><ele>243.5</ele><time>2026-03-27T09:17:41.322Z</time></trkpt><trkpt lat="40.7597919" lon="9.5065296"><ele>244.66666666666666</ele><time>2026-03-27T09:17:43.325Z</time></trkpt><trkpt lat="40.759738" lon="9.5064679"><ele>245.83333333333331</ele><time>2026-03-27T09:17:44.317Z</time></trkpt><trkpt lat="40.7596797" lon="9.5064293"><ele>247.0</ele><time>2026-03-27T09:17:45.317Z</time></trkpt><trkpt lat="40.7596001" lon="9.5064255"><ele>247.0</ele><time>2026-03-27T09:17:46.316Z</time></trkpt><trkpt lat="40.7595313" lon="9.5064133"><ele>247.0</ele><time>2026-03-27T09:17:47.312Z</time></trkpt><trkpt lat="40.7594451" lon="9.5063324"><ele>247.0</ele><time>2026-03-27T09:17:49.322Z</time></trkpt><trkpt lat="40.7593982" lon="9.5061904"><ele>247.0</ele><time>2026-03-27T09:17:51.319Z</time></trkpt><trkpt lat="40.7594575" lon="9.506128"><ele>247.0</ele><time>2026-03-27T09:17:53.324Z</time></trkpt><trkpt lat="40.759595" lon="9.5061045"><ele>252.0</ele><time>2026-03-27T09:17:55.317Z</time></trkpt><trkpt lat="40.7596802" lon="9.5060873"><ele>257.0</ele><time>2026-03-27T09:17:56.316Z</time></trkpt><trkpt lat="40.7597546" lon="9.5060245"><ele>262.0</ele><time>2026-03-27T09:17:58.314Z</time></trkpt><trkpt lat="40.7596971" lon="9.5059319"><ele>267.0</ele><time>2026-03-27T09:18:01.32Z</time></trkpt><trkpt lat="40.7595818" lon="9.5058716"><ele>272.0</ele><time>2026-03-27T09:18:03.317Z</time></trkpt><trkpt lat="40.7595191" lon="9.5058306"><ele>272.0</ele><time>2026-03-27T09:18:04.315Z</time></trkpt><trkpt lat="40.7594639" lon="9.5057542"><ele>272.0</ele><time>2026-03-27T09:18:05.32Z</time></trkpt><trkpt lat="40.7594146" lon="9.5056419"><ele>272.0</ele><time>2026-03-27T09:18:06.319Z</time></trkpt><trkpt lat="40.759367" lon="9.5055052"><ele>272.0</ele><time>2026-03-27T09:18:07.312Z</time></trkpt><trkpt lat="40.7593346" lon="9.5053525"><ele>272.0</ele><time>2026-03-27T09:18:08.314Z</time></trkpt><trkpt lat="40.7593085" lon="9.5052258"><ele>274.6666666666667</ele><time>2026-03-27T09:18:09.318Z</time></trkpt><trkpt lat="40.7592739" lon="9.5051097"><ele>277.33333333333337</ele><time>2026-03-27T09:18:10.318Z</time></trkpt><trkpt lat="40.7592395" lon="9.5050044"><ele>280.0</ele><time>2026-03-27T09:18:11.322Z</time></trkpt><trkpt lat="40.7591932" lon="9.5049292"><ele>282.6666666666667</ele><time>2026-03-27T09:18:12.32Z</time></trkpt><trkpt lat="40.7591154" lon="9.5048565"><ele>285.3333333333333</ele><time>2026-03-27T09:18:14.314Z</time></trkpt><trkpt lat="40.7590232" lon="9.5048904"><ele>288.0</ele><time>2026-03-27T09:18:36.318Z</time></trkpt><trkpt lat="40.7589747" lon="9.5049663"><ele>288.0</ele><time>2026-03-27T09:18:38.313Z</time></trkpt><trkpt lat="40.7589386" lon="9.5051014"><ele>288.0</ele><time>2026-03-27T09:18:40.32Z</time></trkpt><trkpt lat="40.7589129" lon="9.5051916"><ele>288.0</ele><time>2026-03-27T09:18:41.321Z</time></trkpt><trkpt lat="40.7588739" lon="9.5053172"><ele>288.0</ele><time>2026-03-27T09:18:42.325Z</time></trkpt><trkpt lat="40.7588191" lon="9.5054403"><ele>288.0</ele><time>2026-03-27T09:18:43.314Z</time></trkpt><trkpt lat="40.7587546" lon="9.5055546"><ele>284.2</ele><time>2026-03-27T09:18:44.319Z</time></trkpt><trkpt lat="40.7586775" lon="9.5056328"><ele>280.4</ele><time>2026-03-27T09:18:45.316Z</time></trkpt><trkpt lat="40.7585802" lon="9.5056752"><ele>276.59999999999997</ele><time>2026-03-27T09:18:46.318Z</time></trkpt><trkpt lat="40.7584819" lon="9.5057116"><ele>272.8</ele><time>2026-03-27T09:18:47.319Z</time></trkpt><trkpt lat="40.7583848" lon="9.5057174"><ele>269.0</ele><time>2026-03-27T09:18:48.32Z</time></trkpt><trkpt lat="40.7582939" lon="9.5056799"><ele>269.0</ele><time>2026-03-27T09:18:49.319Z</time></trkpt><trkpt lat="40.7582091" lon="9.5056099"><ele>269.0</ele><time>2026-03-27T09:18:50.32Z</time></trkpt><trkpt lat="40.758118" lon="9.5055124"><ele>269.0</ele><time>2026-03-27T09:18:51.32Z</time></trkpt><trkpt lat="40.7580196" lon="9.5053854"><ele>269.0</ele><time>2026-03-27T09:18:52.322Z</time></trkpt><trkpt lat="40.7579201" lon="9.5052559"><ele>274.8</ele><time>2026-03-27T09:18:53.313Z</time></trkpt><trkpt lat="40.757837" lon="9.5051442"><ele>280.59999999999997</ele><time>2026-03-27T09:18:54.316Z</time></trkpt><trkpt lat="40.757776" lon="9.5050926"><ele>286.4</ele><time>2026-03-27T09:18:55.317Z</time></trkpt><trkpt lat="40.7576632" lon="9.5051012"><ele>292.2</ele><time>2026-03-27T09:18:57.316Z</time></trkpt><trkpt lat="40.757603" lon="9.5051302"><ele>298.0</ele><time>2026-03-27T09:18:58.323Z</time></trkpt><trkpt lat="40.7575487" lon="9.5052299"><ele>299.5</ele><time>2026-03-27T09:18:59.312Z</time></trkpt><trkpt lat="40.757467" lon="9.5053652"><ele>301.0</ele><time>2026-03-27T09:19:00.318Z</time></trkpt><trkpt lat="40.7573764" lon="9.5055328"><ele>302.5</ele><time>2026-03-27T09:19:01.321Z</time></trkpt><trkpt lat="40.7573033" lon="9.5057042"><ele>304.0</ele><time>2026-03-27T09:19:02.33Z</time></trkpt><trkpt lat="40.7572491" lon="9.5058614"><ele>299.59999999999997</ele><time>2026-03-27T09:19:03.314Z</time></trkpt><trkpt lat="40.7572049" lon="9.5059996"><ele>295.2</ele><time>2026-03-27T09:19:04.316Z</time></trkpt><trkpt lat="40.7571742" lon="9.5060957"><ele>290.79999999999995</ele><time>2026-03-27T09:19:05.326Z</time></trkpt><trkpt lat="40.7571177" lon="9.5060503"><ele>286.4</ele><time>2026-03-27T09:19:09.323Z</time></trkpt><trkpt lat="40.757118" lon="9.5058924"><ele>282.0</ele><time>2026-03-27T09:19:11.316Z</time></trkpt><trkpt lat="40.7571198" lon="9.5057743"><ele>282.0</ele><time>2026-03-27T09:19:12.316Z</time></trkpt><trkpt lat="40.7571325" lon="9.505615"><ele>282.0</ele><time>2026-03-27T09:19:13.313Z</time></trkpt><trkpt lat="40.757136" lon="9.5054456"><ele>282.0</ele><time>2026-03-27T09:19:14.313Z</time></trkpt><trkpt lat="40.7571393" lon="9.5053011"><ele>282.0</ele><time>2026-03-27T09:19:15.316Z</time></trkpt><trkpt lat="40.7571211" lon="9.5051674"><ele>282.0</ele><time>2026-03-27T09:19:17.312Z</time></trkpt><trkpt lat="40.7570558" lon="9.5051711"><ele>282.0</ele><time>2026-03-27T09:19:19.322Z</time></trkpt><trkpt lat="40.7570015" lon="9.5052998"><ele>282.0</ele><time>2026-03-27T09:19:21.314Z</time></trkpt><trkpt lat="40.7569708" lon="9.5054078"><ele>282.0</ele><time>2026-03-27T09:19:22.317Z</time></trkpt><trkpt lat="40.7569332" lon="9.5055273"><ele>282.0</ele><time>2026-03-27T09:19:23.32Z</time></trkpt><trkpt lat="40.7568794" lon="9.5056672"><ele>290.0</ele><time>2026-03-27T09:19:24.316Z</time></trkpt><trkpt lat="40.7568154" lon="9.5058112"><ele>298.0</ele><time>2026-03-27T09:19:25.32Z</time></trkpt><trkpt lat="40.7567411" lon="9.5059657"><ele>306.0</ele><time>2026-03-27T09:19:26.316Z</time></trkpt><trkpt lat="40.7566456" lon="9.5061355"><ele>314.0</ele><time>2026-03-27T09:19:27.317Z</time></trkpt><trkpt lat="40.7565607" lon="9.506286"><ele>314.0</ele><time>2026-03-27T09:19:28.313Z</time></trkpt><trkpt lat="40.7564985" lon="9.5063951"><ele>314.0</ele><time>2026-03-27T09:19:29.316Z</time></trkpt><trkpt lat="40.7564573" lon="9.5064593"><ele>314.0</ele><time>2026-03-27T09:19:30.316Z</time></trkpt><trkpt lat="40.7563734" lon="9.5065265"><ele>314.0</ele><time>2026-03-27T09:19:32.321Z</time></trkpt><trkpt lat="40.7563213" lon="9.5064738"><ele>314.0</ele><time>2026-03-27T09:19:33.318Z</time></trkpt><trkpt lat="40.7562486" lon="9.5064024"><ele>314.0</ele><time>2026-03-27T09:19:34.312Z</time></trkpt><trkpt lat="40.7561433" lon="9.5063395"><ele>312.5</ele><time>2026-03-27T09:19:35.316Z</time></trkpt><trkpt lat="40.7560174" lon="9.5062703"><ele>311.0</ele><time>2026-03-27T09:19:36.316Z</time></trkpt><trkpt lat="40.7558814" lon="9.5061943"><ele>309.5</ele><time>2026-03-27T09:19:37.318Z</time></trkpt><trkpt lat="40.755741" lon="9.5061188"><ele>308.0</ele><time>2026-03-27T09:19:38.316Z</time></trkpt><trkpt lat="40.7555771" lon="9.5060364"><ele>317.33333333333337</ele><time>2026-03-27T09:19:39.313Z</time></trkpt><trkpt lat="40.7554141" lon="9.5059709"><ele>326.6666666666667</ele><time>2026-03-27T09:19:40.313Z</time></trkpt><trkpt lat="40.7552612" lon="9.5059171"><ele>336.0</ele><time>2026-03-27T09:19:41.319Z</time></trkpt><trkpt lat="40.7550931" lon="9.5058665"><ele>336.0</ele><time>2026-03-27T09:19:42.31Z</time></trkpt><trkpt lat="40.7549204" lon="9.5058386"><ele>336.0</ele><time>2026-03-27T09:19:43.334Z</time></trkpt><trkpt lat="40.7547575" lon="9.5058502"><ele>336.0</ele><time>2026-03-27T09:19:44.312Z</time></trkpt><trkpt lat="40.7546167" lon="9.5058728"><ele>336.0</ele><time>2026-03-27T09:19:45.319Z</time></trkpt><trkpt lat="40.7545113" lon="9.5058539"><ele>336.0</ele><time>2026-03-27T09:19:46.314Z</time></trkpt><trkpt lat="40.7544088" lon="9.5058362"><ele>336.0</ele><time>2026-03-27T09:19:47.316Z</time></trkpt><trkpt lat="40.7543275" lon="9.5057793"><ele>336.0</ele><time>2026-03-27T09:19:48.325Z</time></trkpt><trkpt lat="40.7542335" lon="9.5057238"><ele>336.0</ele><time>2026-03-27T09:19:49.317Z</time></trkpt><trkpt lat="40.7542052" lon="9.5056456"><ele>335.1666666666667</ele><time>2026-03-27T09:19:50.317Z</time></trkpt><trkpt lat="40.7541888" lon="9.5055595"><ele>334.3333333333333</ele><time>2026-03-27T09:19:51.316Z</time></trkpt><trkpt lat="40.7541797" lon="9.5054625"><ele>333.5</ele><time>2026-03-27T09:19:52.315Z</time></trkpt><trkpt lat="40.7541885" lon="9.5053453"><ele>332.66666666666663</ele><time>2026-03-27T09:19:53.314Z</time></trkpt><trkpt lat="40.7541784" lon="9.5052172"><ele>331.8333333333333</ele><time>2026-03-27T09:19:54.319Z</time></trkpt><trkpt lat="40.7541836" lon="9.5050735"><ele>331.0</ele><time>2026-03-27T09:19:55.321Z</time></trkpt><trkpt lat="40.7541689" lon="9.5049117"><ele>335.5</ele><time>2026-03-27T09:19:56.315Z</time></trkpt><trkpt lat="40.7541439" lon="9.5047426"><ele>340.0</ele><time>2026-03-27T09:19:57.324Z</time></trkpt><trkpt lat="40.7541359" lon="9.5045732"><ele>344.5</ele><time>2026-03-27T09:19:58.319Z</time></trkpt><trkpt lat="40.7541407" lon="9.5043873"><ele>349.0</ele><time>2026-03-27T09:19:59.314Z</time></trkpt><trkpt lat="40.7541463" lon="9.5041854"><ele>351.0</ele><time>2026-03-27T09:20:00.317Z</time></trkpt><trkpt lat="40.7541266" lon="9.5039663"><ele>353.0</ele><time>2026-03-27T09:20:01.318Z</time></trkpt><trkpt lat="40.7541023" lon="9.5037783"><ele>355.0</ele><time>2026-03-27T09:20:02.321Z</time></trkpt><trkpt lat="40.7541028" lon="9.5035807"><ele>356.5</ele><time>2026-03-27T09:20:03.315Z</time></trkpt><trkpt lat="40.754111" lon="9.5033807"><ele>358.0</ele><time>2026-03-27T09:20:04.322Z</time></trkpt><trkpt lat="40.7541077" lon="9.5032025"><ele>359.5</ele><time>2026-03-27T09:20:05.317Z</time></trkpt><trkpt lat="40.7541042" lon="9.5030709"><ele>361.0</ele><time>2026-03-27T09:20:06.313Z</time></trkpt><trkpt lat="40.7540861" lon="9.5029739"><ele>363.0</ele><time>2026-03-27T09:20:07.314Z</time></trkpt><trkpt lat="40.7540375" lon="9.5028132"><ele>365.0</ele><time>2026-03-27T09:20:09.314Z</time></trkpt><trkpt lat="40.7539708" lon="9.5027633"><ele>367.0</ele><time>2026-03-27T09:20:10.313Z</time></trkpt><trkpt lat="40.7539059" lon="9.502709"><ele>369.0</ele><time>2026-03-27T09:20:11.324Z</time></trkpt><trkpt lat="40.7538203" lon="9.5026038"><ele>371.0</ele><time>2026-03-27T09:20:13.319Z</time></trkpt><trkpt lat="40.7537997" lon="9.5024737"><ele>371.0</ele><time>2026-03-27T09:20:14.317Z</time></trkpt><trkpt lat="40.7537761" lon="9.502325"><ele>371.0</ele><time>2026-03-27T09:20:15.318Z</time></trkpt><trkpt lat="40.7537304" lon="9.5021531"><ele>371.0</ele><time>2026-03-27T09:20:16.319Z</time></trkpt><trkpt lat="40.7537003" lon="9.5019998"><ele>371.0</ele><time>2026-03-27T09:20:17.32Z</time></trkpt><trkpt lat="40.7536633" lon="9.5018915"><ele>370.0</ele><time>2026-03-27T09:20:18.319Z</time></trkpt><trkpt lat="40.7535943" lon="9.5018051"><ele>369.0</ele><time>2026-03-27T09:20:19.318Z</time></trkpt><trkpt lat="40.7535144" lon="9.501694"><ele>368.0</ele><time>2026-03-27T09:20:20.317Z</time></trkpt><trkpt lat="40.7534384" lon="9.5015886"><ele>367.0</ele><time>2026-03-27T09:20:21.318Z</time></trkpt><trkpt lat="40.7533497" lon="9.5014997"><ele>366.0</ele><time>2026-03-27T09:20:22.324Z</time></trkpt><trkpt lat="40.7532695" lon="9.5013797"><ele>366.0</ele><time>2026-03-27T09:20:23.315Z</time></trkpt><trkpt lat="40.7532115" lon="9.5012582"><ele>366.0</ele><time>2026-03-27T09:20:24.322Z</time></trkpt><trkpt lat="40.7531433" lon="9.501151"><ele>366.0</ele><time>2026-03-27T09:20:25.314Z</time></trkpt><trkpt lat="40.7530977" lon="9.5010856"><ele>366.0</ele><time>2026-03-27T09:20:26.319Z</time></trkpt><trkpt lat="40.752974" lon="9.501062"><ele>366.0</ele><time>2026-03-27T09:20:28.324Z</time></trkpt><trkpt lat="40.7528948" lon="9.5011208"><ele>366.0</ele><time>2026-03-27T09:20:29.317Z</time></trkpt><trkpt lat="40.7527932" lon="9.5012659"><ele>366.0</ele><time>2026-03-27T09:20:30.317Z</time></trkpt><trkpt lat="40.7526796" lon="9.5013858"><ele>366.0</ele><time>2026-03-27T09:20:31.32Z</time></trkpt><trkpt lat="40.7525937" lon="9.501459"><ele>366.0</ele><time>2026-03-27T09:20:32.317Z</time></trkpt><trkpt lat="40.7524813" lon="9.5014423"><ele>365.25</ele><time>2026-03-27T09:20:34.316Z</time></trkpt><trkpt lat="40.7524039" lon="9.5013612"><ele>364.5</ele><time>2026-03-27T09:20:35.318Z</time></trkpt><trkpt lat="40.7523119" lon="9.5012498"><ele>363.75</ele><time>2026-03-27T09:20:36.319Z</time></trkpt><trkpt lat="40.7521821" lon="9.501153"><ele>363.0</ele><time>2026-03-27T09:20:37.315Z</time></trkpt><trkpt lat="40.7520284" lon="9.5010673"><ele>369.6666666666667</ele><time>2026-03-27T09:20:38.316Z</time></trkpt><trkpt lat="40.7518785" lon="9.5010218"><ele>376.33333333333337</ele><time>2026-03-27T09:20:39.312Z</time></trkpt><trkpt lat="40.7517297" lon="9.5009534"><ele>383.0</ele><time>2026-03-27T09:20:40.312Z</time></trkpt><trkpt lat="40.7516042" lon="9.5008621"><ele>383.0</ele><time>2026-03-27T09:20:41.325Z</time></trkpt><trkpt lat="40.7515117" lon="9.5007987"><ele>383.0</ele><time>2026-03-27T09:20:42.316Z</time></trkpt><trkpt lat="40.7514407" lon="9.5007682"><ele>383.0</ele><time>2026-03-27T09:20:43.317Z</time></trkpt><trkpt lat="40.7513757" lon="9.500789"><ele>383.0</ele><time>2026-03-27T09:20:44.315Z</time></trkpt><trkpt lat="40.7513134" lon="9.5008424"><ele>383.0</ele><time>2026-03-27T09:20:45.311Z</time></trkpt><trkpt lat="40.7512405" lon="9.5009236"><ele>383.0</ele><time>2026-03-27T09:20:46.324Z</time></trkpt><trkpt lat="40.7511544" lon="9.5010492"><ele>383.0</ele><time>2026-03-27T09:20:47.32Z</time></trkpt><trkpt lat="40.7510545" lon="9.501209"><ele>383.0</ele><time>2026-03-27T09:20:48.317Z</time></trkpt><trkpt lat="40.7509445" lon="9.5014122"><ele>383.0</ele><time>2026-03-27T09:20:49.312Z</time></trkpt><trkpt lat="40.750838" lon="9.5015833"><ele>379.59999999999997</ele><time>2026-03-27T09:20:50.313Z</time></trkpt><trkpt lat="40.7507656" lon="9.5017086"><ele>376.2</ele><time>2026-03-27T09:20:51.316Z</time></trkpt><trkpt lat="40.7506924" lon="9.5017914"><ele>372.8</ele><time>2026-03-27T09:20:52.317Z</time></trkpt><trkpt lat="40.7505974" lon="9.5018313"><ele>369.4</ele><time>2026-03-27T09:20:53.312Z</time></trkpt><trkpt lat="40.7505115" lon="9.5018184"><ele>366.0</ele><time>2026-03-27T09:20:54.311Z</time></trkpt><trkpt lat="40.7504311" lon="9.5017707"><ele>366.0</ele><time>2026-03-27T09:20:55.319Z</time></trkpt><trkpt lat="40.7503561" lon="9.5017119"><ele>366.0</ele><time>2026-03-27T09:20:56.316Z</time></trkpt><trkpt lat="40.7502822" lon="9.5016116"><ele>366.0</ele><time>2026-03-27T09:20:57.312Z</time></trkpt><trkpt lat="40.7502039" lon="9.5014497"><ele>366.0</ele><time>2026-03-27T09:20:58.315Z</time></trkpt><trkpt lat="40.7501107" lon="9.5012807"><ele>372.5</ele><time>2026-03-27T09:20:59.319Z</time></trkpt><trkpt lat="40.7500216" lon="9.5011383"><ele>379.0</ele><time>2026-03-27T09:21:00.313Z</time></trkpt><trkpt lat="40.7499598" lon="9.5009908"><ele>385.5</ele><time>2026-03-27T09:21:01.309Z</time></trkpt><trkpt lat="40.7499008" lon="9.5008338"><ele>392.0</ele><time>2026-03-27T09:21:02.32Z</time></trkpt><trkpt lat="40.7498432" lon="9.5007101"><ele>392.0</ele><time>2026-03-27T09:21:03.319Z</time></trkpt><trkpt lat="40.749788" lon="9.5005886"><ele>392.0</ele><time>2026-03-27T09:21:04.316Z</time></trkpt><trkpt lat="40.7497239" lon="9.5005149"><ele>392.0</ele><time>2026-03-27T09:21:05.316Z</time></trkpt><trkpt lat="40.749667" lon="9.5004619"><ele>392.0</ele><time>2026-03-27T09:21:06.325Z</time></trkpt><trkpt lat="40.7495446" lon="9.5004925"><ele>392.0</ele><time>2026-03-27T09:21:08.313Z</time></trkpt><trkpt lat="40.7494889" lon="9.5005575"><ele>392.0</ele><time>2026-03-27T09:21:09.321Z</time></trkpt><trkpt lat="40.7494121" lon="9.5006479"><ele>392.0</ele><time>2026-03-27T09:21:10.318Z</time></trkpt><trkpt lat="40.7493163" lon="9.5007523"><ele>392.0</ele><time>2026-03-27T09:21:11.321Z</time></trkpt><trkpt lat="40.7492189" lon="9.5008568"><ele>392.0</ele><time>2026-03-27T09:21:12.317Z</time></trkpt><trkpt lat="40.749127" lon="9.5009469"><ele>390.16666666666663</ele><time>2026-03-27T09:21:13.314Z</time></trkpt><trkpt lat="40.749046" lon="9.5009984"><ele>388.3333333333333</ele><time>2026-03-27T09:21:14.312Z</time></trkpt><trkpt lat="40.7489578" lon="9.5010319"><ele>386.5</ele><time>2026-03-27T09:21:15.314Z</time></trkpt><trkpt lat="40.748866" lon="9.5010455"><ele>384.66666666666663</ele><time>2026-03-27T09:21:16.316Z</time></trkpt><trkpt lat="40.7487736" lon="9.501041"><ele>382.8333333333333</ele><time>2026-03-27T09:21:17.315Z</time></trkpt><trkpt lat="40.7486913" lon="9.5010342"><ele>381.0</ele><time>2026-03-27T09:21:18.311Z</time></trkpt><trkpt lat="40.7486249" lon="9.5009976"><ele>381.0</ele><time>2026-03-27T09:21:19.312Z</time></trkpt><trkpt lat="40.7485737" lon="9.5009058"><ele>381.0</ele><time>2026-03-27T09:21:20.318Z</time></trkpt><trkpt lat="40.7485004" lon="9.5008179"><ele>381.0</ele><time>2026-03-27T09:21:21.314Z</time></trkpt><trkpt lat="40.7484485" lon="9.5006967"><ele>381.0</ele><time>2026-03-27T09:21:22.312Z</time></trkpt><trkpt lat="40.7483696" lon="9.5005347"><ele>381.0</ele><time>2026-03-27T09:21:23.313Z</time></trkpt><trkpt lat="40.748291" lon="9.5004277"><ele>385.4</ele><time>2026-03-27T09:21:24.326Z</time></trkpt><trkpt lat="40.7482157" lon="9.5003462"><ele>389.8</ele><time>2026-03-27T09:21:25.315Z</time></trkpt><trkpt lat="40.7481475" lon="9.5002839"><ele>394.2</ele><time>2026-03-27T09:21:26.322Z</time></trkpt><trkpt lat="40.7480642" lon="9.5002142"><ele>398.59999999999997</ele><time>2026-03-27T09:21:28.321Z</time></trkpt><trkpt lat="40.7479899" lon="9.5001394"><ele>403.0</ele><time>2026-03-27T09:21:30.317Z</time></trkpt><trkpt lat="40.7479163" lon="9.5000241"><ele>403.00000000000006</ele><time>2026-03-27T09:21:32.321Z</time></trkpt><trkpt lat="40.7478753" lon="9.4999422"><ele>403.0</ele><time>2026-03-27T09:21:33.326Z</time></trkpt><trkpt lat="40.7478222" lon="9.4998685"><ele>403.0</ele><time>2026-03-27T09:21:34.322Z</time></trkpt><trkpt lat="40.7477523" lon="9.4997868"><ele>403.0</ele><time>2026-03-27T09:21:35.316Z</time></trkpt><trkpt lat="40.7476928" lon="9.4997255"><ele>403.00000000000006</ele><time>2026-03-27T09:21:36.315Z</time></trkpt><trkpt lat="40.7476451" lon="9.4996537"><ele>403.0</ele><time>2026-03-27T09:21:37.318Z</time></trkpt><trkpt lat="40.7475978" lon="9.4995764"><ele>401.83333333333337</ele><time>2026-03-27T09:21:38.315Z</time></trkpt><trkpt lat="40.7475569" lon="9.4994883"><ele>400.6666666666667</ele><time>2026-03-27T09:21:39.317Z</time></trkpt><trkpt lat="40.7474902" lon="9.4994312"><ele>399.5</ele><time>2026-03-27T09:21:40.31Z</time></trkpt><trkpt lat="40.7474348" lon="9.4993714"><ele>398.33333333333337</ele><time>2026-03-27T09:21:41.317Z</time></trkpt><trkpt lat="40.747409" lon="9.4992332"><ele>397.1666666666667</ele><time>2026-03-27T09:21:43.322Z</time></trkpt><trkpt lat="40.7474163" lon="9.4991091"><ele>396.0</ele><time>2026-03-27T09:21:45.311Z</time></trkpt><trkpt lat="40.7474873" lon="9.4990214"><ele>396.0</ele><time>2026-03-27T09:21:47.313Z</time></trkpt><trkpt lat="40.747572" lon="9.4989781"><ele>396.0</ele><time>2026-03-27T09:21:49.319Z</time></trkpt><trkpt lat="40.7476404" lon="9.4988815"><ele>396.0</ele><time>2026-03-27T09:21:51.319Z</time></trkpt><trkpt lat="40.747691" lon="9.4987484"><ele>396.0</ele><time>2026-03-27T09:21:53.318Z</time></trkpt><trkpt lat="40.7477424" lon="9.4986221"><ele>396.0</ele><time>2026-03-27T09:21:55.31Z</time></trkpt><trkpt lat="40.7477814" lon="9.498501"><ele>403.4</ele><time>2026-03-27T09:21:57.321Z</time></trkpt><trkpt lat="40.7478051" lon="9.4983832"><ele>410.8</ele><time>2026-03-27T09:21:59.312Z</time></trkpt><trkpt lat="40.7478451" lon="9.4982551"><ele>418.19999999999993</ele><time>2026-03-27T09:22:01.316Z</time></trkpt><trkpt lat="40.7478691" lon="9.4981282"><ele>425.59999999999997</ele><time>2026-03-27T09:22:03.314Z</time></trkpt><trkpt lat="40.7479003" lon="9.4979818"><ele>433.0</ele><time>2026-03-27T09:22:05.316Z</time></trkpt><trkpt lat="40.7479533" lon="9.4978569"><ele>433.1666666666667</ele><time>2026-03-27T09:22:07.315Z</time></trkpt><trkpt lat="40.7479936" lon="9.4977917"><ele>433.33333333333337</ele><time>2026-03-27T09:22:08.315Z</time></trkpt><trkpt lat="40.7480504" lon="9.4976751"><ele>433.5</ele><time>2026-03-27T09:22:10.319Z</time></trkpt><trkpt lat="40.7480736" lon="9.497579"><ele>433.66666666666663</ele><time>2026-03-27T09:22:12.312Z</time></trkpt><trkpt lat="40.7480547" lon="9.4974751"><ele>433.8333333333333</ele><time>2026-03-27T09:22:14.323Z</time></trkpt><trkpt lat="40.7480167" lon="9.4973774"><ele>434.0</ele><time>2026-03-27T09:22:16.314Z</time></trkpt><trkpt lat="40.7479793" lon="9.4972947"><ele>434.0</ele><time>2026-03-27T09:22:18.32Z</time></trkpt><trkpt lat="40.747937" lon="9.497205"><ele>434.0</ele><time>2026-03-27T09:22:20.318Z</time></trkpt><trkpt lat="40.7478916" lon="9.4971115"><ele>434.0</ele><time>2026-03-27T09:22:22.316Z</time></trkpt><trkpt lat="40.7478294" lon="9.4970277"><ele>434.0</ele><time>2026-03-27T09:22:24.316Z</time></trkpt><trkpt lat="40.747775" lon="9.4969203"><ele>434.0</ele><time>2026-03-27T09:22:26.314Z</time></trkpt><trkpt lat="40.7477241" lon="9.4967988"><ele>428.79999999999995</ele><time>2026-03-27T09:22:28.314Z</time></trkpt><trkpt lat="40.7476617" lon="9.4967079"><ele>423.59999999999997</ele><time>2026-03-27T09:22:30.325Z</time></trkpt><trkpt lat="40.7475668" lon="9.496668"><ele>418.4</ele><time>2026-03-27T09:22:32.313Z</time></trkpt><trkpt lat="40.7474505" lon="9.4966867"><ele>413.2</ele><time>2026-03-27T09:22:34.314Z</time></trkpt><trkpt lat="40.7473779" lon="9.4967443"><ele>408.0</ele><time>2026-03-27T09:22:35.317Z</time></trkpt><trkpt lat="40.7473128" lon="9.4967902"><ele>408.0</ele><time>2026-03-27T09:22:36.316Z</time></trkpt><trkpt lat="40.7472235" lon="9.4968465"><ele>408.0</ele><time>2026-03-27T09:22:38.339Z</time></trkpt><trkpt lat="40.7471823" lon="9.4967626"><ele>408.0</ele><time>2026-03-27T09:22:40.333Z</time></trkpt><trkpt lat="40.7471753" lon="9.496576"><ele>408.0</ele><time>2026-03-27T09:22:42.314Z</time></trkpt><trkpt lat="40.7471724" lon="9.4964595"><ele>408.0</ele><time>2026-03-27T09:22:43.315Z</time></trkpt><trkpt lat="40.7471572" lon="9.4963538"><ele>411.0</ele><time>2026-03-27T09:22:44.312Z</time></trkpt><trkpt lat="40.7471312" lon="9.4962332"><ele>414.0</ele><time>2026-03-27T09:22:45.32Z</time></trkpt><trkpt lat="40.7471106" lon="9.4961076"><ele>417.0</ele><time>2026-03-27T09:22:46.321Z</time></trkpt><trkpt lat="40.7470823" lon="9.4959566"><ele>420.0</ele><time>2026-03-27T09:22:47.317Z</time></trkpt><trkpt lat="40.7470662" lon="9.4958119"><ele>423.0</ele><time>2026-03-27T09:22:48.314Z</time></trkpt><trkpt lat="40.7470512" lon="9.4956828"><ele>423.0</ele><time>2026-03-27T09:22:49.316Z</time></trkpt><trkpt lat="40.7470389" lon="9.4955627"><ele>423.0</ele><time>2026-03-27T09:22:50.313Z</time></trkpt><trkpt lat="40.7470271" lon="9.4954528"><ele>423.0</ele><time>2026-03-27T09:22:51.318Z</time></trkpt><trkpt lat="40.7470237" lon="9.4953508"><ele>423.0</ele><time>2026-03-27T09:22:52.311Z</time></trkpt><trkpt lat="40.7470243" lon="9.4952653"><ele>423.0</ele><time>2026-03-27T09:22:53.313Z</time></trkpt><trkpt lat="40.7469972" lon="9.4951459"><ele>423.0</ele><time>2026-03-27T09:22:55.317Z</time></trkpt><trkpt lat="40.746925" lon="9.4950584"><ele>422.8333333333333</ele><time>2026-03-27T09:22:57.322Z</time></trkpt><trkpt lat="40.7468533" lon="9.4949808"><ele>422.66666666666663</ele><time>2026-03-27T09:22:59.321Z</time></trkpt><trkpt lat="40.7467752" lon="9.4949294"><ele>422.5</ele><time>2026-03-27T09:23:02.316Z</time></trkpt><trkpt lat="40.7467147" lon="9.4949835"><ele>422.3333333333333</ele><time>2026-03-27T09:23:06.314Z</time></trkpt><trkpt lat="40.7466813" lon="9.4950613"><ele>422.16666666666663</ele><time>2026-03-27T09:23:08.312Z</time></trkpt><trkpt lat="40.7466432" lon="9.4951489"><ele>422.0</ele><time>2026-03-27T09:23:10.312Z</time></trkpt><trkpt lat="40.746587" lon="9.4952698"><ele>421.99999999999994</ele><time>2026-03-27T09:23:12.319Z</time></trkpt><trkpt lat="40.7465418" lon="9.4953454"><ele>422.0</ele><time>2026-03-27T09:23:13.311Z</time></trkpt><trkpt lat="40.7464809" lon="9.4954106"><ele>422.0</ele><time>2026-03-27T09:23:14.318Z</time></trkpt><trkpt lat="40.7464172" lon="9.4954614"><ele>422.0</ele><time>2026-03-27T09:23:15.315Z</time></trkpt><trkpt lat="40.7463471" lon="9.4955079"><ele>421.99999999999994</ele><time>2026-03-27T09:23:16.312Z</time></trkpt><trkpt lat="40.7462771" lon="9.4955549"><ele>422.0</ele><time>2026-03-27T09:23:17.324Z</time></trkpt><trkpt lat="40.7462003" lon="9.4955874"><ele>418.0</ele><time>2026-03-27T09:23:18.32Z</time></trkpt><trkpt lat="40.7461281" lon="9.4956056"><ele>414.0</ele><time>2026-03-27T09:23:19.315Z</time></trkpt><trkpt lat="40.7460646" lon="9.4956154"><ele>410.0</ele><time>2026-03-27T09:23:20.314Z</time></trkpt><trkpt lat="40.7459883" lon="9.4956287"><ele>406.0</ele><time>2026-03-27T09:23:21.313Z</time></trkpt><trkpt lat="40.7459161" lon="9.4956318"><ele>402.0</ele><time>2026-03-27T09:23:22.32Z</time></trkpt><trkpt lat="40.7458419" lon="9.4956369"><ele>398.0</ele><time>2026-03-27T09:23:23.317Z</time></trkpt><trkpt lat="40.7457694" lon="9.4956313"><ele>394.0</ele><time>2026-03-27T09:23:24.315Z</time></trkpt><trkpt lat="40.7456976" lon="9.4956246"><ele>393.4</ele><time>2026-03-27T09:23:25.319Z</time></trkpt><trkpt lat="40.7456301" lon="9.4956094"><ele>392.79999999999995</ele><time>2026-03-27T09:23:26.322Z</time></trkpt><trkpt lat="40.7455661" lon="9.495594"><ele>392.20000000000005</ele><time>2026-03-27T09:23:27.316Z</time></trkpt><trkpt lat="40.7454598" lon="9.4955664"><ele>391.6</ele><time>2026-03-27T09:23:29.319Z</time></trkpt><trkpt lat="40.7453752" lon="9.4956045"><ele>391.0</ele><time>2026-03-27T09:23:33.325Z</time></trkpt><trkpt lat="40.7453234" lon="9.4957477"><ele>391.0</ele><time>2026-03-27T09:23:35.318Z</time></trkpt><trkpt lat="40.7452983" lon="9.4958441"><ele>391.0</ele><time>2026-03-27T09:23:36.316Z</time></trkpt><trkpt lat="40.7452682" lon="9.4959583"><ele>391.0</ele><time>2026-03-27T09:23:37.315Z</time></trkpt><trkpt lat="40.7452158" lon="9.4960865"><ele>391.0</ele><time>2026-03-27T09:23:38.315Z</time></trkpt><trkpt lat="40.7451639" lon="9.4962043"><ele>391.0</ele><time>2026-03-27T09:23:39.323Z</time></trkpt><trkpt lat="40.7451184" lon="9.4963007"><ele>391.33333333333337</ele><time>2026-03-27T09:23:40.318Z</time></trkpt><trkpt lat="40.7450742" lon="9.4963891"><ele>391.6666666666667</ele><time>2026-03-27T09:23:41.316Z</time></trkpt><trkpt lat="40.7450245" lon="9.4964605"><ele>392.0</ele><time>2026-03-27T09:23:42.313Z</time></trkpt><trkpt lat="40.7449721" lon="9.4965293"><ele>392.33333333333337</ele><time>2026-03-27T09:23:43.314Z</time></trkpt><trkpt lat="40.7449194" lon="9.4965916"><ele>392.6666666666667</ele><time>2026-03-27T09:23:44.32Z</time></trkpt><trkpt lat="40.7448705" lon="9.4966552"><ele>393.0</ele><time>2026-03-27T09:23:45.344Z</time></trkpt><trkpt lat="40.7447857" lon="9.4967459"><ele>393.0</ele><time>2026-03-27T09:23:47.317Z</time></trkpt><trkpt lat="40.7447334" lon="9.4968166"><ele>393.0</ele><time>2026-03-27T09:23:49.324Z</time></trkpt><trkpt lat="40.7446697" lon="9.4969083"><ele>393.0</ele><time>2026-03-27T09:23:51.321Z</time></trkpt><trkpt lat="40.7446047" lon="9.4969596"><ele>393.0</ele><time>2026-03-27T09:23:53.311Z</time></trkpt><trkpt lat="40.7444841" lon="9.4969658"><ele>393.0</ele><time>2026-03-27T09:23:55.317Z</time></trkpt><trkpt lat="40.7443885" lon="9.4969172"><ele>392.4</ele><time>2026-03-27T09:23:57.312Z</time></trkpt><trkpt lat="40.7442932" lon="9.496856"><ele>391.79999999999995</ele><time>2026-03-27T09:23:59.312Z</time></trkpt><trkpt lat="40.7441914" lon="9.4967588"><ele>391.2</ele><time>2026-03-27T09:24:01.309Z</time></trkpt><trkpt lat="40.7441469" lon="9.4966728"><ele>390.6</ele><time>2026-03-27T09:24:02.316Z</time></trkpt><trkpt lat="40.7441031" lon="9.4965954"><ele>390.0</ele><time>2026-03-27T09:24:03.318Z</time></trkpt><trkpt lat="40.7440586" lon="9.4965311"><ele>390.0</ele><time>2026-03-27T09:24:04.317Z</time></trkpt><trkpt lat="40.7439892" lon="9.4964345"><ele>390.0</ele><time>2026-03-27T09:24:06.312Z</time></trkpt><trkpt lat="40.7439344" lon="9.4963509"><ele>390.0</ele><time>2026-03-27T09:24:08.314Z</time></trkpt><trkpt lat="40.7438856" lon="9.4962716"><ele>390.0</ele><time>2026-03-27T09:24:10.32Z</time></trkpt><trkpt lat="40.7438347" lon="9.4961959"><ele>390.0</ele><time>2026-03-27T09:24:12.312Z</time></trkpt><trkpt lat="40.7437621" lon="9.4960823"><ele>394.2</ele><time>2026-03-27T09:24:14.318Z</time></trkpt><trkpt lat="40.743686" lon="9.4959982"><ele>398.4</ele><time>2026-03-27T09:24:16.316Z</time></trkpt><trkpt lat="40.7436071" lon="9.4959418"><ele>402.6</ele><time>2026-03-27T09:24:18.318Z</time></trkpt><trkpt lat="40.74351" lon="9.4959212"><ele>406.8</ele><time>2026-03-27T09:24:20.33Z</time></trkpt><trkpt lat="40.7434073" lon="9.4959841"><ele>411.0</ele><time>2026-03-27T09:24:22.316Z</time></trkpt><trkpt lat="40.7433251" lon="9.4960356"><ele>411.0</ele><time>2026-03-27T09:24:24.316Z</time></trkpt><trkpt lat="40.7432356" lon="9.4961087"><ele>411.0</ele><time>2026-03-27T09:24:26.328Z</time></trkpt><trkpt lat="40.743159" lon="9.4961602"><ele>411.0</ele><time>2026-03-27T09:24:28.317Z</time></trkpt><trkpt lat="40.7430814" lon="9.4961913"><ele>411.0</ele><time>2026-03-27T09:24:31.32Z</time></trkpt><trkpt lat="40.7429924" lon="9.4962083"><ele>411.0</ele><time>2026-03-27T09:24:34.316Z</time></trkpt><trkpt lat="40.7429116" lon="9.4962225"><ele>411.0</ele><time>2026-03-27T09:24:49.317Z</time></trkpt><trkpt lat="40.742827" lon="9.4962222"><ele>411.0</ele><time>2026-03-27T09:24:52.316Z</time></trkpt><trkpt lat="40.7427569" lon="9.4962061"><ele>411.0</ele><time>2026-03-27T09:24:56.316Z</time></trkpt><trkpt lat="40.7426911" lon="9.4962112"><ele>411.0</ele><time>2026-03-27T09:25:11.313Z</time></trkpt><trkpt lat="40.7426097" lon="9.496218"><ele>411.0</ele><time>2026-03-27T09:25:14.313Z</time></trkpt><trkpt lat="40.7425449" lon="9.4962633"><ele>411.0</ele><time>2026-03-27T09:25:17.317Z</time></trkpt><trkpt lat="40.7425055" lon="9.4963313"><ele>411.0</ele><time>2026-03-27T09:25:19.311Z</time></trkpt><trkpt lat="40.7424825" lon="9.4964346"><ele>411.0</ele><time>2026-03-27T09:25:23.37Z</time></trkpt><trkpt lat="40.7424729" lon="9.4965189"><ele>401.75</ele><time>2026-03-27T09:25:25.322Z</time></trkpt><trkpt lat="40.7424331" lon="9.4967676"><ele>392.5</ele><time>2026-03-27T09:25:42.317Z</time></trkpt><trkpt lat="40.7424044" lon="9.4968971"><ele>383.25</ele><time>2026-03-27T09:25:44.313Z</time></trkpt><trkpt lat="40.7423455" lon="9.4969898"><ele>374.0</ele><time>2026-03-27T09:25:46.32Z</time></trkpt><trkpt lat="40.7422766" lon="9.4970828"><ele>369.5</ele><time>2026-03-27T09:25:48.319Z</time></trkpt><trkpt lat="40.7422432" lon="9.4971735"><ele>365.0</ele><time>2026-03-27T09:25:50.318Z</time></trkpt><trkpt lat="40.7422289" lon="9.4972633"><ele>360.5</ele><time>2026-03-27T09:25:52.322Z</time></trkpt><trkpt lat="40.7421955" lon="9.4973402"><ele>356.0</ele><time>2026-03-27T09:25:54.323Z</time></trkpt><trkpt lat="40.7421318" lon="9.4973999"><ele>351.5</ele><time>2026-03-27T09:25:56.317Z</time></trkpt><trkpt lat="40.7420555" lon="9.4974646"><ele>347.0</ele><time>2026-03-27T09:25:58.318Z</time></trkpt><trkpt lat="40.7419799" lon="9.4975415"><ele>347.0</ele><time>2026-03-27T09:26:00.315Z</time></trkpt><trkpt lat="40.741908" lon="9.4976155"><ele>347.0</ele><time>2026-03-27T09:26:02.318Z</time></trkpt><trkpt lat="40.7418565" lon="9.4977031"><ele>347.0</ele><time>2026-03-27T09:26:04.328Z</time></trkpt><trkpt lat="40.7418418" lon="9.4978077"><ele>347.0</ele><time>2026-03-27T09:26:06.32Z</time></trkpt><trkpt lat="40.7418384" lon="9.4978957"><ele>347.0</ele><time>2026-03-27T09:26:08.323Z</time></trkpt><trkpt lat="40.7418413" lon="9.4979878"><ele>347.0</ele><time>2026-03-27T09:26:10.324Z</time></trkpt><trkpt lat="40.7418113" lon="9.4980782"><ele>346.40000000000003</ele><time>2026-03-27T09:26:13.316Z</time></trkpt><trkpt lat="40.7417212" lon="9.4980504"><ele>345.8</ele><time>2026-03-27T09:26:16.317Z</time></trkpt><trkpt lat="40.7416167" lon="9.4979804"><ele>345.2</ele><time>2026-03-27T09:26:18.316Z</time></trkpt><trkpt lat="40.7415049" lon="9.497974"><ele>344.6</ele><time>2026-03-27T09:26:20.314Z</time></trkpt><trkpt lat="40.7413869" lon="9.4979766"><ele>344.0</ele><time>2026-03-27T09:26:22.316Z</time></trkpt><trkpt lat="40.7412707" lon="9.4979315"><ele>350.2</ele><time>2026-03-27T09:26:24.323Z</time></trkpt><trkpt lat="40.7411727" lon="9.4978874"><ele>356.4</ele><time>2026-03-27T09:26:26.316Z</time></trkpt><trkpt lat="40.7410683" lon="9.4978839"><ele>362.6</ele><time>2026-03-27T09:26:28.317Z</time></trkpt><trkpt lat="40.7409964" lon="9.4978705"><ele>368.8</ele><time>2026-03-27T09:26:29.321Z</time></trkpt><trkpt lat="40.7408963" lon="9.4978417"><ele>375.0</ele><time>2026-03-27T09:26:31.327Z</time></trkpt><trkpt lat="40.740828" lon="9.4978181"><ele>375.2</ele><time>2026-03-27T09:26:33.329Z</time></trkpt><trkpt lat="40.7407511" lon="9.4977424"><ele>375.4</ele><time>2026-03-27T09:26:35.317Z</time></trkpt><trkpt lat="40.7406538" lon="9.4976462"><ele>375.6</ele><time>2026-03-27T09:26:37.313Z</time></trkpt><trkpt lat="40.7405541" lon="9.4975719"><ele>375.8</ele><time>2026-03-27T09:26:39.314Z</time></trkpt><trkpt lat="40.7404785" lon="9.4975279"><ele>376.0</ele><time>2026-03-27T09:26:41.313Z</time></trkpt><trkpt lat="40.7404124" lon="9.4974744"><ele>376.0</ele><time>2026-03-27T09:26:43.321Z</time></trkpt><trkpt lat="40.7403534" lon="9.4974283"><ele>376.0</ele><time>2026-03-27T09:26:45.313Z</time></trkpt><trkpt lat="40.7402973" lon="9.4973764"><ele>376.0</ele><time>2026-03-27T09:26:47.317Z</time></trkpt><trkpt lat="40.7402484" lon="9.4972723"><ele>376.0</ele><time>2026-03-27T09:27:31.316Z</time></trkpt><trkpt lat="40.7402448" lon="9.4971844"><ele>376.0</ele><time>2026-03-27T09:32:13.315Z</time></trkpt><trkpt lat="40.7401713" lon="9.497142"><ele>376.0</ele><time>2026-03-27T09:32:16.316Z</time></trkpt><trkpt lat="40.7401028" lon="9.4970995"><ele>379.3333333333333</ele><time>2026-03-27T09:32:18.313Z</time></trkpt><trkpt lat="40.7400343" lon="9.4970447"><ele>382.66666666666663</ele><time>2026-03-27T09:32:20.314Z</time></trkpt><trkpt lat="40.7399796" lon="9.496956"><ele>386.0</ele><time>2026-03-27T09:32:24.345Z</time></trkpt><trkpt lat="40.7398983" lon="9.496891"><ele>389.3333333333333</ele><time>2026-03-27T09:32:26.32Z</time></trkpt><trkpt lat="40.7398225" lon="9.4968231"><ele>392.6666666666667</ele><time>2026-03-27T09:32:27.319Z</time></trkpt><trkpt lat="40.7397689" lon="9.4967681"><ele>396.0</ele><time>2026-03-27T09:32:28.32Z</time></trkpt><trkpt lat="40.7397002" lon="9.4966717"><ele>396.0</ele><time>2026-03-27T09:32:30.316Z</time></trkpt><trkpt lat="40.7396094" lon="9.4965426"><ele>396.0</ele><time>2026-03-27T09:32:32.32Z</time></trkpt><trkpt lat="40.7395551" lon="9.4964666"><ele>396.0</ele><time>2026-03-27T09:32:33.312Z</time></trkpt><trkpt lat="40.7395056" lon="9.4963954"><ele>396.0</ele><time>2026-03-27T09:32:34.313Z</time></trkpt><trkpt lat="40.739431" lon="9.496294"><ele>396.0</ele><time>2026-03-27T09:32:36.318Z</time></trkpt><trkpt lat="40.7394061" lon="9.496217"><ele>396.0</ele><time>2026-03-27T09:32:38.321Z</time></trkpt><trkpt lat="40.7394418" lon="9.496329"><ele>396.0</ele><time>2026-03-27T09:47:32.324Z</time></trkpt><trkpt lat="40.7394905" lon="9.4963878"><ele>396.0</ele><time>2026-03-27T09:47:34.321Z</time></trkpt><trkpt lat="40.7395403" lon="9.4964634"><ele>396.0</ele><time>2026-03-27T09:47:36.319Z</time></trkpt><trkpt lat="40.7395894" lon="9.4965314"><ele>396.0</ele><time>2026-03-27T09:47:38.325Z</time></trkpt><trkpt lat="40.7396383" lon="9.4965938"><ele>396.0</ele><time>2026-03-27T09:47:40.312Z</time></trkpt><trkpt lat="40.739682" lon="9.4966539"><ele>396.0</ele><time>2026-03-27T09:47:42.316Z</time></trkpt><trkpt lat="40.7397141" lon="9.4967357"><ele>396.0</ele><time>2026-03-27T09:47:55.327Z</time></trkpt><trkpt lat="40.7397858" lon="9.4968044"><ele>396.0</ele><time>2026-03-27T09:47:59.326Z</time></trkpt><trkpt lat="40.7398469" lon="9.4968923"><ele>396.0</ele><time>2026-03-27T09:48:02.325Z</time></trkpt><trkpt lat="40.7399045" lon="9.4969415"><ele>396.0</ele><time>2026-03-27T09:48:12.32Z</time></trkpt><trkpt lat="40.7399592" lon="9.4970103"><ele>396.0</ele><time>2026-03-27T09:48:16.32Z</time></trkpt><trkpt lat="40.740031" lon="9.4970734"><ele>396.0</ele><time>2026-03-27T09:48:22.322Z</time></trkpt><trkpt lat="40.7400893" lon="9.497106"><ele>392.6666666666667</ele><time>2026-03-27T09:48:24.319Z</time></trkpt><trkpt lat="40.7401764" lon="9.4971587"><ele>389.3333333333333</ele><time>2026-03-27T09:48:27.324Z</time></trkpt><trkpt lat="40.7402397" lon="9.4971918"><ele>386.0</ele><time>2026-03-27T09:48:29.323Z</time></trkpt><trkpt lat="40.7403098" lon="9.4972535"><ele>382.66666666666663</ele><time>2026-03-27T09:48:32.327Z</time></trkpt><trkpt lat="40.7403855" lon="9.4972922"><ele>379.3333333333333</ele><time>2026-03-27T09:48:35.321Z</time></trkpt><trkpt lat="40.7404452" lon="9.4973634"><ele>376.0</ele><time>2026-03-27T09:48:38.321Z</time></trkpt><trkpt lat="40.7405162" lon="9.4974328"><ele>376.0</ele><time>2026-03-27T09:48:41.322Z</time></trkpt><trkpt lat="40.7405922" lon="9.4975055"><ele>376.0</ele><time>2026-03-27T09:48:44.316Z</time></trkpt><trkpt lat="40.7406513" lon="9.497557"><ele>376.0</ele><time>2026-03-27T09:48:46.323Z</time></trkpt><trkpt lat="40.7407201" lon="9.4976148"><ele>376.0</ele><time>2026-03-27T09:48:48.311Z</time></trkpt><trkpt lat="40.7407865" lon="9.4976599"><ele>376.0</ele><time>2026-03-27T09:48:50.324Z</time></trkpt><trkpt lat="40.7408673" lon="9.4976994"><ele>376.0</ele><time>2026-03-27T09:48:53.32Z</time></trkpt><trkpt lat="40.7409428" lon="9.4977439"><ele>376.0</ele><time>2026-03-27T09:48:56.312Z</time></trkpt><trkpt lat="40.7410294" lon="9.497789"><ele>376.0</ele><time>2026-03-27T09:48:59.322Z</time></trkpt><trkpt lat="40.7411119" lon="9.4978256"><ele>376.0</ele><time>2026-03-27T09:49:01.321Z</time></trkpt><trkpt lat="40.7411958" lon="9.4978626"><ele>376.0</ele><time>2026-03-27T09:49:03.323Z</time></trkpt><trkpt lat="40.7412777" lon="9.4979163"><ele>376.0</ele><time>2026-03-27T09:49:06.321Z</time></trkpt><trkpt lat="40.7413591" lon="9.4979508"><ele>376.0</ele><time>2026-03-27T09:49:08.335Z</time></trkpt><trkpt lat="40.7414398" lon="9.4979686"><ele>370.66666666666663</ele><time>2026-03-27T09:49:10.32Z</time></trkpt><trkpt lat="40.7415132" lon="9.4979866"><ele>365.3333333333333</ele><time>2026-03-27T09:49:12.33Z</time></trkpt><trkpt lat="40.741605" lon="9.4980024"><ele>360.0</ele><time>2026-03-27T09:49:14.321Z</time></trkpt><trkpt lat="40.741692" lon="9.4980426"><ele>354.6666666666667</ele><time>2026-03-27T09:49:16.32Z</time></trkpt><trkpt lat="40.7417692" lon="9.4981066"><ele>349.33333333333337</ele><time>2026-03-27T09:49:18.321Z</time></trkpt><trkpt lat="40.7418497" lon="9.4980754"><ele>344.0</ele><time>2026-03-27T09:49:21.32Z</time></trkpt><trkpt lat="40.7418725" lon="9.4979775"><ele>344.5</ele><time>2026-03-27T09:49:23.317Z</time></trkpt><trkpt lat="40.7418685" lon="9.4978787"><ele>345.0</ele><time>2026-03-27T09:49:25.322Z</time></trkpt><trkpt lat="40.7418738" lon="9.4977658"><ele>345.5</ele><time>2026-03-27T09:49:27.313Z</time></trkpt><trkpt lat="40.7419074" lon="9.4976712"><ele>346.0</ele><time>2026-03-27T09:49:29.319Z</time></trkpt><trkpt lat="40.7419671" lon="9.4976144"><ele>346.5</ele><time>2026-03-27T09:49:31.316Z</time></trkpt><trkpt lat="40.7420366" lon="9.4975543"><ele>347.0</ele><time>2026-03-27T09:49:33.324Z</time></trkpt><trkpt lat="40.7421143" lon="9.4974761"><ele>347.0</ele><time>2026-03-27T09:49:35.315Z</time></trkpt><trkpt lat="40.7421811" lon="9.4974167"><ele>347.0</ele><time>2026-03-27T09:49:37.313Z</time></trkpt><trkpt lat="40.7422352" lon="9.4973521"><ele>347.0</ele><time>2026-03-27T09:49:39.318Z</time></trkpt><trkpt lat="40.7422602" lon="9.4972651"><ele>347.0</ele><time>2026-03-27T09:49:41.312Z</time></trkpt><trkpt lat="40.7422738" lon="9.497171"><ele>347.0</ele><time>2026-03-27T09:49:43.317Z</time></trkpt><trkpt lat="40.7423188" lon="9.4970793"><ele>347.0</ele><time>2026-03-27T09:49:45.317Z</time></trkpt><trkpt lat="40.742382" lon="9.4969956"><ele>350.8571428571429</ele><time>2026-03-27T09:49:47.316Z</time></trkpt><trkpt lat="40.7424295" lon="9.4969067"><ele>354.71428571428567</ele><time>2026-03-27T09:49:49.317Z</time></trkpt><trkpt lat="40.7424556" lon="9.4968202"><ele>358.57142857142856</ele><time>2026-03-27T09:49:51.317Z</time></trkpt><trkpt lat="40.7424587" lon="9.4967326"><ele>362.42857142857144</ele><time>2026-03-27T09:49:53.32Z</time></trkpt><trkpt lat="40.7424628" lon="9.4966401"><ele>366.28571428571433</ele><time>2026-03-27T09:49:55.315Z</time></trkpt><trkpt lat="40.7424717" lon="9.4965561"><ele>370.1428571428571</ele><time>2026-03-27T09:49:57.316Z</time></trkpt><trkpt lat="40.7424947" lon="9.4964441"><ele>374.0</ele><time>2026-03-27T09:49:59.322Z</time></trkpt><trkpt lat="40.7425261" lon="9.4963479"><ele>374.0</ele><time>2026-03-27T09:50:01.322Z</time></trkpt><trkpt lat="40.7425764" lon="9.4962671"><ele>374.0</ele><time>2026-03-27T09:51:15.324Z</time></trkpt><trkpt lat="40.7426374" lon="9.4962396"><ele>374.0</ele><time>2026-03-27T09:51:18.319Z</time></trkpt><trkpt lat="40.7427068" lon="9.4962472"><ele>374.0</ele><time>2026-03-27T09:51:20.313Z</time></trkpt><trkpt lat="40.7427771" lon="9.4962489"><ele>374.0</ele><time>2026-03-27T09:51:22.316Z</time></trkpt><trkpt lat="40.7428727" lon="9.4962586"><ele>374.0</ele><time>2026-03-27T09:51:25.321Z</time></trkpt><trkpt lat="40.7429687" lon="9.4962319"><ele>381.4</ele><time>2026-03-27T09:51:27.324Z</time></trkpt><trkpt lat="40.7430625" lon="9.4961879"><ele>388.79999999999995</ele><time>2026-03-27T09:51:29.324Z</time></trkpt><trkpt lat="40.7431671" lon="9.496157"><ele>396.20000000000005</ele><time>2026-03-27T09:51:32.33Z</time></trkpt><trkpt lat="40.7432568" lon="9.4960794"><ele>403.6</ele><time>2026-03-27T09:51:34.321Z</time></trkpt><trkpt lat="40.7433506" lon="9.4960018"><ele>411.0</ele><time>2026-03-27T09:51:36.325Z</time></trkpt><trkpt lat="40.7434153" lon="9.4959648"><ele>411.0</ele><time>2026-03-27T09:51:37.313Z</time></trkpt><trkpt lat="40.7434752" lon="9.4959276"><ele>411.0</ele><time>2026-03-27T09:51:38.323Z</time></trkpt><trkpt lat="40.7435751" lon="9.4959135"><ele>411.0</ele><time>2026-03-27T09:51:40.318Z</time></trkpt><trkpt lat="40.7436758" lon="9.4959697"><ele>411.0</ele><time>2026-03-27T09:51:42.325Z</time></trkpt><trkpt lat="40.7437556" lon="9.4960728"><ele>411.0</ele><time>2026-03-27T09:51:44.327Z</time></trkpt><trkpt lat="40.7438331" lon="9.4961804"><ele>406.8</ele><time>2026-03-27T09:51:46.312Z</time></trkpt><trkpt lat="40.7439195" lon="9.4962994"><ele>402.6</ele><time>2026-03-27T09:51:48.319Z</time></trkpt><trkpt lat="40.7439711" lon="9.4963738"><ele>398.4</ele><time>2026-03-27T09:51:49.32Z</time></trkpt><trkpt lat="40.7440287" lon="9.4964475"><ele>394.2</ele><time>2026-03-27T09:51:50.316Z</time></trkpt><trkpt lat="40.74409" lon="9.4965305"><ele>390.0</ele><time>2026-03-27T09:51:51.322Z</time></trkpt><trkpt lat="40.7441483" lon="9.4966179"><ele>390.0</ele><time>2026-03-27T09:51:52.322Z</time></trkpt><trkpt lat="40.7441991" lon="9.4967087"><ele>390.0</ele><time>2026-03-27T09:51:53.323Z</time></trkpt><trkpt lat="40.7442365" lon="9.4967812"><ele>390.0</ele><time>2026-03-27T09:51:54.323Z</time></trkpt><trkpt lat="40.7443423" lon="9.4968799"><ele>390.0</ele><time>2026-03-27T09:51:56.319Z</time></trkpt><trkpt lat="40.7444128" lon="9.4969228"><ele>390.0</ele><time>2026-03-27T09:51:57.325Z</time></trkpt><trkpt lat="40.7444911" lon="9.4969529"><ele>390.0</ele><time>2026-03-27T09:51:58.32Z</time></trkpt><trkpt lat="40.7445555" lon="9.4969711"><ele>390.6</ele><time>2026-03-27T09:51:59.32Z</time></trkpt><trkpt lat="40.7446738" lon="9.4969385"><ele>391.2</ele><time>2026-03-27T09:52:01.33Z</time></trkpt><trkpt lat="40.7447592" lon="9.4968246"><ele>391.79999999999995</ele><time>2026-03-27T09:52:03.322Z</time></trkpt><trkpt lat="40.7448065" lon="9.4967553"><ele>392.4</ele><time>2026-03-27T09:52:04.32Z</time></trkpt><trkpt lat="40.7448651" lon="9.4966715"><ele>393.0</ele><time>2026-03-27T09:52:05.324Z</time></trkpt><trkpt lat="40.7449381" lon="9.496579"><ele>393.0</ele><time>2026-03-27T09:52:06.322Z</time></trkpt><trkpt lat="40.7450162" lon="9.4964787"><ele>393.0</ele><time>2026-03-27T09:52:07.324Z</time></trkpt><trkpt lat="40.7450934" lon="9.4963623"><ele>393.0</ele><time>2026-03-27T09:52:08.323Z</time></trkpt><trkpt lat="40.7451622" lon="9.4962411"><ele>393.0</ele><time>2026-03-27T09:52:09.325Z</time></trkpt><trkpt lat="40.7452228" lon="9.4961201"><ele>392.6666666666667</ele><time>2026-03-27T09:52:10.317Z</time></trkpt><trkpt lat="40.7452712" lon="9.4960022"><ele>392.33333333333337</ele><time>2026-03-27T09:52:11.32Z</time></trkpt><trkpt lat="40.7453073" lon="9.4959028"><ele>392.0</ele><time>2026-03-27T09:52:12.318Z</time></trkpt><trkpt lat="40.7453291" lon="9.495823"><ele>391.6666666666667</ele><time>2026-03-27T09:52:13.329Z</time></trkpt><trkpt lat="40.7453655" lon="9.4957038"><ele>391.33333333333337</ele><time>2026-03-27T09:52:15.34Z</time></trkpt><trkpt lat="40.7454074" lon="9.4956072"><ele>391.0</ele><time>2026-03-27T09:52:17.322Z</time></trkpt><trkpt lat="40.7455002" lon="9.4955972"><ele>391.00000000000006</ele><time>2026-03-27T09:52:20.325Z</time></trkpt><trkpt lat="40.7456304" lon="9.4956374"><ele>391.0</ele><time>2026-03-27T09:52:22.32Z</time></trkpt><trkpt lat="40.7457133" lon="9.4956344"><ele>391.0</ele><time>2026-03-27T09:52:23.319Z</time></trkpt><trkpt lat="40.7457866" lon="9.4956399"><ele>391.0</ele><time>2026-03-27T09:52:24.32Z</time></trkpt><trkpt lat="40.7458587" lon="9.4956377"><ele>391.00000000000006</ele><time>2026-03-27T09:52:25.32Z</time></trkpt><trkpt lat="40.7459366" lon="9.4956297"><ele>391.0</ele><time>2026-03-27T09:52:26.32Z</time></trkpt><trkpt lat="40.7460227" lon="9.4956208"><ele>391.50000000000006</ele><time>2026-03-27T09:52:27.316Z</time></trkpt><trkpt lat="40.7461093" lon="9.4955989"><ele>392.0</ele><time>2026-03-27T09:52:28.323Z</time></trkpt><trkpt lat="40.7461927" lon="9.495577"><ele>392.5</ele><time>2026-03-27T09:52:29.322Z</time></trkpt><trkpt lat="40.7462654" lon="9.4955508"><ele>393.0</ele><time>2026-03-27T09:52:30.319Z</time></trkpt><trkpt lat="40.7463413" lon="9.4955161"><ele>393.50000000000006</ele><time>2026-03-27T09:52:31.325Z</time></trkpt><trkpt lat="40.7464125" lon="9.4954679"><ele>394.0</ele><time>2026-03-27T09:52:32.333Z</time></trkpt><trkpt lat="40.7464765" lon="9.495407"><ele>398.6666666666667</ele><time>2026-03-27T09:52:33.331Z</time></trkpt><trkpt lat="40.7465275" lon="9.4953411"><ele>403.33333333333337</ele><time>2026-03-27T09:52:34.326Z</time></trkpt><trkpt lat="40.7466066" lon="9.4952239"><ele>408.0</ele><time>2026-03-27T09:52:36.323Z</time></trkpt><trkpt lat="40.7466579" lon="9.4951161"><ele>412.66666666666663</ele><time>2026-03-27T09:52:38.319Z</time></trkpt><trkpt lat="40.7466866" lon="9.4950368"><ele>417.3333333333333</ele><time>2026-03-27T09:52:40.324Z</time></trkpt><trkpt lat="40.746737" lon="9.4949783"><ele>422.0</ele><time>2026-03-27T09:52:42.323Z</time></trkpt><trkpt lat="40.7468033" lon="9.4949848"><ele>422.16666666666663</ele><time>2026-03-27T09:52:44.326Z</time></trkpt><trkpt lat="40.7468853" lon="9.4950898"><ele>422.3333333333333</ele><time>2026-03-27T09:52:46.319Z</time></trkpt><trkpt lat="40.7469316" lon="9.4951557"><ele>422.5</ele><time>2026-03-27T09:52:47.32Z</time></trkpt><trkpt lat="40.74698" lon="9.4952217"><ele>422.66666666666663</ele><time>2026-03-27T09:52:48.315Z</time></trkpt><trkpt lat="40.7470002" lon="9.4953071"><ele>422.8333333333333</ele><time>2026-03-27T09:52:49.329Z</time></trkpt><trkpt lat="40.747021" lon="9.4954007"><ele>423.0</ele><time>2026-03-27T09:52:50.317Z</time></trkpt><trkpt lat="40.747024" lon="9.4955142"><ele>423.0</ele><time>2026-03-27T09:52:51.32Z</time></trkpt><trkpt lat="40.7470304" lon="9.4956272"><ele>423.0</ele><time>2026-03-27T09:52:52.32Z</time></trkpt><trkpt lat="40.7470398" lon="9.4957237"><ele>423.0</ele><time>2026-03-27T09:52:53.318Z</time></trkpt><trkpt lat="40.7470521" lon="9.4958155"><ele>423.0</ele><time>2026-03-27T09:52:54.324Z</time></trkpt><trkpt lat="40.7470618" lon="9.4959133"><ele>423.0</ele><time>2026-03-27T09:52:55.319Z</time></trkpt><trkpt lat="40.747073" lon="9.496013"><ele>423.0</ele><time>2026-03-27T09:52:56.317Z</time></trkpt><trkpt lat="40.7470888" lon="9.4961058"><ele>423.0</ele><time>2026-03-27T09:52:57.325Z</time></trkpt><trkpt lat="40.7471039" lon="9.4961984"><ele>423.0</ele><time>2026-03-27T09:52:58.319Z</time></trkpt><trkpt lat="40.7471215" lon="9.4962909"><ele>423.0</ele><time>2026-03-27T09:52:59.33Z</time></trkpt><trkpt lat="40.7471435" lon="9.4963802"><ele>423.0</ele><time>2026-03-27T09:53:00.316Z</time></trkpt><trkpt lat="40.7471622" lon="9.496469"><ele>423.0</ele><time>2026-03-27T09:53:01.314Z</time></trkpt><trkpt lat="40.7471752" lon="9.4965555"><ele>423.0</ele><time>2026-03-27T09:53:02.321Z</time></trkpt><trkpt lat="40.7471758" lon="9.4966874"><ele>420.5</ele><time>2026-03-27T09:53:04.32Z</time></trkpt><trkpt lat="40.7471828" lon="9.49678"><ele>418.0</ele><time>2026-03-27T09:53:08.326Z</time></trkpt><trkpt lat="40.7472502" lon="9.4968258"><ele>415.5</ele><time>2026-03-27T09:53:12.326Z</time></trkpt><trkpt lat="40.7473175" lon="9.4967994"><ele>413.0</ele><time>2026-03-27T09:53:14.32Z</time></trkpt><trkpt lat="40.7473986" lon="9.4967332"><ele>410.5</ele><time>2026-03-27T09:53:16.318Z</time></trkpt><trkpt lat="40.7474771" lon="9.4966831"><ele>408.0</ele><time>2026-03-27T09:53:18.316Z</time></trkpt><trkpt lat="40.7475377" lon="9.4966555"><ele>408.0</ele><time>2026-03-27T09:53:20.321Z</time></trkpt><trkpt lat="40.7476161" lon="9.4966697"><ele>408.0</ele><time>2026-03-27T09:53:22.313Z</time></trkpt><trkpt lat="40.7477025" lon="9.4967719"><ele>408.0</ele><time>2026-03-27T09:53:24.317Z</time></trkpt><trkpt lat="40.7477531" lon="9.4968608"><ele>408.0</ele><time>2026-03-27T09:53:25.315Z</time></trkpt><trkpt lat="40.7477902" lon="9.4969508"><ele>408.0</ele><time>2026-03-27T09:53:26.322Z</time></trkpt><trkpt lat="40.7478382" lon="9.497022"><ele>408.0</ele><time>2026-03-27T09:53:27.315Z</time></trkpt><trkpt lat="40.7478907" lon="9.4970836"><ele>411.7142857142857</ele><time>2026-03-27T09:53:28.317Z</time></trkpt><trkpt lat="40.7479247" lon="9.4971609"><ele>415.42857142857144</ele><time>2026-03-27T09:53:29.316Z</time></trkpt><trkpt lat="40.7479476" lon="9.4972437"><ele>419.1428571428571</ele><time>2026-03-27T09:53:30.317Z</time></trkpt><trkpt lat="40.7479792" lon="9.4973393"><ele>422.8571428571429</ele><time>2026-03-27T09:53:31.317Z</time></trkpt><trkpt lat="40.7480125" lon="9.4974344"><ele>426.57142857142856</ele><time>2026-03-27T09:53:32.325Z</time></trkpt><trkpt lat="40.7480412" lon="9.4975185"><ele>430.2857142857143</ele><time>2026-03-27T09:53:33.322Z</time></trkpt><trkpt lat="40.7480544" lon="9.4975999"><ele>434.0</ele><time>2026-03-27T09:53:34.332Z</time></trkpt><trkpt lat="40.748039" lon="9.497726"><ele>434.0</ele><time>2026-03-27T09:53:36.333Z</time></trkpt><trkpt lat="40.7479759" lon="9.4978586"><ele>434.0</ele><time>2026-03-27T09:53:38.317Z</time></trkpt><trkpt lat="40.7479072" lon="9.4979649"><ele>434.0</ele><time>2026-03-27T09:53:40.319Z</time></trkpt><trkpt lat="40.7478646" lon="9.4980989"><ele>434.0</ele><time>2026-03-27T09:53:42.324Z</time></trkpt><trkpt lat="40.7478357" lon="9.4982509"><ele>433.8333333333333</ele><time>2026-03-27T09:53:44.316Z</time></trkpt><trkpt lat="40.7478156" lon="9.4983316"><ele>433.66666666666663</ele><time>2026-03-27T09:53:45.321Z</time></trkpt><trkpt lat="40.7477951" lon="9.4984131"><ele>433.5</ele><time>2026-03-27T09:53:46.314Z</time></trkpt><trkpt lat="40.7477762" lon="9.4984925"><ele>433.33333333333337</ele><time>2026-03-27T09:53:47.322Z</time></trkpt><trkpt lat="40.7477302" lon="9.4986357"><ele>433.1666666666667</ele><time>2026-03-27T09:53:49.319Z</time></trkpt><trkpt lat="40.7476848" lon="9.4987417"><ele>433.0</ele><time>2026-03-27T09:53:51.313Z</time></trkpt><trkpt lat="40.7476396" lon="9.4988212"><ele>425.59999999999997</ele><time>2026-03-27T09:53:53.327Z</time></trkpt><trkpt lat="40.7475909" lon="9.4989144"><ele>418.19999999999993</ele><time>2026-03-27T09:53:56.325Z</time></trkpt><trkpt lat="40.7475243" lon="9.4989795"><ele>410.8</ele><time>2026-03-27T09:53:59.323Z</time></trkpt><trkpt lat="40.7474484" lon="9.4990218"><ele>403.4</ele><time>2026-03-27T09:54:01.324Z</time></trkpt><trkpt lat="40.7473925" lon="9.4991436"><ele>396.0</ele><time>2026-03-27T09:54:03.32Z</time></trkpt><trkpt lat="40.7473793" lon="9.4992815"><ele>396.0</ele><time>2026-03-27T09:54:05.322Z</time></trkpt><trkpt lat="40.7474193" lon="9.4993872"><ele>396.0</ele><time>2026-03-27T09:54:07.32Z</time></trkpt><trkpt lat="40.7474862" lon="9.49948"><ele>396.0</ele><time>2026-03-27T09:54:09.323Z</time></trkpt><trkpt lat="40.7475546" lon="9.4995722"><ele>396.0</ele><time>2026-03-27T09:54:11.327Z</time></trkpt><trkpt lat="40.7476317" lon="9.4996714"><ele>396.0</ele><time>2026-03-27T09:54:13.331Z</time></trkpt><trkpt lat="40.7477104" lon="9.4997859"><ele>397.75</ele><time>2026-03-27T09:54:15.313Z</time></trkpt><trkpt lat="40.7477915" lon="9.4998843"><ele>399.5</ele><time>2026-03-27T09:54:17.323Z</time></trkpt><trkpt lat="40.7478686" lon="9.4999814"><ele>401.25</ele><time>2026-03-27T09:54:19.324Z</time></trkpt><trkpt lat="40.747951" lon="9.500108"><ele>403.0</ele><time>2026-03-27T09:54:21.321Z</time></trkpt><trkpt lat="40.7480276" lon="9.5002242"><ele>403.00000000000006</ele><time>2026-03-27T09:54:23.317Z</time></trkpt><trkpt lat="40.748098" lon="9.5003071"><ele>403.0</ele><time>2026-03-27T09:54:25.324Z</time></trkpt><trkpt lat="40.7481617" lon="9.5003766"><ele>403.0</ele><time>2026-03-27T09:54:27.329Z</time></trkpt><trkpt lat="40.7482243" lon="9.5004269"><ele>403.0</ele><time>2026-03-27T09:54:29.317Z</time></trkpt><trkpt lat="40.7482604" lon="9.5005269"><ele>403.00000000000006</ele><time>2026-03-27T09:54:32.328Z</time></trkpt><trkpt lat="40.7483493" lon="9.500549"><ele>403.0</ele><time>2026-03-27T09:54:59.315Z</time></trkpt><trkpt lat="40.7484323" lon="9.500638"><ele>399.33333333333337</ele><time>2026-03-27T09:55:01.312Z</time></trkpt><trkpt lat="40.7484929" lon="9.5007573"><ele>395.6666666666667</ele><time>2026-03-27T09:55:03.329Z</time></trkpt><trkpt lat="40.7485356" lon="9.5008401"><ele>392.0</ele><time>2026-03-27T09:55:05.324Z</time></trkpt><trkpt lat="40.7485878" lon="9.5009052"><ele>388.33333333333337</ele><time>2026-03-27T09:55:08.318Z</time></trkpt><trkpt lat="40.748642" lon="9.5009479"><ele>384.6666666666667</ele><time>2026-03-27T09:55:12.32Z</time></trkpt><trkpt lat="40.7486963" lon="9.5010162"><ele>381.0</ele><time>2026-03-27T09:55:35.328Z</time></trkpt><trkpt lat="40.7487674" lon="9.5010388"><ele>381.0</ele><time>2026-03-27T09:55:36.314Z</time></trkpt><trkpt lat="40.7488527" lon="9.5010465"><ele>381.0</ele><time>2026-03-27T09:55:37.317Z</time></trkpt><trkpt lat="40.7489371" lon="9.5010392"><ele>381.0</ele><time>2026-03-27T09:55:38.314Z</time></trkpt><trkpt lat="40.7490152" lon="9.5010134"><ele>381.0</ele><time>2026-03-27T09:55:39.319Z</time></trkpt><trkpt lat="40.7490927" lon="9.5009687"><ele>381.0</ele><time>2026-03-27T09:55:40.314Z</time></trkpt><trkpt lat="40.7491694" lon="9.500903"><ele>381.0</ele><time>2026-03-27T09:55:41.322Z</time></trkpt><trkpt lat="40.7492491" lon="9.500826"><ele>381.0</ele><time>2026-03-27T09:55:42.323Z</time></trkpt><trkpt lat="40.7493305" lon="9.5007467"><ele>381.0</ele><time>2026-03-27T09:55:43.32Z</time></trkpt><trkpt lat="40.7494021" lon="9.5006775"><ele>381.0</ele><time>2026-03-27T09:55:44.322Z</time></trkpt><trkpt lat="40.7494595" lon="9.5006131"><ele>381.0</ele><time>2026-03-27T09:55:45.325Z</time></trkpt><trkpt lat="40.7495087" lon="9.5005589"><ele>381.0</ele><time>2026-03-27T09:55:46.326Z</time></trkpt><trkpt lat="40.7496076" lon="9.5004942"><ele>381.0</ele><time>2026-03-27T09:55:48.323Z</time></trkpt><trkpt lat="40.7497073" lon="9.5005382"><ele>383.20000000000005</ele><time>2026-03-27T09:55:50.323Z</time></trkpt><trkpt lat="40.7497661" lon="9.5005813"><ele>385.40000000000003</ele><time>2026-03-27T09:55:51.322Z</time></trkpt><trkpt lat="40.7498193" lon="9.5006821"><ele>387.6</ele><time>2026-03-27T09:55:52.317Z</time></trkpt><trkpt lat="40.7498644" lon="9.5008013"><ele>389.8</ele><time>2026-03-27T09:55:53.313Z</time></trkpt><trkpt lat="40.7499097" lon="9.5009212"><ele>392.0</ele><time>2026-03-27T09:55:54.319Z</time></trkpt><trkpt lat="40.7499599" lon="9.5010323"><ele>392.0</ele><time>2026-03-27T09:55:55.32Z</time></trkpt><trkpt lat="40.7500051" lon="9.501149"><ele>392.0</ele><time>2026-03-27T09:55:56.324Z</time></trkpt><trkpt lat="40.7500672" lon="9.5012548"><ele>392.0</ele><time>2026-03-27T09:55:57.32Z</time></trkpt><trkpt lat="40.7501279" lon="9.5013599"><ele>392.0</ele><time>2026-03-27T09:55:58.318Z</time></trkpt><trkpt lat="40.7501848" lon="9.5014638"><ele>392.0</ele><time>2026-03-27T09:55:59.331Z</time></trkpt><trkpt lat="40.7502396" lon="9.5015636"><ele>387.66666666666663</ele><time>2026-03-27T09:56:00.325Z</time></trkpt><trkpt lat="40.7502959" lon="9.5016575"><ele>383.3333333333333</ele><time>2026-03-27T09:56:01.317Z</time></trkpt><trkpt lat="40.7503504" lon="9.5017375"><ele>379.0</ele><time>2026-03-27T09:56:02.329Z</time></trkpt><trkpt lat="40.7504094" lon="9.5017958"><ele>374.66666666666663</ele><time>2026-03-27T09:56:03.322Z</time></trkpt><trkpt lat="40.7504786" lon="9.5018313"><ele>370.3333333333333</ele><time>2026-03-27T09:56:04.323Z</time></trkpt><trkpt lat="40.7505467" lon="9.5018372"><ele>366.0</ele><time>2026-03-27T09:56:05.327Z</time></trkpt><trkpt lat="40.7506084" lon="9.5018117"><ele>366.0</ele><time>2026-03-27T09:56:06.315Z</time></trkpt><trkpt lat="40.7506643" lon="9.5017597"><ele>366.0</ele><time>2026-03-27T09:56:07.326Z</time></trkpt><trkpt lat="40.7507207" lon="9.5016798"><ele>366.0</ele><time>2026-03-27T09:56:08.313Z</time></trkpt><trkpt lat="40.7507823" lon="9.501592"><ele>366.0</ele><time>2026-03-27T09:56:09.32Z</time></trkpt><trkpt lat="40.7508511" lon="9.5014812"><ele>366.0</ele><time>2026-03-27T09:56:10.334Z</time></trkpt><trkpt lat="40.7509203" lon="9.5013577"><ele>369.4</ele><time>2026-03-27T09:56:11.314Z</time></trkpt><trkpt lat="40.7509846" lon="9.5012417"><ele>372.8</ele><time>2026-03-27T09:56:12.32Z</time></trkpt><trkpt lat="40.7510473" lon="9.501129"><ele>376.2</ele><time>2026-03-27T09:56:13.318Z</time></trkpt><trkpt lat="40.7511236" lon="9.5010323"><ele>379.59999999999997</ele><time>2026-03-27T09:56:14.321Z</time></trkpt><trkpt lat="40.7511891" lon="9.5009506"><ele>383.0</ele><time>2026-03-27T09:56:15.325Z</time></trkpt><trkpt lat="40.7512356" lon="9.5008825"><ele>383.0</ele><time>2026-03-27T09:56:16.319Z</time></trkpt><trkpt lat="40.7513216" lon="9.5007901"><ele>383.0</ele><time>2026-03-27T09:56:18.315Z</time></trkpt><trkpt lat="40.7514554" lon="9.5007891"><ele>383.0</ele><time>2026-03-27T09:56:20.321Z</time></trkpt><trkpt lat="40.7515408" lon="9.5008363"><ele>383.0</ele><time>2026-03-27T09:56:21.319Z</time></trkpt><trkpt lat="40.751653" lon="9.5009099"><ele>383.0</ele><time>2026-03-27T09:56:22.321Z</time></trkpt><trkpt lat="40.751767" lon="9.5009825"><ele>383.0</ele><time>2026-03-27T09:56:23.326Z</time></trkpt><trkpt lat="40.7518785" lon="9.5010526"><ele>383.0</ele><time>2026-03-27T09:56:24.321Z</time></trkpt><trkpt lat="40.7519859" lon="9.5011118"><ele>383.0</ele><time>2026-03-27T09:56:25.329Z</time></trkpt><trkpt lat="40.7520916" lon="9.5011607"><ele>385.2</ele><time>2026-03-27T09:56:26.322Z</time></trkpt><trkpt lat="40.7521888" lon="9.5012072"><ele>387.4</ele><time>2026-03-27T09:56:27.321Z</time></trkpt><trkpt lat="40.7522753" lon="9.5012544"><ele>389.59999999999997</ele><time>2026-03-27T09:56:28.319Z</time></trkpt><trkpt lat="40.7523427" lon="9.5013035"><ele>391.79999999999995</ele><time>2026-03-27T09:56:29.322Z</time></trkpt><trkpt lat="40.7524322" lon="9.5013942"><ele>394.0</ele><time>2026-03-27T09:56:31.326Z</time></trkpt><trkpt lat="40.7525189" lon="9.5014435"><ele>394.00000000000006</ele><time>2026-03-27T09:56:33.322Z</time></trkpt><trkpt lat="40.7526048" lon="9.5014351"><ele>394.0</ele><time>2026-03-27T09:56:35.328Z</time></trkpt><trkpt lat="40.7526942" lon="9.5013721"><ele>394.0</ele><time>2026-03-27T09:56:37.319Z</time></trkpt><trkpt lat="40.7527896" lon="9.5012772"><ele>394.0</ele><time>2026-03-27T09:56:39.327Z</time></trkpt><trkpt lat="40.7528422" lon="9.501219"><ele>394.00000000000006</ele><time>2026-03-27T09:56:40.319Z</time></trkpt><trkpt lat="40.7529029" lon="9.5011635"><ele>394.0</ele><time>2026-03-27T09:56:41.339Z</time></trkpt><trkpt lat="40.752971" lon="9.5011259"><ele>394.0</ele><time>2026-03-27T09:56:42.32Z</time></trkpt><trkpt lat="40.7530395" lon="9.5011167"><ele>394.0</ele><time>2026-03-27T09:56:43.325Z</time></trkpt><trkpt lat="40.7531539" lon="9.5011734"><ele>394.0</ele><time>2026-03-27T09:56:45.324Z</time></trkpt><trkpt lat="40.7532206" lon="9.5012527"><ele>394.0</ele><time>2026-03-27T09:56:46.32Z</time></trkpt><trkpt lat="40.7533168" lon="9.5013896"><ele>394.0</ele><time>2026-03-27T09:56:47.331Z</time></trkpt><trkpt lat="40.7534242" lon="9.501551"><ele>394.25</ele><time>2026-03-27T09:56:48.337Z</time></trkpt><trkpt lat="40.7535215" lon="9.5016933"><ele>394.5</ele><time>2026-03-27T09:56:49.325Z</time></trkpt><trkpt lat="40.7536111" lon="9.5018342"><ele>394.75</ele><time>2026-03-27T09:56:50.322Z</time></trkpt><trkpt lat="40.7536906" lon="9.5019676"><ele>395.0</ele><time>2026-03-27T09:56:51.323Z</time></trkpt><trkpt lat="40.7537523" lon="9.5020795"><ele>390.2</ele><time>2026-03-27T09:56:52.321Z</time></trkpt><trkpt lat="40.7537924" lon="9.5022082"><ele>385.4</ele><time>2026-03-27T09:56:53.326Z</time></trkpt><trkpt lat="40.7538279" lon="9.5023499"><ele>380.6</ele><time>2026-03-27T09:56:54.314Z</time></trkpt><trkpt lat="40.7538473" lon="9.5024936"><ele>375.8</ele><time>2026-03-27T09:56:55.337Z</time></trkpt><trkpt lat="40.7538588" lon="9.5026097"><ele>371.0</ele><time>2026-03-27T09:56:56.325Z</time></trkpt><trkpt lat="40.7538767" lon="9.5026928"><ele>371.0</ele><time>2026-03-27T09:56:57.321Z</time></trkpt><trkpt lat="40.7539192" lon="9.5027573"><ele>371.0</ele><time>2026-03-27T09:56:58.322Z</time></trkpt><trkpt lat="40.7539861" lon="9.5027968"><ele>371.0</ele><time>2026-03-27T09:56:59.321Z</time></trkpt><trkpt lat="40.7540484" lon="9.5028356"><ele>371.0</ele><time>2026-03-27T09:57:00.32Z</time></trkpt><trkpt lat="40.7541058" lon="9.5029633"><ele>371.0</ele><time>2026-03-27T09:57:02.324Z</time></trkpt><trkpt lat="40.7541308" lon="9.5030771"><ele>371.0</ele><time>2026-03-27T09:57:03.322Z</time></trkpt><trkpt lat="40.7541529" lon="9.503217"><ele>368.5</ele><time>2026-03-27T09:57:04.322Z</time></trkpt><trkpt lat="40.7541706" lon="9.5033604"><ele>366.0</ele><time>2026-03-27T09:57:05.316Z</time></trkpt><trkpt lat="40.7541745" lon="9.5035089"><ele>363.5</ele><time>2026-03-27T09:57:06.323Z</time></trkpt><trkpt lat="40.7541784" lon="9.5036875"><ele>361.0</ele><time>2026-03-27T09:57:07.322Z</time></trkpt><trkpt lat="40.7541828" lon="9.5038249"><ele>359.8</ele><time>2026-03-27T09:57:08.342Z</time></trkpt><trkpt lat="40.754185" lon="9.5039754"><ele>358.6</ele><time>2026-03-27T09:57:09.327Z</time></trkpt><trkpt lat="40.7541896" lon="9.5041221"><ele>357.4</ele><time>2026-03-27T09:57:10.323Z</time></trkpt><trkpt lat="40.7541952" lon="9.5042645"><ele>356.2</ele><time>2026-03-27T09:57:11.322Z</time></trkpt><trkpt lat="40.7542051" lon="9.5043988"><ele>355.0</ele><time>2026-03-27T09:57:12.321Z</time></trkpt><trkpt lat="40.7542136" lon="9.5045415"><ele>353.8</ele><time>2026-03-27T09:57:13.324Z</time></trkpt><trkpt lat="40.7542133" lon="9.5046739"><ele>352.6</ele><time>2026-03-27T09:57:14.322Z</time></trkpt><trkpt lat="40.754213" lon="9.5047998"><ele>351.4</ele><time>2026-03-27T09:57:15.324Z</time></trkpt><trkpt lat="40.7542103" lon="9.504914"><ele>350.2</ele><time>2026-03-27T09:57:16.327Z</time></trkpt><trkpt lat="40.7542161" lon="9.5050301"><ele>349.0</ele><time>2026-03-27T09:57:17.325Z</time></trkpt><trkpt lat="40.7542257" lon="9.5051507"><ele>349.0</ele><time>2026-03-27T09:57:18.333Z</time></trkpt><trkpt lat="40.7542269" lon="9.505266"><ele>349.0</ele><time>2026-03-27T09:57:19.33Z</time></trkpt><trkpt lat="40.7542241" lon="9.5053893"><ele>349.0</ele><time>2026-03-27T09:57:20.319Z</time></trkpt><trkpt lat="40.7542163" lon="9.5054999"><ele>349.0</ele><time>2026-03-27T09:57:21.32Z</time></trkpt><trkpt lat="40.754216" lon="9.5055841"><ele>349.0</ele><time>2026-03-27T09:57:22.323Z</time></trkpt><trkpt lat="40.7542545" lon="9.5057119"><ele>349.0</ele><time>2026-03-27T09:57:24.313Z</time></trkpt><trkpt lat="40.7543398" lon="9.5057996"><ele>346.8333333333333</ele><time>2026-03-27T09:57:26.325Z</time></trkpt><trkpt lat="40.7544086" lon="9.5058391"><ele>344.66666666666663</ele><time>2026-03-27T09:57:27.324Z</time></trkpt><trkpt lat="40.7544803" lon="9.5058744"><ele>342.5</ele><time>2026-03-27T09:57:28.323Z</time></trkpt><trkpt lat="40.7545491" lon="9.5059016"><ele>340.3333333333333</ele><time>2026-03-27T09:57:29.318Z</time></trkpt><trkpt lat="40.7546418" lon="9.5058951"><ele>338.1666666666667</ele><time>2026-03-27T09:57:30.324Z</time></trkpt><trkpt lat="40.7547469" lon="9.5058849"><ele>336.0</ele><time>2026-03-27T09:57:31.321Z</time></trkpt><trkpt lat="40.7548669" lon="9.5058784"><ele>336.0</ele><time>2026-03-27T09:57:32.326Z</time></trkpt><trkpt lat="40.7549909" lon="9.505868"><ele>336.0</ele><time>2026-03-27T09:57:33.32Z</time></trkpt><trkpt lat="40.755109" lon="9.505877"><ele>336.0</ele><time>2026-03-27T09:57:34.324Z</time></trkpt><trkpt lat="40.7552162" lon="9.5058874"><ele>336.0</ele><time>2026-03-27T09:57:35.326Z</time></trkpt><trkpt lat="40.7553301" lon="9.5059193"><ele>338.25</ele><time>2026-03-27T09:57:36.321Z</time></trkpt><trkpt lat="40.7554434" lon="9.5059625"><ele>340.5</ele><time>2026-03-27T09:57:37.327Z</time></trkpt><trkpt lat="40.7555634" lon="9.5060031"><ele>342.75</ele><time>2026-03-27T09:57:38.322Z</time></trkpt><trkpt lat="40.7556888" lon="9.5060465"><ele>345.0</ele><time>2026-03-27T09:57:39.322Z</time></trkpt><trkpt lat="40.7558213" lon="9.506105"><ele>345.0</ele><time>2026-03-27T09:57:40.321Z</time></trkpt><trkpt lat="40.7559459" lon="9.5061689"><ele>345.0</ele><time>2026-03-27T09:57:41.324Z</time></trkpt><trkpt lat="40.7560625" lon="9.506231"><ele>345.0</ele><time>2026-03-27T09:57:42.323Z</time></trkpt><trkpt lat="40.7561643" lon="9.5062878"><ele>345.0</ele><time>2026-03-27T09:57:43.311Z</time></trkpt><trkpt lat="40.7562511" lon="9.5063397"><ele>341.0</ele><time>2026-03-27T09:57:44.324Z</time></trkpt><trkpt lat="40.7563089" lon="9.5063905"><ele>337.0</ele><time>2026-03-27T09:57:45.325Z</time></trkpt><trkpt lat="40.7564144" lon="9.5064396"><ele>333.0</ele><time>2026-03-27T09:57:47.324Z</time></trkpt><trkpt lat="40.7565163" lon="9.5064007"><ele>329.0</ele><time>2026-03-27T09:57:49.322Z</time></trkpt><trkpt lat="40.7565754" lon="9.5063109"><ele>325.0</ele><time>2026-03-27T09:57:50.317Z</time></trkpt><trkpt lat="40.7566387" lon="9.5061876"><ele>325.0</ele><time>2026-03-27T09:57:51.327Z</time></trkpt><trkpt lat="40.7567069" lon="9.506055"><ele>325.0</ele><time>2026-03-27T09:57:52.319Z</time></trkpt><trkpt lat="40.7567751" lon="9.505931"><ele>325.0</ele><time>2026-03-27T09:57:53.317Z</time></trkpt><trkpt lat="40.7568316" lon="9.5058141"><ele>325.0</ele><time>2026-03-27T09:57:54.319Z</time></trkpt><trkpt lat="40.7568863" lon="9.5057035"><ele>325.0</ele><time>2026-03-27T09:57:55.32Z</time></trkpt><trkpt lat="40.7569304" lon="9.5055968"><ele>321.5</ele><time>2026-03-27T09:57:56.318Z</time></trkpt><trkpt lat="40.7569662" lon="9.5055046"><ele>318.0</ele><time>2026-03-27T09:57:57.316Z</time></trkpt><trkpt lat="40.7569923" lon="9.5054223"><ele>314.5</ele><time>2026-03-27T09:57:58.32Z</time></trkpt><trkpt lat="40.7570304" lon="9.5052918"><ele>311.0</ele><time>2026-03-27T09:58:00.323Z</time></trkpt><trkpt lat="40.7570551" lon="9.5052049"><ele>307.5</ele><time>2026-03-27T09:58:02.322Z</time></trkpt><trkpt lat="40.7571198" lon="9.5051865"><ele>304.0</ele><time>2026-03-27T09:58:05.314Z</time></trkpt><trkpt lat="40.7571348" lon="9.5053469"><ele>299.59999999999997</ele><time>2026-03-27T09:58:07.313Z</time></trkpt><trkpt lat="40.7571302" lon="9.5054766"><ele>295.2</ele><time>2026-03-27T09:58:08.313Z</time></trkpt><trkpt lat="40.7571267" lon="9.5056081"><ele>290.79999999999995</ele><time>2026-03-27T09:58:09.313Z</time></trkpt><trkpt lat="40.7571222" lon="9.5057344"><ele>286.4</ele><time>2026-03-27T09:58:10.315Z</time></trkpt><trkpt lat="40.7571186" lon="9.5058535"><ele>282.0</ele><time>2026-03-27T09:58:11.318Z</time></trkpt><trkpt lat="40.7571166" lon="9.5059429"><ele>282.0</ele><time>2026-03-27T09:58:12.324Z</time></trkpt><trkpt lat="40.7571122" lon="9.5060494"><ele>282.0</ele><time>2026-03-27T09:58:14.317Z</time></trkpt><trkpt lat="40.757182" lon="9.5060574"><ele>282.0</ele><time>2026-03-27T09:58:19.325Z</time></trkpt><trkpt lat="40.7572314" lon="9.5059179"><ele>282.0</ele><time>2026-03-27T09:58:21.319Z</time></trkpt><trkpt lat="40.7572738" lon="9.5057933"><ele>282.0</ele><time>2026-03-27T09:58:22.325Z</time></trkpt><trkpt lat="40.7573342" lon="9.5056599"><ele>282.0</ele><time>2026-03-27T09:58:23.328Z</time></trkpt><trkpt lat="40.7573975" lon="9.5055297"><ele>282.0</ele><time>2026-03-27T09:58:24.326Z</time></trkpt><trkpt lat="40.7574643" lon="9.5054195"><ele>282.0</ele><time>2026-03-27T09:58:25.325Z</time></trkpt><trkpt lat="40.757527" lon="9.5053209"><ele>282.0</ele><time>2026-03-27T09:58:26.329Z</time></trkpt><trkpt lat="40.7575926" lon="9.5052308"><ele>282.0</ele><time>2026-03-27T09:58:27.324Z</time></trkpt><trkpt lat="40.7576498" lon="9.5051515"><ele>279.4</ele><time>2026-03-27T09:58:28.329Z</time></trkpt><trkpt lat="40.757707" lon="9.5051006"><ele>276.79999999999995</ele><time>2026-03-27T09:58:29.316Z</time></trkpt><trkpt lat="40.7578069" lon="9.5051242"><ele>274.2</ele><time>2026-03-27T09:58:31.323Z</time></trkpt><trkpt lat="40.7578758" lon="9.5051994"><ele>271.59999999999997</ele><time>2026-03-27T09:58:32.315Z</time></trkpt><trkpt lat="40.7579696" lon="9.5053133"><ele>269.0</ele><time>2026-03-27T09:58:33.325Z</time></trkpt><trkpt lat="40.7580682" lon="9.505436"><ele>269.0</ele><time>2026-03-27T09:58:34.316Z</time></trkpt><trkpt lat="40.7581547" lon="9.505539"><ele>269.0</ele><time>2026-03-27T09:58:35.32Z</time></trkpt><trkpt lat="40.7582287" lon="9.5056148"><ele>269.0</ele><time>2026-03-27T09:58:36.32Z</time></trkpt><trkpt lat="40.758299" lon="9.5056665"><ele>269.0</ele><time>2026-03-27T09:58:37.323Z</time></trkpt><trkpt lat="40.7583716" lon="9.5056973"><ele>269.0</ele><time>2026-03-27T09:58:38.319Z</time></trkpt><trkpt lat="40.7584484" lon="9.5057229"><ele>269.0</ele><time>2026-03-27T09:58:39.331Z</time></trkpt><trkpt lat="40.7585414" lon="9.505692"><ele>268.0</ele><time>2026-03-27T09:58:40.323Z</time></trkpt><trkpt lat="40.7586252" lon="9.5056506"><ele>267.0</ele><time>2026-03-27T09:58:41.327Z</time></trkpt><trkpt lat="40.7586998" lon="9.5055935"><ele>266.0</ele><time>2026-03-27T09:58:42.316Z</time></trkpt><trkpt lat="40.7587683" lon="9.5055085"><ele>265.0</ele><time>2026-03-27T09:58:43.32Z</time></trkpt><trkpt lat="40.7588374" lon="9.5054158"><ele>264.0</ele><time>2026-03-27T09:58:44.32Z</time></trkpt><trkpt lat="40.7588899" lon="9.5053001"><ele>268.0</ele><time>2026-03-27T09:58:45.321Z</time></trkpt><trkpt lat="40.7589364" lon="9.505187"><ele>272.0</ele><time>2026-03-27T09:58:46.322Z</time></trkpt><trkpt lat="40.7589702" lon="9.5050864"><ele>276.0</ele><time>2026-03-27T09:58:47.316Z</time></trkpt><trkpt lat="40.7589939" lon="9.5049898"><ele>280.0</ele><time>2026-03-27T09:58:48.32Z</time></trkpt><trkpt lat="40.7590493" lon="9.5048969"><ele>284.0</ele><time>2026-03-27T09:58:50.316Z</time></trkpt><trkpt lat="40.7591404" lon="9.5049038"><ele>288.0</ele><time>2026-03-27T09:58:52.328Z</time></trkpt><trkpt lat="40.7591908" lon="9.5049567"><ele>288.0</ele><time>2026-03-27T09:58:53.321Z</time></trkpt><trkpt lat="40.7592463" lon="9.5050453"><ele>288.0</ele><time>2026-03-27T09:58:54.325Z</time></trkpt><trkpt lat="40.7593046" lon="9.5051444"><ele>288.0</ele><time>2026-03-27T09:58:55.315Z</time></trkpt><trkpt lat="40.7593391" lon="9.5052666"><ele>288.0</ele><time>2026-03-27T09:58:56.314Z</time></trkpt><trkpt lat="40.7593685" lon="9.5053815"><ele>288.0</ele><time>2026-03-27T09:58:57.314Z</time></trkpt><trkpt lat="40.7593949" lon="9.5054896"><ele>285.3333333333333</ele><time>2026-03-27T09:58:58.327Z</time></trkpt><trkpt lat="40.7594203" lon="9.5055973"><ele>282.6666666666667</ele><time>2026-03-27T09:58:59.321Z</time></trkpt><trkpt lat="40.7594486" lon="9.5056943"><ele>280.0</ele><time>2026-03-27T09:59:00.324Z</time></trkpt><trkpt lat="40.7594827" lon="9.5057722"><ele>277.33333333333337</ele><time>2026-03-27T09:59:01.315Z</time></trkpt><trkpt lat="40.7595547" lon="9.5058584"><ele>274.6666666666667</ele><time>2026-03-27T09:59:03.32Z</time></trkpt><trkpt lat="40.7596172" lon="9.5059211"><ele>272.0</ele><time>2026-03-27T09:59:44.328Z</time></trkpt><trkpt lat="40.7596861" lon="9.5059488"><ele>272.0</ele><time>2026-03-27T09:59:46.329Z</time></trkpt><trkpt lat="40.7597932" lon="9.5059844"><ele>272.0</ele><time>2026-03-27T09:59:48.32Z</time></trkpt><trkpt lat="40.7599009" lon="9.5060173"><ele>272.0</ele><time>2026-03-27T09:59:50.32Z</time></trkpt><trkpt lat="40.7599939" lon="9.506046"><ele>272.0</ele><time>2026-03-27T09:59:52.324Z</time></trkpt><trkpt lat="40.7600947" lon="9.5060751"><ele>272.0</ele><time>2026-03-27T09:59:54.332Z</time></trkpt><trkpt lat="40.7601803" lon="9.5060482"><ele>272.0</ele><time>2026-03-27T09:59:56.324Z</time></trkpt><trkpt lat="40.7601483" lon="9.5059263"><ele>272.0</ele><time>2026-03-27T09:59:59.323Z</time></trkpt><trkpt lat="40.7600941" lon="9.5058833"><ele>272.0</ele><time>2026-03-27T10:00:00.322Z</time></trkpt><trkpt lat="40.7600344" lon="9.5058354"><ele>272.0</ele><time>2026-03-27T10:00:01.322Z</time></trkpt><trkpt lat="40.7599656" lon="9.5057635"><ele>272.0</ele><time>2026-03-27T10:00:02.322Z</time></trkpt><trkpt lat="40.759894" lon="9.5056725"><ele>272.0</ele><time>2026-03-27T10:00:03.32Z</time></trkpt><trkpt lat="40.7598099" lon="9.5055712"><ele>272.0</ele><time>2026-03-27T10:00:04.323Z</time></trkpt><trkpt lat="40.7597201" lon="9.5054448"><ele>272.0</ele><time>2026-03-27T10:00:05.324Z</time></trkpt><trkpt lat="40.7596427" lon="9.5053335"><ele>272.0</ele><time>2026-03-27T10:00:06.316Z</time></trkpt><trkpt lat="40.7595817" lon="9.5052315"><ele>272.0</ele><time>2026-03-27T10:00:07.329Z</time></trkpt><trkpt lat="40.759535" lon="9.5051249"><ele>272.0</ele><time>2026-03-27T10:00:08.328Z</time></trkpt><trkpt lat="40.759496" lon="9.5049998"><ele>275.2</ele><time>2026-03-27T10:00:09.318Z</time></trkpt><trkpt lat="40.7594616" lon="9.5048526"><ele>278.4</ele><time>2026-03-27T10:00:10.325Z</time></trkpt><trkpt lat="40.7594101" lon="9.5047209"><ele>281.6</ele><time>2026-03-27T10:00:11.318Z</time></trkpt><trkpt lat="40.7593578" lon="9.5045923"><ele>284.8</ele><time>2026-03-27T10:00:12.321Z</time></trkpt><trkpt lat="40.7593185" lon="9.504493"><ele>288.0</ele><time>2026-03-27T10:00:13.315Z</time></trkpt><trkpt lat="40.7593714" lon="9.5044368"><ele>292.75</ele><time>2026-03-27T10:00:16.319Z</time></trkpt><trkpt lat="40.7594852" lon="9.5045641"><ele>297.5</ele><time>2026-03-27T10:00:18.317Z</time></trkpt><trkpt lat="40.7595822" lon="9.5046637"><ele>302.25</ele><time>2026-03-27T10:00:19.318Z</time></trkpt><trkpt lat="40.7596947" lon="9.5047402"><ele>307.0</ele><time>2026-03-27T10:00:20.313Z</time></trkpt><trkpt lat="40.7598112" lon="9.5048225"><ele>307.0</ele><time>2026-03-27T10:00:21.327Z</time></trkpt><trkpt lat="40.7599125" lon="9.5048945"><ele>307.0</ele><time>2026-03-27T10:00:22.321Z</time></trkpt><trkpt lat="40.7600013" lon="9.5049603"><ele>307.0</ele><time>2026-03-27T10:00:23.325Z</time></trkpt><trkpt lat="40.7600624" lon="9.5049981"><ele>307.0</ele><time>2026-03-27T10:00:24.322Z</time></trkpt><trkpt lat="40.760123" lon="9.5049694"><ele>307.0</ele><time>2026-03-27T10:00:26.315Z</time></trkpt><trkpt lat="40.7600917" lon="9.504882"><ele>307.0</ele><time>2026-03-27T10:00:28.319Z</time></trkpt><trkpt lat="40.7600005" lon="9.5047821"><ele>307.0</ele><time>2026-03-27T10:00:30.319Z</time></trkpt><trkpt lat="40.7599446" lon="9.5046981"><ele>307.0</ele><time>2026-03-27T10:00:31.328Z</time></trkpt><trkpt lat="40.7598996" lon="9.5045949"><ele>307.0</ele><time>2026-03-27T10:00:32.319Z</time></trkpt><trkpt lat="40.7598661" lon="9.5044781"><ele>307.0</ele><time>2026-03-27T10:00:33.325Z</time></trkpt><trkpt lat="40.7598298" lon="9.5043266"><ele>307.0</ele><time>2026-03-27T10:00:34.318Z</time></trkpt><trkpt lat="40.7597834" lon="9.5041527"><ele>313.25</ele><time>2026-03-27T10:00:35.312Z</time></trkpt><trkpt lat="40.7597308" lon="9.5039773"><ele>319.5</ele><time>2026-03-27T10:00:36.312Z</time></trkpt><trkpt lat="40.7596832" lon="9.5038148"><ele>325.75</ele><time>2026-03-27T10:00:37.323Z</time></trkpt><trkpt lat="40.7596401" lon="9.5036617"><ele>332.0</ele><time>2026-03-27T10:00:38.321Z</time></trkpt><trkpt lat="40.7596342" lon="9.5035215"><ele>334.8</ele><time>2026-03-27T10:00:39.32Z</time></trkpt><trkpt lat="40.7596312" lon="9.5033862"><ele>337.6</ele><time>2026-03-27T10:00:40.313Z</time></trkpt><trkpt lat="40.7596594" lon="9.5032682"><ele>340.40000000000003</ele><time>2026-03-27T10:00:41.324Z</time></trkpt><trkpt lat="40.7597021" lon="9.50317"><ele>343.20000000000005</ele><time>2026-03-27T10:00:42.327Z</time></trkpt><trkpt lat="40.759759" lon="9.5030768"><ele>346.0</ele><time>2026-03-27T10:00:43.327Z</time></trkpt><trkpt lat="40.7598281" lon="9.5029922"><ele>346.0</ele><time>2026-03-27T10:00:44.324Z</time></trkpt><trkpt lat="40.7599035" lon="9.5029355"><ele>346.0</ele><time>2026-03-27T10:00:45.329Z</time></trkpt><trkpt lat="40.759987" lon="9.5028407"><ele>346.0</ele><time>2026-03-27T10:00:47.317Z</time></trkpt><trkpt lat="40.7599784" lon="9.502697"><ele>346.0</ele><time>2026-03-27T10:00:49.316Z</time></trkpt><trkpt lat="40.7599232" lon="9.5026019"><ele>346.0</ele><time>2026-03-27T10:00:50.32Z</time></trkpt><trkpt lat="40.759864" lon="9.5024992"><ele>346.16666666666663</ele><time>2026-03-27T10:00:51.324Z</time></trkpt><trkpt lat="40.7597855" lon="9.5023815"><ele>346.3333333333333</ele><time>2026-03-27T10:00:52.325Z</time></trkpt><trkpt lat="40.7597173" lon="9.5022796"><ele>346.5</ele><time>2026-03-27T10:00:53.325Z</time></trkpt><trkpt lat="40.7596774" lon="9.5021896"><ele>346.6666666666667</ele><time>2026-03-27T10:00:54.333Z</time></trkpt><trkpt lat="40.7596424" lon="9.5021058"><ele>346.83333333333337</ele><time>2026-03-27T10:00:55.323Z</time></trkpt><trkpt lat="40.7596089" lon="9.5020351"><ele>347.0</ele><time>2026-03-27T10:00:56.322Z</time></trkpt><trkpt lat="40.7595458" lon="9.5019616"><ele>345.8</ele><time>2026-03-27T10:00:57.328Z</time></trkpt><trkpt lat="40.7594648" lon="9.5018613"><ele>344.6</ele><time>2026-03-27T10:00:58.324Z</time></trkpt><trkpt lat="40.7593978" lon="9.5017445"><ele>343.40000000000003</ele><time>2026-03-27T10:00:59.319Z</time></trkpt><trkpt lat="40.759354" lon="9.5016286"><ele>342.20000000000005</ele><time>2026-03-27T10:01:00.322Z</time></trkpt><trkpt lat="40.7593472" lon="9.5015079"><ele>341.0</ele><time>2026-03-27T10:01:01.321Z</time></trkpt><trkpt lat="40.7593624" lon="9.5013865"><ele>341.0</ele><time>2026-03-27T10:01:02.326Z</time></trkpt><trkpt lat="40.7593962" lon="9.5012551"><ele>341.0</ele><time>2026-03-27T10:01:03.32Z</time></trkpt><trkpt lat="40.7594363" lon="9.5011277"><ele>341.0</ele><time>2026-03-27T10:01:04.331Z</time></trkpt><trkpt lat="40.7594662" lon="9.5010244"><ele>341.0</ele><time>2026-03-27T10:01:05.317Z</time></trkpt><trkpt lat="40.7594805" lon="9.5009268"><ele>341.0</ele><time>2026-03-27T10:01:06.325Z</time></trkpt><trkpt lat="40.7594953" lon="9.5008187"><ele>340.75</ele><time>2026-03-27T10:01:07.322Z</time></trkpt><trkpt lat="40.7594966" lon="9.5006389"><ele>340.5</ele><time>2026-03-27T10:01:08.324Z</time></trkpt><trkpt lat="40.7594962" lon="9.5004559"><ele>340.25</ele><time>2026-03-27T10:01:09.329Z</time></trkpt><trkpt lat="40.7595116" lon="9.5002841"><ele>340.0</ele><time>2026-03-27T10:01:10.327Z</time></trkpt><trkpt lat="40.7595358" lon="9.5001227"><ele>340.8</ele><time>2026-03-27T10:01:11.323Z</time></trkpt><trkpt lat="40.7595637" lon="9.4999662"><ele>341.6</ele><time>2026-03-27T10:01:12.329Z</time></trkpt><trkpt lat="40.7595886" lon="9.4998293"><ele>342.4</ele><time>2026-03-27T10:01:13.325Z</time></trkpt><trkpt lat="40.7596159" lon="9.4997004"><ele>343.2</ele><time>2026-03-27T10:01:14.327Z</time></trkpt><trkpt lat="40.7596403" lon="9.49958"><ele>344.0</ele><time>2026-03-27T10:01:15.325Z</time></trkpt><trkpt lat="40.7596615" lon="9.4994683"><ele>344.33333333333337</ele><time>2026-03-27T10:01:16.332Z</time></trkpt><trkpt lat="40.7596823" lon="9.4993578"><ele>344.6666666666667</ele><time>2026-03-27T10:01:17.316Z</time></trkpt><trkpt lat="40.7597025" lon="9.4992535"><ele>345.0</ele><time>2026-03-27T10:01:18.331Z</time></trkpt><trkpt lat="40.7597225" lon="9.4991486"><ele>345.3333333333333</ele><time>2026-03-27T10:01:19.318Z</time></trkpt><trkpt lat="40.7597392" lon="9.4990516"><ele>345.66666666666663</ele><time>2026-03-27T10:01:20.329Z</time></trkpt><trkpt lat="40.7597555" lon="9.4989594"><ele>346.0</ele><time>2026-03-27T10:01:21.317Z</time></trkpt><trkpt lat="40.759772" lon="9.4988688"><ele>346.0</ele><time>2026-03-27T10:01:22.327Z</time></trkpt><trkpt lat="40.759789" lon="9.4987791"><ele>346.0</ele><time>2026-03-27T10:01:23.324Z</time></trkpt><trkpt lat="40.7598042" lon="9.4986932"><ele>346.0</ele><time>2026-03-27T10:01:24.321Z</time></trkpt><trkpt lat="40.7598008" lon="9.4986049"><ele>346.0</ele><time>2026-03-27T10:01:25.32Z</time></trkpt><trkpt lat="40.7597829" lon="9.4985087"><ele>346.0</ele><time>2026-03-27T10:01:26.324Z</time></trkpt><trkpt lat="40.7597556" lon="9.4984162"><ele>346.0</ele><time>2026-03-27T10:01:27.322Z</time></trkpt><trkpt lat="40.7597289" lon="9.4983307"><ele>346.0</ele><time>2026-03-27T10:01:28.321Z</time></trkpt><trkpt lat="40.7596905" lon="9.4982527"><ele>346.0</ele><time>2026-03-27T10:01:29.317Z</time></trkpt><trkpt lat="40.7596667" lon="9.4981718"><ele>346.0</ele><time>2026-03-27T10:01:30.326Z</time></trkpt><trkpt lat="40.7596854" lon="9.4980238"><ele>346.0</ele><time>2026-03-27T10:01:32.337Z</time></trkpt><trkpt lat="40.7597476" lon="9.4978619"><ele>346.0</ele><time>2026-03-27T10:01:34.326Z</time></trkpt><trkpt lat="40.7597767" lon="9.4977626"><ele>346.0</ele><time>2026-03-27T10:01:35.317Z</time></trkpt><trkpt lat="40.7597946" lon="9.497655"><ele>346.0</ele><time>2026-03-27T10:01:36.317Z</time></trkpt><trkpt lat="40.7598032" lon="9.4975496"><ele>346.0</ele><time>2026-03-27T10:01:37.324Z</time></trkpt><trkpt lat="40.7598095" lon="9.4974537"><ele>346.0</ele><time>2026-03-27T10:01:38.324Z</time></trkpt><trkpt lat="40.7598164" lon="9.4973698"><ele>346.0</ele><time>2026-03-27T10:01:39.319Z</time></trkpt><trkpt lat="40.7598546" lon="9.4973004"><ele>346.0</ele><time>2026-03-27T10:01:40.325Z</time></trkpt><trkpt lat="40.7599478" lon="9.4972084"><ele>346.0</ele><time>2026-03-27T10:01:42.326Z</time></trkpt><trkpt lat="40.7600178" lon="9.497168"><ele>346.0</ele><time>2026-03-27T10:01:43.326Z</time></trkpt><trkpt lat="40.7601096" lon="9.497123"><ele>346.0</ele><time>2026-03-27T10:01:44.313Z</time></trkpt><trkpt lat="40.7602054" lon="9.4970842"><ele>346.0</ele><time>2026-03-27T10:01:45.32Z</time></trkpt><trkpt lat="40.760308" lon="9.4970836"><ele>346.0</ele><time>2026-03-27T10:01:46.314Z</time></trkpt><trkpt lat="40.7604145" lon="9.4970944"><ele>346.0</ele><time>2026-03-27T10:01:47.325Z</time></trkpt><trkpt lat="40.7605147" lon="9.4970993"><ele>347.0</ele><time>2026-03-27T10:01:48.319Z</time></trkpt><trkpt lat="40.7606181" lon="9.4970916"><ele>348.0</ele><time>2026-03-27T10:01:49.318Z</time></trkpt><trkpt lat="40.7607344" lon="9.4970554"><ele>349.0</ele><time>2026-03-27T10:01:50.317Z</time></trkpt><trkpt lat="40.7608551" lon="9.4970052"><ele>350.0</ele><time>2026-03-27T10:01:51.327Z</time></trkpt><trkpt lat="40.7609601" lon="9.4969709"><ele>354.1666666666667</ele><time>2026-03-27T10:01:52.324Z</time></trkpt><trkpt lat="40.7610236" lon="9.4969449"><ele>358.33333333333337</ele><time>2026-03-27T10:01:53.328Z</time></trkpt><trkpt lat="40.761087" lon="9.4968724"><ele>362.5</ele><time>2026-03-27T10:01:55.327Z</time></trkpt><trkpt lat="40.7610213" lon="9.4967817"><ele>366.6666666666667</ele><time>2026-03-27T10:01:57.325Z</time></trkpt><trkpt lat="40.7609546" lon="9.4967334"><ele>370.8333333333333</ele><time>2026-03-27T10:01:58.324Z</time></trkpt><trkpt lat="40.7608776" lon="9.4966819"><ele>375.0</ele><time>2026-03-27T10:01:59.317Z</time></trkpt><trkpt lat="40.760787" lon="9.4966158"><ele>375.0</ele><time>2026-03-27T10:02:00.321Z</time></trkpt><trkpt lat="40.7606917" lon="9.496522"><ele>375.0</ele><time>2026-03-27T10:02:01.325Z</time></trkpt><trkpt lat="40.7606009" lon="9.4964305"><ele>375.0</ele><time>2026-03-27T10:02:02.323Z</time></trkpt><trkpt lat="40.7605055" lon="9.4963398"><ele>375.0</ele><time>2026-03-27T10:02:03.327Z</time></trkpt><trkpt lat="40.7604065" lon="9.4962463"><ele>378.8</ele><time>2026-03-27T10:02:04.32Z</time></trkpt><trkpt lat="40.7603176" lon="9.4961462"><ele>382.6</ele><time>2026-03-27T10:02:05.327Z</time></trkpt><trkpt lat="40.7602421" lon="9.4960552"><ele>386.4</ele><time>2026-03-27T10:02:06.324Z</time></trkpt><trkpt lat="40.760175" lon="9.4959904"><ele>390.2</ele><time>2026-03-27T10:02:07.319Z</time></trkpt><trkpt lat="40.7600869" lon="9.4959371"><ele>394.0</ele><time>2026-03-27T10:02:08.322Z</time></trkpt><trkpt lat="40.7599656" lon="9.495911"><ele>394.75</ele><time>2026-03-27T10:02:09.319Z</time></trkpt><trkpt lat="40.7598454" lon="9.4958688"><ele>395.5</ele><time>2026-03-27T10:02:10.321Z</time></trkpt><trkpt lat="40.7597325" lon="9.4958111"><ele>396.25</ele><time>2026-03-27T10:02:11.325Z</time></trkpt><trkpt lat="40.7596237" lon="9.4957621"><ele>397.0</ele><time>2026-03-27T10:02:12.326Z</time></trkpt><trkpt lat="40.7595152" lon="9.4957063"><ele>397.0</ele><time>2026-03-27T10:02:13.317Z</time></trkpt><trkpt lat="40.7594007" lon="9.4956482"><ele>397.0</ele><time>2026-03-27T10:02:14.319Z</time></trkpt><trkpt lat="40.7592824" lon="9.4955792"><ele>397.0</ele><time>2026-03-27T10:02:15.322Z</time></trkpt><trkpt lat="40.7591694" lon="9.4955041"><ele>397.0</ele><time>2026-03-27T10:02:16.32Z</time></trkpt><trkpt lat="40.7590633" lon="9.4954326"><ele>404.25</ele><time>2026-03-27T10:02:17.316Z</time></trkpt><trkpt lat="40.7589534" lon="9.4953581"><ele>411.5</ele><time>2026-03-27T10:02:18.32Z</time></trkpt><trkpt lat="40.7588367" lon="9.4952922"><ele>418.75</ele><time>2026-03-27T10:02:19.324Z</time></trkpt><trkpt lat="40.7587129" lon="9.4952444"><ele>426.0</ele><time>2026-03-27T10:02:20.32Z</time></trkpt><trkpt lat="40.7585908" lon="9.4952164"><ele>424.25</ele><time>2026-03-27T10:02:21.321Z</time></trkpt><trkpt lat="40.7584762" lon="9.4951693"><ele>422.5</ele><time>2026-03-27T10:02:22.325Z</time></trkpt><trkpt lat="40.7583726" lon="9.4951194"><ele>420.75</ele><time>2026-03-27T10:02:23.328Z</time></trkpt><trkpt lat="40.7582793" lon="9.4950558"><ele>419.0</ele><time>2026-03-27T10:02:24.318Z</time></trkpt><trkpt lat="40.7581773" lon="9.4949826"><ele>419.0</ele><time>2026-03-27T10:02:25.322Z</time></trkpt><trkpt lat="40.7580767" lon="9.4948756"><ele>419.0</ele><time>2026-03-27T10:02:26.323Z</time></trkpt><trkpt lat="40.7579627" lon="9.494784"><ele>419.0</ele><time>2026-03-27T10:02:27.321Z</time></trkpt><trkpt lat="40.7578601" lon="9.4946981"><ele>419.0</ele><time>2026-03-27T10:02:28.325Z</time></trkpt><trkpt lat="40.7577594" lon="9.4946062"><ele>425.0</ele><time>2026-03-27T10:02:29.334Z</time></trkpt><trkpt lat="40.7576569" lon="9.4944951"><ele>431.0</ele><time>2026-03-27T10:02:30.322Z</time></trkpt><trkpt lat="40.7575485" lon="9.4943665"><ele>437.0</ele><time>2026-03-27T10:02:31.321Z</time></trkpt><trkpt lat="40.7574497" lon="9.494256"><ele>443.0</ele><time>2026-03-27T10:02:32.324Z</time></trkpt><trkpt lat="40.7573719" lon="9.4941805"><ele>442.99999999999994</ele><time>2026-03-27T10:02:33.323Z</time></trkpt><trkpt lat="40.7572978" lon="9.4941226"><ele>443.0</ele><time>2026-03-27T10:02:34.322Z</time></trkpt><trkpt lat="40.7572384" lon="9.4940839"><ele>443.0</ele><time>2026-03-27T10:02:35.326Z</time></trkpt><trkpt lat="40.7571674" lon="9.4940506"><ele>443.0</ele><time>2026-03-27T10:02:39.323Z</time></trkpt><trkpt lat="40.7570909" lon="9.4940034"><ele>442.99999999999994</ele><time>2026-03-27T10:02:43.32Z</time></trkpt><trkpt lat="40.7570232" lon="9.4940027"><ele>443.0</ele><time>2026-03-27T10:02:45.322Z</time></trkpt><trkpt lat="40.7569451" lon="9.494094"><ele>443.0</ele><time>2026-03-27T10:02:47.323Z</time></trkpt><trkpt lat="40.7568857" lon="9.4941969"><ele>442.99999999999994</ele><time>2026-03-27T10:02:49.322Z</time></trkpt><trkpt lat="40.7568514" lon="9.4943035"><ele>442.99999999999994</ele><time>2026-03-27T10:02:51.331Z</time></trkpt><trkpt lat="40.7568293" lon="9.494429"><ele>443.0</ele><time>2026-03-27T10:02:53.325Z</time></trkpt><trkpt lat="40.7568037" lon="9.4945819"><ele>443.0</ele><time>2026-03-27T10:02:55.313Z</time></trkpt><trkpt lat="40.7567702" lon="9.4947288"><ele>445.49999999999994</ele><time>2026-03-27T10:02:57.315Z</time></trkpt><trkpt lat="40.7567447" lon="9.4948081"><ele>448.0</ele><time>2026-03-27T10:02:58.311Z</time></trkpt><trkpt lat="40.7567142" lon="9.4948928"><ele>450.5</ele><time>2026-03-27T10:02:59.321Z</time></trkpt><trkpt lat="40.7566842" lon="9.4949816"><ele>453.0</ele><time>2026-03-27T10:03:00.318Z</time></trkpt><trkpt lat="40.7566656" lon="9.4950643"><ele>455.49999999999994</ele><time>2026-03-27T10:03:01.316Z</time></trkpt><trkpt lat="40.7566807" lon="9.4952128"><ele>458.0</ele><time>2026-03-27T10:03:03.318Z</time></trkpt><trkpt lat="40.7567368" lon="9.4953069"><ele>462.25</ele><time>2026-03-27T10:03:04.333Z</time></trkpt><trkpt lat="40.7568118" lon="9.4954221"><ele>466.5</ele><time>2026-03-27T10:03:05.323Z</time></trkpt><trkpt lat="40.7568858" lon="9.4955531"><ele>470.75</ele><time>2026-03-27T10:03:06.317Z</time></trkpt><trkpt lat="40.7569527" lon="9.4956823"><ele>475.0</ele><time>2026-03-27T10:03:07.323Z</time></trkpt><trkpt lat="40.7570171" lon="9.4958101"><ele>468.4</ele><time>2026-03-27T10:03:08.324Z</time></trkpt><trkpt lat="40.7570586" lon="9.4959315"><ele>461.8</ele><time>2026-03-27T10:03:09.321Z</time></trkpt><trkpt lat="40.7571008" lon="9.4960532"><ele>455.20000000000005</ele><time>2026-03-27T10:03:10.324Z</time></trkpt><trkpt lat="40.7571281" lon="9.4961703"><ele>448.6</ele><time>2026-03-27T10:03:11.326Z</time></trkpt><trkpt lat="40.7571563" lon="9.4962925"><ele>442.0</ele><time>2026-03-27T10:03:12.325Z</time></trkpt><trkpt lat="40.7571603" lon="9.496409"><ele>442.00000000000006</ele><time>2026-03-27T10:03:13.326Z</time></trkpt><trkpt lat="40.7571509" lon="9.4965302"><ele>442.0</ele><time>2026-03-27T10:03:14.32Z</time></trkpt><trkpt lat="40.7571423" lon="9.4966622"><ele>442.0</ele><time>2026-03-27T10:03:15.319Z</time></trkpt><trkpt lat="40.7571314" lon="9.4967758"><ele>442.0</ele><time>2026-03-27T10:03:16.323Z</time></trkpt><trkpt lat="40.7571162" lon="9.496868"><ele>442.00000000000006</ele><time>2026-03-27T10:03:17.327Z</time></trkpt><trkpt lat="40.7570687" lon="9.4969524"><ele>442.0</ele><time>2026-03-27T10:03:18.322Z</time></trkpt><trkpt lat="40.7570147" lon="9.4970458"><ele>441.0</ele><time>2026-03-27T10:03:19.32Z</time></trkpt><trkpt lat="40.7569372" lon="9.497154"><ele>440.00000000000006</ele><time>2026-03-27T10:03:20.318Z</time></trkpt><trkpt lat="40.7568758" lon="9.4972596"><ele>439.00000000000006</ele><time>2026-03-27T10:03:21.317Z</time></trkpt><trkpt lat="40.7568115" lon="9.4973653"><ele>438.0</ele><time>2026-03-27T10:03:22.321Z</time></trkpt><trkpt lat="40.7567802" lon="9.4975062"><ele>437.0</ele><time>2026-03-27T10:03:23.32Z</time></trkpt><trkpt lat="40.7567673" lon="9.4976543"><ele>445.0</ele><time>2026-03-27T10:03:24.323Z</time></trkpt><trkpt lat="40.7567646" lon="9.4978162"><ele>453.00000000000006</ele><time>2026-03-27T10:03:25.323Z</time></trkpt><trkpt lat="40.7567622" lon="9.497969"><ele>461.00000000000006</ele><time>2026-03-27T10:03:26.321Z</time></trkpt><trkpt lat="40.756778" lon="9.498098"><ele>469.0</ele><time>2026-03-27T10:03:27.316Z</time></trkpt><trkpt lat="40.7567743" lon="9.4982179"><ele>477.0</ele><time>2026-03-27T10:03:28.32Z</time></trkpt><trkpt lat="40.7567529" lon="9.498318"><ele>477.0</ele><time>2026-03-27T10:03:29.322Z</time></trkpt><trkpt lat="40.7567306" lon="9.4984193"><ele>477.0</ele><time>2026-03-27T10:03:30.32Z</time></trkpt><trkpt lat="40.7566905" lon="9.4985244"><ele>477.0</ele><time>2026-03-27T10:03:31.328Z</time></trkpt><trkpt lat="40.7566598" lon="9.4986416"><ele>477.0</ele><time>2026-03-27T10:03:32.322Z</time></trkpt><trkpt lat="40.75663" lon="9.4987593"><ele>477.0</ele><time>2026-03-27T10:03:33.321Z</time></trkpt><trkpt lat="40.7566061" lon="9.4988667"><ele>477.0</ele><time>2026-03-27T10:03:34.316Z</time></trkpt><trkpt lat="40.7565879" lon="9.4989723"><ele>476.0</ele><time>2026-03-27T10:03:35.326Z</time></trkpt><trkpt lat="40.756569" lon="9.4990906"><ele>475.0</ele><time>2026-03-27T10:03:36.321Z</time></trkpt><trkpt lat="40.7565497" lon="9.4992162"><ele>474.0</ele><time>2026-03-27T10:03:37.323Z</time></trkpt><trkpt lat="40.7565613" lon="9.4994308"><ele>473.0</ele><time>2026-03-27T10:03:39.322Z</time></trkpt><trkpt lat="40.7565724" lon="9.4995665"><ele>474.59999999999997</ele><time>2026-03-27T10:03:40.321Z</time></trkpt><trkpt lat="40.7566081" lon="9.4997084"><ele>476.19999999999993</ele><time>2026-03-27T10:03:41.32Z</time></trkpt><trkpt lat="40.7566555" lon="9.499853"><ele>477.8</ele><time>2026-03-27T10:03:42.32Z</time></trkpt><trkpt lat="40.7567079" lon="9.4999726"><ele>479.4</ele><time>2026-03-27T10:03:43.322Z</time></trkpt><trkpt lat="40.7567603" lon="9.5000816"><ele>481.0</ele><time>2026-03-27T10:03:44.33Z</time></trkpt><trkpt lat="40.756805" lon="9.5001737"><ele>481.00000000000006</ele><time>2026-03-27T10:03:45.32Z</time></trkpt><trkpt lat="40.7568355" lon="9.5002544"><ele>481.0</ele><time>2026-03-27T10:03:46.329Z</time></trkpt><trkpt lat="40.7568584" lon="9.5004035"><ele>481.0</ele><time>2026-03-27T10:03:48.32Z</time></trkpt><trkpt lat="40.7568412" lon="9.5004892"><ele>481.0</ele><time>2026-03-27T10:03:49.327Z</time></trkpt><trkpt lat="40.7568084" lon="9.5005746"><ele>481.00000000000006</ele><time>2026-03-27T10:03:50.321Z</time></trkpt><trkpt lat="40.7567759" lon="9.5006561"><ele>481.0</ele><time>2026-03-27T10:03:51.326Z</time></trkpt><trkpt lat="40.75673" lon="9.5007282"><ele>481.33333333333337</ele><time>2026-03-27T10:03:52.323Z</time></trkpt><trkpt lat="40.7566754" lon="9.5007977"><ele>481.6666666666667</ele><time>2026-03-27T10:03:53.32Z</time></trkpt><trkpt lat="40.7566153" lon="9.5008696"><ele>482.0</ele><time>2026-03-27T10:03:54.317Z</time></trkpt><trkpt lat="40.7565435" lon="9.5009462"><ele>482.33333333333337</ele><time>2026-03-27T10:03:55.322Z</time></trkpt><trkpt lat="40.7564761" lon="9.5010111"><ele>482.6666666666667</ele><time>2026-03-27T10:03:56.32Z</time></trkpt><trkpt lat="40.7564088" lon="9.5010457"><ele>483.0</ele><time>2026-03-27T10:03:57.319Z</time></trkpt><trkpt lat="40.7562897" lon="9.5010542"><ele>483.0</ele><time>2026-03-27T10:03:59.314Z</time></trkpt><trkpt lat="40.7562343" lon="9.5010061"><ele>483.0</ele><time>2026-03-27T10:04:00.315Z</time></trkpt><trkpt lat="40.7561913" lon="9.5009441"><ele>483.0</ele><time>2026-03-27T10:04:01.321Z</time></trkpt><trkpt lat="40.7561477" lon="9.5008669"><ele>483.0</ele><time>2026-03-27T10:04:02.322Z</time></trkpt><trkpt lat="40.7561194" lon="9.5007608"><ele>483.0</ele><time>2026-03-27T10:04:03.318Z</time></trkpt><trkpt lat="40.7561009" lon="9.5006385"><ele>483.0</ele><time>2026-03-27T10:04:04.316Z</time></trkpt><trkpt lat="40.7560942" lon="9.5004995"><ele>482.59999999999997</ele><time>2026-03-27T10:04:05.329Z</time></trkpt><trkpt lat="40.7560854" lon="9.50036"><ele>482.19999999999993</ele><time>2026-03-27T10:04:06.316Z</time></trkpt><trkpt lat="40.7560811" lon="9.5002327"><ele>481.8</ele><time>2026-03-27T10:04:07.317Z</time></trkpt><trkpt lat="40.7560711" lon="9.5001308"><ele>481.4</ele><time>2026-03-27T10:04:08.32Z</time></trkpt><trkpt lat="40.756033" lon="9.5000407"><ele>481.0</ele><time>2026-03-27T10:04:09.323Z</time></trkpt><trkpt lat="40.7559617" lon="9.4999453"><ele>484.6</ele><time>2026-03-27T10:04:10.319Z</time></trkpt><trkpt lat="40.7558896" lon="9.499843"><ele>488.20000000000005</ele><time>2026-03-27T10:04:11.322Z</time></trkpt><trkpt lat="40.7558422" lon="9.4997321"><ele>491.79999999999995</ele><time>2026-03-27T10:04:12.313Z</time></trkpt><trkpt lat="40.7557952" lon="9.499593"><ele>495.4</ele><time>2026-03-27T10:04:13.336Z</time></trkpt><trkpt lat="40.7557413" lon="9.4994476"><ele>499.0</ele><time>2026-03-27T10:04:14.314Z</time></trkpt><trkpt lat="40.7556865" lon="9.4992967"><ele>502.2</ele><time>2026-03-27T10:04:15.324Z</time></trkpt><trkpt lat="40.7556422" lon="9.4991609"><ele>505.4</ele><time>2026-03-27T10:04:16.313Z</time></trkpt><trkpt lat="40.7556134" lon="9.499023"><ele>508.6</ele><time>2026-03-27T10:04:17.317Z</time></trkpt><trkpt lat="40.7555938" lon="9.4988876"><ele>511.8</ele><time>2026-03-27T10:04:18.321Z</time></trkpt><trkpt lat="40.755574" lon="9.4987567"><ele>515.0</ele><time>2026-03-27T10:04:19.323Z</time></trkpt><trkpt lat="40.7555582" lon="9.4986242"><ele>516.6</ele><time>2026-03-27T10:04:20.324Z</time></trkpt><trkpt lat="40.7555457" lon="9.4984936"><ele>518.2</ele><time>2026-03-27T10:04:21.32Z</time></trkpt><trkpt lat="40.7555372" lon="9.4983575"><ele>519.8</ele><time>2026-03-27T10:04:22.316Z</time></trkpt><trkpt lat="40.7555301" lon="9.4982237"><ele>521.4</ele><time>2026-03-27T10:04:23.315Z</time></trkpt><trkpt lat="40.7555201" lon="9.4980868"><ele>523.0</ele><time>2026-03-27T10:04:24.323Z</time></trkpt><trkpt lat="40.7555092" lon="9.4979491"><ele>522.5</ele><time>2026-03-27T10:04:25.324Z</time></trkpt><trkpt lat="40.7554864" lon="9.4978143"><ele>522.0</ele><time>2026-03-27T10:04:26.324Z</time></trkpt><trkpt lat="40.755462" lon="9.4977012"><ele>521.5</ele><time>2026-03-27T10:04:27.324Z</time></trkpt><trkpt lat="40.755442" lon="9.497592"><ele>521.0</ele><time>2026-03-27T10:04:28.33Z</time></trkpt><trkpt lat="40.7554243" lon="9.4974921"><ele>520.5</ele><time>2026-03-27T10:04:29.329Z</time></trkpt><trkpt lat="40.7554063" lon="9.497391"><ele>520.0</ele><time>2026-03-27T10:04:30.328Z</time></trkpt><trkpt lat="40.7553607" lon="9.4973054"><ele>520.0</ele><time>2026-03-27T10:04:31.325Z</time></trkpt><trkpt lat="40.7552982" lon="9.4972224"><ele>520.0</ele><time>2026-03-27T10:04:32.324Z</time></trkpt><trkpt lat="40.7552325" lon="9.4971458"><ele>520.0</ele><time>2026-03-27T10:04:33.327Z</time></trkpt><trkpt lat="40.755173" lon="9.497076"><ele>520.0</ele><time>2026-03-27T10:04:34.327Z</time></trkpt><trkpt lat="40.7551171" lon="9.4970101"><ele>520.0</ele><time>2026-03-27T10:04:35.322Z</time></trkpt><trkpt lat="40.7550627" lon="9.4968732"><ele>520.0</ele><time>2026-03-27T10:04:37.32Z</time></trkpt><trkpt lat="40.7550562" lon="9.4967846"><ele>523.3333333333334</ele><time>2026-03-27T10:04:38.316Z</time></trkpt><trkpt lat="40.7550711" lon="9.496686"><ele>526.6666666666667</ele><time>2026-03-27T10:04:39.318Z</time></trkpt><trkpt lat="40.7550847" lon="9.496586"><ele>530.0</ele><time>2026-03-27T10:04:40.32Z</time></trkpt><trkpt lat="40.7551035" lon="9.4964828"><ele>533.3333333333334</ele><time>2026-03-27T10:04:41.324Z</time></trkpt><trkpt lat="40.7551147" lon="9.4963958"><ele>536.6666666666666</ele><time>2026-03-27T10:04:42.33Z</time></trkpt><trkpt lat="40.7550749" lon="9.4962553"><ele>540.0</ele><time>2026-03-27T10:04:44.315Z</time></trkpt><trkpt lat="40.7550029" lon="9.4962196"><ele>540.0</ele><time>2026-03-27T10:04:45.32Z</time></trkpt><trkpt lat="40.7549254" lon="9.4962066"><ele>540.0</ele><time>2026-03-27T10:04:46.317Z</time></trkpt><trkpt lat="40.7548473" lon="9.4962331"><ele>540.0</ele><time>2026-03-27T10:04:47.32Z</time></trkpt><trkpt lat="40.7547621" lon="9.496261"><ele>540.0</ele><time>2026-03-27T10:04:48.32Z</time></trkpt><trkpt lat="40.7546664" lon="9.4963325"><ele>540.0</ele><time>2026-03-27T10:04:49.318Z</time></trkpt><trkpt lat="40.7545612" lon="9.4964111"><ele>540.2</ele><time>2026-03-27T10:04:50.315Z</time></trkpt><trkpt lat="40.7544663" lon="9.4964905"><ele>540.4</ele><time>2026-03-27T10:04:51.316Z</time></trkpt><trkpt lat="40.7543837" lon="9.4965598"><ele>540.6</ele><time>2026-03-27T10:04:52.32Z</time></trkpt><trkpt lat="40.7543035" lon="9.4966232"><ele>540.8</ele><time>2026-03-27T10:04:53.314Z</time></trkpt><trkpt lat="40.7542194" lon="9.4966541"><ele>541.0</ele><time>2026-03-27T10:04:54.323Z</time></trkpt><trkpt lat="40.7541269" lon="9.4966442"><ele>543.0</ele><time>2026-03-27T10:04:55.315Z</time></trkpt><trkpt lat="40.7540335" lon="9.4966305"><ele>545.0</ele><time>2026-03-27T10:04:56.317Z</time></trkpt><trkpt lat="40.7539332" lon="9.4965857"><ele>547.0</ele><time>2026-03-27T10:04:57.317Z</time></trkpt><trkpt lat="40.7538273" lon="9.4965351"><ele>549.0</ele><time>2026-03-27T10:04:58.316Z</time></trkpt><trkpt lat="40.7537281" lon="9.4965035"><ele>551.0</ele><time>2026-03-27T10:04:59.317Z</time></trkpt><trkpt lat="40.7536552" lon="9.4964876"><ele>551.0</ele><time>2026-03-27T10:05:00.317Z</time></trkpt><trkpt lat="40.753587" lon="9.4964117"><ele>551.0</ele><time>2026-03-27T10:05:02.319Z</time></trkpt><trkpt lat="40.753613" lon="9.4963202"><ele>551.0</ele><time>2026-03-27T10:05:04.329Z</time></trkpt><trkpt lat="40.7536697" lon="9.4962677"><ele>551.0</ele><time>2026-03-27T10:05:05.322Z</time></trkpt><trkpt lat="40.7537349" lon="9.4962184"><ele>551.0</ele><time>2026-03-27T10:05:06.319Z</time></trkpt><trkpt lat="40.7537966" lon="9.4961655"><ele>551.0</ele><time>2026-03-27T10:05:07.324Z</time></trkpt><trkpt lat="40.7538501" lon="9.4960658"><ele>553.4</ele><time>2026-03-27T10:05:08.315Z</time></trkpt><trkpt lat="40.7538962" lon="9.4959488"><ele>555.8</ele><time>2026-03-27T10:05:09.32Z</time></trkpt><trkpt lat="40.7539496" lon="9.4958319"><ele>558.1999999999999</ele><time>2026-03-27T10:05:10.329Z</time></trkpt><trkpt lat="40.7539924" lon="9.4956942"><ele>560.6</ele><time>2026-03-27T10:05:11.324Z</time></trkpt><trkpt lat="40.7540355" lon="9.495558"><ele>563.0</ele><time>2026-03-27T10:05:12.313Z</time></trkpt><trkpt lat="40.7540809" lon="9.4954269"><ele>566.3333333333333</ele><time>2026-03-27T10:05:13.311Z</time></trkpt><trkpt lat="40.7541215" lon="9.4952975"><ele>569.6666666666666</ele><time>2026-03-27T10:05:14.316Z</time></trkpt><trkpt lat="40.7541593" lon="9.495171"><ele>573.0</ele><time>2026-03-27T10:05:15.318Z</time></trkpt><trkpt lat="40.7541909" lon="9.495065"><ele>576.3333333333334</ele><time>2026-03-27T10:05:16.317Z</time></trkpt><trkpt lat="40.7542121" lon="9.4949849"><ele>579.6666666666667</ele><time>2026-03-27T10:05:17.317Z</time></trkpt><trkpt lat="40.754217" lon="9.4948838"><ele>583.0</ele><time>2026-03-27T10:05:19.32Z</time></trkpt><trkpt lat="40.7541298" lon="9.4948433"><ele>583.0</ele><time>2026-03-27T10:05:22.317Z</time></trkpt><trkpt lat="40.754031" lon="9.4949637"><ele>583.0</ele><time>2026-03-27T10:05:24.316Z</time></trkpt><trkpt lat="40.7539625" lon="9.4950425"><ele>583.0</ele><time>2026-03-27T10:05:25.313Z</time></trkpt><trkpt lat="40.7538866" lon="9.4951297"><ele>583.0</ele><time>2026-03-27T10:05:26.321Z</time></trkpt><trkpt lat="40.7537925" lon="9.4952206"><ele>583.0</ele><time>2026-03-27T10:05:27.321Z</time></trkpt><trkpt lat="40.7537014" lon="9.4952976"><ele>583.0</ele><time>2026-03-27T10:05:28.322Z</time></trkpt><trkpt lat="40.7535977" lon="9.4953584"><ele>583.0</ele><time>2026-03-27T10:05:29.32Z</time></trkpt><trkpt lat="40.753487" lon="9.4954241"><ele>583.0</ele><time>2026-03-27T10:05:30.325Z</time></trkpt><trkpt lat="40.7533712" lon="9.4954879"><ele>583.0</ele><time>2026-03-27T10:05:31.311Z</time></trkpt><trkpt lat="40.7532392" lon="9.4955614"><ele>583.5</ele><time>2026-03-27T10:05:32.319Z</time></trkpt><trkpt lat="40.753113" lon="9.4956488"><ele>584.0</ele><time>2026-03-27T10:05:33.323Z</time></trkpt><trkpt lat="40.7529948" lon="9.495733"><ele>584.5</ele><time>2026-03-27T10:05:34.324Z</time></trkpt><trkpt lat="40.7528812" lon="9.4958112"><ele>585.0</ele><time>2026-03-27T10:05:35.321Z</time></trkpt><trkpt lat="40.7527771" lon="9.4958826"><ele>587.6666666666666</ele><time>2026-03-27T10:05:36.325Z</time></trkpt><trkpt lat="40.7526889" lon="9.4959419"><ele>590.3333333333334</ele><time>2026-03-27T10:05:37.318Z</time></trkpt><trkpt lat="40.7525992" lon="9.4959946"><ele>593.0</ele><time>2026-03-27T10:05:38.326Z</time></trkpt><trkpt lat="40.7525158" lon="9.4960158"><ele>595.6666666666667</ele><time>2026-03-27T10:05:39.318Z</time></trkpt><trkpt lat="40.7524478" lon="9.4960012"><ele>598.3333333333334</ele><time>2026-03-27T10:05:40.322Z</time></trkpt><trkpt lat="40.7523805" lon="9.4959426"><ele>601.0</ele><time>2026-03-27T10:05:41.326Z</time></trkpt><trkpt lat="40.7523051" lon="9.4958715"><ele>601.0</ele><time>2026-03-27T10:05:42.315Z</time></trkpt><trkpt lat="40.7522204" lon="9.4957498"><ele>601.0</ele><time>2026-03-27T10:05:43.321Z</time></trkpt><trkpt lat="40.7521216" lon="9.4955929"><ele>601.0</ele><time>2026-03-27T10:05:44.325Z</time></trkpt><trkpt lat="40.7520214" lon="9.495456"><ele>601.0</ele><time>2026-03-27T10:05:45.323Z</time></trkpt><trkpt lat="40.7519375" lon="9.4953456"><ele>601.8333333333334</ele><time>2026-03-27T10:05:46.316Z</time></trkpt><trkpt lat="40.7518599" lon="9.4952468"><ele>602.6666666666667</ele><time>2026-03-27T10:05:47.323Z</time></trkpt><trkpt lat="40.7518098" lon="9.4951517"><ele>603.5</ele><time>2026-03-27T10:05:48.323Z</time></trkpt><trkpt lat="40.751797" lon="9.4950413"><ele>604.3333333333334</ele><time>2026-03-27T10:05:49.326Z</time></trkpt><trkpt lat="40.7517981" lon="9.4949515"><ele>605.1666666666666</ele><time>2026-03-27T10:05:50.322Z</time></trkpt><trkpt lat="40.751816" lon="9.4948554"><ele>606.0</ele><time>2026-03-27T10:05:51.324Z</time></trkpt><trkpt lat="40.7518374" lon="9.4947529"><ele>607.0</ele><time>2026-03-27T10:05:52.324Z</time></trkpt><trkpt lat="40.7518941" lon="9.4946635"><ele>608.0</ele><time>2026-03-27T10:05:53.314Z</time></trkpt><trkpt lat="40.751968" lon="9.4945772"><ele>609.0</ele><time>2026-03-27T10:05:54.328Z</time></trkpt><trkpt lat="40.7520473" lon="9.4944834"><ele>610.0</ele><time>2026-03-27T10:05:55.321Z</time></trkpt><trkpt lat="40.7521352" lon="9.4943747"><ele>611.0</ele><time>2026-03-27T10:05:56.327Z</time></trkpt><trkpt lat="40.7522162" lon="9.4942618"><ele>613.2</ele><time>2026-03-27T10:05:57.321Z</time></trkpt><trkpt lat="40.7522913" lon="9.494155"><ele>615.4000000000001</ele><time>2026-03-27T10:05:58.324Z</time></trkpt><trkpt lat="40.7523626" lon="9.4940584"><ele>617.6</ele><time>2026-03-27T10:05:59.327Z</time></trkpt><trkpt lat="40.7524294" lon="9.4939675"><ele>619.8000000000001</ele><time>2026-03-27T10:06:00.328Z</time></trkpt><trkpt lat="40.7524954" lon="9.4938826"><ele>622.0</ele><time>2026-03-27T10:06:01.323Z</time></trkpt><trkpt lat="40.7525695" lon="9.4937837"><ele>624.5</ele><time>2026-03-27T10:06:02.329Z</time></trkpt><trkpt lat="40.7526476" lon="9.4936774"><ele>627.0</ele><time>2026-03-27T10:06:03.32Z</time></trkpt><trkpt lat="40.7527284" lon="9.4935671"><ele>629.5</ele><time>2026-03-27T10:06:04.329Z</time></trkpt><trkpt lat="40.7528137" lon="9.4934568"><ele>632.0</ele><time>2026-03-27T10:06:05.322Z</time></trkpt><trkpt lat="40.752901" lon="9.4933494"><ele>632.0</ele><time>2026-03-27T10:06:06.319Z</time></trkpt><trkpt lat="40.7529818" lon="9.4932356"><ele>632.0</ele><time>2026-03-27T10:06:07.326Z</time></trkpt><trkpt lat="40.7530594" lon="9.4931237"><ele>632.0</ele><time>2026-03-27T10:06:08.325Z</time></trkpt><trkpt lat="40.7531365" lon="9.4930152"><ele>632.0</ele><time>2026-03-27T10:06:09.315Z</time></trkpt><trkpt lat="40.7532156" lon="9.4929104"><ele>634.2</ele><time>2026-03-27T10:06:10.327Z</time></trkpt><trkpt lat="40.753288" lon="9.4928024"><ele>636.4000000000001</ele><time>2026-03-27T10:06:11.324Z</time></trkpt><trkpt lat="40.7533399" lon="9.4926882"><ele>638.5999999999999</ele><time>2026-03-27T10:06:12.327Z</time></trkpt><trkpt lat="40.7533923" lon="9.4925709"><ele>640.8</ele><time>2026-03-27T10:06:13.326Z</time></trkpt><trkpt lat="40.7534189" lon="9.4924342"><ele>643.0</ele><time>2026-03-27T10:06:14.331Z</time></trkpt><trkpt lat="40.7534399" lon="9.4922864"><ele>643.0</ele><time>2026-03-27T10:06:15.325Z</time></trkpt><trkpt lat="40.753463" lon="9.492138"><ele>643.0</ele><time>2026-03-27T10:06:16.325Z</time></trkpt><trkpt lat="40.7534789" lon="9.4919971"><ele>643.0</ele><time>2026-03-27T10:06:17.326Z</time></trkpt><trkpt lat="40.7534931" lon="9.4918502"><ele>643.0</ele><time>2026-03-27T10:06:18.315Z</time></trkpt><trkpt lat="40.7534861" lon="9.4917122"><ele>643.0</ele><time>2026-03-27T10:06:19.313Z</time></trkpt><trkpt lat="40.7534667" lon="9.4915855"><ele>644.5999999999999</ele><time>2026-03-27T10:06:20.324Z</time></trkpt><trkpt lat="40.7534363" lon="9.4914557"><ele>646.1999999999999</ele><time>2026-03-27T10:06:21.318Z</time></trkpt><trkpt lat="40.7533996" lon="9.4913136"><ele>647.8</ele><time>2026-03-27T10:06:22.32Z</time></trkpt><trkpt lat="40.7533682" lon="9.4911838"><ele>649.4</ele><time>2026-03-27T10:06:23.327Z</time></trkpt><trkpt lat="40.7533251" lon="9.4910965"><ele>651.0</ele><time>2026-03-27T10:06:24.309Z</time></trkpt><trkpt lat="40.7532844" lon="9.4910305"><ele>651.6666666666666</ele><time>2026-03-27T10:06:25.319Z</time></trkpt><trkpt lat="40.7532165" lon="9.4910175"><ele>652.3333333333334</ele><time>2026-03-27T10:06:26.317Z</time></trkpt><trkpt lat="40.7531485" lon="9.4910094"><ele>653.0</ele><time>2026-03-27T10:06:27.314Z</time></trkpt><trkpt lat="40.7530692" lon="9.4910437"><ele>653.6666666666667</ele><time>2026-03-27T10:06:28.312Z</time></trkpt><trkpt lat="40.7529801" lon="9.49108"><ele>654.3333333333334</ele><time>2026-03-27T10:06:29.314Z</time></trkpt><trkpt lat="40.7528626" lon="9.491103"><ele>655.0</ele><time>2026-03-27T10:06:30.312Z</time></trkpt><trkpt lat="40.752731" lon="9.4911158"><ele>657.2</ele><time>2026-03-27T10:06:31.313Z</time></trkpt><trkpt lat="40.7526167" lon="9.4911204"><ele>659.4</ele><time>2026-03-27T10:06:32.317Z</time></trkpt><trkpt lat="40.7525335" lon="9.4911064"><ele>661.5999999999999</ele><time>2026-03-27T10:06:33.327Z</time></trkpt><trkpt lat="40.7524657" lon="9.4910174"><ele>663.8</ele><time>2026-03-27T10:06:35.322Z</time></trkpt><trkpt lat="40.752458" lon="9.4908559"><ele>666.0</ele><time>2026-03-27T10:06:37.333Z</time></trkpt><trkpt lat="40.7524885" lon="9.4907561"><ele>666.0</ele><time>2026-03-27T10:06:38.325Z</time></trkpt><trkpt lat="40.7525154" lon="9.4906764"><ele>666.0</ele><time>2026-03-27T10:06:39.322Z</time></trkpt><trkpt lat="40.7525513" lon="9.4905887"><ele>666.0</ele><time>2026-03-27T10:06:40.32Z</time></trkpt><trkpt lat="40.7525985" lon="9.4904913"><ele>666.0</ele><time>2026-03-27T10:06:41.324Z</time></trkpt><trkpt lat="40.7526391" lon="9.4903869"><ele>666.0</ele><time>2026-03-27T10:06:42.327Z</time></trkpt><trkpt lat="40.752684" lon="9.4902712"><ele>666.0</ele><time>2026-03-27T10:06:43.318Z</time></trkpt><trkpt lat="40.7527284" lon="9.4901378"><ele>666.75</ele><time>2026-03-27T10:06:44.326Z</time></trkpt><trkpt lat="40.7527682" lon="9.4899958"><ele>667.5</ele><time>2026-03-27T10:06:45.326Z</time></trkpt><trkpt lat="40.7528086" lon="9.4898405"><ele>668.25</ele><time>2026-03-27T10:06:46.326Z</time></trkpt><trkpt lat="40.7528416" lon="9.4896816"><ele>669.0</ele><time>2026-03-27T10:06:47.326Z</time></trkpt><trkpt lat="40.7528683" lon="9.4895235"><ele>672.25</ele><time>2026-03-27T10:06:48.325Z</time></trkpt><trkpt lat="40.7528936" lon="9.4893664"><ele>675.5</ele><time>2026-03-27T10:06:49.319Z</time></trkpt><trkpt lat="40.7529164" lon="9.4892114"><ele>678.75</ele><time>2026-03-27T10:06:50.326Z</time></trkpt><trkpt lat="40.7529414" lon="9.4890555"><ele>682.0</ele><time>2026-03-27T10:06:51.322Z</time></trkpt><trkpt lat="40.7529703" lon="9.4888973"><ele>683.5</ele><time>2026-03-27T10:06:52.317Z</time></trkpt><trkpt lat="40.7530004" lon="9.488749"><ele>685.0</ele><time>2026-03-27T10:06:53.322Z</time></trkpt><trkpt lat="40.7530284" lon="9.4885854"><ele>686.5</ele><time>2026-03-27T10:06:54.324Z</time></trkpt><trkpt lat="40.7530371" lon="9.4884183"><ele>688.0</ele><time>2026-03-27T10:06:55.323Z</time></trkpt><trkpt lat="40.7530346" lon="9.4882579"><ele>688.0</ele><time>2026-03-27T10:06:56.318Z</time></trkpt><trkpt lat="40.7530303" lon="9.4881039"><ele>688.0</ele><time>2026-03-27T10:06:57.322Z</time></trkpt><trkpt lat="40.7529985" lon="9.4879656"><ele>688.0</ele><time>2026-03-27T10:06:58.324Z</time></trkpt><trkpt lat="40.7529437" lon="9.4878228"><ele>688.0</ele><time>2026-03-27T10:06:59.323Z</time></trkpt><trkpt lat="40.7528949" lon="9.4876855"><ele>689.3333333333334</ele><time>2026-03-27T10:07:00.314Z</time></trkpt><trkpt lat="40.7528656" lon="9.4875611"><ele>690.6666666666667</ele><time>2026-03-27T10:07:01.321Z</time></trkpt><trkpt lat="40.7528482" lon="9.4874567"><ele>692.0</ele><time>2026-03-27T10:07:02.327Z</time></trkpt><trkpt lat="40.7528263" lon="9.4873657"><ele>693.3333333333334</ele><time>2026-03-27T10:07:03.324Z</time></trkpt><trkpt lat="40.7528048" lon="9.4872846"><ele>694.6666666666666</ele><time>2026-03-27T10:07:04.32Z</time></trkpt><trkpt lat="40.7527627" lon="9.4871527"><ele>696.0</ele><time>2026-03-27T10:07:06.318Z</time></trkpt><trkpt lat="40.752733" lon="9.4870209"><ele>696.0</ele><time>2026-03-27T10:07:08.322Z</time></trkpt><trkpt lat="40.7527114" lon="9.4868971"><ele>696.0</ele><time>2026-03-27T10:07:10.326Z</time></trkpt><trkpt lat="40.7527009" lon="9.4867811"><ele>696.0</ele><time>2026-03-27T10:07:12.313Z</time></trkpt><trkpt lat="40.7526946" lon="9.4866796"><ele>696.0</ele><time>2026-03-27T10:07:14.32Z</time></trkpt><trkpt lat="40.7526979" lon="9.4865697"><ele>696.0</ele><time>2026-03-27T10:07:16.324Z</time></trkpt><trkpt lat="40.7527102" lon="9.4864513"><ele>696.0</ele><time>2026-03-27T10:07:18.318Z</time></trkpt><trkpt lat="40.7527183" lon="9.4863685"><ele>698.75</ele><time>2026-03-27T10:07:19.321Z</time></trkpt><trkpt lat="40.7527282" lon="9.4862664"><ele>701.5</ele><time>2026-03-27T10:07:20.319Z</time></trkpt><trkpt lat="40.7527429" lon="9.4861328"><ele>704.25</ele><time>2026-03-27T10:07:21.323Z</time></trkpt><trkpt lat="40.752768" lon="9.4859629"><ele>707.0</ele><time>2026-03-27T10:07:22.323Z</time></trkpt><trkpt lat="40.7528108" lon="9.4857606"><ele>709.75</ele><time>2026-03-27T10:07:23.333Z</time></trkpt><trkpt lat="40.7528586" lon="9.4855607"><ele>712.5</ele><time>2026-03-27T10:07:24.326Z</time></trkpt><trkpt lat="40.7529008" lon="9.4853761"><ele>715.25</ele><time>2026-03-27T10:07:25.317Z</time></trkpt><trkpt lat="40.7529431" lon="9.4852369"><ele>718.0</ele><time>2026-03-27T10:07:26.317Z</time></trkpt><trkpt lat="40.7529366" lon="9.485116"><ele>720.0</ele><time>2026-03-27T10:07:27.325Z</time></trkpt><trkpt lat="40.7529108" lon="9.4849775"><ele>722.0</ele><time>2026-03-27T10:07:28.318Z</time></trkpt><trkpt lat="40.7528604" lon="9.4848134"><ele>724.0</ele><time>2026-03-27T10:07:29.316Z</time></trkpt><trkpt lat="40.7528054" lon="9.4846374"><ele>726.0</ele><time>2026-03-27T10:07:30.32Z</time></trkpt><trkpt lat="40.7527232" lon="9.4844641"><ele>723.3333333333334</ele><time>2026-03-27T10:07:31.327Z</time></trkpt><trkpt lat="40.7526203" lon="9.4843153"><ele>720.6666666666667</ele><time>2026-03-27T10:07:32.317Z</time></trkpt><trkpt lat="40.7525038" lon="9.4841687"><ele>718.0</ele><time>2026-03-27T10:07:33.326Z</time></trkpt><trkpt lat="40.7523706" lon="9.484035"><ele>718.0</ele><time>2026-03-27T10:07:34.323Z</time></trkpt><trkpt lat="40.7522461" lon="9.4838817"><ele>718.0</ele><time>2026-03-27T10:07:35.316Z</time></trkpt><trkpt lat="40.7521173" lon="9.4837118"><ele>718.0</ele><time>2026-03-27T10:07:36.328Z</time></trkpt><trkpt lat="40.7519876" lon="9.4835347"><ele>716.5</ele><time>2026-03-27T10:07:37.316Z</time></trkpt><trkpt lat="40.7518826" lon="9.4833787"><ele>715.0</ele><time>2026-03-27T10:07:38.329Z</time></trkpt><trkpt lat="40.7517989" lon="9.4832419"><ele>713.5</ele><time>2026-03-27T10:07:39.319Z</time></trkpt><trkpt lat="40.7517133" lon="9.4831155"><ele>712.0</ele><time>2026-03-27T10:07:40.317Z</time></trkpt><trkpt lat="40.7516138" lon="9.4830063"><ele>711.25</ele><time>2026-03-27T10:07:41.324Z</time></trkpt><trkpt lat="40.7515012" lon="9.4828906"><ele>710.5</ele><time>2026-03-27T10:07:42.322Z</time></trkpt><trkpt lat="40.7513941" lon="9.4827977"><ele>709.75</ele><time>2026-03-27T10:07:43.322Z</time></trkpt><trkpt lat="40.7512978" lon="9.482712"><ele>709.0</ele><time>2026-03-27T10:07:44.319Z</time></trkpt><trkpt lat="40.7512129" lon="9.4826317"><ele>709.0</ele><time>2026-03-27T10:07:45.315Z</time></trkpt><trkpt lat="40.7511305" lon="9.4825669"><ele>709.0</ele><time>2026-03-27T10:07:46.326Z</time></trkpt><trkpt lat="40.7510438" lon="9.482514"><ele>709.0</ele><time>2026-03-27T10:07:47.323Z</time></trkpt><trkpt lat="40.7509663" lon="9.4824756"><ele>709.0</ele><time>2026-03-27T10:07:48.333Z</time></trkpt><trkpt lat="40.7508904" lon="9.4824418"><ele>709.0</ele><time>2026-03-27T10:07:49.327Z</time></trkpt><trkpt lat="40.7508239" lon="9.4824145"><ele>709.0</ele><time>2026-03-27T10:07:50.316Z</time></trkpt><trkpt lat="40.7507631" lon="9.482388"><ele>709.25</ele><time>2026-03-27T10:07:51.321Z</time></trkpt><trkpt lat="40.7506452" lon="9.4823413"><ele>709.5</ele><time>2026-03-27T10:07:53.325Z</time></trkpt><trkpt lat="40.7505262" lon="9.4822926"><ele>709.75</ele><time>2026-03-27T10:07:55.323Z</time></trkpt><trkpt lat="40.7503973" lon="9.4822416"><ele>710.0</ele><time>2026-03-27T10:07:57.326Z</time></trkpt><trkpt lat="40.7502985" lon="9.4821796"><ele>709.0</ele><time>2026-03-27T10:07:59.321Z</time></trkpt><trkpt lat="40.7502422" lon="9.4820856"><ele>708.0</ele><time>2026-03-27T10:08:01.327Z</time></trkpt><trkpt lat="40.7502296" lon="9.4819602"><ele>707.0</ele><time>2026-03-27T10:08:03.325Z</time></trkpt><trkpt lat="40.7502215" lon="9.4818281"><ele>706.0</ele><time>2026-03-27T10:08:05.32Z</time></trkpt><trkpt lat="40.7502147" lon="9.4817098"><ele>705.0</ele><time>2026-03-27T10:08:07.322Z</time></trkpt><trkpt lat="40.7502026" lon="9.4815854"><ele>705.0</ele><time>2026-03-27T10:08:09.323Z</time></trkpt><trkpt lat="40.7501941" lon="9.4814556"><ele>705.0</ele><time>2026-03-27T10:08:11.331Z</time></trkpt><trkpt lat="40.7501827" lon="9.4813034"><ele>705.0</ele><time>2026-03-27T10:08:13.318Z</time></trkpt><trkpt lat="40.7501758" lon="9.4812174"><ele>705.0</ele><time>2026-03-27T10:08:14.328Z</time></trkpt><trkpt lat="40.7501711" lon="9.4811223"><ele>705.0</ele><time>2026-03-27T10:08:15.324Z</time></trkpt><trkpt lat="40.7501705" lon="9.4810265"><ele>705.0</ele><time>2026-03-27T10:08:16.317Z</time></trkpt><trkpt lat="40.7501691" lon="9.4809315"><ele>704.5714285714286</ele><time>2026-03-27T10:08:17.32Z</time></trkpt><trkpt lat="40.7501655" lon="9.4808431"><ele>704.1428571428571</ele><time>2026-03-27T10:08:18.327Z</time></trkpt><trkpt lat="40.7501601" lon="9.4807576"><ele>703.7142857142858</ele><time>2026-03-27T10:08:19.323Z</time></trkpt><trkpt lat="40.7501521" lon="9.4805945"><ele>703.2857142857142</ele><time>2026-03-27T10:08:21.315Z</time></trkpt><trkpt lat="40.7501498" lon="9.480511"><ele>702.8571428571429</ele><time>2026-03-27T10:08:22.326Z</time></trkpt><trkpt lat="40.7501406" lon="9.4804284"><ele>702.4285714285714</ele><time>2026-03-27T10:08:23.321Z</time></trkpt><trkpt lat="40.7501327" lon="9.4803438"><ele>702.0</ele><time>2026-03-27T10:08:24.328Z</time></trkpt><trkpt lat="40.750126" lon="9.480257"><ele>700.4000000000001</ele><time>2026-03-27T10:08:25.316Z</time></trkpt><trkpt lat="40.7501199" lon="9.4801719"><ele>698.8000000000001</ele><time>2026-03-27T10:08:26.321Z</time></trkpt><trkpt lat="40.750103" lon="9.4800122"><ele>697.2</ele><time>2026-03-27T10:08:28.322Z</time></trkpt><trkpt lat="40.7500848" lon="9.4798694"><ele>695.6</ele><time>2026-03-27T10:08:30.313Z</time></trkpt><trkpt lat="40.7500955" lon="9.479761"><ele>694.0</ele><time>2026-03-27T10:08:32.324Z</time></trkpt><trkpt lat="40.7501665" lon="9.4797951"><ele>688.5</ele><time>2026-03-27T10:08:36.327Z</time></trkpt><trkpt lat="40.7502388" lon="9.4799424"><ele>683.0</ele><time>2026-03-27T10:08:38.312Z</time></trkpt><trkpt lat="40.7503064" lon="9.4800552"><ele>677.5</ele><time>2026-03-27T10:08:39.324Z</time></trkpt><trkpt lat="40.7503891" lon="9.4801584"><ele>672.0</ele><time>2026-03-27T10:08:40.313Z</time></trkpt><trkpt lat="40.7504777" lon="9.4802327"><ele>672.0</ele><time>2026-03-27T10:08:41.323Z</time></trkpt><trkpt lat="40.7505654" lon="9.4802753"><ele>672.0</ele><time>2026-03-27T10:08:42.315Z</time></trkpt><trkpt lat="40.7506524" lon="9.4803279"><ele>672.0</ele><time>2026-03-27T10:08:43.317Z</time></trkpt><trkpt lat="40.750726" lon="9.4803766"><ele>672.0</ele><time>2026-03-27T10:08:44.316Z</time></trkpt><trkpt lat="40.7507917" lon="9.4804169"><ele>672.0</ele><time>2026-03-27T10:08:45.33Z</time></trkpt><trkpt lat="40.7508618" lon="9.480456"><ele>672.0</ele><time>2026-03-27T10:08:46.312Z</time></trkpt><trkpt lat="40.7509253" lon="9.480495"><ele>674.0</ele><time>2026-03-27T10:08:47.322Z</time></trkpt><trkpt lat="40.7509862" lon="9.4805192"><ele>676.0</ele><time>2026-03-27T10:08:48.328Z</time></trkpt><trkpt lat="40.7510951" lon="9.4805239"><ele>678.0</ele><time>2026-03-27T10:08:50.335Z</time></trkpt><trkpt lat="40.7511727" lon="9.4805267"><ele>680.0</ele><time>2026-03-27T10:08:52.315Z</time></trkpt><trkpt lat="40.7512466" lon="9.48048"><ele>682.0</ele><time>2026-03-27T10:08:55.325Z</time></trkpt><trkpt lat="40.7512572" lon="9.4803934"><ele>684.0</ele><time>2026-03-27T10:08:57.323Z</time></trkpt><trkpt lat="40.7512016" lon="9.4802874"><ele>684.0</ele><time>2026-03-27T10:08:59.321Z</time></trkpt><trkpt lat="40.7511244" lon="9.4801724"><ele>684.0</ele><time>2026-03-27T10:09:01.32Z</time></trkpt><trkpt lat="40.7510539" lon="9.4800554"><ele>684.0</ele><time>2026-03-27T10:09:03.326Z</time></trkpt><trkpt lat="40.7509991" lon="9.479927"><ele>684.0</ele><time>2026-03-27T10:09:05.317Z</time></trkpt><trkpt lat="40.7509658" lon="9.4798519"><ele>684.0</ele><time>2026-03-27T10:09:06.321Z</time></trkpt><trkpt lat="40.7509324" lon="9.4797811"><ele>682.0</ele><time>2026-03-27T10:09:07.324Z</time></trkpt><trkpt lat="40.7508708" lon="9.4796374"><ele>680.0</ele><time>2026-03-27T10:09:09.317Z</time></trkpt><trkpt lat="40.7508427" lon="9.4795607"><ele>678.0</ele><time>2026-03-27T10:09:10.321Z</time></trkpt><trkpt lat="40.7508177" lon="9.4794803"><ele>676.0</ele><time>2026-03-27T10:09:11.322Z</time></trkpt><trkpt lat="40.7508034" lon="9.4793883"><ele>674.0</ele><time>2026-03-27T10:09:12.318Z</time></trkpt><trkpt lat="40.7507885" lon="9.479307"><ele>672.0</ele><time>2026-03-27T10:09:13.327Z</time></trkpt><trkpt lat="40.7507806" lon="9.4792221"><ele>670.8</ele><time>2026-03-27T10:09:14.325Z</time></trkpt><trkpt lat="40.7507646" lon="9.4790739"><ele>669.6</ele><time>2026-03-27T10:09:16.328Z</time></trkpt><trkpt lat="40.7507438" lon="9.4789251"><ele>668.4</ele><time>2026-03-27T10:09:18.319Z</time></trkpt><trkpt lat="40.7507372" lon="9.4788406"><ele>667.1999999999999</ele><time>2026-03-27T10:09:19.322Z</time></trkpt><trkpt lat="40.7506973" lon="9.478732"><ele>666.0</ele><time>2026-03-27T10:09:20.323Z</time></trkpt><trkpt lat="40.7506695" lon="9.4786283"><ele>665.8</ele><time>2026-03-27T10:09:21.324Z</time></trkpt><trkpt lat="40.7506465" lon="9.4785301"><ele>665.5999999999999</ele><time>2026-03-27T10:09:22.324Z</time></trkpt><trkpt lat="40.7506381" lon="9.4784299"><ele>665.4</ele><time>2026-03-27T10:09:23.331Z</time></trkpt><trkpt lat="40.7506188" lon="9.4783073"><ele>665.2</ele><time>2026-03-27T10:09:24.318Z</time></trkpt><trkpt lat="40.750625" lon="9.4781009"><ele>665.0</ele><time>2026-03-27T10:09:25.322Z</time></trkpt><trkpt lat="40.7506117" lon="9.4778478"><ele>663.3333333333333</ele><time>2026-03-27T10:09:26.322Z</time></trkpt><trkpt lat="40.7506031" lon="9.4775875"><ele>661.6666666666666</ele><time>2026-03-27T10:09:27.317Z</time></trkpt><trkpt lat="40.7506067" lon="9.4773524"><ele>660.0</ele><time>2026-03-27T10:09:28.32Z</time></trkpt><trkpt lat="40.7506165" lon="9.4771336"><ele>658.5</ele><time>2026-03-27T10:09:29.321Z</time></trkpt><trkpt lat="40.7506236" lon="9.4769264"><ele>657.0</ele><time>2026-03-27T10:09:30.317Z</time></trkpt><trkpt lat="40.7505958" lon="9.4767319"><ele>655.5</ele><time>2026-03-27T10:09:31.337Z</time></trkpt><trkpt lat="40.7505833" lon="9.4765683"><ele>654.0</ele><time>2026-03-27T10:09:32.319Z</time></trkpt><trkpt lat="40.7505649" lon="9.4764449"><ele>654.0</ele><time>2026-03-27T10:09:33.321Z</time></trkpt><trkpt lat="40.7505358" lon="9.4763088"><ele>654.0</ele><time>2026-03-27T10:09:34.32Z</time></trkpt><trkpt lat="40.7504879" lon="9.4761774"><ele>654.0</ele><time>2026-03-27T10:09:35.326Z</time></trkpt><trkpt lat="40.7504513" lon="9.4760637"><ele>654.0</ele><time>2026-03-27T10:09:36.324Z</time></trkpt><trkpt lat="40.7504341" lon="9.4759327"><ele>654.0</ele><time>2026-03-27T10:09:37.32Z</time></trkpt><trkpt lat="40.7504377" lon="9.4757548"><ele>653.6666666666666</ele><time>2026-03-27T10:09:38.328Z</time></trkpt><trkpt lat="40.7504503" lon="9.4755438"><ele>653.3333333333333</ele><time>2026-03-27T10:09:39.312Z</time></trkpt><trkpt lat="40.7504769" lon="9.4753443"><ele>653.0</ele><time>2026-03-27T10:09:40.315Z</time></trkpt><trkpt lat="40.7505076" lon="9.4751281"><ele>651.6666666666666</ele><time>2026-03-27T10:09:41.317Z</time></trkpt><trkpt lat="40.7505503" lon="9.4749122"><ele>650.3333333333334</ele><time>2026-03-27T10:09:42.323Z</time></trkpt><trkpt lat="40.7505936" lon="9.4747049"><ele>649.0</ele><time>2026-03-27T10:09:43.318Z</time></trkpt><trkpt lat="40.7506338" lon="9.4745139"><ele>646.25</ele><time>2026-03-27T10:09:44.317Z</time></trkpt><trkpt lat="40.7506666" lon="9.4743332"><ele>643.5</ele><time>2026-03-27T10:09:45.344Z</time></trkpt><trkpt lat="40.7506834" lon="9.4741704"><ele>640.75</ele><time>2026-03-27T10:09:46.323Z</time></trkpt><trkpt lat="40.7506943" lon="9.4740319"><ele>638.0</ele><time>2026-03-27T10:09:47.329Z</time></trkpt><trkpt lat="40.7507052" lon="9.4739196"><ele>638.0</ele><time>2026-03-27T10:09:48.321Z</time></trkpt><trkpt lat="40.7506843" lon="9.4737752"><ele>638.0</ele><time>2026-03-27T10:09:50.314Z</time></trkpt><trkpt lat="40.7506514" lon="9.4736011"><ele>638.0</ele><time>2026-03-27T10:09:52.326Z</time></trkpt><trkpt lat="40.7506313" lon="9.4735105"><ele>638.0</ele><time>2026-03-27T10:09:53.32Z</time></trkpt><trkpt lat="40.7506068" lon="9.4734262"><ele>638.0</ele><time>2026-03-27T10:09:54.318Z</time></trkpt><trkpt lat="40.7505808" lon="9.4732931"><ele>637.1999999999999</ele><time>2026-03-27T10:09:55.321Z</time></trkpt><trkpt lat="40.7505479" lon="9.473126"><ele>636.4</ele><time>2026-03-27T10:09:56.324Z</time></trkpt><trkpt lat="40.7505203" lon="9.4730065"><ele>635.5999999999999</ele><time>2026-03-27T10:09:57.322Z</time></trkpt><trkpt lat="40.7504894" lon="9.4729022"><ele>634.8</ele><time>2026-03-27T10:09:58.323Z</time></trkpt><trkpt lat="40.7504493" lon="9.4727957"><ele>634.0</ele><time>2026-03-27T10:09:59.33Z</time></trkpt><trkpt lat="40.750422" lon="9.4726793"><ele>634.0</ele><time>2026-03-27T10:10:00.324Z</time></trkpt><trkpt lat="40.750431" lon="9.47255"><ele>634.0</ele><time>2026-03-27T10:10:01.321Z</time></trkpt><trkpt lat="40.7504436" lon="9.4724346"><ele>634.0</ele><time>2026-03-27T10:10:02.327Z</time></trkpt><trkpt lat="40.7504593" lon="9.4723262"><ele>634.0</ele><time>2026-03-27T10:10:03.326Z</time></trkpt><trkpt lat="40.7504788" lon="9.4722158"><ele>634.0</ele><time>2026-03-27T10:10:04.325Z</time></trkpt><trkpt lat="40.7504951" lon="9.4721231"><ele>634.0</ele><time>2026-03-27T10:10:05.329Z</time></trkpt><trkpt lat="40.7504939" lon="9.4720301"><ele>634.5</ele><time>2026-03-27T10:10:06.318Z</time></trkpt><trkpt lat="40.7504471" lon="9.4719028"><ele>635.0</ele><time>2026-03-27T10:10:08.327Z</time></trkpt><trkpt lat="40.7503873" lon="9.471842"><ele>635.5</ele><time>2026-03-27T10:10:09.332Z</time></trkpt><trkpt lat="40.7503159" lon="9.4718069"><ele>636.0</ele><time>2026-03-27T10:10:10.319Z</time></trkpt><trkpt lat="40.7502418" lon="9.471778"><ele>636.5</ele><time>2026-03-27T10:10:11.319Z</time></trkpt><trkpt lat="40.7501545" lon="9.471708"><ele>637.0</ele><time>2026-03-27T10:10:12.326Z</time></trkpt><trkpt lat="40.7500691" lon="9.4715984"><ele>632.25</ele><time>2026-03-27T10:10:13.317Z</time></trkpt><trkpt lat="40.7499848" lon="9.4714742"><ele>627.5</ele><time>2026-03-27T10:10:14.324Z</time></trkpt><trkpt lat="40.7499185" lon="9.471324"><ele>622.75</ele><time>2026-03-27T10:10:15.321Z</time></trkpt><trkpt lat="40.7498511" lon="9.4711862"><ele>618.0</ele><time>2026-03-27T10:10:16.325Z</time></trkpt><trkpt lat="40.7497916" lon="9.4710611"><ele>618.0</ele><time>2026-03-27T10:10:17.326Z</time></trkpt><trkpt lat="40.7497327" lon="9.4709421"><ele>618.0</ele><time>2026-03-27T10:10:18.32Z</time></trkpt><trkpt lat="40.7496781" lon="9.4708313"><ele>618.0</ele><time>2026-03-27T10:10:19.312Z</time></trkpt><trkpt lat="40.7496225" lon="9.4707222"><ele>618.0</ele><time>2026-03-27T10:10:20.321Z</time></trkpt><trkpt lat="40.7495676" lon="9.4706076"><ele>618.0</ele><time>2026-03-27T10:10:21.323Z</time></trkpt><trkpt lat="40.7495133" lon="9.470497"><ele>618.1999999999999</ele><time>2026-03-27T10:10:22.318Z</time></trkpt><trkpt lat="40.7494518" lon="9.4703703"><ele>618.4</ele><time>2026-03-27T10:10:23.344Z</time></trkpt><trkpt lat="40.7493955" lon="9.4702519"><ele>618.5999999999999</ele><time>2026-03-27T10:10:24.333Z</time></trkpt><trkpt lat="40.7493449" lon="9.4701387"><ele>618.8</ele><time>2026-03-27T10:10:25.328Z</time></trkpt><trkpt lat="40.749295" lon="9.4700234"><ele>619.0</ele><time>2026-03-27T10:10:26.325Z</time></trkpt><trkpt lat="40.7492474" lon="9.4699117"><ele>615.75</ele><time>2026-03-27T10:10:27.32Z</time></trkpt><trkpt lat="40.7491983" lon="9.4698058"><ele>612.5</ele><time>2026-03-27T10:10:28.324Z</time></trkpt><trkpt lat="40.7491291" lon="9.4696795"><ele>609.25</ele><time>2026-03-27T10:10:29.315Z</time></trkpt><trkpt lat="40.7490533" lon="9.4695438"><ele>606.0</ele><time>2026-03-27T10:10:30.322Z</time></trkpt><trkpt lat="40.7489717" lon="9.4694138"><ele>606.0</ele><time>2026-03-27T10:10:31.324Z</time></trkpt><trkpt lat="40.7488928" lon="9.4693"><ele>606.0</ele><time>2026-03-27T10:10:32.319Z</time></trkpt><trkpt lat="40.7488083" lon="9.4691885"><ele>606.0</ele><time>2026-03-27T10:10:33.318Z</time></trkpt><trkpt lat="40.7487298" lon="9.4690732"><ele>606.0</ele><time>2026-03-27T10:10:34.329Z</time></trkpt><trkpt lat="40.7486557" lon="9.4689462"><ele>606.0</ele><time>2026-03-27T10:10:35.324Z</time></trkpt><trkpt lat="40.7485967" lon="9.4688109"><ele>606.0</ele><time>2026-03-27T10:10:36.325Z</time></trkpt><trkpt lat="40.7485453" lon="9.4686704"><ele>606.0</ele><time>2026-03-27T10:10:37.334Z</time></trkpt><trkpt lat="40.7485092" lon="9.4685193"><ele>606.0</ele><time>2026-03-27T10:10:38.319Z</time></trkpt><trkpt lat="40.7484793" lon="9.4683653"><ele>603.0</ele><time>2026-03-27T10:10:39.322Z</time></trkpt><trkpt lat="40.7484513" lon="9.4682123"><ele>600.0</ele><time>2026-03-27T10:10:40.324Z</time></trkpt><trkpt lat="40.7484282" lon="9.468061"><ele>597.0</ele><time>2026-03-27T10:10:41.315Z</time></trkpt><trkpt lat="40.7484031" lon="9.4678971"><ele>594.0</ele><time>2026-03-27T10:10:42.326Z</time></trkpt><trkpt lat="40.7483841" lon="9.4677385"><ele>594.0</ele><time>2026-03-27T10:10:43.323Z</time></trkpt><trkpt lat="40.7483647" lon="9.467593"><ele>594.0</ele><time>2026-03-27T10:10:44.32Z</time></trkpt><trkpt lat="40.7483342" lon="9.4674441"><ele>594.0</ele><time>2026-03-27T10:10:45.323Z</time></trkpt><trkpt lat="40.7482811" lon="9.4673161"><ele>594.0</ele><time>2026-03-27T10:10:46.325Z</time></trkpt><trkpt lat="40.7482199" lon="9.4671975"><ele>594.0</ele><time>2026-03-27T10:10:47.326Z</time></trkpt><trkpt lat="40.748143" lon="9.467069"><ele>595.75</ele><time>2026-03-27T10:10:48.321Z</time></trkpt><trkpt lat="40.7480634" lon="9.4669492"><ele>597.5</ele><time>2026-03-27T10:10:49.32Z</time></trkpt><trkpt lat="40.7479835" lon="9.4668299"><ele>599.25</ele><time>2026-03-27T10:10:50.318Z</time></trkpt><trkpt lat="40.7479053" lon="9.4667152"><ele>601.0</ele><time>2026-03-27T10:10:51.32Z</time></trkpt><trkpt lat="40.7478326" lon="9.4665984"><ele>601.0</ele><time>2026-03-27T10:10:52.322Z</time></trkpt><trkpt lat="40.747738" lon="9.4664949"><ele>601.0</ele><time>2026-03-27T10:10:53.315Z</time></trkpt><trkpt lat="40.7476413" lon="9.4664027"><ele>601.0</ele><time>2026-03-27T10:10:54.317Z</time></trkpt><trkpt lat="40.7475431" lon="9.4663331"><ele>601.0</ele><time>2026-03-27T10:10:55.314Z</time></trkpt><trkpt lat="40.7474413" lon="9.4662932"><ele>599.8</ele><time>2026-03-27T10:10:56.316Z</time></trkpt><trkpt lat="40.7473415" lon="9.4662587"><ele>598.6</ele><time>2026-03-27T10:10:57.32Z</time></trkpt><trkpt lat="40.7472533" lon="9.4662071"><ele>597.4</ele><time>2026-03-27T10:10:58.318Z</time></trkpt><trkpt lat="40.7471875" lon="9.4661437"><ele>596.2</ele><time>2026-03-27T10:10:59.324Z</time></trkpt><trkpt lat="40.7471239" lon="9.4660501"><ele>595.0</ele><time>2026-03-27T10:11:00.316Z</time></trkpt><trkpt lat="40.7470437" lon="9.4659212"><ele>595.0</ele><time>2026-03-27T10:11:01.315Z</time></trkpt><trkpt lat="40.7469795" lon="9.4658119"><ele>595.0</ele><time>2026-03-27T10:11:02.329Z</time></trkpt><trkpt lat="40.7469342" lon="9.4657066"><ele>595.0</ele><time>2026-03-27T10:11:03.319Z</time></trkpt><trkpt lat="40.7469127" lon="9.4656102"><ele>595.0</ele><time>2026-03-27T10:11:04.313Z</time></trkpt><trkpt lat="40.7469003" lon="9.4654818"><ele>595.0</ele><time>2026-03-27T10:11:05.32Z</time></trkpt><trkpt lat="40.7469071" lon="9.4653419"><ele>595.6</ele><time>2026-03-27T10:11:06.325Z</time></trkpt><trkpt lat="40.7469198" lon="9.4652123"><ele>596.2</ele><time>2026-03-27T10:11:07.321Z</time></trkpt><trkpt lat="40.7469356" lon="9.465096"><ele>596.8</ele><time>2026-03-27T10:11:08.324Z</time></trkpt><trkpt lat="40.7469496" lon="9.4649989"><ele>597.4</ele><time>2026-03-27T10:11:09.329Z</time></trkpt><trkpt lat="40.7469637" lon="9.4648405"><ele>598.0</ele><time>2026-03-27T10:11:11.334Z</time></trkpt><trkpt lat="40.7469664" lon="9.4646978"><ele>597.8</ele><time>2026-03-27T10:11:13.324Z</time></trkpt><trkpt lat="40.7469628" lon="9.4645424"><ele>597.5999999999999</ele><time>2026-03-27T10:11:15.322Z</time></trkpt><trkpt lat="40.7469398" lon="9.4643994"><ele>597.4000000000001</ele><time>2026-03-27T10:11:17.318Z</time></trkpt><trkpt lat="40.7469302" lon="9.4642373"><ele>597.2</ele><time>2026-03-27T10:11:19.321Z</time></trkpt><trkpt lat="40.7469169" lon="9.4641469"><ele>597.0</ele><time>2026-03-27T10:11:20.323Z</time></trkpt><trkpt lat="40.7468991" lon="9.4640496"><ele>597.0000000000001</ele><time>2026-03-27T10:11:21.324Z</time></trkpt><trkpt lat="40.7468796" lon="9.4639551"><ele>597.0</ele><time>2026-03-27T10:11:22.323Z</time></trkpt><trkpt lat="40.7468585" lon="9.4638688"><ele>597.0</ele><time>2026-03-27T10:11:23.329Z</time></trkpt><trkpt lat="40.7468386" lon="9.4637836"><ele>597.0</ele><time>2026-03-27T10:11:24.322Z</time></trkpt><trkpt lat="40.7468185" lon="9.4637005"><ele>597.0</ele><time>2026-03-27T10:11:25.327Z</time></trkpt><trkpt lat="40.7468134" lon="9.4636148"><ele>597.0000000000001</ele><time>2026-03-27T10:11:26.323Z</time></trkpt><trkpt lat="40.7468045" lon="9.4635222"><ele>597.0</ele><time>2026-03-27T10:11:27.328Z</time></trkpt><trkpt lat="40.7467898" lon="9.4633744"><ele>596.0</ele><time>2026-03-27T10:11:29.32Z</time></trkpt><trkpt lat="40.7468097" lon="9.4632246"><ele>595.0</ele><time>2026-03-27T10:11:31.318Z</time></trkpt><trkpt lat="40.746843" lon="9.4630899"><ele>594.0</ele><time>2026-03-27T10:11:33.317Z</time></trkpt><trkpt lat="40.7469178" lon="9.4629981"><ele>593.0</ele><time>2026-03-27T10:11:35.317Z</time></trkpt><trkpt lat="40.7470142" lon="9.4629227"><ele>592.0</ele><time>2026-03-27T10:11:37.318Z</time></trkpt><trkpt lat="40.7471287" lon="9.4628552"><ele>591.3333333333334</ele><time>2026-03-27T10:11:39.326Z</time></trkpt><trkpt lat="40.7471942" lon="9.4628212"><ele>590.6666666666667</ele><time>2026-03-27T10:11:40.325Z</time></trkpt><trkpt lat="40.7472632" lon="9.4627867"><ele>590.0</ele><time>2026-03-27T10:11:41.328Z</time></trkpt><trkpt lat="40.7473317" lon="9.4627574"><ele>589.3333333333334</ele><time>2026-03-27T10:11:42.323Z</time></trkpt><trkpt lat="40.7473988" lon="9.4627205"><ele>588.6666666666666</ele><time>2026-03-27T10:11:43.319Z</time></trkpt><trkpt lat="40.7474604" lon="9.4626767"><ele>588.0</ele><time>2026-03-27T10:11:44.325Z</time></trkpt><trkpt lat="40.7475589" lon="9.4625957"><ele>588.0</ele><time>2026-03-27T10:11:46.318Z</time></trkpt><trkpt lat="40.7476374" lon="9.4625211"><ele>588.0</ele><time>2026-03-27T10:11:48.325Z</time></trkpt><trkpt lat="40.7476974" lon="9.4624361"><ele>588.0</ele><time>2026-03-27T10:11:50.323Z</time></trkpt><trkpt lat="40.7477419" lon="9.4623387"><ele>588.0</ele><time>2026-03-27T10:11:52.322Z</time></trkpt><trkpt lat="40.7477877" lon="9.4622435"><ele>588.0</ele><time>2026-03-27T10:11:54.322Z</time></trkpt><trkpt lat="40.7478409" lon="9.46216"><ele>588.0</ele><time>2026-03-27T10:11:56.33Z</time></trkpt><trkpt lat="40.7478981" lon="9.4620676"><ele>587.5</ele><time>2026-03-27T10:11:58.321Z</time></trkpt><trkpt lat="40.747947" lon="9.4619752"><ele>587.0</ele><time>2026-03-27T10:12:00.317Z</time></trkpt><trkpt lat="40.7480085" lon="9.4618824"><ele>586.5</ele><time>2026-03-27T10:12:02.317Z</time></trkpt><trkpt lat="40.74805" lon="9.461819"><ele>586.0</ele><time>2026-03-27T10:12:03.313Z</time></trkpt><trkpt lat="40.7481082" lon="9.4617487"><ele>585.5</ele><time>2026-03-27T10:12:04.318Z</time></trkpt><trkpt lat="40.7481602" lon="9.4616825"><ele>585.0</ele><time>2026-03-27T10:12:05.325Z</time></trkpt><trkpt lat="40.7482224" lon="9.4616166"><ele>585.0</ele><time>2026-03-27T10:12:06.32Z</time></trkpt><trkpt lat="40.7482821" lon="9.4615567"><ele>585.0</ele><time>2026-03-27T10:12:07.316Z</time></trkpt><trkpt lat="40.7483408" lon="9.4615097"><ele>585.0</ele><time>2026-03-27T10:12:08.319Z</time></trkpt><trkpt lat="40.7484001" lon="9.4614703"><ele>585.0</ele><time>2026-03-27T10:12:09.313Z</time></trkpt><trkpt lat="40.7484597" lon="9.4614391"><ele>585.0</ele><time>2026-03-27T10:12:10.315Z</time></trkpt><trkpt lat="40.7485348" lon="9.4613646"><ele>585.0</ele><time>2026-03-27T10:12:12.325Z</time></trkpt><trkpt lat="40.7485465" lon="9.4612685"><ele>585.0</ele><time>2026-03-27T10:12:14.325Z</time></trkpt><trkpt lat="40.7485321" lon="9.4611829"><ele>584.5</ele><time>2026-03-27T10:12:17.33Z</time></trkpt><trkpt lat="40.748509" lon="9.4610994"><ele>584.0</ele><time>2026-03-27T10:12:20.327Z</time></trkpt><trkpt lat="40.7484651" lon="9.4610119"><ele>583.5</ele><time>2026-03-27T10:12:23.319Z</time></trkpt><trkpt lat="40.7484413" lon="9.4609305"><ele>583.0</ele><time>2026-03-27T10:12:26.329Z</time></trkpt><trkpt lat="40.7484851" lon="9.4607976"><ele>582.5</ele><time>2026-03-27T10:12:29.328Z</time></trkpt><trkpt lat="40.7485418" lon="9.4606513"><ele>582.0</ele><time>2026-03-27T10:12:31.325Z</time></trkpt><trkpt lat="40.7485681" lon="9.4605485"><ele>580.0</ele><time>2026-03-27T10:12:32.325Z</time></trkpt><trkpt lat="40.7485791" lon="9.4604308"><ele>578.0</ele><time>2026-03-27T10:12:33.323Z</time></trkpt><trkpt lat="40.7485878" lon="9.460295"><ele>576.0</ele><time>2026-03-27T10:12:34.324Z</time></trkpt><trkpt lat="40.748584" lon="9.4601619"><ele>574.0</ele><time>2026-03-27T10:12:35.324Z</time></trkpt><trkpt lat="40.7485828" lon="9.4600386"><ele>572.0</ele><time>2026-03-27T10:12:36.326Z</time></trkpt><trkpt lat="40.7485802" lon="9.459936"><ele>572.0</ele><time>2026-03-27T10:12:37.326Z</time></trkpt><trkpt lat="40.7485709" lon="9.4598505"><ele>572.0</ele><time>2026-03-27T10:12:38.327Z</time></trkpt><trkpt lat="40.748556" lon="9.4597156"><ele>572.0</ele><time>2026-03-27T10:12:40.326Z</time></trkpt><trkpt lat="40.7485445" lon="9.4595851"><ele>572.0</ele><time>2026-03-27T10:12:42.325Z</time></trkpt><trkpt lat="40.7485741" lon="9.4595008"><ele>572.0</ele><time>2026-03-27T10:12:43.32Z</time></trkpt><trkpt lat="40.7486027" lon="9.4594029"><ele>572.0</ele><time>2026-03-27T10:12:44.316Z</time></trkpt><trkpt lat="40.7486082" lon="9.4592907"><ele>571.8000000000001</ele><time>2026-03-27T10:12:45.32Z</time></trkpt><trkpt lat="40.7485862" lon="9.4591755"><ele>571.6</ele><time>2026-03-27T10:12:46.315Z</time></trkpt><trkpt lat="40.7485659" lon="9.4590859"><ele>571.4000000000001</ele><time>2026-03-27T10:12:47.316Z</time></trkpt><trkpt lat="40.7484847" lon="9.4589265"><ele>571.2</ele><time>2026-03-27T10:12:49.314Z</time></trkpt><trkpt lat="40.7484344" lon="9.458796"><ele>571.0</ele><time>2026-03-27T10:12:50.325Z</time></trkpt><trkpt lat="40.7483892" lon="9.4586585"><ele>570.8</ele><time>2026-03-27T10:12:51.315Z</time></trkpt><trkpt lat="40.7483464" lon="9.4585342"><ele>570.6</ele><time>2026-03-27T10:12:52.317Z</time></trkpt><trkpt lat="40.7483112" lon="9.4584238"><ele>570.4</ele><time>2026-03-27T10:12:53.317Z</time></trkpt><trkpt lat="40.7482756" lon="9.4583078"><ele>570.2</ele><time>2026-03-27T10:12:54.313Z</time></trkpt><trkpt lat="40.7482422" lon="9.4581949"><ele>570.0</ele><time>2026-03-27T10:12:55.318Z</time></trkpt><trkpt lat="40.7482088" lon="9.4580796"><ele>570.0</ele><time>2026-03-27T10:12:56.328Z</time></trkpt><trkpt lat="40.7481732" lon="9.4579641"><ele>570.0</ele><time>2026-03-27T10:12:57.319Z</time></trkpt><trkpt lat="40.7481415" lon="9.4578528"><ele>570.0</ele><time>2026-03-27T10:12:58.32Z</time></trkpt><trkpt lat="40.7481116" lon="9.4577438"><ele>570.0</ele><time>2026-03-27T10:12:59.317Z</time></trkpt><trkpt lat="40.74809" lon="9.4576221"><ele>570.0</ele><time>2026-03-27T10:13:00.321Z</time></trkpt><trkpt lat="40.7480442" lon="9.4574805"><ele>569.3333333333334</ele><time>2026-03-27T10:13:01.318Z</time></trkpt><trkpt lat="40.7479962" lon="9.4573533"><ele>568.6666666666666</ele><time>2026-03-27T10:13:02.329Z</time></trkpt><trkpt lat="40.7479504" lon="9.4572353"><ele>568.0</ele><time>2026-03-27T10:13:03.32Z</time></trkpt><trkpt lat="40.7478978" lon="9.457136"><ele>567.3333333333333</ele><time>2026-03-27T10:13:04.321Z</time></trkpt><trkpt lat="40.7478537" lon="9.4570545"><ele>566.6666666666666</ele><time>2026-03-27T10:13:05.322Z</time></trkpt><trkpt lat="40.7477917" lon="9.4570065"><ele>566.0</ele><time>2026-03-27T10:13:06.325Z</time></trkpt><trkpt lat="40.7476828" lon="9.4569485"><ele>565.8</ele><time>2026-03-27T10:13:08.329Z</time></trkpt><trkpt lat="40.7475661" lon="9.4569631"><ele>565.6</ele><time>2026-03-27T10:13:10.33Z</time></trkpt><trkpt lat="40.7474513" lon="9.4569695"><ele>565.4</ele><time>2026-03-27T10:13:12.327Z</time></trkpt><trkpt lat="40.7473484" lon="9.4569133"><ele>565.2</ele><time>2026-03-27T10:13:14.323Z</time></trkpt><trkpt lat="40.7472932" lon="9.4568657"><ele>565.0</ele><time>2026-03-27T10:13:15.331Z</time></trkpt><trkpt lat="40.7472423" lon="9.4568167"><ele>565.0</ele><time>2026-03-27T10:13:16.324Z</time></trkpt><trkpt lat="40.7471742" lon="9.4567322"><ele>565.0</ele><time>2026-03-27T10:13:18.324Z</time></trkpt><trkpt lat="40.7471101" lon="9.4566201"><ele>565.0</ele><time>2026-03-27T10:13:20.33Z</time></trkpt><trkpt lat="40.7470777" lon="9.4565411"><ele>565.0</ele><time>2026-03-27T10:13:21.327Z</time></trkpt><trkpt lat="40.7470321" lon="9.4563986"><ele>565.0</ele><time>2026-03-27T10:13:23.331Z</time></trkpt><trkpt lat="40.7470068" lon="9.4562849"><ele>565.0</ele><time>2026-03-27T10:13:25.332Z</time></trkpt><trkpt lat="40.7469674" lon="9.4561822"><ele>565.0</ele><time>2026-03-27T10:13:27.325Z</time></trkpt><trkpt lat="40.7469216" lon="9.4560934"><ele>565.0</ele><time>2026-03-27T10:13:29.313Z</time></trkpt><trkpt lat="40.7468756" lon="9.4560076"><ele>565.0</ele><time>2026-03-27T10:13:31.324Z</time></trkpt><trkpt lat="40.746831" lon="9.45592"><ele>565.0</ele><time>2026-03-27T10:13:33.327Z</time></trkpt><trkpt lat="40.7467907" lon="9.4558406"><ele>565.0</ele><time>2026-03-27T10:13:35.321Z</time></trkpt><trkpt lat="40.7467553" lon="9.4557584"><ele>565.0</ele><time>2026-03-27T10:13:37.324Z</time></trkpt><trkpt lat="40.7467084" lon="9.4556708"><ele>565.0</ele><time>2026-03-27T10:13:39.322Z</time></trkpt><trkpt lat="40.7466479" lon="9.4555921"><ele>565.0</ele><time>2026-03-27T10:13:41.326Z</time></trkpt><trkpt lat="40.7465794" lon="9.4555183"><ele>565.0</ele><time>2026-03-27T10:13:43.323Z</time></trkpt><trkpt lat="40.7465059" lon="9.4554554"><ele>565.0</ele><time>2026-03-27T10:13:45.323Z</time></trkpt><trkpt lat="40.7464346" lon="9.4554008"><ele>565.0</ele><time>2026-03-27T10:13:47.326Z</time></trkpt><trkpt lat="40.7463495" lon="9.4553546"><ele>565.0</ele><time>2026-03-27T10:13:49.323Z</time></trkpt><trkpt lat="40.7462875" lon="9.4553308"><ele>565.0</ele><time>2026-03-27T10:13:50.327Z</time></trkpt><trkpt lat="40.746202" lon="9.4553035"><ele>565.0</ele><time>2026-03-27T10:13:51.337Z</time></trkpt><trkpt lat="40.7460916" lon="9.4552716"><ele>565.0</ele><time>2026-03-27T10:13:52.325Z</time></trkpt><trkpt lat="40.7459753" lon="9.4552368"><ele>565.0</ele><time>2026-03-27T10:13:53.324Z</time></trkpt><trkpt lat="40.7458595" lon="9.4552017"><ele>565.0</ele><time>2026-03-27T10:13:54.327Z</time></trkpt><trkpt lat="40.7457284" lon="9.45513"><ele>565.0</ele><time>2026-03-27T10:13:55.327Z</time></trkpt><trkpt lat="40.7455796" lon="9.4550366"><ele>565.0</ele><time>2026-03-27T10:13:56.327Z</time></trkpt><trkpt lat="40.7454153" lon="9.454924"><ele>565.0</ele><time>2026-03-27T10:13:57.327Z</time></trkpt><trkpt lat="40.7452678" lon="9.4548323"><ele>565.0</ele><time>2026-03-27T10:13:58.325Z</time></trkpt><trkpt lat="40.7451123" lon="9.4547067"><ele>565.0</ele><time>2026-03-27T10:13:59.326Z</time></trkpt><trkpt lat="40.744955" lon="9.454569"><ele>564.6666666666667</ele><time>2026-03-27T10:14:00.323Z</time></trkpt><trkpt lat="40.7448006" lon="9.4544318"><ele>564.3333333333334</ele><time>2026-03-27T10:14:01.327Z</time></trkpt><trkpt lat="40.7446783" lon="9.4543216"><ele>564.0</ele><time>2026-03-27T10:14:02.332Z</time></trkpt><trkpt lat="40.7445778" lon="9.4542224"><ele>564.0</ele><time>2026-03-27T10:14:03.32Z</time></trkpt><trkpt lat="40.7445045" lon="9.4541781"><ele>564.0</ele><time>2026-03-27T10:14:04.33Z</time></trkpt><trkpt lat="40.7444514" lon="9.4540894"><ele>564.0</ele><time>2026-03-27T10:14:05.324Z</time></trkpt><trkpt lat="40.7444195" lon="9.4539935"><ele>564.0</ele><time>2026-03-27T10:14:06.323Z</time></trkpt><trkpt lat="40.7444107" lon="9.4538931"><ele>564.0</ele><time>2026-03-27T10:14:07.325Z</time></trkpt><trkpt lat="40.7444158" lon="9.453796"><ele>564.0</ele><time>2026-03-27T10:14:08.319Z</time></trkpt><trkpt lat="40.7444087" lon="9.4536693"><ele>564.2</ele><time>2026-03-27T10:14:09.322Z</time></trkpt><trkpt lat="40.7444261" lon="9.4535164"><ele>564.4</ele><time>2026-03-27T10:14:10.315Z</time></trkpt><trkpt lat="40.7444123" lon="9.4534147"><ele>564.6</ele><time>2026-03-27T10:14:11.331Z</time></trkpt><trkpt lat="40.7443773" lon="9.4533379"><ele>564.8</ele><time>2026-03-27T10:14:12.321Z</time></trkpt><trkpt lat="40.7443285" lon="9.4532463"><ele>565.0</ele><time>2026-03-27T10:14:13.321Z</time></trkpt><trkpt lat="40.7442614" lon="9.4531354"><ele>565.75</ele><time>2026-03-27T10:14:14.325Z</time></trkpt><trkpt lat="40.7441631" lon="9.4530067"><ele>566.5</ele><time>2026-03-27T10:14:15.323Z</time></trkpt><trkpt lat="40.7440602" lon="9.4528623"><ele>567.25</ele><time>2026-03-27T10:14:16.332Z</time></trkpt><trkpt lat="40.7439484" lon="9.4527413"><ele>568.0</ele><time>2026-03-27T10:14:17.331Z</time></trkpt><trkpt lat="40.7438252" lon="9.4525812"><ele>568.3333333333334</ele><time>2026-03-27T10:14:18.341Z</time></trkpt><trkpt lat="40.7437043" lon="9.4524203"><ele>568.6666666666666</ele><time>2026-03-27T10:14:19.329Z</time></trkpt><trkpt lat="40.7435955" lon="9.452281"><ele>569.0</ele><time>2026-03-27T10:14:20.326Z</time></trkpt><trkpt lat="40.7434498" lon="9.4521257"><ele>566.0</ele><time>2026-03-27T10:14:21.332Z</time></trkpt><trkpt lat="40.7433158" lon="9.4519989"><ele>563.0</ele><time>2026-03-27T10:14:22.325Z</time></trkpt><trkpt lat="40.7431757" lon="9.4518801"><ele>560.0</ele><time>2026-03-27T10:14:23.328Z</time></trkpt><trkpt lat="40.7430281" lon="9.4517626"><ele>560.0</ele><time>2026-03-27T10:14:24.332Z</time></trkpt><trkpt lat="40.7428902" lon="9.4516421"><ele>560.0</ele><time>2026-03-27T10:14:25.339Z</time></trkpt><trkpt lat="40.7427501" lon="9.4515002"><ele>560.0</ele><time>2026-03-27T10:14:26.322Z</time></trkpt><trkpt lat="40.742611" lon="9.4513534"><ele>559.3333333333333</ele><time>2026-03-27T10:14:27.325Z</time></trkpt><trkpt lat="40.7424735" lon="9.4512223"><ele>558.6666666666666</ele><time>2026-03-27T10:14:28.323Z</time></trkpt><trkpt lat="40.7423379" lon="9.4510848"><ele>558.0</ele><time>2026-03-27T10:14:29.327Z</time></trkpt><trkpt lat="40.7421984" lon="9.4509435"><ele>558.0</ele><time>2026-03-27T10:14:30.326Z</time></trkpt><trkpt lat="40.7420658" lon="9.4508257"><ele>558.0</ele><time>2026-03-27T10:14:31.325Z</time></trkpt><trkpt lat="40.7419506" lon="9.4507386"><ele>558.0</ele><time>2026-03-27T10:14:32.324Z</time></trkpt><trkpt lat="40.741845" lon="9.4506714"><ele>558.0</ele><time>2026-03-27T10:14:33.328Z</time></trkpt><trkpt lat="40.7417581" lon="9.4506319"><ele>558.1999999999999</ele><time>2026-03-27T10:14:34.323Z</time></trkpt><trkpt lat="40.7416641" lon="9.4506125"><ele>558.4</ele><time>2026-03-27T10:14:35.318Z</time></trkpt><trkpt lat="40.7415677" lon="9.4506049"><ele>558.5999999999999</ele><time>2026-03-27T10:14:36.329Z</time></trkpt><trkpt lat="40.7414803" lon="9.4505794"><ele>558.8</ele><time>2026-03-27T10:14:37.329Z</time></trkpt><trkpt lat="40.7414182" lon="9.45051"><ele>559.0</ele><time>2026-03-27T10:14:38.325Z</time></trkpt><trkpt lat="40.7413439" lon="9.450385"><ele>559.0</ele><time>2026-03-27T10:14:39.327Z</time></trkpt><trkpt lat="40.7412702" lon="9.4502535"><ele>559.0</ele><time>2026-03-27T10:14:40.323Z</time></trkpt><trkpt lat="40.7411965" lon="9.4501487"><ele>559.0</ele><time>2026-03-27T10:14:41.325Z</time></trkpt><trkpt lat="40.7411168" lon="9.4500759"><ele>559.0</ele><time>2026-03-27T10:14:42.325Z</time></trkpt><trkpt lat="40.7410027" lon="9.45"><ele>560.0</ele><time>2026-03-27T10:14:43.324Z</time></trkpt><trkpt lat="40.7408813" lon="9.4499133"><ele>561.0</ele><time>2026-03-27T10:14:44.322Z</time></trkpt><trkpt lat="40.7407613" lon="9.4498481"><ele>562.0</ele><time>2026-03-27T10:14:45.322Z</time></trkpt><trkpt lat="40.7406493" lon="9.449781"><ele>563.0</ele><time>2026-03-27T10:14:46.325Z</time></trkpt><trkpt lat="40.7405443" lon="9.4497118"><ele>563.0</ele><time>2026-03-27T10:14:47.327Z</time></trkpt><trkpt lat="40.7404476" lon="9.4496428"><ele>563.0</ele><time>2026-03-27T10:14:48.335Z</time></trkpt><trkpt lat="40.7403621" lon="9.4495752"><ele>563.0</ele><time>2026-03-27T10:14:49.329Z</time></trkpt><trkpt lat="40.7402868" lon="9.449513"><ele>563.0</ele><time>2026-03-27T10:14:50.329Z</time></trkpt><trkpt lat="40.7402184" lon="9.4494554"><ele>563.0</ele><time>2026-03-27T10:14:51.325Z</time></trkpt><trkpt lat="40.7401569" lon="9.4494055"><ele>562.0</ele><time>2026-03-27T10:14:52.329Z</time></trkpt><trkpt lat="40.7400898" lon="9.4493528"><ele>561.0</ele><time>2026-03-27T10:14:53.326Z</time></trkpt><trkpt lat="40.7400073" lon="9.4492922"><ele>560.0</ele><time>2026-03-27T10:14:54.326Z</time></trkpt><trkpt lat="40.7399109" lon="9.4492298"><ele>559.0</ele><time>2026-03-27T10:14:55.329Z</time></trkpt><trkpt lat="40.7397994" lon="9.4491574"><ele>558.0</ele><time>2026-03-27T10:14:56.32Z</time></trkpt><trkpt lat="40.7396852" lon="9.4490901"><ele>558.0</ele><time>2026-03-27T10:14:57.325Z</time></trkpt><trkpt lat="40.7395467" lon="9.4490054"><ele>558.0</ele><time>2026-03-27T10:14:58.327Z</time></trkpt><trkpt lat="40.7394013" lon="9.4489113"><ele>558.0</ele><time>2026-03-27T10:14:59.32Z</time></trkpt><trkpt lat="40.7392773" lon="9.448824"><ele>557.0</ele><time>2026-03-27T10:15:00.321Z</time></trkpt><trkpt lat="40.7391587" lon="9.4487449"><ele>556.0</ele><time>2026-03-27T10:15:01.321Z</time></trkpt><trkpt lat="40.7390494" lon="9.448673"><ele>555.0</ele><time>2026-03-27T10:15:02.329Z</time></trkpt><trkpt lat="40.7389462" lon="9.4486067"><ele>554.0</ele><time>2026-03-27T10:15:03.327Z</time></trkpt><trkpt lat="40.7388484" lon="9.4485489"><ele>554.0</ele><time>2026-03-27T10:15:04.332Z</time></trkpt><trkpt lat="40.7387504" lon="9.4484903"><ele>554.0</ele><time>2026-03-27T10:15:05.324Z</time></trkpt><trkpt lat="40.738651" lon="9.4484334"><ele>554.0</ele><time>2026-03-27T10:15:06.328Z</time></trkpt><trkpt lat="40.7385548" lon="9.4483863"><ele>554.0</ele><time>2026-03-27T10:15:07.326Z</time></trkpt><trkpt lat="40.7384607" lon="9.4483683"><ele>554.0</ele><time>2026-03-27T10:15:08.32Z</time></trkpt><trkpt lat="40.7383711" lon="9.4483517"><ele>554.2</ele><time>2026-03-27T10:15:09.328Z</time></trkpt><trkpt lat="40.7382753" lon="9.4483313"><ele>554.4</ele><time>2026-03-27T10:15:10.321Z</time></trkpt><trkpt lat="40.7381771" lon="9.4483073"><ele>554.6</ele><time>2026-03-27T10:15:11.32Z</time></trkpt><trkpt lat="40.7380756" lon="9.4482904"><ele>554.8</ele><time>2026-03-27T10:15:12.32Z</time></trkpt><trkpt lat="40.7379776" lon="9.4482908"><ele>555.0</ele><time>2026-03-27T10:15:13.323Z</time></trkpt><trkpt lat="40.7378861" lon="9.4482969"><ele>555.0</ele><time>2026-03-27T10:15:14.317Z</time></trkpt><trkpt lat="40.7378084" lon="9.4483192"><ele>555.0</ele><time>2026-03-27T10:15:15.321Z</time></trkpt><trkpt lat="40.7377403" lon="9.4483617"><ele>555.0</ele><time>2026-03-27T10:15:16.316Z</time></trkpt><trkpt lat="40.7376741" lon="9.4484225"><ele>555.0</ele><time>2026-03-27T10:15:17.321Z</time></trkpt><trkpt lat="40.7376113" lon="9.4484955"><ele>555.0</ele><time>2026-03-27T10:15:18.317Z</time></trkpt><trkpt lat="40.7375581" lon="9.4485762"><ele>555.0</ele><time>2026-03-27T10:15:19.321Z</time></trkpt><trkpt lat="40.7375192" lon="9.4486672"><ele>555.0</ele><time>2026-03-27T10:15:20.321Z</time></trkpt><trkpt lat="40.7374872" lon="9.4487662"><ele>555.0</ele><time>2026-03-27T10:15:21.324Z</time></trkpt><trkpt lat="40.7374609" lon="9.4488737"><ele>555.0</ele><time>2026-03-27T10:15:22.326Z</time></trkpt><trkpt lat="40.737423" lon="9.4489818"><ele>555.0</ele><time>2026-03-27T10:15:23.324Z</time></trkpt><trkpt lat="40.7374053" lon="9.4490885"><ele>555.0</ele><time>2026-03-27T10:15:24.326Z</time></trkpt><trkpt lat="40.7373891" lon="9.4491842"><ele>555.0</ele><time>2026-03-27T10:15:25.334Z</time></trkpt><trkpt lat="40.7373896" lon="9.4492756"><ele>556.4</ele><time>2026-03-27T10:15:26.316Z</time></trkpt><trkpt lat="40.7374079" lon="9.449384"><ele>557.8</ele><time>2026-03-27T10:15:27.327Z</time></trkpt><trkpt lat="40.7374359" lon="9.4495063"><ele>559.2</ele><time>2026-03-27T10:15:28.325Z</time></trkpt><trkpt lat="40.7374569" lon="9.4496584"><ele>560.6</ele><time>2026-03-27T10:15:29.336Z</time></trkpt><trkpt lat="40.7374804" lon="9.4498173"><ele>562.0</ele><time>2026-03-27T10:15:30.323Z</time></trkpt><trkpt lat="40.7374875" lon="9.4499552"><ele>562.6</ele><time>2026-03-27T10:15:31.331Z</time></trkpt><trkpt lat="40.7375069" lon="9.4500943"><ele>563.2</ele><time>2026-03-27T10:15:32.329Z</time></trkpt><trkpt lat="40.7375138" lon="9.4502105"><ele>563.8</ele><time>2026-03-27T10:15:33.329Z</time></trkpt><trkpt lat="40.7375216" lon="9.4503363"><ele>564.4</ele><time>2026-03-27T10:15:34.321Z</time></trkpt><trkpt lat="40.7375251" lon="9.450459"><ele>565.0</ele><time>2026-03-27T10:15:35.329Z</time></trkpt><trkpt lat="40.7375192" lon="9.4505753"><ele>565.6</ele><time>2026-03-27T10:15:36.313Z</time></trkpt><trkpt lat="40.7375097" lon="9.4506896"><ele>566.2</ele><time>2026-03-27T10:15:37.322Z</time></trkpt><trkpt lat="40.7374996" lon="9.4508125"><ele>566.8</ele><time>2026-03-27T10:15:38.32Z</time></trkpt><trkpt lat="40.737482" lon="9.4509392"><ele>567.4</ele><time>2026-03-27T10:15:39.325Z</time></trkpt><trkpt lat="40.7374659" lon="9.4510588"><ele>568.0</ele><time>2026-03-27T10:15:40.322Z</time></trkpt><trkpt lat="40.7374494" lon="9.4511767"><ele>568.1666666666667</ele><time>2026-03-27T10:15:41.324Z</time></trkpt><trkpt lat="40.7374344" lon="9.4512914"><ele>568.3333333333334</ele><time>2026-03-27T10:15:42.324Z</time></trkpt><trkpt lat="40.7374251" lon="9.4514058"><ele>568.5</ele><time>2026-03-27T10:15:43.325Z</time></trkpt><trkpt lat="40.7374179" lon="9.4515165"><ele>568.6666666666666</ele><time>2026-03-27T10:15:44.321Z</time></trkpt><trkpt lat="40.7374164" lon="9.4516277"><ele>568.8333333333333</ele><time>2026-03-27T10:15:45.325Z</time></trkpt><trkpt lat="40.737426" lon="9.4517331"><ele>569.0</ele><time>2026-03-27T10:15:46.321Z</time></trkpt><trkpt lat="40.7374489" lon="9.4518326"><ele>569.0</ele><time>2026-03-27T10:15:47.32Z</time></trkpt><trkpt lat="40.7374813" lon="9.4519293"><ele>569.0</ele><time>2026-03-27T10:15:48.319Z</time></trkpt><trkpt lat="40.7375194" lon="9.4520237"><ele>569.0</ele><time>2026-03-27T10:15:49.329Z</time></trkpt><trkpt lat="40.737563" lon="9.4521189"><ele>569.0</ele><time>2026-03-27T10:15:50.324Z</time></trkpt><trkpt lat="40.7376087" lon="9.4522146"><ele>569.0</ele><time>2026-03-27T10:15:51.327Z</time></trkpt><trkpt lat="40.737657" lon="9.4523092"><ele>569.0</ele><time>2026-03-27T10:15:52.326Z</time></trkpt><trkpt lat="40.7377085" lon="9.4524054"><ele>570.8333333333333</ele><time>2026-03-27T10:15:53.324Z</time></trkpt><trkpt lat="40.7377645" lon="9.4524977"><ele>572.6666666666666</ele><time>2026-03-27T10:15:54.326Z</time></trkpt><trkpt lat="40.7378206" lon="9.4525831"><ele>574.5</ele><time>2026-03-27T10:15:55.331Z</time></trkpt><trkpt lat="40.7378808" lon="9.4526641"><ele>576.3333333333334</ele><time>2026-03-27T10:15:56.324Z</time></trkpt><trkpt lat="40.7379358" lon="9.4527432"><ele>578.1666666666667</ele><time>2026-03-27T10:15:57.336Z</time></trkpt><trkpt lat="40.7379923" lon="9.4528081"><ele>580.0</ele><time>2026-03-27T10:15:58.319Z</time></trkpt><trkpt lat="40.7380398" lon="9.4528896"><ele>578.0</ele><time>2026-03-27T10:15:59.33Z</time></trkpt><trkpt lat="40.7380877" lon="9.4529743"><ele>576.0</ele><time>2026-03-27T10:16:00.328Z</time></trkpt><trkpt lat="40.7381315" lon="9.4530577"><ele>574.0</ele><time>2026-03-27T10:16:01.328Z</time></trkpt><trkpt lat="40.7381787" lon="9.4531497"><ele>572.0</ele><time>2026-03-27T10:16:02.326Z</time></trkpt><trkpt lat="40.7382208" lon="9.4532384"><ele>570.0</ele><time>2026-03-27T10:16:03.329Z</time></trkpt><trkpt lat="40.7382599" lon="9.4533227"><ele>568.0</ele><time>2026-03-27T10:16:04.319Z</time></trkpt><trkpt lat="40.7382913" lon="9.4534062"><ele>568.0</ele><time>2026-03-27T10:16:05.328Z</time></trkpt><trkpt lat="40.7383202" lon="9.4535052"><ele>568.0</ele><time>2026-03-27T10:16:06.32Z</time></trkpt><trkpt lat="40.7383423" lon="9.453592"><ele>568.0</ele><time>2026-03-27T10:16:07.318Z</time></trkpt><trkpt lat="40.7383513" lon="9.453686"><ele>568.0</ele><time>2026-03-27T10:16:08.321Z</time></trkpt><trkpt lat="40.7383295" lon="9.4538297"><ele>568.0</ele><time>2026-03-27T10:16:10.326Z</time></trkpt><trkpt lat="40.7382807" lon="9.453957"><ele>568.0</ele><time>2026-03-27T10:16:12.317Z</time></trkpt><trkpt lat="40.7382246" lon="9.4540409"><ele>567.6666666666667</ele><time>2026-03-27T10:16:14.322Z</time></trkpt><trkpt lat="40.7381759" lon="9.4541186"><ele>567.3333333333334</ele><time>2026-03-27T10:34:36.325Z</time></trkpt><trkpt lat="40.7381035" lon="9.4541551"><ele>567.0</ele><time>2026-03-27T10:34:39.321Z</time></trkpt><trkpt lat="40.7380157" lon="9.4542583"><ele>566.6666666666666</ele><time>2026-03-27T10:34:41.319Z</time></trkpt><trkpt lat="40.737956" lon="9.4543284"><ele>566.3333333333333</ele><time>2026-03-27T10:34:42.321Z</time></trkpt><trkpt lat="40.7378937" lon="9.4544056"><ele>566.0</ele><time>2026-03-27T10:34:43.321Z</time></trkpt><trkpt lat="40.7378314" lon="9.4544833"><ele>566.0</ele><time>2026-03-27T10:34:44.317Z</time></trkpt><trkpt lat="40.7377716" lon="9.4545535"><ele>566.0</ele><time>2026-03-27T10:34:45.328Z</time></trkpt><trkpt lat="40.7377071" lon="9.4546199"><ele>566.0</ele><time>2026-03-27T10:34:46.325Z</time></trkpt><trkpt lat="40.7376335" lon="9.454686"><ele>566.0</ele><time>2026-03-27T10:34:47.326Z</time></trkpt><trkpt lat="40.737558" lon="9.4547456"><ele>566.0</ele><time>2026-03-27T10:34:48.321Z</time></trkpt><trkpt lat="40.7374788" lon="9.4548031"><ele>566.0</ele><time>2026-03-27T10:34:49.326Z</time></trkpt><trkpt lat="40.7374042" lon="9.4548518"><ele>565.0</ele><time>2026-03-27T10:34:50.323Z</time></trkpt><trkpt lat="40.7373331" lon="9.4548914"><ele>564.0</ele><time>2026-03-27T10:34:51.33Z</time></trkpt><trkpt lat="40.737259" lon="9.454927"><ele>563.0</ele><time>2026-03-27T10:34:52.322Z</time></trkpt><trkpt lat="40.737183" lon="9.454947"><ele>562.0</ele><time>2026-03-27T10:34:53.328Z</time></trkpt><trkpt lat="40.7371099" lon="9.4549641"><ele>561.0</ele><time>2026-03-27T10:34:54.329Z</time></trkpt><trkpt lat="40.7370285" lon="9.4549592"><ele>560.0</ele><time>2026-03-27T10:34:55.324Z</time></trkpt><trkpt lat="40.7369479" lon="9.4549561"><ele>559.8333333333333</ele><time>2026-03-27T10:34:56.324Z</time></trkpt><trkpt lat="40.7368792" lon="9.4549497"><ele>559.6666666666666</ele><time>2026-03-27T10:34:57.328Z</time></trkpt><trkpt lat="40.7367707" lon="9.4549429"><ele>559.5</ele><time>2026-03-27T10:34:59.328Z</time></trkpt><trkpt lat="40.7366544" lon="9.4549508"><ele>559.3333333333334</ele><time>2026-03-27T10:35:01.324Z</time></trkpt><trkpt lat="40.7365886" lon="9.4549543"><ele>559.1666666666667</ele><time>2026-03-27T10:35:02.324Z</time></trkpt><trkpt lat="40.7365221" lon="9.4549602"><ele>559.0</ele><time>2026-03-27T10:35:03.328Z</time></trkpt><trkpt lat="40.7364435" lon="9.4549634"><ele>559.0</ele><time>2026-03-27T10:35:04.328Z</time></trkpt><trkpt lat="40.7363636" lon="9.4549647"><ele>559.0</ele><time>2026-03-27T10:35:05.321Z</time></trkpt><trkpt lat="40.7362726" lon="9.454964"><ele>559.0</ele><time>2026-03-27T10:35:06.324Z</time></trkpt><trkpt lat="40.7361738" lon="9.4549655"><ele>559.0</ele><time>2026-03-27T10:35:07.328Z</time></trkpt><trkpt lat="40.736066" lon="9.4549674"><ele>559.0</ele><time>2026-03-27T10:35:08.328Z</time></trkpt><trkpt lat="40.7359707" lon="9.4549667"><ele>559.3333333333334</ele><time>2026-03-27T10:35:09.325Z</time></trkpt><trkpt lat="40.7358778" lon="9.4549606"><ele>559.6666666666667</ele><time>2026-03-27T10:35:10.324Z</time></trkpt><trkpt lat="40.7357997" lon="9.454946"><ele>560.0</ele><time>2026-03-27T10:35:11.325Z</time></trkpt><trkpt lat="40.7357307" lon="9.4549291"><ele>560.3333333333334</ele><time>2026-03-27T10:35:12.333Z</time></trkpt><trkpt lat="40.7356747" lon="9.4548902"><ele>560.6666666666666</ele><time>2026-03-27T10:35:13.329Z</time></trkpt><trkpt lat="40.7355553" lon="9.4548422"><ele>561.0</ele><time>2026-03-27T10:35:15.325Z</time></trkpt><trkpt lat="40.735493" lon="9.4548266"><ele>561.0</ele><time>2026-03-27T10:35:16.328Z</time></trkpt><trkpt lat="40.7354114" lon="9.4548123"><ele>561.0</ele><time>2026-03-27T10:35:17.33Z</time></trkpt><trkpt lat="40.7353262" lon="9.4547918"><ele>561.0</ele><time>2026-03-27T10:35:18.328Z</time></trkpt><trkpt lat="40.7352446" lon="9.4547873"><ele>561.0</ele><time>2026-03-27T10:35:19.327Z</time></trkpt><trkpt lat="40.7351608" lon="9.454797"><ele>561.0</ele><time>2026-03-27T10:35:20.33Z</time></trkpt><trkpt lat="40.7350815" lon="9.4548234"><ele>561.0</ele><time>2026-03-27T10:35:21.325Z</time></trkpt><trkpt lat="40.7350048" lon="9.4548621"><ele>560.8</ele><time>2026-03-27T10:35:22.328Z</time></trkpt><trkpt lat="40.734929" lon="9.4549004"><ele>560.6</ele><time>2026-03-27T10:35:23.327Z</time></trkpt><trkpt lat="40.7348443" lon="9.4549403"><ele>560.4</ele><time>2026-03-27T10:35:24.326Z</time></trkpt><trkpt lat="40.7347481" lon="9.4549792"><ele>560.2</ele><time>2026-03-27T10:35:25.325Z</time></trkpt><trkpt lat="40.7346475" lon="9.4550199"><ele>560.0</ele><time>2026-03-27T10:35:26.329Z</time></trkpt><trkpt lat="40.7345367" lon="9.4550529"><ele>560.0</ele><time>2026-03-27T10:35:27.32Z</time></trkpt><trkpt lat="40.7344165" lon="9.4550814"><ele>560.0</ele><time>2026-03-27T10:35:28.331Z</time></trkpt><trkpt lat="40.7342985" lon="9.4551129"><ele>560.0</ele><time>2026-03-27T10:35:29.331Z</time></trkpt><trkpt lat="40.7341881" lon="9.4551352"><ele>560.0</ele><time>2026-03-27T10:35:30.319Z</time></trkpt><trkpt lat="40.734079" lon="9.4551679"><ele>561.0</ele><time>2026-03-27T10:35:31.323Z</time></trkpt><trkpt lat="40.7339658" lon="9.4552073"><ele>562.0</ele><time>2026-03-27T10:35:32.329Z</time></trkpt><trkpt lat="40.7338446" lon="9.4552534"><ele>563.0</ele><time>2026-03-27T10:35:33.322Z</time></trkpt><trkpt lat="40.7337195" lon="9.4553029"><ele>564.0</ele><time>2026-03-27T10:35:34.319Z</time></trkpt><trkpt lat="40.7335869" lon="9.4553604"><ele>564.5</ele><time>2026-03-27T10:35:35.325Z</time></trkpt><trkpt lat="40.7334452" lon="9.4554241"><ele>565.0</ele><time>2026-03-27T10:35:36.325Z</time></trkpt><trkpt lat="40.7333127" lon="9.4554774"><ele>565.5</ele><time>2026-03-27T10:35:37.329Z</time></trkpt><trkpt lat="40.7331881" lon="9.4555015"><ele>566.0</ele><time>2026-03-27T10:35:38.325Z</time></trkpt><trkpt lat="40.7330623" lon="9.455511"><ele>567.25</ele><time>2026-03-27T10:35:39.325Z</time></trkpt><trkpt lat="40.7329352" lon="9.4555029"><ele>568.5</ele><time>2026-03-27T10:35:40.326Z</time></trkpt><trkpt lat="40.7328169" lon="9.4554904"><ele>569.75</ele><time>2026-03-27T10:35:41.321Z</time></trkpt><trkpt lat="40.7327161" lon="9.455484"><ele>571.0</ele><time>2026-03-27T10:35:42.325Z</time></trkpt><trkpt lat="40.7326082" lon="9.4554768"><ele>570.0</ele><time>2026-03-27T10:35:43.324Z</time></trkpt><trkpt lat="40.7324804" lon="9.4554575"><ele>569.0</ele><time>2026-03-27T10:35:44.323Z</time></trkpt><trkpt lat="40.7323568" lon="9.4554227"><ele>568.0</ele><time>2026-03-27T10:35:45.322Z</time></trkpt><trkpt lat="40.732246" lon="9.4553892"><ele>567.0</ele><time>2026-03-27T10:35:46.324Z</time></trkpt><trkpt lat="40.7321441" lon="9.4553563"><ele>567.0</ele><time>2026-03-27T10:35:47.326Z</time></trkpt><trkpt lat="40.7320535" lon="9.4553256"><ele>567.0</ele><time>2026-03-27T10:35:48.323Z</time></trkpt><trkpt lat="40.7319609" lon="9.4552947"><ele>567.0</ele><time>2026-03-27T10:35:49.318Z</time></trkpt><trkpt lat="40.7318753" lon="9.4552581"><ele>567.0</ele><time>2026-03-27T10:35:50.324Z</time></trkpt><trkpt lat="40.7318052" lon="9.4552225"><ele>567.0</ele><time>2026-03-27T10:35:51.326Z</time></trkpt><trkpt lat="40.7317321" lon="9.4551804"><ele>567.0</ele><time>2026-03-27T10:35:52.323Z</time></trkpt><trkpt lat="40.7316517" lon="9.4551327"><ele>567.75</ele><time>2026-03-27T10:35:53.337Z</time></trkpt><trkpt lat="40.7315541" lon="9.4550682"><ele>568.5</ele><time>2026-03-27T10:35:54.329Z</time></trkpt><trkpt lat="40.7314351" lon="9.4549902"><ele>569.25</ele><time>2026-03-27T10:35:55.333Z</time></trkpt><trkpt lat="40.7313123" lon="9.454905"><ele>570.0</ele><time>2026-03-27T10:35:56.324Z</time></trkpt><trkpt lat="40.7311864" lon="9.4548073"><ele>570.0</ele><time>2026-03-27T10:35:57.322Z</time></trkpt><trkpt lat="40.7310552" lon="9.4547023"><ele>570.0</ele><time>2026-03-27T10:35:58.32Z</time></trkpt><trkpt lat="40.7309322" lon="9.4545887"><ele>570.0</ele><time>2026-03-27T10:35:59.326Z</time></trkpt><trkpt lat="40.7308056" lon="9.4544735"><ele>568.6666666666666</ele><time>2026-03-27T10:36:00.335Z</time></trkpt><trkpt lat="40.7306521" lon="9.4543539"><ele>567.3333333333333</ele><time>2026-03-27T10:36:01.326Z</time></trkpt><trkpt lat="40.7305108" lon="9.4542546"><ele>566.0</ele><time>2026-03-27T10:36:02.323Z</time></trkpt><trkpt lat="40.7303792" lon="9.4541746"><ele>566.0</ele><time>2026-03-27T10:36:03.324Z</time></trkpt><trkpt lat="40.7302632" lon="9.454132"><ele>566.0</ele><time>2026-03-27T10:36:04.329Z</time></trkpt><trkpt lat="40.7301378" lon="9.4541174"><ele>566.0</ele><time>2026-03-27T10:36:05.332Z</time></trkpt><trkpt lat="40.7299986" lon="9.454105"><ele>566.0</ele><time>2026-03-27T10:36:06.325Z</time></trkpt><trkpt lat="40.7298291" lon="9.4540914"><ele>567.6666666666666</ele><time>2026-03-27T10:36:07.331Z</time></trkpt><trkpt lat="40.7296467" lon="9.4540642"><ele>569.3333333333334</ele><time>2026-03-27T10:36:08.322Z</time></trkpt><trkpt lat="40.7294693" lon="9.4540332"><ele>571.0</ele><time>2026-03-27T10:36:09.326Z</time></trkpt><trkpt lat="40.7293019" lon="9.4539992"><ele>571.3333333333334</ele><time>2026-03-27T10:36:10.324Z</time></trkpt><trkpt lat="40.7291379" lon="9.4539896"><ele>571.6666666666666</ele><time>2026-03-27T10:36:11.327Z</time></trkpt><trkpt lat="40.7289772" lon="9.4539858"><ele>572.0</ele><time>2026-03-27T10:36:12.328Z</time></trkpt><trkpt lat="40.7288124" lon="9.4540142"><ele>572.0</ele><time>2026-03-27T10:36:13.325Z</time></trkpt><trkpt lat="40.728605" lon="9.4540211"><ele>572.0</ele><time>2026-03-27T10:36:14.326Z</time></trkpt><trkpt lat="40.7283936" lon="9.4540395"><ele>572.0</ele><time>2026-03-27T10:36:15.325Z</time></trkpt><trkpt lat="40.728188" lon="9.4540614"><ele>572.0</ele><time>2026-03-27T10:36:16.326Z</time></trkpt><trkpt lat="40.7280061" lon="9.4540788"><ele>572.0</ele><time>2026-03-27T10:36:17.326Z</time></trkpt><trkpt lat="40.7278277" lon="9.4540834"><ele>572.0</ele><time>2026-03-27T10:36:18.328Z</time></trkpt><trkpt lat="40.7276368" lon="9.4540774"><ele>572.3333333333333</ele><time>2026-03-27T10:36:19.329Z</time></trkpt><trkpt lat="40.7274379" lon="9.4540746"><ele>572.6666666666666</ele><time>2026-03-27T10:36:20.331Z</time></trkpt><trkpt lat="40.727228" lon="9.4540801"><ele>573.0</ele><time>2026-03-27T10:36:21.324Z</time></trkpt><trkpt lat="40.7270244" lon="9.4540758"><ele>574.3333333333334</ele><time>2026-03-27T10:36:22.325Z</time></trkpt><trkpt lat="40.7268079" lon="9.4540578"><ele>575.6666666666667</ele><time>2026-03-27T10:36:23.321Z</time></trkpt><trkpt lat="40.7265982" lon="9.454032"><ele>577.0</ele><time>2026-03-27T10:36:24.326Z</time></trkpt><trkpt lat="40.7264018" lon="9.4540056"><ele>577.0</ele><time>2026-03-27T10:36:25.322Z</time></trkpt><trkpt lat="40.7262133" lon="9.4539903"><ele>577.0</ele><time>2026-03-27T10:36:26.327Z</time></trkpt><trkpt lat="40.7260255" lon="9.4539996"><ele>577.0</ele><time>2026-03-27T10:36:27.325Z</time></trkpt><trkpt lat="40.7258273" lon="9.454028"><ele>577.6666666666667</ele><time>2026-03-27T10:36:28.324Z</time></trkpt><trkpt lat="40.725608" lon="9.4540649"><ele>578.3333333333334</ele><time>2026-03-27T10:36:29.327Z</time></trkpt><trkpt lat="40.7253866" lon="9.4540969"><ele>579.0</ele><time>2026-03-27T10:36:30.321Z</time></trkpt><trkpt lat="40.7251783" lon="9.454134"><ele>579.6666666666666</ele><time>2026-03-27T10:36:31.327Z</time></trkpt><trkpt lat="40.724991" lon="9.4541773"><ele>580.3333333333333</ele><time>2026-03-27T10:36:32.324Z</time></trkpt><trkpt lat="40.7248045" lon="9.454224"><ele>581.0</ele><time>2026-03-27T10:36:33.319Z</time></trkpt><trkpt lat="40.7246182" lon="9.4542643"><ele>581.0</ele><time>2026-03-27T10:36:34.324Z</time></trkpt><trkpt lat="40.7244424" lon="9.4542796"><ele>581.0</ele><time>2026-03-27T10:36:35.324Z</time></trkpt><trkpt lat="40.724275" lon="9.4542982"><ele>581.0</ele><time>2026-03-27T10:36:36.321Z</time></trkpt><trkpt lat="40.7241172" lon="9.4543093"><ele>582.6666666666666</ele><time>2026-03-27T10:36:37.322Z</time></trkpt><trkpt lat="40.7239696" lon="9.4543241"><ele>584.3333333333334</ele><time>2026-03-27T10:36:38.322Z</time></trkpt><trkpt lat="40.7238138" lon="9.454343"><ele>586.0</ele><time>2026-03-27T10:36:39.325Z</time></trkpt><trkpt lat="40.7236616" lon="9.4543631"><ele>587.0</ele><time>2026-03-27T10:36:40.325Z</time></trkpt><trkpt lat="40.7235069" lon="9.4543885"><ele>588.0</ele><time>2026-03-27T10:36:41.326Z</time></trkpt><trkpt lat="40.7233458" lon="9.454406"><ele>589.0</ele><time>2026-03-27T10:36:42.318Z</time></trkpt><trkpt lat="40.7231828" lon="9.4544139"><ele>589.0</ele><time>2026-03-27T10:36:43.326Z</time></trkpt><trkpt lat="40.7230032" lon="9.4544036"><ele>589.0</ele><time>2026-03-27T10:36:44.324Z</time></trkpt><trkpt lat="40.7228389" lon="9.4543894"><ele>589.0</ele><time>2026-03-27T10:36:45.324Z</time></trkpt><trkpt lat="40.722687" lon="9.4544093"><ele>590.3333333333334</ele><time>2026-03-27T10:36:46.327Z</time></trkpt><trkpt lat="40.7225403" lon="9.4544267"><ele>591.6666666666666</ele><time>2026-03-27T10:36:47.317Z</time></trkpt><trkpt lat="40.7223882" lon="9.4544641"><ele>593.0</ele><time>2026-03-27T10:36:48.326Z</time></trkpt><trkpt lat="40.7222266" lon="9.4544965"><ele>593.0</ele><time>2026-03-27T10:36:49.324Z</time></trkpt><trkpt lat="40.7220644" lon="9.4545235"><ele>593.0</ele><time>2026-03-27T10:36:50.318Z</time></trkpt><trkpt lat="40.7219055" lon="9.45456"><ele>593.0</ele><time>2026-03-27T10:36:51.33Z</time></trkpt><trkpt lat="40.7217513" lon="9.4546033"><ele>594.3333333333333</ele><time>2026-03-27T10:36:52.325Z</time></trkpt><trkpt lat="40.7215821" lon="9.4546512"><ele>595.6666666666666</ele><time>2026-03-27T10:36:53.323Z</time></trkpt><trkpt lat="40.7214001" lon="9.4547212"><ele>597.0</ele><time>2026-03-27T10:36:54.324Z</time></trkpt><trkpt lat="40.7212157" lon="9.4548171"><ele>595.6666666666666</ele><time>2026-03-27T10:36:55.325Z</time></trkpt><trkpt lat="40.7210155" lon="9.4548968"><ele>594.3333333333333</ele><time>2026-03-27T10:36:56.327Z</time></trkpt><trkpt lat="40.720823" lon="9.4549803"><ele>593.0</ele><time>2026-03-27T10:36:57.324Z</time></trkpt><trkpt lat="40.7206682" lon="9.4550176"><ele>593.0</ele><time>2026-03-27T10:36:58.322Z</time></trkpt><trkpt lat="40.7205263" lon="9.4550162"><ele>593.0</ele><time>2026-03-27T10:36:59.322Z</time></trkpt><trkpt lat="40.7203573" lon="9.4550105"><ele>593.0</ele><time>2026-03-27T10:37:00.319Z</time></trkpt><trkpt lat="40.7202112" lon="9.4549744"><ele>593.25</ele><time>2026-03-27T10:37:01.317Z</time></trkpt><trkpt lat="40.7200622" lon="9.4549524"><ele>593.5</ele><time>2026-03-27T10:37:02.323Z</time></trkpt><trkpt lat="40.7199265" lon="9.4549562"><ele>593.75</ele><time>2026-03-27T10:37:03.324Z</time></trkpt><trkpt lat="40.7198146" lon="9.4549621"><ele>594.0</ele><time>2026-03-27T10:37:04.327Z</time></trkpt><trkpt lat="40.7197271" lon="9.4549729"><ele>594.0</ele><time>2026-03-27T10:37:05.335Z</time></trkpt><trkpt lat="40.719659" lon="9.4549732"><ele>594.0</ele><time>2026-03-27T10:37:06.323Z</time></trkpt><trkpt lat="40.7195631" lon="9.4549704"><ele>594.0</ele><time>2026-03-27T10:37:08.321Z</time></trkpt><trkpt lat="40.719481" lon="9.4549729"><ele>594.0</ele><time>2026-03-27T10:37:10.324Z</time></trkpt><trkpt lat="40.7193904" lon="9.454979"><ele>594.0</ele><time>2026-03-27T10:37:12.321Z</time></trkpt><trkpt lat="40.7192997" lon="9.4549797"><ele>594.0</ele><time>2026-03-27T10:37:14.325Z</time></trkpt><trkpt lat="40.7192308" lon="9.4549811"><ele>593.5</ele><time>2026-03-27T10:37:16.322Z</time></trkpt><trkpt lat="40.7191546" lon="9.4549815"><ele>593.0</ele><time>2026-03-27T10:37:22.333Z</time></trkpt><trkpt lat="40.719064" lon="9.4549806"><ele>592.5</ele><time>2026-03-27T10:37:25.328Z</time></trkpt><trkpt lat="40.7190026" lon="9.4550072"><ele>592.0</ele><time>2026-03-27T10:37:27.328Z</time></trkpt><trkpt lat="40.7189175" lon="9.4550209"><ele>591.5</ele><time>2026-03-27T10:37:30.327Z</time></trkpt><trkpt lat="40.7188496" lon="9.4549921"><ele>591.0</ele><time>2026-03-27T10:37:32.327Z</time></trkpt><trkpt lat="40.7187704" lon="9.4549592"><ele>591.0</ele><time>2026-03-27T10:37:34.323Z</time></trkpt><trkpt lat="40.7186735" lon="9.454951"><ele>591.0</ele><time>2026-03-27T10:37:36.331Z</time></trkpt><trkpt lat="40.7185809" lon="9.4549784"><ele>591.0</ele><time>2026-03-27T10:37:38.332Z</time></trkpt><trkpt lat="40.7184743" lon="9.4550325"><ele>591.0</ele><time>2026-03-27T10:37:40.324Z</time></trkpt><trkpt lat="40.7184178" lon="9.4550726"><ele>591.0</ele><time>2026-03-27T10:37:41.325Z</time></trkpt><trkpt lat="40.718357" lon="9.4551242"><ele>591.0</ele><time>2026-03-27T10:37:42.32Z</time></trkpt><trkpt lat="40.7183029" lon="9.4551863"><ele>590.6</ele><time>2026-03-27T10:37:43.326Z</time></trkpt><trkpt lat="40.7182502" lon="9.4552645"><ele>590.2</ele><time>2026-03-27T10:37:44.327Z</time></trkpt><trkpt lat="40.7181907" lon="9.4553515"><ele>589.8</ele><time>2026-03-27T10:37:45.321Z</time></trkpt><trkpt lat="40.7181032" lon="9.4554742"><ele>589.4</ele><time>2026-03-27T10:37:46.331Z</time></trkpt><trkpt lat="40.7180249" lon="9.4555771"><ele>589.0</ele><time>2026-03-27T10:37:47.324Z</time></trkpt><trkpt lat="40.7179494" lon="9.455678"><ele>589.0</ele><time>2026-03-27T10:37:48.332Z</time></trkpt><trkpt lat="40.7178753" lon="9.4557761"><ele>589.0</ele><time>2026-03-27T10:37:49.321Z</time></trkpt><trkpt lat="40.7177889" lon="9.4558806"><ele>589.0</ele><time>2026-03-27T10:37:50.323Z</time></trkpt><trkpt lat="40.7177147" lon="9.4559883"><ele>589.0</ele><time>2026-03-27T10:37:51.329Z</time></trkpt><trkpt lat="40.7176608" lon="9.4560807"><ele>589.0</ele><time>2026-03-27T10:37:52.323Z</time></trkpt><trkpt lat="40.7176182" lon="9.4561539"><ele>587.1666666666667</ele><time>2026-03-27T10:37:53.343Z</time></trkpt><trkpt lat="40.717549" lon="9.4561862"><ele>585.3333333333334</ele><time>2026-03-27T10:37:54.33Z</time></trkpt><trkpt lat="40.7174587" lon="9.4562172"><ele>583.5</ele><time>2026-03-27T10:37:55.331Z</time></trkpt><trkpt lat="40.717394" lon="9.4562578"><ele>581.6666666666666</ele><time>2026-03-27T10:37:56.321Z</time></trkpt><trkpt lat="40.7173692" lon="9.456399"><ele>579.8333333333333</ele><time>2026-03-27T10:37:58.322Z</time></trkpt><trkpt lat="40.7173962" lon="9.4565035"><ele>578.0</ele><time>2026-03-27T10:37:59.321Z</time></trkpt><trkpt lat="40.717428" lon="9.4566133"><ele>577.4</ele><time>2026-03-27T10:38:00.329Z</time></trkpt><trkpt lat="40.7174435" lon="9.4566978"><ele>576.8</ele><time>2026-03-27T10:38:01.321Z</time></trkpt><trkpt lat="40.7174321" lon="9.4568486"><ele>576.2</ele><time>2026-03-27T10:38:03.325Z</time></trkpt><trkpt lat="40.7173257" lon="9.4568877"><ele>575.6</ele><time>2026-03-27T10:38:05.325Z</time></trkpt><trkpt lat="40.7172352" lon="9.4568399"><ele>575.0</ele><time>2026-03-27T10:38:06.323Z</time></trkpt><trkpt lat="40.7170976" lon="9.456802"><ele>575.0</ele><time>2026-03-27T10:38:07.329Z</time></trkpt><trkpt lat="40.7169347" lon="9.4567741"><ele>575.0</ele><time>2026-03-27T10:38:08.327Z</time></trkpt><trkpt lat="40.7168026" lon="9.4567622"><ele>575.0</ele><time>2026-03-27T10:38:09.331Z</time></trkpt><trkpt lat="40.7166977" lon="9.4567521"><ele>575.0</ele><time>2026-03-27T10:38:10.32Z</time></trkpt><trkpt lat="40.7166014" lon="9.456732"><ele>572.5</ele><time>2026-03-27T10:38:11.328Z</time></trkpt><trkpt lat="40.71653" lon="9.4566544"><ele>570.0</ele><time>2026-03-27T10:38:12.324Z</time></trkpt><trkpt lat="40.7164718" lon="9.4565581"><ele>567.5</ele><time>2026-03-27T10:38:13.325Z</time></trkpt><trkpt lat="40.7164187" lon="9.4564825"><ele>565.0</ele><time>2026-03-27T10:38:14.324Z</time></trkpt><trkpt lat="40.7163679" lon="9.4564248"><ele>562.5</ele><time>2026-03-27T10:38:15.326Z</time></trkpt><trkpt lat="40.7162988" lon="9.4563786"><ele>560.0</ele><time>2026-03-27T10:38:16.341Z</time></trkpt><trkpt lat="40.7162175" lon="9.4563565"><ele>560.0</ele><time>2026-03-27T10:38:17.328Z</time></trkpt><trkpt lat="40.7161234" lon="9.4563272"><ele>560.0</ele><time>2026-03-27T10:38:18.324Z</time></trkpt><trkpt lat="40.7160277" lon="9.4562872"><ele>560.0</ele><time>2026-03-27T10:38:19.32Z</time></trkpt><trkpt lat="40.7159485" lon="9.4562268"><ele>560.0</ele><time>2026-03-27T10:38:20.324Z</time></trkpt><trkpt lat="40.7158641" lon="9.4561578"><ele>560.0</ele><time>2026-03-27T10:38:21.344Z</time></trkpt><trkpt lat="40.7158043" lon="9.4560849"><ele>559.3333333333333</ele><time>2026-03-27T10:38:22.323Z</time></trkpt><trkpt lat="40.7157458" lon="9.4560147"><ele>558.6666666666666</ele><time>2026-03-27T10:38:23.324Z</time></trkpt><trkpt lat="40.7156825" lon="9.4559549"><ele>558.0</ele><time>2026-03-27T10:38:24.321Z</time></trkpt><trkpt lat="40.7156082" lon="9.4559056"><ele>557.3333333333334</ele><time>2026-03-27T10:38:25.324Z</time></trkpt><trkpt lat="40.7155331" lon="9.4558692"><ele>556.6666666666667</ele><time>2026-03-27T10:38:26.326Z</time></trkpt><trkpt lat="40.7154593" lon="9.4558378"><ele>556.0</ele><time>2026-03-27T10:38:27.326Z</time></trkpt><trkpt lat="40.7153908" lon="9.4558121"><ele>556.0</ele><time>2026-03-27T10:38:28.329Z</time></trkpt><trkpt lat="40.7152876" lon="9.4557332"><ele>556.0</ele><time>2026-03-27T10:38:30.325Z</time></trkpt><trkpt lat="40.7152413" lon="9.4556466"><ele>556.0</ele><time>2026-03-27T10:38:31.324Z</time></trkpt><trkpt lat="40.7151945" lon="9.4555327"><ele>556.0</ele><time>2026-03-27T10:38:32.329Z</time></trkpt><trkpt lat="40.7151223" lon="9.4554218"><ele>556.0</ele><time>2026-03-27T10:38:33.326Z</time></trkpt><trkpt lat="40.7150518" lon="9.4553525"><ele>554.5</ele><time>2026-03-27T10:38:34.327Z</time></trkpt><trkpt lat="40.7149688" lon="9.4553216"><ele>553.0</ele><time>2026-03-27T10:38:35.32Z</time></trkpt><trkpt lat="40.7148871" lon="9.4553193"><ele>551.5</ele><time>2026-03-27T10:38:36.328Z</time></trkpt><trkpt lat="40.7148051" lon="9.4553349"><ele>550.0</ele><time>2026-03-27T10:38:37.324Z</time></trkpt><trkpt lat="40.7147216" lon="9.4553611"><ele>548.5</ele><time>2026-03-27T10:38:38.329Z</time></trkpt><trkpt lat="40.7146295" lon="9.4553706"><ele>547.0</ele><time>2026-03-27T10:38:39.332Z</time></trkpt><trkpt lat="40.7145427" lon="9.4553236"><ele>547.0</ele><time>2026-03-27T10:38:40.333Z</time></trkpt><trkpt lat="40.7144647" lon="9.4552688"><ele>547.0</ele><time>2026-03-27T10:38:41.325Z</time></trkpt><trkpt lat="40.7143674" lon="9.4552711"><ele>547.0</ele><time>2026-03-27T10:38:42.324Z</time></trkpt><trkpt lat="40.7142424" lon="9.4552668"><ele>547.0</ele><time>2026-03-27T10:38:43.328Z</time></trkpt><trkpt lat="40.7141366" lon="9.4552548"><ele>547.0</ele><time>2026-03-27T10:38:44.329Z</time></trkpt><trkpt lat="40.7140248" lon="9.4552416"><ele>545.4</ele><time>2026-03-27T10:38:45.328Z</time></trkpt><trkpt lat="40.7139131" lon="9.4552256"><ele>543.8000000000001</ele><time>2026-03-27T10:38:46.33Z</time></trkpt><trkpt lat="40.7137999" lon="9.4551875"><ele>542.2</ele><time>2026-03-27T10:38:47.328Z</time></trkpt><trkpt lat="40.7136934" lon="9.4551718"><ele>540.6</ele><time>2026-03-27T10:38:48.327Z</time></trkpt><trkpt lat="40.7135971" lon="9.4551959"><ele>539.0</ele><time>2026-03-27T10:38:49.328Z</time></trkpt><trkpt lat="40.7135135" lon="9.4552392"><ele>538.8</ele><time>2026-03-27T10:38:50.325Z</time></trkpt><trkpt lat="40.71343" lon="9.455293"><ele>538.5999999999999</ele><time>2026-03-27T10:38:51.327Z</time></trkpt><trkpt lat="40.7133443" lon="9.4553471"><ele>538.4</ele><time>2026-03-27T10:38:52.323Z</time></trkpt><trkpt lat="40.7132592" lon="9.4553923"><ele>538.1999999999999</ele><time>2026-03-27T10:38:53.322Z</time></trkpt><trkpt lat="40.7131688" lon="9.4554408"><ele>538.0</ele><time>2026-03-27T10:38:54.32Z</time></trkpt><trkpt lat="40.7130781" lon="9.4555022"><ele>532.5</ele><time>2026-03-27T10:38:55.32Z</time></trkpt><trkpt lat="40.7129782" lon="9.4555922"><ele>527.0</ele><time>2026-03-27T10:38:56.335Z</time></trkpt><trkpt lat="40.7128737" lon="9.4556637"><ele>521.5</ele><time>2026-03-27T10:38:57.32Z</time></trkpt><trkpt lat="40.7127517" lon="9.4557069"><ele>516.0</ele><time>2026-03-27T10:38:58.319Z</time></trkpt><trkpt lat="40.7125974" lon="9.4557212"><ele>514.75</ele><time>2026-03-27T10:38:59.328Z</time></trkpt><trkpt lat="40.7124442" lon="9.4557203"><ele>513.5</ele><time>2026-03-27T10:39:00.327Z</time></trkpt><trkpt lat="40.7123283" lon="9.4557389"><ele>512.25</ele><time>2026-03-27T10:39:01.33Z</time></trkpt><trkpt lat="40.7122381" lon="9.4557909"><ele>511.0</ele><time>2026-03-27T10:39:02.329Z</time></trkpt><trkpt lat="40.7121467" lon="9.4558723"><ele>511.0</ele><time>2026-03-27T10:39:03.317Z</time></trkpt><trkpt lat="40.7120392" lon="9.455978"><ele>511.0</ele><time>2026-03-27T10:39:04.32Z</time></trkpt><trkpt lat="40.7119329" lon="9.4561023"><ele>511.0</ele><time>2026-03-27T10:39:05.32Z</time></trkpt><trkpt lat="40.7118401" lon="9.4561758"><ele>511.0</ele><time>2026-03-27T10:39:06.319Z</time></trkpt><trkpt lat="40.7117454" lon="9.4562122"><ele>512.3333333333334</ele><time>2026-03-27T10:39:07.329Z</time></trkpt><trkpt lat="40.7116016" lon="9.4562568"><ele>513.6666666666666</ele><time>2026-03-27T10:39:08.328Z</time></trkpt><trkpt lat="40.7114354" lon="9.4563225"><ele>515.0</ele><time>2026-03-27T10:39:09.327Z</time></trkpt><trkpt lat="40.7112877" lon="9.4563982"><ele>509.75</ele><time>2026-03-27T10:39:10.327Z</time></trkpt><trkpt lat="40.711157" lon="9.4564709"><ele>504.5</ele><time>2026-03-27T10:39:11.325Z</time></trkpt><trkpt lat="40.7110336" lon="9.4565293"><ele>499.25</ele><time>2026-03-27T10:39:12.325Z</time></trkpt><trkpt lat="40.710906" lon="9.4565885"><ele>494.0</ele><time>2026-03-27T10:39:13.328Z</time></trkpt><trkpt lat="40.7107829" lon="9.4566406"><ele>493.5</ele><time>2026-03-27T10:39:14.32Z</time></trkpt><trkpt lat="40.710653" lon="9.4566742"><ele>493.0</ele><time>2026-03-27T10:39:15.328Z</time></trkpt><trkpt lat="40.7105231" lon="9.4567136"><ele>492.5</ele><time>2026-03-27T10:39:16.329Z</time></trkpt><trkpt lat="40.7103982" lon="9.4567429"><ele>492.0</ele><time>2026-03-27T10:39:17.322Z</time></trkpt><trkpt lat="40.7102752" lon="9.4567636"><ele>491.20000000000005</ele><time>2026-03-27T10:39:18.322Z</time></trkpt><trkpt lat="40.7101603" lon="9.4567776"><ele>490.40000000000003</ele><time>2026-03-27T10:39:19.329Z</time></trkpt><trkpt lat="40.710058" lon="9.4568006"><ele>489.59999999999997</ele><time>2026-03-27T10:39:20.328Z</time></trkpt><trkpt lat="40.7099523" lon="9.4568318"><ele>488.79999999999995</ele><time>2026-03-27T10:39:21.323Z</time></trkpt><trkpt lat="40.7098781" lon="9.4568713"><ele>488.0</ele><time>2026-03-27T10:39:22.328Z</time></trkpt><trkpt lat="40.7097964" lon="9.4569935"><ele>488.0</ele><time>2026-03-27T10:39:24.329Z</time></trkpt><trkpt lat="40.709761" lon="9.4570934"><ele>488.0</ele><time>2026-03-27T10:39:25.327Z</time></trkpt><trkpt lat="40.7097288" lon="9.4572412"><ele>488.0</ele><time>2026-03-27T10:39:26.327Z</time></trkpt><trkpt lat="40.7096797" lon="9.4573799"><ele>488.0</ele><time>2026-03-27T10:39:27.326Z</time></trkpt><trkpt lat="40.7095835" lon="9.4575335"><ele>485.3333333333333</ele><time>2026-03-27T10:39:28.332Z</time></trkpt><trkpt lat="40.7094944" lon="9.4576736"><ele>482.66666666666663</ele><time>2026-03-27T10:39:29.323Z</time></trkpt><trkpt lat="40.7093595" lon="9.4578041"><ele>480.0</ele><time>2026-03-27T10:39:30.327Z</time></trkpt><trkpt lat="40.7092164" lon="9.4579277"><ele>480.5</ele><time>2026-03-27T10:39:31.328Z</time></trkpt><trkpt lat="40.7090724" lon="9.4580471"><ele>481.0</ele><time>2026-03-27T10:39:32.322Z</time></trkpt><trkpt lat="40.7089605" lon="9.4581312"><ele>481.5</ele><time>2026-03-27T10:39:33.327Z</time></trkpt><trkpt lat="40.7088499" lon="9.4581742"><ele>482.0</ele><time>2026-03-27T10:39:34.331Z</time></trkpt><trkpt lat="40.7087686" lon="9.4582218"><ele>482.0</ele><time>2026-03-27T10:39:35.335Z</time></trkpt><trkpt lat="40.7086931" lon="9.4582854"><ele>482.00000000000006</ele><time>2026-03-27T10:39:36.324Z</time></trkpt><trkpt lat="40.7086011" lon="9.4583595"><ele>482.00000000000006</ele><time>2026-03-27T10:39:37.325Z</time></trkpt><trkpt lat="40.7084894" lon="9.4584274"><ele>482.0</ele><time>2026-03-27T10:39:38.322Z</time></trkpt><trkpt lat="40.7083823" lon="9.4585063"><ele>482.0</ele><time>2026-03-27T10:39:39.326Z</time></trkpt><trkpt lat="40.7082698" lon="9.4585646"><ele>482.25</ele><time>2026-03-27T10:39:40.332Z</time></trkpt><trkpt lat="40.7081689" lon="9.4586375"><ele>482.5</ele><time>2026-03-27T10:39:41.324Z</time></trkpt><trkpt lat="40.708065" lon="9.4587141"><ele>482.75</ele><time>2026-03-27T10:39:42.325Z</time></trkpt><trkpt lat="40.7079657" lon="9.4588103"><ele>483.0</ele><time>2026-03-27T10:39:43.319Z</time></trkpt><trkpt lat="40.7078675" lon="9.4589102"><ele>478.0</ele><time>2026-03-27T10:39:44.322Z</time></trkpt><trkpt lat="40.7077695" lon="9.4589936"><ele>473.0</ele><time>2026-03-27T10:39:45.324Z</time></trkpt><trkpt lat="40.7076751" lon="9.4590711"><ele>468.0</ele><time>2026-03-27T10:39:46.321Z</time></trkpt><trkpt lat="40.707578" lon="9.459144"><ele>463.0</ele><time>2026-03-27T10:39:47.325Z</time></trkpt><trkpt lat="40.7074664" lon="9.4592017"><ele>460.75</ele><time>2026-03-27T10:39:48.316Z</time></trkpt><trkpt lat="40.707359" lon="9.4592528"><ele>458.5</ele><time>2026-03-27T10:39:49.318Z</time></trkpt><trkpt lat="40.7072414" lon="9.4593085"><ele>456.25</ele><time>2026-03-27T10:39:50.325Z</time></trkpt><trkpt lat="40.7071259" lon="9.459362"><ele>454.0</ele><time>2026-03-27T10:39:51.328Z</time></trkpt><trkpt lat="40.707017" lon="9.4594378"><ele>454.0</ele><time>2026-03-27T10:39:52.318Z</time></trkpt><trkpt lat="40.7069142" lon="9.4595204"><ele>454.0</ele><time>2026-03-27T10:39:53.324Z</time></trkpt><trkpt lat="40.7068219" lon="9.4595924"><ele>454.0</ele><time>2026-03-27T10:39:54.322Z</time></trkpt><trkpt lat="40.7067355" lon="9.4596695"><ele>454.0</ele><time>2026-03-27T10:39:55.32Z</time></trkpt><trkpt lat="40.7066554" lon="9.4597479"><ele>454.0</ele><time>2026-03-27T10:39:56.327Z</time></trkpt><trkpt lat="40.7065736" lon="9.4598528"><ele>451.5</ele><time>2026-03-27T10:39:57.325Z</time></trkpt><trkpt lat="40.7064522" lon="9.4599995"><ele>449.0</ele><time>2026-03-27T10:39:58.329Z</time></trkpt><trkpt lat="40.7063493" lon="9.4601348"><ele>446.5</ele><time>2026-03-27T10:39:59.319Z</time></trkpt><trkpt lat="40.7062616" lon="9.4602487"><ele>444.0</ele><time>2026-03-27T10:40:00.325Z</time></trkpt><trkpt lat="40.7061747" lon="9.4603642"><ele>443.4</ele><time>2026-03-27T10:40:01.317Z</time></trkpt><trkpt lat="40.706098" lon="9.4604656"><ele>442.79999999999995</ele><time>2026-03-27T10:40:02.317Z</time></trkpt><trkpt lat="40.7060246" lon="9.4605595"><ele>442.20000000000005</ele><time>2026-03-27T10:40:03.319Z</time></trkpt><trkpt lat="40.7059446" lon="9.4606431"><ele>441.6</ele><time>2026-03-27T10:40:04.325Z</time></trkpt><trkpt lat="40.7058579" lon="9.4607246"><ele>441.0</ele><time>2026-03-27T10:40:05.325Z</time></trkpt><trkpt lat="40.7057575" lon="9.4608203"><ele>440.25</ele><time>2026-03-27T10:40:06.325Z</time></trkpt><trkpt lat="40.7056601" lon="9.4609232"><ele>439.5</ele><time>2026-03-27T10:40:07.328Z</time></trkpt><trkpt lat="40.7055698" lon="9.4610282"><ele>438.75</ele><time>2026-03-27T10:40:08.321Z</time></trkpt><trkpt lat="40.7054893" lon="9.4611286"><ele>438.0</ele><time>2026-03-27T10:40:09.32Z</time></trkpt><trkpt lat="40.70542" lon="9.4612321"><ele>437.4</ele><time>2026-03-27T10:40:10.324Z</time></trkpt><trkpt lat="40.7053712" lon="9.4613372"><ele>436.79999999999995</ele><time>2026-03-27T10:40:11.318Z</time></trkpt><trkpt lat="40.7053417" lon="9.46145"><ele>436.2</ele><time>2026-03-27T10:40:12.321Z</time></trkpt><trkpt lat="40.7053262" lon="9.4615805"><ele>435.6</ele><time>2026-03-27T10:40:13.324Z</time></trkpt><trkpt lat="40.7053134" lon="9.4617211"><ele>435.0</ele><time>2026-03-27T10:40:14.318Z</time></trkpt><trkpt lat="40.7053252" lon="9.4618683"><ele>435.0</ele><time>2026-03-27T10:40:15.323Z</time></trkpt><trkpt lat="40.7053477" lon="9.462002"><ele>435.0</ele><time>2026-03-27T10:40:16.324Z</time></trkpt><trkpt lat="40.7053644" lon="9.4621301"><ele>435.0</ele><time>2026-03-27T10:40:17.318Z</time></trkpt><trkpt lat="40.7053804" lon="9.4622523"><ele>435.0</ele><time>2026-03-27T10:40:18.325Z</time></trkpt><trkpt lat="40.7053747" lon="9.4623874"><ele>435.0</ele><time>2026-03-27T10:40:19.319Z</time></trkpt><trkpt lat="40.7053709" lon="9.4625117"><ele>434.6666666666667</ele><time>2026-03-27T10:40:20.322Z</time></trkpt><trkpt lat="40.7053559" lon="9.4626348"><ele>434.33333333333337</ele><time>2026-03-27T10:40:21.326Z</time></trkpt><trkpt lat="40.7053418" lon="9.4627422"><ele>434.0</ele><time>2026-03-27T10:40:22.32Z</time></trkpt><trkpt lat="40.7053375" lon="9.4628384"><ele>433.6666666666667</ele><time>2026-03-27T10:40:23.328Z</time></trkpt><trkpt lat="40.7053414" lon="9.4629273"><ele>433.33333333333337</ele><time>2026-03-27T10:40:24.323Z</time></trkpt><trkpt lat="40.7053252" lon="9.4630079"><ele>433.0</ele><time>2026-03-27T10:40:25.326Z</time></trkpt><trkpt lat="40.7052889" lon="9.4631444"><ele>432.59999999999997</ele><time>2026-03-27T10:40:27.322Z</time></trkpt><trkpt lat="40.7052602" lon="9.4632672"><ele>432.19999999999993</ele><time>2026-03-27T10:40:29.328Z</time></trkpt><trkpt lat="40.7052178" lon="9.4633602"><ele>431.8</ele><time>2026-03-27T10:41:49.343Z</time></trkpt><trkpt lat="40.7052603" lon="9.4634742"><ele>431.4</ele><time>2026-03-27T10:41:51.34Z</time></trkpt><trkpt lat="40.7053227" lon="9.4635565"><ele>431.0</ele><time>2026-03-27T10:41:52.342Z</time></trkpt><trkpt lat="40.7053888" lon="9.4636313"><ele>431.0</ele><time>2026-03-27T10:41:53.353Z</time></trkpt><trkpt lat="40.7054537" lon="9.4637045"><ele>431.0</ele><time>2026-03-27T10:41:54.331Z</time></trkpt><trkpt lat="40.7055541" lon="9.4638808"><ele>431.0</ele><time>2026-03-27T10:41:56.328Z</time></trkpt><trkpt lat="40.705604" lon="9.4639982"><ele>431.0</ele><time>2026-03-27T10:41:57.327Z</time></trkpt><trkpt lat="40.7056513" lon="9.4641418"><ele>430.5</ele><time>2026-03-27T10:41:58.319Z</time></trkpt><trkpt lat="40.7056875" lon="9.4643089"><ele>430.0</ele><time>2026-03-27T10:41:59.325Z</time></trkpt><trkpt lat="40.70571" lon="9.4644827"><ele>429.5</ele><time>2026-03-27T10:42:00.319Z</time></trkpt><trkpt lat="40.7057295" lon="9.4646767"><ele>429.0</ele><time>2026-03-27T10:42:01.329Z</time></trkpt><trkpt lat="40.7057499" lon="9.4648899"><ele>429.0</ele><time>2026-03-27T10:42:02.317Z</time></trkpt><trkpt lat="40.7057717" lon="9.4650969"><ele>429.0</ele><time>2026-03-27T10:42:03.329Z</time></trkpt><trkpt lat="40.7057982" lon="9.4652962"><ele>429.0</ele><time>2026-03-27T10:42:04.324Z</time></trkpt><trkpt lat="40.705839" lon="9.4654943"><ele>429.66666666666663</ele><time>2026-03-27T10:42:05.328Z</time></trkpt><trkpt lat="40.7058955" lon="9.4656902"><ele>430.3333333333333</ele><time>2026-03-27T10:42:06.327Z</time></trkpt><trkpt lat="40.7059658" lon="9.465882"><ele>431.0</ele><time>2026-03-27T10:42:07.321Z</time></trkpt><trkpt lat="40.7060471" lon="9.4660706"><ele>431.3333333333333</ele><time>2026-03-27T10:42:08.331Z</time></trkpt><trkpt lat="40.7061278" lon="9.4662506"><ele>431.66666666666663</ele><time>2026-03-27T10:42:09.325Z</time></trkpt><trkpt lat="40.7062094" lon="9.4664165"><ele>432.0</ele><time>2026-03-27T10:42:10.328Z</time></trkpt><trkpt lat="40.7062872" lon="9.4665749"><ele>431.25</ele><time>2026-03-27T10:42:11.327Z</time></trkpt><trkpt lat="40.7063631" lon="9.4667314"><ele>430.5</ele><time>2026-03-27T10:42:12.326Z</time></trkpt><trkpt lat="40.7064403" lon="9.46689"><ele>429.75</ele><time>2026-03-27T10:42:13.333Z</time></trkpt><trkpt lat="40.7065187" lon="9.4670506"><ele>429.0</ele><time>2026-03-27T10:42:14.33Z</time></trkpt><trkpt lat="40.7065972" lon="9.4672134"><ele>428.75</ele><time>2026-03-27T10:42:15.337Z</time></trkpt><trkpt lat="40.7066763" lon="9.4673772"><ele>428.5</ele><time>2026-03-27T10:42:16.318Z</time></trkpt><trkpt lat="40.7067564" lon="9.4675419"><ele>428.25</ele><time>2026-03-27T10:42:17.323Z</time></trkpt><trkpt lat="40.706838" lon="9.4677063"><ele>428.0</ele><time>2026-03-27T10:42:18.328Z</time></trkpt><trkpt lat="40.7069199" lon="9.4678691"><ele>427.25</ele><time>2026-03-27T10:42:19.323Z</time></trkpt><trkpt lat="40.7070017" lon="9.4680324"><ele>426.5</ele><time>2026-03-27T10:42:20.325Z</time></trkpt><trkpt lat="40.7070826" lon="9.4681963"><ele>425.75</ele><time>2026-03-27T10:42:21.325Z</time></trkpt><trkpt lat="40.7071647" lon="9.4683601"><ele>425.0</ele><time>2026-03-27T10:42:22.328Z</time></trkpt><trkpt lat="40.7072486" lon="9.4685295"><ele>425.0</ele><time>2026-03-27T10:42:23.334Z</time></trkpt><trkpt lat="40.7073349" lon="9.4687059"><ele>425.0</ele><time>2026-03-27T10:42:24.333Z</time></trkpt><trkpt lat="40.7074232" lon="9.4688878"><ele>425.0</ele><time>2026-03-27T10:42:25.328Z</time></trkpt><trkpt lat="40.7075143" lon="9.4690738"><ele>425.0</ele><time>2026-03-27T10:42:26.341Z</time></trkpt><trkpt lat="40.7076045" lon="9.4692595"><ele>425.0</ele><time>2026-03-27T10:42:27.327Z</time></trkpt><trkpt lat="40.7076921" lon="9.4694416"><ele>425.0</ele><time>2026-03-27T10:42:28.326Z</time></trkpt><trkpt lat="40.7077707" lon="9.4696252"><ele>425.0</ele><time>2026-03-27T10:42:29.328Z</time></trkpt><trkpt lat="40.7078458" lon="9.4698136"><ele>425.0</ele><time>2026-03-27T10:42:30.329Z</time></trkpt><trkpt lat="40.707917" lon="9.4700061"><ele>425.0</ele><time>2026-03-27T10:42:31.332Z</time></trkpt><trkpt lat="40.7079791" lon="9.4702017"><ele>425.0</ele><time>2026-03-27T10:42:32.325Z</time></trkpt><trkpt lat="40.7080299" lon="9.4704027"><ele>425.0</ele><time>2026-03-27T10:42:33.33Z</time></trkpt><trkpt lat="40.7080668" lon="9.4706089"><ele>425.0</ele><time>2026-03-27T10:42:34.325Z</time></trkpt><trkpt lat="40.7080946" lon="9.4708182"><ele>425.0</ele><time>2026-03-27T10:42:35.324Z</time></trkpt><trkpt lat="40.7081123" lon="9.4710306"><ele>425.0</ele><time>2026-03-27T10:42:36.33Z</time></trkpt><trkpt lat="40.7081216" lon="9.4712447"><ele>425.0</ele><time>2026-03-27T10:42:37.324Z</time></trkpt><trkpt lat="40.7081226" lon="9.471464"><ele>424.3333333333333</ele><time>2026-03-27T10:42:38.333Z</time></trkpt><trkpt lat="40.7081183" lon="9.4716865"><ele>423.66666666666663</ele><time>2026-03-27T10:42:39.325Z</time></trkpt><trkpt lat="40.7081081" lon="9.4719146"><ele>423.0</ele><time>2026-03-27T10:42:40.325Z</time></trkpt><trkpt lat="40.7080962" lon="9.472144"><ele>422.0</ele><time>2026-03-27T10:42:41.325Z</time></trkpt><trkpt lat="40.7080824" lon="9.4723748"><ele>421.0</ele><time>2026-03-27T10:42:42.327Z</time></trkpt><trkpt lat="40.7080675" lon="9.4726064"><ele>420.0</ele><time>2026-03-27T10:42:43.329Z</time></trkpt><trkpt lat="40.7080534" lon="9.4728288"><ele>420.0</ele><time>2026-03-27T10:42:44.325Z</time></trkpt><trkpt lat="40.7080409" lon="9.4730428"><ele>420.0</ele><time>2026-03-27T10:42:45.326Z</time></trkpt><trkpt lat="40.7080292" lon="9.4732451"><ele>420.0</ele><time>2026-03-27T10:42:46.322Z</time></trkpt><trkpt lat="40.7080156" lon="9.4734413"><ele>420.0</ele><time>2026-03-27T10:42:47.33Z</time></trkpt><trkpt lat="40.708001" lon="9.4736327"><ele>420.0</ele><time>2026-03-27T10:42:48.332Z</time></trkpt><trkpt lat="40.7079919" lon="9.4738263"><ele>420.0</ele><time>2026-03-27T10:42:49.323Z</time></trkpt><trkpt lat="40.7079827" lon="9.4740196"><ele>420.0</ele><time>2026-03-27T10:42:50.326Z</time></trkpt><trkpt lat="40.7079741" lon="9.4742135"><ele>422.66666666666663</ele><time>2026-03-27T10:42:51.332Z</time></trkpt><trkpt lat="40.7079626" lon="9.4744134"><ele>425.3333333333333</ele><time>2026-03-27T10:42:52.323Z</time></trkpt><trkpt lat="40.7079486" lon="9.4746185"><ele>428.0</ele><time>2026-03-27T10:42:53.326Z</time></trkpt><trkpt lat="40.7079363" lon="9.47483"><ele>429.3333333333333</ele><time>2026-03-27T10:42:54.329Z</time></trkpt><trkpt lat="40.7079246" lon="9.4750447"><ele>430.66666666666663</ele><time>2026-03-27T10:42:55.327Z</time></trkpt><trkpt lat="40.7079176" lon="9.4752606"><ele>432.0</ele><time>2026-03-27T10:42:56.322Z</time></trkpt><trkpt lat="40.7079223" lon="9.47547"><ele>432.66666666666663</ele><time>2026-03-27T10:42:57.323Z</time></trkpt><trkpt lat="40.7079395" lon="9.4756717"><ele>433.3333333333333</ele><time>2026-03-27T10:42:58.322Z</time></trkpt><trkpt lat="40.7079726" lon="9.4758687"><ele>434.0</ele><time>2026-03-27T10:42:59.326Z</time></trkpt><trkpt lat="40.708024" lon="9.476065"><ele>434.0</ele><time>2026-03-27T10:43:00.328Z</time></trkpt><trkpt lat="40.7080983" lon="9.4762651"><ele>434.0</ele><time>2026-03-27T10:43:01.328Z</time></trkpt><trkpt lat="40.7081947" lon="9.4764656"><ele>434.0</ele><time>2026-03-27T10:43:02.324Z</time></trkpt><trkpt lat="40.7083097" lon="9.4766645"><ele>433.66666666666663</ele><time>2026-03-27T10:43:03.346Z</time></trkpt><trkpt lat="40.7084376" lon="9.4768629"><ele>433.33333333333337</ele><time>2026-03-27T10:43:04.326Z</time></trkpt><trkpt lat="40.7085727" lon="9.4770626"><ele>433.0</ele><time>2026-03-27T10:43:05.321Z</time></trkpt><trkpt lat="40.7087128" lon="9.4772628"><ele>432.33333333333337</ele><time>2026-03-27T10:43:06.337Z</time></trkpt><trkpt lat="40.7088524" lon="9.4774622"><ele>431.66666666666663</ele><time>2026-03-27T10:43:07.322Z</time></trkpt><trkpt lat="40.7089878" lon="9.4776552"><ele>431.0</ele><time>2026-03-27T10:43:08.324Z</time></trkpt><trkpt lat="40.7091182" lon="9.4778462"><ele>431.3333333333333</ele><time>2026-03-27T10:43:09.32Z</time></trkpt><trkpt lat="40.7092467" lon="9.4780341"><ele>431.66666666666663</ele><time>2026-03-27T10:43:10.324Z</time></trkpt><trkpt lat="40.709367" lon="9.4782324"><ele>432.0</ele><time>2026-03-27T10:43:11.317Z</time></trkpt><trkpt lat="40.7094841" lon="9.4784331"><ele>429.66666666666663</ele><time>2026-03-27T10:43:12.319Z</time></trkpt><trkpt lat="40.7095955" lon="9.4786348"><ele>427.3333333333333</ele><time>2026-03-27T10:43:13.317Z</time></trkpt><trkpt lat="40.70971" lon="9.4788313"><ele>425.0</ele><time>2026-03-27T10:43:14.325Z</time></trkpt><trkpt lat="40.7098265" lon="9.4790121"><ele>424.66666666666663</ele><time>2026-03-27T10:43:15.327Z</time></trkpt><trkpt lat="40.7099467" lon="9.4791702"><ele>424.33333333333337</ele><time>2026-03-27T10:43:16.322Z</time></trkpt><trkpt lat="40.7100789" lon="9.4793061"><ele>424.0</ele><time>2026-03-27T10:43:17.339Z</time></trkpt><trkpt lat="40.7102257" lon="9.4794177"><ele>424.33333333333337</ele><time>2026-03-27T10:43:18.319Z</time></trkpt><trkpt lat="40.7103726" lon="9.4795158"><ele>424.66666666666663</ele><time>2026-03-27T10:43:19.325Z</time></trkpt><trkpt lat="40.7105347" lon="9.4795856"><ele>425.0</ele><time>2026-03-27T10:43:20.319Z</time></trkpt><trkpt lat="40.7107024" lon="9.4796538"><ele>425.0</ele><time>2026-03-27T10:43:21.327Z</time></trkpt><trkpt lat="40.7108799" lon="9.4797502"><ele>425.0</ele><time>2026-03-27T10:43:22.321Z</time></trkpt><trkpt lat="40.7110475" lon="9.4798621"><ele>425.0</ele><time>2026-03-27T10:43:23.325Z</time></trkpt><trkpt lat="40.7112129" lon="9.479987"><ele>426.66666666666663</ele><time>2026-03-27T10:43:24.324Z</time></trkpt><trkpt lat="40.7113798" lon="9.4801105"><ele>428.33333333333337</ele><time>2026-03-27T10:43:25.325Z</time></trkpt><trkpt lat="40.7115466" lon="9.4802457"><ele>430.0</ele><time>2026-03-27T10:43:26.324Z</time></trkpt><trkpt lat="40.7117101" lon="9.48038"><ele>429.33333333333337</ele><time>2026-03-27T10:43:27.323Z</time></trkpt><trkpt lat="40.7118753" lon="9.4805101"><ele>428.66666666666663</ele><time>2026-03-27T10:43:28.341Z</time></trkpt><trkpt lat="40.712038" lon="9.4806451"><ele>428.0</ele><time>2026-03-27T10:43:29.323Z</time></trkpt><trkpt lat="40.7121934" lon="9.4807777"><ele>429.3333333333333</ele><time>2026-03-27T10:43:30.323Z</time></trkpt><trkpt lat="40.7123454" lon="9.4809062"><ele>430.66666666666663</ele><time>2026-03-27T10:43:31.324Z</time></trkpt><trkpt lat="40.7124945" lon="9.4810304"><ele>432.0</ele><time>2026-03-27T10:43:32.327Z</time></trkpt><trkpt lat="40.7126398" lon="9.4811527"><ele>433.33333333333337</ele><time>2026-03-27T10:43:33.326Z</time></trkpt><trkpt lat="40.7127789" lon="9.4812712"><ele>434.6666666666667</ele><time>2026-03-27T10:43:34.316Z</time></trkpt><trkpt lat="40.7129095" lon="9.4813787"><ele>436.0</ele><time>2026-03-27T10:43:35.335Z</time></trkpt><trkpt lat="40.7130285" lon="9.481476"><ele>436.0</ele><time>2026-03-27T10:43:36.329Z</time></trkpt><trkpt lat="40.7131406" lon="9.4815652"><ele>436.0</ele><time>2026-03-27T10:43:37.329Z</time></trkpt><trkpt lat="40.7132334" lon="9.4816671"><ele>436.0</ele><time>2026-03-27T10:43:38.322Z</time></trkpt><trkpt lat="40.7133263" lon="9.4817699"><ele>436.0</ele><time>2026-03-27T10:43:39.324Z</time></trkpt><trkpt lat="40.7133897" lon="9.4819348"><ele>436.0</ele><time>2026-03-27T10:43:40.323Z</time></trkpt><trkpt lat="40.7134458" lon="9.4820985"><ele>436.0</ele><time>2026-03-27T10:43:41.323Z</time></trkpt><trkpt lat="40.7135191" lon="9.4822827"><ele>436.0</ele><time>2026-03-27T10:43:42.32Z</time></trkpt><trkpt lat="40.7135905" lon="9.4824788"><ele>435.6666666666667</ele><time>2026-03-27T10:43:43.321Z</time></trkpt><trkpt lat="40.713668" lon="9.4826773"><ele>435.33333333333337</ele><time>2026-03-27T10:43:44.323Z</time></trkpt><trkpt lat="40.7137477" lon="9.4828814"><ele>435.0</ele><time>2026-03-27T10:43:45.326Z</time></trkpt><trkpt lat="40.7138411" lon="9.4830933"><ele>435.0</ele><time>2026-03-27T10:43:46.319Z</time></trkpt><trkpt lat="40.7139291" lon="9.4832937"><ele>435.0</ele><time>2026-03-27T10:43:47.328Z</time></trkpt><trkpt lat="40.7140146" lon="9.4834833"><ele>435.0</ele><time>2026-03-27T10:43:48.322Z</time></trkpt><trkpt lat="40.7140983" lon="9.4836769"><ele>435.33333333333337</ele><time>2026-03-27T10:43:49.322Z</time></trkpt><trkpt lat="40.714176" lon="9.4838576"><ele>435.6666666666667</ele><time>2026-03-27T10:43:50.324Z</time></trkpt><trkpt lat="40.7142561" lon="9.4840312"><ele>436.0</ele><time>2026-03-27T10:43:51.325Z</time></trkpt><trkpt lat="40.7143395" lon="9.4842004"><ele>435.0</ele><time>2026-03-27T10:43:52.323Z</time></trkpt><trkpt lat="40.7144187" lon="9.4843659"><ele>434.0</ele><time>2026-03-27T10:43:53.32Z</time></trkpt><trkpt lat="40.7145024" lon="9.4845232"><ele>433.0</ele><time>2026-03-27T10:43:54.317Z</time></trkpt><trkpt lat="40.7145778" lon="9.4846738"><ele>432.0</ele><time>2026-03-27T10:43:55.321Z</time></trkpt><trkpt lat="40.7146477" lon="9.4848104"><ele>432.0</ele><time>2026-03-27T10:43:56.321Z</time></trkpt><trkpt lat="40.7147101" lon="9.4849388"><ele>432.00000000000006</ele><time>2026-03-27T10:43:57.318Z</time></trkpt><trkpt lat="40.7147449" lon="9.4850652"><ele>432.00000000000006</ele><time>2026-03-27T10:43:58.319Z</time></trkpt><trkpt lat="40.7147445" lon="9.485207"><ele>432.0</ele><time>2026-03-27T10:43:59.323Z</time></trkpt><trkpt lat="40.7147056" lon="9.4853571"><ele>432.0</ele><time>2026-03-27T10:44:00.32Z</time></trkpt><trkpt lat="40.7146346" lon="9.4855027"><ele>431.66666666666663</ele><time>2026-03-27T10:44:01.334Z</time></trkpt><trkpt lat="40.7145558" lon="9.4856455"><ele>431.3333333333333</ele><time>2026-03-27T10:44:02.321Z</time></trkpt><trkpt lat="40.7144396" lon="9.4857882"><ele>431.0</ele><time>2026-03-27T10:44:03.323Z</time></trkpt><trkpt lat="40.7143273" lon="9.4859432"><ele>433.0</ele><time>2026-03-27T10:44:04.325Z</time></trkpt><trkpt lat="40.7142242" lon="9.4860947"><ele>435.0</ele><time>2026-03-27T10:44:05.33Z</time></trkpt><trkpt lat="40.7141423" lon="9.4862661"><ele>437.0</ele><time>2026-03-27T10:44:06.33Z</time></trkpt><trkpt lat="40.7140918" lon="9.4864444"><ele>437.0</ele><time>2026-03-27T10:44:07.317Z</time></trkpt><trkpt lat="40.7140482" lon="9.486639"><ele>437.0</ele><time>2026-03-27T10:44:08.325Z</time></trkpt><trkpt lat="40.7140447" lon="9.4868532"><ele>437.0</ele><time>2026-03-27T10:44:09.323Z</time></trkpt><trkpt lat="40.7140497" lon="9.4870822"><ele>437.66666666666663</ele><time>2026-03-27T10:44:10.324Z</time></trkpt><trkpt lat="40.7140586" lon="9.4873081"><ele>438.33333333333337</ele><time>2026-03-27T10:44:11.325Z</time></trkpt><trkpt lat="40.7140595" lon="9.4875116"><ele>439.0</ele><time>2026-03-27T10:44:12.325Z</time></trkpt><trkpt lat="40.714037" lon="9.4876986"><ele>439.0</ele><time>2026-03-27T10:44:13.321Z</time></trkpt><trkpt lat="40.7139766" lon="9.4878659"><ele>439.0</ele><time>2026-03-27T10:44:14.321Z</time></trkpt><trkpt lat="40.7138804" lon="9.4880236"><ele>439.0</ele><time>2026-03-27T10:44:15.327Z</time></trkpt><trkpt lat="40.7137599" lon="9.488171"><ele>439.0</ele><time>2026-03-27T10:44:16.325Z</time></trkpt><trkpt lat="40.7136254" lon="9.4883174"><ele>439.0</ele><time>2026-03-27T10:44:17.335Z</time></trkpt><trkpt lat="40.7134981" lon="9.4884854"><ele>439.0</ele><time>2026-03-27T10:44:18.323Z</time></trkpt><trkpt lat="40.7133872" lon="9.4886763"><ele>442.0</ele><time>2026-03-27T10:44:19.326Z</time></trkpt><trkpt lat="40.7132948" lon="9.4888859"><ele>445.0</ele><time>2026-03-27T10:44:20.32Z</time></trkpt><trkpt lat="40.7132126" lon="9.4891058"><ele>448.0</ele><time>2026-03-27T10:44:21.316Z</time></trkpt><trkpt lat="40.7131374" lon="9.4893282"><ele>448.0</ele><time>2026-03-27T10:44:22.321Z</time></trkpt><trkpt lat="40.7130633" lon="9.4895285"><ele>448.0</ele><time>2026-03-27T10:44:23.325Z</time></trkpt><trkpt lat="40.7129832" lon="9.4897021"><ele>448.0</ele><time>2026-03-27T10:44:24.325Z</time></trkpt><trkpt lat="40.7128941" lon="9.4898721"><ele>447.33333333333337</ele><time>2026-03-27T10:44:25.318Z</time></trkpt><trkpt lat="40.7127575" lon="9.4899854"><ele>446.66666666666663</ele><time>2026-03-27T10:44:26.32Z</time></trkpt><trkpt lat="40.7126064" lon="9.4900811"><ele>446.0</ele><time>2026-03-27T10:44:27.316Z</time></trkpt><trkpt lat="40.7124521" lon="9.490177"><ele>445.66666666666663</ele><time>2026-03-27T10:44:28.316Z</time></trkpt><trkpt lat="40.7122958" lon="9.4902795"><ele>445.33333333333337</ele><time>2026-03-27T10:44:29.32Z</time></trkpt><trkpt lat="40.7121371" lon="9.4903863"><ele>445.0</ele><time>2026-03-27T10:44:30.319Z</time></trkpt><trkpt lat="40.7119864" lon="9.4904905"><ele>446.6666666666667</ele><time>2026-03-27T10:44:31.358Z</time></trkpt><trkpt lat="40.7118414" lon="9.490583"><ele>448.33333333333337</ele><time>2026-03-27T10:44:32.319Z</time></trkpt><trkpt lat="40.7116874" lon="9.4906735"><ele>450.0</ele><time>2026-03-27T10:44:33.33Z</time></trkpt><trkpt lat="40.7115328" lon="9.4907484"><ele>450.0</ele><time>2026-03-27T10:44:34.325Z</time></trkpt><trkpt lat="40.7113771" lon="9.4908134"><ele>450.0</ele><time>2026-03-27T10:44:35.328Z</time></trkpt><trkpt lat="40.7112174" lon="9.4908738"><ele>450.0</ele><time>2026-03-27T10:44:36.321Z</time></trkpt><trkpt lat="40.7110566" lon="9.4909346"><ele>450.66666666666663</ele><time>2026-03-27T10:44:37.321Z</time></trkpt><trkpt lat="40.7108999" lon="9.4909949"><ele>451.3333333333333</ele><time>2026-03-27T10:44:38.317Z</time></trkpt><trkpt lat="40.7107544" lon="9.4910665"><ele>452.0</ele><time>2026-03-27T10:44:39.325Z</time></trkpt><trkpt lat="40.710608" lon="9.4911445"><ele>453.66666666666663</ele><time>2026-03-27T10:44:40.317Z</time></trkpt><trkpt lat="40.7104884" lon="9.491258"><ele>455.33333333333337</ele><time>2026-03-27T10:44:41.326Z</time></trkpt><trkpt lat="40.7103847" lon="9.4914084"><ele>457.0</ele><time>2026-03-27T10:44:42.317Z</time></trkpt><trkpt lat="40.710287" lon="9.4915665"><ele>457.0</ele><time>2026-03-27T10:44:43.327Z</time></trkpt><trkpt lat="40.7102165" lon="9.4917592"><ele>457.0</ele><time>2026-03-27T10:44:44.329Z</time></trkpt><trkpt lat="40.7101608" lon="9.4919726"><ele>457.0</ele><time>2026-03-27T10:44:45.325Z</time></trkpt><trkpt lat="40.7100975" lon="9.4921756"><ele>457.33333333333337</ele><time>2026-03-27T10:44:46.325Z</time></trkpt><trkpt lat="40.7100307" lon="9.4923771"><ele>457.66666666666663</ele><time>2026-03-27T10:44:47.321Z</time></trkpt><trkpt lat="40.7099418" lon="9.4925603"><ele>458.0</ele><time>2026-03-27T10:44:48.324Z</time></trkpt><trkpt lat="40.7098341" lon="9.4927333"><ele>458.0</ele><time>2026-03-27T10:44:49.315Z</time></trkpt><trkpt lat="40.7097118" lon="9.4929001"><ele>458.0</ele><time>2026-03-27T10:44:50.324Z</time></trkpt><trkpt lat="40.7095825" lon="9.4930701"><ele>458.0</ele><time>2026-03-27T10:44:51.325Z</time></trkpt><trkpt lat="40.7094474" lon="9.4932445"><ele>459.0</ele><time>2026-03-27T10:44:52.324Z</time></trkpt><trkpt lat="40.7093161" lon="9.493425"><ele>460.0</ele><time>2026-03-27T10:44:53.318Z</time></trkpt><trkpt lat="40.7092016" lon="9.4936033"><ele>461.0</ele><time>2026-03-27T10:44:54.329Z</time></trkpt><trkpt lat="40.7091031" lon="9.4937808"><ele>462.3333333333333</ele><time>2026-03-27T10:44:55.318Z</time></trkpt><trkpt lat="40.7090134" lon="9.4939637"><ele>463.66666666666663</ele><time>2026-03-27T10:44:56.322Z</time></trkpt><trkpt lat="40.70892" lon="9.4941413"><ele>465.0</ele><time>2026-03-27T10:44:57.32Z</time></trkpt><trkpt lat="40.7088237" lon="9.4943135"><ele>465.0</ele><time>2026-03-27T10:44:58.331Z</time></trkpt><trkpt lat="40.7087194" lon="9.4944772"><ele>465.0</ele><time>2026-03-27T10:44:59.332Z</time></trkpt><trkpt lat="40.7086009" lon="9.494633"><ele>465.0</ele><time>2026-03-27T10:45:00.328Z</time></trkpt><trkpt lat="40.7084689" lon="9.4947861"><ele>466.0</ele><time>2026-03-27T10:45:01.323Z</time></trkpt><trkpt lat="40.7083336" lon="9.4949359"><ele>467.0</ele><time>2026-03-27T10:45:02.325Z</time></trkpt><trkpt lat="40.7082063" lon="9.4950628"><ele>468.0</ele><time>2026-03-27T10:45:03.327Z</time></trkpt><trkpt lat="40.7080922" lon="9.4951639"><ele>468.0</ele><time>2026-03-27T10:45:04.324Z</time></trkpt><trkpt lat="40.7079855" lon="9.4951975"><ele>468.0</ele><time>2026-03-27T10:45:05.326Z</time></trkpt><trkpt lat="40.7078756" lon="9.4951989"><ele>468.0</ele><time>2026-03-27T10:45:06.316Z</time></trkpt><trkpt lat="40.7077628" lon="9.4951409"><ele>468.0</ele><time>2026-03-27T10:45:07.336Z</time></trkpt><trkpt lat="40.7076615" lon="9.4949997"><ele>469.0</ele><time>2026-03-27T10:45:08.322Z</time></trkpt><trkpt lat="40.707557" lon="9.4948545"><ele>470.0</ele><time>2026-03-27T10:45:09.321Z</time></trkpt><trkpt lat="40.7074346" lon="9.4947065"><ele>471.0</ele><time>2026-03-27T10:45:10.328Z</time></trkpt><trkpt lat="40.707283" lon="9.4945828"><ele>471.0</ele><time>2026-03-27T10:45:11.318Z</time></trkpt><trkpt lat="40.7071205" lon="9.4944821"><ele>471.0</ele><time>2026-03-27T10:45:12.322Z</time></trkpt><trkpt lat="40.7069705" lon="9.4944109"><ele>471.0</ele><time>2026-03-27T10:45:13.322Z</time></trkpt><trkpt lat="40.7068397" lon="9.4943753"><ele>472.20000000000005</ele><time>2026-03-27T10:45:14.317Z</time></trkpt><trkpt lat="40.706736" lon="9.4943671"><ele>473.40000000000003</ele><time>2026-03-27T10:45:15.33Z</time></trkpt><trkpt lat="40.7066443" lon="9.4944333"><ele>474.6</ele><time>2026-03-27T10:45:16.313Z</time></trkpt><trkpt lat="40.7066011" lon="9.4945379"><ele>475.8</ele><time>2026-03-27T10:45:17.319Z</time></trkpt><trkpt lat="40.7065735" lon="9.4946525"><ele>477.0</ele><time>2026-03-27T10:45:18.322Z</time></trkpt><trkpt lat="40.7066146" lon="9.4947762"><ele>479.5</ele><time>2026-03-27T10:45:19.327Z</time></trkpt><trkpt lat="40.7066907" lon="9.49491"><ele>482.0</ele><time>2026-03-27T10:45:20.32Z</time></trkpt><trkpt lat="40.7067827" lon="9.4950555"><ele>484.5</ele><time>2026-03-27T10:45:21.319Z</time></trkpt><trkpt lat="40.7068714" lon="9.4952281"><ele>487.0</ele><time>2026-03-27T10:45:22.333Z</time></trkpt><trkpt lat="40.7069363" lon="9.4954213"><ele>488.6666666666667</ele><time>2026-03-27T10:45:23.32Z</time></trkpt><trkpt lat="40.706964" lon="9.495642"><ele>490.33333333333337</ele><time>2026-03-27T10:45:24.317Z</time></trkpt><trkpt lat="40.7069899" lon="9.4958535"><ele>492.0</ele><time>2026-03-27T10:45:25.32Z</time></trkpt><trkpt lat="40.7069618" lon="9.4960812"><ele>493.66666666666663</ele><time>2026-03-27T10:45:26.327Z</time></trkpt><trkpt lat="40.7069285" lon="9.4963158"><ele>495.3333333333333</ele><time>2026-03-27T10:45:27.323Z</time></trkpt><trkpt lat="40.7068892" lon="9.496548"><ele>497.0</ele><time>2026-03-27T10:45:28.322Z</time></trkpt><trkpt lat="40.7068619" lon="9.4967545"><ele>499.0</ele><time>2026-03-27T10:45:29.319Z</time></trkpt><trkpt lat="40.7068614" lon="9.4969329"><ele>501.0</ele><time>2026-03-27T10:45:30.325Z</time></trkpt><trkpt lat="40.7068698" lon="9.4971139"><ele>503.0</ele><time>2026-03-27T10:45:31.32Z</time></trkpt><trkpt lat="40.7069445" lon="9.4972834"><ele>505.0</ele><time>2026-03-27T10:45:32.324Z</time></trkpt><trkpt lat="40.7070352" lon="9.4974481"><ele>505.0</ele><time>2026-03-27T10:45:33.32Z</time></trkpt><trkpt lat="40.7071396" lon="9.4976252"><ele>505.0</ele><time>2026-03-27T10:45:34.323Z</time></trkpt><trkpt lat="40.7072367" lon="9.4977878"><ele>505.0</ele><time>2026-03-27T10:45:35.32Z</time></trkpt><trkpt lat="40.7073205" lon="9.4979278"><ele>507.0</ele><time>2026-03-27T10:45:36.318Z</time></trkpt><trkpt lat="40.7073927" lon="9.498055"><ele>509.0</ele><time>2026-03-27T10:45:37.325Z</time></trkpt><trkpt lat="40.7074375" lon="9.4982021"><ele>511.0</ele><time>2026-03-27T10:45:38.325Z</time></trkpt><trkpt lat="40.707465" lon="9.4983651"><ele>513.0</ele><time>2026-03-27T10:45:39.323Z</time></trkpt><trkpt lat="40.7074813" lon="9.4985397"><ele>513.0</ele><time>2026-03-27T10:45:40.324Z</time></trkpt><trkpt lat="40.7075175" lon="9.4987143"><ele>513.0</ele><time>2026-03-27T10:45:41.325Z</time></trkpt><trkpt lat="40.7075952" lon="9.4988531"><ele>513.0</ele><time>2026-03-27T10:45:42.329Z</time></trkpt><trkpt lat="40.7076999" lon="9.4989569"><ele>513.0</ele><time>2026-03-27T10:45:43.321Z</time></trkpt><trkpt lat="40.7078315" lon="9.4990306"><ele>514.25</ele><time>2026-03-27T10:45:44.325Z</time></trkpt><trkpt lat="40.7079686" lon="9.4990945"><ele>515.5</ele><time>2026-03-27T10:45:45.326Z</time></trkpt><trkpt lat="40.7081055" lon="9.4991472"><ele>516.75</ele><time>2026-03-27T10:45:46.333Z</time></trkpt><trkpt lat="40.7082222" lon="9.499233"><ele>518.0</ele><time>2026-03-27T10:45:47.321Z</time></trkpt><trkpt lat="40.7083067" lon="9.4993425"><ele>518.0</ele><time>2026-03-27T10:45:48.324Z</time></trkpt><trkpt lat="40.7083626" lon="9.4994897"><ele>518.0</ele><time>2026-03-27T10:45:49.324Z</time></trkpt><trkpt lat="40.7083885" lon="9.4996744"><ele>518.0</ele><time>2026-03-27T10:45:50.325Z</time></trkpt><trkpt lat="40.7084098" lon="9.4998796"><ele>518.0</ele><time>2026-03-27T10:45:51.334Z</time></trkpt><trkpt lat="40.7083762" lon="9.5000676"><ele>519.3333333333333</ele><time>2026-03-27T10:45:52.323Z</time></trkpt><trkpt lat="40.7082925" lon="9.500266"><ele>520.6666666666666</ele><time>2026-03-27T10:45:53.319Z</time></trkpt><trkpt lat="40.7081928" lon="9.5004278"><ele>522.0</ele><time>2026-03-27T10:45:54.325Z</time></trkpt><trkpt lat="40.7080662" lon="9.5005262"><ele>522.0</ele><time>2026-03-27T10:45:55.321Z</time></trkpt><trkpt lat="40.7079162" lon="9.5005803"><ele>522.0</ele><time>2026-03-27T10:45:56.323Z</time></trkpt><trkpt lat="40.707757" lon="9.5005841"><ele>522.0</ele><time>2026-03-27T10:45:57.319Z</time></trkpt><trkpt lat="40.7075969" lon="9.5005806"><ele>526.6666666666666</ele><time>2026-03-27T10:45:58.32Z</time></trkpt><trkpt lat="40.7074176" lon="9.5005614"><ele>531.3333333333333</ele><time>2026-03-27T10:45:59.327Z</time></trkpt><trkpt lat="40.7072415" lon="9.5005912"><ele>536.0</ele><time>2026-03-27T10:46:00.323Z</time></trkpt><trkpt lat="40.7070737" lon="9.5006664"><ele>536.0</ele><time>2026-03-27T10:46:01.333Z</time></trkpt><trkpt lat="40.7069168" lon="9.5007823"><ele>536.0</ele><time>2026-03-27T10:46:02.322Z</time></trkpt><trkpt lat="40.7067638" lon="9.5009206"><ele>536.0</ele><time>2026-03-27T10:46:03.328Z</time></trkpt><trkpt lat="40.7066132" lon="9.5010709"><ele>536.6666666666666</ele><time>2026-03-27T10:46:04.327Z</time></trkpt><trkpt lat="40.706477" lon="9.5012207"><ele>537.3333333333334</ele><time>2026-03-27T10:46:05.325Z</time></trkpt><trkpt lat="40.7063597" lon="9.5013674"><ele>538.0</ele><time>2026-03-27T10:46:06.317Z</time></trkpt><trkpt lat="40.7062676" lon="9.5015341"><ele>539.0</ele><time>2026-03-27T10:46:07.326Z</time></trkpt><trkpt lat="40.7061831" lon="9.5017004"><ele>540.0</ele><time>2026-03-27T10:46:08.329Z</time></trkpt><trkpt lat="40.7061686" lon="9.5019218"><ele>541.0</ele><time>2026-03-27T10:46:09.329Z</time></trkpt><trkpt lat="40.7061597" lon="9.5021477"><ele>541.0</ele><time>2026-03-27T10:46:10.322Z</time></trkpt><trkpt lat="40.706138" lon="9.5023666"><ele>541.0</ele><time>2026-03-27T10:46:11.346Z</time></trkpt><trkpt lat="40.7060817" lon="9.5025732"><ele>541.0</ele><time>2026-03-27T10:46:12.322Z</time></trkpt><trkpt lat="40.7060068" lon="9.5027468"><ele>541.2</ele><time>2026-03-27T10:46:13.324Z</time></trkpt><trkpt lat="40.7059197" lon="9.5028699"><ele>541.4000000000001</ele><time>2026-03-27T10:46:14.328Z</time></trkpt><trkpt lat="40.7058294" lon="9.5029436"><ele>541.6</ele><time>2026-03-27T10:46:15.321Z</time></trkpt><trkpt lat="40.7057304" lon="9.5029663"><ele>541.8000000000001</ele><time>2026-03-27T10:46:16.329Z</time></trkpt><trkpt lat="40.7056271" lon="9.5029809"><ele>542.0</ele><time>2026-03-27T10:46:17.324Z</time></trkpt><trkpt lat="40.705506" lon="9.5029173"><ele>541.25</ele><time>2026-03-27T10:46:18.328Z</time></trkpt><trkpt lat="40.7053668" lon="9.5028663"><ele>540.5</ele><time>2026-03-27T10:46:19.322Z</time></trkpt><trkpt lat="40.7052349" lon="9.5028192"><ele>539.75</ele><time>2026-03-27T10:46:20.323Z</time></trkpt><trkpt lat="40.7051073" lon="9.5027911"><ele>539.0</ele><time>2026-03-27T10:46:21.323Z</time></trkpt><trkpt lat="40.70497" lon="9.5027968"><ele>539.25</ele><time>2026-03-27T10:46:22.322Z</time></trkpt><trkpt lat="40.7048316" lon="9.5028377"><ele>539.5</ele><time>2026-03-27T10:46:23.319Z</time></trkpt><trkpt lat="40.7046946" lon="9.5029104"><ele>539.75</ele><time>2026-03-27T10:46:24.325Z</time></trkpt><trkpt lat="40.7045654" lon="9.5030039"><ele>540.0</ele><time>2026-03-27T10:46:25.321Z</time></trkpt><trkpt lat="40.7044564" lon="9.5031186"><ele>540.0</ele><time>2026-03-27T10:46:26.32Z</time></trkpt><trkpt lat="40.7043733" lon="9.5032643"><ele>540.0</ele><time>2026-03-27T10:46:27.329Z</time></trkpt><trkpt lat="40.7043134" lon="9.5034367"><ele>540.0</ele><time>2026-03-27T10:46:28.332Z</time></trkpt><trkpt lat="40.704276" lon="9.5036373"><ele>540.0</ele><time>2026-03-27T10:46:29.321Z</time></trkpt><trkpt lat="40.7042477" lon="9.5038603"><ele>540.0</ele><time>2026-03-27T10:46:30.329Z</time></trkpt><trkpt lat="40.7042176" lon="9.5040937"><ele>540.0</ele><time>2026-03-27T10:46:31.325Z</time></trkpt><trkpt lat="40.7041867" lon="9.5043231"><ele>540.0</ele><time>2026-03-27T10:46:32.319Z</time></trkpt><trkpt lat="40.7041554" lon="9.5045428"><ele>540.6666666666666</ele><time>2026-03-27T10:46:33.319Z</time></trkpt><trkpt lat="40.7041254" lon="9.504757"><ele>541.3333333333333</ele><time>2026-03-27T10:46:34.321Z</time></trkpt><trkpt lat="40.7040966" lon="9.5049661"><ele>542.0</ele><time>2026-03-27T10:46:35.319Z</time></trkpt><trkpt lat="40.7040678" lon="9.5051711"><ele>542.0</ele><time>2026-03-27T10:46:36.32Z</time></trkpt><trkpt lat="40.7040397" lon="9.5053771"><ele>542.0</ele><time>2026-03-27T10:46:37.324Z</time></trkpt><trkpt lat="40.7040145" lon="9.5055842"><ele>542.0</ele><time>2026-03-27T10:46:38.317Z</time></trkpt><trkpt lat="40.7039956" lon="9.5057935"><ele>541.6666666666666</ele><time>2026-03-27T10:46:39.32Z</time></trkpt><trkpt lat="40.7039823" lon="9.506005"><ele>541.3333333333334</ele><time>2026-03-27T10:46:40.319Z</time></trkpt><trkpt lat="40.7039721" lon="9.5062113"><ele>541.0</ele><time>2026-03-27T10:46:41.322Z</time></trkpt><trkpt lat="40.7039604" lon="9.5064029"><ele>539.75</ele><time>2026-03-27T10:46:42.324Z</time></trkpt><trkpt lat="40.7039228" lon="9.5065839"><ele>538.5</ele><time>2026-03-27T10:46:43.313Z</time></trkpt><trkpt lat="40.7038544" lon="9.5067578"><ele>537.25</ele><time>2026-03-27T10:46:44.316Z</time></trkpt><trkpt lat="40.7037632" lon="9.5069161"><ele>536.0</ele><time>2026-03-27T10:46:45.32Z</time></trkpt><trkpt lat="40.7036541" lon="9.5070688"><ele>534.6666666666666</ele><time>2026-03-27T10:46:46.321Z</time></trkpt><trkpt lat="40.7035381" lon="9.5072275"><ele>533.3333333333334</ele><time>2026-03-27T10:46:47.324Z</time></trkpt><trkpt lat="40.7034197" lon="9.5073929"><ele>532.0</ele><time>2026-03-27T10:46:48.32Z</time></trkpt><trkpt lat="40.7032949" lon="9.5075659"><ele>532.0</ele><time>2026-03-27T10:46:49.326Z</time></trkpt><trkpt lat="40.7031678" lon="9.5077479"><ele>532.0</ele><time>2026-03-27T10:46:50.32Z</time></trkpt><trkpt lat="40.7030375" lon="9.5079322"><ele>532.0</ele><time>2026-03-27T10:46:51.323Z</time></trkpt><trkpt lat="40.7028985" lon="9.5081181"><ele>532.3333333333334</ele><time>2026-03-27T10:46:52.321Z</time></trkpt><trkpt lat="40.702753" lon="9.5082931"><ele>532.6666666666666</ele><time>2026-03-27T10:46:53.317Z</time></trkpt><trkpt lat="40.7025996" lon="9.5084586"><ele>533.0</ele><time>2026-03-27T10:46:54.327Z</time></trkpt><trkpt lat="40.7024438" lon="9.5086189"><ele>533.3333333333333</ele><time>2026-03-27T10:46:55.326Z</time></trkpt><trkpt lat="40.7022975" lon="9.5087657"><ele>533.6666666666666</ele><time>2026-03-27T10:46:56.318Z</time></trkpt><trkpt lat="40.7021593" lon="9.5089045"><ele>534.0</ele><time>2026-03-27T10:46:57.324Z</time></trkpt><trkpt lat="40.7020211" lon="9.5090455"><ele>533.6666666666666</ele><time>2026-03-27T10:46:58.322Z</time></trkpt><trkpt lat="40.7018827" lon="9.5091881"><ele>533.3333333333333</ele><time>2026-03-27T10:46:59.342Z</time></trkpt><trkpt lat="40.7017543" lon="9.5093332"><ele>533.0</ele><time>2026-03-27T10:47:00.323Z</time></trkpt><trkpt lat="40.7016307" lon="9.5094823"><ele>533.6666666666666</ele><time>2026-03-27T10:47:01.325Z</time></trkpt><trkpt lat="40.7015245" lon="9.5096499"><ele>534.3333333333334</ele><time>2026-03-27T10:47:02.324Z</time></trkpt><trkpt lat="40.7014189" lon="9.5098301"><ele>535.0</ele><time>2026-03-27T10:47:03.324Z</time></trkpt><trkpt lat="40.7013111" lon="9.5100155"><ele>535.0</ele><time>2026-03-27T10:47:04.329Z</time></trkpt><trkpt lat="40.7012003" lon="9.5101892"><ele>535.0</ele><time>2026-03-27T10:47:05.321Z</time></trkpt><trkpt lat="40.7010777" lon="9.5103486"><ele>535.0</ele><time>2026-03-27T10:47:06.325Z</time></trkpt><trkpt lat="40.7009486" lon="9.5105015"><ele>534.3333333333334</ele><time>2026-03-27T10:47:07.323Z</time></trkpt><trkpt lat="40.7008122" lon="9.5106503"><ele>533.6666666666666</ele><time>2026-03-27T10:47:08.321Z</time></trkpt><trkpt lat="40.7006721" lon="9.5107979"><ele>533.0</ele><time>2026-03-27T10:47:09.325Z</time></trkpt><trkpt lat="40.7005296" lon="9.5109499"><ele>533.0</ele><time>2026-03-27T10:47:10.324Z</time></trkpt><trkpt lat="40.7003867" lon="9.5111052"><ele>533.0</ele><time>2026-03-27T10:47:11.325Z</time></trkpt><trkpt lat="40.7002462" lon="9.5112625"><ele>533.0</ele><time>2026-03-27T10:47:12.322Z</time></trkpt><trkpt lat="40.7001057" lon="9.5114238"><ele>533.3333333333333</ele><time>2026-03-27T10:47:13.327Z</time></trkpt><trkpt lat="40.6999695" lon="9.5115899"><ele>533.6666666666666</ele><time>2026-03-27T10:47:14.327Z</time></trkpt><trkpt lat="40.6998401" lon="9.5117537"><ele>534.0</ele><time>2026-03-27T10:47:15.329Z</time></trkpt><trkpt lat="40.6997152" lon="9.5119105"><ele>534.0</ele><time>2026-03-27T10:47:16.326Z</time></trkpt><trkpt lat="40.6995942" lon="9.5120643"><ele>534.0</ele><time>2026-03-27T10:47:17.321Z</time></trkpt><trkpt lat="40.6994751" lon="9.5122217"><ele>534.0</ele><time>2026-03-27T10:47:18.32Z</time></trkpt><trkpt lat="40.6993551" lon="9.5123759"><ele>534.6666666666666</ele><time>2026-03-27T10:47:19.32Z</time></trkpt><trkpt lat="40.6992372" lon="9.5125303"><ele>535.3333333333333</ele><time>2026-03-27T10:47:20.324Z</time></trkpt><trkpt lat="40.6991155" lon="9.5126839"><ele>536.0</ele><time>2026-03-27T10:47:21.319Z</time></trkpt><trkpt lat="40.6989934" lon="9.5128389"><ele>536.0</ele><time>2026-03-27T10:47:22.323Z</time></trkpt><trkpt lat="40.6988684" lon="9.5129962"><ele>536.0</ele><time>2026-03-27T10:47:23.328Z</time></trkpt><trkpt lat="40.6987427" lon="9.5131573"><ele>536.0</ele><time>2026-03-27T10:47:24.321Z</time></trkpt><trkpt lat="40.6986146" lon="9.5133216"><ele>536.3333333333333</ele><time>2026-03-27T10:47:25.329Z</time></trkpt><trkpt lat="40.698485" lon="9.5134867"><ele>536.6666666666666</ele><time>2026-03-27T10:47:26.325Z</time></trkpt><trkpt lat="40.6983536" lon="9.5136543"><ele>537.0</ele><time>2026-03-27T10:47:27.318Z</time></trkpt><trkpt lat="40.6982204" lon="9.5138244"><ele>537.0</ele><time>2026-03-27T10:47:28.321Z</time></trkpt><trkpt lat="40.698089" lon="9.5139944"><ele>537.0</ele><time>2026-03-27T10:47:29.328Z</time></trkpt><trkpt lat="40.6979598" lon="9.5141635"><ele>537.0</ele><time>2026-03-27T10:47:30.331Z</time></trkpt><trkpt lat="40.6978324" lon="9.5143296"><ele>538.6666666666666</ele><time>2026-03-27T10:47:31.339Z</time></trkpt><trkpt lat="40.6977041" lon="9.5144903"><ele>540.3333333333333</ele><time>2026-03-27T10:47:32.328Z</time></trkpt><trkpt lat="40.6975742" lon="9.5146508"><ele>542.0</ele><time>2026-03-27T10:47:33.32Z</time></trkpt><trkpt lat="40.6974453" lon="9.5148114"><ele>542.3333333333333</ele><time>2026-03-27T10:47:34.326Z</time></trkpt><trkpt lat="40.6973149" lon="9.5149758"><ele>542.6666666666666</ele><time>2026-03-27T10:47:35.323Z</time></trkpt><trkpt lat="40.6971796" lon="9.5151485"><ele>543.0</ele><time>2026-03-27T10:47:36.33Z</time></trkpt><trkpt lat="40.6970413" lon="9.5153257"><ele>543.0</ele><time>2026-03-27T10:47:37.326Z</time></trkpt><trkpt lat="40.6969021" lon="9.5155041"><ele>543.0</ele><time>2026-03-27T10:47:38.324Z</time></trkpt><trkpt lat="40.6967629" lon="9.5156837"><ele>543.0</ele><time>2026-03-27T10:47:39.327Z</time></trkpt><trkpt lat="40.696623" lon="9.5158625"><ele>543.0</ele><time>2026-03-27T10:47:40.329Z</time></trkpt><trkpt lat="40.6964841" lon="9.5160397"><ele>543.0</ele><time>2026-03-27T10:47:41.326Z</time></trkpt><trkpt lat="40.696346" lon="9.5162167"><ele>543.0</ele><time>2026-03-27T10:47:42.334Z</time></trkpt><trkpt lat="40.6962068" lon="9.5163917"><ele>544.0</ele><time>2026-03-27T10:47:43.316Z</time></trkpt><trkpt lat="40.6960645" lon="9.5165633"><ele>545.0</ele><time>2026-03-27T10:47:44.321Z</time></trkpt><trkpt lat="40.6959186" lon="9.5167256"><ele>546.0</ele><time>2026-03-27T10:47:45.326Z</time></trkpt><trkpt lat="40.6957548" lon="9.5168696"><ele>546.0</ele><time>2026-03-27T10:47:46.322Z</time></trkpt><trkpt lat="40.6955889" lon="9.5169964"><ele>546.0</ele><time>2026-03-27T10:47:47.319Z</time></trkpt><trkpt lat="40.6954183" lon="9.5171212"><ele>546.0</ele><time>2026-03-27T10:47:48.343Z</time></trkpt><trkpt lat="40.6952454" lon="9.5172397"><ele>545.6666666666666</ele><time>2026-03-27T10:47:49.325Z</time></trkpt><trkpt lat="40.6950743" lon="9.5173579"><ele>545.3333333333333</ele><time>2026-03-27T10:47:50.326Z</time></trkpt><trkpt lat="40.6949032" lon="9.5174783"><ele>545.0</ele><time>2026-03-27T10:47:51.327Z</time></trkpt><trkpt lat="40.694733" lon="9.5175988"><ele>545.0</ele><time>2026-03-27T10:47:52.323Z</time></trkpt><trkpt lat="40.6945643" lon="9.5177196"><ele>545.0</ele><time>2026-03-27T10:47:53.324Z</time></trkpt><trkpt lat="40.6943975" lon="9.5178462"><ele>545.0</ele><time>2026-03-27T10:47:54.325Z</time></trkpt><trkpt lat="40.6942475" lon="9.5179813"><ele>545.6666666666666</ele><time>2026-03-27T10:47:55.321Z</time></trkpt><trkpt lat="40.6941225" lon="9.5181334"><ele>546.3333333333334</ele><time>2026-03-27T10:47:56.324Z</time></trkpt><trkpt lat="40.6940302" lon="9.5183136"><ele>547.0</ele><time>2026-03-27T10:47:57.322Z</time></trkpt><trkpt lat="40.6939636" lon="9.518522"><ele>548.0</ele><time>2026-03-27T10:47:58.318Z</time></trkpt><trkpt lat="40.6939085" lon="9.5187441"><ele>549.0</ele><time>2026-03-27T10:47:59.322Z</time></trkpt><trkpt lat="40.6938443" lon="9.5189593"><ele>550.0</ele><time>2026-03-27T10:48:00.318Z</time></trkpt><trkpt lat="40.6937537" lon="9.5191431"><ele>550.0</ele><time>2026-03-27T10:48:01.317Z</time></trkpt><trkpt lat="40.6936299" lon="9.5192927"><ele>550.0</ele><time>2026-03-27T10:48:02.325Z</time></trkpt><trkpt lat="40.693483" lon="9.5194064"><ele>550.0</ele><time>2026-03-27T10:48:03.318Z</time></trkpt><trkpt lat="40.6933169" lon="9.5194829"><ele>550.6666666666667</ele><time>2026-03-27T10:48:04.317Z</time></trkpt><trkpt lat="40.6931429" lon="9.5195472"><ele>551.3333333333334</ele><time>2026-03-27T10:48:05.316Z</time></trkpt><trkpt lat="40.6929603" lon="9.5195981"><ele>552.0</ele><time>2026-03-27T10:48:06.317Z</time></trkpt><trkpt lat="40.6927752" lon="9.5196479"><ele>554.0</ele><time>2026-03-27T10:48:07.319Z</time></trkpt><trkpt lat="40.692586" lon="9.5196916"><ele>556.0</ele><time>2026-03-27T10:48:08.32Z</time></trkpt><trkpt lat="40.6923937" lon="9.5197199"><ele>558.0</ele><time>2026-03-27T10:48:09.322Z</time></trkpt><trkpt lat="40.6922008" lon="9.5197336"><ele>558.0</ele><time>2026-03-27T10:48:10.314Z</time></trkpt><trkpt lat="40.6920063" lon="9.5197344"><ele>558.0</ele><time>2026-03-27T10:48:11.327Z</time></trkpt><trkpt lat="40.6918145" lon="9.5197351"><ele>558.0</ele><time>2026-03-27T10:48:12.321Z</time></trkpt><trkpt lat="40.6916241" lon="9.5197487"><ele>559.0</ele><time>2026-03-27T10:48:13.32Z</time></trkpt><trkpt lat="40.6914383" lon="9.5197791"><ele>560.0</ele><time>2026-03-27T10:48:14.324Z</time></trkpt><trkpt lat="40.691254" lon="9.5198114"><ele>561.0</ele><time>2026-03-27T10:48:15.32Z</time></trkpt><trkpt lat="40.6910687" lon="9.5198586"><ele>561.0</ele><time>2026-03-27T10:48:16.335Z</time></trkpt><trkpt lat="40.6908904" lon="9.5199014"><ele>561.0</ele><time>2026-03-27T10:48:17.32Z</time></trkpt><trkpt lat="40.6907275" lon="9.5199463"><ele>561.0</ele><time>2026-03-27T10:48:18.325Z</time></trkpt><trkpt lat="40.6905838" lon="9.5199785"><ele>561.0</ele><time>2026-03-27T10:48:19.326Z</time></trkpt><trkpt lat="40.690458" lon="9.5199963"><ele>561.0</ele><time>2026-03-27T10:48:20.321Z</time></trkpt><trkpt lat="40.6903512" lon="9.5199986"><ele>561.0</ele><time>2026-03-27T10:48:21.32Z</time></trkpt><trkpt lat="40.6902599" lon="9.519985"><ele>561.0</ele><time>2026-03-27T10:48:22.321Z</time></trkpt><trkpt lat="40.6901891" lon="9.5199622"><ele>561.0</ele><time>2026-03-27T10:48:23.322Z</time></trkpt><trkpt lat="40.6900908" lon="9.5199518"><ele>560.0</ele><time>2026-03-27T10:48:25.321Z</time></trkpt><trkpt lat="40.6900265" lon="9.5200115"><ele>559.0</ele><time>2026-03-27T10:48:27.324Z</time></trkpt><trkpt lat="40.6899992" lon="9.5201419"><ele>558.0</ele><time>2026-03-27T10:48:29.316Z</time></trkpt><trkpt lat="40.6899981" lon="9.520243"><ele>557.0</ele><time>2026-03-27T10:48:30.319Z</time></trkpt><trkpt lat="40.6899996" lon="9.5203707"><ele>556.0</ele><time>2026-03-27T10:48:31.321Z</time></trkpt><trkpt lat="40.690002" lon="9.5205222"><ele>554.5</ele><time>2026-03-27T10:48:32.316Z</time></trkpt><trkpt lat="40.6900025" lon="9.5206925"><ele>553.0</ele><time>2026-03-27T10:48:33.321Z</time></trkpt><trkpt lat="40.690003" lon="9.5208721"><ele>551.5</ele><time>2026-03-27T10:48:34.321Z</time></trkpt><trkpt lat="40.6900069" lon="9.5210553"><ele>550.0</ele><time>2026-03-27T10:48:35.32Z</time></trkpt><trkpt lat="40.6900106" lon="9.5212414"><ele>548.75</ele><time>2026-03-27T10:48:36.324Z</time></trkpt><trkpt lat="40.6900137" lon="9.5214273"><ele>547.5</ele><time>2026-03-27T10:48:37.321Z</time></trkpt><trkpt lat="40.6900184" lon="9.521605"><ele>546.25</ele><time>2026-03-27T10:48:38.319Z</time></trkpt><trkpt lat="40.6900245" lon="9.5217757"><ele>545.0</ele><time>2026-03-27T10:48:39.323Z</time></trkpt><trkpt lat="40.6900302" lon="9.5219443"><ele>545.5</ele><time>2026-03-27T10:48:40.326Z</time></trkpt><trkpt lat="40.6900355" lon="9.522117"><ele>546.0</ele><time>2026-03-27T10:48:41.316Z</time></trkpt><trkpt lat="40.6900412" lon="9.5222983"><ele>546.5</ele><time>2026-03-27T10:48:42.328Z</time></trkpt><trkpt lat="40.6900497" lon="9.522486"><ele>547.0</ele><time>2026-03-27T10:48:43.33Z</time></trkpt><trkpt lat="40.6900608" lon="9.5226785"><ele>547.0</ele><time>2026-03-27T10:48:44.323Z</time></trkpt><trkpt lat="40.6900744" lon="9.5228681"><ele>547.0</ele><time>2026-03-27T10:48:45.329Z</time></trkpt><trkpt lat="40.6900872" lon="9.5230464"><ele>547.0</ele><time>2026-03-27T10:48:46.323Z</time></trkpt><trkpt lat="40.6900951" lon="9.5232086"><ele>547.0</ele><time>2026-03-27T10:48:47.319Z</time></trkpt><trkpt lat="40.6900932" lon="9.5233515"><ele>547.0</ele><time>2026-03-27T10:48:48.328Z</time></trkpt><trkpt lat="40.6900804" lon="9.5234677"><ele>547.0</ele><time>2026-03-27T10:48:49.324Z</time></trkpt><trkpt lat="40.6900454" lon="9.5235541"><ele>547.0</ele><time>2026-03-27T10:48:50.33Z</time></trkpt><trkpt lat="40.6899994" lon="9.5236238"><ele>547.0</ele><time>2026-03-27T10:48:51.318Z</time></trkpt><trkpt lat="40.6899275" lon="9.5236857"><ele>547.0</ele><time>2026-03-27T10:48:52.322Z</time></trkpt><trkpt lat="40.6898363" lon="9.5237311"><ele>547.0</ele><time>2026-03-27T10:48:53.317Z</time></trkpt><trkpt lat="40.6897414" lon="9.52375"><ele>547.0</ele><time>2026-03-27T10:48:54.317Z</time></trkpt><trkpt lat="40.6896512" lon="9.5237698"><ele>547.0</ele><time>2026-03-27T10:48:55.329Z</time></trkpt><trkpt lat="40.6895811" lon="9.5238168"><ele>547.0</ele><time>2026-03-27T10:48:56.32Z</time></trkpt><trkpt lat="40.6895268" lon="9.5238873"><ele>547.0</ele><time>2026-03-27T10:48:57.338Z</time></trkpt><trkpt lat="40.6895008" lon="9.5239769"><ele>547.0</ele><time>2026-03-27T10:48:58.323Z</time></trkpt><trkpt lat="40.6894917" lon="9.5240936"><ele>547.0</ele><time>2026-03-27T10:48:59.319Z</time></trkpt><trkpt lat="40.6894759" lon="9.5242308"><ele>547.0</ele><time>2026-03-27T10:49:00.324Z</time></trkpt><trkpt lat="40.6894374" lon="9.5243822"><ele>547.0</ele><time>2026-03-27T10:49:01.322Z</time></trkpt><trkpt lat="40.6893788" lon="9.5245454"><ele>547.0</ele><time>2026-03-27T10:49:02.339Z</time></trkpt><trkpt lat="40.689309" lon="9.5247255"><ele>547.0</ele><time>2026-03-27T10:49:03.323Z</time></trkpt><trkpt lat="40.689243" lon="9.5249058"><ele>546.5</ele><time>2026-03-27T10:49:04.322Z</time></trkpt><trkpt lat="40.6891874" lon="9.5250729"><ele>546.0</ele><time>2026-03-27T10:49:05.323Z</time></trkpt><trkpt lat="40.6891498" lon="9.5252323"><ele>545.5</ele><time>2026-03-27T10:49:06.328Z</time></trkpt><trkpt lat="40.6891311" lon="9.5253889"><ele>545.0</ele><time>2026-03-27T10:49:07.325Z</time></trkpt><trkpt lat="40.6891314" lon="9.5255522"><ele>544.75</ele><time>2026-03-27T10:49:08.327Z</time></trkpt><trkpt lat="40.6891421" lon="9.5257261"><ele>544.5</ele><time>2026-03-27T10:49:09.33Z</time></trkpt><trkpt lat="40.6891575" lon="9.5259048"><ele>544.25</ele><time>2026-03-27T10:49:10.323Z</time></trkpt><trkpt lat="40.6891749" lon="9.5260902"><ele>544.0</ele><time>2026-03-27T10:49:11.328Z</time></trkpt><trkpt lat="40.6891931" lon="9.5262789"><ele>544.0</ele><time>2026-03-27T10:49:12.324Z</time></trkpt><trkpt lat="40.6892066" lon="9.5264658"><ele>544.0</ele><time>2026-03-27T10:49:13.325Z</time></trkpt><trkpt lat="40.689222" lon="9.5266531"><ele>544.0</ele><time>2026-03-27T10:49:14.321Z</time></trkpt><trkpt lat="40.6892384" lon="9.5268364"><ele>544.0</ele><time>2026-03-27T10:49:15.328Z</time></trkpt><trkpt lat="40.6892615" lon="9.5270176"><ele>544.5</ele><time>2026-03-27T10:49:16.332Z</time></trkpt><trkpt lat="40.6892945" lon="9.5271873"><ele>545.0</ele><time>2026-03-27T10:49:17.325Z</time></trkpt><trkpt lat="40.6893173" lon="9.5273617"><ele>545.5</ele><time>2026-03-27T10:49:18.336Z</time></trkpt><trkpt lat="40.6893369" lon="9.5275348"><ele>546.0</ele><time>2026-03-27T10:49:19.326Z</time></trkpt><trkpt lat="40.689354" lon="9.5277046"><ele>546.0</ele><time>2026-03-27T10:49:20.323Z</time></trkpt><trkpt lat="40.6893695" lon="9.5278716"><ele>546.0</ele><time>2026-03-27T10:49:21.322Z</time></trkpt><trkpt lat="40.6893822" lon="9.5280324"><ele>546.0</ele><time>2026-03-27T10:49:22.322Z</time></trkpt><trkpt lat="40.6893983" lon="9.5281894"><ele>546.0</ele><time>2026-03-27T10:49:23.323Z</time></trkpt><trkpt lat="40.6894144" lon="9.528346"><ele>546.25</ele><time>2026-03-27T10:49:24.329Z</time></trkpt><trkpt lat="40.6894328" lon="9.5285086"><ele>546.5</ele><time>2026-03-27T10:49:25.327Z</time></trkpt><trkpt lat="40.6894499" lon="9.5286732"><ele>546.75</ele><time>2026-03-27T10:49:26.324Z</time></trkpt><trkpt lat="40.6894671" lon="9.5288396"><ele>547.0</ele><time>2026-03-27T10:49:27.328Z</time></trkpt><trkpt lat="40.6894821" lon="9.5290102"><ele>547.0</ele><time>2026-03-27T10:49:28.328Z</time></trkpt><trkpt lat="40.689493" lon="9.5291852"><ele>547.0</ele><time>2026-03-27T10:49:29.326Z</time></trkpt><trkpt lat="40.689497" lon="9.5293677"><ele>547.0</ele><time>2026-03-27T10:49:30.326Z</time></trkpt><trkpt lat="40.6894957" lon="9.5295538"><ele>547.0</ele><time>2026-03-27T10:49:31.326Z</time></trkpt><trkpt lat="40.6894908" lon="9.5297462"><ele>547.0</ele><time>2026-03-27T10:49:32.32Z</time></trkpt><trkpt lat="40.6894844" lon="9.5299421"><ele>547.0</ele><time>2026-03-27T10:49:33.325Z</time></trkpt><trkpt lat="40.6894785" lon="9.5301411"><ele>547.0</ele><time>2026-03-27T10:49:34.322Z</time></trkpt><trkpt lat="40.6894776" lon="9.5303455"><ele>546.6666666666667</ele><time>2026-03-27T10:49:35.321Z</time></trkpt><trkpt lat="40.6894769" lon="9.5305533"><ele>546.3333333333334</ele><time>2026-03-27T10:49:36.329Z</time></trkpt><trkpt lat="40.6894725" lon="9.5307653"><ele>546.0</ele><time>2026-03-27T10:49:37.326Z</time></trkpt><trkpt lat="40.6894663" lon="9.5309771"><ele>546.0</ele><time>2026-03-27T10:49:38.363Z</time></trkpt><trkpt lat="40.6894578" lon="9.5311835"><ele>546.0</ele><time>2026-03-27T10:49:39.322Z</time></trkpt><trkpt lat="40.6894476" lon="9.5313852"><ele>546.0</ele><time>2026-03-27T10:49:40.318Z</time></trkpt><trkpt lat="40.6894371" lon="9.5315794"><ele>546.0</ele><time>2026-03-27T10:49:41.324Z</time></trkpt><trkpt lat="40.6894255" lon="9.5317679"><ele>546.0</ele><time>2026-03-27T10:49:42.328Z</time></trkpt><trkpt lat="40.6894131" lon="9.5319512"><ele>546.0</ele><time>2026-03-27T10:49:43.323Z</time></trkpt><trkpt lat="40.6894024" lon="9.5321306"><ele>546.0</ele><time>2026-03-27T10:49:44.333Z</time></trkpt><trkpt lat="40.6893954" lon="9.5323089"><ele>546.25</ele><time>2026-03-27T10:49:45.324Z</time></trkpt><trkpt lat="40.6893915" lon="9.5324876"><ele>546.5</ele><time>2026-03-27T10:49:46.328Z</time></trkpt><trkpt lat="40.6893869" lon="9.5326702"><ele>546.75</ele><time>2026-03-27T10:49:47.321Z</time></trkpt><trkpt lat="40.6893814" lon="9.5328587"><ele>547.0</ele><time>2026-03-27T10:49:48.324Z</time></trkpt><trkpt lat="40.6893758" lon="9.5330555"><ele>548.0</ele><time>2026-03-27T10:49:49.323Z</time></trkpt><trkpt lat="40.6893697" lon="9.533259"><ele>549.0</ele><time>2026-03-27T10:49:50.326Z</time></trkpt><trkpt lat="40.6893595" lon="9.5334694"><ele>550.0</ele><time>2026-03-27T10:49:51.323Z</time></trkpt><trkpt lat="40.6893427" lon="9.5336847"><ele>549.0</ele><time>2026-03-27T10:49:52.325Z</time></trkpt><trkpt lat="40.6893192" lon="9.5339044"><ele>548.0</ele><time>2026-03-27T10:49:53.325Z</time></trkpt><trkpt lat="40.6892927" lon="9.534128"><ele>547.0</ele><time>2026-03-27T10:49:54.325Z</time></trkpt><trkpt lat="40.6892658" lon="9.5343557"><ele>547.6666666666667</ele><time>2026-03-27T10:49:55.326Z</time></trkpt><trkpt lat="40.6892367" lon="9.5345851"><ele>548.3333333333334</ele><time>2026-03-27T10:49:56.32Z</time></trkpt><trkpt lat="40.6892078" lon="9.5348136"><ele>549.0</ele><time>2026-03-27T10:49:57.326Z</time></trkpt><trkpt lat="40.6891827" lon="9.5350258"><ele>549.0</ele><time>2026-03-27T10:49:58.315Z</time></trkpt><trkpt lat="40.6891628" lon="9.5352183"><ele>549.0</ele><time>2026-03-27T10:49:59.325Z</time></trkpt><trkpt lat="40.6891471" lon="9.5353892"><ele>549.0</ele><time>2026-03-27T10:50:00.328Z</time></trkpt><trkpt lat="40.6891311" lon="9.5355324"><ele>549.0</ele><time>2026-03-27T10:50:01.321Z</time></trkpt><trkpt lat="40.6891124" lon="9.5356471"><ele>549.5</ele><time>2026-03-27T10:50:02.328Z</time></trkpt><trkpt lat="40.6890904" lon="9.5357444"><ele>550.0</ele><time>2026-03-27T10:50:03.325Z</time></trkpt><trkpt lat="40.6890448" lon="9.5358031"><ele>550.5</ele><time>2026-03-27T10:50:04.324Z</time></trkpt><trkpt lat="40.6889763" lon="9.5358246"><ele>551.0</ele><time>2026-03-27T10:50:05.326Z</time></trkpt><trkpt lat="40.6888889" lon="9.5358501"><ele>551.5</ele><time>2026-03-27T10:50:06.324Z</time></trkpt><trkpt lat="40.6888076" lon="9.5359209"><ele>552.0</ele><time>2026-03-27T10:50:07.328Z</time></trkpt><trkpt lat="40.6887444" lon="9.5360419"><ele>552.0</ele><time>2026-03-27T10:50:08.322Z</time></trkpt><trkpt lat="40.6886904" lon="9.5361943"><ele>552.0</ele><time>2026-03-27T10:50:09.324Z</time></trkpt><trkpt lat="40.6886452" lon="9.5363763"><ele>552.0</ele><time>2026-03-27T10:50:10.319Z</time></trkpt><trkpt lat="40.6886067" lon="9.5365777"><ele>552.0</ele><time>2026-03-27T10:50:11.32Z</time></trkpt><trkpt lat="40.688573" lon="9.5367926"><ele>552.0</ele><time>2026-03-27T10:50:12.325Z</time></trkpt><trkpt lat="40.6885326" lon="9.5370141"><ele>552.0</ele><time>2026-03-27T10:50:13.326Z</time></trkpt><trkpt lat="40.6884921" lon="9.5372152"><ele>552.0</ele><time>2026-03-27T10:50:14.317Z</time></trkpt><trkpt lat="40.6884527" lon="9.5374059"><ele>552.0</ele><time>2026-03-27T10:50:15.337Z</time></trkpt><trkpt lat="40.6884294" lon="9.5375893"><ele>552.0</ele><time>2026-03-27T10:50:16.324Z</time></trkpt><trkpt lat="40.6884338" lon="9.5377782"><ele>552.0</ele><time>2026-03-27T10:50:17.325Z</time></trkpt><trkpt lat="40.688461" lon="9.537983"><ele>552.0</ele><time>2026-03-27T10:50:18.318Z</time></trkpt><trkpt lat="40.6884949" lon="9.5382072"><ele>552.0</ele><time>2026-03-27T10:50:19.329Z</time></trkpt><trkpt lat="40.6885225" lon="9.5384497"><ele>552.0</ele><time>2026-03-27T10:50:20.326Z</time></trkpt><trkpt lat="40.6885376" lon="9.5386967"><ele>552.0</ele><time>2026-03-27T10:50:21.325Z</time></trkpt><trkpt lat="40.6885425" lon="9.5389497"><ele>552.0</ele><time>2026-03-27T10:50:22.325Z</time></trkpt><trkpt lat="40.6885414" lon="9.5392101"><ele>552.0</ele><time>2026-03-27T10:50:23.321Z</time></trkpt><trkpt lat="40.6885365" lon="9.5394578"><ele>552.0</ele><time>2026-03-27T10:50:24.327Z</time></trkpt><trkpt lat="40.6885256" lon="9.539688"><ele>552.0</ele><time>2026-03-27T10:50:25.325Z</time></trkpt><trkpt lat="40.6885012" lon="9.5399083"><ele>552.0</ele><time>2026-03-27T10:50:26.32Z</time></trkpt><trkpt lat="40.6884626" lon="9.5401167"><ele>552.0</ele><time>2026-03-27T10:50:27.324Z</time></trkpt><trkpt lat="40.6884143" lon="9.5403193"><ele>553.3333333333334</ele><time>2026-03-27T10:50:28.325Z</time></trkpt><trkpt lat="40.6883557" lon="9.5405168"><ele>554.6666666666667</ele><time>2026-03-27T10:50:29.327Z</time></trkpt><trkpt lat="40.6882917" lon="9.5407102"><ele>556.0</ele><time>2026-03-27T10:50:30.331Z</time></trkpt><trkpt lat="40.688233" lon="9.5409013"><ele>556.0</ele><time>2026-03-27T10:50:31.324Z</time></trkpt><trkpt lat="40.6881869" lon="9.5410952"><ele>556.0</ele><time>2026-03-27T10:50:32.322Z</time></trkpt><trkpt lat="40.6881546" lon="9.5412931"><ele>556.0</ele><time>2026-03-27T10:50:33.32Z</time></trkpt><trkpt lat="40.6881384" lon="9.5414936"><ele>556.5</ele><time>2026-03-27T10:50:34.325Z</time></trkpt><trkpt lat="40.6881364" lon="9.5416955"><ele>557.0</ele><time>2026-03-27T10:50:35.323Z</time></trkpt><trkpt lat="40.6881336" lon="9.5418919"><ele>557.5</ele><time>2026-03-27T10:50:36.32Z</time></trkpt><trkpt lat="40.6881177" lon="9.5420814"><ele>558.0</ele><time>2026-03-27T10:50:37.323Z</time></trkpt><trkpt lat="40.688092" lon="9.5422717"><ele>558.3333333333334</ele><time>2026-03-27T10:50:38.316Z</time></trkpt><trkpt lat="40.6880605" lon="9.5424655"><ele>558.6666666666667</ele><time>2026-03-27T10:50:39.345Z</time></trkpt><trkpt lat="40.6880264" lon="9.5426616"><ele>559.0</ele><time>2026-03-27T10:50:40.323Z</time></trkpt><trkpt lat="40.6879938" lon="9.5428573"><ele>559.5</ele><time>2026-03-27T10:50:41.322Z</time></trkpt><trkpt lat="40.6879715" lon="9.5430518"><ele>560.0</ele><time>2026-03-27T10:50:42.329Z</time></trkpt><trkpt lat="40.6879672" lon="9.5432453"><ele>560.5</ele><time>2026-03-27T10:50:43.319Z</time></trkpt><trkpt lat="40.6879813" lon="9.5434415"><ele>561.0</ele><time>2026-03-27T10:50:44.33Z</time></trkpt><trkpt lat="40.6880017" lon="9.5436428"><ele>560.5</ele><time>2026-03-27T10:50:45.326Z</time></trkpt><trkpt lat="40.6880141" lon="9.5438471"><ele>560.0</ele><time>2026-03-27T10:50:46.326Z</time></trkpt><trkpt lat="40.6880183" lon="9.5440417"><ele>559.5</ele><time>2026-03-27T10:50:47.328Z</time></trkpt><trkpt lat="40.6880177" lon="9.5442214"><ele>559.0</ele><time>2026-03-27T10:50:48.322Z</time></trkpt><trkpt lat="40.6880119" lon="9.5443851"><ele>559.0</ele><time>2026-03-27T10:50:49.325Z</time></trkpt><trkpt lat="40.6879968" lon="9.5445256"><ele>559.0</ele><time>2026-03-27T10:50:50.33Z</time></trkpt><trkpt lat="40.6879674" lon="9.5446476"><ele>559.0</ele><time>2026-03-27T10:50:51.326Z</time></trkpt><trkpt lat="40.6879153" lon="9.5447751"><ele>559.0</ele><time>2026-03-27T10:50:52.326Z</time></trkpt><trkpt lat="40.6878568" lon="9.5448979"><ele>559.0</ele><time>2026-03-27T10:50:53.324Z</time></trkpt><trkpt lat="40.687807" lon="9.5450435"><ele>559.8</ele><time>2026-03-27T10:50:54.319Z</time></trkpt><trkpt lat="40.6877891" lon="9.5451813"><ele>560.5999999999999</ele><time>2026-03-27T10:50:55.328Z</time></trkpt><trkpt lat="40.6877869" lon="9.5453115"><ele>561.4</ele><time>2026-03-27T10:50:56.32Z</time></trkpt><trkpt lat="40.6877941" lon="9.5454524"><ele>562.1999999999999</ele><time>2026-03-27T10:50:57.32Z</time></trkpt><trkpt lat="40.6877795" lon="9.5456006"><ele>563.0</ele><time>2026-03-27T10:50:58.321Z</time></trkpt><trkpt lat="40.6877661" lon="9.5457641"><ele>563.5</ele><time>2026-03-27T10:50:59.326Z</time></trkpt><trkpt lat="40.6877777" lon="9.5459281"><ele>564.0</ele><time>2026-03-27T10:51:00.316Z</time></trkpt><trkpt lat="40.6878015" lon="9.5460862"><ele>564.5</ele><time>2026-03-27T10:51:01.32Z</time></trkpt><trkpt lat="40.6878553" lon="9.5462453"><ele>565.0</ele><time>2026-03-27T10:51:02.329Z</time></trkpt><trkpt lat="40.6879175" lon="9.5463877"><ele>565.0</ele><time>2026-03-27T10:51:03.325Z</time></trkpt><trkpt lat="40.6879668" lon="9.546534"><ele>565.0</ele><time>2026-03-27T10:51:04.333Z</time></trkpt><trkpt lat="40.6879989" lon="9.5466983"><ele>565.0</ele><time>2026-03-27T10:51:05.319Z</time></trkpt><trkpt lat="40.688025" lon="9.5468847"><ele>565.0</ele><time>2026-03-27T10:51:06.329Z</time></trkpt><trkpt lat="40.6880512" lon="9.5470938"><ele>564.3333333333334</ele><time>2026-03-27T10:51:07.321Z</time></trkpt><trkpt lat="40.6880825" lon="9.5473194"><ele>563.6666666666666</ele><time>2026-03-27T10:51:08.328Z</time></trkpt><trkpt lat="40.6881171" lon="9.5475482"><ele>563.0</ele><time>2026-03-27T10:51:09.324Z</time></trkpt><trkpt lat="40.6881632" lon="9.5477639"><ele>563.0</ele><time>2026-03-27T10:51:10.327Z</time></trkpt><trkpt lat="40.6882167" lon="9.5479692"><ele>563.0</ele><time>2026-03-27T10:51:11.321Z</time></trkpt><trkpt lat="40.6882677" lon="9.5481629"><ele>563.0</ele><time>2026-03-27T10:51:12.325Z</time></trkpt><trkpt lat="40.6883133" lon="9.5483565"><ele>563.0</ele><time>2026-03-27T10:51:13.317Z</time></trkpt><trkpt lat="40.6883535" lon="9.5485615"><ele>563.0</ele><time>2026-03-27T10:51:14.321Z</time></trkpt><trkpt lat="40.6883959" lon="9.5487678"><ele>563.0</ele><time>2026-03-27T10:51:15.32Z</time></trkpt><trkpt lat="40.6884444" lon="9.5489755"><ele>563.3333333333333</ele><time>2026-03-27T10:51:16.329Z</time></trkpt><trkpt lat="40.6884992" lon="9.5491876"><ele>563.6666666666666</ele><time>2026-03-27T10:51:17.323Z</time></trkpt><trkpt lat="40.6885516" lon="9.5493963"><ele>564.0</ele><time>2026-03-27T10:51:18.325Z</time></trkpt><trkpt lat="40.6886038" lon="9.5496111"><ele>566.6666666666666</ele><time>2026-03-27T10:51:19.325Z</time></trkpt><trkpt lat="40.6886551" lon="9.5498355"><ele>569.3333333333333</ele><time>2026-03-27T10:51:20.328Z</time></trkpt><trkpt lat="40.6887014" lon="9.5500562"><ele>572.0</ele><time>2026-03-27T10:51:21.323Z</time></trkpt><trkpt lat="40.6887374" lon="9.5502738"><ele>572.6666666666666</ele><time>2026-03-27T10:51:22.325Z</time></trkpt><trkpt lat="40.6887678" lon="9.5504847"><ele>573.3333333333334</ele><time>2026-03-27T10:51:23.321Z</time></trkpt><trkpt lat="40.6887921" lon="9.5507031"><ele>574.0</ele><time>2026-03-27T10:51:24.326Z</time></trkpt><trkpt lat="40.6888085" lon="9.5509211"><ele>574.0</ele><time>2026-03-27T10:51:25.327Z</time></trkpt><trkpt lat="40.6888178" lon="9.5511387"><ele>574.0</ele><time>2026-03-27T10:51:26.325Z</time></trkpt><trkpt lat="40.688816" lon="9.5513562"><ele>574.0</ele><time>2026-03-27T10:51:27.323Z</time></trkpt><trkpt lat="40.6888172" lon="9.5515515"><ele>573.5</ele><time>2026-03-27T10:51:28.327Z</time></trkpt><trkpt lat="40.6888218" lon="9.5517381"><ele>573.0</ele><time>2026-03-27T10:51:29.322Z</time></trkpt><trkpt lat="40.6888409" lon="9.5519138"><ele>572.5</ele><time>2026-03-27T10:51:30.322Z</time></trkpt><trkpt lat="40.6888609" lon="9.5520781"><ele>572.0</ele><time>2026-03-27T10:51:31.328Z</time></trkpt><trkpt lat="40.6888743" lon="9.5522336"><ele>572.0</ele><time>2026-03-27T10:51:32.326Z</time></trkpt><trkpt lat="40.6888805" lon="9.5523727"><ele>572.0</ele><time>2026-03-27T10:51:33.325Z</time></trkpt><trkpt lat="40.6888775" lon="9.5524996"><ele>572.0</ele><time>2026-03-27T10:51:34.318Z</time></trkpt><trkpt lat="40.6888583" lon="9.5526279"><ele>572.0</ele><time>2026-03-27T10:51:35.323Z</time></trkpt><trkpt lat="40.6888352" lon="9.5527615"><ele>572.0</ele><time>2026-03-27T10:51:36.324Z</time></trkpt><trkpt lat="40.6888195" lon="9.5528909"><ele>572.0</ele><time>2026-03-27T10:51:37.32Z</time></trkpt><trkpt lat="40.6888232" lon="9.5530261"><ele>572.0</ele><time>2026-03-27T10:51:38.321Z</time></trkpt><trkpt lat="40.6888318" lon="9.5531543"><ele>572.0</ele><time>2026-03-27T10:51:39.322Z</time></trkpt><trkpt lat="40.6888364" lon="9.5532707"><ele>572.0</ele><time>2026-03-27T10:51:40.322Z</time></trkpt><trkpt lat="40.6888423" lon="9.5533711"><ele>572.0</ele><time>2026-03-27T10:51:41.332Z</time></trkpt><trkpt lat="40.6888331" lon="9.5535195"><ele>572.0</ele><time>2026-03-27T10:51:43.328Z</time></trkpt><trkpt lat="40.688806" lon="9.5536283"><ele>572.0</ele><time>2026-03-27T10:51:45.327Z</time></trkpt><trkpt lat="40.6887306" lon="9.5536862"><ele>572.0</ele><time>2026-03-27T10:51:47.344Z</time></trkpt><trkpt lat="40.6886572" lon="9.5536433"><ele>572.0</ele><time>2026-03-27T10:51:49.316Z</time></trkpt><trkpt lat="40.6885939" lon="9.5535794"><ele>572.0</ele><time>2026-03-27T10:51:50.328Z</time></trkpt><trkpt lat="40.6885242" lon="9.5534961"><ele>572.0</ele><time>2026-03-27T10:51:51.33Z</time></trkpt><trkpt lat="40.6884478" lon="9.5533998"><ele>572.6</ele><time>2026-03-27T10:51:52.326Z</time></trkpt><trkpt lat="40.688377" lon="9.5533128"><ele>573.2</ele><time>2026-03-27T10:51:53.324Z</time></trkpt><trkpt lat="40.688331" lon="9.553238"><ele>573.8</ele><time>2026-03-27T10:51:54.323Z</time></trkpt><trkpt lat="40.688307" lon="9.5531496"><ele>574.4</ele><time>2026-03-27T10:51:55.325Z</time></trkpt><trkpt lat="40.6883046" lon="9.5530079"><ele>575.0</ele><time>2026-03-27T10:51:56.323Z</time></trkpt><trkpt lat="40.6882807" lon="9.552873"><ele>574.1666666666666</ele><time>2026-03-27T10:51:57.327Z</time></trkpt><trkpt lat="40.6882635" lon="9.5527607"><ele>573.3333333333333</ele><time>2026-03-27T10:51:58.317Z</time></trkpt><trkpt lat="40.6882462" lon="9.5526709"><ele>572.5</ele><time>2026-03-27T10:51:59.329Z</time></trkpt><trkpt lat="40.6882233" lon="9.5525925"><ele>571.6666666666666</ele><time>2026-03-27T10:52:00.326Z</time></trkpt><trkpt lat="40.6881308" lon="9.5524871"><ele>570.8333333333334</ele><time>2026-03-27T10:52:02.333Z</time></trkpt><trkpt lat="40.6880616" lon="9.5524342"><ele>570.0</ele><time>2026-03-27T10:52:03.326Z</time></trkpt><trkpt lat="40.6879753" lon="9.5523694"><ele>570.0</ele><time>2026-03-27T10:52:04.33Z</time></trkpt><trkpt lat="40.6878866" lon="9.5523037"><ele>570.0</ele><time>2026-03-27T10:52:05.325Z</time></trkpt><trkpt lat="40.6878061" lon="9.5522432"><ele>570.0</ele><time>2026-03-27T10:52:06.32Z</time></trkpt><trkpt lat="40.6877246" lon="9.5521814"><ele>570.0</ele><time>2026-03-27T10:52:07.32Z</time></trkpt><trkpt lat="40.6876421" lon="9.5521134"><ele>570.0</ele><time>2026-03-27T10:52:08.322Z</time></trkpt><trkpt lat="40.6875709" lon="9.5520544"><ele>569.5</ele><time>2026-03-27T10:52:09.325Z</time></trkpt><trkpt lat="40.6875103" lon="9.5520012"><ele>569.0</ele><time>2026-03-27T10:52:10.324Z</time></trkpt><trkpt lat="40.6873957" lon="9.5519204"><ele>568.5</ele><time>2026-03-27T10:52:12.327Z</time></trkpt><trkpt lat="40.6873357" lon="9.5518755"><ele>568.0</ele><time>2026-03-27T10:52:13.328Z</time></trkpt><trkpt lat="40.6872748" lon="9.5518162"><ele>567.5</ele><time>2026-03-27T10:52:14.329Z</time></trkpt><trkpt lat="40.6872148" lon="9.5517445"><ele>567.0</ele><time>2026-03-27T10:52:15.32Z</time></trkpt><trkpt lat="40.687152" lon="9.5516585"><ele>567.0</ele><time>2026-03-27T10:52:16.324Z</time></trkpt><trkpt lat="40.6870827" lon="9.5515708"><ele>567.0</ele><time>2026-03-27T10:52:17.326Z</time></trkpt><trkpt lat="40.6870071" lon="9.5514877"><ele>567.0</ele><time>2026-03-27T10:52:18.328Z</time></trkpt><trkpt lat="40.6869256" lon="9.5513829"><ele>567.0</ele><time>2026-03-27T10:52:19.322Z</time></trkpt><trkpt lat="40.6868393" lon="9.551275"><ele>567.0</ele><time>2026-03-27T10:52:20.334Z</time></trkpt><trkpt lat="40.6867526" lon="9.5511696"><ele>567.8000000000001</ele><time>2026-03-27T10:52:21.316Z</time></trkpt><trkpt lat="40.6866653" lon="9.5510666"><ele>568.6</ele><time>2026-03-27T10:52:22.318Z</time></trkpt><trkpt lat="40.6865883" lon="9.5509703"><ele>569.4000000000001</ele><time>2026-03-27T10:52:23.316Z</time></trkpt><trkpt lat="40.6865114" lon="9.5508747"><ele>570.2</ele><time>2026-03-27T10:52:24.319Z</time></trkpt><trkpt lat="40.6864386" lon="9.5507883"><ele>571.0</ele><time>2026-03-27T10:52:25.318Z</time></trkpt><trkpt lat="40.6863743" lon="9.5507075"><ele>571.0</ele><time>2026-03-27T10:52:26.334Z</time></trkpt><trkpt lat="40.6863221" lon="9.5506196"><ele>571.0</ele><time>2026-03-27T10:52:27.322Z</time></trkpt><trkpt lat="40.6862712" lon="9.5505248"><ele>571.0</ele><time>2026-03-27T10:52:28.321Z</time></trkpt><trkpt lat="40.6862368" lon="9.5504089"><ele>571.0</ele><time>2026-03-27T10:52:29.317Z</time></trkpt><trkpt lat="40.6862064" lon="9.5502743"><ele>571.0</ele><time>2026-03-27T10:52:30.316Z</time></trkpt><trkpt lat="40.6861701" lon="9.5501491"><ele>570.5</ele><time>2026-03-27T10:52:31.317Z</time></trkpt><trkpt lat="40.6861295" lon="9.5500425"><ele>570.0</ele><time>2026-03-27T10:52:32.322Z</time></trkpt><trkpt lat="40.6860838" lon="9.5499561"><ele>569.5</ele><time>2026-03-27T10:52:33.32Z</time></trkpt><trkpt lat="40.686039" lon="9.5498902"><ele>569.0</ele><time>2026-03-27T10:52:34.322Z</time></trkpt><trkpt lat="40.6859795" lon="9.5498333"><ele>568.5</ele><time>2026-03-27T10:52:35.317Z</time></trkpt><trkpt lat="40.6859192" lon="9.5497701"><ele>568.0</ele><time>2026-03-27T10:52:36.317Z</time></trkpt><trkpt lat="40.685873" lon="9.5497046"><ele>570.1666666666667</ele><time>2026-03-27T10:52:37.322Z</time></trkpt><trkpt lat="40.6858459" lon="9.549553"><ele>572.3333333333334</ele><time>2026-03-27T10:52:39.319Z</time></trkpt><trkpt lat="40.685837" lon="9.5494415"><ele>574.5</ele><time>2026-03-27T10:52:40.343Z</time></trkpt><trkpt lat="40.6858396" lon="9.5493363"><ele>576.6666666666666</ele><time>2026-03-27T10:52:41.323Z</time></trkpt><trkpt lat="40.6858486" lon="9.5492484"><ele>578.8333333333333</ele><time>2026-03-27T10:52:42.323Z</time></trkpt><trkpt lat="40.6858432" lon="9.5491356"><ele>581.0</ele><time>2026-03-27T10:52:43.319Z</time></trkpt><trkpt lat="40.685851" lon="9.5489709"><ele>581.2</ele><time>2026-03-27T10:52:45.323Z</time></trkpt><trkpt lat="40.6858453" lon="9.5488094"><ele>581.4000000000001</ele><time>2026-03-27T10:52:47.325Z</time></trkpt><trkpt lat="40.6858072" lon="9.5486569"><ele>581.6</ele><time>2026-03-27T10:52:49.323Z</time></trkpt><trkpt lat="40.6857375" lon="9.5485745"><ele>581.8000000000001</ele><time>2026-03-27T10:52:51.326Z</time></trkpt><trkpt lat="40.6856657" lon="9.5485447"><ele>582.0</ele><time>2026-03-27T10:52:52.322Z</time></trkpt><trkpt lat="40.6855861" lon="9.5485207"><ele>581.0</ele><time>2026-03-27T10:52:53.325Z</time></trkpt><trkpt lat="40.6855001" lon="9.5484997"><ele>580.0</ele><time>2026-03-27T10:52:54.316Z</time></trkpt><trkpt lat="40.6854182" lon="9.5484885"><ele>579.0</ele><time>2026-03-27T10:52:55.324Z</time></trkpt><trkpt lat="40.6853485" lon="9.5484721"><ele>578.0</ele><time>2026-03-27T10:52:56.327Z</time></trkpt><trkpt lat="40.6852753" lon="9.5484694"><ele>577.0</ele><time>2026-03-27T10:52:57.323Z</time></trkpt><trkpt lat="40.6852054" lon="9.5484497"><ele>576.0</ele><time>2026-03-27T10:52:58.323Z</time></trkpt><trkpt lat="40.6851393" lon="9.5484116"><ele>576.0</ele><time>2026-03-27T10:52:59.332Z</time></trkpt><trkpt lat="40.6850804" lon="9.5483473"><ele>576.0</ele><time>2026-03-27T10:53:00.316Z</time></trkpt><trkpt lat="40.6850258" lon="9.5482616"><ele>576.0</ele><time>2026-03-27T10:53:01.329Z</time></trkpt><trkpt lat="40.6849839" lon="9.5481568"><ele>576.0</ele><time>2026-03-27T10:53:02.324Z</time></trkpt><trkpt lat="40.6849459" lon="9.5480672"><ele>576.0</ele><time>2026-03-27T10:53:03.331Z</time></trkpt><trkpt lat="40.6849206" lon="9.5479846"><ele>576.0</ele><time>2026-03-27T10:53:04.326Z</time></trkpt><trkpt lat="40.6848809" lon="9.5478926"><ele>575.0</ele><time>2026-03-27T10:53:05.324Z</time></trkpt><trkpt lat="40.6848358" lon="9.5477958"><ele>574.0</ele><time>2026-03-27T10:53:06.321Z</time></trkpt><trkpt lat="40.6847781" lon="9.5477066"><ele>573.0</ele><time>2026-03-27T10:53:07.325Z</time></trkpt><trkpt lat="40.6847118" lon="9.5476438"><ele>572.0</ele><time>2026-03-27T10:53:08.319Z</time></trkpt><trkpt lat="40.6846339" lon="9.5475784"><ele>571.0</ele><time>2026-03-27T10:53:09.328Z</time></trkpt><trkpt lat="40.6845446" lon="9.5475023"><ele>571.0</ele><time>2026-03-27T10:53:10.326Z</time></trkpt><trkpt lat="40.6844605" lon="9.5474442"><ele>571.0</ele><time>2026-03-27T10:53:11.321Z</time></trkpt><trkpt lat="40.68439" lon="9.5473972"><ele>571.0</ele><time>2026-03-27T10:53:12.328Z</time></trkpt><trkpt lat="40.6843237" lon="9.5473579"><ele>571.0</ele><time>2026-03-27T10:53:13.321Z</time></trkpt><trkpt lat="40.6842652" lon="9.5472995"><ele>571.0</ele><time>2026-03-27T10:53:14.321Z</time></trkpt><trkpt lat="40.6842124" lon="9.547237"><ele>571.0</ele><time>2026-03-27T10:53:15.32Z</time></trkpt><trkpt lat="40.6841464" lon="9.5471709"><ele>571.0</ele><time>2026-03-27T10:53:16.32Z</time></trkpt><trkpt lat="40.6840521" lon="9.5471218"><ele>571.0</ele><time>2026-03-27T10:53:17.318Z</time></trkpt><trkpt lat="40.6839568" lon="9.5470731"><ele>571.0</ele><time>2026-03-27T10:53:18.322Z</time></trkpt><trkpt lat="40.6838602" lon="9.5470277"><ele>571.0</ele><time>2026-03-27T10:53:19.318Z</time></trkpt><trkpt lat="40.6837795" lon="9.5469813"><ele>571.0</ele><time>2026-03-27T10:53:20.322Z</time></trkpt><trkpt lat="40.6837084" lon="9.5469355"><ele>571.0</ele><time>2026-03-27T10:53:21.317Z</time></trkpt><trkpt lat="40.6836394" lon="9.546892"><ele>571.0</ele><time>2026-03-27T10:53:22.321Z</time></trkpt><trkpt lat="40.6835834" lon="9.5468523"><ele>571.0</ele><time>2026-03-27T10:53:23.317Z</time></trkpt><trkpt lat="40.6835133" lon="9.5467967"><ele>571.0</ele><time>2026-03-27T10:53:24.328Z</time></trkpt><trkpt lat="40.6834475" lon="9.5467329"><ele>571.0</ele><time>2026-03-27T10:53:25.315Z</time></trkpt><trkpt lat="40.6833895" lon="9.5466733"><ele>571.0</ele><time>2026-03-27T10:53:26.318Z</time></trkpt><trkpt lat="40.6833443" lon="9.5466014"><ele>571.0</ele><time>2026-03-27T10:53:27.324Z</time></trkpt><trkpt lat="40.6832906" lon="9.5465034"><ele>572.6666666666667</ele><time>2026-03-27T10:53:28.319Z</time></trkpt><trkpt lat="40.6832423" lon="9.5464375"><ele>574.3333333333334</ele><time>2026-03-27T10:53:29.335Z</time></trkpt><trkpt lat="40.6831189" lon="9.5464104"><ele>576.0</ele><time>2026-03-27T10:53:31.323Z</time></trkpt><trkpt lat="40.6830469" lon="9.5464012"><ele>577.6666666666666</ele><time>2026-03-27T10:53:32.324Z</time></trkpt><trkpt lat="40.68297" lon="9.5463862"><ele>579.3333333333333</ele><time>2026-03-27T10:53:33.322Z</time></trkpt><trkpt lat="40.6828927" lon="9.5463339"><ele>581.0</ele><time>2026-03-27T10:53:34.324Z</time></trkpt><trkpt lat="40.6828043" lon="9.5462766"><ele>581.8333333333333</ele><time>2026-03-27T10:53:35.319Z</time></trkpt><trkpt lat="40.6827269" lon="9.5462221"><ele>582.6666666666666</ele><time>2026-03-27T10:53:36.321Z</time></trkpt><trkpt lat="40.6826709" lon="9.54615"><ele>583.5</ele><time>2026-03-27T10:53:37.327Z</time></trkpt><trkpt lat="40.6826192" lon="9.5460564"><ele>584.3333333333334</ele><time>2026-03-27T10:53:38.322Z</time></trkpt><trkpt lat="40.6825622" lon="9.5459732"><ele>585.1666666666667</ele><time>2026-03-27T10:53:39.317Z</time></trkpt><trkpt lat="40.6825019" lon="9.5459207"><ele>586.0</ele><time>2026-03-27T10:53:40.322Z</time></trkpt><trkpt lat="40.6824406" lon="9.5458701"><ele>586.0</ele><time>2026-03-27T10:53:41.325Z</time></trkpt><trkpt lat="40.6823667" lon="9.5458498"><ele>586.0</ele><time>2026-03-27T10:53:42.325Z</time></trkpt><trkpt lat="40.6822978" lon="9.5458458"><ele>586.0</ele><time>2026-03-27T10:53:43.323Z</time></trkpt><trkpt lat="40.6821773" lon="9.5458256"><ele>586.0</ele><time>2026-03-27T10:53:45.321Z</time></trkpt><trkpt lat="40.6821102" lon="9.5458047"><ele>586.0</ele><time>2026-03-27T10:53:46.321Z</time></trkpt><trkpt lat="40.682004" lon="9.5457593"><ele>586.0</ele><time>2026-03-27T10:53:48.328Z</time></trkpt><trkpt lat="40.6819814" lon="9.545656"><ele>586.0</ele><time>2026-03-27T10:53:50.33Z</time></trkpt><trkpt lat="40.6820721" lon="9.5455345"><ele>586.0</ele><time>2026-03-27T10:53:52.326Z</time></trkpt><trkpt lat="40.6821481" lon="9.545454"><ele>586.0</ele><time>2026-03-27T10:53:53.326Z</time></trkpt><trkpt lat="40.6822287" lon="9.5453726"><ele>586.0</ele><time>2026-03-27T10:53:54.32Z</time></trkpt><trkpt lat="40.6822812" lon="9.5453045"><ele>586.0</ele><time>2026-03-27T10:53:55.325Z</time></trkpt><trkpt lat="40.6822949" lon="9.5452006"><ele>586.2</ele><time>2026-03-27T10:53:57.321Z</time></trkpt><trkpt lat="40.6822321" lon="9.5451168"><ele>586.4000000000001</ele><time>2026-03-27T10:53:59.332Z</time></trkpt><trkpt lat="40.6821497" lon="9.5450486"><ele>586.6</ele><time>2026-03-27T10:54:01.323Z</time></trkpt><trkpt lat="40.6820508" lon="9.5449654"><ele>586.8000000000001</ele><time>2026-03-27T10:54:03.318Z</time></trkpt><trkpt lat="40.6819571" lon="9.544866"><ele>587.0</ele><time>2026-03-27T10:54:05.319Z</time></trkpt><trkpt lat="40.6818811" lon="9.5447839"><ele>587.6666666666666</ele><time>2026-03-27T10:54:07.317Z</time></trkpt><trkpt lat="40.6818062" lon="9.5447236"><ele>588.3333333333333</ele><time>2026-03-27T10:54:26.328Z</time></trkpt><trkpt lat="40.6817459" lon="9.5446534"><ele>589.0</ele><time>2026-03-27T10:54:28.327Z</time></trkpt><trkpt lat="40.6816947" lon="9.5445804"><ele>589.6666666666666</ele><time>2026-03-27T10:54:30.322Z</time></trkpt><trkpt lat="40.6816511" lon="9.5445092"><ele>590.3333333333334</ele><time>2026-03-27T10:54:32.324Z</time></trkpt><trkpt lat="40.6816254" lon="9.5444246"><ele>591.0</ele><time>2026-03-27T10:54:34.331Z</time></trkpt><trkpt lat="40.6816088" lon="9.5443284"><ele>591.0</ele><time>2026-03-27T10:54:36.324Z</time></trkpt><trkpt lat="40.6816174" lon="9.5442292"><ele>591.0</ele><time>2026-03-27T10:54:38.317Z</time></trkpt><trkpt lat="40.6816308" lon="9.5440912"><ele>591.0</ele><time>2026-03-27T10:54:40.325Z</time></trkpt><trkpt lat="40.6816349" lon="9.5439928"><ele>591.0</ele><time>2026-03-27T10:54:41.318Z</time></trkpt><trkpt lat="40.6816278" lon="9.5438882"><ele>591.0</ele><time>2026-03-27T10:54:42.324Z</time></trkpt><trkpt lat="40.6816081" lon="9.5437924"><ele>591.0</ele><time>2026-03-27T10:54:43.326Z</time></trkpt><trkpt lat="40.6815706" lon="9.5436566"><ele>591.4</ele><time>2026-03-27T10:54:45.324Z</time></trkpt><trkpt lat="40.6815341" lon="9.5435802"><ele>591.8</ele><time>2026-03-27T10:54:51.325Z</time></trkpt><trkpt lat="40.681494" lon="9.5434822"><ele>592.1999999999999</ele><time>2026-03-27T10:54:53.324Z</time></trkpt><trkpt lat="40.6814683" lon="9.5433758"><ele>592.6</ele><time>2026-03-27T10:54:54.334Z</time></trkpt><trkpt lat="40.6814439" lon="9.5432312"><ele>593.0</ele><time>2026-03-27T10:54:55.329Z</time></trkpt><trkpt lat="40.6814154" lon="9.5430367"><ele>592.5</ele><time>2026-03-27T10:54:56.322Z</time></trkpt><trkpt lat="40.681392" lon="9.5428485"><ele>592.0</ele><time>2026-03-27T10:54:57.324Z</time></trkpt><trkpt lat="40.6813686" lon="9.5426572"><ele>591.5</ele><time>2026-03-27T10:54:58.322Z</time></trkpt><trkpt lat="40.6813371" lon="9.5424745"><ele>591.0</ele><time>2026-03-27T10:54:59.321Z</time></trkpt><trkpt lat="40.6813089" lon="9.5423104"><ele>591.0</ele><time>2026-03-27T10:55:00.324Z</time></trkpt><trkpt lat="40.6812777" lon="9.5421657"><ele>591.0</ele><time>2026-03-27T10:55:01.322Z</time></trkpt><trkpt lat="40.6812662" lon="9.5420312"><ele>591.0</ele><time>2026-03-27T10:55:02.33Z</time></trkpt><trkpt lat="40.6812733" lon="9.5419008"><ele>591.0</ele><time>2026-03-27T10:55:03.321Z</time></trkpt><trkpt lat="40.6813024" lon="9.5417646"><ele>591.0</ele><time>2026-03-27T10:55:04.324Z</time></trkpt><trkpt lat="40.6813293" lon="9.5416092"><ele>591.2</ele><time>2026-03-27T10:55:05.327Z</time></trkpt><trkpt lat="40.6813439" lon="9.5414662"><ele>591.4000000000001</ele><time>2026-03-27T10:55:06.325Z</time></trkpt><trkpt lat="40.6813421" lon="9.5413268"><ele>591.6</ele><time>2026-03-27T10:55:07.32Z</time></trkpt><trkpt lat="40.6813317" lon="9.5411775"><ele>591.8000000000001</ele><time>2026-03-27T10:55:08.325Z</time></trkpt><trkpt lat="40.6813148" lon="9.5410323"><ele>592.0</ele><time>2026-03-27T10:55:09.32Z</time></trkpt><trkpt lat="40.6812977" lon="9.540898"><ele>592.0</ele><time>2026-03-27T10:55:10.324Z</time></trkpt><trkpt lat="40.6812643" lon="9.5407853"><ele>592.0</ele><time>2026-03-27T10:55:11.323Z</time></trkpt><trkpt lat="40.6812197" lon="9.5406791"><ele>592.0</ele><time>2026-03-27T10:55:12.326Z</time></trkpt><trkpt lat="40.6811703" lon="9.5405663"><ele>592.0</ele><time>2026-03-27T10:55:13.321Z</time></trkpt><trkpt lat="40.6811081" lon="9.5404744"><ele>592.0</ele><time>2026-03-27T10:55:14.331Z</time></trkpt><trkpt lat="40.6810408" lon="9.5403957"><ele>592.0</ele><time>2026-03-27T10:55:15.324Z</time></trkpt><trkpt lat="40.6809713" lon="9.5403501"><ele>592.0</ele><time>2026-03-27T10:55:16.327Z</time></trkpt><trkpt lat="40.6808875" lon="9.5403208"><ele>592.0</ele><time>2026-03-27T10:55:17.328Z</time></trkpt><trkpt lat="40.6807889" lon="9.5402833"><ele>592.0</ele><time>2026-03-27T10:55:18.319Z</time></trkpt><trkpt lat="40.6806676" lon="9.5402436"><ele>592.0</ele><time>2026-03-27T10:55:19.324Z</time></trkpt><trkpt lat="40.6805379" lon="9.5402067"><ele>592.0</ele><time>2026-03-27T10:55:20.32Z</time></trkpt><trkpt lat="40.6804041" lon="9.5401867"><ele>592.0</ele><time>2026-03-27T10:55:21.327Z</time></trkpt><trkpt lat="40.6802905" lon="9.5401714"><ele>592.0</ele><time>2026-03-27T10:55:22.32Z</time></trkpt><trkpt lat="40.6802206" lon="9.5401634"><ele>592.0</ele><time>2026-03-27T10:55:23.324Z</time></trkpt><trkpt lat="40.6801326" lon="9.5401748"><ele>592.0</ele><time>2026-03-27T10:56:19.329Z</time></trkpt><trkpt lat="40.6800192" lon="9.5401567"><ele>593.4</ele><time>2026-03-27T10:56:21.327Z</time></trkpt><trkpt lat="40.6799432" lon="9.5401449"><ele>594.8000000000001</ele><time>2026-03-27T10:56:22.321Z</time></trkpt><trkpt lat="40.6798502" lon="9.5401259"><ele>596.2</ele><time>2026-03-27T10:56:23.325Z</time></trkpt><trkpt lat="40.6797493" lon="9.5401082"><ele>597.6</ele><time>2026-03-27T10:56:24.321Z</time></trkpt><trkpt lat="40.6796421" lon="9.540081"><ele>599.0</ele><time>2026-03-27T10:56:25.319Z</time></trkpt><trkpt lat="40.6795345" lon="9.5400527"><ele>602.5</ele><time>2026-03-27T10:56:26.317Z</time></trkpt><trkpt lat="40.6794278" lon="9.5400164"><ele>606.0</ele><time>2026-03-27T10:56:27.323Z</time></trkpt><trkpt lat="40.6793122" lon="9.5399805"><ele>609.5</ele><time>2026-03-27T10:56:28.32Z</time></trkpt><trkpt lat="40.6791939" lon="9.5399509"><ele>613.0</ele><time>2026-03-27T10:56:29.329Z</time></trkpt><trkpt lat="40.6790693" lon="9.539915"><ele>613.0</ele><time>2026-03-27T10:56:30.328Z</time></trkpt><trkpt lat="40.6789363" lon="9.5398708"><ele>613.0</ele><time>2026-03-27T10:56:31.315Z</time></trkpt><trkpt lat="40.6788044" lon="9.5398285"><ele>613.0</ele><time>2026-03-27T10:56:32.32Z</time></trkpt><trkpt lat="40.6786936" lon="9.5397935"><ele>613.0</ele><time>2026-03-27T10:56:33.326Z</time></trkpt><trkpt lat="40.6785954" lon="9.5397767"><ele>615.8</ele><time>2026-03-27T10:56:34.324Z</time></trkpt><trkpt lat="40.6784991" lon="9.539764"><ele>618.5999999999999</ele><time>2026-03-27T10:56:35.321Z</time></trkpt><trkpt lat="40.6784107" lon="9.5397988"><ele>621.4000000000001</ele><time>2026-03-27T10:56:36.33Z</time></trkpt><trkpt lat="40.6783243" lon="9.5398472"><ele>624.2</ele><time>2026-03-27T10:56:37.325Z</time></trkpt><trkpt lat="40.678241" lon="9.5398793"><ele>627.0</ele><time>2026-03-27T10:56:38.325Z</time></trkpt><trkpt lat="40.6781614" lon="9.5398971"><ele>627.0</ele><time>2026-03-27T10:56:39.323Z</time></trkpt><trkpt lat="40.678072" lon="9.5399052"><ele>627.0</ele><time>2026-03-27T10:56:40.327Z</time></trkpt><trkpt lat="40.6779706" lon="9.5399246"><ele>627.0</ele><time>2026-03-27T10:56:41.323Z</time></trkpt><trkpt lat="40.6778513" lon="9.5399476"><ele>627.0</ele><time>2026-03-27T10:56:42.33Z</time></trkpt><trkpt lat="40.6777181" lon="9.5399613"><ele>627.0</ele><time>2026-03-27T10:56:43.319Z</time></trkpt><trkpt lat="40.6776002" lon="9.5399656"><ele>628.8000000000001</ele><time>2026-03-27T10:56:44.316Z</time></trkpt><trkpt lat="40.6775018" lon="9.5399563"><ele>630.6</ele><time>2026-03-27T10:56:45.318Z</time></trkpt><trkpt lat="40.6774336" lon="9.5399209"><ele>632.4000000000001</ele><time>2026-03-27T10:56:46.32Z</time></trkpt><trkpt lat="40.6773628" lon="9.539854"><ele>634.2</ele><time>2026-03-27T10:56:47.32Z</time></trkpt><trkpt lat="40.6772821" lon="9.5397779"><ele>636.0</ele><time>2026-03-27T10:56:48.333Z</time></trkpt><trkpt lat="40.6771805" lon="9.5396719"><ele>636.0</ele><time>2026-03-27T10:56:49.317Z</time></trkpt><trkpt lat="40.6770792" lon="9.5395709"><ele>636.0</ele><time>2026-03-27T10:56:50.319Z</time></trkpt><trkpt lat="40.6769742" lon="9.5394964"><ele>636.0</ele><time>2026-03-27T10:56:51.319Z</time></trkpt><trkpt lat="40.6768954" lon="9.5394203"><ele>636.0</ele><time>2026-03-27T10:56:52.317Z</time></trkpt><trkpt lat="40.6768395" lon="9.5393427"><ele>636.0</ele><time>2026-03-27T10:56:53.324Z</time></trkpt><trkpt lat="40.6767847" lon="9.539246"><ele>636.6</ele><time>2026-03-27T10:56:54.326Z</time></trkpt><trkpt lat="40.6767172" lon="9.5391269"><ele>637.2</ele><time>2026-03-27T10:56:55.322Z</time></trkpt><trkpt lat="40.6766568" lon="9.539033"><ele>637.8</ele><time>2026-03-27T10:56:56.336Z</time></trkpt><trkpt lat="40.6766015" lon="9.5389533"><ele>638.4</ele><time>2026-03-27T10:56:57.324Z</time></trkpt><trkpt lat="40.6765527" lon="9.5388812"><ele>639.0</ele><time>2026-03-27T10:56:58.325Z</time></trkpt><trkpt lat="40.6764903" lon="9.5387961"><ele>639.0</ele><time>2026-03-27T10:57:00.32Z</time></trkpt><trkpt lat="40.6765106" lon="9.5386535"><ele>639.0</ele><time>2026-03-27T10:57:46.327Z</time></trkpt><trkpt lat="40.6764778" lon="9.5385662"><ele>639.0</ele><time>2026-03-27T10:57:49.325Z</time></trkpt><trkpt lat="40.6764307" lon="9.5384427"><ele>639.0</ele><time>2026-03-27T10:57:51.319Z</time></trkpt><trkpt lat="40.6763553" lon="9.5383604"><ele>639.0</ele><time>2026-03-27T10:57:53.33Z</time></trkpt><trkpt lat="40.6762798" lon="9.5384125"><ele>639.0</ele><time>2026-03-27T10:57:55.324Z</time></trkpt><trkpt lat="40.6761895" lon="9.5385273"><ele>639.0</ele><time>2026-03-27T10:57:57.321Z</time></trkpt><trkpt lat="40.6760963" lon="9.5385762"><ele>639.0</ele><time>2026-03-27T10:57:59.324Z</time></trkpt><trkpt lat="40.6759901" lon="9.5385222"><ele>639.0</ele><time>2026-03-27T10:58:01.318Z</time></trkpt><trkpt lat="40.6759381" lon="9.5384434"><ele>639.0</ele><time>2026-03-27T10:58:02.316Z</time></trkpt><trkpt lat="40.6758838" lon="9.5383488"><ele>642.0</ele><time>2026-03-27T10:58:03.32Z</time></trkpt><trkpt lat="40.6757975" lon="9.5382581"><ele>645.0</ele><time>2026-03-27T10:58:05.317Z</time></trkpt><trkpt lat="40.6756995" lon="9.5381961"><ele>648.0</ele><time>2026-03-27T10:58:07.318Z</time></trkpt><trkpt lat="40.6756314" lon="9.5381939"><ele>651.0</ele><time>2026-03-27T10:58:08.319Z</time></trkpt><trkpt lat="40.6755612" lon="9.5382042"><ele>654.0</ele><time>2026-03-27T10:58:09.321Z</time></trkpt><trkpt lat="40.6754874" lon="9.5382046"><ele>657.0</ele><time>2026-03-27T10:58:10.319Z</time></trkpt><trkpt lat="40.6754192" lon="9.5381974"><ele>657.0</ele><time>2026-03-27T10:58:11.317Z</time></trkpt><trkpt lat="40.6753592" lon="9.5381705"><ele>657.0</ele><time>2026-03-27T10:59:52.325Z</time></trkpt><trkpt lat="40.6753043" lon="9.5382246"><ele>657.0</ele><time>2026-03-27T10:59:55.331Z</time></trkpt><trkpt lat="40.6752719" lon="9.5383399"><ele>657.0</ele><time>2026-03-27T10:59:57.321Z</time></trkpt><trkpt lat="40.6752574" lon="9.538421"><ele>657.0</ele><time>2026-03-27T10:59:58.323Z</time></trkpt><trkpt lat="40.6752295" lon="9.5385893"><ele>657.0</ele><time>2026-03-27T11:00:00.324Z</time></trkpt><trkpt lat="40.6752114" lon="9.5386779"><ele>660.3333333333334</ele><time>2026-03-27T11:00:01.322Z</time></trkpt><trkpt lat="40.675187" lon="9.5387619"><ele>663.6666666666666</ele><time>2026-03-27T11:00:02.322Z</time></trkpt><trkpt lat="40.6751602" lon="9.5388404"><ele>667.0</ele><time>2026-03-27T11:00:03.32Z</time></trkpt><trkpt lat="40.6750732" lon="9.538963"><ele>670.3333333333333</ele><time>2026-03-27T11:00:05.331Z</time></trkpt><trkpt lat="40.6750125" lon="9.5390193"><ele>673.6666666666666</ele><time>2026-03-27T11:00:06.316Z</time></trkpt><trkpt lat="40.6749619" lon="9.5390751"><ele>677.0</ele><time>2026-03-27T11:00:07.323Z</time></trkpt><trkpt lat="40.6748815" lon="9.539111"><ele>677.0</ele><time>2026-03-27T11:00:09.326Z</time></trkpt><trkpt lat="40.6747964" lon="9.5390791"><ele>677.0</ele><time>2026-03-27T11:00:11.32Z</time></trkpt><trkpt lat="40.6747371" lon="9.5390349"><ele>677.0</ele><time>2026-03-27T11:00:12.324Z</time></trkpt><trkpt lat="40.6746615" lon="9.5389702"><ele>677.0</ele><time>2026-03-27T11:00:13.32Z</time></trkpt><trkpt lat="40.6745773" lon="9.538891"><ele>677.0</ele><time>2026-03-27T11:00:14.326Z</time></trkpt><trkpt lat="40.6744866" lon="9.5388107"><ele>677.5</ele><time>2026-03-27T11:00:15.328Z</time></trkpt><trkpt lat="40.6743888" lon="9.5387253"><ele>678.0</ele><time>2026-03-27T11:00:16.321Z</time></trkpt><trkpt lat="40.674278" lon="9.5386336"><ele>678.5</ele><time>2026-03-27T11:00:17.321Z</time></trkpt><trkpt lat="40.6741903" lon="9.5385219"><ele>679.0</ele><time>2026-03-27T11:00:18.325Z</time></trkpt><trkpt lat="40.674107" lon="9.5384195"><ele>679.0</ele><time>2026-03-27T11:00:19.328Z</time></trkpt><trkpt lat="40.6740263" lon="9.5383234"><ele>679.0</ele><time>2026-03-27T11:00:20.318Z</time></trkpt><trkpt lat="40.6739506" lon="9.5382306"><ele>679.0</ele><time>2026-03-27T11:00:21.331Z</time></trkpt><trkpt lat="40.6738935" lon="9.5381224"><ele>679.0</ele><time>2026-03-27T11:00:22.321Z</time></trkpt><trkpt lat="40.6738488" lon="9.5380183"><ele>679.0</ele><time>2026-03-27T11:00:23.33Z</time></trkpt><trkpt lat="40.6738045" lon="9.5379276"><ele>680.3333333333334</ele><time>2026-03-27T11:00:24.325Z</time></trkpt><trkpt lat="40.6737567" lon="9.5378515"><ele>681.6666666666667</ele><time>2026-03-27T11:00:25.329Z</time></trkpt><trkpt lat="40.6737" lon="9.5377917"><ele>683.0</ele><time>2026-03-27T11:00:26.319Z</time></trkpt><trkpt lat="40.6736428" lon="9.5377259"><ele>684.3333333333334</ele><time>2026-03-27T11:00:27.32Z</time></trkpt><trkpt lat="40.6735689" lon="9.5376798"><ele>685.6666666666666</ele><time>2026-03-27T11:00:28.321Z</time></trkpt><trkpt lat="40.6734918" lon="9.5376385"><ele>687.0</ele><time>2026-03-27T11:00:29.328Z</time></trkpt><trkpt lat="40.673413" lon="9.537609"><ele>687.0</ele><time>2026-03-27T11:00:30.327Z</time></trkpt><trkpt lat="40.6733394" lon="9.5375792"><ele>687.0</ele><time>2026-03-27T11:00:31.327Z</time></trkpt><trkpt lat="40.6732739" lon="9.5375573"><ele>687.0</ele><time>2026-03-27T11:00:32.32Z</time></trkpt><trkpt lat="40.6732062" lon="9.5375327"><ele>687.0</ele><time>2026-03-27T11:00:33.332Z</time></trkpt><trkpt lat="40.6731445" lon="9.5375135"><ele>687.0</ele><time>2026-03-27T11:00:34.329Z</time></trkpt><trkpt lat="40.6730359" lon="9.5374679"><ele>687.0</ele><time>2026-03-27T11:00:36.321Z</time></trkpt><trkpt lat="40.6729465" lon="9.5373716"><ele>687.0</ele><time>2026-03-27T11:00:38.317Z</time></trkpt><trkpt lat="40.6728427" lon="9.5373195"><ele>687.0</ele><time>2026-03-27T11:00:40.319Z</time></trkpt><trkpt lat="40.6727276" lon="9.5373094"><ele>687.0</ele><time>2026-03-27T11:00:42.322Z</time></trkpt><trkpt lat="40.6726149" lon="9.5373263"><ele>687.0</ele><time>2026-03-27T11:00:44.317Z</time></trkpt><trkpt lat="40.6725027" lon="9.5373528"><ele>689.5</ele><time>2026-03-27T11:00:46.317Z</time></trkpt><trkpt lat="40.6724335" lon="9.5373702"><ele>692.0</ele><time>2026-03-27T11:00:47.318Z</time></trkpt><trkpt lat="40.6723583" lon="9.5373897"><ele>694.5</ele><time>2026-03-27T11:00:48.324Z</time></trkpt><trkpt lat="40.6722899" lon="9.5374229"><ele>697.0</ele><time>2026-03-27T11:00:49.32Z</time></trkpt><trkpt lat="40.6722206" lon="9.5374447"><ele>699.5</ele><time>2026-03-27T11:00:50.325Z</time></trkpt><trkpt lat="40.6721466" lon="9.5374666"><ele>702.0</ele><time>2026-03-27T11:00:51.323Z</time></trkpt><trkpt lat="40.6720656" lon="9.5374965"><ele>702.0</ele><time>2026-03-27T11:00:52.32Z</time></trkpt><trkpt lat="40.6719751" lon="9.5375279"><ele>702.0</ele><time>2026-03-27T11:00:53.319Z</time></trkpt><trkpt lat="40.6718782" lon="9.537565"><ele>702.0</ele><time>2026-03-27T11:00:54.332Z</time></trkpt><trkpt lat="40.6717772" lon="9.537609"><ele>702.0</ele><time>2026-03-27T11:00:55.316Z</time></trkpt><trkpt lat="40.6716817" lon="9.5376585"><ele>702.0</ele><time>2026-03-27T11:00:56.325Z</time></trkpt><trkpt lat="40.671595" lon="9.5377056"><ele>708.0</ele><time>2026-03-27T11:00:57.321Z</time></trkpt><trkpt lat="40.6715104" lon="9.5377454"><ele>708.0</ele><time>2026-03-27T11:00:58.325Z</time></trkpt><trkpt lat="40.6714263" lon="9.5377788"><ele>708.0</ele><time>2026-03-27T11:00:59.321Z</time></trkpt><trkpt lat="40.6713497" lon="9.5377981"><ele>708.0</ele><time>2026-03-27T11:01:00.317Z</time></trkpt><trkpt lat="40.6712796" lon="9.5378205"><ele>708.0</ele><time>2026-03-27T11:01:02.327Z</time></trkpt></trkseg><trkseg><trkpt lat="40.6711664" lon="9.5378639"><ele>707.0</ele><time>2026-03-27T11:17:06.845Z</time></trkpt><trkpt lat="40.6710609" lon="9.5378745"><ele>706.0</ele><time>2026-03-27T11:17:08.835Z</time></trkpt><trkpt lat="40.6709811" lon="9.537871"><ele>705.0</ele><time>2026-03-27T11:17:10.839Z</time></trkpt><trkpt lat="40.6708923" lon="9.5378588"><ele>704.0</ele><time>2026-03-27T11:17:12.841Z</time></trkpt><trkpt lat="40.6708043" lon="9.5378493"><ele>703.0</ele><time>2026-03-27T11:17:14.844Z</time></trkpt><trkpt lat="40.6707197" lon="9.5378375"><ele>702.0</ele><time>2026-03-27T11:17:16.846Z</time></trkpt><trkpt lat="40.6706157" lon="9.5378118"><ele>702.0</ele><time>2026-03-27T11:17:18.841Z</time></trkpt><trkpt lat="40.6705058" lon="9.5377888"><ele>702.0</ele><time>2026-03-27T11:17:20.845Z</time></trkpt><trkpt lat="40.6704059" lon="9.5377693"><ele>702.0</ele><time>2026-03-27T11:17:22.839Z</time></trkpt><trkpt lat="40.6703125" lon="9.5377558"><ele>702.0</ele><time>2026-03-27T11:17:24.862Z</time></trkpt><trkpt lat="40.6702365" lon="9.5377598"><ele>702.0</ele><time>2026-03-27T11:17:26.84Z</time></trkpt><trkpt lat="40.6701737" lon="9.5377794"><ele>702.0</ele><time>2026-03-27T11:17:28.844Z</time></trkpt><trkpt lat="40.6700934" lon="9.5378002"><ele>700.6</ele><time>2026-03-27T11:17:30.848Z</time></trkpt><trkpt lat="40.6700085" lon="9.5378306"><ele>699.2</ele><time>2026-03-27T11:17:32.838Z</time></trkpt><trkpt lat="40.6699262" lon="9.5378748"><ele>697.8</ele><time>2026-03-27T11:17:34.842Z</time></trkpt><trkpt lat="40.6698467" lon="9.5379541"><ele>696.4</ele><time>2026-03-27T11:17:36.839Z</time></trkpt><trkpt lat="40.669759" lon="9.538039"><ele>695.0</ele><time>2026-03-27T11:17:38.841Z</time></trkpt><trkpt lat="40.6696717" lon="9.5381293"><ele>695.0</ele><time>2026-03-27T11:17:40.843Z</time></trkpt><trkpt lat="40.6695997" lon="9.5382529"><ele>695.0</ele><time>2026-03-27T11:17:42.845Z</time></trkpt><trkpt lat="40.6695677" lon="9.5383365"><ele>695.0</ele><time>2026-03-27T11:17:43.844Z</time></trkpt><trkpt lat="40.6695374" lon="9.5384293"><ele>695.0</ele><time>2026-03-27T11:17:44.843Z</time></trkpt><trkpt lat="40.6695097" lon="9.5385395"><ele>695.0</ele><time>2026-03-27T11:17:45.839Z</time></trkpt><trkpt lat="40.6694846" lon="9.5386346"><ele>695.0</ele><time>2026-03-27T11:17:46.842Z</time></trkpt><trkpt lat="40.6694593" lon="9.5387229"><ele>692.2</ele><time>2026-03-27T11:17:47.839Z</time></trkpt><trkpt lat="40.6694333" lon="9.5388063"><ele>689.4</ele><time>2026-03-27T11:17:48.85Z</time></trkpt><trkpt lat="40.6693923" lon="9.5388961"><ele>686.5999999999999</ele><time>2026-03-27T11:17:49.843Z</time></trkpt><trkpt lat="40.6693363" lon="9.5390007"><ele>683.8</ele><time>2026-03-27T11:17:50.839Z</time></trkpt><trkpt lat="40.6692814" lon="9.5391115"><ele>681.0</ele><time>2026-03-27T11:17:51.848Z</time></trkpt><trkpt lat="40.669216" lon="9.5392323"><ele>681.0</ele><time>2026-03-27T11:17:52.843Z</time></trkpt><trkpt lat="40.6691511" lon="9.539358"><ele>681.0</ele><time>2026-03-27T11:17:53.856Z</time></trkpt><trkpt lat="40.6690801" lon="9.5394979"><ele>681.0</ele><time>2026-03-27T11:17:54.846Z</time></trkpt><trkpt lat="40.6690147" lon="9.539628"><ele>681.0</ele><time>2026-03-27T11:17:55.833Z</time></trkpt><trkpt lat="40.6689549" lon="9.5397542"><ele>681.6666666666666</ele><time>2026-03-27T11:17:56.837Z</time></trkpt><trkpt lat="40.6689038" lon="9.5398685"><ele>682.3333333333334</ele><time>2026-03-27T11:17:57.84Z</time></trkpt><trkpt lat="40.6688575" lon="9.5399737"><ele>683.0</ele><time>2026-03-27T11:17:58.845Z</time></trkpt><trkpt lat="40.6688192" lon="9.5400665"><ele>683.6666666666667</ele><time>2026-03-27T11:17:59.838Z</time></trkpt><trkpt lat="40.6687757" lon="9.5401474"><ele>684.3333333333334</ele><time>2026-03-27T11:18:00.841Z</time></trkpt><trkpt lat="40.668726" lon="9.5402035"><ele>685.0</ele><time>2026-03-27T11:18:01.843Z</time></trkpt><trkpt lat="40.6686442" lon="9.5403189"><ele>682.0</ele><time>2026-03-27T11:18:03.844Z</time></trkpt><trkpt lat="40.6685541" lon="9.5404326"><ele>679.0</ele><time>2026-03-27T11:18:05.86Z</time></trkpt><trkpt lat="40.6685002" lon="9.5404916"><ele>676.0</ele><time>2026-03-27T11:18:06.841Z</time></trkpt><trkpt lat="40.6684241" lon="9.540565"><ele>673.0</ele><time>2026-03-27T11:18:08.845Z</time></trkpt><trkpt lat="40.6683637" lon="9.5406152"><ele>670.0</ele><time>2026-03-27T11:18:10.846Z</time></trkpt><trkpt lat="40.6682847" lon="9.5406693"><ele>667.0</ele><time>2026-03-27T11:18:13.841Z</time></trkpt><trkpt lat="40.6682121" lon="9.5407173"><ele>667.0</ele><time>2026-03-27T11:21:27.818Z</time></trkpt><trkpt lat="40.6681419" lon="9.5407826"><ele>667.0</ele><time>2026-03-27T11:21:30.854Z</time></trkpt><trkpt lat="40.668082" lon="9.5408662"><ele>667.0</ele><time>2026-03-27T11:21:33.841Z</time></trkpt><trkpt lat="40.6680117" lon="9.5409371"><ele>667.0</ele><time>2026-03-27T11:21:36.846Z</time></trkpt><trkpt lat="40.6679451" lon="9.5409998"><ele>667.0</ele><time>2026-03-27T11:21:39.842Z</time></trkpt><trkpt lat="40.6678836" lon="9.5410314"><ele>667.0</ele><time>2026-03-27T11:21:41.844Z</time></trkpt><trkpt lat="40.6678109" lon="9.5411052"><ele>666.1666666666667</ele><time>2026-03-27T11:21:44.849Z</time></trkpt><trkpt lat="40.6677667" lon="9.5411804"><ele>665.3333333333334</ele><time>2026-03-27T11:21:46.846Z</time></trkpt><trkpt lat="40.6677042" lon="9.5412358"><ele>664.5</ele><time>2026-03-27T11:21:48.851Z</time></trkpt><trkpt lat="40.6676458" lon="9.54129"><ele>663.6666666666666</ele><time>2026-03-27T11:21:50.847Z</time></trkpt><trkpt lat="40.6675833" lon="9.5413735"><ele>662.8333333333333</ele><time>2026-03-27T11:21:53.845Z</time></trkpt><trkpt lat="40.6675209" lon="9.5414571"><ele>662.0</ele><time>2026-03-27T11:21:56.842Z</time></trkpt><trkpt lat="40.6674498" lon="9.5415339"><ele>659.0</ele><time>2026-03-27T11:21:59.838Z</time></trkpt><trkpt lat="40.6673707" lon="9.5415891"><ele>656.0</ele><time>2026-03-27T11:22:02.843Z</time></trkpt><trkpt lat="40.6672908" lon="9.5415829"><ele>653.0</ele><time>2026-03-27T11:22:29.845Z</time></trkpt><trkpt lat="40.6672003" lon="9.5415755"><ele>650.0</ele><time>2026-03-27T11:22:31.849Z</time></trkpt><trkpt lat="40.6670601" lon="9.5415456"><ele>647.0</ele><time>2026-03-27T11:22:33.841Z</time></trkpt><trkpt lat="40.6669621" lon="9.5415179"><ele>645.4</ele><time>2026-03-27T11:22:34.844Z</time></trkpt><trkpt lat="40.6668731" lon="9.541494"><ele>643.8000000000001</ele><time>2026-03-27T11:22:35.846Z</time></trkpt><trkpt lat="40.6667999" lon="9.5414703"><ele>642.2</ele><time>2026-03-27T11:22:36.844Z</time></trkpt><trkpt lat="40.6667349" lon="9.541446"><ele>640.6</ele><time>2026-03-27T11:22:37.85Z</time></trkpt><trkpt lat="40.666658" lon="9.5413596"><ele>639.0</ele><time>2026-03-27T11:22:39.847Z</time></trkpt><trkpt lat="40.6665775" lon="9.5412206"><ele>641.1666666666666</ele><time>2026-03-27T11:22:41.845Z</time></trkpt><trkpt lat="40.6665218" lon="9.5411476"><ele>643.3333333333334</ele><time>2026-03-27T11:22:42.847Z</time></trkpt><trkpt lat="40.6664584" lon="9.5410769"><ele>645.5</ele><time>2026-03-27T11:22:43.843Z</time></trkpt><trkpt lat="40.6663974" lon="9.5410167"><ele>647.6666666666667</ele><time>2026-03-27T11:22:44.864Z</time></trkpt><trkpt lat="40.6663346" lon="9.5409789"><ele>649.8333333333334</ele><time>2026-03-27T11:22:45.844Z</time></trkpt><trkpt lat="40.6662639" lon="9.5409446"><ele>652.0</ele><time>2026-03-27T11:22:46.846Z</time></trkpt><trkpt lat="40.6661996" lon="9.5409103"><ele>652.0</ele><time>2026-03-27T11:22:47.849Z</time></trkpt><trkpt lat="40.6661377" lon="9.540861"><ele>652.0</ele><time>2026-03-27T11:22:48.853Z</time></trkpt><trkpt lat="40.6660706" lon="9.5407374"><ele>652.0</ele><time>2026-03-27T11:22:50.845Z</time></trkpt><trkpt lat="40.6660155" lon="9.5405944"><ele>652.0</ele><time>2026-03-27T11:22:52.84Z</time></trkpt><trkpt lat="40.6659432" lon="9.5404666"><ele>652.0</ele><time>2026-03-27T11:22:54.851Z</time></trkpt><trkpt lat="40.6658475" lon="9.5403672"><ele>650.0</ele><time>2026-03-27T11:22:56.866Z</time></trkpt><trkpt lat="40.6657488" lon="9.5402849"><ele>648.0</ele><time>2026-03-27T11:22:58.842Z</time></trkpt><trkpt lat="40.6656406" lon="9.5402311"><ele>646.0</ele><time>2026-03-27T11:23:00.842Z</time></trkpt><trkpt lat="40.6655135" lon="9.5401914"><ele>644.0</ele><time>2026-03-27T11:23:02.842Z</time></trkpt><trkpt lat="40.6654309" lon="9.540173"><ele>642.0</ele><time>2026-03-27T11:23:03.843Z</time></trkpt><trkpt lat="40.6653516" lon="9.5401563"><ele>641.6</ele><time>2026-03-27T11:23:04.841Z</time></trkpt><trkpt lat="40.6652698" lon="9.5401705"><ele>641.2</ele><time>2026-03-27T11:23:05.845Z</time></trkpt><trkpt lat="40.6651908" lon="9.5401791"><ele>640.8</ele><time>2026-03-27T11:23:06.841Z</time></trkpt><trkpt lat="40.6651194" lon="9.5401864"><ele>640.4</ele><time>2026-03-27T11:23:07.846Z</time></trkpt><trkpt lat="40.6650009" lon="9.5401475"><ele>640.0</ele><time>2026-03-27T11:23:09.85Z</time></trkpt><trkpt lat="40.6649184" lon="9.540059"><ele>640.0</ele><time>2026-03-27T11:23:11.844Z</time></trkpt><trkpt lat="40.6648593" lon="9.5399486"><ele>640.0</ele><time>2026-03-27T11:23:13.842Z</time></trkpt><trkpt lat="40.6648517" lon="9.5398662"><ele>640.0</ele><time>2026-03-27T11:23:14.838Z</time></trkpt><trkpt lat="40.6648653" lon="9.5397063"><ele>640.0</ele><time>2026-03-27T11:23:16.843Z</time></trkpt><trkpt lat="40.6649042" lon="9.5395415"><ele>640.0</ele><time>2026-03-27T11:23:18.846Z</time></trkpt><trkpt lat="40.6649221" lon="9.5394582"><ele>638.4</ele><time>2026-03-27T11:23:19.845Z</time></trkpt><trkpt lat="40.6649595" lon="9.5393156"><ele>636.8</ele><time>2026-03-27T11:23:21.842Z</time></trkpt><trkpt lat="40.6649957" lon="9.5391878"><ele>635.2</ele><time>2026-03-27T11:23:23.841Z</time></trkpt><trkpt lat="40.6650445" lon="9.5390482"><ele>633.6</ele><time>2026-03-27T11:23:25.845Z</time></trkpt><trkpt lat="40.6650687" lon="9.5389707"><ele>632.0</ele><time>2026-03-27T11:23:26.847Z</time></trkpt><trkpt lat="40.6650964" lon="9.5388824"><ele>632.0</ele><time>2026-03-27T11:23:27.842Z</time></trkpt><trkpt lat="40.6651229" lon="9.5387944"><ele>632.0</ele><time>2026-03-27T11:23:28.846Z</time></trkpt><trkpt lat="40.6651485" lon="9.5387145"><ele>632.0</ele><time>2026-03-27T11:23:29.845Z</time></trkpt><trkpt lat="40.6652341" lon="9.538608"><ele>632.0</ele><time>2026-03-27T11:23:31.837Z</time></trkpt><trkpt lat="40.6653474" lon="9.5385674"><ele>632.0</ele><time>2026-03-27T11:23:33.842Z</time></trkpt><trkpt lat="40.6654692" lon="9.5385379"><ele>630.2857142857143</ele><time>2026-03-27T11:23:35.849Z</time></trkpt><trkpt lat="40.6655345" lon="9.5385094"><ele>628.5714285714286</ele><time>2026-03-27T11:23:36.841Z</time></trkpt><trkpt lat="40.6655965" lon="9.5384834"><ele>626.8571428571429</ele><time>2026-03-27T11:23:37.884Z</time></trkpt><trkpt lat="40.6656543" lon="9.5384482"><ele>625.1428571428571</ele><time>2026-03-27T11:23:38.847Z</time></trkpt><trkpt lat="40.6657162" lon="9.5384037"><ele>623.4285714285714</ele><time>2026-03-27T11:23:39.845Z</time></trkpt><trkpt lat="40.6657717" lon="9.5383626"><ele>621.7142857142858</ele><time>2026-03-27T11:23:40.84Z</time></trkpt><trkpt lat="40.6658163" lon="9.5383028"><ele>620.0</ele><time>2026-03-27T11:23:41.847Z</time></trkpt><trkpt lat="40.6658923" lon="9.5381748"><ele>620.0</ele><time>2026-03-27T11:23:43.848Z</time></trkpt><trkpt lat="40.6659617" lon="9.5380363"><ele>620.0</ele><time>2026-03-27T11:23:45.842Z</time></trkpt><trkpt lat="40.6660258" lon="9.5379113"><ele>620.0</ele><time>2026-03-27T11:23:47.849Z</time></trkpt><trkpt lat="40.6660513" lon="9.5377947"><ele>620.0</ele><time>2026-03-27T11:23:49.863Z</time></trkpt><trkpt lat="40.666021" lon="9.5376911"><ele>620.0</ele><time>2026-03-27T11:23:51.854Z</time></trkpt><trkpt lat="40.6659157" lon="9.5376429"><ele>619.0</ele><time>2026-03-27T11:23:53.844Z</time></trkpt><trkpt lat="40.6658126" lon="9.5375935"><ele>618.0</ele><time>2026-03-27T11:23:55.844Z</time></trkpt><trkpt lat="40.6657494" lon="9.5375338"><ele>617.0</ele><time>2026-03-27T11:23:57.838Z</time></trkpt><trkpt lat="40.6657521" lon="9.5374495"><ele>616.0</ele><time>2026-03-27T11:23:59.843Z</time></trkpt><trkpt lat="40.6658011" lon="9.5373829"><ele>615.0</ele><time>2026-03-27T11:24:01.847Z</time></trkpt><trkpt lat="40.6658863" lon="9.5372823"><ele>614.0</ele><time>2026-03-27T11:24:03.845Z</time></trkpt><trkpt lat="40.6659575" lon="9.5371374"><ele>614.0</ele><time>2026-03-27T11:24:05.837Z</time></trkpt><trkpt lat="40.6659953" lon="9.5370525"><ele>614.0</ele><time>2026-03-27T11:24:06.835Z</time></trkpt><trkpt lat="40.6660326" lon="9.5369626"><ele>614.0</ele><time>2026-03-27T11:24:07.839Z</time></trkpt><trkpt lat="40.6660701" lon="9.5368748"><ele>614.0</ele><time>2026-03-27T11:24:08.838Z</time></trkpt><trkpt lat="40.6661125" lon="9.5367857"><ele>614.0</ele><time>2026-03-27T11:24:09.838Z</time></trkpt><trkpt lat="40.6661606" lon="9.5366959"><ele>614.0</ele><time>2026-03-27T11:24:10.854Z</time></trkpt><trkpt lat="40.6662111" lon="9.5366078"><ele>616.0</ele><time>2026-03-27T11:24:11.842Z</time></trkpt><trkpt lat="40.6662599" lon="9.5365188"><ele>618.0</ele><time>2026-03-27T11:24:12.84Z</time></trkpt><trkpt lat="40.666297" lon="9.5364157"><ele>620.0</ele><time>2026-03-27T11:24:13.843Z</time></trkpt><trkpt lat="40.6663342" lon="9.5363174"><ele>622.0</ele><time>2026-03-27T11:24:14.84Z</time></trkpt><trkpt lat="40.6663888" lon="9.5362259"><ele>624.0</ele><time>2026-03-27T11:24:15.847Z</time></trkpt><trkpt lat="40.6664423" lon="9.5361481"><ele>626.0</ele><time>2026-03-27T11:24:16.841Z</time></trkpt><trkpt lat="40.6664896" lon="9.5360767"><ele>628.1666666666666</ele><time>2026-03-27T11:24:17.844Z</time></trkpt><trkpt lat="40.6665438" lon="9.5359725"><ele>630.3333333333333</ele><time>2026-03-27T11:24:19.849Z</time></trkpt><trkpt lat="40.6665197" lon="9.5358944"><ele>632.5</ele><time>2026-03-27T11:24:21.845Z</time></trkpt><trkpt lat="40.6664298" lon="9.5358647"><ele>634.6666666666666</ele><time>2026-03-27T11:24:23.841Z</time></trkpt><trkpt lat="40.6663668" lon="9.5358783"><ele>636.8333333333334</ele><time>2026-03-27T11:24:24.845Z</time></trkpt><trkpt lat="40.6662954" lon="9.5358972"><ele>639.0</ele><time>2026-03-27T11:24:25.843Z</time></trkpt><trkpt lat="40.6662192" lon="9.5359241"><ele>639.0</ele><time>2026-03-27T11:24:26.838Z</time></trkpt><trkpt lat="40.6661454" lon="9.5359497"><ele>639.0</ele><time>2026-03-27T11:24:27.847Z</time></trkpt><trkpt lat="40.6660707" lon="9.5359683"><ele>639.0</ele><time>2026-03-27T11:24:28.85Z</time></trkpt><trkpt lat="40.6659553" lon="9.535974"><ele>639.0</ele><time>2026-03-27T11:24:30.849Z</time></trkpt><trkpt lat="40.6658791" lon="9.5359522"><ele>639.0</ele><time>2026-03-27T11:24:32.857Z</time></trkpt><trkpt lat="40.665841" lon="9.5358464"><ele>639.0</ele><time>2026-03-27T11:24:35.842Z</time></trkpt><trkpt lat="40.6658708" lon="9.5357469"><ele>640.0</ele><time>2026-03-27T11:24:37.845Z</time></trkpt><trkpt lat="40.6659216" lon="9.5356023"><ele>641.0</ele><time>2026-03-27T11:24:39.845Z</time></trkpt><trkpt lat="40.6659124" lon="9.5354655"><ele>642.0</ele><time>2026-03-27T11:24:41.852Z</time></trkpt><trkpt lat="40.6658517" lon="9.5353112"><ele>643.0</ele><time>2026-03-27T11:24:43.848Z</time></trkpt><trkpt lat="40.6657974" lon="9.5352182"><ele>644.0</ele><time>2026-03-27T11:24:44.846Z</time></trkpt><trkpt lat="40.6657426" lon="9.5351258"><ele>647.6</ele><time>2026-03-27T11:24:45.844Z</time></trkpt><trkpt lat="40.6656906" lon="9.5350304"><ele>651.2</ele><time>2026-03-27T11:24:46.845Z</time></trkpt><trkpt lat="40.6656451" lon="9.534939"><ele>654.8000000000001</ele><time>2026-03-27T11:24:47.865Z</time></trkpt><trkpt lat="40.6656108" lon="9.5348313"><ele>658.4000000000001</ele><time>2026-03-27T11:24:48.848Z</time></trkpt><trkpt lat="40.6655821" lon="9.5347152"><ele>662.0</ele><time>2026-03-27T11:24:49.845Z</time></trkpt><trkpt lat="40.6655503" lon="9.5345891"><ele>664.2</ele><time>2026-03-27T11:24:50.846Z</time></trkpt><trkpt lat="40.6655172" lon="9.534455"><ele>666.4000000000001</ele><time>2026-03-27T11:24:51.838Z</time></trkpt><trkpt lat="40.6654774" lon="9.5343313"><ele>668.5999999999999</ele><time>2026-03-27T11:24:52.846Z</time></trkpt><trkpt lat="40.6654268" lon="9.534221"><ele>670.8</ele><time>2026-03-27T11:24:53.842Z</time></trkpt><trkpt lat="40.6653748" lon="9.5341306"><ele>673.0</ele><time>2026-03-27T11:24:54.85Z</time></trkpt><trkpt lat="40.665323" lon="9.5340514"><ele>672.6666666666667</ele><time>2026-03-27T11:24:55.854Z</time></trkpt><trkpt lat="40.6652751" lon="9.5339699"><ele>672.3333333333334</ele><time>2026-03-27T11:24:56.843Z</time></trkpt><trkpt lat="40.6652374" lon="9.5338922"><ele>672.0</ele><time>2026-03-27T11:24:57.844Z</time></trkpt><trkpt lat="40.6652115" lon="9.5338133"><ele>671.6666666666666</ele><time>2026-03-27T11:24:58.843Z</time></trkpt><trkpt lat="40.6651847" lon="9.5337305"><ele>671.3333333333333</ele><time>2026-03-27T11:24:59.845Z</time></trkpt><trkpt lat="40.6651752" lon="9.5336242"><ele>671.0</ele><time>2026-03-27T11:25:00.847Z</time></trkpt><trkpt lat="40.6651611" lon="9.5334985"><ele>671.0</ele><time>2026-03-27T11:25:01.865Z</time></trkpt><trkpt lat="40.6651362" lon="9.5333586"><ele>671.0</ele><time>2026-03-27T11:25:02.844Z</time></trkpt><trkpt lat="40.6650964" lon="9.5332256"><ele>671.0</ele><time>2026-03-27T11:25:03.843Z</time></trkpt><trkpt lat="40.6650461" lon="9.5331088"><ele>671.0</ele><time>2026-03-27T11:25:04.843Z</time></trkpt><trkpt lat="40.6649887" lon="9.5330003"><ele>671.0</ele><time>2026-03-27T11:25:05.841Z</time></trkpt><trkpt lat="40.6649378" lon="9.532903"><ele>671.8333333333333</ele><time>2026-03-27T11:25:06.839Z</time></trkpt><trkpt lat="40.6648917" lon="9.5328195"><ele>672.6666666666666</ele><time>2026-03-27T11:25:07.85Z</time></trkpt><trkpt lat="40.664846" lon="9.5327357"><ele>673.5</ele><time>2026-03-27T11:25:08.849Z</time></trkpt><trkpt lat="40.6647978" lon="9.5326453"><ele>674.3333333333334</ele><time>2026-03-27T11:25:09.847Z</time></trkpt><trkpt lat="40.6647572" lon="9.5325438"><ele>675.1666666666667</ele><time>2026-03-27T11:25:10.841Z</time></trkpt><trkpt lat="40.6647173" lon="9.5324408"><ele>676.0</ele><time>2026-03-27T11:25:11.84Z</time></trkpt><trkpt lat="40.6646856" lon="9.5323331"><ele>676.0</ele><time>2026-03-27T11:25:12.845Z</time></trkpt><trkpt lat="40.6646576" lon="9.5322072"><ele>676.0</ele><time>2026-03-27T11:25:13.838Z</time></trkpt><trkpt lat="40.6646431" lon="9.5320589"><ele>676.0</ele><time>2026-03-27T11:25:14.837Z</time></trkpt><trkpt lat="40.6646338" lon="9.531921"><ele>676.0</ele><time>2026-03-27T11:25:15.841Z</time></trkpt><trkpt lat="40.6646281" lon="9.5318008"><ele>676.0</ele><time>2026-03-27T11:25:16.839Z</time></trkpt><trkpt lat="40.6646206" lon="9.5316927"><ele>675.8571428571429</ele><time>2026-03-27T11:25:17.861Z</time></trkpt><trkpt lat="40.6646144" lon="9.5315963"><ele>675.7142857142857</ele><time>2026-03-27T11:25:18.844Z</time></trkpt><trkpt lat="40.6646089" lon="9.5315122"><ele>675.5714285714286</ele><time>2026-03-27T11:25:19.841Z</time></trkpt><trkpt lat="40.6646097" lon="9.531398"><ele>675.4285714285714</ele><time>2026-03-27T11:25:21.845Z</time></trkpt><trkpt lat="40.6646276" lon="9.5313049"><ele>675.2857142857143</ele><time>2026-03-27T11:25:36.859Z</time></trkpt><trkpt lat="40.6646244" lon="9.5312165"><ele>675.1428571428571</ele><time>2026-03-27T11:25:39.852Z</time></trkpt><trkpt lat="40.6645509" lon="9.5312115"><ele>675.0</ele><time>2026-03-27T11:25:42.849Z</time></trkpt><trkpt lat="40.6644697" lon="9.5312548"><ele>672.3333333333334</ele><time>2026-03-27T11:25:45.847Z</time></trkpt><trkpt lat="40.6643888" lon="9.5313122"><ele>669.6666666666666</ele><time>2026-03-27T11:25:48.841Z</time></trkpt><trkpt lat="40.6643184" lon="9.5313512"><ele>667.0</ele><time>2026-03-27T11:25:50.845Z</time></trkpt><trkpt lat="40.6642322" lon="9.531384"><ele>664.3333333333333</ele><time>2026-03-27T11:25:52.837Z</time></trkpt><trkpt lat="40.6641208" lon="9.5314241"><ele>661.6666666666666</ele><time>2026-03-27T11:25:54.847Z</time></trkpt><trkpt lat="40.6640527" lon="9.5314452"><ele>659.0</ele><time>2026-03-27T11:25:55.844Z</time></trkpt><trkpt lat="40.6639841" lon="9.5314707"><ele>659.0</ele><time>2026-03-27T11:25:56.846Z</time></trkpt><trkpt lat="40.6639158" lon="9.5314997"><ele>659.0</ele><time>2026-03-27T11:25:57.848Z</time></trkpt><trkpt lat="40.6638477" lon="9.5315261"><ele>659.0</ele><time>2026-03-27T11:25:58.848Z</time></trkpt><trkpt lat="40.6637738" lon="9.5315454"><ele>659.0</ele><time>2026-03-27T11:25:59.841Z</time></trkpt><trkpt lat="40.6636973" lon="9.5315571"><ele>659.0</ele><time>2026-03-27T11:26:00.884Z</time></trkpt><trkpt lat="40.663621" lon="9.5315683"><ele>659.0</ele><time>2026-03-27T11:26:01.843Z</time></trkpt><trkpt lat="40.6635457" lon="9.5315901"><ele>659.0</ele><time>2026-03-27T11:26:02.847Z</time></trkpt><trkpt lat="40.6634699" lon="9.5316209"><ele>658.3333333333333</ele><time>2026-03-27T11:26:03.845Z</time></trkpt><trkpt lat="40.6634039" lon="9.5316495"><ele>657.6666666666666</ele><time>2026-03-27T11:26:04.848Z</time></trkpt><trkpt lat="40.6632892" lon="9.5316752"><ele>657.0</ele><time>2026-03-27T11:26:06.847Z</time></trkpt><trkpt lat="40.6631894" lon="9.531653"><ele>656.3333333333334</ele><time>2026-03-27T11:26:08.846Z</time></trkpt><trkpt lat="40.6631034" lon="9.5316234"><ele>655.6666666666667</ele><time>2026-03-27T11:26:10.845Z</time></trkpt><trkpt lat="40.6630423" lon="9.5316748"><ele>655.0</ele><time>2026-03-27T11:26:13.853Z</time></trkpt><trkpt lat="40.6629872" lon="9.531775"><ele>655.0</ele><time>2026-03-27T11:26:16.851Z</time></trkpt><trkpt lat="40.66297" lon="9.5318943"><ele>655.0</ele><time>2026-03-27T11:26:19.846Z</time></trkpt><trkpt lat="40.6629788" lon="9.5320095"><ele>655.0</ele><time>2026-03-27T11:26:22.842Z</time></trkpt><trkpt lat="40.6629908" lon="9.5321191"><ele>655.0</ele><time>2026-03-27T11:26:25.855Z</time></trkpt><trkpt lat="40.6629997" lon="9.5322135"><ele>655.0</ele><time>2026-03-27T11:26:27.845Z</time></trkpt><trkpt lat="40.6630044" lon="9.5323243"><ele>655.0</ele><time>2026-03-27T11:26:30.847Z</time></trkpt><trkpt lat="40.6629835" lon="9.5324445"><ele>653.6666666666667</ele><time>2026-03-27T11:26:33.847Z</time></trkpt><trkpt lat="40.6629628" lon="9.5325447"><ele>652.3333333333334</ele><time>2026-03-27T11:26:35.843Z</time></trkpt><trkpt lat="40.6629299" lon="9.5326667"><ele>651.0</ele><time>2026-03-27T11:26:37.841Z</time></trkpt><trkpt lat="40.6629039" lon="9.5327666"><ele>649.6666666666666</ele><time>2026-03-27T11:26:39.858Z</time></trkpt><trkpt lat="40.662892" lon="9.5328926"><ele>648.3333333333333</ele><time>2026-03-27T11:26:42.842Z</time></trkpt><trkpt lat="40.6628869" lon="9.5330173"><ele>647.0</ele><time>2026-03-27T11:26:44.847Z</time></trkpt><trkpt lat="40.6628786" lon="9.5331505"><ele>645.3333333333333</ele><time>2026-03-27T11:26:46.845Z</time></trkpt><trkpt lat="40.6628565" lon="9.5332588"><ele>643.6666666666666</ele><time>2026-03-27T11:26:48.845Z</time></trkpt><trkpt lat="40.6628248" lon="9.5333408"><ele>642.0</ele><time>2026-03-27T11:26:50.856Z</time></trkpt><trkpt lat="40.6627843" lon="9.533416"><ele>640.3333333333334</ele><time>2026-03-27T11:26:52.842Z</time></trkpt><trkpt lat="40.6627459" lon="9.5334851"><ele>638.6666666666667</ele><time>2026-03-27T11:26:55.84Z</time></trkpt><trkpt lat="40.6627193" lon="9.5335918"><ele>637.0</ele><time>2026-03-27T11:27:41.844Z</time></trkpt><trkpt lat="40.6626917" lon="9.5337097"><ele>635.0</ele><time>2026-03-27T11:27:43.844Z</time></trkpt><trkpt lat="40.6626695" lon="9.5338072"><ele>633.0</ele><time>2026-03-27T11:27:45.843Z</time></trkpt><trkpt lat="40.6626407" lon="9.5338863"><ele>631.0</ele><time>2026-03-27T11:27:47.851Z</time></trkpt><trkpt lat="40.6626121" lon="9.5340024"><ele>629.0</ele><time>2026-03-27T11:27:50.84Z</time></trkpt><trkpt lat="40.6626051" lon="9.5341007"><ele>627.0</ele><time>2026-03-27T11:27:52.848Z</time></trkpt><trkpt lat="40.6626096" lon="9.5342357"><ele>625.0</ele><time>2026-03-27T11:27:54.853Z</time></trkpt><trkpt lat="40.6626181" lon="9.5343621"><ele>625.0</ele><time>2026-03-27T11:27:56.848Z</time></trkpt><trkpt lat="40.6626206" lon="9.5344977"><ele>625.0</ele><time>2026-03-27T11:27:58.845Z</time></trkpt><trkpt lat="40.6626433" lon="9.5346272"><ele>625.0</ele><time>2026-03-27T11:28:00.845Z</time></trkpt><trkpt lat="40.6626595" lon="9.5347351"><ele>625.0</ele><time>2026-03-27T11:28:02.844Z</time></trkpt><trkpt lat="40.6626645" lon="9.5348358"><ele>625.0</ele><time>2026-03-27T11:28:04.849Z</time></trkpt><trkpt lat="40.662664" lon="9.5349248"><ele>625.0</ele><time>2026-03-27T11:28:06.848Z</time></trkpt><trkpt lat="40.6626599" lon="9.5350145"><ele>623.0</ele><time>2026-03-27T11:28:08.846Z</time></trkpt><trkpt lat="40.6626549" lon="9.5351299"><ele>621.0</ele><time>2026-03-27T11:28:10.856Z</time></trkpt><trkpt lat="40.6626501" lon="9.5352498"><ele>619.0</ele><time>2026-03-27T11:28:12.851Z</time></trkpt><trkpt lat="40.6626543" lon="9.5353472"><ele>617.0</ele><time>2026-03-27T11:28:14.845Z</time></trkpt><trkpt lat="40.6626542" lon="9.5354368"><ele>615.0</ele><time>2026-03-27T11:28:16.848Z</time></trkpt><trkpt lat="40.6626105" lon="9.5355138"><ele>613.0</ele><time>2026-03-27T11:28:18.846Z</time></trkpt><trkpt lat="40.6625559" lon="9.5355814"><ele>612.3333333333334</ele><time>2026-03-27T11:28:20.839Z</time></trkpt><trkpt lat="40.6624994" lon="9.5356437"><ele>611.6666666666667</ele><time>2026-03-27T11:28:22.848Z</time></trkpt><trkpt lat="40.6624475" lon="9.5357161"><ele>611.0</ele><time>2026-03-27T11:28:24.844Z</time></trkpt><trkpt lat="40.6624584" lon="9.5358201"><ele>610.3333333333334</ele><time>2026-03-27T11:28:28.856Z</time></trkpt><trkpt lat="40.6625073" lon="9.5359199"><ele>609.6666666666666</ele><time>2026-03-27T11:28:30.84Z</time></trkpt><trkpt lat="40.6625597" lon="9.5360272"><ele>609.0</ele><time>2026-03-27T11:28:32.839Z</time></trkpt><trkpt lat="40.6626044" lon="9.5361557"><ele>608.6</ele><time>2026-03-27T11:28:34.841Z</time></trkpt><trkpt lat="40.6626389" lon="9.5362981"><ele>608.2</ele><time>2026-03-27T11:28:36.841Z</time></trkpt><trkpt lat="40.662645" lon="9.5364287"><ele>607.8000000000001</ele><time>2026-03-27T11:28:38.847Z</time></trkpt><trkpt lat="40.6626538" lon="9.5365426"><ele>607.4</ele><time>2026-03-27T11:28:40.844Z</time></trkpt><trkpt lat="40.662665" lon="9.5366606"><ele>607.0</ele><time>2026-03-27T11:28:42.843Z</time></trkpt><trkpt lat="40.6626877" lon="9.5367873"><ele>607.0</ele><time>2026-03-27T11:28:44.839Z</time></trkpt><trkpt lat="40.6627081" lon="9.5368963"><ele>607.0</ele><time>2026-03-27T11:28:46.84Z</time></trkpt><trkpt lat="40.6626981" lon="9.5369954"><ele>607.0</ele><time>2026-03-27T11:28:48.846Z</time></trkpt><trkpt lat="40.6626679" lon="9.5370691"><ele>607.0</ele><time>2026-03-27T11:28:50.841Z</time></trkpt><trkpt lat="40.6626176" lon="9.5371226"><ele>607.0</ele><time>2026-03-27T11:28:52.837Z</time></trkpt><trkpt lat="40.6625647" lon="9.5372262"><ele>607.0</ele><time>2026-03-27T11:28:54.841Z</time></trkpt><trkpt lat="40.6625189" lon="9.537312"><ele>604.6666666666667</ele><time>2026-03-27T11:28:56.845Z</time></trkpt><trkpt lat="40.6624795" lon="9.5374045"><ele>602.3333333333334</ele><time>2026-03-27T11:28:58.849Z</time></trkpt><trkpt lat="40.6624353" lon="9.5374863"><ele>600.0</ele><time>2026-03-27T11:29:00.846Z</time></trkpt><trkpt lat="40.6623736" lon="9.5375732"><ele>597.6666666666666</ele><time>2026-03-27T11:29:03.841Z</time></trkpt><trkpt lat="40.6623288" lon="9.5376448"><ele>595.3333333333333</ele><time>2026-03-27T11:29:06.849Z</time></trkpt><trkpt lat="40.662288" lon="9.5377262"><ele>593.0</ele><time>2026-03-27T11:29:40.848Z</time></trkpt><trkpt lat="40.6622712" lon="9.5378351"><ele>592.1666666666666</ele><time>2026-03-27T11:29:43.845Z</time></trkpt><trkpt lat="40.6622647" lon="9.537936"><ele>591.3333333333333</ele><time>2026-03-27T11:29:46.846Z</time></trkpt><trkpt lat="40.6622289" lon="9.5380599"><ele>590.5</ele><time>2026-03-27T11:29:48.841Z</time></trkpt><trkpt lat="40.662191" lon="9.5381313"><ele>589.6666666666666</ele><time>2026-03-27T11:29:50.837Z</time></trkpt><trkpt lat="40.6621637" lon="9.5382441"><ele>588.8333333333334</ele><time>2026-03-27T11:29:54.684Z</time></trkpt><trkpt lat="40.6621523" lon="9.5383444"><ele>588.0</ele><time>2026-03-27T11:29:56.841Z</time></trkpt><trkpt lat="40.6621333" lon="9.5384876"><ele>588.0</ele><time>2026-03-27T11:29:58.84Z</time></trkpt><trkpt lat="40.6621071" lon="9.5385708"><ele>588.0</ele><time>2026-03-27T11:30:00.841Z</time></trkpt><trkpt lat="40.6620884" lon="9.538654"><ele>588.0</ele><time>2026-03-27T11:30:02.841Z</time></trkpt><trkpt lat="40.6620602" lon="9.5387625"><ele>588.0</ele><time>2026-03-27T11:30:24.843Z</time></trkpt><trkpt lat="40.6620334" lon="9.5388517"><ele>588.0</ele><time>2026-03-27T11:30:26.846Z</time></trkpt><trkpt lat="40.6620044" lon="9.5389442"><ele>588.0</ele><time>2026-03-27T11:30:28.848Z</time></trkpt><trkpt lat="40.6620041" lon="9.5390333"><ele>588.0</ele><time>2026-03-27T11:30:30.845Z</time></trkpt><trkpt lat="40.662023" lon="9.5391155"><ele>587.8571428571429</ele><time>2026-03-27T11:30:32.844Z</time></trkpt><trkpt lat="40.6620542" lon="9.5391986"><ele>587.7142857142858</ele><time>2026-03-27T11:30:35.843Z</time></trkpt><trkpt lat="40.6620933" lon="9.5392845"><ele>587.5714285714286</ele><time>2026-03-27T11:31:58.838Z</time></trkpt><trkpt lat="40.6621305" lon="9.5393519"><ele>587.4285714285714</ele><time>2026-03-27T11:32:01.846Z</time></trkpt><trkpt lat="40.6621853" lon="9.5394081"><ele>587.2857142857143</ele><time>2026-03-27T11:33:16.851Z</time></trkpt><trkpt lat="40.6622448" lon="9.5394673"><ele>587.1428571428571</ele><time>2026-03-27T11:36:29.812Z</time></trkpt><trkpt lat="40.6622815" lon="9.5395382"><ele>587.0</ele><time>2026-03-27T11:36:40.845Z</time></trkpt><trkpt lat="40.6622904" lon="9.5396245"><ele>586.3333333333333</ele><time>2026-03-27T11:36:55.846Z</time></trkpt><trkpt lat="40.662321" lon="9.5397288"><ele>585.6666666666666</ele><time>2026-03-27T11:37:00.843Z</time></trkpt><trkpt lat="40.6623526" lon="9.539822"><ele>585.0</ele><time>2026-03-27T11:37:04.841Z</time></trkpt><trkpt lat="40.6623443" lon="9.539908"><ele>584.3333333333334</ele><time>2026-03-27T11:38:06.818Z</time></trkpt><trkpt lat="40.6623347" lon="9.5400429"><ele>583.6666666666667</ele><time>2026-03-27T11:38:08.839Z</time></trkpt><trkpt lat="40.6623269" lon="9.5401528"><ele>583.0</ele><time>2026-03-27T11:38:09.848Z</time></trkpt><trkpt lat="40.662316" lon="9.5402615"><ele>583.0</ele><time>2026-03-27T11:38:10.84Z</time></trkpt><trkpt lat="40.6623021" lon="9.5403681"><ele>583.0</ele><time>2026-03-27T11:38:11.848Z</time></trkpt><trkpt lat="40.6622886" lon="9.5404785"><ele>583.0</ele><time>2026-03-27T11:38:12.845Z</time></trkpt><trkpt lat="40.6622765" lon="9.5405844"><ele>583.0</ele><time>2026-03-27T11:38:13.847Z</time></trkpt><trkpt lat="40.662266" lon="9.5406716"><ele>583.0</ele><time>2026-03-27T11:38:14.839Z</time></trkpt><trkpt lat="40.6622525" lon="9.5408023"><ele>583.0</ele><time>2026-03-27T11:38:16.843Z</time></trkpt><trkpt lat="40.6622493" lon="9.5409209"><ele>583.0</ele><time>2026-03-27T11:38:19.846Z</time></trkpt><trkpt lat="40.6622498" lon="9.5410337"><ele>583.0</ele><time>2026-03-27T11:38:44.849Z</time></trkpt><trkpt lat="40.662226" lon="9.5411317"><ele>583.0</ele><time>2026-03-27T11:38:47.852Z</time></trkpt><trkpt lat="40.6622064" lon="9.5412216"><ele>583.0</ele><time>2026-03-27T11:38:49.849Z</time></trkpt><trkpt lat="40.6621847" lon="9.541323"><ele>583.0</ele><time>2026-03-27T11:38:51.843Z</time></trkpt><trkpt lat="40.6621555" lon="9.5414752"><ele>583.0</ele><time>2026-03-27T11:38:53.851Z</time></trkpt><trkpt lat="40.6621383" lon="9.5415669"><ele>583.1666666666667</ele><time>2026-03-27T11:38:54.871Z</time></trkpt><trkpt lat="40.6621187" lon="9.5416744"><ele>583.3333333333334</ele><time>2026-03-27T11:38:55.842Z</time></trkpt><trkpt lat="40.6620984" lon="9.5417663"><ele>583.5</ele><time>2026-03-27T11:38:56.841Z</time></trkpt><trkpt lat="40.6620829" lon="9.5418472"><ele>583.6666666666666</ele><time>2026-03-27T11:38:57.841Z</time></trkpt><trkpt lat="40.6620972" lon="9.5419875"><ele>583.8333333333333</ele><time>2026-03-27T11:38:59.841Z</time></trkpt><trkpt lat="40.6621476" lon="9.5421059"><ele>584.0</ele><time>2026-03-27T11:39:01.852Z</time></trkpt><trkpt lat="40.6621899" lon="9.5421697"><ele>584.0</ele><time>2026-03-27T11:39:02.85Z</time></trkpt><trkpt lat="40.6622267" lon="9.5422514"><ele>584.0</ele><time>2026-03-27T11:39:03.854Z</time></trkpt><trkpt lat="40.6622685" lon="9.5423357"><ele>584.0</ele><time>2026-03-27T11:39:04.845Z</time></trkpt><trkpt lat="40.6622958" lon="9.5424318"><ele>584.0</ele><time>2026-03-27T11:39:05.847Z</time></trkpt><trkpt lat="40.6623235" lon="9.5425362"><ele>584.0</ele><time>2026-03-27T11:39:06.838Z</time></trkpt><trkpt lat="40.6623393" lon="9.542631"><ele>584.0</ele><time>2026-03-27T11:39:07.839Z</time></trkpt><trkpt lat="40.6623514" lon="9.542739"><ele>584.0</ele><time>2026-03-27T11:39:08.846Z</time></trkpt><trkpt lat="40.6623639" lon="9.5428537"><ele>584.0</ele><time>2026-03-27T11:39:09.842Z</time></trkpt><trkpt lat="40.6623858" lon="9.5429704"><ele>584.0</ele><time>2026-03-27T11:39:10.866Z</time></trkpt><trkpt lat="40.6624171" lon="9.5430692"><ele>584.0</ele><time>2026-03-27T11:39:11.844Z</time></trkpt><trkpt lat="40.6624593" lon="9.5431465"><ele>584.0</ele><time>2026-03-27T11:39:12.842Z</time></trkpt><trkpt lat="40.662508" lon="9.5432377"><ele>584.0</ele><time>2026-03-27T11:39:13.842Z</time></trkpt><trkpt lat="40.662557" lon="9.5433367"><ele>583.3333333333333</ele><time>2026-03-27T11:39:14.837Z</time></trkpt><trkpt lat="40.6626041" lon="9.5434341"><ele>582.6666666666666</ele><time>2026-03-27T11:39:15.837Z</time></trkpt><trkpt lat="40.6626413" lon="9.543528"><ele>582.0</ele><time>2026-03-27T11:39:16.844Z</time></trkpt><trkpt lat="40.6626766" lon="9.5436113"><ele>581.3333333333334</ele><time>2026-03-27T11:39:17.841Z</time></trkpt><trkpt lat="40.6627161" lon="9.5436803"><ele>580.6666666666667</ele><time>2026-03-27T11:39:18.849Z</time></trkpt><trkpt lat="40.6627603" lon="9.5437446"><ele>580.0</ele><time>2026-03-27T11:39:19.843Z</time></trkpt><trkpt lat="40.6628271" lon="9.5438687"><ele>584.4</ele><time>2026-03-27T11:39:21.842Z</time></trkpt><trkpt lat="40.6628614" lon="9.5440345"><ele>588.8</ele><time>2026-03-27T11:39:23.845Z</time></trkpt><trkpt lat="40.6629217" lon="9.5441499"><ele>593.2</ele><time>2026-03-27T11:39:25.847Z</time></trkpt><trkpt lat="40.6629916" lon="9.5441804"><ele>597.6</ele><time>2026-03-27T11:39:27.843Z</time></trkpt><trkpt lat="40.6630607" lon="9.5441239"><ele>602.0</ele><time>2026-03-27T11:39:29.849Z</time></trkpt><trkpt lat="40.6630723" lon="9.5439995"><ele>602.0</ele><time>2026-03-27T11:39:31.847Z</time></trkpt><trkpt lat="40.6630752" lon="9.5439"><ele>602.0</ele><time>2026-03-27T11:39:33.848Z</time></trkpt><trkpt lat="40.6631655" lon="9.5438926"><ele>602.0</ele><time>2026-03-27T11:39:36.844Z</time></trkpt><trkpt lat="40.6632169" lon="9.5439762"><ele>602.0</ele><time>2026-03-27T11:39:38.839Z</time></trkpt><trkpt lat="40.6632767" lon="9.5440981"><ele>602.0</ele><time>2026-03-27T11:39:40.843Z</time></trkpt><trkpt lat="40.6633872" lon="9.5441971"><ele>602.0</ele><time>2026-03-27T11:39:42.846Z</time></trkpt><trkpt lat="40.6634584" lon="9.5442628"><ele>602.0</ele><time>2026-03-27T11:39:43.845Z</time></trkpt><trkpt lat="40.663516" lon="9.544321"><ele>602.0</ele><time>2026-03-27T11:39:44.845Z</time></trkpt><trkpt lat="40.6635874" lon="9.5444466"><ele>602.0</ele><time>2026-03-27T11:39:46.845Z</time></trkpt><trkpt lat="40.6636362" lon="9.5445078"><ele>602.0</ele><time>2026-03-27T11:39:47.84Z</time></trkpt><trkpt lat="40.6636965" lon="9.5445674"><ele>602.0</ele><time>2026-03-27T11:39:48.843Z</time></trkpt><trkpt lat="40.663772" lon="9.5446647"><ele>601.5</ele><time>2026-03-27T11:39:50.845Z</time></trkpt><trkpt lat="40.6638225" lon="9.5445787"><ele>601.0</ele><time>2026-03-27T11:39:55.84Z</time></trkpt><trkpt lat="40.6638038" lon="9.5444744"><ele>600.5</ele><time>2026-03-27T11:39:57.843Z</time></trkpt><trkpt lat="40.663796" lon="9.5443753"><ele>600.0</ele><time>2026-03-27T11:39:59.848Z</time></trkpt><trkpt lat="40.6638455" lon="9.5442787"><ele>599.5</ele><time>2026-03-27T11:40:02.845Z</time></trkpt><trkpt lat="40.6638967" lon="9.5442082"><ele>599.0</ele><time>2026-03-27T11:40:04.842Z</time></trkpt><trkpt lat="40.6639542" lon="9.5440516"><ele>601.6</ele><time>2026-03-27T11:40:06.844Z</time></trkpt><trkpt lat="40.6639879" lon="9.5439799"><ele>604.2</ele><time>2026-03-27T11:40:07.84Z</time></trkpt><trkpt lat="40.6640439" lon="9.5438707"><ele>606.8000000000001</ele><time>2026-03-27T11:40:09.845Z</time></trkpt><trkpt lat="40.6641476" lon="9.5438229"><ele>609.4</ele><time>2026-03-27T11:40:11.844Z</time></trkpt><trkpt lat="40.6642351" lon="9.5438505"><ele>612.0</ele><time>2026-03-27T11:40:13.841Z</time></trkpt><trkpt lat="40.664332" lon="9.5439693"><ele>612.0</ele><time>2026-03-27T11:40:15.842Z</time></trkpt><trkpt lat="40.6643909" lon="9.5440247"><ele>612.0</ele><time>2026-03-27T11:40:16.841Z</time></trkpt><trkpt lat="40.6644465" lon="9.5440745"><ele>612.0</ele><time>2026-03-27T11:40:17.843Z</time></trkpt><trkpt lat="40.6645145" lon="9.5441079"><ele>612.0</ele><time>2026-03-27T11:40:18.852Z</time></trkpt><trkpt lat="40.6645823" lon="9.5441432"><ele>612.0</ele><time>2026-03-27T11:40:19.842Z</time></trkpt><trkpt lat="40.6646452" lon="9.5441805"><ele>612.0</ele><time>2026-03-27T11:40:20.862Z</time></trkpt><trkpt lat="40.6647346" lon="9.544293"><ele>613.8000000000001</ele><time>2026-03-27T11:40:22.844Z</time></trkpt><trkpt lat="40.6648258" lon="9.544325"><ele>615.6</ele><time>2026-03-27T11:40:24.842Z</time></trkpt><trkpt lat="40.6649203" lon="9.5442906"><ele>617.4000000000001</ele><time>2026-03-27T11:40:26.85Z</time></trkpt><trkpt lat="40.6650424" lon="9.5442151"><ele>619.2</ele><time>2026-03-27T11:40:28.851Z</time></trkpt><trkpt lat="40.6651173" lon="9.5441704"><ele>621.0</ele><time>2026-03-27T11:40:29.846Z</time></trkpt><trkpt lat="40.6651904" lon="9.5441284"><ele>621.0</ele><time>2026-03-27T11:40:30.843Z</time></trkpt><trkpt lat="40.665258" lon="9.5440887"><ele>621.0</ele><time>2026-03-27T11:40:31.86Z</time></trkpt><trkpt lat="40.6653646" lon="9.5440295"><ele>621.0</ele><time>2026-03-27T11:40:33.849Z</time></trkpt><trkpt lat="40.6654381" lon="9.5439917"><ele>621.0</ele><time>2026-03-27T11:40:35.842Z</time></trkpt><trkpt lat="40.6655279" lon="9.5439677"><ele>621.0</ele><time>2026-03-27T11:40:38.849Z</time></trkpt><trkpt lat="40.6656047" lon="9.5439345"><ele>621.0</ele><time>2026-03-27T11:40:41.843Z</time></trkpt><trkpt lat="40.6656621" lon="9.5438998"><ele>620.2</ele><time>2026-03-27T11:40:43.841Z</time></trkpt><trkpt lat="40.6657338" lon="9.5438295"><ele>619.4000000000001</ele><time>2026-03-27T11:40:46.841Z</time></trkpt><trkpt lat="40.6658178" lon="9.5437362"><ele>618.6</ele><time>2026-03-27T11:40:49.848Z</time></trkpt><trkpt lat="40.6659005" lon="9.5436043"><ele>617.8000000000001</ele><time>2026-03-27T11:40:51.842Z</time></trkpt><trkpt lat="40.6659401" lon="9.5435165"><ele>617.0</ele><time>2026-03-27T11:40:52.843Z</time></trkpt><trkpt lat="40.6659819" lon="9.5434186"><ele>617.0</ele><time>2026-03-27T11:40:53.84Z</time></trkpt><trkpt lat="40.666025" lon="9.5433223"><ele>617.0</ele><time>2026-03-27T11:40:54.844Z</time></trkpt><trkpt lat="40.6660563" lon="9.54323"><ele>617.0</ele><time>2026-03-27T11:40:55.84Z</time></trkpt><trkpt lat="40.6660761" lon="9.5431423"><ele>617.0</ele><time>2026-03-27T11:40:56.855Z</time></trkpt><trkpt lat="40.6660877" lon="9.5430566"><ele>617.0</ele><time>2026-03-27T11:40:57.84Z</time></trkpt><trkpt lat="40.6661241" lon="9.5429253"><ele>617.0</ele><time>2026-03-27T11:40:59.847Z</time></trkpt><trkpt lat="40.6662144" lon="9.5428312"><ele>617.4</ele><time>2026-03-27T11:41:01.86Z</time></trkpt><trkpt lat="40.6662716" lon="9.5427962"><ele>617.8000000000001</ele><time>2026-03-27T11:41:02.841Z</time></trkpt><trkpt lat="40.6663768" lon="9.5427558"><ele>618.2</ele><time>2026-03-27T11:41:04.843Z</time></trkpt><trkpt lat="40.6664781" lon="9.5427856"><ele>618.6</ele><time>2026-03-27T11:41:06.839Z</time></trkpt><trkpt lat="40.6665721" lon="9.5428382"><ele>619.0</ele><time>2026-03-27T11:41:08.847Z</time></trkpt><trkpt lat="40.6666502" lon="9.5428831"><ele>617.3333333333334</ele><time>2026-03-27T11:41:10.842Z</time></trkpt><trkpt lat="40.6667294" lon="9.542931"><ele>615.6666666666667</ele><time>2026-03-27T11:41:12.839Z</time></trkpt><trkpt lat="40.6668142" lon="9.5429825"><ele>614.0</ele><time>2026-03-27T11:41:14.86Z</time></trkpt><trkpt lat="40.6668754" lon="9.5430096"><ele>612.3333333333334</ele><time>2026-03-27T11:41:15.843Z</time></trkpt><trkpt lat="40.6669478" lon="9.5430411"><ele>610.6666666666666</ele><time>2026-03-27T11:41:16.843Z</time></trkpt><trkpt lat="40.6670333" lon="9.5430761"><ele>609.0</ele><time>2026-03-27T11:41:17.846Z</time></trkpt><trkpt lat="40.6671062" lon="9.5431086"><ele>609.0</ele><time>2026-03-27T11:41:18.842Z</time></trkpt><trkpt lat="40.667166" lon="9.5431355"><ele>609.0</ele><time>2026-03-27T11:41:19.847Z</time></trkpt><trkpt lat="40.6672444" lon="9.5431817"><ele>609.0</ele><time>2026-03-27T11:41:21.845Z</time></trkpt><trkpt lat="40.6673225" lon="9.543258"><ele>609.0</ele><time>2026-03-27T11:41:24.842Z</time></trkpt><trkpt lat="40.6674057" lon="9.543289"><ele>609.0</ele><time>2026-03-27T11:41:26.843Z</time></trkpt><trkpt lat="40.6674947" lon="9.5432867"><ele>609.0</ele><time>2026-03-27T11:41:28.841Z</time></trkpt><trkpt lat="40.6675702" lon="9.5432878"><ele>609.0</ele><time>2026-03-27T11:41:30.841Z</time></trkpt><trkpt lat="40.6676367" lon="9.5433097"><ele>609.0</ele><time>2026-03-27T11:41:32.856Z</time></trkpt><trkpt lat="40.6676974" lon="9.5433823"><ele>609.0</ele><time>2026-03-27T11:41:34.844Z</time></trkpt><trkpt lat="40.6677461" lon="9.5435122"><ele>609.0</ele><time>2026-03-27T11:41:36.843Z</time></trkpt><trkpt lat="40.6678078" lon="9.5436129"><ele>609.0</ele><time>2026-03-27T11:41:38.846Z</time></trkpt><trkpt lat="40.6678943" lon="9.5436793"><ele>610.0</ele><time>2026-03-27T11:41:40.842Z</time></trkpt><trkpt lat="40.6679719" lon="9.543742"><ele>611.0</ele><time>2026-03-27T11:41:42.841Z</time></trkpt><trkpt lat="40.6679751" lon="9.5438495"><ele>612.0</ele><time>2026-03-27T11:41:44.84Z</time></trkpt><trkpt lat="40.6679212" lon="9.5439607"><ele>613.0</ele><time>2026-03-27T11:41:46.838Z</time></trkpt><trkpt lat="40.667865" lon="9.5440806"><ele>614.0</ele><time>2026-03-27T11:41:48.842Z</time></trkpt><trkpt lat="40.6678407" lon="9.5442017"><ele>614.0</ele><time>2026-03-27T11:41:50.84Z</time></trkpt><trkpt lat="40.667847" lon="9.5443142"><ele>614.0</ele><time>2026-03-27T11:41:52.846Z</time></trkpt><trkpt lat="40.6678817" lon="9.5444157"><ele>614.0</ele><time>2026-03-27T11:41:54.846Z</time></trkpt><trkpt lat="40.6679208" lon="9.5444817"><ele>614.0</ele><time>2026-03-27T11:41:56.846Z</time></trkpt><trkpt lat="40.6679892" lon="9.5444778"><ele>614.0</ele><time>2026-03-27T11:41:59.843Z</time></trkpt><trkpt lat="40.6680339" lon="9.5444045"><ele>614.0</ele><time>2026-03-27T11:42:02.841Z</time></trkpt><trkpt lat="40.6681036" lon="9.5443396"><ele>614.0</ele><time>2026-03-27T11:45:31.849Z</time></trkpt><trkpt lat="40.6681757" lon="9.5442855"><ele>614.0</ele><time>2026-03-27T11:45:33.846Z</time></trkpt><trkpt lat="40.6682461" lon="9.5441918"><ele>614.0</ele><time>2026-03-27T11:45:35.845Z</time></trkpt><trkpt lat="40.6683258" lon="9.5441488"><ele>614.0</ele><time>2026-03-27T11:45:37.844Z</time></trkpt><trkpt lat="40.6683832" lon="9.5442082"><ele>614.0</ele><time>2026-03-27T11:45:39.853Z</time></trkpt><trkpt lat="40.668423" lon="9.5443459"><ele>614.0</ele><time>2026-03-27T11:45:41.844Z</time></trkpt><trkpt lat="40.668447" lon="9.5444264"><ele>614.0</ele><time>2026-03-27T11:45:42.843Z</time></trkpt><trkpt lat="40.6684718" lon="9.5445043"><ele>614.0</ele><time>2026-03-27T11:45:43.843Z</time></trkpt><trkpt lat="40.6685308" lon="9.5446231"><ele>614.0</ele><time>2026-03-27T11:45:45.846Z</time></trkpt><trkpt lat="40.6685913" lon="9.5446944"><ele>614.0</ele><time>2026-03-27T11:45:47.841Z</time></trkpt><trkpt lat="40.6686564" lon="9.5446925"><ele>614.0</ele><time>2026-03-27T11:45:49.856Z</time></trkpt><trkpt lat="40.6686994" lon="9.5446157"><ele>616.0</ele><time>2026-03-27T11:45:51.849Z</time></trkpt><trkpt lat="40.6687668" lon="9.5446337"><ele>618.0</ele><time>2026-03-27T11:45:54.842Z</time></trkpt><trkpt lat="40.6688126" lon="9.5447604"><ele>620.0</ele><time>2026-03-27T11:45:56.848Z</time></trkpt><trkpt lat="40.6688685" lon="9.5448829"><ele>622.0</ele><time>2026-03-27T11:45:58.849Z</time></trkpt><trkpt lat="40.6689295" lon="9.5449484"><ele>624.0</ele><time>2026-03-27T11:46:00.852Z</time></trkpt><trkpt lat="40.6689959" lon="9.5449755"><ele>626.0</ele><time>2026-03-27T11:46:02.852Z</time></trkpt><trkpt lat="40.6690642" lon="9.5449678"><ele>626.0</ele><time>2026-03-27T11:46:05.857Z</time></trkpt><trkpt lat="40.6691376" lon="9.5449721"><ele>626.0</ele><time>2026-03-27T11:46:07.857Z</time></trkpt><trkpt lat="40.6692243" lon="9.5450017"><ele>626.0</ele><time>2026-03-27T11:46:09.845Z</time></trkpt><trkpt lat="40.6693021" lon="9.5450392"><ele>626.0</ele><time>2026-03-27T11:46:11.848Z</time></trkpt><trkpt lat="40.6694032" lon="9.5450632"><ele>626.0</ele><time>2026-03-27T11:46:13.844Z</time></trkpt><trkpt lat="40.6694983" lon="9.5450629"><ele>626.0</ele><time>2026-03-27T11:46:15.843Z</time></trkpt><trkpt lat="40.6695853" lon="9.5450571"><ele>626.7142857142857</ele><time>2026-03-27T11:46:17.844Z</time></trkpt><trkpt lat="40.6696814" lon="9.5450824"><ele>627.4285714285714</ele><time>2026-03-27T11:46:19.852Z</time></trkpt><trkpt lat="40.6697356" lon="9.5451285"><ele>628.1428571428571</ele><time>2026-03-27T11:46:20.844Z</time></trkpt><trkpt lat="40.6697928" lon="9.5451824"><ele>628.8571428571429</ele><time>2026-03-27T11:46:21.841Z</time></trkpt><trkpt lat="40.6698588" lon="9.5452275"><ele>629.5714285714286</ele><time>2026-03-27T11:46:22.846Z</time></trkpt><trkpt lat="40.6699194" lon="9.5452706"><ele>630.2857142857143</ele><time>2026-03-27T11:46:23.841Z</time></trkpt><trkpt lat="40.6699842" lon="9.5453104"><ele>631.0</ele><time>2026-03-27T11:46:24.842Z</time></trkpt><trkpt lat="40.6700278" lon="9.5453811"><ele>629.0</ele><time>2026-03-27T11:46:25.838Z</time></trkpt><trkpt lat="40.6700736" lon="9.5454585"><ele>627.0</ele><time>2026-03-27T11:46:26.847Z</time></trkpt><trkpt lat="40.670101" lon="9.5455633"><ele>625.0</ele><time>2026-03-27T11:46:27.852Z</time></trkpt><trkpt lat="40.6701271" lon="9.5456625"><ele>623.0</ele><time>2026-03-27T11:46:28.846Z</time></trkpt><trkpt lat="40.6701521" lon="9.5457566"><ele>621.0</ele><time>2026-03-27T11:46:29.843Z</time></trkpt><trkpt lat="40.6701771" lon="9.5458354"><ele>619.0</ele><time>2026-03-27T11:46:30.842Z</time></trkpt><trkpt lat="40.6702197" lon="9.5459698"><ele>619.0</ele><time>2026-03-27T11:46:32.848Z</time></trkpt><trkpt lat="40.6702562" lon="9.546072"><ele>619.0</ele><time>2026-03-27T11:46:35.879Z</time></trkpt><trkpt lat="40.6702885" lon="9.5461811"><ele>619.0</ele><time>2026-03-27T11:46:38.848Z</time></trkpt><trkpt lat="40.6703174" lon="9.5462592"><ele>619.0</ele><time>2026-03-27T11:46:40.847Z</time></trkpt><trkpt lat="40.6703799" lon="9.5463303"><ele>619.0</ele><time>2026-03-27T11:46:42.843Z</time></trkpt><trkpt lat="40.6704782" lon="9.5464025"><ele>619.0</ele><time>2026-03-27T11:46:44.84Z</time></trkpt><trkpt lat="40.6705384" lon="9.5464278"><ele>617.8333333333334</ele><time>2026-03-27T11:46:45.855Z</time></trkpt><trkpt lat="40.6706043" lon="9.5464456"><ele>616.6666666666667</ele><time>2026-03-27T11:46:46.844Z</time></trkpt><trkpt lat="40.6706729" lon="9.5464527"><ele>615.5</ele><time>2026-03-27T11:46:47.85Z</time></trkpt><trkpt lat="40.6707448" lon="9.5464525"><ele>614.3333333333334</ele><time>2026-03-27T11:46:48.845Z</time></trkpt><trkpt lat="40.6708177" lon="9.5464511"><ele>613.1666666666666</ele><time>2026-03-27T11:46:49.845Z</time></trkpt><trkpt lat="40.6708852" lon="9.5464489"><ele>612.0</ele><time>2026-03-27T11:46:50.84Z</time></trkpt><trkpt lat="40.6709966" lon="9.5464536"><ele>614.8000000000001</ele><time>2026-03-27T11:46:52.841Z</time></trkpt><trkpt lat="40.6711094" lon="9.5464515"><ele>617.6</ele><time>2026-03-27T11:46:54.843Z</time></trkpt><trkpt lat="40.6712272" lon="9.5464132"><ele>620.4000000000001</ele><time>2026-03-27T11:46:56.845Z</time></trkpt><trkpt lat="40.6713144" lon="9.5464077"><ele>623.2</ele><time>2026-03-27T11:46:58.85Z</time></trkpt><trkpt lat="40.6713799" lon="9.5464591"><ele>626.0</ele><time>2026-03-27T11:47:00.849Z</time></trkpt><trkpt lat="40.6713988" lon="9.5465475"><ele>626.0</ele><time>2026-03-27T11:47:02.848Z</time></trkpt><trkpt lat="40.6713543" lon="9.5466514"><ele>626.0</ele><time>2026-03-27T11:47:04.841Z</time></trkpt><trkpt lat="40.6713009" lon="9.5467055"><ele>626.0</ele><time>2026-03-27T11:47:05.848Z</time></trkpt><trkpt lat="40.671228" lon="9.5467853"><ele>626.0</ele><time>2026-03-27T11:47:06.864Z</time></trkpt><trkpt lat="40.6711524" lon="9.5468787"><ele>626.0</ele><time>2026-03-27T11:47:07.851Z</time></trkpt><trkpt lat="40.6710885" lon="9.5469692"><ele>623.5</ele><time>2026-03-27T11:47:08.847Z</time></trkpt><trkpt lat="40.6710366" lon="9.5470457"><ele>621.0</ele><time>2026-03-27T11:47:09.848Z</time></trkpt><trkpt lat="40.6709869" lon="9.5471152"><ele>618.5</ele><time>2026-03-27T11:47:10.847Z</time></trkpt><trkpt lat="40.670941" lon="9.5471854"><ele>616.0</ele><time>2026-03-27T11:47:11.844Z</time></trkpt><trkpt lat="40.6708986" lon="9.547257"><ele>613.5</ele><time>2026-03-27T11:47:12.837Z</time></trkpt><trkpt lat="40.6708583" lon="9.5473265"><ele>611.0</ele><time>2026-03-27T11:47:13.846Z</time></trkpt><trkpt lat="40.6708054" lon="9.5474677"><ele>611.0</ele><time>2026-03-27T11:47:15.845Z</time></trkpt><trkpt lat="40.670778" lon="9.5476179"><ele>611.0</ele><time>2026-03-27T11:47:17.847Z</time></trkpt><trkpt lat="40.6707337" lon="9.5477655"><ele>611.0</ele><time>2026-03-27T11:47:19.842Z</time></trkpt><trkpt lat="40.6707133" lon="9.5478625"><ele>611.0</ele><time>2026-03-27T11:47:20.85Z</time></trkpt><trkpt lat="40.6706954" lon="9.5479725"><ele>611.0</ele><time>2026-03-27T11:47:21.848Z</time></trkpt><trkpt lat="40.6706789" lon="9.5480905"><ele>611.6666666666666</ele><time>2026-03-27T11:47:22.841Z</time></trkpt><trkpt lat="40.6706639" lon="9.5481968"><ele>612.3333333333333</ele><time>2026-03-27T11:47:23.849Z</time></trkpt><trkpt lat="40.6706483" lon="9.5482899"><ele>613.0</ele><time>2026-03-27T11:47:24.847Z</time></trkpt><trkpt lat="40.6706356" lon="9.5483748"><ele>613.6666666666666</ele><time>2026-03-27T11:47:25.851Z</time></trkpt><trkpt lat="40.6706072" lon="9.5485141"><ele>614.3333333333334</ele><time>2026-03-27T11:47:27.848Z</time></trkpt><trkpt lat="40.67056" lon="9.5486062"><ele>615.0</ele><time>2026-03-27T11:47:29.846Z</time></trkpt><trkpt lat="40.6704771" lon="9.5485939"><ele>615.0</ele><time>2026-03-27T11:47:31.855Z</time></trkpt><trkpt lat="40.6703931" lon="9.5484922"><ele>615.0</ele><time>2026-03-27T11:47:33.852Z</time></trkpt><trkpt lat="40.6703467" lon="9.5484192"><ele>615.0</ele><time>2026-03-27T11:47:34.878Z</time></trkpt><trkpt lat="40.6703118" lon="9.5483255"><ele>615.0</ele><time>2026-03-27T11:47:35.846Z</time></trkpt><trkpt lat="40.670281" lon="9.5482381"><ele>615.0</ele><time>2026-03-27T11:47:36.848Z</time></trkpt><trkpt lat="40.6702527" lon="9.548158"><ele>615.0</ele><time>2026-03-27T11:47:37.844Z</time></trkpt><trkpt lat="40.6701865" lon="9.5480273"><ele>613.0</ele><time>2026-03-27T11:47:39.841Z</time></trkpt><trkpt lat="40.6701093" lon="9.5479639"><ele>611.0</ele><time>2026-03-27T11:47:41.849Z</time></trkpt><trkpt lat="40.6700405" lon="9.547979"><ele>609.0</ele><time>2026-03-27T11:47:43.847Z</time></trkpt><trkpt lat="40.6699583" lon="9.5480657"><ele>607.0</ele><time>2026-03-27T11:47:45.846Z</time></trkpt><trkpt lat="40.669899" lon="9.5481341"><ele>605.0</ele><time>2026-03-27T11:47:46.845Z</time></trkpt><trkpt lat="40.6698408" lon="9.5482003"><ele>603.0</ele><time>2026-03-27T11:47:47.852Z</time></trkpt><trkpt lat="40.6697772" lon="9.5482499"><ele>603.0</ele><time>2026-03-27T11:47:48.849Z</time></trkpt><trkpt lat="40.6697168" lon="9.5482783"><ele>603.0</ele><time>2026-03-27T11:47:49.858Z</time></trkpt><trkpt lat="40.6696016" lon="9.5482818"><ele>603.0</ele><time>2026-03-27T11:47:51.844Z</time></trkpt><trkpt lat="40.6694836" lon="9.5482634"><ele>603.0</ele><time>2026-03-27T11:47:53.843Z</time></trkpt><trkpt lat="40.6693951" lon="9.5483139"><ele>603.0</ele><time>2026-03-27T11:47:55.84Z</time></trkpt><trkpt lat="40.6693353" lon="9.548442"><ele>601.5</ele><time>2026-03-27T11:47:57.842Z</time></trkpt><trkpt lat="40.6693018" lon="9.5485288"><ele>600.0</ele><time>2026-03-27T11:47:58.857Z</time></trkpt><trkpt lat="40.6692781" lon="9.5486437"><ele>598.5</ele><time>2026-03-27T11:47:59.853Z</time></trkpt><trkpt lat="40.6692623" lon="9.5487657"><ele>597.0</ele><time>2026-03-27T11:48:00.842Z</time></trkpt><trkpt lat="40.669258" lon="9.5488909"><ele>595.5</ele><time>2026-03-27T11:48:01.843Z</time></trkpt><trkpt lat="40.6692546" lon="9.5490125"><ele>594.0</ele><time>2026-03-27T11:48:02.847Z</time></trkpt><trkpt lat="40.6692526" lon="9.5491229"><ele>594.0</ele><time>2026-03-27T11:48:03.868Z</time></trkpt><trkpt lat="40.6692502" lon="9.5492248"><ele>594.0</ele><time>2026-03-27T11:48:04.848Z</time></trkpt><trkpt lat="40.6692483" lon="9.5493232"><ele>594.0</ele><time>2026-03-27T11:48:05.849Z</time></trkpt><trkpt lat="40.6692463" lon="9.5494181"><ele>594.0</ele><time>2026-03-27T11:48:06.842Z</time></trkpt><trkpt lat="40.6692434" lon="9.5495822"><ele>594.0</ele><time>2026-03-27T11:48:08.856Z</time></trkpt><trkpt lat="40.6692093" lon="9.5496653"><ele>594.0</ele><time>2026-03-27T11:48:09.844Z</time></trkpt><trkpt lat="40.6691566" lon="9.5497452"><ele>595.2</ele><time>2026-03-27T11:48:10.84Z</time></trkpt><trkpt lat="40.6690959" lon="9.5498393"><ele>596.4</ele><time>2026-03-27T11:48:11.848Z</time></trkpt><trkpt lat="40.6690341" lon="9.5499346"><ele>597.6</ele><time>2026-03-27T11:48:12.845Z</time></trkpt><trkpt lat="40.6689926" lon="9.5500516"><ele>598.8</ele><time>2026-03-27T11:48:13.869Z</time></trkpt><trkpt lat="40.668951" lon="9.5501736"><ele>600.0</ele><time>2026-03-27T11:48:14.851Z</time></trkpt><trkpt lat="40.6689127" lon="9.5503159"><ele>602.5</ele><time>2026-03-27T11:48:15.838Z</time></trkpt><trkpt lat="40.6688725" lon="9.5504593"><ele>605.0</ele><time>2026-03-27T11:48:16.842Z</time></trkpt><trkpt lat="40.6688309" lon="9.550608"><ele>607.5</ele><time>2026-03-27T11:48:17.845Z</time></trkpt><trkpt lat="40.6687861" lon="9.5507685"><ele>610.0</ele><time>2026-03-27T11:48:18.838Z</time></trkpt><trkpt lat="40.6687462" lon="9.5509102"><ele>610.0</ele><time>2026-03-27T11:48:19.847Z</time></trkpt><trkpt lat="40.6687089" lon="9.5510427"><ele>610.0</ele><time>2026-03-27T11:48:20.845Z</time></trkpt><trkpt lat="40.668673" lon="9.5511816"><ele>610.0</ele><time>2026-03-27T11:48:21.847Z</time></trkpt><trkpt lat="40.6686507" lon="9.5513061"><ele>610.0</ele><time>2026-03-27T11:48:22.849Z</time></trkpt><trkpt lat="40.6686347" lon="9.5514171"><ele>610.0</ele><time>2026-03-27T11:48:23.846Z</time></trkpt><trkpt lat="40.668622" lon="9.5515252"><ele>610.0</ele><time>2026-03-27T11:48:24.839Z</time></trkpt><trkpt lat="40.6686119" lon="9.5516225"><ele>610.0</ele><time>2026-03-27T11:48:25.859Z</time></trkpt><trkpt lat="40.6686134" lon="9.5517124"><ele>610.0</ele><time>2026-03-27T11:48:26.848Z</time></trkpt><trkpt lat="40.6686322" lon="9.5518494"><ele>610.0</ele><time>2026-03-27T11:48:28.844Z</time></trkpt><trkpt lat="40.6686476" lon="9.5519301"><ele>610.0</ele><time>2026-03-27T11:48:30.842Z</time></trkpt><trkpt lat="40.6686977" lon="9.5520574"><ele>610.0</ele><time>2026-03-27T11:49:04.853Z</time></trkpt><trkpt lat="40.668725" lon="9.5521785"><ele>608.4</ele><time>2026-03-27T11:49:06.851Z</time></trkpt><trkpt lat="40.6687543" lon="9.5523028"><ele>606.8</ele><time>2026-03-27T11:49:08.843Z</time></trkpt><trkpt lat="40.6687845" lon="9.5524318"><ele>605.2</ele><time>2026-03-27T11:49:10.847Z</time></trkpt><trkpt lat="40.6688337" lon="9.5526049"><ele>603.6</ele><time>2026-03-27T11:49:12.838Z</time></trkpt><trkpt lat="40.6688605" lon="9.5527141"><ele>602.0</ele><time>2026-03-27T11:49:13.842Z</time></trkpt><trkpt lat="40.6688932" lon="9.5528197"><ele>600.8333333333333</ele><time>2026-03-27T11:49:14.849Z</time></trkpt><trkpt lat="40.6689205" lon="9.5529167"><ele>599.6666666666666</ele><time>2026-03-27T11:49:15.847Z</time></trkpt><trkpt lat="40.6689505" lon="9.5530062"><ele>598.5</ele><time>2026-03-27T11:49:16.864Z</time></trkpt><trkpt lat="40.6689777" lon="9.5531053"><ele>597.3333333333334</ele><time>2026-03-27T11:49:17.851Z</time></trkpt><trkpt lat="40.6690015" lon="9.5531965"><ele>596.1666666666667</ele><time>2026-03-27T11:49:18.843Z</time></trkpt><trkpt lat="40.6690217" lon="9.5532756"><ele>595.0</ele><time>2026-03-27T11:49:19.852Z</time></trkpt><trkpt lat="40.6690613" lon="9.553401"><ele>595.0</ele><time>2026-03-27T11:49:21.868Z</time></trkpt><trkpt lat="40.669112" lon="9.5535526"><ele>595.0</ele><time>2026-03-27T11:49:23.845Z</time></trkpt><trkpt lat="40.6691612" lon="9.5536644"><ele>595.0</ele><time>2026-03-27T11:49:24.847Z</time></trkpt><trkpt lat="40.6692167" lon="9.5537872"><ele>595.0</ele><time>2026-03-27T11:49:25.848Z</time></trkpt><trkpt lat="40.6692889" lon="9.5539252"><ele>593.75</ele><time>2026-03-27T11:49:26.845Z</time></trkpt><trkpt lat="40.669365" lon="9.5540622"><ele>592.5</ele><time>2026-03-27T11:49:27.843Z</time></trkpt><trkpt lat="40.6694364" lon="9.5541942"><ele>591.25</ele><time>2026-03-27T11:49:28.857Z</time></trkpt><trkpt lat="40.6695067" lon="9.5543248"><ele>590.0</ele><time>2026-03-27T11:49:29.846Z</time></trkpt><trkpt lat="40.6695777" lon="9.5544523"><ele>589.0</ele><time>2026-03-27T11:49:30.85Z</time></trkpt><trkpt lat="40.6696478" lon="9.5545715"><ele>588.0</ele><time>2026-03-27T11:49:31.85Z</time></trkpt><trkpt lat="40.6697135" lon="9.5546686"><ele>587.0</ele><time>2026-03-27T11:49:32.847Z</time></trkpt><trkpt lat="40.6697749" lon="9.5547488"><ele>586.0</ele><time>2026-03-27T11:49:33.849Z</time></trkpt><trkpt lat="40.6698396" lon="9.5548122"><ele>585.0</ele><time>2026-03-27T11:49:34.847Z</time></trkpt><trkpt lat="40.6699001" lon="9.5548399"><ele>584.0</ele><time>2026-03-27T11:49:35.846Z</time></trkpt><trkpt lat="40.6699651" lon="9.5548397"><ele>584.0</ele><time>2026-03-27T11:49:36.849Z</time></trkpt><trkpt lat="40.6700484" lon="9.5548184"><ele>584.0</ele><time>2026-03-27T11:49:37.861Z</time></trkpt><trkpt lat="40.670143" lon="9.5547757"><ele>584.0</ele><time>2026-03-27T11:49:38.841Z</time></trkpt><trkpt lat="40.6702308" lon="9.5547378"><ele>584.0</ele><time>2026-03-27T11:49:39.849Z</time></trkpt><trkpt lat="40.6702956" lon="9.5546926"><ele>584.0</ele><time>2026-03-27T11:49:40.852Z</time></trkpt><trkpt lat="40.6703936" lon="9.5546364"><ele>585.0</ele><time>2026-03-27T11:49:42.843Z</time></trkpt><trkpt lat="40.6704581" lon="9.5546606"><ele>586.0</ele><time>2026-03-27T11:49:44.842Z</time></trkpt><trkpt lat="40.6704839" lon="9.5547947"><ele>587.0</ele><time>2026-03-27T11:49:46.844Z</time></trkpt><trkpt lat="40.670498" lon="9.5549369"><ele>588.0</ele><time>2026-03-27T11:49:47.849Z</time></trkpt><trkpt lat="40.6705131" lon="9.5550771"><ele>589.0</ele><time>2026-03-27T11:49:48.852Z</time></trkpt><trkpt lat="40.6705388" lon="9.5552141"><ele>589.0</ele><time>2026-03-27T11:49:49.852Z</time></trkpt><trkpt lat="40.6705723" lon="9.5553471"><ele>589.0</ele><time>2026-03-27T11:49:50.844Z</time></trkpt><trkpt lat="40.6706044" lon="9.555481"><ele>589.0</ele><time>2026-03-27T11:49:51.843Z</time></trkpt><trkpt lat="40.6706344" lon="9.5556079"><ele>589.0</ele><time>2026-03-27T11:49:52.843Z</time></trkpt><trkpt lat="40.6706598" lon="9.5557242"><ele>589.0</ele><time>2026-03-27T11:49:53.849Z</time></trkpt><trkpt lat="40.6706887" lon="9.5558284"><ele>587.0</ele><time>2026-03-27T11:49:54.845Z</time></trkpt><trkpt lat="40.6707201" lon="9.5559171"><ele>585.0</ele><time>2026-03-27T11:49:55.846Z</time></trkpt><trkpt lat="40.6707564" lon="9.5560173"><ele>583.0</ele><time>2026-03-27T11:49:56.847Z</time></trkpt><trkpt lat="40.6708314" lon="9.5561258"><ele>581.0</ele><time>2026-03-27T11:49:57.848Z</time></trkpt><trkpt lat="40.6709088" lon="9.5562594"><ele>579.0</ele><time>2026-03-27T11:49:58.846Z</time></trkpt><trkpt lat="40.6709801" lon="9.5564177"><ele>578.5</ele><time>2026-03-27T11:49:59.846Z</time></trkpt><trkpt lat="40.6710568" lon="9.5565858"><ele>578.0</ele><time>2026-03-27T11:50:00.849Z</time></trkpt><trkpt lat="40.6711287" lon="9.5567625"><ele>577.5</ele><time>2026-03-27T11:50:01.849Z</time></trkpt><trkpt lat="40.6711941" lon="9.5569261"><ele>577.0</ele><time>2026-03-27T11:50:02.858Z</time></trkpt><trkpt lat="40.6712373" lon="9.5570846"><ele>577.0</ele><time>2026-03-27T11:50:03.848Z</time></trkpt><trkpt lat="40.6712713" lon="9.5572282"><ele>577.0</ele><time>2026-03-27T11:50:04.846Z</time></trkpt><trkpt lat="40.6712988" lon="9.5573362"><ele>577.0</ele><time>2026-03-27T11:50:05.847Z</time></trkpt><trkpt lat="40.6713324" lon="9.5574368"><ele>577.0</ele><time>2026-03-27T11:50:06.844Z</time></trkpt><trkpt lat="40.6713886" lon="9.5575298"><ele>577.0</ele><time>2026-03-27T11:50:07.848Z</time></trkpt><trkpt lat="40.6714743" lon="9.5576368"><ele>577.0</ele><time>2026-03-27T11:50:08.848Z</time></trkpt><trkpt lat="40.6715771" lon="9.5577451"><ele>577.0</ele><time>2026-03-27T11:50:09.84Z</time></trkpt><trkpt lat="40.6716845" lon="9.5578527"><ele>577.0</ele><time>2026-03-27T11:50:10.842Z</time></trkpt><trkpt lat="40.6717948" lon="9.5579381"><ele>577.0</ele><time>2026-03-27T11:50:11.848Z</time></trkpt><trkpt lat="40.6718971" lon="9.5580246"><ele>576.8333333333334</ele><time>2026-03-27T11:50:12.838Z</time></trkpt><trkpt lat="40.6719914" lon="9.5580953"><ele>576.6666666666667</ele><time>2026-03-27T11:50:13.848Z</time></trkpt><trkpt lat="40.6720794" lon="9.558158"><ele>576.5</ele><time>2026-03-27T11:50:14.852Z</time></trkpt><trkpt lat="40.6721454" lon="9.5581953"><ele>576.3333333333334</ele><time>2026-03-27T11:50:15.845Z</time></trkpt><trkpt lat="40.6722126" lon="9.5582099"><ele>576.1666666666666</ele><time>2026-03-27T11:50:16.867Z</time></trkpt><trkpt lat="40.6722854" lon="9.5581904"><ele>576.0</ele><time>2026-03-27T11:50:17.847Z</time></trkpt><trkpt lat="40.672361" lon="9.5581746"><ele>576.0</ele><time>2026-03-27T11:50:18.848Z</time></trkpt><trkpt lat="40.6724269" lon="9.558163"><ele>576.0</ele><time>2026-03-27T11:50:19.85Z</time></trkpt><trkpt lat="40.6724866" lon="9.5582305"><ele>576.0</ele><time>2026-03-27T11:50:21.848Z</time></trkpt><trkpt lat="40.6724875" lon="9.5583984"><ele>576.0</ele><time>2026-03-27T11:50:23.853Z</time></trkpt><trkpt lat="40.6724787" lon="9.5585143"><ele>576.0</ele><time>2026-03-27T11:50:24.862Z</time></trkpt><trkpt lat="40.6724806" lon="9.5586429"><ele>575.5</ele><time>2026-03-27T11:50:25.854Z</time></trkpt><trkpt lat="40.6724809" lon="9.5587502"><ele>575.0</ele><time>2026-03-27T11:50:26.85Z</time></trkpt><trkpt lat="40.6725051" lon="9.5588448"><ele>574.5</ele><time>2026-03-27T11:50:27.846Z</time></trkpt><trkpt lat="40.6725342" lon="9.5589277"><ele>574.0</ele><time>2026-03-27T11:50:28.846Z</time></trkpt><trkpt lat="40.672571" lon="9.5590035"><ele>573.5</ele><time>2026-03-27T11:50:29.85Z</time></trkpt><trkpt lat="40.6726143" lon="9.5591139"><ele>573.0</ele><time>2026-03-27T11:50:31.848Z</time></trkpt><trkpt lat="40.6725459" lon="9.5591995"><ele>573.0</ele><time>2026-03-27T11:50:33.855Z</time></trkpt><trkpt lat="40.6724934" lon="9.5592469"><ele>573.0</ele><time>2026-03-27T11:50:34.85Z</time></trkpt><trkpt lat="40.6724144" lon="9.5592791"><ele>573.0</ele><time>2026-03-27T11:50:35.852Z</time></trkpt><trkpt lat="40.6723167" lon="9.5593073"><ele>573.0</ele><time>2026-03-27T11:50:36.844Z</time></trkpt><trkpt lat="40.6722158" lon="9.5593524"><ele>573.0</ele><time>2026-03-27T11:50:37.85Z</time></trkpt><trkpt lat="40.67213" lon="9.5594109"><ele>573.0</ele><time>2026-03-27T11:50:38.85Z</time></trkpt><trkpt lat="40.6720543" lon="9.5594886"><ele>571.6</ele><time>2026-03-27T11:50:39.842Z</time></trkpt><trkpt lat="40.6719978" lon="9.5595704"><ele>570.1999999999999</ele><time>2026-03-27T11:50:40.85Z</time></trkpt><trkpt lat="40.6719437" lon="9.5596549"><ele>568.8</ele><time>2026-03-27T11:50:41.845Z</time></trkpt><trkpt lat="40.671915" lon="9.5597715"><ele>567.4</ele><time>2026-03-27T11:50:42.848Z</time></trkpt><trkpt lat="40.6718829" lon="9.5599058"><ele>566.0</ele><time>2026-03-27T11:50:43.85Z</time></trkpt><trkpt lat="40.6718533" lon="9.5600387"><ele>566.0</ele><time>2026-03-27T11:50:44.849Z</time></trkpt><trkpt lat="40.6718179" lon="9.5601591"><ele>566.0</ele><time>2026-03-27T11:50:45.845Z</time></trkpt><trkpt lat="40.671775" lon="9.560268"><ele>566.0</ele><time>2026-03-27T11:50:46.849Z</time></trkpt><trkpt lat="40.6717212" lon="9.5603521"><ele>566.0</ele><time>2026-03-27T11:50:47.846Z</time></trkpt><trkpt lat="40.6716759" lon="9.5604559"><ele>566.0</ele><time>2026-03-27T11:50:48.849Z</time></trkpt><trkpt lat="40.6716429" lon="9.5605432"><ele>566.0</ele><time>2026-03-27T11:50:49.847Z</time></trkpt><trkpt lat="40.6716396" lon="9.560635"><ele>566.6</ele><time>2026-03-27T11:50:50.848Z</time></trkpt><trkpt lat="40.6716553" lon="9.5607574"><ele>567.2</ele><time>2026-03-27T11:50:51.843Z</time></trkpt><trkpt lat="40.6716825" lon="9.5608811"><ele>567.8</ele><time>2026-03-27T11:50:52.844Z</time></trkpt><trkpt lat="40.6717197" lon="9.5610115"><ele>568.4</ele><time>2026-03-27T11:50:53.845Z</time></trkpt><trkpt lat="40.671755" lon="9.5611499"><ele>569.0</ele><time>2026-03-27T11:50:54.849Z</time></trkpt><trkpt lat="40.6717871" lon="9.5612972"><ele>569.0</ele><time>2026-03-27T11:50:55.842Z</time></trkpt><trkpt lat="40.6718213" lon="9.5614541"><ele>569.0</ele><time>2026-03-27T11:50:56.841Z</time></trkpt><trkpt lat="40.6718537" lon="9.5616145"><ele>569.0</ele><time>2026-03-27T11:50:57.86Z</time></trkpt><trkpt lat="40.6718794" lon="9.5617661"><ele>569.0</ele><time>2026-03-27T11:50:58.849Z</time></trkpt><trkpt lat="40.6719104" lon="9.5619048"><ele>573.4</ele><time>2026-03-27T11:50:59.848Z</time></trkpt><trkpt lat="40.6719424" lon="9.5620459"><ele>577.8</ele><time>2026-03-27T11:51:00.847Z</time></trkpt><trkpt lat="40.6719833" lon="9.5621752"><ele>582.2</ele><time>2026-03-27T11:51:01.846Z</time></trkpt><trkpt lat="40.6720439" lon="9.5622859"><ele>586.6</ele><time>2026-03-27T11:51:02.849Z</time></trkpt><trkpt lat="40.6721008" lon="9.562379"><ele>591.0</ele><time>2026-03-27T11:51:03.845Z</time></trkpt><trkpt lat="40.6721552" lon="9.5624657"><ele>591.0</ele><time>2026-03-27T11:51:04.848Z</time></trkpt><trkpt lat="40.6722229" lon="9.5625621"><ele>591.0</ele><time>2026-03-27T11:51:06.848Z</time></trkpt><trkpt lat="40.6722923" lon="9.5625143"><ele>591.0</ele><time>2026-03-27T11:51:09.853Z</time></trkpt><trkpt lat="40.6722899" lon="9.5623722"><ele>591.0</ele><time>2026-03-27T11:51:11.846Z</time></trkpt><trkpt lat="40.6722698" lon="9.5622814"><ele>591.0</ele><time>2026-03-27T11:51:12.848Z</time></trkpt><trkpt lat="40.6722421" lon="9.5621708"><ele>591.0</ele><time>2026-03-27T11:51:13.86Z</time></trkpt><trkpt lat="40.67222" lon="9.5620488"><ele>592.0</ele><time>2026-03-27T11:51:14.846Z</time></trkpt><trkpt lat="40.6722153" lon="9.5618865"><ele>593.0</ele><time>2026-03-27T11:51:15.844Z</time></trkpt><trkpt lat="40.6722226" lon="9.5616987"><ele>594.0</ele><time>2026-03-27T11:51:16.841Z</time></trkpt><trkpt lat="40.6722322" lon="9.5615056"><ele>595.0</ele><time>2026-03-27T11:51:17.845Z</time></trkpt><trkpt lat="40.6722404" lon="9.5613314"><ele>594.4</ele><time>2026-03-27T11:51:18.846Z</time></trkpt><trkpt lat="40.6722622" lon="9.5611793"><ele>593.8</ele><time>2026-03-27T11:51:19.843Z</time></trkpt><trkpt lat="40.6722859" lon="9.5610769"><ele>593.2</ele><time>2026-03-27T11:51:20.842Z</time></trkpt><trkpt lat="40.6723092" lon="9.5609631"><ele>592.6</ele><time>2026-03-27T11:51:21.848Z</time></trkpt><trkpt lat="40.6723492" lon="9.5608482"><ele>592.0</ele><time>2026-03-27T11:51:22.845Z</time></trkpt><trkpt lat="40.6724009" lon="9.5607464"><ele>592.0</ele><time>2026-03-27T11:51:23.847Z</time></trkpt><trkpt lat="40.6724499" lon="9.5606533"><ele>592.0</ele><time>2026-03-27T11:51:24.849Z</time></trkpt><trkpt lat="40.672504" lon="9.560568"><ele>592.0</ele><time>2026-03-27T11:51:25.85Z</time></trkpt><trkpt lat="40.6725687" lon="9.5604858"><ele>592.0</ele><time>2026-03-27T11:51:26.845Z</time></trkpt><trkpt lat="40.6726532" lon="9.5604214"><ele>592.0</ele><time>2026-03-27T11:51:27.843Z</time></trkpt><trkpt lat="40.6727316" lon="9.5603664"><ele>592.0</ele><time>2026-03-27T11:51:28.853Z</time></trkpt><trkpt lat="40.6728055" lon="9.5603083"><ele>592.5</ele><time>2026-03-27T11:51:29.841Z</time></trkpt><trkpt lat="40.6728938" lon="9.5602717"><ele>593.0</ele><time>2026-03-27T11:51:30.849Z</time></trkpt><trkpt lat="40.6729781" lon="9.5602395"><ele>593.5</ele><time>2026-03-27T11:51:31.848Z</time></trkpt><trkpt lat="40.6730635" lon="9.5602306"><ele>594.0</ele><time>2026-03-27T11:51:32.849Z</time></trkpt><trkpt lat="40.6731289" lon="9.560228"><ele>594.5</ele><time>2026-03-27T11:51:33.846Z</time></trkpt><trkpt lat="40.6732189" lon="9.5602375"><ele>595.0</ele><time>2026-03-27T11:51:35.85Z</time></trkpt><trkpt lat="40.6732739" lon="9.5603089"><ele>597.8</ele><time>2026-03-27T11:51:37.855Z</time></trkpt><trkpt lat="40.673281" lon="9.5604033"><ele>600.6</ele><time>2026-03-27T11:51:39.85Z</time></trkpt><trkpt lat="40.6732014" lon="9.5605646"><ele>603.4</ele><time>2026-03-27T11:51:41.841Z</time></trkpt><trkpt lat="40.6731451" lon="9.5606736"><ele>606.2</ele><time>2026-03-27T11:51:42.857Z</time></trkpt><trkpt lat="40.6730877" lon="9.5607994"><ele>609.0</ele><time>2026-03-27T11:51:43.846Z</time></trkpt><trkpt lat="40.6730367" lon="9.5609415"><ele>609.0</ele><time>2026-03-27T11:51:44.852Z</time></trkpt><trkpt lat="40.6729887" lon="9.5610974"><ele>609.0</ele><time>2026-03-27T11:51:45.847Z</time></trkpt><trkpt lat="40.6729555" lon="9.5612403"><ele>609.0</ele><time>2026-03-27T11:51:46.846Z</time></trkpt><trkpt lat="40.6729297" lon="9.5613611"><ele>609.0</ele><time>2026-03-27T11:51:47.847Z</time></trkpt><trkpt lat="40.6729145" lon="9.5614532"><ele>609.0</ele><time>2026-03-27T11:51:48.848Z</time></trkpt><trkpt lat="40.6728935" lon="9.5615569"><ele>610.0</ele><time>2026-03-27T11:51:50.852Z</time></trkpt><trkpt lat="40.6729574" lon="9.5615727"><ele>611.0</ele><time>2026-03-27T11:51:53.847Z</time></trkpt><trkpt lat="40.6730335" lon="9.5614799"><ele>612.0</ele><time>2026-03-27T11:51:55.846Z</time></trkpt><trkpt lat="40.6730706" lon="9.5613952"><ele>613.0</ele><time>2026-03-27T11:51:56.85Z</time></trkpt><trkpt lat="40.6731565" lon="9.5612927"><ele>614.0</ele><time>2026-03-27T11:51:58.846Z</time></trkpt><trkpt lat="40.6732139" lon="9.5612566"><ele>615.0</ele><time>2026-03-27T11:51:59.845Z</time></trkpt><trkpt lat="40.6732755" lon="9.5612175"><ele>615.5</ele><time>2026-03-27T11:52:00.844Z</time></trkpt><trkpt lat="40.6733448" lon="9.5611711"><ele>616.0</ele><time>2026-03-27T11:52:01.845Z</time></trkpt><trkpt lat="40.6734172" lon="9.5611119"><ele>616.5</ele><time>2026-03-27T11:52:02.85Z</time></trkpt><trkpt lat="40.6734827" lon="9.56105"><ele>617.0</ele><time>2026-03-27T11:52:03.849Z</time></trkpt><trkpt lat="40.6735396" lon="9.5610023"><ele>617.5</ele><time>2026-03-27T11:52:04.849Z</time></trkpt><trkpt lat="40.6736019" lon="9.5609652"><ele>618.0</ele><time>2026-03-27T11:52:05.85Z</time></trkpt><trkpt lat="40.6736751" lon="9.5609412"><ele>618.0</ele><time>2026-03-27T11:52:06.853Z</time></trkpt><trkpt lat="40.6737615" lon="9.5609392"><ele>618.0</ele><time>2026-03-27T11:52:07.845Z</time></trkpt><trkpt lat="40.6738617" lon="9.5609647"><ele>618.0</ele><time>2026-03-27T11:52:08.853Z</time></trkpt><trkpt lat="40.6739631" lon="9.560994"><ele>618.0</ele><time>2026-03-27T11:52:09.849Z</time></trkpt><trkpt lat="40.6740634" lon="9.5610449"><ele>618.0</ele><time>2026-03-27T11:52:10.847Z</time></trkpt><trkpt lat="40.6741567" lon="9.5611037"><ele>618.0</ele><time>2026-03-27T11:52:11.849Z</time></trkpt><trkpt lat="40.6742431" lon="9.5611542"><ele>618.0</ele><time>2026-03-27T11:52:12.842Z</time></trkpt><trkpt lat="40.6743334" lon="9.5611784"><ele>618.0</ele><time>2026-03-27T11:52:13.843Z</time></trkpt><trkpt lat="40.6744362" lon="9.5611808"><ele>618.0</ele><time>2026-03-27T11:52:14.849Z</time></trkpt><trkpt lat="40.6745214" lon="9.5611772"><ele>618.0</ele><time>2026-03-27T11:52:15.849Z</time></trkpt><trkpt lat="40.674585" lon="9.5611775"><ele>618.0</ele><time>2026-03-27T11:52:16.838Z</time></trkpt><trkpt lat="40.6746346" lon="9.5612723"><ele>619.4</ele><time>2026-03-27T11:52:19.865Z</time></trkpt><trkpt lat="40.6745896" lon="9.5614145"><ele>620.8</ele><time>2026-03-27T11:52:21.853Z</time></trkpt><trkpt lat="40.6745472" lon="9.5615231"><ele>622.2</ele><time>2026-03-27T11:52:22.839Z</time></trkpt><trkpt lat="40.6744939" lon="9.5616503"><ele>623.6</ele><time>2026-03-27T11:52:23.844Z</time></trkpt><trkpt lat="40.6744339" lon="9.5617851"><ele>625.0</ele><time>2026-03-27T11:52:24.843Z</time></trkpt><trkpt lat="40.6743691" lon="9.5619135"><ele>625.0</ele><time>2026-03-27T11:52:25.84Z</time></trkpt><trkpt lat="40.6743076" lon="9.562004"><ele>625.0</ele><time>2026-03-27T11:52:26.865Z</time></trkpt><trkpt lat="40.674233" lon="9.5621162"><ele>625.0</ele><time>2026-03-27T11:52:28.843Z</time></trkpt><trkpt lat="40.6742451" lon="9.5622325"><ele>625.0</ele><time>2026-03-27T11:52:30.841Z</time></trkpt><trkpt lat="40.6743679" lon="9.5623431"><ele>625.0</ele><time>2026-03-27T11:52:32.847Z</time></trkpt><trkpt lat="40.6744609" lon="9.5624047"><ele>627.2</ele><time>2026-03-27T11:52:33.84Z</time></trkpt><trkpt lat="40.6745551" lon="9.5624583"><ele>629.4</ele><time>2026-03-27T11:52:34.847Z</time></trkpt><trkpt lat="40.6746421" lon="9.5624942"><ele>631.6</ele><time>2026-03-27T11:52:35.84Z</time></trkpt><trkpt lat="40.6747084" lon="9.5625159"><ele>633.8</ele><time>2026-03-27T11:52:36.837Z</time></trkpt><trkpt lat="40.6748231" lon="9.5624941"><ele>636.0</ele><time>2026-03-27T11:52:38.838Z</time></trkpt><trkpt lat="40.674896" lon="9.5624401"><ele>636.0</ele><time>2026-03-27T11:52:39.847Z</time></trkpt><trkpt lat="40.6749598" lon="9.5623683"><ele>636.0</ele><time>2026-03-27T11:52:40.845Z</time></trkpt><trkpt lat="40.675031" lon="9.5623018"><ele>636.0</ele><time>2026-03-27T11:52:41.851Z</time></trkpt><trkpt lat="40.6750898" lon="9.562259"><ele>636.0</ele><time>2026-03-27T11:52:42.843Z</time></trkpt><trkpt lat="40.6751938" lon="9.5621853"><ele>636.0</ele><time>2026-03-27T11:52:44.847Z</time></trkpt><trkpt lat="40.6752375" lon="9.5622851"><ele>636.0</ele><time>2026-03-27T11:52:47.85Z</time></trkpt><trkpt lat="40.6752216" lon="9.5624446"><ele>636.0</ele><time>2026-03-27T11:52:49.845Z</time></trkpt><trkpt lat="40.6752327" lon="9.5625499"><ele>636.0</ele><time>2026-03-27T11:52:51.847Z</time></trkpt><trkpt lat="40.6753007" lon="9.5625734"><ele>636.0</ele><time>2026-03-27T11:52:53.853Z</time></trkpt><trkpt lat="40.6754191" lon="9.5624869"><ele>636.0</ele><time>2026-03-27T11:52:55.847Z</time></trkpt><trkpt lat="40.6754763" lon="9.5624335"><ele>636.0</ele><time>2026-03-27T11:52:56.841Z</time></trkpt><trkpt lat="40.6755611" lon="9.5623958"><ele>636.0</ele><time>2026-03-27T11:52:58.846Z</time></trkpt><trkpt lat="40.6756131" lon="9.5624797"><ele>638.1666666666666</ele><time>2026-03-27T11:53:00.864Z</time></trkpt><trkpt lat="40.6756307" lon="9.5626515"><ele>640.3333333333334</ele><time>2026-03-27T11:53:02.85Z</time></trkpt><trkpt lat="40.6756528" lon="9.5627535"><ele>642.5</ele><time>2026-03-27T11:53:03.842Z</time></trkpt><trkpt lat="40.6756777" lon="9.5628435"><ele>644.6666666666667</ele><time>2026-03-27T11:53:04.849Z</time></trkpt><trkpt lat="40.6757214" lon="9.5629104"><ele>646.8333333333334</ele><time>2026-03-27T11:53:05.842Z</time></trkpt><trkpt lat="40.6757866" lon="9.5629697"><ele>649.0</ele><time>2026-03-27T11:53:06.842Z</time></trkpt><trkpt lat="40.6758753" lon="9.5630411"><ele>649.0</ele><time>2026-03-27T11:53:07.846Z</time></trkpt><trkpt lat="40.6759809" lon="9.5631336"><ele>649.0</ele><time>2026-03-27T11:53:08.842Z</time></trkpt><trkpt lat="40.6760901" lon="9.5632319"><ele>649.0</ele><time>2026-03-27T11:53:09.845Z</time></trkpt><trkpt lat="40.6761878" lon="9.5633214"><ele>649.0</ele><time>2026-03-27T11:53:10.847Z</time></trkpt><trkpt lat="40.6762745" lon="9.5633907"><ele>650.6666666666667</ele><time>2026-03-27T11:53:11.841Z</time></trkpt><trkpt lat="40.6763486" lon="9.5634418"><ele>652.3333333333334</ele><time>2026-03-27T11:53:12.842Z</time></trkpt><trkpt lat="40.6764149" lon="9.5634771"><ele>654.0</ele><time>2026-03-27T11:53:13.848Z</time></trkpt><trkpt lat="40.6764916" lon="9.5635069"><ele>655.6666666666666</ele><time>2026-03-27T11:53:14.848Z</time></trkpt><trkpt lat="40.6765622" lon="9.5635288"><ele>657.3333333333333</ele><time>2026-03-27T11:53:15.846Z</time></trkpt><trkpt lat="40.6766411" lon="9.5635504"><ele>659.0</ele><time>2026-03-27T11:53:16.846Z</time></trkpt><trkpt lat="40.6767186" lon="9.5635653"><ele>659.0</ele><time>2026-03-27T11:53:17.846Z</time></trkpt><trkpt lat="40.6767927" lon="9.5635796"><ele>659.0</ele><time>2026-03-27T11:53:18.841Z</time></trkpt><trkpt lat="40.6768597" lon="9.5635802"><ele>659.0</ele><time>2026-03-27T11:53:19.845Z</time></trkpt><trkpt lat="40.6769262" lon="9.5635821"><ele>659.0</ele><time>2026-03-27T11:53:20.849Z</time></trkpt><trkpt lat="40.6770584" lon="9.5635938"><ele>659.0</ele><time>2026-03-27T11:53:22.85Z</time></trkpt><trkpt lat="40.6771245" lon="9.5635954"><ele>659.0</ele><time>2026-03-27T11:53:23.847Z</time></trkpt><trkpt lat="40.6772312" lon="9.5636018"><ele>658.6666666666666</ele><time>2026-03-27T11:53:25.846Z</time></trkpt><trkpt lat="40.6773231" lon="9.5636281"><ele>658.3333333333333</ele><time>2026-03-27T11:53:27.852Z</time></trkpt><trkpt lat="40.6773411" lon="9.5637315"><ele>658.0</ele><time>2026-03-27T11:53:29.845Z</time></trkpt><trkpt lat="40.6773024" lon="9.56381"><ele>657.6666666666666</ele><time>2026-03-27T11:53:30.853Z</time></trkpt><trkpt lat="40.6772203" lon="9.563876"><ele>657.3333333333334</ele><time>2026-03-27T11:53:31.846Z</time></trkpt><trkpt lat="40.6771367" lon="9.5639476"><ele>657.0</ele><time>2026-03-27T11:53:32.848Z</time></trkpt><trkpt lat="40.6770599" lon="9.564022"><ele>654.4285714285714</ele><time>2026-03-27T11:53:33.845Z</time></trkpt><trkpt lat="40.6769955" lon="9.5640689"><ele>651.8571428571429</ele><time>2026-03-27T11:53:34.849Z</time></trkpt><trkpt lat="40.6769395" lon="9.56411"><ele>649.2857142857143</ele><time>2026-03-27T11:53:35.841Z</time></trkpt><trkpt lat="40.6768921" lon="9.5641787"><ele>646.7142857142858</ele><time>2026-03-27T11:53:37.847Z</time></trkpt><trkpt lat="40.6769322" lon="9.5642472"><ele>644.1428571428571</ele><time>2026-03-27T11:53:39.857Z</time></trkpt><trkpt lat="40.6769926" lon="9.5642874"><ele>641.5714285714287</ele><time>2026-03-27T11:53:40.849Z</time></trkpt><trkpt lat="40.6770815" lon="9.5643016"><ele>639.0</ele><time>2026-03-27T11:53:41.848Z</time></trkpt><trkpt lat="40.6771654" lon="9.5643556"><ele>639.0</ele><time>2026-03-27T11:53:42.85Z</time></trkpt><trkpt lat="40.6772355" lon="9.5644056"><ele>639.0</ele><time>2026-03-27T11:53:43.844Z</time></trkpt><trkpt lat="40.6772982" lon="9.5644378"><ele>639.0</ele><time>2026-03-27T11:53:44.847Z</time></trkpt><trkpt lat="40.6774151" lon="9.5644628"><ele>639.0</ele><time>2026-03-27T11:53:46.843Z</time></trkpt><trkpt lat="40.6774993" lon="9.5644362"><ele>639.0</ele><time>2026-03-27T11:53:48.848Z</time></trkpt><trkpt lat="40.6775451" lon="9.5643593"><ele>639.0</ele><time>2026-03-27T11:53:50.849Z</time></trkpt><trkpt lat="40.6775886" lon="9.5642656"><ele>639.0000000000001</ele><time>2026-03-27T11:53:52.847Z</time></trkpt><trkpt lat="40.6776183" lon="9.56419"><ele>639.0</ele><time>2026-03-27T11:53:54.843Z</time></trkpt><trkpt lat="40.6776155" lon="9.5641062"><ele>639.0</ele><time>2026-03-27T11:53:57.849Z</time></trkpt><trkpt lat="40.6776291" lon="9.5640102"><ele>639.0</ele><time>2026-03-27T11:54:01.849Z</time></trkpt><trkpt lat="40.6776559" lon="9.5639244"><ele>639.0</ele><time>2026-03-27T11:54:05.848Z</time></trkpt><trkpt lat="40.6776857" lon="9.5638294"><ele>639.0000000000001</ele><time>2026-03-27T11:54:07.852Z</time></trkpt><trkpt lat="40.6777681" lon="9.5637843"><ele>639.0</ele><time>2026-03-27T11:54:09.858Z</time></trkpt><trkpt lat="40.6778637" lon="9.5638247"><ele>642.0</ele><time>2026-03-27T11:54:11.847Z</time></trkpt><trkpt lat="40.6779535" lon="9.563957"><ele>645.0</ele><time>2026-03-27T11:54:13.851Z</time></trkpt><trkpt lat="40.6779961" lon="9.5640814"><ele>648.0</ele><time>2026-03-27T11:54:14.851Z</time></trkpt><trkpt lat="40.6780329" lon="9.5642185"><ele>651.0</ele><time>2026-03-27T11:54:15.849Z</time></trkpt><trkpt lat="40.6780623" lon="9.5643704"><ele>651.0</ele><time>2026-03-27T11:54:16.854Z</time></trkpt><trkpt lat="40.6780899" lon="9.5645031"><ele>651.0</ele><time>2026-03-27T11:54:17.851Z</time></trkpt><trkpt lat="40.6781294" lon="9.564615"><ele>651.0</ele><time>2026-03-27T11:54:18.876Z</time></trkpt><trkpt lat="40.6781716" lon="9.5647224"><ele>651.0</ele><time>2026-03-27T11:54:19.849Z</time></trkpt><trkpt lat="40.6782449" lon="9.5648158"><ele>651.0</ele><time>2026-03-27T11:54:20.85Z</time></trkpt><trkpt lat="40.6783186" lon="9.5649121"><ele>651.0</ele><time>2026-03-27T11:54:21.846Z</time></trkpt><trkpt lat="40.6784052" lon="9.5650136"><ele>651.0</ele><time>2026-03-27T11:54:22.85Z</time></trkpt><trkpt lat="40.6785013" lon="9.5650985"><ele>651.0</ele><time>2026-03-27T11:54:23.848Z</time></trkpt><trkpt lat="40.6785992" lon="9.5651706"><ele>651.0</ele><time>2026-03-27T11:54:24.855Z</time></trkpt><trkpt lat="40.6786996" lon="9.5652292"><ele>651.0</ele><time>2026-03-27T11:54:25.858Z</time></trkpt><trkpt lat="40.6787866" lon="9.5652845"><ele>651.0</ele><time>2026-03-27T11:54:26.851Z</time></trkpt><trkpt lat="40.6788692" lon="9.5653443"><ele>651.0</ele><time>2026-03-27T11:54:27.85Z</time></trkpt><trkpt lat="40.6789587" lon="9.5653971"><ele>651.0</ele><time>2026-03-27T11:54:28.841Z</time></trkpt><trkpt lat="40.6790455" lon="9.5654429"><ele>651.0</ele><time>2026-03-27T11:54:29.85Z</time></trkpt><trkpt lat="40.6791508" lon="9.5654548"><ele>647.5</ele><time>2026-03-27T11:54:30.848Z</time></trkpt><trkpt lat="40.6792629" lon="9.5654804"><ele>644.0</ele><time>2026-03-27T11:54:31.852Z</time></trkpt><trkpt lat="40.6793725" lon="9.5655138"><ele>640.5</ele><time>2026-03-27T11:54:32.846Z</time></trkpt><trkpt lat="40.6794828" lon="9.5655806"><ele>637.0</ele><time>2026-03-27T11:54:33.842Z</time></trkpt><trkpt lat="40.6795905" lon="9.5656417"><ele>637.0</ele><time>2026-03-27T11:54:34.841Z</time></trkpt><trkpt lat="40.6796904" lon="9.5657001"><ele>637.0</ele><time>2026-03-27T11:54:35.849Z</time></trkpt><trkpt lat="40.6797724" lon="9.5657551"><ele>637.0</ele><time>2026-03-27T11:54:36.838Z</time></trkpt><trkpt lat="40.6798391" lon="9.5658119"><ele>637.0</ele><time>2026-03-27T11:54:37.845Z</time></trkpt><trkpt lat="40.6798991" lon="9.5658825"><ele>637.0</ele><time>2026-03-27T11:54:38.845Z</time></trkpt><trkpt lat="40.6799467" lon="9.5660106"><ele>637.0</ele><time>2026-03-27T11:54:39.849Z</time></trkpt><trkpt lat="40.6799838" lon="9.5661753"><ele>637.0</ele><time>2026-03-27T11:54:40.846Z</time></trkpt><trkpt lat="40.6800277" lon="9.5663302"><ele>637.0</ele><time>2026-03-27T11:54:41.847Z</time></trkpt><trkpt lat="40.680068" lon="9.5664534"><ele>637.0</ele><time>2026-03-27T11:54:42.848Z</time></trkpt><trkpt lat="40.6801153" lon="9.5665464"><ele>637.0</ele><time>2026-03-27T11:54:43.851Z</time></trkpt><trkpt lat="40.6801583" lon="9.5666221"><ele>634.1666666666667</ele><time>2026-03-27T11:54:44.849Z</time></trkpt><trkpt lat="40.6802284" lon="9.5667142"><ele>631.3333333333334</ele><time>2026-03-27T11:54:46.845Z</time></trkpt><trkpt lat="40.6802654" lon="9.5667821"><ele>628.5</ele><time>2026-03-27T11:54:48.847Z</time></trkpt><trkpt lat="40.6802326" lon="9.5668552"><ele>625.6666666666666</ele><time>2026-03-27T11:54:50.849Z</time></trkpt><trkpt lat="40.6801627" lon="9.5668824"><ele>622.8333333333333</ele><time>2026-03-27T11:54:51.843Z</time></trkpt><trkpt lat="40.6801201" lon="9.5669644"><ele>620.0</ele><time>2026-03-27T11:54:53.851Z</time></trkpt><trkpt lat="40.6801536" lon="9.5670558"><ele>620.4</ele><time>2026-03-27T11:54:55.845Z</time></trkpt><trkpt lat="40.6802742" lon="9.5670651"><ele>620.8</ele><time>2026-03-27T11:54:57.844Z</time></trkpt><trkpt lat="40.6803525" lon="9.5670159"><ele>621.2</ele><time>2026-03-27T11:54:58.859Z</time></trkpt><trkpt lat="40.6804466" lon="9.5669738"><ele>621.6</ele><time>2026-03-27T11:54:59.842Z</time></trkpt><trkpt lat="40.6805568" lon="9.5669407"><ele>622.0</ele><time>2026-03-27T11:55:00.85Z</time></trkpt><trkpt lat="40.6806731" lon="9.5668987"><ele>622.0</ele><time>2026-03-27T11:55:01.846Z</time></trkpt><trkpt lat="40.6807845" lon="9.5668341"><ele>622.0</ele><time>2026-03-27T11:55:02.851Z</time></trkpt><trkpt lat="40.6808893" lon="9.5667703"><ele>622.0</ele><time>2026-03-27T11:55:03.845Z</time></trkpt><trkpt lat="40.6809558" lon="9.5667173"><ele>622.0</ele><time>2026-03-27T11:55:04.843Z</time></trkpt><trkpt lat="40.6810692" lon="9.5666832"><ele>622.0</ele><time>2026-03-27T11:55:06.842Z</time></trkpt><trkpt lat="40.6811712" lon="9.5667808"><ele>621.25</ele><time>2026-03-27T11:55:08.841Z</time></trkpt><trkpt lat="40.6812259" lon="9.5668873"><ele>620.5</ele><time>2026-03-27T11:55:09.853Z</time></trkpt><trkpt lat="40.6812889" lon="9.5670007"><ele>619.75</ele><time>2026-03-27T11:55:10.851Z</time></trkpt><trkpt lat="40.6813575" lon="9.5671449"><ele>619.0</ele><time>2026-03-27T11:55:11.847Z</time></trkpt><trkpt lat="40.68144" lon="9.5673"><ele>619.0</ele><time>2026-03-27T11:55:12.858Z</time></trkpt><trkpt lat="40.6815194" lon="9.5674618"><ele>619.0</ele><time>2026-03-27T11:55:13.846Z</time></trkpt><trkpt lat="40.6815933" lon="9.5676241"><ele>619.0</ele><time>2026-03-27T11:55:14.845Z</time></trkpt><trkpt lat="40.681656" lon="9.5677497"><ele>619.0</ele><time>2026-03-27T11:55:15.843Z</time></trkpt><trkpt lat="40.6817193" lon="9.5678727"><ele>618.6</ele><time>2026-03-27T11:55:16.844Z</time></trkpt><trkpt lat="40.6817896" lon="9.5679531"><ele>618.2</ele><time>2026-03-27T11:55:17.866Z</time></trkpt><trkpt lat="40.6818654" lon="9.5680341"><ele>617.8000000000001</ele><time>2026-03-27T11:55:18.844Z</time></trkpt><trkpt lat="40.6819569" lon="9.568092"><ele>617.4</ele><time>2026-03-27T11:55:19.841Z</time></trkpt><trkpt lat="40.6820714" lon="9.5681384"><ele>617.0</ele><time>2026-03-27T11:55:20.845Z</time></trkpt><trkpt lat="40.6821859" lon="9.5681845"><ele>617.0</ele><time>2026-03-27T11:55:21.845Z</time></trkpt><trkpt lat="40.6822874" lon="9.5682039"><ele>617.0</ele><time>2026-03-27T11:55:22.846Z</time></trkpt><trkpt lat="40.682403" lon="9.5682234"><ele>617.0</ele><time>2026-03-27T11:55:23.846Z</time></trkpt><trkpt lat="40.6825407" lon="9.5682153"><ele>617.0</ele><time>2026-03-27T11:55:24.844Z</time></trkpt><trkpt lat="40.6826766" lon="9.5682136"><ele>619.4</ele><time>2026-03-27T11:55:25.841Z</time></trkpt><trkpt lat="40.6827828" lon="9.5682194"><ele>621.8000000000001</ele><time>2026-03-27T11:55:26.856Z</time></trkpt><trkpt lat="40.6828743" lon="9.5682336"><ele>624.2</ele><time>2026-03-27T11:55:27.841Z</time></trkpt><trkpt lat="40.6829577" lon="9.5682718"><ele>626.6</ele><time>2026-03-27T11:55:28.847Z</time></trkpt><trkpt lat="40.6830191" lon="9.5683674"><ele>629.0</ele><time>2026-03-27T11:55:29.846Z</time></trkpt><trkpt lat="40.6830803" lon="9.5684612"><ele>629.0</ele><time>2026-03-27T11:55:30.842Z</time></trkpt><trkpt lat="40.6831232" lon="9.5685796"><ele>629.0</ele><time>2026-03-27T11:55:31.841Z</time></trkpt><trkpt lat="40.6831611" lon="9.5687197"><ele>629.0</ele><time>2026-03-27T11:55:32.846Z</time></trkpt><trkpt lat="40.6832223" lon="9.568864"><ele>629.0</ele><time>2026-03-27T11:55:33.843Z</time></trkpt><trkpt lat="40.6832851" lon="9.5689818"><ele>629.0</ele><time>2026-03-27T11:55:34.854Z</time></trkpt><trkpt lat="40.6833477" lon="9.5690737"><ele>628.5</ele><time>2026-03-27T11:55:35.847Z</time></trkpt><trkpt lat="40.6834147" lon="9.5691448"><ele>628.0</ele><time>2026-03-27T11:55:36.843Z</time></trkpt><trkpt lat="40.6835119" lon="9.569209"><ele>627.5</ele><time>2026-03-27T11:55:37.844Z</time></trkpt><trkpt lat="40.6836264" lon="9.5692718"><ele>627.0</ele><time>2026-03-27T11:55:38.845Z</time></trkpt><trkpt lat="40.6837563" lon="9.5693391"><ele>627.0</ele><time>2026-03-27T11:55:39.846Z</time></trkpt><trkpt lat="40.6838867" lon="9.5693946"><ele>627.0</ele><time>2026-03-27T11:55:40.847Z</time></trkpt><trkpt lat="40.6840092" lon="9.5694415"><ele>627.0</ele><time>2026-03-27T11:55:41.844Z</time></trkpt><trkpt lat="40.6841272" lon="9.569479"><ele>627.0</ele><time>2026-03-27T11:55:42.87Z</time></trkpt><trkpt lat="40.6842372" lon="9.569511"><ele>628.8000000000001</ele><time>2026-03-27T11:55:43.845Z</time></trkpt><trkpt lat="40.6843419" lon="9.5695362"><ele>630.6</ele><time>2026-03-27T11:55:44.842Z</time></trkpt><trkpt lat="40.6844387" lon="9.5695687"><ele>632.4000000000001</ele><time>2026-03-27T11:55:45.841Z</time></trkpt><trkpt lat="40.6845164" lon="9.5696219"><ele>634.2</ele><time>2026-03-27T11:55:46.85Z</time></trkpt><trkpt lat="40.6845719" lon="9.5696854"><ele>636.0</ele><time>2026-03-27T11:55:47.843Z</time></trkpt><trkpt lat="40.6846348" lon="9.5698211"><ele>636.0</ele><time>2026-03-27T11:55:49.845Z</time></trkpt><trkpt lat="40.684653" lon="9.5699361"><ele>636.0</ele><time>2026-03-27T11:55:50.842Z</time></trkpt><trkpt lat="40.684668" lon="9.5700884"><ele>636.0</ele><time>2026-03-27T11:55:51.847Z</time></trkpt><trkpt lat="40.6846814" lon="9.5702691"><ele>636.0</ele><time>2026-03-27T11:55:52.847Z</time></trkpt><trkpt lat="40.6846982" lon="9.5704572"><ele>636.25</ele><time>2026-03-27T11:55:53.847Z</time></trkpt><trkpt lat="40.6847153" lon="9.5706314"><ele>636.5</ele><time>2026-03-27T11:55:54.841Z</time></trkpt><trkpt lat="40.6847315" lon="9.570785"><ele>636.75</ele><time>2026-03-27T11:55:55.859Z</time></trkpt><trkpt lat="40.684748" lon="9.5709343"><ele>637.0</ele><time>2026-03-27T11:55:56.847Z</time></trkpt><trkpt lat="40.684778" lon="9.5710906"><ele>635.5</ele><time>2026-03-27T11:55:57.847Z</time></trkpt><trkpt lat="40.6848356" lon="9.5712567"><ele>634.0</ele><time>2026-03-27T11:55:58.847Z</time></trkpt><trkpt lat="40.684919" lon="9.5714331"><ele>632.5</ele><time>2026-03-27T11:55:59.844Z</time></trkpt><trkpt lat="40.6849848" lon="9.5716096"><ele>631.0</ele><time>2026-03-27T11:56:00.861Z</time></trkpt><trkpt lat="40.6850453" lon="9.5717719"><ele>631.0</ele><time>2026-03-27T11:56:01.843Z</time></trkpt><trkpt lat="40.6851067" lon="9.5719369"><ele>631.0</ele><time>2026-03-27T11:56:02.843Z</time></trkpt><trkpt lat="40.6851506" lon="9.5721063"><ele>631.0</ele><time>2026-03-27T11:56:03.845Z</time></trkpt><trkpt lat="40.685185" lon="9.5722542"><ele>631.0</ele><time>2026-03-27T11:56:04.838Z</time></trkpt><trkpt lat="40.6852006" lon="9.5723945"><ele>630.8</ele><time>2026-03-27T11:56:05.848Z</time></trkpt><trkpt lat="40.6852065" lon="9.5725161"><ele>630.6</ele><time>2026-03-27T11:56:06.846Z</time></trkpt><trkpt lat="40.6851878" lon="9.5726217"><ele>630.4</ele><time>2026-03-27T11:56:07.846Z</time></trkpt><trkpt lat="40.6851691" lon="9.5727389"><ele>630.2</ele><time>2026-03-27T11:56:08.847Z</time></trkpt><trkpt lat="40.6851447" lon="9.5728987"><ele>630.0</ele><time>2026-03-27T11:56:09.842Z</time></trkpt><trkpt lat="40.6850969" lon="9.5730676"><ele>632.5</ele><time>2026-03-27T11:56:10.858Z</time></trkpt><trkpt lat="40.6850362" lon="9.5732258"><ele>635.0</ele><time>2026-03-27T11:56:11.843Z</time></trkpt><trkpt lat="40.6849638" lon="9.5733779"><ele>637.5</ele><time>2026-03-27T11:56:12.85Z</time></trkpt><trkpt lat="40.6849059" lon="9.5734966"><ele>640.0</ele><time>2026-03-27T11:56:13.846Z</time></trkpt><trkpt lat="40.6848763" lon="9.5735854"><ele>640.0</ele><time>2026-03-27T11:56:14.85Z</time></trkpt><trkpt lat="40.6848715" lon="9.57368"><ele>640.0</ele><time>2026-03-27T11:56:15.844Z</time></trkpt><trkpt lat="40.6848918" lon="9.5737922"><ele>640.0</ele><time>2026-03-27T11:56:16.848Z</time></trkpt><trkpt lat="40.6849197" lon="9.5739035"><ele>640.0</ele><time>2026-03-27T11:56:17.845Z</time></trkpt><trkpt lat="40.684946" lon="9.5739848"><ele>640.0</ele><time>2026-03-27T11:56:18.849Z</time></trkpt><trkpt lat="40.6850304" lon="9.5740237"><ele>640.0</ele><time>2026-03-27T11:56:20.847Z</time></trkpt><trkpt lat="40.6850944" lon="9.5739988"><ele>641.0</ele><time>2026-03-27T11:56:21.855Z</time></trkpt><trkpt lat="40.6851602" lon="9.5739369"><ele>642.0</ele><time>2026-03-27T11:56:22.856Z</time></trkpt><trkpt lat="40.6852347" lon="9.5738672"><ele>643.0</ele><time>2026-03-27T11:56:23.847Z</time></trkpt><trkpt lat="40.6853351" lon="9.5737835"><ele>644.0</ele><time>2026-03-27T11:56:24.852Z</time></trkpt><trkpt lat="40.6854383" lon="9.5737064"><ele>645.0</ele><time>2026-03-27T11:56:25.846Z</time></trkpt><trkpt lat="40.6855335" lon="9.5736612"><ele>645.5</ele><time>2026-03-27T11:56:26.85Z</time></trkpt><trkpt lat="40.6856208" lon="9.5736219"><ele>646.0</ele><time>2026-03-27T11:56:27.844Z</time></trkpt><trkpt lat="40.6857249" lon="9.5736136"><ele>646.5</ele><time>2026-03-27T11:56:28.845Z</time></trkpt><trkpt lat="40.6857944" lon="9.5736092"><ele>647.0</ele><time>2026-03-27T11:56:29.862Z</time></trkpt><trkpt lat="40.6858693" lon="9.5736075"><ele>647.5</ele><time>2026-03-27T11:56:31.85Z</time></trkpt><trkpt lat="40.685929" lon="9.5736677"><ele>648.0</ele><time>2026-03-27T11:58:23.846Z</time></trkpt><trkpt lat="40.6859749" lon="9.5737326"><ele>648.0</ele><time>2026-03-27T11:58:25.844Z</time></trkpt><trkpt lat="40.6860154" lon="9.5738342"><ele>648.0</ele><time>2026-03-27T11:58:27.85Z</time></trkpt><trkpt lat="40.6860439" lon="9.5739559"><ele>648.0</ele><time>2026-03-27T11:58:29.846Z</time></trkpt><trkpt lat="40.6860608" lon="9.5740836"><ele>648.0</ele><time>2026-03-27T11:58:31.849Z</time></trkpt><trkpt lat="40.686071" lon="9.5742579"><ele>648.0</ele><time>2026-03-27T11:58:33.844Z</time></trkpt><trkpt lat="40.6860747" lon="9.574354"><ele>648.0</ele><time>2026-03-27T11:58:34.841Z</time></trkpt><trkpt lat="40.6860799" lon="9.5744532"><ele>648.0</ele><time>2026-03-27T11:58:35.845Z</time></trkpt><trkpt lat="40.6860864" lon="9.5745513"><ele>648.0</ele><time>2026-03-27T11:58:36.845Z</time></trkpt><trkpt lat="40.6860888" lon="9.5746472"><ele>648.0</ele><time>2026-03-27T11:58:37.838Z</time></trkpt><trkpt lat="40.6860868" lon="9.5747474"><ele>648.0</ele><time>2026-03-27T11:58:38.844Z</time></trkpt><trkpt lat="40.6860733" lon="9.574863"><ele>648.0</ele><time>2026-03-27T11:58:39.84Z</time></trkpt><trkpt lat="40.6860469" lon="9.5749862"><ele>647.4</ele><time>2026-03-27T11:58:40.847Z</time></trkpt><trkpt lat="40.6860322" lon="9.5751138"><ele>646.8</ele><time>2026-03-27T11:58:41.846Z</time></trkpt><trkpt lat="40.686028" lon="9.5752369"><ele>646.2</ele><time>2026-03-27T11:58:42.839Z</time></trkpt><trkpt lat="40.686021" lon="9.5753609"><ele>645.6</ele><time>2026-03-27T11:58:43.849Z</time></trkpt><trkpt lat="40.6860105" lon="9.5754814"><ele>645.0</ele><time>2026-03-27T11:58:44.848Z</time></trkpt><trkpt lat="40.6859915" lon="9.5755973"><ele>643.0</ele><time>2026-03-27T11:58:45.842Z</time></trkpt><trkpt lat="40.6859691" lon="9.5757112"><ele>641.0</ele><time>2026-03-27T11:58:46.839Z</time></trkpt><trkpt lat="40.6859513" lon="9.5758216"><ele>639.0</ele><time>2026-03-27T11:58:47.838Z</time></trkpt><trkpt lat="40.6859393" lon="9.575938"><ele>637.0</ele><time>2026-03-27T11:58:48.848Z</time></trkpt><trkpt lat="40.6859261" lon="9.5760462"><ele>635.0</ele><time>2026-03-27T11:58:49.844Z</time></trkpt><trkpt lat="40.6859058" lon="9.5761499"><ele>633.0</ele><time>2026-03-27T11:58:50.841Z</time></trkpt><trkpt lat="40.6858684" lon="9.5762524"><ele>631.0</ele><time>2026-03-27T11:58:51.838Z</time></trkpt><trkpt lat="40.685842" lon="9.5763601"><ele>629.0</ele><time>2026-03-27T11:58:52.846Z</time></trkpt><trkpt lat="40.6858306" lon="9.5764597"><ele>627.0</ele><time>2026-03-27T11:58:53.838Z</time></trkpt><trkpt lat="40.6858356" lon="9.5765575"><ele>625.0</ele><time>2026-03-27T11:58:54.846Z</time></trkpt><trkpt lat="40.6858447" lon="9.5766591"><ele>623.0</ele><time>2026-03-27T11:58:55.841Z</time></trkpt><trkpt lat="40.685834" lon="9.5767629"><ele>621.0</ele><time>2026-03-27T11:58:56.839Z</time></trkpt><trkpt lat="40.6858146" lon="9.5768718"><ele>621.0</ele><time>2026-03-27T11:58:57.845Z</time></trkpt><trkpt lat="40.6857889" lon="9.5769791"><ele>621.0</ele><time>2026-03-27T11:58:58.838Z</time></trkpt><trkpt lat="40.6857649" lon="9.5770762"><ele>621.0</ele><time>2026-03-27T11:58:59.839Z</time></trkpt><trkpt lat="40.6857476" lon="9.5771619"><ele>621.0</ele><time>2026-03-27T11:59:00.844Z</time></trkpt><trkpt lat="40.6857423" lon="9.5772716"><ele>621.0</ele><time>2026-03-27T11:59:02.841Z</time></trkpt><trkpt lat="40.6858321" lon="9.5772918"><ele>621.0</ele><time>2026-03-27T11:59:05.848Z</time></trkpt><trkpt lat="40.6858705" lon="9.5771389"><ele>620.5</ele><time>2026-03-27T11:59:07.838Z</time></trkpt><trkpt lat="40.6859036" lon="9.577064"><ele>620.0</ele><time>2026-03-27T11:59:08.843Z</time></trkpt><trkpt lat="40.6859748" lon="9.5770192"><ele>619.5</ele><time>2026-03-27T11:59:10.844Z</time></trkpt><trkpt lat="40.6860303" lon="9.5770605"><ele>619.0</ele><time>2026-03-27T11:59:12.844Z</time></trkpt><trkpt lat="40.6860815" lon="9.5771579"><ele>618.5</ele><time>2026-03-27T11:59:14.841Z</time></trkpt><trkpt lat="40.6861268" lon="9.5772326"><ele>618.0</ele><time>2026-03-27T11:59:15.842Z</time></trkpt><trkpt lat="40.6861869" lon="9.5773222"><ele>618.0</ele><time>2026-03-27T11:59:16.849Z</time></trkpt><trkpt lat="40.6862486" lon="9.5774138"><ele>618.0</ele><time>2026-03-27T11:59:17.837Z</time></trkpt><trkpt lat="40.6862949" lon="9.5775124"><ele>618.0</ele><time>2026-03-27T11:59:18.841Z</time></trkpt><trkpt lat="40.6863244" lon="9.57761"><ele>618.0</ele><time>2026-03-27T11:59:19.85Z</time></trkpt><trkpt lat="40.6863208" lon="9.577698"><ele>618.0</ele><time>2026-03-27T11:59:20.841Z</time></trkpt><trkpt lat="40.6862852" lon="9.5778378"><ele>618.0</ele><time>2026-03-27T11:59:22.845Z</time></trkpt><trkpt lat="40.6862728" lon="9.5779314"><ele>618.8</ele><time>2026-03-27T11:59:23.841Z</time></trkpt><trkpt lat="40.6862567" lon="9.5780374"><ele>619.5999999999999</ele><time>2026-03-27T11:59:24.841Z</time></trkpt><trkpt lat="40.6862489" lon="9.5781723"><ele>620.4000000000001</ele><time>2026-03-27T11:59:25.843Z</time></trkpt><trkpt lat="40.686244" lon="9.5782993"><ele>621.2</ele><time>2026-03-27T11:59:26.844Z</time></trkpt><trkpt lat="40.6862329" lon="9.5784367"><ele>622.0</ele><time>2026-03-27T11:59:27.851Z</time></trkpt><trkpt lat="40.6862156" lon="9.5785754"><ele>624.4</ele><time>2026-03-27T11:59:28.842Z</time></trkpt><trkpt lat="40.6862031" lon="9.5787096"><ele>626.8000000000001</ele><time>2026-03-27T11:59:29.846Z</time></trkpt><trkpt lat="40.6861902" lon="9.5788402"><ele>629.2</ele><time>2026-03-27T11:59:30.847Z</time></trkpt><trkpt lat="40.6861781" lon="9.5789744"><ele>631.6</ele><time>2026-03-27T11:59:31.842Z</time></trkpt><trkpt lat="40.6861685" lon="9.5790907"><ele>634.0</ele><time>2026-03-27T11:59:32.864Z</time></trkpt><trkpt lat="40.6861774" lon="9.5792247"><ele>634.0</ele><time>2026-03-27T11:59:34.846Z</time></trkpt><trkpt lat="40.6862713" lon="9.5792753"><ele>634.0</ele><time>2026-03-27T11:59:37.854Z</time></trkpt><trkpt lat="40.6863994" lon="9.5792357"><ele>634.0</ele><time>2026-03-27T11:59:39.849Z</time></trkpt><trkpt lat="40.686516" lon="9.5792345"><ele>634.0</ele><time>2026-03-27T11:59:41.848Z</time></trkpt><trkpt lat="40.6865735" lon="9.5793867"><ele>635.4</ele><time>2026-03-27T11:59:44.849Z</time></trkpt><trkpt lat="40.6865409" lon="9.5795569"><ele>636.8</ele><time>2026-03-27T11:59:46.85Z</time></trkpt><trkpt lat="40.6865201" lon="9.579666"><ele>638.1999999999999</ele><time>2026-03-27T11:59:47.849Z</time></trkpt><trkpt lat="40.6865074" lon="9.5797966"><ele>639.5999999999999</ele><time>2026-03-27T11:59:48.844Z</time></trkpt><trkpt lat="40.6865036" lon="9.5799421"><ele>641.0</ele><time>2026-03-27T11:59:49.847Z</time></trkpt><trkpt lat="40.6865069" lon="9.5800816"><ele>641.0</ele><time>2026-03-27T11:59:50.849Z</time></trkpt><trkpt lat="40.6865049" lon="9.5802235"><ele>641.0</ele><time>2026-03-27T11:59:51.847Z</time></trkpt><trkpt lat="40.6865029" lon="9.5803626"><ele>641.0</ele><time>2026-03-27T11:59:52.85Z</time></trkpt><trkpt lat="40.6865049" lon="9.5804971"><ele>641.0</ele><time>2026-03-27T11:59:53.849Z</time></trkpt><trkpt lat="40.686517" lon="9.580623"><ele>641.0</ele><time>2026-03-27T11:59:54.853Z</time></trkpt><trkpt lat="40.6865389" lon="9.5807623"><ele>641.1666666666666</ele><time>2026-03-27T11:59:55.847Z</time></trkpt><trkpt lat="40.6865612" lon="9.580897"><ele>641.3333333333333</ele><time>2026-03-27T11:59:56.849Z</time></trkpt><trkpt lat="40.6865748" lon="9.5810096"><ele>641.5</ele><time>2026-03-27T11:59:57.842Z</time></trkpt><trkpt lat="40.6865799" lon="9.5810967"><ele>641.6666666666666</ele><time>2026-03-27T11:59:58.84Z</time></trkpt><trkpt lat="40.6865878" lon="9.5812219"><ele>641.8333333333334</ele><time>2026-03-27T12:00:02.852Z</time></trkpt><trkpt lat="40.6865345" lon="9.5813117"><ele>642.0</ele><time>2026-03-27T12:00:49.847Z</time></trkpt><trkpt lat="40.6864821" lon="9.5813661"><ele>642.0</ele><time>2026-03-27T12:00:51.877Z</time></trkpt><trkpt lat="40.6864345" lon="9.5814313"><ele>642.0</ele><time>2026-03-27T12:00:53.845Z</time></trkpt><trkpt lat="40.6863494" lon="9.5815134"><ele>642.0</ele><time>2026-03-27T12:00:55.846Z</time></trkpt><trkpt lat="40.6862283" lon="9.5815399"><ele>642.0</ele><time>2026-03-27T12:00:57.842Z</time></trkpt><trkpt lat="40.6861605" lon="9.5815408"><ele>642.0</ele><time>2026-03-27T12:00:58.843Z</time></trkpt><trkpt lat="40.6860849" lon="9.5815196"><ele>642.0</ele><time>2026-03-27T12:00:59.842Z</time></trkpt><trkpt lat="40.6860042" lon="9.581496"><ele>639.8333333333334</ele><time>2026-03-27T12:01:00.846Z</time></trkpt><trkpt lat="40.6859185" lon="9.5814629"><ele>637.6666666666666</ele><time>2026-03-27T12:01:01.844Z</time></trkpt><trkpt lat="40.6858352" lon="9.5814279"><ele>635.5</ele><time>2026-03-27T12:01:02.841Z</time></trkpt><trkpt lat="40.685754" lon="9.5814068"><ele>633.3333333333333</ele><time>2026-03-27T12:01:03.842Z</time></trkpt><trkpt lat="40.6856771" lon="9.5814118"><ele>631.1666666666666</ele><time>2026-03-27T12:01:04.845Z</time></trkpt><trkpt lat="40.6856102" lon="9.5814403"><ele>629.0</ele><time>2026-03-27T12:01:05.841Z</time></trkpt><trkpt lat="40.6855415" lon="9.5814626"><ele>629.0</ele><time>2026-03-27T12:01:06.848Z</time></trkpt><trkpt lat="40.6854727" lon="9.5814845"><ele>629.0</ele><time>2026-03-27T12:01:07.841Z</time></trkpt><trkpt lat="40.6853936" lon="9.581464"><ele>629.0</ele><time>2026-03-27T12:01:08.84Z</time></trkpt><trkpt lat="40.6853034" lon="9.5814739"><ele>629.0</ele><time>2026-03-27T12:01:09.84Z</time></trkpt><trkpt lat="40.6852171" lon="9.5815136"><ele>629.0</ele><time>2026-03-27T12:01:10.849Z</time></trkpt><trkpt lat="40.6851332" lon="9.5815532"><ele>629.0</ele><time>2026-03-27T12:01:11.846Z</time></trkpt><trkpt lat="40.6850446" lon="9.5816279"><ele>629.6</ele><time>2026-03-27T12:01:12.841Z</time></trkpt><trkpt lat="40.6849606" lon="9.5817046"><ele>630.2</ele><time>2026-03-27T12:01:13.859Z</time></trkpt><trkpt lat="40.6848831" lon="9.5817825"><ele>630.8000000000001</ele><time>2026-03-27T12:01:14.84Z</time></trkpt><trkpt lat="40.6848191" lon="9.5818689"><ele>631.4</ele><time>2026-03-27T12:01:15.845Z</time></trkpt><trkpt lat="40.6847703" lon="9.581969"><ele>632.0</ele><time>2026-03-27T12:01:16.842Z</time></trkpt><trkpt lat="40.6847208" lon="9.5820727"><ele>626.2</ele><time>2026-03-27T12:01:17.847Z</time></trkpt><trkpt lat="40.6846821" lon="9.5821939"><ele>620.4000000000001</ele><time>2026-03-27T12:01:18.845Z</time></trkpt><trkpt lat="40.6846439" lon="9.5823131"><ele>614.5999999999999</ele><time>2026-03-27T12:01:19.849Z</time></trkpt><trkpt lat="40.6846177" lon="9.5824347"><ele>608.8</ele><time>2026-03-27T12:01:20.843Z</time></trkpt><trkpt lat="40.6846173" lon="9.5825564"><ele>603.0</ele><time>2026-03-27T12:01:21.842Z</time></trkpt><trkpt lat="40.6846399" lon="9.5826857"><ele>603.0</ele><time>2026-03-27T12:01:22.842Z</time></trkpt><trkpt lat="40.6846711" lon="9.5828221"><ele>603.0</ele><time>2026-03-27T12:01:23.846Z</time></trkpt><trkpt lat="40.6847072" lon="9.5829495"><ele>603.0</ele><time>2026-03-27T12:01:24.843Z</time></trkpt><trkpt lat="40.6847431" lon="9.5830688"><ele>603.0</ele><time>2026-03-27T12:01:25.843Z</time></trkpt><trkpt lat="40.684764" lon="9.5831931"><ele>603.0</ele><time>2026-03-27T12:01:26.847Z</time></trkpt><trkpt lat="40.6847661" lon="9.5833296"><ele>599.0</ele><time>2026-03-27T12:01:27.846Z</time></trkpt><trkpt lat="40.6847471" lon="9.5834733"><ele>595.0</ele><time>2026-03-27T12:01:28.841Z</time></trkpt><trkpt lat="40.684714" lon="9.5836163"><ele>591.0</ele><time>2026-03-27T12:01:29.845Z</time></trkpt><trkpt lat="40.6846712" lon="9.5837577"><ele>587.0</ele><time>2026-03-27T12:01:30.843Z</time></trkpt><trkpt lat="40.6846273" lon="9.583903"><ele>588.8000000000001</ele><time>2026-03-27T12:01:31.847Z</time></trkpt><trkpt lat="40.6845813" lon="9.5840287"><ele>590.6</ele><time>2026-03-27T12:01:32.876Z</time></trkpt><trkpt lat="40.6845307" lon="9.5841487"><ele>592.4000000000001</ele><time>2026-03-27T12:01:33.848Z</time></trkpt><trkpt lat="40.6844672" lon="9.5842578"><ele>594.2</ele><time>2026-03-27T12:01:34.846Z</time></trkpt><trkpt lat="40.6843902" lon="9.5843554"><ele>596.0</ele><time>2026-03-27T12:01:35.846Z</time></trkpt><trkpt lat="40.6843096" lon="9.5844439"><ele>590.6</ele><time>2026-03-27T12:01:36.842Z</time></trkpt><trkpt lat="40.6842274" lon="9.5845351"><ele>585.2</ele><time>2026-03-27T12:01:37.843Z</time></trkpt><trkpt lat="40.6841497" lon="9.5846451"><ele>579.8</ele><time>2026-03-27T12:01:38.847Z</time></trkpt><trkpt lat="40.6840802" lon="9.5847514"><ele>574.4</ele><time>2026-03-27T12:01:39.842Z</time></trkpt><trkpt lat="40.6840033" lon="9.5848514"><ele>569.0</ele><time>2026-03-27T12:01:40.863Z</time></trkpt><trkpt lat="40.6839116" lon="9.5849314"><ele>569.0</ele><time>2026-03-27T12:01:41.843Z</time></trkpt><trkpt lat="40.6838231" lon="9.5849929"><ele>569.0</ele><time>2026-03-27T12:01:42.841Z</time></trkpt><trkpt lat="40.6837493" lon="9.5850426"><ele>569.0</ele><time>2026-03-27T12:01:43.849Z</time></trkpt><trkpt lat="40.6836963" lon="9.5850884"><ele>569.0</ele><time>2026-03-27T12:01:44.848Z</time></trkpt><trkpt lat="40.6836767" lon="9.585196"><ele>569.0</ele><time>2026-03-27T12:01:46.854Z</time></trkpt><trkpt lat="40.6837739" lon="9.5852655"><ele>569.0</ele><time>2026-03-27T12:01:48.841Z</time></trkpt><trkpt lat="40.6838444" lon="9.5853113"><ele>565.5</ele><time>2026-03-27T12:01:49.853Z</time></trkpt><trkpt lat="40.6839071" lon="9.5853768"><ele>562.0</ele><time>2026-03-27T12:01:50.852Z</time></trkpt><trkpt lat="40.6839655" lon="9.5854481"><ele>558.5</ele><time>2026-03-27T12:01:51.846Z</time></trkpt><trkpt lat="40.6840229" lon="9.5855135"><ele>555.0</ele><time>2026-03-27T12:01:52.837Z</time></trkpt><trkpt lat="40.6840784" lon="9.5855755"><ele>551.5</ele><time>2026-03-27T12:01:53.843Z</time></trkpt><trkpt lat="40.6841302" lon="9.5856414"><ele>548.0</ele><time>2026-03-27T12:01:54.844Z</time></trkpt><trkpt lat="40.6841806" lon="9.5857065"><ele>548.0</ele><time>2026-03-27T12:01:55.838Z</time></trkpt><trkpt lat="40.6842203" lon="9.5858541"><ele>548.0</ele><time>2026-03-27T12:01:57.844Z</time></trkpt><trkpt lat="40.684148" lon="9.5859779"><ele>548.0</ele><time>2026-03-27T12:01:59.844Z</time></trkpt><trkpt lat="40.6840768" lon="9.5859966"><ele>548.0</ele><time>2026-03-27T12:02:00.846Z</time></trkpt><trkpt lat="40.6840044" lon="9.5860021"><ele>548.0</ele><time>2026-03-27T12:02:01.846Z</time></trkpt><trkpt lat="40.6839427" lon="9.5860191"><ele>548.0</ele><time>2026-03-27T12:02:02.845Z</time></trkpt><trkpt lat="40.6838841" lon="9.5861384"><ele>545.3333333333333</ele><time>2026-03-27T12:02:04.843Z</time></trkpt><trkpt lat="40.6838869" lon="9.5862342"><ele>542.6666666666666</ele><time>2026-03-27T12:02:05.844Z</time></trkpt><trkpt lat="40.6839043" lon="9.5863442"><ele>540.0</ele><time>2026-03-27T12:02:06.851Z</time></trkpt><trkpt lat="40.683932" lon="9.5864549"><ele>537.3333333333334</ele><time>2026-03-27T12:02:07.846Z</time></trkpt><trkpt lat="40.6839706" lon="9.5865623"><ele>534.6666666666667</ele><time>2026-03-27T12:02:08.854Z</time></trkpt><trkpt lat="40.6840194" lon="9.5866681"><ele>532.0</ele><time>2026-03-27T12:02:09.844Z</time></trkpt><trkpt lat="40.684067" lon="9.5867679"><ele>532.0</ele><time>2026-03-27T12:02:10.846Z</time></trkpt><trkpt lat="40.6841175" lon="9.5868507"><ele>532.0</ele><time>2026-03-27T12:02:11.842Z</time></trkpt><trkpt lat="40.6841571" lon="9.5869194"><ele>532.0</ele><time>2026-03-27T12:02:12.846Z</time></trkpt><trkpt lat="40.6842054" lon="9.5870213"><ele>532.0</ele><time>2026-03-27T12:02:14.847Z</time></trkpt><trkpt lat="40.6841495" lon="9.5871008"><ele>532.0</ele><time>2026-03-27T12:02:16.849Z</time></trkpt><trkpt lat="40.6840754" lon="9.5871071"><ele>532.0</ele><time>2026-03-27T12:02:17.844Z</time></trkpt><trkpt lat="40.6839832" lon="9.5870953"><ele>527.2</ele><time>2026-03-27T12:02:18.846Z</time></trkpt><trkpt lat="40.6838849" lon="9.5870797"><ele>522.4000000000001</ele><time>2026-03-27T12:02:19.848Z</time></trkpt><trkpt lat="40.6837869" lon="9.5870641"><ele>517.5999999999999</ele><time>2026-03-27T12:02:20.843Z</time></trkpt><trkpt lat="40.6836895" lon="9.5870517"><ele>512.8</ele><time>2026-03-27T12:02:21.844Z</time></trkpt><trkpt lat="40.6835997" lon="9.58704"><ele>508.0</ele><time>2026-03-27T12:02:22.842Z</time></trkpt><trkpt lat="40.6835257" lon="9.5870194"><ele>508.00000000000006</ele><time>2026-03-27T12:02:23.838Z</time></trkpt><trkpt lat="40.6834594" lon="9.5870019"><ele>508.0</ele><time>2026-03-27T12:02:24.849Z</time></trkpt><trkpt lat="40.6833934" lon="9.5870485"><ele>508.0</ele><time>2026-03-27T12:02:26.847Z</time></trkpt><trkpt lat="40.6834019" lon="9.5871727"><ele>508.0</ele><time>2026-03-27T12:02:28.846Z</time></trkpt><trkpt lat="40.6834499" lon="9.5872572"><ele>508.00000000000006</ele><time>2026-03-27T12:02:29.857Z</time></trkpt><trkpt lat="40.6835409" lon="9.5873332"><ele>508.0</ele><time>2026-03-27T12:02:30.84Z</time></trkpt><trkpt lat="40.6836254" lon="9.5874193"><ele>508.0</ele><time>2026-03-27T12:02:31.849Z</time></trkpt><trkpt lat="40.6837022" lon="9.5875121"><ele>507.99999999999994</ele><time>2026-03-27T12:02:32.848Z</time></trkpt><trkpt lat="40.6837706" lon="9.5876157"><ele>507.99999999999994</ele><time>2026-03-27T12:02:33.847Z</time></trkpt><trkpt lat="40.6838317" lon="9.5877242"><ele>508.0</ele><time>2026-03-27T12:02:34.854Z</time></trkpt><trkpt lat="40.6838944" lon="9.5878337"><ele>508.0</ele><time>2026-03-27T12:02:35.845Z</time></trkpt><trkpt lat="40.6839543" lon="9.5879268"><ele>502.6666666666667</ele><time>2026-03-27T12:02:36.842Z</time></trkpt><trkpt lat="40.6840074" lon="9.5880089"><ele>497.33333333333337</ele><time>2026-03-27T12:02:37.848Z</time></trkpt><trkpt lat="40.6840868" lon="9.5881155"><ele>492.0</ele><time>2026-03-27T12:02:39.85Z</time></trkpt><trkpt lat="40.6840472" lon="9.5881923"><ele>486.66666666666663</ele><time>2026-03-27T12:02:42.843Z</time></trkpt><trkpt lat="40.6839402" lon="9.588171"><ele>481.3333333333333</ele><time>2026-03-27T12:02:44.848Z</time></trkpt><trkpt lat="40.6838745" lon="9.5881379"><ele>476.0</ele><time>2026-03-27T12:02:45.859Z</time></trkpt><trkpt lat="40.6838069" lon="9.5881102"><ele>475.99999999999994</ele><time>2026-03-27T12:02:46.841Z</time></trkpt><trkpt lat="40.6837362" lon="9.5880838"><ele>476.0</ele><time>2026-03-27T12:02:47.846Z</time></trkpt><trkpt lat="40.6836709" lon="9.5880612"><ele>476.0</ele><time>2026-03-27T12:02:48.845Z</time></trkpt><trkpt lat="40.6835645" lon="9.5880181"><ele>476.0</ele><time>2026-03-27T12:02:50.844Z</time></trkpt><trkpt lat="40.6835123" lon="9.5880889"><ele>475.99999999999994</ele><time>2026-03-27T12:02:53.856Z</time></trkpt><trkpt lat="40.683581" lon="9.588215"><ele>476.0</ele><time>2026-03-27T12:02:55.847Z</time></trkpt><trkpt lat="40.6836347" lon="9.5882868"><ele>475.99999999999994</ele><time>2026-03-27T12:02:56.853Z</time></trkpt><trkpt lat="40.6836764" lon="9.5883877"><ele>476.0</ele><time>2026-03-27T12:02:57.846Z</time></trkpt><trkpt lat="40.683718" lon="9.5884923"><ele>476.0</ele><time>2026-03-27T12:02:58.848Z</time></trkpt><trkpt lat="40.6837614" lon="9.588585"><ele>476.0</ele><time>2026-03-27T12:02:59.847Z</time></trkpt><trkpt lat="40.6838044" lon="9.5886642"><ele>475.99999999999994</ele><time>2026-03-27T12:03:00.851Z</time></trkpt><trkpt lat="40.6838434" lon="9.5887325"><ele>476.0</ele><time>2026-03-27T12:03:01.846Z</time></trkpt><trkpt lat="40.6838579" lon="9.5888396"><ele>473.8333333333333</ele><time>2026-03-27T12:03:03.846Z</time></trkpt><trkpt lat="40.6837808" lon="9.5888899"><ele>471.66666666666663</ele><time>2026-03-27T12:03:05.848Z</time></trkpt><trkpt lat="40.683724" lon="9.5888427"><ele>469.5</ele><time>2026-03-27T12:03:06.847Z</time></trkpt><trkpt lat="40.6836591" lon="9.5887771"><ele>467.33333333333337</ele><time>2026-03-27T12:03:07.849Z</time></trkpt><trkpt lat="40.6835979" lon="9.5887132"><ele>465.1666666666667</ele><time>2026-03-27T12:03:08.843Z</time></trkpt><trkpt lat="40.6835386" lon="9.5886535"><ele>463.0</ele><time>2026-03-27T12:03:09.844Z</time></trkpt><trkpt lat="40.6834549" lon="9.5886375"><ele>458.50000000000006</ele><time>2026-03-27T12:03:11.847Z</time></trkpt><trkpt lat="40.6834576" lon="9.5887447"><ele>454.0</ele><time>2026-03-27T12:03:13.845Z</time></trkpt><trkpt lat="40.6834952" lon="9.5888223"><ele>449.5</ele><time>2026-03-27T12:03:14.846Z</time></trkpt><trkpt lat="40.6835212" lon="9.5889156"><ele>445.0</ele><time>2026-03-27T12:03:15.868Z</time></trkpt><trkpt lat="40.6835272" lon="9.5890192"><ele>440.50000000000006</ele><time>2026-03-27T12:03:16.84Z</time></trkpt><trkpt lat="40.6835231" lon="9.5891284"><ele>436.0</ele><time>2026-03-27T12:03:17.842Z</time></trkpt><trkpt lat="40.6835141" lon="9.5892422"><ele>436.00000000000006</ele><time>2026-03-27T12:03:18.848Z</time></trkpt><trkpt lat="40.6835019" lon="9.5893514"><ele>436.0</ele><time>2026-03-27T12:03:19.845Z</time></trkpt><trkpt lat="40.6834979" lon="9.5894628"><ele>436.0</ele><time>2026-03-27T12:03:20.846Z</time></trkpt><trkpt lat="40.6835103" lon="9.5895572"><ele>436.0</ele><time>2026-03-27T12:03:21.847Z</time></trkpt><trkpt lat="40.6835459" lon="9.5896281"><ele>436.00000000000006</ele><time>2026-03-27T12:03:22.844Z</time></trkpt><trkpt lat="40.6836567" lon="9.5896619"><ele>436.0</ele><time>2026-03-27T12:03:24.846Z</time></trkpt><trkpt lat="40.6837351" lon="9.5896251"><ele>437.00000000000006</ele><time>2026-03-27T12:03:25.841Z</time></trkpt><trkpt lat="40.6838228" lon="9.5895742"><ele>438.0</ele><time>2026-03-27T12:03:26.847Z</time></trkpt><trkpt lat="40.6839108" lon="9.5895256"><ele>439.0</ele><time>2026-03-27T12:03:27.846Z</time></trkpt><trkpt lat="40.6839981" lon="9.5894799"><ele>440.0</ele><time>2026-03-27T12:03:28.848Z</time></trkpt><trkpt lat="40.6840817" lon="9.5894397"><ele>441.00000000000006</ele><time>2026-03-27T12:03:29.842Z</time></trkpt><trkpt lat="40.6841534" lon="9.589413"><ele>442.0</ele><time>2026-03-27T12:03:30.844Z</time></trkpt><trkpt lat="40.6842587" lon="9.5894004"><ele>437.20000000000005</ele><time>2026-03-27T12:03:32.843Z</time></trkpt><trkpt lat="40.6842726" lon="9.5895294"><ele>432.40000000000003</ele><time>2026-03-27T12:03:35.857Z</time></trkpt><trkpt lat="40.6841807" lon="9.5895966"><ele>427.6</ele><time>2026-03-27T12:03:37.857Z</time></trkpt><trkpt lat="40.6841571" lon="9.589703"><ele>422.79999999999995</ele><time>2026-03-27T12:03:39.841Z</time></trkpt><trkpt lat="40.684217" lon="9.5898547"><ele>418.0</ele><time>2026-03-27T12:03:41.848Z</time></trkpt><trkpt lat="40.6842624" lon="9.5899398"><ele>418.00000000000006</ele><time>2026-03-27T12:03:42.843Z</time></trkpt><trkpt lat="40.6843079" lon="9.5900539"><ele>418.0</ele><time>2026-03-27T12:03:44.841Z</time></trkpt><trkpt lat="40.6843088" lon="9.5901729"><ele>418.0</ele><time>2026-03-27T12:03:46.849Z</time></trkpt><trkpt lat="40.6842968" lon="9.590259"><ele>418.0</ele><time>2026-03-27T12:03:47.854Z</time></trkpt><trkpt lat="40.6842913" lon="9.5903676"><ele>418.00000000000006</ele><time>2026-03-27T12:03:48.842Z</time></trkpt><trkpt lat="40.6842862" lon="9.5904584"><ele>418.0</ele><time>2026-03-27T12:03:49.853Z</time></trkpt><trkpt lat="40.6842838" lon="9.5905416"><ele>416.59999999999997</ele><time>2026-03-27T12:03:50.842Z</time></trkpt><trkpt lat="40.6842801" lon="9.5906284"><ele>415.2</ele><time>2026-03-27T12:03:51.848Z</time></trkpt><trkpt lat="40.6842491" lon="9.5907646"><ele>413.8</ele><time>2026-03-27T12:03:53.843Z</time></trkpt><trkpt lat="40.6842212" lon="9.5908847"><ele>412.4</ele><time>2026-03-27T12:03:55.843Z</time></trkpt><trkpt lat="40.6842767" lon="9.5910381"><ele>411.0</ele><time>2026-03-27T12:03:57.841Z</time></trkpt><trkpt lat="40.6843183" lon="9.5911284"><ele>410.5</ele><time>2026-03-27T12:03:58.847Z</time></trkpt><trkpt lat="40.6843552" lon="9.5912146"><ele>410.0</ele><time>2026-03-27T12:03:59.846Z</time></trkpt><trkpt lat="40.6843846" lon="9.5912984"><ele>409.5</ele><time>2026-03-27T12:04:00.845Z</time></trkpt><trkpt lat="40.6844042" lon="9.5913808"><ele>409.0</ele><time>2026-03-27T12:04:01.844Z</time></trkpt><trkpt lat="40.6844091" lon="9.591515"><ele>408.5</ele><time>2026-03-27T12:04:03.844Z</time></trkpt><trkpt lat="40.6843111" lon="9.591537"><ele>408.0</ele><time>2026-03-27T12:04:05.844Z</time></trkpt><trkpt lat="40.6842402" lon="9.5915145"><ele>408.0</ele><time>2026-03-27T12:04:06.843Z</time></trkpt><trkpt lat="40.6841595" lon="9.5914924"><ele>408.0</ele><time>2026-03-27T12:04:07.856Z</time></trkpt><trkpt lat="40.6840701" lon="9.5914599"><ele>408.0</ele><time>2026-03-27T12:04:08.844Z</time></trkpt><trkpt lat="40.6839754" lon="9.591414"><ele>408.0</ele><time>2026-03-27T12:04:09.841Z</time></trkpt><trkpt lat="40.6838788" lon="9.5913579"><ele>408.0</ele><time>2026-03-27T12:04:10.845Z</time></trkpt><trkpt lat="40.6837817" lon="9.5913042"><ele>408.0</ele><time>2026-03-27T12:04:11.848Z</time></trkpt><trkpt lat="40.6836734" lon="9.5912859"><ele>408.0</ele><time>2026-03-27T12:04:12.844Z</time></trkpt><trkpt lat="40.6835616" lon="9.5912918"><ele>408.0</ele><time>2026-03-27T12:04:13.848Z</time></trkpt><trkpt lat="40.6834374" lon="9.5913134"><ele>408.0</ele><time>2026-03-27T12:04:14.846Z</time></trkpt><trkpt lat="40.6833077" lon="9.5913439"><ele>408.25</ele><time>2026-03-27T12:04:15.843Z</time></trkpt><trkpt lat="40.683175" lon="9.5913824"><ele>408.5</ele><time>2026-03-27T12:04:16.845Z</time></trkpt><trkpt lat="40.6830382" lon="9.5914247"><ele>408.75</ele><time>2026-03-27T12:04:17.844Z</time></trkpt><trkpt lat="40.6829009" lon="9.5914678"><ele>409.0</ele><time>2026-03-27T12:04:18.848Z</time></trkpt><trkpt lat="40.6827621" lon="9.5915218"><ele>409.25</ele><time>2026-03-27T12:04:19.845Z</time></trkpt><trkpt lat="40.6826233" lon="9.5915702"><ele>409.5</ele><time>2026-03-27T12:04:20.848Z</time></trkpt><trkpt lat="40.6824849" lon="9.5916076"><ele>409.75</ele><time>2026-03-27T12:04:21.842Z</time></trkpt><trkpt lat="40.6823467" lon="9.5916391"><ele>410.0</ele><time>2026-03-27T12:04:22.842Z</time></trkpt><trkpt lat="40.6822119" lon="9.5916582"><ele>410.0</ele><time>2026-03-27T12:04:23.843Z</time></trkpt><trkpt lat="40.6820814" lon="9.5916743"><ele>410.0</ele><time>2026-03-27T12:04:24.85Z</time></trkpt><trkpt lat="40.6819533" lon="9.5916734"><ele>410.0</ele><time>2026-03-27T12:04:25.847Z</time></trkpt><trkpt lat="40.6818268" lon="9.5916713"><ele>410.0</ele><time>2026-03-27T12:04:26.849Z</time></trkpt><trkpt lat="40.6816996" lon="9.5916725"><ele>410.0</ele><time>2026-03-27T12:04:27.841Z</time></trkpt><trkpt lat="40.6815755" lon="9.5916781"><ele>410.0</ele><time>2026-03-27T12:04:28.84Z</time></trkpt><trkpt lat="40.6814514" lon="9.5916829"><ele>410.0</ele><time>2026-03-27T12:04:29.841Z</time></trkpt><trkpt lat="40.6813326" lon="9.5916851"><ele>410.0</ele><time>2026-03-27T12:04:30.841Z</time></trkpt><trkpt lat="40.6812248" lon="9.5916909"><ele>410.0</ele><time>2026-03-27T12:04:31.846Z</time></trkpt><trkpt lat="40.6811268" lon="9.5916917"><ele>410.0</ele><time>2026-03-27T12:04:32.856Z</time></trkpt><trkpt lat="40.6810276" lon="9.5916961"><ele>410.0</ele><time>2026-03-27T12:04:33.843Z</time></trkpt><trkpt lat="40.6809322" lon="9.5916998"><ele>410.0</ele><time>2026-03-27T12:04:34.846Z</time></trkpt><trkpt lat="40.6808376" lon="9.5917046"><ele>410.0</ele><time>2026-03-27T12:04:35.837Z</time></trkpt><trkpt lat="40.6807413" lon="9.5917119"><ele>410.8</ele><time>2026-03-27T12:04:36.845Z</time></trkpt><trkpt lat="40.6806429" lon="9.5917179"><ele>411.6</ele><time>2026-03-27T12:04:37.847Z</time></trkpt><trkpt lat="40.6805523" lon="9.5917182"><ele>412.4</ele><time>2026-03-27T12:04:38.842Z</time></trkpt><trkpt lat="40.6804663" lon="9.5917063"><ele>413.2</ele><time>2026-03-27T12:04:39.841Z</time></trkpt><trkpt lat="40.6803838" lon="9.591678"><ele>414.0</ele><time>2026-03-27T12:04:40.843Z</time></trkpt><trkpt lat="40.6803001" lon="9.5916342"><ele>416.79999999999995</ele><time>2026-03-27T12:04:41.844Z</time></trkpt><trkpt lat="40.6802096" lon="9.5915903"><ele>419.59999999999997</ele><time>2026-03-27T12:04:42.845Z</time></trkpt><trkpt lat="40.6801107" lon="9.5915528"><ele>422.4</ele><time>2026-03-27T12:04:43.846Z</time></trkpt><trkpt lat="40.6800043" lon="9.5915285"><ele>425.2</ele><time>2026-03-27T12:04:44.851Z</time></trkpt><trkpt lat="40.6799026" lon="9.5915147"><ele>428.0</ele><time>2026-03-27T12:04:45.846Z</time></trkpt><trkpt lat="40.6798089" lon="9.5915023"><ele>428.0</ele><time>2026-03-27T12:04:46.85Z</time></trkpt><trkpt lat="40.6797337" lon="9.5914919"><ele>427.99999999999994</ele><time>2026-03-27T12:04:47.845Z</time></trkpt><trkpt lat="40.6796171" lon="9.5914677"><ele>427.99999999999994</ele><time>2026-03-27T12:04:49.843Z</time></trkpt><trkpt lat="40.6795283" lon="9.5913871"><ele>428.0</ele><time>2026-03-27T12:04:51.845Z</time></trkpt><trkpt lat="40.6794495" lon="9.5912486"><ele>428.0</ele><time>2026-03-27T12:04:53.848Z</time></trkpt><trkpt lat="40.6793917" lon="9.591186"><ele>425.4</ele><time>2026-03-27T12:04:54.846Z</time></trkpt><trkpt lat="40.6793165" lon="9.5911466"><ele>422.79999999999995</ele><time>2026-03-27T12:04:55.841Z</time></trkpt><trkpt lat="40.6792285" lon="9.5911271"><ele>420.2</ele><time>2026-03-27T12:04:56.847Z</time></trkpt><trkpt lat="40.6791277" lon="9.5911151"><ele>417.6</ele><time>2026-03-27T12:04:57.844Z</time></trkpt><trkpt lat="40.6790339" lon="9.5910907"><ele>415.0</ele><time>2026-03-27T12:04:58.847Z</time></trkpt><trkpt lat="40.6789402" lon="9.5910432"><ele>415.0</ele><time>2026-03-27T12:04:59.845Z</time></trkpt><trkpt lat="40.6788476" lon="9.5909826"><ele>415.0</ele><time>2026-03-27T12:05:00.848Z</time></trkpt><trkpt lat="40.6787555" lon="9.5909237"><ele>415.0</ele><time>2026-03-27T12:05:01.844Z</time></trkpt><trkpt lat="40.6786602" lon="9.5908713"><ele>415.0</ele><time>2026-03-27T12:05:02.844Z</time></trkpt><trkpt lat="40.6785599" lon="9.5908292"><ele>415.0</ele><time>2026-03-27T12:05:03.844Z</time></trkpt><trkpt lat="40.678458" lon="9.5907941"><ele>416.0</ele><time>2026-03-27T12:05:04.843Z</time></trkpt><trkpt lat="40.6783603" lon="9.5907678"><ele>417.0</ele><time>2026-03-27T12:05:05.846Z</time></trkpt><trkpt lat="40.6782667" lon="9.5907613"><ele>418.0</ele><time>2026-03-27T12:05:06.85Z</time></trkpt><trkpt lat="40.6781796" lon="9.5907773"><ele>419.0</ele><time>2026-03-27T12:05:07.84Z</time></trkpt><trkpt lat="40.6780979" lon="9.5908148"><ele>420.0</ele><time>2026-03-27T12:05:08.845Z</time></trkpt><trkpt lat="40.6780173" lon="9.5908698"><ele>420.0</ele><time>2026-03-27T12:05:09.843Z</time></trkpt><trkpt lat="40.6779325" lon="9.5909379"><ele>420.0</ele><time>2026-03-27T12:05:10.85Z</time></trkpt><trkpt lat="40.677846" lon="9.5910104"><ele>420.0</ele><time>2026-03-27T12:05:11.854Z</time></trkpt><trkpt lat="40.6777577" lon="9.5910858"><ele>420.0</ele><time>2026-03-27T12:05:12.845Z</time></trkpt><trkpt lat="40.6776694" lon="9.5911623"><ele>420.0</ele><time>2026-03-27T12:05:13.845Z</time></trkpt><trkpt lat="40.6775814" lon="9.5912459"><ele>419.5</ele><time>2026-03-27T12:05:14.842Z</time></trkpt><trkpt lat="40.6774952" lon="9.5913368"><ele>419.0</ele><time>2026-03-27T12:05:15.847Z</time></trkpt><trkpt lat="40.6774088" lon="9.5914302"><ele>418.5</ele><time>2026-03-27T12:05:16.845Z</time></trkpt><trkpt lat="40.6773221" lon="9.5915269"><ele>418.0</ele><time>2026-03-27T12:05:17.847Z</time></trkpt><trkpt lat="40.6772357" lon="9.59163"><ele>418.0</ele><time>2026-03-27T12:05:18.846Z</time></trkpt><trkpt lat="40.6771507" lon="9.5917441"><ele>418.0</ele><time>2026-03-27T12:05:19.842Z</time></trkpt><trkpt lat="40.6770713" lon="9.5918573"><ele>418.0</ele><time>2026-03-27T12:05:20.848Z</time></trkpt><trkpt lat="40.6769984" lon="9.5919665"><ele>418.0</ele><time>2026-03-27T12:05:21.849Z</time></trkpt><trkpt lat="40.6769349" lon="9.5920774"><ele>414.4</ele><time>2026-03-27T12:05:22.845Z</time></trkpt><trkpt lat="40.6768856" lon="9.5921981"><ele>410.79999999999995</ele><time>2026-03-27T12:05:23.846Z</time></trkpt><trkpt lat="40.6768571" lon="9.5923259"><ele>407.2</ele><time>2026-03-27T12:05:24.843Z</time></trkpt><trkpt lat="40.6768462" lon="9.5924591"><ele>403.6</ele><time>2026-03-27T12:05:25.844Z</time></trkpt><trkpt lat="40.6768417" lon="9.5925942"><ele>400.0</ele><time>2026-03-27T12:05:26.845Z</time></trkpt><trkpt lat="40.6768336" lon="9.5927286"><ele>402.0</ele><time>2026-03-27T12:05:27.849Z</time></trkpt><trkpt lat="40.6768237" lon="9.5928635"><ele>404.0</ele><time>2026-03-27T12:05:28.852Z</time></trkpt><trkpt lat="40.6767831" lon="9.5929836"><ele>406.0</ele><time>2026-03-27T12:05:29.846Z</time></trkpt><trkpt lat="40.6767236" lon="9.5930751"><ele>408.0</ele><time>2026-03-27T12:05:30.845Z</time></trkpt><trkpt lat="40.676651" lon="9.593128"><ele>410.0</ele><time>2026-03-27T12:05:31.854Z</time></trkpt><trkpt lat="40.6765787" lon="9.5931416"><ele>409.99999999999994</ele><time>2026-03-27T12:05:32.848Z</time></trkpt><trkpt lat="40.6765089" lon="9.5931496"><ele>410.0</ele><time>2026-03-27T12:05:33.87Z</time></trkpt><trkpt lat="40.6764457" lon="9.5930934"><ele>410.0</ele><time>2026-03-27T12:05:34.854Z</time></trkpt><trkpt lat="40.6763722" lon="9.5930392"><ele>410.0</ele><time>2026-03-27T12:05:35.845Z</time></trkpt><trkpt lat="40.6762932" lon="9.5930091"><ele>409.99999999999994</ele><time>2026-03-27T12:05:36.847Z</time></trkpt><trkpt lat="40.6762079" lon="9.5930135"><ele>410.0</ele><time>2026-03-27T12:05:37.845Z</time></trkpt><trkpt lat="40.6761151" lon="9.5930579"><ele>407.25</ele><time>2026-03-27T12:05:38.847Z</time></trkpt><trkpt lat="40.6760161" lon="9.5931378"><ele>404.5</ele><time>2026-03-27T12:05:39.852Z</time></trkpt><trkpt lat="40.6759087" lon="9.5932205"><ele>401.75</ele><time>2026-03-27T12:05:40.853Z</time></trkpt><trkpt lat="40.6757966" lon="9.5932915"><ele>399.0</ele><time>2026-03-27T12:05:41.852Z</time></trkpt><trkpt lat="40.6756804" lon="9.5933518"><ele>399.0</ele><time>2026-03-27T12:05:42.845Z</time></trkpt><trkpt lat="40.6755594" lon="9.5934025"><ele>399.0</ele><time>2026-03-27T12:05:43.847Z</time></trkpt><trkpt lat="40.6754361" lon="9.5934462"><ele>399.0</ele><time>2026-03-27T12:05:44.847Z</time></trkpt><trkpt lat="40.675313" lon="9.5934878"><ele>399.0</ele><time>2026-03-27T12:05:45.849Z</time></trkpt><trkpt lat="40.6751931" lon="9.5935287"><ele>399.75</ele><time>2026-03-27T12:05:46.844Z</time></trkpt><trkpt lat="40.6750794" lon="9.5935732"><ele>400.5</ele><time>2026-03-27T12:05:47.845Z</time></trkpt><trkpt lat="40.6749689" lon="9.5936313"><ele>401.25</ele><time>2026-03-27T12:05:48.851Z</time></trkpt><trkpt lat="40.6748597" lon="9.5936872"><ele>402.0</ele><time>2026-03-27T12:05:49.846Z</time></trkpt><trkpt lat="40.6747547" lon="9.5937637"><ele>402.0</ele><time>2026-03-27T12:05:50.846Z</time></trkpt><trkpt lat="40.6746497" lon="9.5938455"><ele>402.0</ele><time>2026-03-27T12:05:51.847Z</time></trkpt><trkpt lat="40.6745493" lon="9.5939251"><ele>402.0</ele><time>2026-03-27T12:05:52.853Z</time></trkpt><trkpt lat="40.6744538" lon="9.5939991"><ele>402.0</ele><time>2026-03-27T12:05:53.846Z</time></trkpt><trkpt lat="40.6743604" lon="9.5940726"><ele>397.40000000000003</ele><time>2026-03-27T12:05:54.843Z</time></trkpt><trkpt lat="40.6742667" lon="9.594141"><ele>392.8</ele><time>2026-03-27T12:05:55.85Z</time></trkpt><trkpt lat="40.6741803" lon="9.5942138"><ele>388.2</ele><time>2026-03-27T12:05:56.842Z</time></trkpt><trkpt lat="40.6741059" lon="9.5942958"><ele>383.6</ele><time>2026-03-27T12:05:57.845Z</time></trkpt><trkpt lat="40.6740461" lon="9.5943935"><ele>379.0</ele><time>2026-03-27T12:05:58.846Z</time></trkpt><trkpt lat="40.6740045" lon="9.5945009"><ele>380.2</ele><time>2026-03-27T12:05:59.848Z</time></trkpt><trkpt lat="40.6739774" lon="9.5946232"><ele>381.4</ele><time>2026-03-27T12:06:00.843Z</time></trkpt><trkpt lat="40.6739624" lon="9.5947569"><ele>382.6</ele><time>2026-03-27T12:06:01.847Z</time></trkpt><trkpt lat="40.6739495" lon="9.5948975"><ele>383.8</ele><time>2026-03-27T12:06:02.85Z</time></trkpt><trkpt lat="40.6739367" lon="9.595041"><ele>385.0</ele><time>2026-03-27T12:06:03.846Z</time></trkpt><trkpt lat="40.6739234" lon="9.5951804"><ele>385.0</ele><time>2026-03-27T12:06:04.843Z</time></trkpt><trkpt lat="40.6739093" lon="9.5953179"><ele>385.0</ele><time>2026-03-27T12:06:05.846Z</time></trkpt><trkpt lat="40.6738881" lon="9.5954517"><ele>385.0</ele><time>2026-03-27T12:06:06.845Z</time></trkpt><trkpt lat="40.6738524" lon="9.5955778"><ele>385.0</ele><time>2026-03-27T12:06:07.847Z</time></trkpt><trkpt lat="40.6738059" lon="9.5956972"><ele>385.0</ele><time>2026-03-27T12:06:08.846Z</time></trkpt><trkpt lat="40.673758" lon="9.5958156"><ele>385.2</ele><time>2026-03-27T12:06:09.855Z</time></trkpt><trkpt lat="40.6737176" lon="9.595939"><ele>385.4</ele><time>2026-03-27T12:06:10.849Z</time></trkpt><trkpt lat="40.6736941" lon="9.5960677"><ele>385.6</ele><time>2026-03-27T12:06:11.854Z</time></trkpt><trkpt lat="40.6736866" lon="9.5962044"><ele>385.8</ele><time>2026-03-27T12:06:12.847Z</time></trkpt><trkpt lat="40.6736881" lon="9.5963443"><ele>386.0</ele><time>2026-03-27T12:06:13.846Z</time></trkpt><trkpt lat="40.673701" lon="9.5964831"><ele>384.6</ele><time>2026-03-27T12:06:14.848Z</time></trkpt><trkpt lat="40.6737276" lon="9.596618"><ele>383.20000000000005</ele><time>2026-03-27T12:06:15.846Z</time></trkpt><trkpt lat="40.6737711" lon="9.5967447"><ele>381.79999999999995</ele><time>2026-03-27T12:06:16.847Z</time></trkpt><trkpt lat="40.6738295" lon="9.5968633"><ele>380.4</ele><time>2026-03-27T12:06:17.846Z</time></trkpt><trkpt lat="40.6738964" lon="9.596977"><ele>379.0</ele><time>2026-03-27T12:06:18.844Z</time></trkpt><trkpt lat="40.6739631" lon="9.597091"><ele>375.0</ele><time>2026-03-27T12:06:19.861Z</time></trkpt><trkpt lat="40.6740278" lon="9.5972111"><ele>371.0</ele><time>2026-03-27T12:06:20.85Z</time></trkpt><trkpt lat="40.6740927" lon="9.5973367"><ele>367.0</ele><time>2026-03-27T12:06:21.843Z</time></trkpt><trkpt lat="40.6741581" lon="9.5974682"><ele>363.0</ele><time>2026-03-27T12:06:22.845Z</time></trkpt><trkpt lat="40.6742231" lon="9.5976047"><ele>363.0</ele><time>2026-03-27T12:06:23.841Z</time></trkpt><trkpt lat="40.6742874" lon="9.5977465"><ele>363.0</ele><time>2026-03-27T12:06:24.845Z</time></trkpt><trkpt lat="40.6743506" lon="9.5978931"><ele>363.0</ele><time>2026-03-27T12:06:25.846Z</time></trkpt><trkpt lat="40.6744164" lon="9.5980427"><ele>363.0</ele><time>2026-03-27T12:06:26.888Z</time></trkpt><trkpt lat="40.6744848" lon="9.5981943"><ele>364.59999999999997</ele><time>2026-03-27T12:06:27.846Z</time></trkpt><trkpt lat="40.6745471" lon="9.5983414"><ele>366.2</ele><time>2026-03-27T12:06:28.849Z</time></trkpt><trkpt lat="40.6745988" lon="9.5984816"><ele>367.8</ele><time>2026-03-27T12:06:29.851Z</time></trkpt><trkpt lat="40.6746236" lon="9.5986176"><ele>369.4</ele><time>2026-03-27T12:06:30.846Z</time></trkpt><trkpt lat="40.6746263" lon="9.5987437"><ele>371.0</ele><time>2026-03-27T12:06:31.847Z</time></trkpt><trkpt lat="40.6746152" lon="9.5988497"><ele>371.6666666666667</ele><time>2026-03-27T12:06:32.849Z</time></trkpt><trkpt lat="40.674605" lon="9.5989402"><ele>372.33333333333337</ele><time>2026-03-27T12:06:33.851Z</time></trkpt><trkpt lat="40.6745509" lon="9.5990665"><ele>373.0</ele><time>2026-03-27T12:06:35.848Z</time></trkpt><trkpt lat="40.6744746" lon="9.5991834"><ele>373.6666666666667</ele><time>2026-03-27T12:06:37.844Z</time></trkpt><trkpt lat="40.6744265" lon="9.5992413"><ele>374.3333333333333</ele><time>2026-03-27T12:06:38.844Z</time></trkpt><trkpt lat="40.6743463" lon="9.5992689"><ele>375.0</ele><time>2026-03-27T12:06:39.853Z</time></trkpt><trkpt lat="40.6742551" lon="9.5992992"><ele>371.6</ele><time>2026-03-27T12:06:40.845Z</time></trkpt><trkpt lat="40.6741618" lon="9.5993503"><ele>368.2</ele><time>2026-03-27T12:06:41.877Z</time></trkpt><trkpt lat="40.6740819" lon="9.5994283"><ele>364.79999999999995</ele><time>2026-03-27T12:06:42.845Z</time></trkpt><trkpt lat="40.6740166" lon="9.5995323"><ele>361.4</ele><time>2026-03-27T12:06:43.845Z</time></trkpt><trkpt lat="40.673964" lon="9.5996451"><ele>358.0</ele><time>2026-03-27T12:06:44.85Z</time></trkpt><trkpt lat="40.6739206" lon="9.5997586"><ele>358.0</ele><time>2026-03-27T12:06:45.845Z</time></trkpt><trkpt lat="40.6738864" lon="9.5998712"><ele>358.0</ele><time>2026-03-27T12:06:46.847Z</time></trkpt><trkpt lat="40.6738644" lon="9.5999903"><ele>358.0</ele><time>2026-03-27T12:06:47.846Z</time></trkpt><trkpt lat="40.673854" lon="9.6001118"><ele>358.0</ele><time>2026-03-27T12:06:48.847Z</time></trkpt><trkpt lat="40.6738513" lon="9.6002337"><ele>358.0</ele><time>2026-03-27T12:06:49.849Z</time></trkpt><trkpt lat="40.6738518" lon="9.6003544"><ele>357.8333333333333</ele><time>2026-03-27T12:06:50.85Z</time></trkpt><trkpt lat="40.6738511" lon="9.6004744"><ele>357.66666666666663</ele><time>2026-03-27T12:06:51.85Z</time></trkpt><trkpt lat="40.6738503" lon="9.6005894"><ele>357.5</ele><time>2026-03-27T12:06:52.846Z</time></trkpt><trkpt lat="40.6738504" lon="9.6007001"><ele>357.3333333333333</ele><time>2026-03-27T12:06:53.853Z</time></trkpt><trkpt lat="40.6738591" lon="9.6008045"><ele>357.1666666666667</ele><time>2026-03-27T12:06:54.853Z</time></trkpt><trkpt lat="40.6738824" lon="9.6009118"><ele>357.0</ele><time>2026-03-27T12:06:55.85Z</time></trkpt><trkpt lat="40.6739171" lon="9.6010186"><ele>357.0</ele><time>2026-03-27T12:06:56.852Z</time></trkpt><trkpt lat="40.6739521" lon="9.6011279"><ele>357.0</ele><time>2026-03-27T12:06:57.848Z</time></trkpt><trkpt lat="40.6739813" lon="9.6012351"><ele>357.0</ele><time>2026-03-27T12:06:58.839Z</time></trkpt><trkpt lat="40.6740016" lon="9.6013356"><ele>357.0</ele><time>2026-03-27T12:06:59.855Z</time></trkpt><trkpt lat="40.6740123" lon="9.6014224"><ele>357.0</ele><time>2026-03-27T12:07:00.842Z</time></trkpt><trkpt lat="40.6740243" lon="9.6015583"><ele>357.0</ele><time>2026-03-27T12:07:02.843Z</time></trkpt><trkpt lat="40.6740281" lon="9.6016756"><ele>356.1666666666667</ele><time>2026-03-27T12:07:04.854Z</time></trkpt><trkpt lat="40.6739881" lon="9.6017489"><ele>355.3333333333333</ele><time>2026-03-27T12:07:06.845Z</time></trkpt><trkpt lat="40.6739041" lon="9.601787"><ele>354.5</ele><time>2026-03-27T12:07:09.845Z</time></trkpt><trkpt lat="40.6738388" lon="9.6017912"><ele>353.66666666666663</ele><time>2026-03-27T12:07:11.847Z</time></trkpt><trkpt lat="40.6737676" lon="9.601808"><ele>352.8333333333333</ele><time>2026-03-27T12:07:13.852Z</time></trkpt><trkpt lat="40.6737214" lon="9.6018896"><ele>352.0</ele><time>2026-03-27T12:07:15.843Z</time></trkpt><trkpt lat="40.6737243" lon="9.6020454"><ele>351.8333333333333</ele><time>2026-03-27T12:07:17.851Z</time></trkpt><trkpt lat="40.6737863" lon="9.6021833"><ele>351.66666666666663</ele><time>2026-03-27T12:07:19.85Z</time></trkpt><trkpt lat="40.6738396" lon="9.6022378"><ele>351.5</ele><time>2026-03-27T12:07:20.854Z</time></trkpt><trkpt lat="40.673898" lon="9.6022983"><ele>351.3333333333333</ele><time>2026-03-27T12:07:21.851Z</time></trkpt><trkpt lat="40.6739561" lon="9.6023748"><ele>351.1666666666667</ele><time>2026-03-27T12:07:22.841Z</time></trkpt><trkpt lat="40.6740154" lon="9.6024647"><ele>351.0</ele><time>2026-03-27T12:07:23.847Z</time></trkpt><trkpt lat="40.6740682" lon="9.602565"><ele>351.0</ele><time>2026-03-27T12:07:24.843Z</time></trkpt><trkpt lat="40.6741017" lon="9.6026675"><ele>351.0</ele><time>2026-03-27T12:07:25.849Z</time></trkpt><trkpt lat="40.6741215" lon="9.6027697"><ele>351.0</ele><time>2026-03-27T12:07:26.848Z</time></trkpt><trkpt lat="40.6741353" lon="9.6028676"><ele>351.0</ele><time>2026-03-27T12:07:27.849Z</time></trkpt><trkpt lat="40.6741388" lon="9.6029956"><ele>351.0</ele><time>2026-03-27T12:07:29.852Z</time></trkpt><trkpt lat="40.674062" lon="9.6029941"><ele>351.0</ele><time>2026-03-27T12:07:32.846Z</time></trkpt><trkpt lat="40.6739486" lon="9.6028585"><ele>351.0</ele><time>2026-03-27T12:07:34.851Z</time></trkpt><trkpt lat="40.6738689" lon="9.602781"><ele>351.0</ele><time>2026-03-27T12:07:35.849Z</time></trkpt><trkpt lat="40.6737734" lon="9.6027348"><ele>351.0</ele><time>2026-03-27T12:07:36.856Z</time></trkpt><trkpt lat="40.6736871" lon="9.6026986"><ele>351.0</ele><time>2026-03-27T12:07:37.847Z</time></trkpt><trkpt lat="40.6735996" lon="9.6026766"><ele>351.0</ele><time>2026-03-27T12:07:38.853Z</time></trkpt><trkpt lat="40.6735132" lon="9.6026556"><ele>352.14285714285717</ele><time>2026-03-27T12:07:39.848Z</time></trkpt><trkpt lat="40.6734333" lon="9.6026427"><ele>353.2857142857143</ele><time>2026-03-27T12:07:40.846Z</time></trkpt><trkpt lat="40.6733625" lon="9.6026308"><ele>354.42857142857144</ele><time>2026-03-27T12:07:41.854Z</time></trkpt><trkpt lat="40.6732958" lon="9.6026198"><ele>355.57142857142856</ele><time>2026-03-27T12:07:42.846Z</time></trkpt><trkpt lat="40.6732244" lon="9.6026011"><ele>356.7142857142857</ele><time>2026-03-27T12:07:43.861Z</time></trkpt><trkpt lat="40.6731651" lon="9.6025727"><ele>357.8571428571429</ele><time>2026-03-27T12:07:44.852Z</time></trkpt><trkpt lat="40.6731023" lon="9.6025438"><ele>359.0</ele><time>2026-03-27T12:07:45.847Z</time></trkpt><trkpt lat="40.6730383" lon="9.6025123"><ele>359.0</ele><time>2026-03-27T12:07:46.852Z</time></trkpt><trkpt lat="40.672973" lon="9.6024675"><ele>359.0</ele><time>2026-03-27T12:07:47.852Z</time></trkpt><trkpt lat="40.6729104" lon="9.6024196"><ele>359.0</ele><time>2026-03-27T12:07:48.858Z</time></trkpt><trkpt lat="40.6728612" lon="9.6023553"><ele>359.0</ele><time>2026-03-27T12:07:49.846Z</time></trkpt><trkpt lat="40.6728156" lon="9.6022885"><ele>359.0</ele><time>2026-03-27T12:07:50.845Z</time></trkpt><trkpt lat="40.6727651" lon="9.6022237"><ele>359.0</ele><time>2026-03-27T12:07:51.846Z</time></trkpt><trkpt lat="40.6727124" lon="9.6021606"><ele>359.0</ele><time>2026-03-27T12:07:52.845Z</time></trkpt><trkpt lat="40.6726582" lon="9.6021004"><ele>359.6666666666667</ele><time>2026-03-27T12:07:53.85Z</time></trkpt><trkpt lat="40.672606" lon="9.6020426"><ele>360.33333333333337</ele><time>2026-03-27T12:07:54.847Z</time></trkpt><trkpt lat="40.672553" lon="9.6019855"><ele>361.0</ele><time>2026-03-27T12:07:55.848Z</time></trkpt><trkpt lat="40.6725015" lon="9.6019265"><ele>361.6666666666667</ele><time>2026-03-27T12:07:56.848Z</time></trkpt><trkpt lat="40.6724528" lon="9.6018651"><ele>362.3333333333333</ele><time>2026-03-27T12:07:57.851Z</time></trkpt><trkpt lat="40.6723647" lon="9.6017636"><ele>363.0</ele><time>2026-03-27T12:07:59.873Z</time></trkpt><trkpt lat="40.6722433" lon="9.6016903"><ele>362.99999999999994</ele><time>2026-03-27T12:08:01.858Z</time></trkpt><trkpt lat="40.6721754" lon="9.6016645"><ele>363.0</ele><time>2026-03-27T12:08:02.847Z</time></trkpt><trkpt lat="40.6721135" lon="9.6016347"><ele>363.0</ele><time>2026-03-27T12:08:03.849Z</time></trkpt><trkpt lat="40.672039" lon="9.6016363"><ele>363.0</ele><time>2026-03-27T12:08:04.848Z</time></trkpt><trkpt lat="40.6719605" lon="9.6016529"><ele>363.0</ele><time>2026-03-27T12:08:05.85Z</time></trkpt><trkpt lat="40.6718871" lon="9.6016858"><ele>362.99999999999994</ele><time>2026-03-27T12:08:06.848Z</time></trkpt><trkpt lat="40.6718131" lon="9.6017302"><ele>363.0</ele><time>2026-03-27T12:08:07.852Z</time></trkpt><trkpt lat="40.6717332" lon="9.6017815"><ele>364.3333333333333</ele><time>2026-03-27T12:08:08.884Z</time></trkpt><trkpt lat="40.6716548" lon="9.6018313"><ele>365.6666666666667</ele><time>2026-03-27T12:08:09.853Z</time></trkpt><trkpt lat="40.6715757" lon="9.6018789"><ele>367.0</ele><time>2026-03-27T12:08:10.846Z</time></trkpt><trkpt lat="40.6714973" lon="9.6019202"><ele>368.33333333333337</ele><time>2026-03-27T12:08:11.849Z</time></trkpt><trkpt lat="40.6714169" lon="9.6019578"><ele>369.6666666666667</ele><time>2026-03-27T12:08:12.853Z</time></trkpt><trkpt lat="40.6713347" lon="9.6019968"><ele>371.0</ele><time>2026-03-27T12:08:13.849Z</time></trkpt><trkpt lat="40.6712536" lon="9.6020246"><ele>373.6666666666667</ele><time>2026-03-27T12:08:14.845Z</time></trkpt><trkpt lat="40.6711719" lon="9.6020444"><ele>376.33333333333337</ele><time>2026-03-27T12:08:15.846Z</time></trkpt><trkpt lat="40.6710929" lon="9.6020644"><ele>379.0</ele><time>2026-03-27T12:08:16.845Z</time></trkpt><trkpt lat="40.6710177" lon="9.6020493"><ele>381.6666666666667</ele><time>2026-03-27T12:08:17.855Z</time></trkpt><trkpt lat="40.6709527" lon="9.6019907"><ele>384.3333333333333</ele><time>2026-03-27T12:08:18.85Z</time></trkpt><trkpt lat="40.6708848" lon="9.6019254"><ele>387.0</ele><time>2026-03-27T12:08:19.844Z</time></trkpt><trkpt lat="40.6708187" lon="9.6018562"><ele>387.0</ele><time>2026-03-27T12:08:20.851Z</time></trkpt><trkpt lat="40.6707507" lon="9.6017795"><ele>387.0</ele><time>2026-03-27T12:08:21.871Z</time></trkpt><trkpt lat="40.6706824" lon="9.6017013"><ele>387.0</ele><time>2026-03-27T12:08:22.859Z</time></trkpt><trkpt lat="40.6706123" lon="9.6016243"><ele>387.0</ele><time>2026-03-27T12:08:23.844Z</time></trkpt><trkpt lat="40.6705348" lon="9.6015545"><ele>387.0</ele><time>2026-03-27T12:08:24.859Z</time></trkpt><trkpt lat="40.6704542" lon="9.6014966"><ele>387.0</ele><time>2026-03-27T12:08:25.855Z</time></trkpt><trkpt lat="40.6703617" lon="9.6014466"><ele>387.0</ele><time>2026-03-27T12:08:26.848Z</time></trkpt><trkpt lat="40.6702614" lon="9.6014046"><ele>387.0</ele><time>2026-03-27T12:08:27.85Z</time></trkpt><trkpt lat="40.670154" lon="9.601374"><ele>387.0</ele><time>2026-03-27T12:08:28.849Z</time></trkpt><trkpt lat="40.6700443" lon="9.6013497"><ele>387.0</ele><time>2026-03-27T12:08:29.849Z</time></trkpt><trkpt lat="40.6699336" lon="9.6013278"><ele>390.0</ele><time>2026-03-27T12:08:30.847Z</time></trkpt><trkpt lat="40.6698247" lon="9.6013069"><ele>393.0</ele><time>2026-03-27T12:08:31.849Z</time></trkpt><trkpt lat="40.6697256" lon="9.6012968"><ele>396.0</ele><time>2026-03-27T12:08:32.852Z</time></trkpt><trkpt lat="40.6696339" lon="9.6013057"><ele>399.0</ele><time>2026-03-27T12:08:33.851Z</time></trkpt><trkpt lat="40.669542" lon="9.6013322"><ele>402.0</ele><time>2026-03-27T12:08:34.848Z</time></trkpt><trkpt lat="40.669447" lon="9.6013685"><ele>402.6</ele><time>2026-03-27T12:08:35.849Z</time></trkpt><trkpt lat="40.6693473" lon="9.6014152"><ele>403.20000000000005</ele><time>2026-03-27T12:08:36.841Z</time></trkpt><trkpt lat="40.6692484" lon="9.6014761"><ele>403.8</ele><time>2026-03-27T12:08:37.853Z</time></trkpt><trkpt lat="40.669152" lon="9.6015519"><ele>404.4</ele><time>2026-03-27T12:08:38.857Z</time></trkpt><trkpt lat="40.6690634" lon="9.6016465"><ele>405.0</ele><time>2026-03-27T12:08:39.85Z</time></trkpt><trkpt lat="40.6689818" lon="9.6017552"><ele>405.0</ele><time>2026-03-27T12:08:40.872Z</time></trkpt><trkpt lat="40.6689006" lon="9.6018712"><ele>405.0</ele><time>2026-03-27T12:08:41.847Z</time></trkpt><trkpt lat="40.6688178" lon="9.6019886"><ele>405.0</ele><time>2026-03-27T12:08:42.848Z</time></trkpt><trkpt lat="40.6687371" lon="9.6021081"><ele>405.0</ele><time>2026-03-27T12:08:43.849Z</time></trkpt><trkpt lat="40.6686644" lon="9.6022267"><ele>408.0</ele><time>2026-03-27T12:08:44.852Z</time></trkpt><trkpt lat="40.6686056" lon="9.6023362"><ele>411.0</ele><time>2026-03-27T12:08:45.845Z</time></trkpt><trkpt lat="40.6685569" lon="9.6024254"><ele>414.0</ele><time>2026-03-27T12:08:46.842Z</time></trkpt><trkpt lat="40.668513" lon="9.6024917"><ele>417.0</ele><time>2026-03-27T12:08:47.842Z</time></trkpt><trkpt lat="40.6684254" lon="9.6025426"><ele>420.0</ele><time>2026-03-27T12:08:49.847Z</time></trkpt><trkpt lat="40.6683237" lon="9.6024333"><ele>420.0</ele><time>2026-03-27T12:08:51.848Z</time></trkpt><trkpt lat="40.6682562" lon="9.6023845"><ele>420.0</ele><time>2026-03-27T12:08:52.865Z</time></trkpt><trkpt lat="40.668173" lon="9.6023652"><ele>420.0</ele><time>2026-03-27T12:08:53.847Z</time></trkpt><trkpt lat="40.6680816" lon="9.6023464"><ele>420.0</ele><time>2026-03-27T12:08:54.847Z</time></trkpt><trkpt lat="40.6679878" lon="9.6023439"><ele>420.0</ele><time>2026-03-27T12:08:55.847Z</time></trkpt><trkpt lat="40.6679068" lon="9.6023088"><ele>420.0</ele><time>2026-03-27T12:08:56.844Z</time></trkpt><trkpt lat="40.6678405" lon="9.602243"><ele>420.0</ele><time>2026-03-27T12:08:57.849Z</time></trkpt><trkpt lat="40.6677866" lon="9.6021514"><ele>420.0</ele><time>2026-03-27T12:08:58.851Z</time></trkpt><trkpt lat="40.6677538" lon="9.6020594"><ele>420.0</ele><time>2026-03-27T12:08:59.849Z</time></trkpt><trkpt lat="40.6677243" lon="9.6019853"><ele>420.0</ele><time>2026-03-27T12:09:00.851Z</time></trkpt><trkpt lat="40.6676164" lon="9.6019718"><ele>420.0</ele><time>2026-03-27T12:09:02.844Z</time></trkpt><trkpt lat="40.667538" lon="9.602115"><ele>422.0</ele><time>2026-03-27T12:09:04.846Z</time></trkpt><trkpt lat="40.6674961" lon="9.6022106"><ele>424.0</ele><time>2026-03-27T12:09:05.846Z</time></trkpt><trkpt lat="40.6674451" lon="9.6022725"><ele>426.0</ele><time>2026-03-27T12:09:06.845Z</time></trkpt><trkpt lat="40.6673958" lon="9.6023283"><ele>428.0</ele><time>2026-03-27T12:09:07.842Z</time></trkpt><trkpt lat="40.6673334" lon="9.6023145"><ele>430.0</ele><time>2026-03-27T12:09:08.844Z</time></trkpt><trkpt lat="40.6672747" lon="9.6022611"><ele>432.0</ele><time>2026-03-27T12:09:09.845Z</time></trkpt><trkpt lat="40.6672152" lon="9.6022008"><ele>434.0</ele><time>2026-03-27T12:09:10.846Z</time></trkpt><trkpt lat="40.6671419" lon="9.6021695"><ele>434.0</ele><time>2026-03-27T12:09:11.846Z</time></trkpt><trkpt lat="40.6670558" lon="9.6021687"><ele>434.0</ele><time>2026-03-27T12:09:12.85Z</time></trkpt><trkpt lat="40.6669597" lon="9.6021918"><ele>434.0</ele><time>2026-03-27T12:09:13.845Z</time></trkpt><trkpt lat="40.6668563" lon="9.6022415"><ele>434.0</ele><time>2026-03-27T12:09:14.85Z</time></trkpt><trkpt lat="40.6667606" lon="9.6023071"><ele>434.0</ele><time>2026-03-27T12:09:15.844Z</time></trkpt><trkpt lat="40.6666745" lon="9.6023919"><ele>434.79999999999995</ele><time>2026-03-27T12:09:16.864Z</time></trkpt><trkpt lat="40.6665916" lon="9.6024874"><ele>435.59999999999997</ele><time>2026-03-27T12:09:17.854Z</time></trkpt><trkpt lat="40.66651" lon="9.6025896"><ele>436.4</ele><time>2026-03-27T12:09:18.845Z</time></trkpt><trkpt lat="40.6664278" lon="9.6026929"><ele>437.2</ele><time>2026-03-27T12:09:19.847Z</time></trkpt><trkpt lat="40.6663462" lon="9.6027952"><ele>438.0</ele><time>2026-03-27T12:09:20.845Z</time></trkpt><trkpt lat="40.666262" lon="9.602895"><ele>441.0</ele><time>2026-03-27T12:09:21.885Z</time></trkpt><trkpt lat="40.6661748" lon="9.6029904"><ele>444.0</ele><time>2026-03-27T12:09:22.848Z</time></trkpt><trkpt lat="40.6660817" lon="9.6030847"><ele>447.0</ele><time>2026-03-27T12:09:23.851Z</time></trkpt><trkpt lat="40.665983" lon="9.6031818"><ele>450.0</ele><time>2026-03-27T12:09:24.845Z</time></trkpt><trkpt lat="40.6658796" lon="9.6032784"><ele>450.0</ele><time>2026-03-27T12:09:25.85Z</time></trkpt><trkpt lat="40.6657754" lon="9.6033708"><ele>450.0</ele><time>2026-03-27T12:09:26.85Z</time></trkpt><trkpt lat="40.6656761" lon="9.6034558"><ele>450.0</ele><time>2026-03-27T12:09:27.867Z</time></trkpt><trkpt lat="40.6655888" lon="9.6035309"><ele>450.0</ele><time>2026-03-27T12:09:28.856Z</time></trkpt><trkpt lat="40.6655196" lon="9.6035936"><ele>450.0</ele><time>2026-03-27T12:09:29.849Z</time></trkpt><trkpt lat="40.6654515" lon="9.6036605"><ele>449.4</ele><time>2026-03-27T12:09:31.851Z</time></trkpt><trkpt lat="40.6653683" lon="9.603733"><ele>448.8</ele><time>2026-03-27T12:09:53.861Z</time></trkpt><trkpt lat="40.6652651" lon="9.6038325"><ele>448.20000000000005</ele><time>2026-03-27T12:09:55.85Z</time></trkpt><trkpt lat="40.6652031" lon="9.6038947"><ele>447.6</ele><time>2026-03-27T12:09:56.845Z</time></trkpt><trkpt lat="40.6651434" lon="9.6039735"><ele>447.0</ele><time>2026-03-27T12:09:57.851Z</time></trkpt><trkpt lat="40.6650872" lon="9.6040477"><ele>447.0</ele><time>2026-03-27T12:09:58.853Z</time></trkpt><trkpt lat="40.6650215" lon="9.6041161"><ele>447.00000000000006</ele><time>2026-03-27T12:09:59.851Z</time></trkpt><trkpt lat="40.6649455" lon="9.6041986"><ele>447.00000000000006</ele><time>2026-03-27T12:10:00.848Z</time></trkpt><trkpt lat="40.6648742" lon="9.6042741"><ele>447.0</ele><time>2026-03-27T12:10:01.849Z</time></trkpt><trkpt lat="40.6647957" lon="9.6043312"><ele>447.0</ele><time>2026-03-27T12:10:02.852Z</time></trkpt><trkpt lat="40.6647078" lon="9.6043765"><ele>447.0</ele><time>2026-03-27T12:10:03.849Z</time></trkpt><trkpt lat="40.6646101" lon="9.6044138"><ele>447.00000000000006</ele><time>2026-03-27T12:10:04.85Z</time></trkpt><trkpt lat="40.6645116" lon="9.6044524"><ele>447.00000000000006</ele><time>2026-03-27T12:10:05.856Z</time></trkpt><trkpt lat="40.6644191" lon="9.6044934"><ele>447.0</ele><time>2026-03-27T12:10:06.851Z</time></trkpt><trkpt lat="40.664334" lon="9.6045326"><ele>447.0</ele><time>2026-03-27T12:10:07.859Z</time></trkpt><trkpt lat="40.6642595" lon="9.6045646"><ele>446.8</ele><time>2026-03-27T12:10:08.85Z</time></trkpt><trkpt lat="40.6641478" lon="9.604553"><ele>446.6</ele><time>2026-03-27T12:10:10.85Z</time></trkpt><trkpt lat="40.6640622" lon="9.6044672"><ele>446.40000000000003</ele><time>2026-03-27T12:10:12.845Z</time></trkpt><trkpt lat="40.6639956" lon="9.6043437"><ele>446.20000000000005</ele><time>2026-03-27T12:10:14.853Z</time></trkpt><trkpt lat="40.6639715" lon="9.6042649"><ele>446.0</ele><time>2026-03-27T12:10:15.849Z</time></trkpt><trkpt lat="40.6639336" lon="9.6041385"><ele>444.8333333333333</ele><time>2026-03-27T12:10:17.842Z</time></trkpt><trkpt lat="40.6639117" lon="9.6040363"><ele>443.66666666666663</ele><time>2026-03-27T12:10:27.845Z</time></trkpt><trkpt lat="40.6638875" lon="9.6039433"><ele>442.5</ele><time>2026-03-27T12:10:29.86Z</time></trkpt><trkpt lat="40.6638658" lon="9.6038466"><ele>441.33333333333337</ele><time>2026-03-27T12:10:31.851Z</time></trkpt><trkpt lat="40.6638308" lon="9.6037508"><ele>440.1666666666667</ele><time>2026-03-27T12:10:33.852Z</time></trkpt><trkpt lat="40.663744" lon="9.6036862"><ele>439.0</ele><time>2026-03-27T12:10:35.852Z</time></trkpt><trkpt lat="40.66368" lon="9.6036609"><ele>437.6666666666667</ele><time>2026-03-27T12:10:36.848Z</time></trkpt><trkpt lat="40.663614" lon="9.6036427"><ele>436.33333333333337</ele><time>2026-03-27T12:10:37.852Z</time></trkpt><trkpt lat="40.6635456" lon="9.6036405"><ele>435.0</ele><time>2026-03-27T12:10:38.846Z</time></trkpt><trkpt lat="40.6634773" lon="9.603639"><ele>433.66666666666663</ele><time>2026-03-27T12:10:39.852Z</time></trkpt><trkpt lat="40.6634093" lon="9.6036399"><ele>432.3333333333333</ele><time>2026-03-27T12:10:40.853Z</time></trkpt><trkpt lat="40.663343" lon="9.603641"><ele>431.0</ele><time>2026-03-27T12:10:41.848Z</time></trkpt><trkpt lat="40.6632268" lon="9.60364"><ele>430.4</ele><time>2026-03-27T12:10:43.842Z</time></trkpt><trkpt lat="40.6631514" lon="9.6036733"><ele>429.8</ele><time>2026-03-27T12:10:45.843Z</time></trkpt><trkpt lat="40.6630812" lon="9.6037485"><ele>429.19999999999993</ele><time>2026-03-27T12:10:47.847Z</time></trkpt><trkpt lat="40.662961" lon="9.6037355"><ele>428.59999999999997</ele><time>2026-03-27T12:10:49.843Z</time></trkpt><trkpt lat="40.6628849" lon="9.6036932"><ele>428.0</ele><time>2026-03-27T12:10:50.842Z</time></trkpt><trkpt lat="40.6628122" lon="9.6036479"><ele>426.49999999999994</ele><time>2026-03-27T12:10:51.85Z</time></trkpt><trkpt lat="40.6627354" lon="9.6036055"><ele>425.0</ele><time>2026-03-27T12:10:52.841Z</time></trkpt><trkpt lat="40.6626633" lon="9.6035644"><ele>423.5</ele><time>2026-03-27T12:10:53.86Z</time></trkpt><trkpt lat="40.662599" lon="9.6035403"><ele>422.0</ele><time>2026-03-27T12:10:54.843Z</time></trkpt><trkpt lat="40.6625012" lon="9.6035636"><ele>420.49999999999994</ele><time>2026-03-27T12:10:56.852Z</time></trkpt><trkpt lat="40.6624" lon="9.6036518"><ele>419.0</ele><time>2026-03-27T12:10:58.855Z</time></trkpt><trkpt lat="40.662299" lon="9.6037102"><ele>419.0</ele><time>2026-03-27T12:11:00.844Z</time></trkpt><trkpt lat="40.6621939" lon="9.6036784"><ele>419.0</ele><time>2026-03-27T12:11:02.847Z</time></trkpt><trkpt lat="40.6620776" lon="9.6035865"><ele>419.0</ele><time>2026-03-27T12:11:04.85Z</time></trkpt><trkpt lat="40.6620154" lon="9.603519"><ele>419.0</ele><time>2026-03-27T12:11:05.853Z</time></trkpt><trkpt lat="40.6619589" lon="9.6034566"><ele>419.0</ele><time>2026-03-27T12:11:06.848Z</time></trkpt><trkpt lat="40.6619029" lon="9.6033963"><ele>416.66666666666663</ele><time>2026-03-27T12:11:07.852Z</time></trkpt><trkpt lat="40.6618396" lon="9.6033338"><ele>414.3333333333333</ele><time>2026-03-27T12:11:08.847Z</time></trkpt><trkpt lat="40.6617675" lon="9.6032843"><ele>412.0</ele><time>2026-03-27T12:11:09.847Z</time></trkpt><trkpt lat="40.6616987" lon="9.6032324"><ele>409.66666666666663</ele><time>2026-03-27T12:11:10.845Z</time></trkpt><trkpt lat="40.6616342" lon="9.6031858"><ele>407.3333333333333</ele><time>2026-03-27T12:11:11.847Z</time></trkpt><trkpt lat="40.6615737" lon="9.6031359"><ele>405.0</ele><time>2026-03-27T12:11:12.846Z</time></trkpt><trkpt lat="40.6615194" lon="9.6030814"><ele>405.0</ele><time>2026-03-27T12:11:13.851Z</time></trkpt><trkpt lat="40.6614581" lon="9.6030179"><ele>405.0</ele><time>2026-03-27T12:11:14.843Z</time></trkpt><trkpt lat="40.6613955" lon="9.6029586"><ele>405.0</ele><time>2026-03-27T12:11:15.846Z</time></trkpt><trkpt lat="40.6613311" lon="9.6028969"><ele>405.0</ele><time>2026-03-27T12:11:16.841Z</time></trkpt><trkpt lat="40.6612674" lon="9.6028367"><ele>405.0</ele><time>2026-03-27T12:11:17.848Z</time></trkpt><trkpt lat="40.6612082" lon="9.6027786"><ele>405.0</ele><time>2026-03-27T12:11:18.847Z</time></trkpt><trkpt lat="40.661146" lon="9.6027152"><ele>402.8333333333333</ele><time>2026-03-27T12:11:19.851Z</time></trkpt><trkpt lat="40.6610763" lon="9.6026455"><ele>400.66666666666663</ele><time>2026-03-27T12:11:20.846Z</time></trkpt><trkpt lat="40.6610064" lon="9.6025759"><ele>398.5</ele><time>2026-03-27T12:11:21.843Z</time></trkpt><trkpt lat="40.6609424" lon="9.6025157"><ele>396.3333333333333</ele><time>2026-03-27T12:11:22.845Z</time></trkpt><trkpt lat="40.6608762" lon="9.6024632"><ele>394.16666666666663</ele><time>2026-03-27T12:11:23.842Z</time></trkpt><trkpt lat="40.6607986" lon="9.60242"><ele>392.0</ele><time>2026-03-27T12:11:24.86Z</time></trkpt><trkpt lat="40.6607227" lon="9.6023733"><ele>391.99999999999994</ele><time>2026-03-27T12:11:25.845Z</time></trkpt><trkpt lat="40.6606555" lon="9.6023165"><ele>392.0</ele><time>2026-03-27T12:11:26.842Z</time></trkpt><trkpt lat="40.6605957" lon="9.6022509"><ele>392.0</ele><time>2026-03-27T12:11:27.851Z</time></trkpt><trkpt lat="40.6605382" lon="9.6021699"><ele>392.0</ele><time>2026-03-27T12:11:28.843Z</time></trkpt><trkpt lat="40.6604781" lon="9.6020889"><ele>391.99999999999994</ele><time>2026-03-27T12:11:29.851Z</time></trkpt><trkpt lat="40.6604169" lon="9.6020051"><ele>392.0</ele><time>2026-03-27T12:11:30.851Z</time></trkpt><trkpt lat="40.6603577" lon="9.6019236"><ele>393.6</ele><time>2026-03-27T12:11:31.846Z</time></trkpt><trkpt lat="40.6602944" lon="9.6018407"><ele>395.20000000000005</ele><time>2026-03-27T12:11:32.842Z</time></trkpt><trkpt lat="40.6602261" lon="9.6017688"><ele>396.8</ele><time>2026-03-27T12:11:33.85Z</time></trkpt><trkpt lat="40.6601466" lon="9.6017115"><ele>398.4</ele><time>2026-03-27T12:11:34.852Z</time></trkpt><trkpt lat="40.6600639" lon="9.6016452"><ele>400.0</ele><time>2026-03-27T12:11:35.849Z</time></trkpt><trkpt lat="40.659986" lon="9.6015848"><ele>397.33333333333337</ele><time>2026-03-27T12:11:36.869Z</time></trkpt><trkpt lat="40.6599121" lon="9.6015351"><ele>394.6666666666667</ele><time>2026-03-27T12:11:37.845Z</time></trkpt><trkpt lat="40.6598506" lon="9.6014878"><ele>392.0</ele><time>2026-03-27T12:11:38.854Z</time></trkpt><trkpt lat="40.65978" lon="9.6013998"><ele>389.33333333333337</ele><time>2026-03-27T12:11:40.847Z</time></trkpt><trkpt lat="40.6597392" lon="9.6012742"><ele>386.6666666666667</ele><time>2026-03-27T12:11:42.849Z</time></trkpt><trkpt lat="40.6597233" lon="9.6011831"><ele>384.0</ele><time>2026-03-27T12:11:43.855Z</time></trkpt><trkpt lat="40.6597032" lon="9.6010944"><ele>384.0</ele><time>2026-03-27T12:11:44.852Z</time></trkpt><trkpt lat="40.6596807" lon="9.6010017"><ele>384.0</ele><time>2026-03-27T12:11:45.849Z</time></trkpt><trkpt lat="40.6596573" lon="9.6009049"><ele>384.0</ele><time>2026-03-27T12:11:46.849Z</time></trkpt><trkpt lat="40.6596415" lon="9.600818"><ele>384.0</ele><time>2026-03-27T12:11:47.846Z</time></trkpt><trkpt lat="40.6596225" lon="9.6007233"><ele>384.0</ele><time>2026-03-27T12:11:48.853Z</time></trkpt><trkpt lat="40.6596047" lon="9.6006223"><ele>384.0</ele><time>2026-03-27T12:11:49.853Z</time></trkpt><trkpt lat="40.6595773" lon="9.6005259"><ele>384.0</ele><time>2026-03-27T12:11:50.849Z</time></trkpt><trkpt lat="40.6595501" lon="9.6004289"><ele>384.0</ele><time>2026-03-27T12:11:51.849Z</time></trkpt><trkpt lat="40.6595114" lon="9.6003393"><ele>384.0</ele><time>2026-03-27T12:11:52.847Z</time></trkpt><trkpt lat="40.6594643" lon="9.6002457"><ele>384.0</ele><time>2026-03-27T12:11:53.848Z</time></trkpt><trkpt lat="40.6594168" lon="9.6001555"><ele>384.0</ele><time>2026-03-27T12:11:54.848Z</time></trkpt><trkpt lat="40.6593698" lon="9.6000738"><ele>384.0</ele><time>2026-03-27T12:11:55.842Z</time></trkpt><trkpt lat="40.6593265" lon="9.6000016"><ele>380.1666666666667</ele><time>2026-03-27T12:11:56.841Z</time></trkpt><trkpt lat="40.6592831" lon="9.5999254"><ele>376.3333333333333</ele><time>2026-03-27T12:11:57.843Z</time></trkpt><trkpt lat="40.6592315" lon="9.5998541"><ele>372.5</ele><time>2026-03-27T12:11:58.864Z</time></trkpt><trkpt lat="40.6591783" lon="9.5997883"><ele>368.66666666666663</ele><time>2026-03-27T12:11:59.846Z</time></trkpt><trkpt lat="40.65908" lon="9.5997054"><ele>364.8333333333333</ele><time>2026-03-27T12:12:01.843Z</time></trkpt><trkpt lat="40.6590131" lon="9.5996848"><ele>361.0</ele><time>2026-03-27T12:12:02.849Z</time></trkpt><trkpt lat="40.6589413" lon="9.5996659"><ele>361.0</ele><time>2026-03-27T12:12:03.843Z</time></trkpt><trkpt lat="40.6588705" lon="9.5996469"><ele>361.0</ele><time>2026-03-27T12:12:04.845Z</time></trkpt><trkpt lat="40.6587602" lon="9.5996273"><ele>361.0</ele><time>2026-03-27T12:12:06.845Z</time></trkpt><trkpt lat="40.6586833" lon="9.5996211"><ele>361.0</ele><time>2026-03-27T12:12:08.849Z</time></trkpt><trkpt lat="40.6585939" lon="9.5996253"><ele>361.0</ele><time>2026-03-27T12:12:10.849Z</time></trkpt><trkpt lat="40.6585098" lon="9.5996344"><ele>361.0</ele><time>2026-03-27T12:12:12.849Z</time></trkpt><trkpt lat="40.6584414" lon="9.5997174"><ele>359.5714285714286</ele><time>2026-03-27T12:12:14.851Z</time></trkpt><trkpt lat="40.6584145" lon="9.5998587"><ele>358.1428571428571</ele><time>2026-03-27T12:12:16.849Z</time></trkpt><trkpt lat="40.6584139" lon="9.5999418"><ele>356.7142857142857</ele><time>2026-03-27T12:12:17.841Z</time></trkpt><trkpt lat="40.6584154" lon="9.6000276"><ele>355.28571428571433</ele><time>2026-03-27T12:12:18.846Z</time></trkpt><trkpt lat="40.6584218" lon="9.6001211"><ele>353.8571428571429</ele><time>2026-03-27T12:12:19.841Z</time></trkpt><trkpt lat="40.6584289" lon="9.6002148"><ele>352.42857142857144</ele><time>2026-03-27T12:12:20.845Z</time></trkpt><trkpt lat="40.6584302" lon="9.6003032"><ele>351.0</ele><time>2026-03-27T12:12:21.848Z</time></trkpt><trkpt lat="40.658432" lon="9.6003884"><ele>350.0</ele><time>2026-03-27T12:12:22.852Z</time></trkpt><trkpt lat="40.6584301" lon="9.6004731"><ele>349.0</ele><time>2026-03-27T12:12:23.85Z</time></trkpt><trkpt lat="40.658424" lon="9.600562"><ele>348.0</ele><time>2026-03-27T12:12:24.846Z</time></trkpt><trkpt lat="40.6584161" lon="9.6006625"><ele>347.0</ele><time>2026-03-27T12:12:25.843Z</time></trkpt><trkpt lat="40.6584079" lon="9.6007649"><ele>346.0</ele><time>2026-03-27T12:12:26.847Z</time></trkpt><trkpt lat="40.6583977" lon="9.6008786"><ele>345.0</ele><time>2026-03-27T12:12:27.85Z</time></trkpt><trkpt lat="40.6583698" lon="9.6010072"><ele>345.0</ele><time>2026-03-27T12:12:28.848Z</time></trkpt><trkpt lat="40.6583498" lon="9.6011308"><ele>345.0</ele><time>2026-03-27T12:12:29.85Z</time></trkpt><trkpt lat="40.6583138" lon="9.6012418"><ele>345.0</ele><time>2026-03-27T12:12:30.846Z</time></trkpt><trkpt lat="40.6582788" lon="9.6013452"><ele>345.0</ele><time>2026-03-27T12:12:31.847Z</time></trkpt><trkpt lat="40.658243" lon="9.6014459"><ele>345.0</ele><time>2026-03-27T12:12:32.848Z</time></trkpt><trkpt lat="40.658204" lon="9.6015433"><ele>345.0</ele><time>2026-03-27T12:12:33.849Z</time></trkpt><trkpt lat="40.6581644" lon="9.6016416"><ele>343.8571428571429</ele><time>2026-03-27T12:12:34.845Z</time></trkpt><trkpt lat="40.6581262" lon="9.6017227"><ele>342.7142857142857</ele><time>2026-03-27T12:12:35.846Z</time></trkpt><trkpt lat="40.6580668" lon="9.6017721"><ele>341.57142857142856</ele><time>2026-03-27T12:12:36.848Z</time></trkpt><trkpt lat="40.658009" lon="9.6018154"><ele>340.42857142857144</ele><time>2026-03-27T12:12:37.852Z</time></trkpt><trkpt lat="40.6579376" lon="9.6018327"><ele>339.2857142857143</ele><time>2026-03-27T12:12:38.85Z</time></trkpt><trkpt lat="40.6578642" lon="9.601844"><ele>338.14285714285717</ele><time>2026-03-27T12:12:39.849Z</time></trkpt><trkpt lat="40.6577949" lon="9.6018679"><ele>337.0</ele><time>2026-03-27T12:12:40.844Z</time></trkpt><trkpt lat="40.6577348" lon="9.601906"><ele>335.40000000000003</ele><time>2026-03-27T12:12:41.85Z</time></trkpt><trkpt lat="40.6576518" lon="9.60199"><ele>333.8</ele><time>2026-03-27T12:12:43.843Z</time></trkpt><trkpt lat="40.6575959" lon="9.6020634"><ele>332.2</ele><time>2026-03-27T12:12:45.849Z</time></trkpt><trkpt lat="40.6576342" lon="9.6021643"><ele>330.6</ele><time>2026-03-27T12:12:48.845Z</time></trkpt><trkpt lat="40.6577218" lon="9.6022378"><ele>329.0</ele><time>2026-03-27T12:12:50.846Z</time></trkpt><trkpt lat="40.6577768" lon="9.6023149"><ele>326.2</ele><time>2026-03-27T12:12:52.865Z</time></trkpt><trkpt lat="40.6577849" lon="9.6024114"><ele>323.4</ele><time>2026-03-27T12:12:55.851Z</time></trkpt><trkpt lat="40.6577027" lon="9.6024348"><ele>320.6</ele><time>2026-03-27T12:12:58.849Z</time></trkpt><trkpt lat="40.6576176" lon="9.6024118"><ele>317.8</ele><time>2026-03-27T12:13:00.844Z</time></trkpt><trkpt lat="40.6575152" lon="9.602421"><ele>315.0</ele><time>2026-03-27T12:13:02.852Z</time></trkpt><trkpt lat="40.6574019" lon="9.6024591"><ele>315.0</ele><time>2026-03-27T12:13:04.848Z</time></trkpt><trkpt lat="40.6572929" lon="9.6024817"><ele>315.0</ele><time>2026-03-27T12:13:06.842Z</time></trkpt><trkpt lat="40.6571872" lon="9.6024381"><ele>315.0</ele><time>2026-03-27T12:13:08.848Z</time></trkpt><trkpt lat="40.6570853" lon="9.6023314"><ele>315.0</ele><time>2026-03-27T12:13:10.842Z</time></trkpt><trkpt lat="40.657031" lon="9.6022613"><ele>315.0</ele><time>2026-03-27T12:13:11.847Z</time></trkpt><trkpt lat="40.6569728" lon="9.6021847"><ele>313.6666666666667</ele><time>2026-03-27T12:13:12.846Z</time></trkpt><trkpt lat="40.6569204" lon="9.6021057"><ele>312.3333333333333</ele><time>2026-03-27T12:13:13.849Z</time></trkpt><trkpt lat="40.6568648" lon="9.6020331"><ele>311.0</ele><time>2026-03-27T12:13:14.848Z</time></trkpt><trkpt lat="40.6568082" lon="9.6019666"><ele>309.66666666666663</ele><time>2026-03-27T12:13:15.846Z</time></trkpt><trkpt lat="40.6567554" lon="9.6019018"><ele>308.3333333333333</ele><time>2026-03-27T12:13:16.846Z</time></trkpt><trkpt lat="40.6567019" lon="9.6018354"><ele>307.0</ele><time>2026-03-27T12:13:17.842Z</time></trkpt><trkpt lat="40.6566445" lon="9.6017693"><ele>307.0</ele><time>2026-03-27T12:13:18.846Z</time></trkpt><trkpt lat="40.6565847" lon="9.6017032"><ele>307.0</ele><time>2026-03-27T12:13:19.845Z</time></trkpt><trkpt lat="40.6565224" lon="9.6016381"><ele>307.0</ele><time>2026-03-27T12:13:20.844Z</time></trkpt><trkpt lat="40.6564633" lon="9.6015738"><ele>307.0</ele><time>2026-03-27T12:13:21.844Z</time></trkpt><trkpt lat="40.6564072" lon="9.6015209"><ele>307.0</ele><time>2026-03-27T12:13:22.841Z</time></trkpt><trkpt lat="40.6563057" lon="9.601445"><ele>307.0</ele><time>2026-03-27T12:13:24.838Z</time></trkpt><trkpt lat="40.6562422" lon="9.6014097"><ele>306.99999999999994</ele><time>2026-03-27T12:13:25.864Z</time></trkpt><trkpt lat="40.6561811" lon="9.6013691"><ele>307.0</ele><time>2026-03-27T12:13:26.844Z</time></trkpt><trkpt lat="40.6561143" lon="9.60133"><ele>307.0</ele><time>2026-03-27T12:13:27.845Z</time></trkpt><trkpt lat="40.6560466" lon="9.6012891"><ele>307.0</ele><time>2026-03-27T12:13:28.845Z</time></trkpt><trkpt lat="40.6559788" lon="9.6012488"><ele>307.0</ele><time>2026-03-27T12:13:29.844Z</time></trkpt><trkpt lat="40.6559072" lon="9.6012125"><ele>306.99999999999994</ele><time>2026-03-27T12:13:30.842Z</time></trkpt><trkpt lat="40.6558359" lon="9.6011865"><ele>307.0</ele><time>2026-03-27T12:13:31.847Z</time></trkpt><trkpt lat="40.6557683" lon="9.6011609"><ele>306.1428571428571</ele><time>2026-03-27T12:13:32.841Z</time></trkpt><trkpt lat="40.6557006" lon="9.601138"><ele>305.2857142857143</ele><time>2026-03-27T12:13:33.85Z</time></trkpt><trkpt lat="40.6556299" lon="9.6011247"><ele>304.42857142857144</ele><time>2026-03-27T12:13:34.844Z</time></trkpt><trkpt lat="40.6555544" lon="9.601128"><ele>303.57142857142856</ele><time>2026-03-27T12:13:35.841Z</time></trkpt><trkpt lat="40.6554838" lon="9.6011293"><ele>302.7142857142857</ele><time>2026-03-27T12:13:36.841Z</time></trkpt><trkpt lat="40.6554187" lon="9.6011307"><ele>301.85714285714283</ele><time>2026-03-27T12:13:37.841Z</time></trkpt><trkpt lat="40.6553536" lon="9.6011309"><ele>301.0</ele><time>2026-03-27T12:13:38.842Z</time></trkpt><trkpt lat="40.6552883" lon="9.6011254"><ele>298.14285714285717</ele><time>2026-03-27T12:13:39.849Z</time></trkpt><trkpt lat="40.6552201" lon="9.6011195"><ele>295.2857142857143</ele><time>2026-03-27T12:13:40.843Z</time></trkpt><trkpt lat="40.6551557" lon="9.6011123"><ele>292.42857142857144</ele><time>2026-03-27T12:13:41.864Z</time></trkpt><trkpt lat="40.6550904" lon="9.601103"><ele>289.57142857142856</ele><time>2026-03-27T12:13:42.844Z</time></trkpt><trkpt lat="40.655024" lon="9.6010874"><ele>286.7142857142857</ele><time>2026-03-27T12:13:43.841Z</time></trkpt><trkpt lat="40.6549556" lon="9.6010715"><ele>283.8571428571429</ele><time>2026-03-27T12:13:44.841Z</time></trkpt><trkpt lat="40.6548896" lon="9.6010589"><ele>281.0</ele><time>2026-03-27T12:13:45.843Z</time></trkpt><trkpt lat="40.6548228" lon="9.6010443"><ele>281.0</ele><time>2026-03-27T12:13:46.843Z</time></trkpt><trkpt lat="40.654707" lon="9.6010362"><ele>281.0</ele><time>2026-03-27T12:13:48.852Z</time></trkpt><trkpt lat="40.654602" lon="9.6010405"><ele>281.0</ele><time>2026-03-27T12:13:50.843Z</time></trkpt><trkpt lat="40.6545181" lon="9.6010355"><ele>281.0</ele><time>2026-03-27T12:13:52.847Z</time></trkpt><trkpt lat="40.6544292" lon="9.6010337"><ele>281.0</ele><time>2026-03-27T12:13:54.856Z</time></trkpt><trkpt lat="40.654345" lon="9.6010478"><ele>278.0</ele><time>2026-03-27T12:13:56.844Z</time></trkpt><trkpt lat="40.6542629" lon="9.6010721"><ele>275.0</ele><time>2026-03-27T12:13:58.847Z</time></trkpt><trkpt lat="40.6541776" lon="9.6010754"><ele>272.0</ele><time>2026-03-27T12:14:00.851Z</time></trkpt><trkpt lat="40.6540896" lon="9.6010159"><ele>269.0</ele><time>2026-03-27T12:14:02.854Z</time></trkpt><trkpt lat="40.6539813" lon="9.6009016"><ele>266.0</ele><time>2026-03-27T12:14:04.85Z</time></trkpt><trkpt lat="40.6539197" lon="9.6008299"><ele>266.0</ele><time>2026-03-27T12:14:05.847Z</time></trkpt><trkpt lat="40.6538641" lon="9.600765"><ele>266.0</ele><time>2026-03-27T12:14:06.846Z</time></trkpt><trkpt lat="40.6538123" lon="9.6006955"><ele>266.0</ele><time>2026-03-27T12:14:07.846Z</time></trkpt><trkpt lat="40.6537682" lon="9.6006233"><ele>266.0</ele><time>2026-03-27T12:14:08.845Z</time></trkpt><trkpt lat="40.6537283" lon="9.6005522"><ele>266.0</ele><time>2026-03-27T12:14:09.852Z</time></trkpt><trkpt lat="40.6536687" lon="9.6004437"><ele>266.0</ele><time>2026-03-27T12:14:11.849Z</time></trkpt><trkpt lat="40.6536075" lon="9.6003738"><ele>261.6</ele><time>2026-03-27T12:14:14.857Z</time></trkpt><trkpt lat="40.6535541" lon="9.6004327"><ele>257.20000000000005</ele><time>2026-03-27T12:14:17.849Z</time></trkpt><trkpt lat="40.6535614" lon="9.6005664"><ele>252.79999999999998</ele><time>2026-03-27T12:14:19.846Z</time></trkpt><trkpt lat="40.6535786" lon="9.6007192"><ele>248.39999999999998</ele><time>2026-03-27T12:14:21.846Z</time></trkpt><trkpt lat="40.653584" lon="9.6008058"><ele>244.0</ele><time>2026-03-27T12:14:22.85Z</time></trkpt><trkpt lat="40.6535876" lon="9.6009637"><ele>244.0</ele><time>2026-03-27T12:14:24.84Z</time></trkpt><trkpt lat="40.6535805" lon="9.601115"><ele>243.99999999999997</ele><time>2026-03-27T12:14:26.847Z</time></trkpt><trkpt lat="40.6535807" lon="9.6012264"><ele>243.99999999999997</ele><time>2026-03-27T12:14:28.843Z</time></trkpt><trkpt lat="40.6535292" lon="9.601303"><ele>244.0</ele><time>2026-03-27T12:14:31.848Z</time></trkpt><trkpt lat="40.6534704" lon="9.6012321"><ele>244.0</ele><time>2026-03-27T12:14:33.856Z</time></trkpt><trkpt lat="40.6534125" lon="9.6011267"><ele>244.0</ele><time>2026-03-27T12:14:35.847Z</time></trkpt><trkpt lat="40.6533455" lon="9.6010408"><ele>243.99999999999997</ele><time>2026-03-27T12:14:37.849Z</time></trkpt><trkpt lat="40.6532544" lon="9.6009704"><ele>243.99999999999997</ele><time>2026-03-27T12:14:39.843Z</time></trkpt><trkpt lat="40.6531451" lon="9.6009082"><ele>244.0</ele><time>2026-03-27T12:14:41.848Z</time></trkpt><trkpt lat="40.6530594" lon="9.6008321"><ele>244.0</ele><time>2026-03-27T12:14:43.863Z</time></trkpt><trkpt lat="40.6529884" lon="9.6007107"><ele>243.99999999999997</ele><time>2026-03-27T12:14:45.843Z</time></trkpt><trkpt lat="40.6529278" lon="9.6005848"><ele>244.0</ele><time>2026-03-27T12:14:47.847Z</time></trkpt><trkpt lat="40.6528684" lon="9.6004717"><ele>244.0</ele><time>2026-03-27T12:14:49.853Z</time></trkpt><trkpt lat="40.6528362" lon="9.600397"><ele>244.0</ele><time>2026-03-27T12:14:51.852Z</time></trkpt><trkpt lat="40.652817" lon="9.600311"><ele>243.99999999999997</ele><time>2026-03-27T12:14:54.851Z</time></trkpt><trkpt lat="40.6527492" lon="9.6003602"><ele>244.0</ele><time>2026-03-27T12:15:00.849Z</time></trkpt><trkpt lat="40.652745" lon="9.6004694"><ele>238.79999999999998</ele><time>2026-03-27T12:15:02.853Z</time></trkpt><trkpt lat="40.6527463" lon="9.6006023"><ele>233.59999999999997</ele><time>2026-03-27T12:15:04.848Z</time></trkpt><trkpt lat="40.6527194" lon="9.6007496"><ele>228.4</ele><time>2026-03-27T12:15:06.85Z</time></trkpt><trkpt lat="40.6526739" lon="9.600883"><ele>223.2</ele><time>2026-03-27T12:15:08.844Z</time></trkpt><trkpt lat="40.6526301" lon="9.6009476"><ele>218.0</ele><time>2026-03-27T12:15:10.848Z</time></trkpt><trkpt lat="40.652554" lon="9.600895"><ele>218.00000000000003</ele><time>2026-03-27T12:15:13.848Z</time></trkpt><trkpt lat="40.6525482" lon="9.6007409"><ele>218.0</ele><time>2026-03-27T12:15:15.847Z</time></trkpt><trkpt lat="40.6525455" lon="9.6006572"><ele>218.0</ele><time>2026-03-27T12:15:16.842Z</time></trkpt><trkpt lat="40.6525217" lon="9.6005722"><ele>218.0</ele><time>2026-03-27T12:15:17.849Z</time></trkpt><trkpt lat="40.6524861" lon="9.6005024"><ele>218.00000000000003</ele><time>2026-03-27T12:15:18.841Z</time></trkpt><trkpt lat="40.6524338" lon="9.6003731"><ele>218.0</ele><time>2026-03-27T12:15:20.846Z</time></trkpt><trkpt lat="40.6524162" lon="9.6002014"><ele>218.16666666666669</ele><time>2026-03-27T12:15:22.845Z</time></trkpt><trkpt lat="40.6524133" lon="9.6000943"><ele>218.33333333333334</ele><time>2026-03-27T12:15:23.847Z</time></trkpt><trkpt lat="40.6524018" lon="9.5999882"><ele>218.5</ele><time>2026-03-27T12:15:24.854Z</time></trkpt><trkpt lat="40.6523838" lon="9.5998829"><ele>218.66666666666669</ele><time>2026-03-27T12:15:25.846Z</time></trkpt><trkpt lat="40.6523672" lon="9.5997684"><ele>218.83333333333334</ele><time>2026-03-27T12:15:26.843Z</time></trkpt><trkpt lat="40.6523565" lon="9.5996503"><ele>219.0</ele><time>2026-03-27T12:15:27.85Z</time></trkpt><trkpt lat="40.6523481" lon="9.5995301"><ele>218.79999999999998</ele><time>2026-03-27T12:15:28.842Z</time></trkpt><trkpt lat="40.6523396" lon="9.5994064"><ele>218.59999999999997</ele><time>2026-03-27T12:15:29.866Z</time></trkpt><trkpt lat="40.652331" lon="9.59928"><ele>218.4</ele><time>2026-03-27T12:15:30.845Z</time></trkpt><trkpt lat="40.6523217" lon="9.5991573"><ele>218.2</ele><time>2026-03-27T12:15:31.844Z</time></trkpt><trkpt lat="40.6523136" lon="9.5990368"><ele>218.0</ele><time>2026-03-27T12:15:32.843Z</time></trkpt><trkpt lat="40.6523075" lon="9.5989288"><ele>218.00000000000003</ele><time>2026-03-27T12:15:33.848Z</time></trkpt><trkpt lat="40.6523139" lon="9.5988219"><ele>218.0</ele><time>2026-03-27T12:15:34.85Z</time></trkpt><trkpt lat="40.6523187" lon="9.5987322"><ele>218.0</ele><time>2026-03-27T12:15:35.845Z</time></trkpt><trkpt lat="40.652316" lon="9.5985908"><ele>218.0</ele><time>2026-03-27T12:15:37.85Z</time></trkpt><trkpt lat="40.6522422" lon="9.5986104"><ele>218.00000000000003</ele><time>2026-03-27T12:15:40.869Z</time></trkpt><trkpt lat="40.6522228" lon="9.5987494"><ele>218.0</ele><time>2026-03-27T12:15:42.843Z</time></trkpt><trkpt lat="40.6522099" lon="9.5988325"><ele>218.00000000000003</ele><time>2026-03-27T12:15:43.849Z</time></trkpt><trkpt lat="40.6521903" lon="9.5989266"><ele>218.0</ele><time>2026-03-27T12:15:44.846Z</time></trkpt><trkpt lat="40.6521701" lon="9.5990286"><ele>218.0</ele><time>2026-03-27T12:15:45.845Z</time></trkpt><trkpt lat="40.6521487" lon="9.5991485"><ele>218.0</ele><time>2026-03-27T12:15:46.853Z</time></trkpt><trkpt lat="40.6521277" lon="9.5992708"><ele>218.00000000000003</ele><time>2026-03-27T12:15:47.844Z</time></trkpt><trkpt lat="40.652105" lon="9.5994006"><ele>218.0</ele><time>2026-03-27T12:15:48.846Z</time></trkpt><trkpt lat="40.6520827" lon="9.5995327"><ele>218.16666666666669</ele><time>2026-03-27T12:15:49.844Z</time></trkpt><trkpt lat="40.6520634" lon="9.5996557"><ele>218.33333333333334</ele><time>2026-03-27T12:15:50.843Z</time></trkpt><trkpt lat="40.6520451" lon="9.5997715"><ele>218.5</ele><time>2026-03-27T12:15:51.846Z</time></trkpt><trkpt lat="40.6520311" lon="9.5998784"><ele>218.66666666666669</ele><time>2026-03-27T12:15:52.844Z</time></trkpt><trkpt lat="40.6520173" lon="9.5999856"><ele>218.83333333333334</ele><time>2026-03-27T12:15:53.849Z</time></trkpt><trkpt lat="40.6520053" lon="9.6000823"><ele>219.0</ele><time>2026-03-27T12:15:54.85Z</time></trkpt><trkpt lat="40.6519839" lon="9.6001682"><ele>219.0</ele><time>2026-03-27T12:15:55.852Z</time></trkpt><trkpt lat="40.6519625" lon="9.6002577"><ele>219.0</ele><time>2026-03-27T12:15:56.845Z</time></trkpt><trkpt lat="40.6519263" lon="9.6003435"><ele>219.0</ele><time>2026-03-27T12:15:57.849Z</time></trkpt><trkpt lat="40.6518814" lon="9.6004138"><ele>219.0</ele><time>2026-03-27T12:15:58.841Z</time></trkpt><trkpt lat="40.6518279" lon="9.6004814"><ele>219.0</ele><time>2026-03-27T12:15:59.85Z</time></trkpt><trkpt lat="40.6517756" lon="9.6005457"><ele>219.0</ele><time>2026-03-27T12:16:00.849Z</time></trkpt><trkpt lat="40.6517324" lon="9.6006224"><ele>219.0</ele><time>2026-03-27T12:16:01.848Z</time></trkpt><trkpt lat="40.6516993" lon="9.6007163"><ele>213.83333333333334</ele><time>2026-03-27T12:16:02.854Z</time></trkpt><trkpt lat="40.6516606" lon="9.6008031"><ele>208.66666666666666</ele><time>2026-03-27T12:16:03.848Z</time></trkpt><trkpt lat="40.6516306" lon="9.6008853"><ele>203.5</ele><time>2026-03-27T12:16:04.854Z</time></trkpt><trkpt lat="40.651601" lon="9.6009654"><ele>198.33333333333331</ele><time>2026-03-27T12:16:05.849Z</time></trkpt><trkpt lat="40.6515743" lon="9.6010754"><ele>193.16666666666666</ele><time>2026-03-27T12:16:07.845Z</time></trkpt><trkpt lat="40.6515018" lon="9.6011156"><ele>188.0</ele><time>2026-03-27T12:16:10.849Z</time></trkpt><trkpt lat="40.6514315" lon="9.6010589"><ele>188.0</ele><time>2026-03-27T12:16:13.845Z</time></trkpt><trkpt lat="40.6514079" lon="9.600959"><ele>188.0</ele><time>2026-03-27T12:16:15.865Z</time></trkpt><trkpt lat="40.6513715" lon="9.6008125"><ele>188.0</ele><time>2026-03-27T12:16:17.851Z</time></trkpt><trkpt lat="40.6513253" lon="9.6006848"><ele>188.0</ele><time>2026-03-27T12:16:19.848Z</time></trkpt><trkpt lat="40.6513082" lon="9.600568"><ele>188.0</ele><time>2026-03-27T12:16:21.848Z</time></trkpt><trkpt lat="40.6513243" lon="9.6004548"><ele>187.0</ele><time>2026-03-27T12:16:23.842Z</time></trkpt><trkpt lat="40.6513764" lon="9.6002983"><ele>186.0</ele><time>2026-03-27T12:16:25.845Z</time></trkpt><trkpt lat="40.6514134" lon="9.6002139"><ele>185.0</ele><time>2026-03-27T12:16:26.848Z</time></trkpt><trkpt lat="40.6514406" lon="9.6001298"><ele>184.0</ele><time>2026-03-27T12:16:27.851Z</time></trkpt><trkpt lat="40.6514598" lon="9.5999782"><ele>183.0</ele><time>2026-03-27T12:16:29.87Z</time></trkpt><trkpt lat="40.6514266" lon="9.5998442"><ele>183.0</ele><time>2026-03-27T12:16:31.852Z</time></trkpt><trkpt lat="40.6513731" lon="9.599743"><ele>183.0</ele><time>2026-03-27T12:16:33.851Z</time></trkpt><trkpt lat="40.6513186" lon="9.5996408"><ele>183.0</ele><time>2026-03-27T12:16:35.852Z</time></trkpt><trkpt lat="40.6512658" lon="9.5995322"><ele>183.0</ele><time>2026-03-27T12:16:37.85Z</time></trkpt><trkpt lat="40.6512054" lon="9.5994787"><ele>183.0</ele><time>2026-03-27T12:16:39.845Z</time></trkpt><trkpt lat="40.6511367" lon="9.5995307"><ele>183.0</ele><time>2026-03-27T12:16:41.848Z</time></trkpt><trkpt lat="40.6510731" lon="9.5996146"><ele>178.4</ele><time>2026-03-27T12:16:43.845Z</time></trkpt><trkpt lat="40.650994" lon="9.5995946"><ele>173.8</ele><time>2026-03-27T12:16:45.854Z</time></trkpt><trkpt lat="40.6509367" lon="9.5994928"><ele>169.2</ele><time>2026-03-27T12:16:47.851Z</time></trkpt><trkpt lat="40.6508863" lon="9.599389"><ele>164.6</ele><time>2026-03-27T12:16:49.852Z</time></trkpt><trkpt lat="40.6507946" lon="9.5993286"><ele>160.0</ele><time>2026-03-27T12:16:51.848Z</time></trkpt><trkpt lat="40.650709" lon="9.5992796"><ele>159.28571428571428</ele><time>2026-03-27T12:16:53.842Z</time></trkpt><trkpt lat="40.6506617" lon="9.5992089"><ele>158.57142857142858</ele><time>2026-03-27T12:16:55.871Z</time></trkpt><trkpt lat="40.6507139" lon="9.5991444"><ele>157.85714285714286</ele><time>2026-03-27T12:16:57.853Z</time></trkpt><trkpt lat="40.650779" lon="9.5991068"><ele>157.14285714285714</ele><time>2026-03-27T12:16:59.849Z</time></trkpt><trkpt lat="40.6507984" lon="9.5990141"><ele>156.42857142857142</ele><time>2026-03-27T12:17:01.868Z</time></trkpt><trkpt lat="40.6507851" lon="9.5989302"><ele>155.71428571428572</ele><time>2026-03-27T12:17:03.849Z</time></trkpt><trkpt lat="40.6507616" lon="9.5988452"><ele>155.0</ele><time>2026-03-27T12:17:05.85Z</time></trkpt><trkpt lat="40.6507564" lon="9.5987496"><ele>153.6</ele><time>2026-03-27T12:17:07.85Z</time></trkpt><trkpt lat="40.65078" lon="9.5986011"><ele>152.2</ele><time>2026-03-27T12:17:09.851Z</time></trkpt><trkpt lat="40.6507881" lon="9.5985144"><ele>150.8</ele><time>2026-03-27T12:17:10.853Z</time></trkpt><trkpt lat="40.6507985" lon="9.5983613"><ele>149.4</ele><time>2026-03-27T12:17:12.845Z</time></trkpt><trkpt lat="40.6508109" lon="9.5981991"><ele>148.0</ele><time>2026-03-27T12:17:14.844Z</time></trkpt><trkpt lat="40.6508163" lon="9.5981153"><ele>148.0</ele><time>2026-03-27T12:17:15.848Z</time></trkpt><trkpt lat="40.6508281" lon="9.5980292"><ele>148.0</ele><time>2026-03-27T12:17:16.849Z</time></trkpt><trkpt lat="40.6508404" lon="9.5979408"><ele>148.0</ele><time>2026-03-27T12:17:17.842Z</time></trkpt><trkpt lat="40.6508528" lon="9.5978591"><ele>148.0</ele><time>2026-03-27T12:17:18.869Z</time></trkpt><trkpt lat="40.6508972" lon="9.5977201"><ele>148.0</ele><time>2026-03-27T12:17:20.853Z</time></trkpt><trkpt lat="40.6509336" lon="9.5976302"><ele>148.0</ele><time>2026-03-27T12:17:22.852Z</time></trkpt><trkpt lat="40.6509353" lon="9.5975452"><ele>148.0</ele><time>2026-03-27T12:17:24.879Z</time></trkpt><trkpt lat="40.650845" lon="9.5975177"><ele>148.0</ele><time>2026-03-27T12:17:27.85Z</time></trkpt><trkpt lat="40.6507789" lon="9.5976194"><ele>148.0</ele><time>2026-03-27T12:17:29.856Z</time></trkpt><trkpt lat="40.6507374" lon="9.5977037"><ele>148.0</ele><time>2026-03-27T12:17:30.847Z</time></trkpt><trkpt lat="40.6507017" lon="9.5977894"><ele>148.0</ele><time>2026-03-27T12:17:31.862Z</time></trkpt><trkpt lat="40.650673" lon="9.5978638"><ele>148.0</ele><time>2026-03-27T12:17:32.848Z</time></trkpt><trkpt lat="40.6505944" lon="9.5979596"><ele>148.0</ele><time>2026-03-27T12:17:34.848Z</time></trkpt><trkpt lat="40.6504867" lon="9.5980329"><ele>148.0</ele><time>2026-03-27T12:17:36.844Z</time></trkpt><trkpt lat="40.6504214" lon="9.598082"><ele>148.0</ele><time>2026-03-27T12:17:37.848Z</time></trkpt><trkpt lat="40.6503429" lon="9.5981373"><ele>148.0</ele><time>2026-03-27T12:17:38.848Z</time></trkpt><trkpt lat="40.6502696" lon="9.5981877"><ele>148.0</ele><time>2026-03-27T12:17:39.843Z</time></trkpt><trkpt lat="40.6501905" lon="9.5982166"><ele>144.83333333333334</ele><time>2026-03-27T12:17:40.85Z</time></trkpt><trkpt lat="40.6501171" lon="9.5982393"><ele>141.66666666666669</ele><time>2026-03-27T12:17:41.845Z</time></trkpt><trkpt lat="40.6500399" lon="9.5982632"><ele>138.5</ele><time>2026-03-27T12:17:42.845Z</time></trkpt><trkpt lat="40.6499585" lon="9.5982652"><ele>135.33333333333334</ele><time>2026-03-27T12:17:43.847Z</time></trkpt><trkpt lat="40.6498832" lon="9.5982705"><ele>132.16666666666666</ele><time>2026-03-27T12:17:44.847Z</time></trkpt><trkpt lat="40.649813" lon="9.5982762"><ele>129.0</ele><time>2026-03-27T12:17:45.85Z</time></trkpt><trkpt lat="40.6496949" lon="9.5982633"><ele>129.0</ele><time>2026-03-27T12:17:47.849Z</time></trkpt><trkpt lat="40.6495948" lon="9.5981659"><ele>129.0</ele><time>2026-03-27T12:17:49.848Z</time></trkpt><trkpt lat="40.6495417" lon="9.5980945"><ele>129.0</ele><time>2026-03-27T12:17:50.852Z</time></trkpt><trkpt lat="40.6494926" lon="9.5980176"><ele>129.0</ele><time>2026-03-27T12:17:51.845Z</time></trkpt><trkpt lat="40.6494409" lon="9.5979352"><ele>129.0</ele><time>2026-03-27T12:17:52.859Z</time></trkpt><trkpt lat="40.6493958" lon="9.597849"><ele>129.0</ele><time>2026-03-27T12:17:53.845Z</time></trkpt><trkpt lat="40.6493574" lon="9.597771"><ele>126.5</ele><time>2026-03-27T12:17:54.852Z</time></trkpt><trkpt lat="40.6493237" lon="9.5976916"><ele>124.0</ele><time>2026-03-27T12:17:55.851Z</time></trkpt><trkpt lat="40.6492913" lon="9.5976169"><ele>121.5</ele><time>2026-03-27T12:17:56.851Z</time></trkpt><trkpt lat="40.6492115" lon="9.5974904"><ele>119.0</ele><time>2026-03-27T12:17:58.845Z</time></trkpt><trkpt lat="40.6491895" lon="9.597412"><ele>116.5</ele><time>2026-03-27T12:17:59.848Z</time></trkpt><trkpt lat="40.6491844" lon="9.5973262"><ele>114.0</ele><time>2026-03-27T12:18:00.851Z</time></trkpt><trkpt lat="40.6492363" lon="9.5972004"><ele>114.0</ele><time>2026-03-27T12:18:02.856Z</time></trkpt><trkpt lat="40.6492824" lon="9.5971064"><ele>114.0</ele><time>2026-03-27T12:18:04.845Z</time></trkpt><trkpt lat="40.6491894" lon="9.5970558"><ele>114.0</ele><time>2026-03-27T12:18:07.851Z</time></trkpt><trkpt lat="40.6491201" lon="9.5970572"><ele>114.0</ele><time>2026-03-27T12:18:08.847Z</time></trkpt><trkpt lat="40.6490594" lon="9.5970819"><ele>114.0</ele><time>2026-03-27T12:18:09.88Z</time></trkpt><trkpt lat="40.6489661" lon="9.5971755"><ele>114.0</ele><time>2026-03-27T12:18:11.851Z</time></trkpt><trkpt lat="40.648928" lon="9.5972492"><ele>114.0</ele><time>2026-03-27T12:18:12.848Z</time></trkpt><trkpt lat="40.6488815" lon="9.5973251"><ele>114.0</ele><time>2026-03-27T12:18:13.848Z</time></trkpt><trkpt lat="40.6488328" lon="9.5973939"><ele>114.0</ele><time>2026-03-27T12:18:14.852Z</time></trkpt><trkpt lat="40.6487785" lon="9.5974528"><ele>114.0</ele><time>2026-03-27T12:18:15.849Z</time></trkpt><trkpt lat="40.648718" lon="9.5974786"><ele>114.0</ele><time>2026-03-27T12:18:16.848Z</time></trkpt><trkpt lat="40.6486085" lon="9.5975049"><ele>114.0</ele><time>2026-03-27T12:18:18.844Z</time></trkpt><trkpt lat="40.6485021" lon="9.5975556"><ele>113.0</ele><time>2026-03-27T12:18:20.854Z</time></trkpt><trkpt lat="40.6484392" lon="9.5976692"><ele>112.0</ele><time>2026-03-27T12:18:22.846Z</time></trkpt><trkpt lat="40.6484439" lon="9.5978026"><ele>111.0</ele><time>2026-03-27T12:18:24.852Z</time></trkpt><trkpt lat="40.6484917" lon="9.5978938"><ele>110.0</ele><time>2026-03-27T12:18:26.848Z</time></trkpt><trkpt lat="40.6485703" lon="9.5979489"><ele>109.0</ele><time>2026-03-27T12:18:28.853Z</time></trkpt><trkpt lat="40.6486407" lon="9.5980659"><ele>109.0</ele><time>2026-03-27T12:18:30.852Z</time></trkpt><trkpt lat="40.6486521" lon="9.5981487"><ele>109.0</ele><time>2026-03-27T12:18:31.848Z</time></trkpt><trkpt lat="40.6486611" lon="9.5982342"><ele>109.0</ele><time>2026-03-27T12:18:32.846Z</time></trkpt><trkpt lat="40.6486564" lon="9.5983284"><ele>109.0</ele><time>2026-03-27T12:18:33.852Z</time></trkpt><trkpt lat="40.6486705" lon="9.5984365"><ele>109.0</ele><time>2026-03-27T12:18:34.846Z</time></trkpt><trkpt lat="40.6486839" lon="9.5985415"><ele>109.0</ele><time>2026-03-27T12:18:35.857Z</time></trkpt><trkpt lat="40.6487243" lon="9.5986349"><ele>109.0</ele><time>2026-03-27T12:18:36.85Z</time></trkpt><trkpt lat="40.6487623" lon="9.5987226"><ele>108.33333333333334</ele><time>2026-03-27T12:18:37.852Z</time></trkpt><trkpt lat="40.6487902" lon="9.5987988"><ele>107.66666666666667</ele><time>2026-03-27T12:18:38.842Z</time></trkpt><trkpt lat="40.6488143" lon="9.5988774"><ele>107.0</ele><time>2026-03-27T12:18:39.843Z</time></trkpt><trkpt lat="40.6488177" lon="9.5989825"><ele>106.33333333333334</ele><time>2026-03-27T12:18:40.841Z</time></trkpt><trkpt lat="40.6488211" lon="9.5990973"><ele>105.66666666666667</ele><time>2026-03-27T12:18:41.847Z</time></trkpt><trkpt lat="40.6488317" lon="9.5992103"><ele>105.0</ele><time>2026-03-27T12:18:42.85Z</time></trkpt><trkpt lat="40.6488397" lon="9.5993082"><ele>105.0</ele><time>2026-03-27T12:18:43.846Z</time></trkpt><trkpt lat="40.648839" lon="9.5994142"><ele>105.0</ele><time>2026-03-27T12:18:44.845Z</time></trkpt><trkpt lat="40.6488285" lon="9.5995191"><ele>105.0</ele><time>2026-03-27T12:18:45.845Z</time></trkpt><trkpt lat="40.6488231" lon="9.5996284"><ele>105.0</ele><time>2026-03-27T12:18:46.843Z</time></trkpt><trkpt lat="40.6488252" lon="9.5997339"><ele>105.0</ele><time>2026-03-27T12:18:47.847Z</time></trkpt><trkpt lat="40.648833" lon="9.5998345"><ele>105.0</ele><time>2026-03-27T12:18:48.843Z</time></trkpt><trkpt lat="40.6488441" lon="9.599932"><ele>105.0</ele><time>2026-03-27T12:18:49.847Z</time></trkpt><trkpt lat="40.6488602" lon="9.6000184"><ele>105.0</ele><time>2026-03-27T12:18:50.853Z</time></trkpt><trkpt lat="40.6489014" lon="9.6001778"><ele>105.0</ele><time>2026-03-27T12:18:52.867Z</time></trkpt><trkpt lat="40.6489528" lon="9.6003013"><ele>105.0</ele><time>2026-03-27T12:18:54.849Z</time></trkpt><trkpt lat="40.6489565" lon="9.6003928"><ele>105.0</ele><time>2026-03-27T12:18:56.85Z</time></trkpt><trkpt lat="40.6488628" lon="9.6004404"><ele>106.0</ele><time>2026-03-27T12:18:58.849Z</time></trkpt><trkpt lat="40.6487717" lon="9.600438"><ele>107.0</ele><time>2026-03-27T12:18:59.85Z</time></trkpt><trkpt lat="40.6486702" lon="9.6004373"><ele>108.0</ele><time>2026-03-27T12:19:00.845Z</time></trkpt><trkpt lat="40.6485501" lon="9.6004598"><ele>109.0</ele><time>2026-03-27T12:19:01.858Z</time></trkpt><trkpt lat="40.6484174" lon="9.6004754"><ele>110.0</ele><time>2026-03-27T12:19:02.845Z</time></trkpt><trkpt lat="40.6482915" lon="9.6004754"><ele>107.6</ele><time>2026-03-27T12:19:03.845Z</time></trkpt><trkpt lat="40.6481759" lon="9.600469"><ele>105.2</ele><time>2026-03-27T12:19:04.841Z</time></trkpt><trkpt lat="40.6480637" lon="9.6004534"><ele>102.80000000000001</ele><time>2026-03-27T12:19:05.847Z</time></trkpt><trkpt lat="40.6479577" lon="9.6004221"><ele>100.4</ele><time>2026-03-27T12:19:06.849Z</time></trkpt><trkpt lat="40.6478576" lon="9.6003896"><ele>98.0</ele><time>2026-03-27T12:19:07.857Z</time></trkpt><trkpt lat="40.6477609" lon="9.6003567"><ele>96.4</ele><time>2026-03-27T12:19:08.847Z</time></trkpt><trkpt lat="40.6476772" lon="9.6003403"><ele>94.80000000000001</ele><time>2026-03-27T12:19:09.845Z</time></trkpt><trkpt lat="40.6476064" lon="9.6003401"><ele>93.2</ele><time>2026-03-27T12:19:10.849Z</time></trkpt><trkpt lat="40.6475094" lon="9.600384"><ele>91.6</ele><time>2026-03-27T12:19:12.851Z</time></trkpt><trkpt lat="40.6474749" lon="9.6005284"><ele>90.0</ele><time>2026-03-27T12:19:14.849Z</time></trkpt><trkpt lat="40.6474628" lon="9.6006666"><ele>90.0</ele><time>2026-03-27T12:19:15.85Z</time></trkpt><trkpt lat="40.6474536" lon="9.6008288"><ele>90.0</ele><time>2026-03-27T12:19:16.848Z</time></trkpt><trkpt lat="40.6474561" lon="9.6009892"><ele>90.0</ele><time>2026-03-27T12:19:17.856Z</time></trkpt><trkpt lat="40.6474683" lon="9.6011455"><ele>90.0</ele><time>2026-03-27T12:19:18.852Z</time></trkpt><trkpt lat="40.647487" lon="9.6012947"><ele>89.2</ele><time>2026-03-27T12:19:19.863Z</time></trkpt><trkpt lat="40.6475159" lon="9.601434"><ele>88.4</ele><time>2026-03-27T12:19:20.848Z</time></trkpt><trkpt lat="40.6475569" lon="9.6015607"><ele>87.6</ele><time>2026-03-27T12:19:21.853Z</time></trkpt><trkpt lat="40.6476119" lon="9.6016753"><ele>86.8</ele><time>2026-03-27T12:19:22.845Z</time></trkpt><trkpt lat="40.6476603" lon="9.6017977"><ele>86.0</ele><time>2026-03-27T12:19:23.847Z</time></trkpt><trkpt lat="40.647724" lon="9.6019005"><ele>87.0</ele><time>2026-03-27T12:19:24.848Z</time></trkpt><trkpt lat="40.6478016" lon="9.6019953"><ele>88.0</ele><time>2026-03-27T12:19:25.85Z</time></trkpt><trkpt lat="40.6478766" lon="9.6020996"><ele>89.0</ele><time>2026-03-27T12:19:26.861Z</time></trkpt><trkpt lat="40.647951" lon="9.6022106"><ele>90.0</ele><time>2026-03-27T12:19:27.849Z</time></trkpt><trkpt lat="40.6480211" lon="9.602326"><ele>91.0</ele><time>2026-03-27T12:19:28.855Z</time></trkpt><trkpt lat="40.648091" lon="9.6024339"><ele>91.0</ele><time>2026-03-27T12:19:29.852Z</time></trkpt><trkpt lat="40.6481612" lon="9.6025336"><ele>91.0</ele><time>2026-03-27T12:19:30.852Z</time></trkpt><trkpt lat="40.6482371" lon="9.6026209"><ele>91.0</ele><time>2026-03-27T12:19:31.847Z</time></trkpt><trkpt lat="40.6483132" lon="9.6026979"><ele>91.0</ele><time>2026-03-27T12:19:32.846Z</time></trkpt><trkpt lat="40.648382" lon="9.6027768"><ele>91.0</ele><time>2026-03-27T12:19:33.842Z</time></trkpt><trkpt lat="40.6484463" lon="9.6028518"><ele>88.83333333333333</ele><time>2026-03-27T12:19:34.845Z</time></trkpt><trkpt lat="40.6484902" lon="9.6029272"><ele>86.66666666666666</ele><time>2026-03-27T12:19:35.849Z</time></trkpt><trkpt lat="40.6485171" lon="9.603018"><ele>84.5</ele><time>2026-03-27T12:19:36.841Z</time></trkpt><trkpt lat="40.6485279" lon="9.60313"><ele>82.33333333333333</ele><time>2026-03-27T12:19:37.872Z</time></trkpt><trkpt lat="40.6485455" lon="9.6032461"><ele>80.16666666666667</ele><time>2026-03-27T12:19:38.847Z</time></trkpt><trkpt lat="40.6485626" lon="9.6033556"><ele>78.0</ele><time>2026-03-27T12:19:39.846Z</time></trkpt><trkpt lat="40.6485883" lon="9.6034622"><ele>78.0</ele><time>2026-03-27T12:19:40.848Z</time></trkpt><trkpt lat="40.6486122" lon="9.6035733"><ele>78.0</ele><time>2026-03-27T12:19:41.85Z</time></trkpt><trkpt lat="40.6486402" lon="9.6036814"><ele>78.0</ele><time>2026-03-27T12:19:42.857Z</time></trkpt><trkpt lat="40.648666" lon="9.6037915"><ele>78.0</ele><time>2026-03-27T12:19:43.848Z</time></trkpt><trkpt lat="40.6487008" lon="9.6039147"><ele>78.0</ele><time>2026-03-27T12:19:44.846Z</time></trkpt><trkpt lat="40.6487289" lon="9.6040396"><ele>81.0</ele><time>2026-03-27T12:19:45.846Z</time></trkpt><trkpt lat="40.6487506" lon="9.6041508"><ele>84.0</ele><time>2026-03-27T12:19:46.848Z</time></trkpt><trkpt lat="40.648769" lon="9.6042473"><ele>87.0</ele><time>2026-03-27T12:19:47.843Z</time></trkpt><trkpt lat="40.6487846" lon="9.6043302"><ele>90.0</ele><time>2026-03-27T12:19:48.856Z</time></trkpt><trkpt lat="40.6488014" lon="9.6044708"><ele>93.0</ele><time>2026-03-27T12:19:50.849Z</time></trkpt><trkpt lat="40.648742" lon="9.6046254"><ele>94.0</ele><time>2026-03-27T12:19:52.846Z</time></trkpt><trkpt lat="40.648697" lon="9.604709"><ele>95.0</ele><time>2026-03-27T12:19:53.846Z</time></trkpt><trkpt lat="40.6486222" lon="9.6047921"><ele>96.0</ele><time>2026-03-27T12:19:54.845Z</time></trkpt><trkpt lat="40.6485381" lon="9.604875"><ele>97.0</ele><time>2026-03-27T12:19:55.851Z</time></trkpt><trkpt lat="40.6484545" lon="9.6049597"><ele>98.0</ele><time>2026-03-27T12:19:56.846Z</time></trkpt><trkpt lat="40.6483725" lon="9.6050407"><ele>94.2</ele><time>2026-03-27T12:19:57.845Z</time></trkpt><trkpt lat="40.648291" lon="9.6051209"><ele>90.4</ele><time>2026-03-27T12:19:58.844Z</time></trkpt><trkpt lat="40.6482142" lon="9.6052072"><ele>86.60000000000001</ele><time>2026-03-27T12:19:59.847Z</time></trkpt><trkpt lat="40.6481474" lon="9.6053052"><ele>82.80000000000001</ele><time>2026-03-27T12:20:00.848Z</time></trkpt><trkpt lat="40.6480783" lon="9.6054078"><ele>79.0</ele><time>2026-03-27T12:20:01.845Z</time></trkpt><trkpt lat="40.648018" lon="9.605512"><ele>79.0</ele><time>2026-03-27T12:20:02.847Z</time></trkpt><trkpt lat="40.6479619" lon="9.6056037"><ele>79.0</ele><time>2026-03-27T12:20:03.856Z</time></trkpt><trkpt lat="40.6479113" lon="9.6056842"><ele>79.0</ele><time>2026-03-27T12:20:04.845Z</time></trkpt><trkpt lat="40.6478688" lon="9.6057618"><ele>79.0</ele><time>2026-03-27T12:20:05.85Z</time></trkpt><trkpt lat="40.6478443" lon="9.6058892"><ele>79.0</ele><time>2026-03-27T12:20:07.845Z</time></trkpt><trkpt lat="40.6478669" lon="9.6059812"><ele>79.0</ele><time>2026-03-27T12:20:08.844Z</time></trkpt><trkpt lat="40.6478949" lon="9.6060783"><ele>77.66666666666666</ele><time>2026-03-27T12:20:09.846Z</time></trkpt><trkpt lat="40.6479212" lon="9.6061888"><ele>76.33333333333333</ele><time>2026-03-27T12:20:10.848Z</time></trkpt><trkpt lat="40.6479496" lon="9.6062993"><ele>75.0</ele><time>2026-03-27T12:20:11.845Z</time></trkpt><trkpt lat="40.6479662" lon="9.6064089"><ele>73.66666666666667</ele><time>2026-03-27T12:20:12.849Z</time></trkpt><trkpt lat="40.6479802" lon="9.6065106"><ele>72.33333333333334</ele><time>2026-03-27T12:20:13.85Z</time></trkpt><trkpt lat="40.6479913" lon="9.6066029"><ele>71.0</ele><time>2026-03-27T12:20:14.853Z</time></trkpt><trkpt lat="40.6480062" lon="9.6067398"><ele>71.0</ele><time>2026-03-27T12:20:16.845Z</time></trkpt><trkpt lat="40.6480162" lon="9.6068399"><ele>71.0</ele><time>2026-03-27T12:20:44.856Z</time></trkpt><trkpt lat="40.648044" lon="9.6069452"><ele>71.0</ele><time>2026-03-27T12:20:47.844Z</time></trkpt><trkpt lat="40.6480586" lon="9.6070615"><ele>71.0</ele><time>2026-03-27T12:20:50.846Z</time></trkpt><trkpt lat="40.6480356" lon="9.6071697"><ele>71.0</ele><time>2026-03-27T12:20:52.853Z</time></trkpt><trkpt lat="40.648035" lon="9.6073077"><ele>71.0</ele><time>2026-03-27T12:20:54.842Z</time></trkpt><trkpt lat="40.648072" lon="9.607452"><ele>70.33333333333334</ele><time>2026-03-27T12:20:56.846Z</time></trkpt><trkpt lat="40.6481273" lon="9.607588"><ele>69.66666666666667</ele><time>2026-03-27T12:20:58.844Z</time></trkpt><trkpt lat="40.6481873" lon="9.6076923"><ele>69.0</ele><time>2026-03-27T12:21:00.843Z</time></trkpt><trkpt lat="40.6482441" lon="9.6077565"><ele>68.33333333333333</ele><time>2026-03-27T12:21:02.846Z</time></trkpt><trkpt lat="40.6482335" lon="9.6078416"><ele>67.66666666666666</ele><time>2026-03-27T12:21:04.854Z</time></trkpt><trkpt lat="40.6481793" lon="9.6079079"><ele>67.0</ele><time>2026-03-27T12:21:06.856Z</time></trkpt><trkpt lat="40.6481325" lon="9.6080525"><ele>66.16666666666666</ele><time>2026-03-27T12:21:08.841Z</time></trkpt><trkpt lat="40.6481185" lon="9.6081527"><ele>65.33333333333333</ele><time>2026-03-27T12:21:09.844Z</time></trkpt><trkpt lat="40.6481103" lon="9.6082573"><ele>64.5</ele><time>2026-03-27T12:21:10.845Z</time></trkpt><trkpt lat="40.6481133" lon="9.6083559"><ele>63.66666666666667</ele><time>2026-03-27T12:21:11.846Z</time></trkpt><trkpt lat="40.6481257" lon="9.6084597"><ele>62.833333333333336</ele><time>2026-03-27T12:21:12.851Z</time></trkpt><trkpt lat="40.6481388" lon="9.608555"><ele>62.0</ele><time>2026-03-27T12:21:13.853Z</time></trkpt><trkpt lat="40.6481801" lon="9.6086375"><ele>61.50000000000001</ele><time>2026-03-27T12:21:14.846Z</time></trkpt><trkpt lat="40.6482272" lon="9.6087307"><ele>61.0</ele><time>2026-03-27T12:21:15.85Z</time></trkpt><trkpt lat="40.6482895" lon="9.6088372"><ele>60.5</ele><time>2026-03-27T12:21:16.842Z</time></trkpt><trkpt lat="40.6483497" lon="9.6089264"><ele>60.0</ele><time>2026-03-27T12:21:17.843Z</time></trkpt><trkpt lat="40.6484022" lon="9.6090082"><ele>59.50000000000001</ele><time>2026-03-27T12:21:18.843Z</time></trkpt><trkpt lat="40.6484492" lon="9.6090704"><ele>59.0</ele><time>2026-03-27T12:21:19.848Z</time></trkpt><trkpt lat="40.6484901" lon="9.6091441"><ele>59.0</ele><time>2026-03-27T12:21:20.84Z</time></trkpt><trkpt lat="40.6485213" lon="9.6092367"><ele>59.0</ele><time>2026-03-27T12:21:21.845Z</time></trkpt><trkpt lat="40.6485575" lon="9.6093293"><ele>59.0</ele><time>2026-03-27T12:21:22.843Z</time></trkpt><trkpt lat="40.6485951" lon="9.6094154"><ele>59.0</ele><time>2026-03-27T12:21:23.851Z</time></trkpt><trkpt lat="40.6486302" lon="9.6094945"><ele>59.0</ele><time>2026-03-27T12:21:24.844Z</time></trkpt><trkpt lat="40.6486663" lon="9.6095651"><ele>59.0</ele><time>2026-03-27T12:21:25.844Z</time></trkpt><trkpt lat="40.648713" lon="9.6096538"><ele>59.0</ele><time>2026-03-27T12:21:26.845Z</time></trkpt><trkpt lat="40.6487668" lon="9.609755"><ele>58.6</ele><time>2026-03-27T12:21:27.849Z</time></trkpt><trkpt lat="40.6488201" lon="9.6098648"><ele>58.2</ele><time>2026-03-27T12:21:28.863Z</time></trkpt><trkpt lat="40.6488767" lon="9.6099815"><ele>57.800000000000004</ele><time>2026-03-27T12:21:29.847Z</time></trkpt><trkpt lat="40.6489291" lon="9.610093"><ele>57.400000000000006</ele><time>2026-03-27T12:21:30.852Z</time></trkpt><trkpt lat="40.6489736" lon="9.610205"><ele>57.0</ele><time>2026-03-27T12:21:31.85Z</time></trkpt><trkpt lat="40.6490163" lon="9.6103093"><ele>55.8</ele><time>2026-03-27T12:21:32.841Z</time></trkpt><trkpt lat="40.649069" lon="9.6104073"><ele>54.6</ele><time>2026-03-27T12:21:33.845Z</time></trkpt><trkpt lat="40.649126" lon="9.6105134"><ele>53.4</ele><time>2026-03-27T12:21:34.843Z</time></trkpt><trkpt lat="40.6491852" lon="9.6106243"><ele>52.199999999999996</ele><time>2026-03-27T12:21:35.842Z</time></trkpt><trkpt lat="40.6492412" lon="9.6107407"><ele>51.0</ele><time>2026-03-27T12:21:36.842Z</time></trkpt><trkpt lat="40.6492981" lon="9.6108568"><ele>51.0</ele><time>2026-03-27T12:21:37.847Z</time></trkpt><trkpt lat="40.6493485" lon="9.6109636"><ele>51.0</ele><time>2026-03-27T12:21:38.849Z</time></trkpt><trkpt lat="40.6493922" lon="9.6110568"><ele>51.0</ele><time>2026-03-27T12:21:39.842Z</time></trkpt><trkpt lat="40.6494423" lon="9.6111665"><ele>51.0</ele><time>2026-03-27T12:21:40.857Z</time></trkpt><trkpt lat="40.6494931" lon="9.6112765"><ele>51.0</ele><time>2026-03-27T12:21:41.849Z</time></trkpt><trkpt lat="40.6495398" lon="9.6113791"><ele>51.42857142857143</ele><time>2026-03-27T12:21:42.842Z</time></trkpt><trkpt lat="40.6495815" lon="9.6114541"><ele>51.85714285714286</ele><time>2026-03-27T12:21:43.845Z</time></trkpt><trkpt lat="40.6496221" lon="9.6115259"><ele>52.285714285714285</ele><time>2026-03-27T12:21:44.843Z</time></trkpt><trkpt lat="40.6496743" lon="9.6115906"><ele>52.714285714285715</ele><time>2026-03-27T12:21:45.845Z</time></trkpt><trkpt lat="40.649725" lon="9.6116645"><ele>53.14285714285714</ele><time>2026-03-27T12:21:46.84Z</time></trkpt><trkpt lat="40.6497653" lon="9.6117509"><ele>53.57142857142857</ele><time>2026-03-27T12:21:47.842Z</time></trkpt><trkpt lat="40.6497891" lon="9.6118318"><ele>54.0</ele><time>2026-03-27T12:21:48.866Z</time></trkpt><trkpt lat="40.6498085" lon="9.6119326"><ele>53.333333333333336</ele><time>2026-03-27T12:21:49.846Z</time></trkpt><trkpt lat="40.6498287" lon="9.6120306"><ele>52.66666666666667</ele><time>2026-03-27T12:21:50.852Z</time></trkpt><trkpt lat="40.6498562" lon="9.6121222"><ele>52.0</ele><time>2026-03-27T12:21:51.842Z</time></trkpt><trkpt lat="40.6498857" lon="9.6122154"><ele>51.333333333333336</ele><time>2026-03-27T12:21:52.844Z</time></trkpt><trkpt lat="40.6499158" lon="9.6123007"><ele>50.66666666666667</ele><time>2026-03-27T12:21:53.847Z</time></trkpt><trkpt lat="40.6499457" lon="9.6123905"><ele>50.0</ele><time>2026-03-27T12:21:54.848Z</time></trkpt><trkpt lat="40.6499798" lon="9.612492"><ele>50.00000000000001</ele><time>2026-03-27T12:21:55.849Z</time></trkpt><trkpt lat="40.6500157" lon="9.6125917"><ele>50.0</ele><time>2026-03-27T12:21:56.844Z</time></trkpt><trkpt lat="40.6500496" lon="9.6126826"><ele>50.0</ele><time>2026-03-27T12:21:57.844Z</time></trkpt><trkpt lat="40.650087" lon="9.612779"><ele>50.0</ele><time>2026-03-27T12:21:58.852Z</time></trkpt><trkpt lat="40.6501258" lon="9.6128763"><ele>50.00000000000001</ele><time>2026-03-27T12:21:59.847Z</time></trkpt><trkpt lat="40.6501677" lon="9.6129767"><ele>50.0</ele><time>2026-03-27T12:22:00.851Z</time></trkpt><trkpt lat="40.6502111" lon="9.6130796"><ele>49.333333333333336</ele><time>2026-03-27T12:22:01.844Z</time></trkpt><trkpt lat="40.6502576" lon="9.6131811"><ele>48.66666666666667</ele><time>2026-03-27T12:22:02.846Z</time></trkpt><trkpt lat="40.6503021" lon="9.6132824"><ele>48.0</ele><time>2026-03-27T12:22:03.847Z</time></trkpt><trkpt lat="40.6503421" lon="9.613378"><ele>47.333333333333336</ele><time>2026-03-27T12:22:04.847Z</time></trkpt><trkpt lat="40.6503823" lon="9.6134719"><ele>46.66666666666667</ele><time>2026-03-27T12:22:05.869Z</time></trkpt><trkpt lat="40.6504204" lon="9.6135603"><ele>46.0</ele><time>2026-03-27T12:22:06.853Z</time></trkpt><trkpt lat="40.6504625" lon="9.6136556"><ele>47.333333333333336</ele><time>2026-03-27T12:22:07.846Z</time></trkpt><trkpt lat="40.650505" lon="9.6137551"><ele>48.66666666666667</ele><time>2026-03-27T12:22:08.844Z</time></trkpt><trkpt lat="40.6505481" lon="9.6138521"><ele>50.0</ele><time>2026-03-27T12:22:09.844Z</time></trkpt><trkpt lat="40.6505859" lon="9.6139506"><ele>51.333333333333336</ele><time>2026-03-27T12:22:10.848Z</time></trkpt><trkpt lat="40.6506227" lon="9.6140437"><ele>52.666666666666664</ele><time>2026-03-27T12:22:11.844Z</time></trkpt><trkpt lat="40.6506643" lon="9.6141352"><ele>54.0</ele><time>2026-03-27T12:22:12.852Z</time></trkpt><trkpt lat="40.6507103" lon="9.6142169"><ele>54.0</ele><time>2026-03-27T12:22:13.847Z</time></trkpt><trkpt lat="40.6507661" lon="9.6142847"><ele>54.0</ele><time>2026-03-27T12:22:14.852Z</time></trkpt><trkpt lat="40.6508276" lon="9.6143425"><ele>54.0</ele><time>2026-03-27T12:22:15.851Z</time></trkpt><trkpt lat="40.6508919" lon="9.6144037"><ele>54.0</ele><time>2026-03-27T12:22:16.85Z</time></trkpt><trkpt lat="40.6509457" lon="9.6144698"><ele>54.0</ele><time>2026-03-27T12:22:17.843Z</time></trkpt><trkpt lat="40.6510051" lon="9.6145651"><ele>54.0</ele><time>2026-03-27T12:22:19.848Z</time></trkpt><trkpt lat="40.6510315" lon="9.6146588"><ele>53.5</ele><time>2026-03-27T12:22:22.865Z</time></trkpt><trkpt lat="40.6510488" lon="9.6147554"><ele>53.0</ele><time>2026-03-27T12:22:44.852Z</time></trkpt><trkpt lat="40.6510668" lon="9.6148403"><ele>52.5</ele><time>2026-03-27T12:22:46.847Z</time></trkpt><trkpt lat="40.6511035" lon="9.6149091"><ele>52.0</ele><time>2026-03-27T12:22:48.848Z</time></trkpt><trkpt lat="40.6511436" lon="9.6149962"><ele>51.5</ele><time>2026-03-27T12:22:51.85Z</time></trkpt><trkpt lat="40.651226" lon="9.6150631"><ele>51.0</ele><time>2026-03-27T12:22:54.851Z</time></trkpt><trkpt lat="40.6512912" lon="9.6151166"><ele>50.666666666666664</ele><time>2026-03-27T12:22:56.844Z</time></trkpt><trkpt lat="40.6513019" lon="9.6152016"><ele>50.33333333333333</ele><time>2026-03-27T12:23:13.852Z</time></trkpt><trkpt lat="40.6512279" lon="9.6152702"><ele>50.0</ele><time>2026-03-27T12:23:15.859Z</time></trkpt><trkpt lat="40.6511636" lon="9.6153281"><ele>49.666666666666664</ele><time>2026-03-27T12:23:16.858Z</time></trkpt><trkpt lat="40.6510877" lon="9.6154029"><ele>49.33333333333333</ele><time>2026-03-27T12:23:17.854Z</time></trkpt><trkpt lat="40.6510078" lon="9.6154832"><ele>49.0</ele><time>2026-03-27T12:23:18.85Z</time></trkpt><trkpt lat="40.6509222" lon="9.6155667"><ele>48.5</ele><time>2026-03-27T12:23:19.849Z</time></trkpt><trkpt lat="40.650828" lon="9.6156532"><ele>48.0</ele><time>2026-03-27T12:23:20.849Z</time></trkpt><trkpt lat="40.6507307" lon="9.6157435"><ele>47.5</ele><time>2026-03-27T12:23:21.849Z</time></trkpt><trkpt lat="40.6506289" lon="9.6158372"><ele>47.0</ele><time>2026-03-27T12:23:22.847Z</time></trkpt><trkpt lat="40.6505348" lon="9.6159276"><ele>47.0</ele><time>2026-03-27T12:23:23.845Z</time></trkpt><trkpt lat="40.6504423" lon="9.6160158"><ele>47.0</ele><time>2026-03-27T12:23:24.851Z</time></trkpt><trkpt lat="40.6503508" lon="9.6160952"><ele>47.0</ele><time>2026-03-27T12:23:25.849Z</time></trkpt><trkpt lat="40.6502604" lon="9.6161707"><ele>47.0</ele><time>2026-03-27T12:23:26.846Z</time></trkpt><trkpt lat="40.6501774" lon="9.6162432"><ele>47.0</ele><time>2026-03-27T12:23:27.853Z</time></trkpt><trkpt lat="40.6501022" lon="9.6163096"><ele>46.0</ele><time>2026-03-27T12:23:28.851Z</time></trkpt><trkpt lat="40.650034" lon="9.6163758"><ele>45.0</ele><time>2026-03-27T12:23:29.846Z</time></trkpt><trkpt lat="40.6499837" lon="9.6164315"><ele>44.0</ele><time>2026-03-27T12:23:30.845Z</time></trkpt><trkpt lat="40.6499366" lon="9.6165269"><ele>43.0</ele><time>2026-03-27T12:23:32.852Z</time></trkpt><trkpt lat="40.6499239" lon="9.6166868"><ele>42.0</ele><time>2026-03-27T12:23:34.853Z</time></trkpt><trkpt lat="40.6499288" lon="9.6167924"><ele>41.0</ele><time>2026-03-27T12:23:35.843Z</time></trkpt><trkpt lat="40.649933" lon="9.6169066"><ele>40.4</ele><time>2026-03-27T12:23:36.849Z</time></trkpt><trkpt lat="40.6499358" lon="9.6170106"><ele>39.8</ele><time>2026-03-27T12:23:37.852Z</time></trkpt><trkpt lat="40.6499406" lon="9.6171191"><ele>39.199999999999996</ele><time>2026-03-27T12:23:38.844Z</time></trkpt><trkpt lat="40.6499483" lon="9.6172429"><ele>38.599999999999994</ele><time>2026-03-27T12:23:39.874Z</time></trkpt><trkpt lat="40.6499554" lon="9.61738"><ele>38.0</ele><time>2026-03-27T12:23:40.847Z</time></trkpt><trkpt lat="40.6499617" lon="9.617528"><ele>38.0</ele><time>2026-03-27T12:23:41.842Z</time></trkpt><trkpt lat="40.6499689" lon="9.6176841"><ele>38.0</ele><time>2026-03-27T12:23:42.85Z</time></trkpt><trkpt lat="40.6499756" lon="9.6178453"><ele>38.0</ele><time>2026-03-27T12:23:43.849Z</time></trkpt><trkpt lat="40.6499819" lon="9.6180159"><ele>38.0</ele><time>2026-03-27T12:23:44.851Z</time></trkpt><trkpt lat="40.6499885" lon="9.6181919"><ele>37.0</ele><time>2026-03-27T12:23:45.871Z</time></trkpt><trkpt lat="40.6499954" lon="9.6183736"><ele>36.0</ele><time>2026-03-27T12:23:46.852Z</time></trkpt><trkpt lat="40.650003" lon="9.6185595"><ele>35.0</ele><time>2026-03-27T12:23:47.855Z</time></trkpt><trkpt lat="40.6500107" lon="9.6187491"><ele>34.0</ele><time>2026-03-27T12:23:48.846Z</time></trkpt><trkpt lat="40.6500185" lon="9.6189406"><ele>34.0</ele><time>2026-03-27T12:23:49.844Z</time></trkpt><trkpt lat="40.650026" lon="9.6191319"><ele>34.0</ele><time>2026-03-27T12:23:50.846Z</time></trkpt><trkpt lat="40.6500333" lon="9.6193252"><ele>34.0</ele><time>2026-03-27T12:23:51.848Z</time></trkpt><trkpt lat="40.6500409" lon="9.6195195"><ele>34.0</ele><time>2026-03-27T12:23:52.849Z</time></trkpt><trkpt lat="40.6500488" lon="9.6197162"><ele>33.66666666666667</ele><time>2026-03-27T12:23:53.849Z</time></trkpt><trkpt lat="40.6500563" lon="9.6199155"><ele>33.333333333333336</ele><time>2026-03-27T12:23:54.838Z</time></trkpt><trkpt lat="40.6500637" lon="9.6201166"><ele>33.0</ele><time>2026-03-27T12:23:55.846Z</time></trkpt><trkpt lat="40.6500728" lon="9.6203192"><ele>32.0</ele><time>2026-03-27T12:23:56.841Z</time></trkpt><trkpt lat="40.6500827" lon="9.6205224"><ele>31.0</ele><time>2026-03-27T12:23:57.849Z</time></trkpt><trkpt lat="40.6500929" lon="9.6207247"><ele>30.0</ele><time>2026-03-27T12:23:58.845Z</time></trkpt><trkpt lat="40.6501024" lon="9.6209255"><ele>30.0</ele><time>2026-03-27T12:23:59.843Z</time></trkpt><trkpt lat="40.6501103" lon="9.621116"><ele>30.0</ele><time>2026-03-27T12:24:00.846Z</time></trkpt><trkpt lat="40.6501167" lon="9.6212954"><ele>30.0</ele><time>2026-03-27T12:24:01.854Z</time></trkpt><trkpt lat="40.65012" lon="9.6214711"><ele>30.0</ele><time>2026-03-27T12:24:02.849Z</time></trkpt><trkpt lat="40.6501125" lon="9.6216511"><ele>30.0</ele><time>2026-03-27T12:24:03.851Z</time></trkpt><trkpt lat="40.6500893" lon="9.6218304"><ele>30.0</ele><time>2026-03-27T12:24:04.846Z</time></trkpt><trkpt lat="40.6500466" lon="9.6220054"><ele>30.0</ele><time>2026-03-27T12:24:05.853Z</time></trkpt><trkpt lat="40.6499814" lon="9.6221732"><ele>30.0</ele><time>2026-03-27T12:24:06.845Z</time></trkpt><trkpt lat="40.6499199" lon="9.6223386"><ele>30.333333333333336</ele><time>2026-03-27T12:24:07.852Z</time></trkpt><trkpt lat="40.6498276" lon="9.622501"><ele>30.666666666666668</ele><time>2026-03-27T12:24:08.848Z</time></trkpt><trkpt lat="40.6497286" lon="9.6226746"><ele>31.0</ele><time>2026-03-27T12:24:09.847Z</time></trkpt><trkpt lat="40.6496276" lon="9.6228502"><ele>31.333333333333336</ele><time>2026-03-27T12:24:10.844Z</time></trkpt><trkpt lat="40.6495143" lon="9.6230179"><ele>31.666666666666664</ele><time>2026-03-27T12:24:11.851Z</time></trkpt><trkpt lat="40.6494112" lon="9.6232033"><ele>32.0</ele><time>2026-03-27T12:24:12.846Z</time></trkpt><trkpt lat="40.6493128" lon="9.6233795"><ele>33.0</ele><time>2026-03-27T12:24:13.853Z</time></trkpt><trkpt lat="40.6492214" lon="9.6235536"><ele>34.0</ele><time>2026-03-27T12:24:14.858Z</time></trkpt><trkpt lat="40.6491379" lon="9.6237286"><ele>35.0</ele><time>2026-03-27T12:24:15.844Z</time></trkpt><trkpt lat="40.6490719" lon="9.6239118"><ele>35.0</ele><time>2026-03-27T12:24:16.868Z</time></trkpt><trkpt lat="40.6490227" lon="9.6241047"><ele>35.0</ele><time>2026-03-27T12:24:17.847Z</time></trkpt><trkpt lat="40.6489874" lon="9.6243076"><ele>35.0</ele><time>2026-03-27T12:24:18.851Z</time></trkpt><trkpt lat="40.6489609" lon="9.6245183"><ele>36.0</ele><time>2026-03-27T12:24:19.853Z</time></trkpt><trkpt lat="40.6489396" lon="9.6247333"><ele>37.0</ele><time>2026-03-27T12:24:20.85Z</time></trkpt><trkpt lat="40.64892" lon="9.6249453"><ele>38.0</ele><time>2026-03-27T12:24:21.852Z</time></trkpt><trkpt lat="40.64891" lon="9.6251463"><ele>37.25</ele><time>2026-03-27T12:24:22.843Z</time></trkpt><trkpt lat="40.6489068" lon="9.6253413"><ele>36.5</ele><time>2026-03-27T12:24:23.841Z</time></trkpt><trkpt lat="40.6489167" lon="9.6255349"><ele>35.75</ele><time>2026-03-27T12:24:24.845Z</time></trkpt><trkpt lat="40.6489386" lon="9.6257297"><ele>35.0</ele><time>2026-03-27T12:24:25.849Z</time></trkpt><trkpt lat="40.6489722" lon="9.6259246"><ele>35.0</ele><time>2026-03-27T12:24:26.844Z</time></trkpt><trkpt lat="40.6490159" lon="9.6261192"><ele>35.0</ele><time>2026-03-27T12:24:27.844Z</time></trkpt><trkpt lat="40.6490673" lon="9.6263067"><ele>35.0</ele><time>2026-03-27T12:24:28.845Z</time></trkpt><trkpt lat="40.6491215" lon="9.6264765"><ele>35.0</ele><time>2026-03-27T12:24:29.844Z</time></trkpt><trkpt lat="40.649179" lon="9.6266342"><ele>33.25</ele><time>2026-03-27T12:24:30.847Z</time></trkpt><trkpt lat="40.6492367" lon="9.6267878"><ele>31.5</ele><time>2026-03-27T12:24:31.845Z</time></trkpt><trkpt lat="40.6492938" lon="9.6269399"><ele>29.75</ele><time>2026-03-27T12:24:32.847Z</time></trkpt><trkpt lat="40.6493464" lon="9.6270893"><ele>28.0</ele><time>2026-03-27T12:24:33.85Z</time></trkpt><trkpt lat="40.6493898" lon="9.6272273"><ele>27.799999999999997</ele><time>2026-03-27T12:24:34.849Z</time></trkpt><trkpt lat="40.6494105" lon="9.6273506"><ele>27.599999999999998</ele><time>2026-03-27T12:24:35.844Z</time></trkpt><trkpt lat="40.6494174" lon="9.6274592"><ele>27.400000000000002</ele><time>2026-03-27T12:24:36.85Z</time></trkpt><trkpt lat="40.6493536" lon="9.6275502"><ele>27.200000000000003</ele><time>2026-03-27T12:24:37.845Z</time></trkpt><trkpt lat="40.6492668" lon="9.6276176"><ele>27.0</ele><time>2026-03-27T12:24:38.849Z</time></trkpt><trkpt lat="40.649162" lon="9.6276884"><ele>27.0</ele><time>2026-03-27T12:24:39.85Z</time></trkpt><trkpt lat="40.6490415" lon="9.6277676"><ele>27.0</ele><time>2026-03-27T12:24:40.841Z</time></trkpt><trkpt lat="40.6489121" lon="9.6278624"><ele>27.0</ele><time>2026-03-27T12:24:41.845Z</time></trkpt><trkpt lat="40.648775" lon="9.6279754"><ele>27.0</ele><time>2026-03-27T12:24:42.849Z</time></trkpt><trkpt lat="40.648634" lon="9.6280926"><ele>25.333333333333332</ele><time>2026-03-27T12:24:43.848Z</time></trkpt><trkpt lat="40.6484896" lon="9.6282138"><ele>23.666666666666664</ele><time>2026-03-27T12:24:44.863Z</time></trkpt><trkpt lat="40.6483418" lon="9.6283353"><ele>22.0</ele><time>2026-03-27T12:24:45.85Z</time></trkpt><trkpt lat="40.6481934" lon="9.6284624"><ele>22.0</ele><time>2026-03-27T12:24:46.848Z</time></trkpt><trkpt lat="40.6480492" lon="9.6285918"><ele>22.0</ele><time>2026-03-27T12:24:47.842Z</time></trkpt><trkpt lat="40.6479189" lon="9.628727"><ele>22.0</ele><time>2026-03-27T12:24:48.85Z</time></trkpt><trkpt lat="40.6478004" lon="9.6288768"><ele>20.666666666666664</ele><time>2026-03-27T12:24:49.845Z</time></trkpt><trkpt lat="40.6476953" lon="9.6290433"><ele>19.333333333333332</ele><time>2026-03-27T12:24:50.846Z</time></trkpt><trkpt lat="40.6475995" lon="9.6292223"><ele>18.0</ele><time>2026-03-27T12:24:51.843Z</time></trkpt><trkpt lat="40.6475086" lon="9.6294096"><ele>17.666666666666668</ele><time>2026-03-27T12:24:52.852Z</time></trkpt><trkpt lat="40.6474217" lon="9.6295964"><ele>17.333333333333336</ele><time>2026-03-27T12:24:53.843Z</time></trkpt><trkpt lat="40.647339" lon="9.6297745"><ele>17.0</ele><time>2026-03-27T12:24:54.847Z</time></trkpt><trkpt lat="40.6472586" lon="9.6299478"><ele>17.0</ele><time>2026-03-27T12:24:55.849Z</time></trkpt><trkpt lat="40.6471846" lon="9.6301149"><ele>17.0</ele><time>2026-03-27T12:24:56.844Z</time></trkpt><trkpt lat="40.6471187" lon="9.6302793"><ele>17.0</ele><time>2026-03-27T12:24:57.86Z</time></trkpt><trkpt lat="40.6470685" lon="9.6304522"><ele>17.0</ele><time>2026-03-27T12:24:58.849Z</time></trkpt><trkpt lat="40.6470392" lon="9.6306362"><ele>16.333333333333336</ele><time>2026-03-27T12:24:59.845Z</time></trkpt><trkpt lat="40.6470339" lon="9.6308359"><ele>15.666666666666668</ele><time>2026-03-27T12:25:00.854Z</time></trkpt><trkpt lat="40.6470459" lon="9.6310464"><ele>15.0</ele><time>2026-03-27T12:25:01.845Z</time></trkpt><trkpt lat="40.647068" lon="9.6312647"><ele>14.333333333333332</ele><time>2026-03-27T12:25:02.847Z</time></trkpt><trkpt lat="40.6470949" lon="9.6314895"><ele>13.666666666666666</ele><time>2026-03-27T12:25:03.85Z</time></trkpt><trkpt lat="40.6471234" lon="9.6317194"><ele>13.0</ele><time>2026-03-27T12:25:04.847Z</time></trkpt><trkpt lat="40.6471527" lon="9.6319528"><ele>12.666666666666666</ele><time>2026-03-27T12:25:05.849Z</time></trkpt><trkpt lat="40.6471822" lon="9.6321915"><ele>12.333333333333332</ele><time>2026-03-27T12:25:06.847Z</time></trkpt><trkpt lat="40.6472129" lon="9.6324331"><ele>12.0</ele><time>2026-03-27T12:25:07.849Z</time></trkpt><trkpt lat="40.6472456" lon="9.6326744"><ele>13.333333333333332</ele><time>2026-03-27T12:25:08.841Z</time></trkpt><trkpt lat="40.6472784" lon="9.6329156"><ele>14.666666666666666</ele><time>2026-03-27T12:25:09.841Z</time></trkpt><trkpt lat="40.6473067" lon="9.6331509"><ele>16.0</ele><time>2026-03-27T12:25:10.844Z</time></trkpt><trkpt lat="40.6473353" lon="9.6333883"><ele>16.0</ele><time>2026-03-27T12:25:11.846Z</time></trkpt><trkpt lat="40.6473452" lon="9.6336152"><ele>16.0</ele><time>2026-03-27T12:25:12.848Z</time></trkpt><trkpt lat="40.647321" lon="9.6338388"><ele>16.0</ele><time>2026-03-27T12:25:13.842Z</time></trkpt><trkpt lat="40.6472647" lon="9.6340505"><ele>19.333333333333332</ele><time>2026-03-27T12:25:14.849Z</time></trkpt><trkpt lat="40.6471905" lon="9.6342522"><ele>22.666666666666664</ele><time>2026-03-27T12:25:15.846Z</time></trkpt><trkpt lat="40.64711" lon="9.634451"><ele>26.0</ele><time>2026-03-27T12:25:16.845Z</time></trkpt><trkpt lat="40.6470289" lon="9.6346491"><ele>24.333333333333332</ele><time>2026-03-27T12:25:17.845Z</time></trkpt><trkpt lat="40.6469454" lon="9.6348467"><ele>22.666666666666664</ele><time>2026-03-27T12:25:18.843Z</time></trkpt><trkpt lat="40.6468588" lon="9.6350459"><ele>21.0</ele><time>2026-03-27T12:25:19.843Z</time></trkpt><trkpt lat="40.6467694" lon="9.6352429"><ele>26.0</ele><time>2026-03-27T12:25:20.845Z</time></trkpt><trkpt lat="40.646681" lon="9.6354413"><ele>31.0</ele><time>2026-03-27T12:25:21.852Z</time></trkpt><trkpt lat="40.6465953" lon="9.6356431"><ele>36.0</ele><time>2026-03-27T12:25:22.856Z</time></trkpt><trkpt lat="40.6465148" lon="9.6358471"><ele>36.0</ele><time>2026-03-27T12:25:23.847Z</time></trkpt><trkpt lat="40.6464396" lon="9.6360558"><ele>36.0</ele><time>2026-03-27T12:25:24.847Z</time></trkpt><trkpt lat="40.6463698" lon="9.6362684"><ele>36.0</ele><time>2026-03-27T12:25:25.849Z</time></trkpt><trkpt lat="40.6463028" lon="9.6364846"><ele>36.333333333333336</ele><time>2026-03-27T12:25:26.842Z</time></trkpt><trkpt lat="40.6462353" lon="9.6367055"><ele>36.66666666666667</ele><time>2026-03-27T12:25:27.852Z</time></trkpt><trkpt lat="40.6461617" lon="9.6369274"><ele>37.0</ele><time>2026-03-27T12:25:28.848Z</time></trkpt><trkpt lat="40.6460775" lon="9.6371493"><ele>37.0</ele><time>2026-03-27T12:25:29.847Z</time></trkpt><trkpt lat="40.6459782" lon="9.6373658"><ele>37.0</ele><time>2026-03-27T12:25:30.845Z</time></trkpt><trkpt lat="40.6458751" lon="9.6375721"><ele>37.0</ele><time>2026-03-27T12:25:31.842Z</time></trkpt><trkpt lat="40.6457516" lon="9.6377621"><ele>34.333333333333336</ele><time>2026-03-27T12:25:32.846Z</time></trkpt><trkpt lat="40.6456157" lon="9.6379453"><ele>31.666666666666664</ele><time>2026-03-27T12:25:33.844Z</time></trkpt><trkpt lat="40.6454827" lon="9.6381303"><ele>29.0</ele><time>2026-03-27T12:25:34.85Z</time></trkpt><trkpt lat="40.6453511" lon="9.6383167"><ele>29.0</ele><time>2026-03-27T12:25:35.843Z</time></trkpt><trkpt lat="40.6452192" lon="9.638508"><ele>29.0</ele><time>2026-03-27T12:25:36.845Z</time></trkpt><trkpt lat="40.6450874" lon="9.6387027"><ele>29.0</ele><time>2026-03-27T12:25:37.847Z</time></trkpt><trkpt lat="40.6449545" lon="9.638898"><ele>27.0</ele><time>2026-03-27T12:25:38.845Z</time></trkpt><trkpt lat="40.6448225" lon="9.6390928"><ele>25.0</ele><time>2026-03-27T12:25:39.85Z</time></trkpt><trkpt lat="40.6446961" lon="9.6392766"><ele>23.0</ele><time>2026-03-27T12:25:40.848Z</time></trkpt><trkpt lat="40.6445716" lon="9.6394494"><ele>24.666666666666668</ele><time>2026-03-27T12:25:41.85Z</time></trkpt><trkpt lat="40.6444419" lon="9.639603"><ele>26.333333333333336</ele><time>2026-03-27T12:25:42.845Z</time></trkpt><trkpt lat="40.6443015" lon="9.6397465"><ele>28.0</ele><time>2026-03-27T12:25:43.843Z</time></trkpt><trkpt lat="40.6441534" lon="9.6398764"><ele>28.0</ele><time>2026-03-27T12:25:44.874Z</time></trkpt><trkpt lat="40.6439998" lon="9.640001"><ele>28.0</ele><time>2026-03-27T12:25:45.849Z</time></trkpt><trkpt lat="40.6438432" lon="9.6401154"><ele>28.0</ele><time>2026-03-27T12:25:46.845Z</time></trkpt><trkpt lat="40.6436846" lon="9.6402182"><ele>29.0</ele><time>2026-03-27T12:25:47.845Z</time></trkpt><trkpt lat="40.6435188" lon="9.6403052"><ele>30.0</ele><time>2026-03-27T12:25:48.843Z</time></trkpt><trkpt lat="40.6433497" lon="9.640378"><ele>31.0</ele><time>2026-03-27T12:25:49.864Z</time></trkpt><trkpt lat="40.6431769" lon="9.6404418"><ele>31.0</ele><time>2026-03-27T12:25:50.841Z</time></trkpt><trkpt lat="40.6430048" lon="9.6404905"><ele>31.0</ele><time>2026-03-27T12:25:51.843Z</time></trkpt><trkpt lat="40.6428321" lon="9.6405192"><ele>31.0</ele><time>2026-03-27T12:25:52.849Z</time></trkpt><trkpt lat="40.6426604" lon="9.6405223"><ele>33.66666666666667</ele><time>2026-03-27T12:25:53.844Z</time></trkpt><trkpt lat="40.6424901" lon="9.6405037"><ele>36.333333333333336</ele><time>2026-03-27T12:25:54.847Z</time></trkpt><trkpt lat="40.6423222" lon="9.6404731"><ele>39.0</ele><time>2026-03-27T12:25:55.848Z</time></trkpt><trkpt lat="40.6421583" lon="9.6404472"><ele>39.0</ele><time>2026-03-27T12:25:56.855Z</time></trkpt><trkpt lat="40.6419958" lon="9.6404386"><ele>39.0</ele><time>2026-03-27T12:25:57.851Z</time></trkpt><trkpt lat="40.6418359" lon="9.6404589"><ele>39.0</ele><time>2026-03-27T12:25:58.85Z</time></trkpt><trkpt lat="40.6416797" lon="9.6405098"><ele>37.75</ele><time>2026-03-27T12:25:59.849Z</time></trkpt><trkpt lat="40.6415442" lon="9.6405914"><ele>36.5</ele><time>2026-03-27T12:26:00.846Z</time></trkpt><trkpt lat="40.6414317" lon="9.6407008"><ele>35.25</ele><time>2026-03-27T12:26:01.851Z</time></trkpt><trkpt lat="40.6413346" lon="9.6408123"><ele>34.0</ele><time>2026-03-27T12:26:02.854Z</time></trkpt><trkpt lat="40.6412482" lon="9.6409138"><ele>34.0</ele><time>2026-03-27T12:26:03.848Z</time></trkpt><trkpt lat="40.6411831" lon="9.6409922"><ele>34.0</ele><time>2026-03-27T12:26:04.853Z</time></trkpt><trkpt lat="40.6411287" lon="9.6410753"><ele>34.0</ele><time>2026-03-27T12:26:06.848Z</time></trkpt><trkpt lat="40.641141" lon="9.6411896"><ele>34.0</ele><time>2026-03-27T12:26:10.852Z</time></trkpt><trkpt lat="40.641125" lon="9.6412779"><ele>34.0</ele><time>2026-03-27T12:26:12.85Z</time></trkpt><trkpt lat="40.6410587" lon="9.6413813"><ele>34.0</ele><time>2026-03-27T12:26:14.849Z</time></trkpt><trkpt lat="40.6409971" lon="9.6414848"><ele>33.66666666666667</ele><time>2026-03-27T12:26:16.845Z</time></trkpt><trkpt lat="40.6409609" lon="9.6415706"><ele>33.333333333333336</ele><time>2026-03-27T12:26:18.848Z</time></trkpt><trkpt lat="40.6409734" lon="9.6416839"><ele>33.0</ele><time>2026-03-27T12:27:26.856Z</time></trkpt><trkpt lat="40.6410237" lon="9.6417566"><ele>32.666666666666664</ele><time>2026-03-27T12:27:28.854Z</time></trkpt><trkpt lat="40.6410999" lon="9.641858"><ele>32.33333333333333</ele><time>2026-03-27T12:27:30.852Z</time></trkpt><trkpt lat="40.6411744" lon="9.6419525"><ele>32.0</ele><time>2026-03-27T12:27:32.847Z</time></trkpt><trkpt lat="40.6412342" lon="9.6420549"><ele>35.33333333333333</ele><time>2026-03-27T12:27:34.851Z</time></trkpt><trkpt lat="40.6412693" lon="9.6421838"><ele>38.666666666666664</ele><time>2026-03-27T12:27:36.851Z</time></trkpt><trkpt lat="40.6412876" lon="9.6422676"><ele>42.0</ele><time>2026-03-27T12:27:37.849Z</time></trkpt><trkpt lat="40.6413054" lon="9.6423736"><ele>45.33333333333333</ele><time>2026-03-27T12:27:38.851Z</time></trkpt><trkpt lat="40.6413367" lon="9.6424775"><ele>48.666666666666664</ele><time>2026-03-27T12:27:39.844Z</time></trkpt><trkpt lat="40.6413642" lon="9.6425611"><ele>52.0</ele><time>2026-03-27T12:27:40.851Z</time></trkpt><trkpt lat="40.6414046" lon="9.6426373"><ele>52.0</ele><time>2026-03-27T12:27:41.844Z</time></trkpt><trkpt lat="40.6414553" lon="9.6427051"><ele>52.0</ele><time>2026-03-27T12:27:42.874Z</time></trkpt><trkpt lat="40.6415189" lon="9.6427956"><ele>52.0</ele><time>2026-03-27T12:27:43.846Z</time></trkpt><trkpt lat="40.6415853" lon="9.6428956"><ele>52.0</ele><time>2026-03-27T12:27:44.849Z</time></trkpt><trkpt lat="40.6416512" lon="9.6429869"><ele>52.0</ele><time>2026-03-27T12:27:45.848Z</time></trkpt><trkpt lat="40.6417103" lon="9.6430854"><ele>50.166666666666664</ele><time>2026-03-27T12:27:46.849Z</time></trkpt><trkpt lat="40.6417719" lon="9.6431769"><ele>48.33333333333333</ele><time>2026-03-27T12:27:47.846Z</time></trkpt><trkpt lat="40.641828" lon="9.6432642"><ele>46.5</ele><time>2026-03-27T12:27:48.85Z</time></trkpt><trkpt lat="40.6418805" lon="9.6433445"><ele>44.666666666666664</ele><time>2026-03-27T12:27:49.847Z</time></trkpt><trkpt lat="40.6419304" lon="9.6434198"><ele>42.83333333333333</ele><time>2026-03-27T12:27:50.85Z</time></trkpt><trkpt lat="40.641982" lon="9.6434983"><ele>41.0</ele><time>2026-03-27T12:27:51.846Z</time></trkpt><trkpt lat="40.642041" lon="9.6435876"><ele>44.8</ele><time>2026-03-27T12:27:52.848Z</time></trkpt><trkpt lat="40.6420962" lon="9.6436758"><ele>48.599999999999994</ele><time>2026-03-27T12:27:53.849Z</time></trkpt><trkpt lat="40.6421338" lon="9.6437596"><ele>52.4</ele><time>2026-03-27T12:27:54.845Z</time></trkpt><trkpt lat="40.6421439" lon="9.6438956"><ele>56.2</ele><time>2026-03-27T12:27:56.843Z</time></trkpt><trkpt lat="40.6420724" lon="9.6440396"><ele>60.0</ele><time>2026-03-27T12:27:58.844Z</time></trkpt><trkpt lat="40.6420293" lon="9.6441261"><ele>60.0</ele><time>2026-03-27T12:27:59.842Z</time></trkpt><trkpt lat="40.6419972" lon="9.6442276"><ele>60.0</ele><time>2026-03-27T12:28:00.849Z</time></trkpt><trkpt lat="40.6419787" lon="9.6443509"><ele>60.0</ele><time>2026-03-27T12:28:01.845Z</time></trkpt><trkpt lat="40.6419644" lon="9.6444913"><ele>60.0</ele><time>2026-03-27T12:28:02.847Z</time></trkpt><trkpt lat="40.6419614" lon="9.6446515"><ele>60.0</ele><time>2026-03-27T12:28:03.847Z</time></trkpt><trkpt lat="40.6419708" lon="9.6448188"><ele>60.5</ele><time>2026-03-27T12:28:04.849Z</time></trkpt><trkpt lat="40.6419916" lon="9.6449859"><ele>61.0</ele><time>2026-03-27T12:28:05.842Z</time></trkpt><trkpt lat="40.6420231" lon="9.6451515"><ele>61.5</ele><time>2026-03-27T12:28:06.846Z</time></trkpt><trkpt lat="40.6420662" lon="9.6453089"><ele>62.0</ele><time>2026-03-27T12:28:07.848Z</time></trkpt><trkpt lat="40.6421134" lon="9.6454477"><ele>61.16666666666667</ele><time>2026-03-27T12:28:08.846Z</time></trkpt><trkpt lat="40.6421586" lon="9.6455667"><ele>60.333333333333336</ele><time>2026-03-27T12:28:09.848Z</time></trkpt><trkpt lat="40.6421838" lon="9.6456645"><ele>59.5</ele><time>2026-03-27T12:28:10.845Z</time></trkpt><trkpt lat="40.6422063" lon="9.6457586"><ele>58.66666666666667</ele><time>2026-03-27T12:28:11.849Z</time></trkpt><trkpt lat="40.6421837" lon="9.6458734"><ele>57.833333333333336</ele><time>2026-03-27T12:28:12.844Z</time></trkpt><trkpt lat="40.6421628" lon="9.64598"><ele>57.0</ele><time>2026-03-27T12:28:13.848Z</time></trkpt><trkpt lat="40.6421288" lon="9.6460653"><ele>57.400000000000006</ele><time>2026-03-27T12:28:14.847Z</time></trkpt><trkpt lat="40.6420863" lon="9.6461541"><ele>57.800000000000004</ele><time>2026-03-27T12:28:15.847Z</time></trkpt><trkpt lat="40.6420527" lon="9.646272"><ele>58.2</ele><time>2026-03-27T12:28:16.841Z</time></trkpt><trkpt lat="40.6420265" lon="9.6464254"><ele>58.6</ele><time>2026-03-27T12:28:17.843Z</time></trkpt><trkpt lat="40.6420002" lon="9.6465875"><ele>59.0</ele><time>2026-03-27T12:28:18.843Z</time></trkpt><trkpt lat="40.6419745" lon="9.6467208"><ele>54.50000000000001</ele><time>2026-03-27T12:28:19.846Z</time></trkpt><trkpt lat="40.6419429" lon="9.6468382"><ele>50.0</ele><time>2026-03-27T12:28:20.841Z</time></trkpt><trkpt lat="40.641911" lon="9.6469569"><ele>45.5</ele><time>2026-03-27T12:28:21.845Z</time></trkpt><trkpt lat="40.6418856" lon="9.6470682"><ele>41.0</ele><time>2026-03-27T12:28:22.848Z</time></trkpt><trkpt lat="40.6418641" lon="9.6471698"><ele>36.5</ele><time>2026-03-27T12:28:23.844Z</time></trkpt><trkpt lat="40.6418641" lon="9.6472618"><ele>32.0</ele><time>2026-03-27T12:28:24.843Z</time></trkpt><trkpt lat="40.6418595" lon="9.6473577"><ele>32.0</ele><time>2026-03-27T12:28:25.851Z</time></trkpt><trkpt lat="40.6418726" lon="9.6474791"><ele>32.0</ele><time>2026-03-27T12:28:26.846Z</time></trkpt><trkpt lat="40.6418841" lon="9.6476087"><ele>32.0</ele><time>2026-03-27T12:28:27.847Z</time></trkpt><trkpt lat="40.6418991" lon="9.6477429"><ele>32.0</ele><time>2026-03-27T12:28:28.843Z</time></trkpt><trkpt lat="40.6419098" lon="9.6478806"><ele>32.0</ele><time>2026-03-27T12:28:29.848Z</time></trkpt><trkpt lat="40.6419147" lon="9.6480165"><ele>33.0</ele><time>2026-03-27T12:28:30.847Z</time></trkpt><trkpt lat="40.6419202" lon="9.6481509"><ele>34.0</ele><time>2026-03-27T12:28:31.849Z</time></trkpt><trkpt lat="40.641952" lon="9.6482727"><ele>35.0</ele><time>2026-03-27T12:28:32.845Z</time></trkpt><trkpt lat="40.6419925" lon="9.6483956"><ele>36.0</ele><time>2026-03-27T12:28:33.845Z</time></trkpt><trkpt lat="40.6420306" lon="9.6485136"><ele>37.0</ele><time>2026-03-27T12:28:34.845Z</time></trkpt><trkpt lat="40.6420552" lon="9.648615"><ele>40.16666666666667</ele><time>2026-03-27T12:28:35.844Z</time></trkpt><trkpt lat="40.6420781" lon="9.6487136"><ele>43.333333333333336</ele><time>2026-03-27T12:28:36.855Z</time></trkpt><trkpt lat="40.6420764" lon="9.6488095"><ele>46.5</ele><time>2026-03-27T12:28:37.844Z</time></trkpt><trkpt lat="40.6420744" lon="9.6489056"><ele>49.66666666666667</ele><time>2026-03-27T12:28:38.853Z</time></trkpt><trkpt lat="40.6420569" lon="9.6490179"><ele>52.833333333333336</ele><time>2026-03-27T12:28:40.843Z</time></trkpt><trkpt lat="40.6419535" lon="9.6490925"><ele>56.0</ele><time>2026-03-27T12:29:01.846Z</time></trkpt><trkpt lat="40.6418944" lon="9.6491225"><ele>56.0</ele><time>2026-03-27T12:29:02.842Z</time></trkpt><trkpt lat="40.6417834" lon="9.6491385"><ele>55.99999999999999</ele><time>2026-03-27T12:29:04.846Z</time></trkpt><trkpt lat="40.6417087" lon="9.649106"><ele>55.99999999999999</ele><time>2026-03-27T12:29:05.843Z</time></trkpt><trkpt lat="40.6416289" lon="9.6490687"><ele>56.0</ele><time>2026-03-27T12:29:06.843Z</time></trkpt><trkpt lat="40.6415333" lon="9.6490156"><ele>56.0</ele><time>2026-03-27T12:29:07.841Z</time></trkpt><trkpt lat="40.6414049" lon="9.6489502"><ele>56.0</ele><time>2026-03-27T12:29:08.859Z</time></trkpt><trkpt lat="40.6412671" lon="9.6488943"><ele>56.0</ele><time>2026-03-27T12:29:09.85Z</time></trkpt><trkpt lat="40.6411141" lon="9.6488356"><ele>56.0</ele><time>2026-03-27T12:29:10.848Z</time></trkpt><trkpt lat="40.6409745" lon="9.6487786"><ele>58.0</ele><time>2026-03-27T12:29:11.845Z</time></trkpt><trkpt lat="40.640848" lon="9.6487291"><ele>59.99999999999999</ele><time>2026-03-27T12:29:12.844Z</time></trkpt><trkpt lat="40.640738" lon="9.6486916"><ele>61.99999999999999</ele><time>2026-03-27T12:29:13.841Z</time></trkpt><trkpt lat="40.6406399" lon="9.6486706"><ele>64.0</ele><time>2026-03-27T12:29:14.844Z</time></trkpt><trkpt lat="40.6405553" lon="9.6486777"><ele>66.0</ele><time>2026-03-27T12:29:15.841Z</time></trkpt><trkpt lat="40.6404722" lon="9.6487097"><ele>66.0</ele><time>2026-03-27T12:29:16.844Z</time></trkpt><trkpt lat="40.6403995" lon="9.6487629"><ele>66.0</ele><time>2026-03-27T12:29:17.842Z</time></trkpt><trkpt lat="40.6403334" lon="9.6488142"><ele>66.0</ele><time>2026-03-27T12:29:18.857Z</time></trkpt><trkpt lat="40.6402835" lon="9.6488922"><ele>66.0</ele><time>2026-03-27T12:29:19.846Z</time></trkpt><trkpt lat="40.6402381" lon="9.6490053"><ele>66.0</ele><time>2026-03-27T12:29:20.843Z</time></trkpt><trkpt lat="40.6401869" lon="9.6491297"><ele>66.0</ele><time>2026-03-27T12:29:21.842Z</time></trkpt><trkpt lat="40.640133" lon="9.6492312"><ele>63.199999999999996</ele><time>2026-03-27T12:29:22.841Z</time></trkpt><trkpt lat="40.640073" lon="9.6493054"><ele>60.39999999999999</ele><time>2026-03-27T12:29:23.848Z</time></trkpt><trkpt lat="40.6400053" lon="9.6493522"><ele>57.6</ele><time>2026-03-27T12:29:24.841Z</time></trkpt><trkpt lat="40.6399171" lon="9.6493931"><ele>54.8</ele><time>2026-03-27T12:29:25.854Z</time></trkpt><trkpt lat="40.6398099" lon="9.6494279"><ele>52.0</ele><time>2026-03-27T12:29:26.847Z</time></trkpt><trkpt lat="40.6397012" lon="9.6494437"><ele>54.400000000000006</ele><time>2026-03-27T12:29:27.848Z</time></trkpt><trkpt lat="40.6396027" lon="9.6494621"><ele>56.800000000000004</ele><time>2026-03-27T12:29:28.847Z</time></trkpt><trkpt lat="40.6395093" lon="9.6494816"><ele>59.2</ele><time>2026-03-27T12:29:29.845Z</time></trkpt><trkpt lat="40.6394135" lon="9.6495428"><ele>61.6</ele><time>2026-03-27T12:29:30.85Z</time></trkpt><trkpt lat="40.6393114" lon="9.6496203"><ele>64.0</ele><time>2026-03-27T12:29:31.841Z</time></trkpt><trkpt lat="40.6392087" lon="9.6497153"><ele>64.0</ele><time>2026-03-27T12:29:32.841Z</time></trkpt><trkpt lat="40.6391097" lon="9.6498196"><ele>64.0</ele><time>2026-03-27T12:29:33.844Z</time></trkpt><trkpt lat="40.6390155" lon="9.6499096"><ele>64.0</ele><time>2026-03-27T12:29:34.846Z</time></trkpt><trkpt lat="40.6389092" lon="9.6499863"><ele>64.0</ele><time>2026-03-27T12:29:35.855Z</time></trkpt><trkpt lat="40.6387977" lon="9.6500662"><ele>64.0</ele><time>2026-03-27T12:29:36.848Z</time></trkpt><trkpt lat="40.6386868" lon="9.6501585"><ele>64.0</ele><time>2026-03-27T12:29:37.85Z</time></trkpt><trkpt lat="40.6385762" lon="9.6502441"><ele>64.0</ele><time>2026-03-27T12:29:38.847Z</time></trkpt><trkpt lat="40.6384715" lon="9.6503159"><ele>64.0</ele><time>2026-03-27T12:29:39.848Z</time></trkpt><trkpt lat="40.6383695" lon="9.6503643"><ele>63.666666666666664</ele><time>2026-03-27T12:29:40.856Z</time></trkpt><trkpt lat="40.6382798" lon="9.6504075"><ele>63.33333333333333</ele><time>2026-03-27T12:29:41.845Z</time></trkpt><trkpt lat="40.6382092" lon="9.6504718"><ele>63.0</ele><time>2026-03-27T12:29:43.845Z</time></trkpt><trkpt lat="40.6382068" lon="9.6505922"><ele>62.66666666666667</ele><time>2026-03-27T12:29:45.861Z</time></trkpt><trkpt lat="40.6382257" lon="9.650709"><ele>62.333333333333336</ele><time>2026-03-27T12:29:47.849Z</time></trkpt><trkpt lat="40.6382353" lon="9.6508064"><ele>62.0</ele><time>2026-03-27T12:29:49.848Z</time></trkpt><trkpt lat="40.6382546" lon="9.6509491"><ele>62.0</ele><time>2026-03-27T12:29:51.859Z</time></trkpt><trkpt lat="40.6382796" lon="9.651094"><ele>62.0</ele><time>2026-03-27T12:29:53.848Z</time></trkpt><trkpt lat="40.6383002" lon="9.651239"><ele>62.0</ele><time>2026-03-27T12:29:55.849Z</time></trkpt><trkpt lat="40.638311" lon="9.6513244"><ele>62.0</ele><time>2026-03-27T12:29:56.851Z</time></trkpt><trkpt lat="40.6383251" lon="9.6514077"><ele>62.0</ele><time>2026-03-27T12:29:57.851Z</time></trkpt><trkpt lat="40.6383433" lon="9.6515514"><ele>60.2</ele><time>2026-03-27T12:29:59.845Z</time></trkpt><trkpt lat="40.6383266" lon="9.6516808"><ele>58.400000000000006</ele><time>2026-03-27T12:30:01.857Z</time></trkpt><trkpt lat="40.6382249" lon="9.6517517"><ele>56.599999999999994</ele><time>2026-03-27T12:30:03.856Z</time></trkpt><trkpt lat="40.638125" lon="9.6518085"><ele>54.8</ele><time>2026-03-27T12:30:05.846Z</time></trkpt><trkpt lat="40.6380737" lon="9.6518832"><ele>53.0</ele><time>2026-03-27T12:30:07.849Z</time></trkpt><trkpt lat="40.6380736" lon="9.6520083"><ele>50.599999999999994</ele><time>2026-03-27T12:30:09.846Z</time></trkpt><trkpt lat="40.6380898" lon="9.6521503"><ele>48.199999999999996</ele><time>2026-03-27T12:30:11.849Z</time></trkpt><trkpt lat="40.6380761" lon="9.6522915"><ele>45.8</ele><time>2026-03-27T12:30:13.848Z</time></trkpt><trkpt lat="40.6380201" lon="9.6523929"><ele>43.4</ele><time>2026-03-27T12:30:15.855Z</time></trkpt><trkpt lat="40.6379466" lon="9.6524425"><ele>41.0</ele><time>2026-03-27T12:30:17.854Z</time></trkpt><trkpt lat="40.6378499" lon="9.6524338"><ele>39.599999999999994</ele><time>2026-03-27T12:30:19.852Z</time></trkpt><trkpt lat="40.6377677" lon="9.6524732"><ele>38.199999999999996</ele><time>2026-03-27T12:30:21.847Z</time></trkpt><trkpt lat="40.6377312" lon="9.652616"><ele>36.8</ele><time>2026-03-27T12:30:23.853Z</time></trkpt><trkpt lat="40.637713" lon="9.6527764"><ele>35.4</ele><time>2026-03-27T12:30:25.849Z</time></trkpt><trkpt lat="40.6376914" lon="9.6528562"><ele>34.0</ele><time>2026-03-27T12:30:26.849Z</time></trkpt><trkpt lat="40.6376295" lon="9.6529936"><ele>33.0</ele><time>2026-03-27T12:30:28.845Z</time></trkpt><trkpt lat="40.6375661" lon="9.6531243"><ele>32.0</ele><time>2026-03-27T12:30:30.846Z</time></trkpt><trkpt lat="40.6375107" lon="9.6532654"><ele>31.0</ele><time>2026-03-27T12:30:32.849Z</time></trkpt><trkpt lat="40.6374821" lon="9.6533399"><ele>30.0</ele><time>2026-03-27T12:30:33.849Z</time></trkpt><trkpt lat="40.6374531" lon="9.6534228"><ele>29.000000000000004</ele><time>2026-03-27T12:30:34.851Z</time></trkpt><trkpt lat="40.6374289" lon="9.6535087"><ele>28.0</ele><time>2026-03-27T12:30:35.851Z</time></trkpt><trkpt lat="40.6374026" lon="9.6535984"><ele>27.166666666666668</ele><time>2026-03-27T12:30:36.851Z</time></trkpt><trkpt lat="40.6373741" lon="9.6536955"><ele>26.333333333333336</ele><time>2026-03-27T12:30:37.85Z</time></trkpt><trkpt lat="40.6373481" lon="9.6537969"><ele>25.5</ele><time>2026-03-27T12:30:38.85Z</time></trkpt><trkpt lat="40.6373227" lon="9.6538987"><ele>24.666666666666668</ele><time>2026-03-27T12:30:39.851Z</time></trkpt><trkpt lat="40.6372843" lon="9.6540075"><ele>23.833333333333336</ele><time>2026-03-27T12:30:40.847Z</time></trkpt><trkpt lat="40.637247" lon="9.6541119"><ele>23.0</ele><time>2026-03-27T12:30:41.851Z</time></trkpt><trkpt lat="40.6371914" lon="9.654212"><ele>23.0</ele><time>2026-03-27T12:30:42.852Z</time></trkpt><trkpt lat="40.6371213" lon="9.6543154"><ele>23.0</ele><time>2026-03-27T12:30:43.85Z</time></trkpt><trkpt lat="40.637055" lon="9.6544203"><ele>23.0</ele><time>2026-03-27T12:30:44.856Z</time></trkpt><trkpt lat="40.6369881" lon="9.6545162"><ele>23.0</ele><time>2026-03-27T12:30:45.858Z</time></trkpt><trkpt lat="40.6369457" lon="9.654606"><ele>23.0</ele><time>2026-03-27T12:30:46.845Z</time></trkpt><trkpt lat="40.6369227" lon="9.6546834"><ele>22.599999999999998</ele><time>2026-03-27T12:30:47.888Z</time></trkpt><trkpt lat="40.6369209" lon="9.6548386"><ele>22.2</ele><time>2026-03-27T12:30:49.846Z</time></trkpt><trkpt lat="40.6369434" lon="9.6549375"><ele>21.8</ele><time>2026-03-27T12:30:50.845Z</time></trkpt><trkpt lat="40.636969" lon="9.6550501"><ele>21.4</ele><time>2026-03-27T12:30:51.848Z</time></trkpt><trkpt lat="40.6370226" lon="9.6551855"><ele>21.0</ele><time>2026-03-27T12:30:52.846Z</time></trkpt><trkpt lat="40.637078" lon="9.6553251"><ele>20.5</ele><time>2026-03-27T12:30:53.872Z</time></trkpt><trkpt lat="40.63714" lon="9.6554792"><ele>20.0</ele><time>2026-03-27T12:30:54.845Z</time></trkpt><trkpt lat="40.6372054" lon="9.6556473"><ele>19.5</ele><time>2026-03-27T12:30:55.85Z</time></trkpt><trkpt lat="40.6372651" lon="9.6558382"><ele>19.0</ele><time>2026-03-27T12:30:56.853Z</time></trkpt><trkpt lat="40.6373184" lon="9.6560368"><ele>19.0</ele><time>2026-03-27T12:30:57.849Z</time></trkpt><trkpt lat="40.6373601" lon="9.6562533"><ele>19.0</ele><time>2026-03-27T12:30:58.864Z</time></trkpt><trkpt lat="40.6373975" lon="9.6564754"><ele>19.0</ele><time>2026-03-27T12:30:59.853Z</time></trkpt><trkpt lat="40.637406" lon="9.6566936"><ele>19.0</ele><time>2026-03-27T12:31:00.845Z</time></trkpt><trkpt lat="40.637402" lon="9.6569159"><ele>19.0</ele><time>2026-03-27T12:31:01.853Z</time></trkpt><trkpt lat="40.6373963" lon="9.6571388"><ele>19.0</ele><time>2026-03-27T12:31:02.847Z</time></trkpt><trkpt lat="40.6373889" lon="9.6573618"><ele>19.333333333333332</ele><time>2026-03-27T12:31:03.848Z</time></trkpt><trkpt lat="40.6373806" lon="9.6575913"><ele>19.666666666666668</ele><time>2026-03-27T12:31:04.862Z</time></trkpt><trkpt lat="40.6373742" lon="9.6578194"><ele>20.0</ele><time>2026-03-27T12:31:05.847Z</time></trkpt><trkpt lat="40.6373669" lon="9.6580512"><ele>20.0</ele><time>2026-03-27T12:31:06.846Z</time></trkpt><trkpt lat="40.6373561" lon="9.6582808"><ele>20.0</ele><time>2026-03-27T12:31:07.849Z</time></trkpt><trkpt lat="40.6373471" lon="9.6585165"><ele>20.0</ele><time>2026-03-27T12:31:08.846Z</time></trkpt><trkpt lat="40.6373349" lon="9.6587461"><ele>19.666666666666668</ele><time>2026-03-27T12:31:09.849Z</time></trkpt><trkpt lat="40.6373227" lon="9.6589842"><ele>19.333333333333332</ele><time>2026-03-27T12:31:10.857Z</time></trkpt><trkpt lat="40.6373139" lon="9.6592237"><ele>19.0</ele><time>2026-03-27T12:31:11.85Z</time></trkpt><trkpt lat="40.6373014" lon="9.6594687"><ele>18.666666666666664</ele><time>2026-03-27T12:31:12.851Z</time></trkpt><trkpt lat="40.6372878" lon="9.6597162"><ele>18.333333333333332</ele><time>2026-03-27T12:31:13.849Z</time></trkpt><trkpt lat="40.6372765" lon="9.659972"><ele>18.0</ele><time>2026-03-27T12:31:14.849Z</time></trkpt><trkpt lat="40.6372539" lon="9.6602202"><ele>18.0</ele><time>2026-03-27T12:31:15.847Z</time></trkpt><trkpt lat="40.6372445" lon="9.6604776"><ele>18.0</ele><time>2026-03-27T12:31:16.857Z</time></trkpt><trkpt lat="40.6372349" lon="9.6607358"><ele>18.0</ele><time>2026-03-27T12:31:17.85Z</time></trkpt><trkpt lat="40.6372253" lon="9.6609943"><ele>17.666666666666668</ele><time>2026-03-27T12:31:18.85Z</time></trkpt><trkpt lat="40.6372159" lon="9.6612521"><ele>17.333333333333336</ele><time>2026-03-27T12:31:19.845Z</time></trkpt><trkpt lat="40.6372061" lon="9.6615097"><ele>17.0</ele><time>2026-03-27T12:31:20.844Z</time></trkpt><trkpt lat="40.6371957" lon="9.6617671"><ele>16.666666666666668</ele><time>2026-03-27T12:31:21.846Z</time></trkpt><trkpt lat="40.6371836" lon="9.6620246"><ele>16.333333333333332</ele><time>2026-03-27T12:31:22.842Z</time></trkpt><trkpt lat="40.6371725" lon="9.6622786"><ele>16.0</ele><time>2026-03-27T12:31:23.854Z</time></trkpt><trkpt lat="40.637162" lon="9.66253"><ele>16.0</ele><time>2026-03-27T12:31:24.842Z</time></trkpt><trkpt lat="40.6371508" lon="9.6627827"><ele>16.0</ele><time>2026-03-27T12:31:25.844Z</time></trkpt><trkpt lat="40.6371392" lon="9.6630352"><ele>16.0</ele><time>2026-03-27T12:31:26.849Z</time></trkpt><trkpt lat="40.6371289" lon="9.6632873"><ele>16.0</ele><time>2026-03-27T12:31:27.845Z</time></trkpt><trkpt lat="40.63712" lon="9.663542"><ele>16.0</ele><time>2026-03-27T12:31:28.841Z</time></trkpt><trkpt lat="40.6371118" lon="9.6637982"><ele>16.0</ele><time>2026-03-27T12:31:29.849Z</time></trkpt><trkpt lat="40.6371031" lon="9.6640529"><ele>15.666666666666666</ele><time>2026-03-27T12:31:30.851Z</time></trkpt><trkpt lat="40.63709" lon="9.6643086"><ele>15.333333333333332</ele><time>2026-03-27T12:31:31.843Z</time></trkpt><trkpt lat="40.6370751" lon="9.6645656"><ele>15.0</ele><time>2026-03-27T12:31:32.848Z</time></trkpt><trkpt lat="40.637058" lon="9.6648215"><ele>15.0</ele><time>2026-03-27T12:31:33.844Z</time></trkpt><trkpt lat="40.6370375" lon="9.6650767"><ele>15.0</ele><time>2026-03-27T12:31:34.841Z</time></trkpt><trkpt lat="40.6370136" lon="9.665331"><ele>15.0</ele><time>2026-03-27T12:31:35.844Z</time></trkpt><trkpt lat="40.6369869" lon="9.6655848"><ele>15.0</ele><time>2026-03-27T12:31:36.848Z</time></trkpt><trkpt lat="40.6369601" lon="9.6658394"><ele>15.0</ele><time>2026-03-27T12:31:37.857Z</time></trkpt><trkpt lat="40.6369318" lon="9.6660937"><ele>15.0</ele><time>2026-03-27T12:31:38.852Z</time></trkpt><trkpt lat="40.6369026" lon="9.6663481"><ele>15.0</ele><time>2026-03-27T12:31:39.841Z</time></trkpt><trkpt lat="40.636875" lon="9.6666008"><ele>15.0</ele><time>2026-03-27T12:31:40.846Z</time></trkpt><trkpt lat="40.6368485" lon="9.666852"><ele>15.0</ele><time>2026-03-27T12:31:41.842Z</time></trkpt><trkpt lat="40.636831" lon="9.6671047"><ele>15.333333333333332</ele><time>2026-03-27T12:31:42.858Z</time></trkpt><trkpt lat="40.6368239" lon="9.6673492"><ele>15.666666666666666</ele><time>2026-03-27T12:31:43.853Z</time></trkpt><trkpt lat="40.636856" lon="9.6676006"><ele>16.0</ele><time>2026-03-27T12:31:44.846Z</time></trkpt><trkpt lat="40.6369037" lon="9.6678404"><ele>16.333333333333332</ele><time>2026-03-27T12:31:45.849Z</time></trkpt><trkpt lat="40.6369646" lon="9.6680797"><ele>16.666666666666668</ele><time>2026-03-27T12:31:46.844Z</time></trkpt><trkpt lat="40.6370285" lon="9.6683179"><ele>17.0</ele><time>2026-03-27T12:31:47.848Z</time></trkpt><trkpt lat="40.6370932" lon="9.6685569"><ele>16.666666666666668</ele><time>2026-03-27T12:31:48.849Z</time></trkpt><trkpt lat="40.6371567" lon="9.6687985"><ele>16.333333333333332</ele><time>2026-03-27T12:31:49.845Z</time></trkpt><trkpt lat="40.63722" lon="9.6690458"><ele>16.0</ele><time>2026-03-27T12:31:50.849Z</time></trkpt><trkpt lat="40.637282" lon="9.6692944"><ele>14.333333333333332</ele><time>2026-03-27T12:31:51.847Z</time></trkpt><trkpt lat="40.6373432" lon="9.6695444"><ele>12.666666666666666</ele><time>2026-03-27T12:31:52.851Z</time></trkpt><trkpt lat="40.6374" lon="9.669784"><ele>11.0</ele><time>2026-03-27T12:31:53.844Z</time></trkpt><trkpt lat="40.6374473" lon="9.6700206"><ele>11.0</ele><time>2026-03-27T12:31:54.846Z</time></trkpt><trkpt lat="40.6374817" lon="9.6702584"><ele>11.0</ele><time>2026-03-27T12:31:55.844Z</time></trkpt><trkpt lat="40.6374917" lon="9.6704978"><ele>11.0</ele><time>2026-03-27T12:31:56.849Z</time></trkpt><trkpt lat="40.6374711" lon="9.6707341"><ele>10.0</ele><time>2026-03-27T12:31:57.851Z</time></trkpt><trkpt lat="40.6374419" lon="9.6709646"><ele>9.0</ele><time>2026-03-27T12:31:58.846Z</time></trkpt><trkpt lat="40.6373722" lon="9.6711819"><ele>8.0</ele><time>2026-03-27T12:31:59.848Z</time></trkpt><trkpt lat="40.6372752" lon="9.671391"><ele>7.333333333333333</ele><time>2026-03-27T12:32:00.851Z</time></trkpt><trkpt lat="40.6371627" lon="9.6715896"><ele>6.666666666666666</ele><time>2026-03-27T12:32:01.847Z</time></trkpt><trkpt lat="40.6370462" lon="9.6718"><ele>6.0</ele><time>2026-03-27T12:32:02.845Z</time></trkpt><trkpt lat="40.6369333" lon="9.6720158"><ele>5.666666666666667</ele><time>2026-03-27T12:32:03.844Z</time></trkpt><trkpt lat="40.6368159" lon="9.6722276"><ele>5.333333333333334</ele><time>2026-03-27T12:32:04.853Z</time></trkpt><trkpt lat="40.6366971" lon="9.6724321"><ele>5.0</ele><time>2026-03-27T12:32:05.846Z</time></trkpt><trkpt lat="40.6365834" lon="9.6726375"><ele>5.0</ele><time>2026-03-27T12:32:06.845Z</time></trkpt><trkpt lat="40.636479" lon="9.6728481"><ele>5.0</ele><time>2026-03-27T12:32:07.847Z</time></trkpt><trkpt lat="40.6363867" lon="9.673067"><ele>5.0</ele><time>2026-03-27T12:32:08.843Z</time></trkpt><trkpt lat="40.636306" lon="9.6732933"><ele>5.0</ele><time>2026-03-27T12:32:09.855Z</time></trkpt><trkpt lat="40.6362308" lon="9.6735216"><ele>5.0</ele><time>2026-03-27T12:32:10.848Z</time></trkpt><trkpt lat="40.6361577" lon="9.6737534"><ele>5.0</ele><time>2026-03-27T12:32:11.844Z</time></trkpt><trkpt lat="40.6360827" lon="9.6739835"><ele>5.0</ele><time>2026-03-27T12:32:12.841Z</time></trkpt><trkpt lat="40.6360096" lon="9.6742097"><ele>5.0</ele><time>2026-03-27T12:32:13.851Z</time></trkpt><trkpt lat="40.6359416" lon="9.6744204"><ele>5.0</ele><time>2026-03-27T12:32:14.852Z</time></trkpt><trkpt lat="40.6358808" lon="9.6746145"><ele>5.0</ele><time>2026-03-27T12:32:15.846Z</time></trkpt><trkpt lat="40.6358244" lon="9.6747879"><ele>5.0</ele><time>2026-03-27T12:32:16.851Z</time></trkpt><trkpt lat="40.6357753" lon="9.6749309"><ele>5.0</ele><time>2026-03-27T12:32:17.843Z</time></trkpt><trkpt lat="40.6357366" lon="9.675039"><ele>5.0</ele><time>2026-03-27T12:32:18.845Z</time></trkpt><trkpt lat="40.6356911" lon="9.6751469"><ele>5.0</ele><time>2026-03-27T12:32:20.851Z</time></trkpt><trkpt lat="40.6356081" lon="9.6752449"><ele>4.833333333333334</ele><time>2026-03-27T12:32:34.845Z</time></trkpt><trkpt lat="40.635538" lon="9.6753692"><ele>4.666666666666667</ele><time>2026-03-27T12:32:36.841Z</time></trkpt><trkpt lat="40.6355179" lon="9.6754524"><ele>4.5</ele><time>2026-03-27T12:32:37.853Z</time></trkpt><trkpt lat="40.6355043" lon="9.6755416"><ele>4.333333333333333</ele><time>2026-03-27T12:32:38.852Z</time></trkpt><trkpt lat="40.6354919" lon="9.6756316"><ele>4.166666666666666</ele><time>2026-03-27T12:32:39.845Z</time></trkpt><trkpt lat="40.6354771" lon="9.6757238"><ele>4.0</ele><time>2026-03-27T12:32:40.848Z</time></trkpt><trkpt lat="40.6354519" lon="9.6758268"><ele>4.0</ele><time>2026-03-27T12:32:41.849Z</time></trkpt><trkpt lat="40.6354142" lon="9.6759399"><ele>4.0</ele><time>2026-03-27T12:32:42.845Z</time></trkpt><trkpt lat="40.6353605" lon="9.6760611"><ele>4.0</ele><time>2026-03-27T12:32:43.848Z</time></trkpt><trkpt lat="40.6352934" lon="9.6761935"><ele>4.0</ele><time>2026-03-27T12:32:44.845Z</time></trkpt><trkpt lat="40.6352165" lon="9.6763372"><ele>3.333333333333333</ele><time>2026-03-27T12:32:45.854Z</time></trkpt><trkpt lat="40.6351297" lon="9.6764945"><ele>2.6666666666666665</ele><time>2026-03-27T12:32:46.845Z</time></trkpt><trkpt lat="40.6350362" lon="9.6766621"><ele>2.0</ele><time>2026-03-27T12:32:47.844Z</time></trkpt><trkpt lat="40.6349476" lon="9.6768168"><ele>1.75</ele><time>2026-03-27T12:32:48.849Z</time></trkpt><trkpt lat="40.6348644" lon="9.6769576"><ele>1.5</ele><time>2026-03-27T12:32:49.844Z</time></trkpt><trkpt lat="40.63478" lon="9.6770951"><ele>1.25</ele><time>2026-03-27T12:32:50.848Z</time></trkpt><trkpt lat="40.6346931" lon="9.6772219"><ele>1.0</ele><time>2026-03-27T12:32:51.848Z</time></trkpt><trkpt lat="40.6346071" lon="9.6773372"><ele>1.0</ele><time>2026-03-27T12:32:52.845Z</time></trkpt><trkpt lat="40.6345186" lon="9.6774319"><ele>1.0</ele><time>2026-03-27T12:32:53.85Z</time></trkpt><trkpt lat="40.6344253" lon="9.6775142"><ele>1.0</ele><time>2026-03-27T12:32:54.842Z</time></trkpt><trkpt lat="40.6343323" lon="9.6775843"><ele>1.0</ele><time>2026-03-27T12:32:55.847Z</time></trkpt><trkpt lat="40.6342472" lon="9.6776421"><ele>1.0</ele><time>2026-03-27T12:32:56.848Z</time></trkpt><trkpt lat="40.6341644" lon="9.6776888"><ele>1.3333333333333333</ele><time>2026-03-27T12:32:57.849Z</time></trkpt><trkpt lat="40.6340846" lon="9.6777183"><ele>1.6666666666666665</ele><time>2026-03-27T12:32:58.849Z</time></trkpt><trkpt lat="40.6340109" lon="9.677719"><ele>2.0</ele><time>2026-03-27T12:32:59.847Z</time></trkpt><trkpt lat="40.6339079" lon="9.6776353"><ele>2.3333333333333335</ele><time>2026-03-27T12:33:01.847Z</time></trkpt><trkpt lat="40.6338691" lon="9.6775591"><ele>2.6666666666666665</ele><time>2026-03-27T12:33:02.875Z</time></trkpt><trkpt lat="40.6338411" lon="9.677463"><ele>3.0</ele><time>2026-03-27T12:33:03.849Z</time></trkpt><trkpt lat="40.6338093" lon="9.6773461"><ele>3.0</ele><time>2026-03-27T12:33:04.842Z</time></trkpt><trkpt lat="40.6337716" lon="9.6772203"><ele>3.0</ele><time>2026-03-27T12:33:05.849Z</time></trkpt><trkpt lat="40.6337345" lon="9.6771078"><ele>3.0</ele><time>2026-03-27T12:33:06.849Z</time></trkpt><trkpt lat="40.6337002" lon="9.6770354"><ele>3.0</ele><time>2026-03-27T12:33:07.842Z</time></trkpt><trkpt lat="40.6336011" lon="9.6769321"><ele>3.0</ele><time>2026-03-27T12:33:09.845Z</time></trkpt><trkpt lat="40.6335357" lon="9.6769031"><ele>3.8</ele><time>2026-03-27T12:33:10.848Z</time></trkpt><trkpt lat="40.633455" lon="9.6769016"><ele>4.6</ele><time>2026-03-27T12:33:11.849Z</time></trkpt><trkpt lat="40.6333528" lon="9.6769118"><ele>5.3999999999999995</ele><time>2026-03-27T12:33:12.845Z</time></trkpt><trkpt lat="40.6332408" lon="9.6769291"><ele>6.199999999999999</ele><time>2026-03-27T12:33:13.852Z</time></trkpt><trkpt lat="40.6331276" lon="9.6769516"><ele>7.0</ele><time>2026-03-27T12:33:14.848Z</time></trkpt><trkpt lat="40.6330148" lon="9.6769695"><ele>7.0</ele><time>2026-03-27T12:33:15.845Z</time></trkpt><trkpt lat="40.632907" lon="9.6769794"><ele>6.999999999999999</ele><time>2026-03-27T12:33:16.848Z</time></trkpt><trkpt lat="40.6328034" lon="9.6769648"><ele>6.999999999999999</ele><time>2026-03-27T12:33:17.842Z</time></trkpt><trkpt lat="40.6326985" lon="9.6769462"><ele>7.0</ele><time>2026-03-27T12:33:18.849Z</time></trkpt><trkpt lat="40.6325875" lon="9.6769281"><ele>7.0</ele><time>2026-03-27T12:33:19.843Z</time></trkpt><trkpt lat="40.6324721" lon="9.6769083"><ele>7.0</ele><time>2026-03-27T12:33:20.85Z</time></trkpt><trkpt lat="40.6323517" lon="9.6768867"><ele>7.0</ele><time>2026-03-27T12:33:21.845Z</time></trkpt><trkpt lat="40.6322308" lon="9.6768614"><ele>7.0</ele><time>2026-03-27T12:33:22.848Z</time></trkpt><trkpt lat="40.632118" lon="9.6768319"><ele>7.0</ele><time>2026-03-27T12:33:23.847Z</time></trkpt><trkpt lat="40.6320083" lon="9.6768007"><ele>7.199999999999999</ele><time>2026-03-27T12:33:24.85Z</time></trkpt><trkpt lat="40.6319019" lon="9.6767694"><ele>7.3999999999999995</ele><time>2026-03-27T12:33:25.851Z</time></trkpt><trkpt lat="40.6317963" lon="9.6767348"><ele>7.6000000000000005</ele><time>2026-03-27T12:33:26.845Z</time></trkpt><trkpt lat="40.6316879" lon="9.6766963"><ele>7.800000000000001</ele><time>2026-03-27T12:33:27.842Z</time></trkpt><trkpt lat="40.6315752" lon="9.6766562"><ele>8.0</ele><time>2026-03-27T12:33:28.847Z</time></trkpt><trkpt lat="40.6314557" lon="9.6766191"><ele>8.0</ele><time>2026-03-27T12:33:29.844Z</time></trkpt><trkpt lat="40.631329" lon="9.6765883"><ele>8.0</ele><time>2026-03-27T12:33:30.849Z</time></trkpt><trkpt lat="40.6311997" lon="9.6765627"><ele>8.0</ele><time>2026-03-27T12:33:31.851Z</time></trkpt><trkpt lat="40.6310784" lon="9.6765456"><ele>8.0</ele><time>2026-03-27T12:33:32.844Z</time></trkpt><trkpt lat="40.630973" lon="9.6765398"><ele>8.4</ele><time>2026-03-27T12:33:33.844Z</time></trkpt><trkpt lat="40.6308811" lon="9.6765468"><ele>8.8</ele><time>2026-03-27T12:33:34.849Z</time></trkpt><trkpt lat="40.6308094" lon="9.6766025"><ele>9.2</ele><time>2026-03-27T12:33:35.842Z</time></trkpt><trkpt lat="40.6307291" lon="9.6766906"><ele>9.6</ele><time>2026-03-27T12:33:36.846Z</time></trkpt><trkpt lat="40.6306457" lon="9.6767974"><ele>10.0</ele><time>2026-03-27T12:33:37.847Z</time></trkpt><trkpt lat="40.6305491" lon="9.6769086"><ele>10.25</ele><time>2026-03-27T12:33:38.848Z</time></trkpt><trkpt lat="40.6304514" lon="9.677027"><ele>10.5</ele><time>2026-03-27T12:33:39.845Z</time></trkpt><trkpt lat="40.6303534" lon="9.6771438"><ele>10.75</ele><time>2026-03-27T12:33:40.85Z</time></trkpt><trkpt lat="40.6302621" lon="9.6772553"><ele>11.0</ele><time>2026-03-27T12:33:41.847Z</time></trkpt><trkpt lat="40.6301775" lon="9.677362"><ele>11.0</ele><time>2026-03-27T12:33:42.848Z</time></trkpt><trkpt lat="40.6300943" lon="9.6774613"><ele>11.0</ele><time>2026-03-27T12:33:43.848Z</time></trkpt><trkpt lat="40.6300129" lon="9.6775566"><ele>11.0</ele><time>2026-03-27T12:33:44.849Z</time></trkpt><trkpt lat="40.6299372" lon="9.6776528"><ele>11.0</ele><time>2026-03-27T12:33:45.848Z</time></trkpt><trkpt lat="40.6298595" lon="9.6777481"><ele>11.0</ele><time>2026-03-27T12:33:46.851Z</time></trkpt><trkpt lat="40.6297837" lon="9.6778413"><ele>10.833333333333332</ele><time>2026-03-27T12:33:47.85Z</time></trkpt><trkpt lat="40.629714" lon="9.6779266"><ele>10.666666666666666</ele><time>2026-03-27T12:33:48.848Z</time></trkpt><trkpt lat="40.6296511" lon="9.6780033"><ele>10.5</ele><time>2026-03-27T12:33:49.848Z</time></trkpt><trkpt lat="40.6296007" lon="9.6780654"><ele>10.333333333333334</ele><time>2026-03-27T12:33:50.848Z</time></trkpt><trkpt lat="40.6295274" lon="9.6781505"><ele>10.166666666666668</ele><time>2026-03-27T12:33:52.852Z</time></trkpt><trkpt lat="40.629467" lon="9.6782261"><ele>10.0</ele><time>2026-03-27T12:33:54.854Z</time></trkpt><trkpt lat="40.6294086" lon="9.6782902"><ele>10.0</ele><time>2026-03-27T12:33:56.853Z</time></trkpt><trkpt lat="40.6293574" lon="9.6783388"><ele>10.0</ele><time>2026-03-27T12:33:58.844Z</time></trkpt><trkpt lat="40.6292889" lon="9.6784114"><ele>10.0</ele><time>2026-03-27T12:34:02.853Z</time></trkpt><trkpt lat="40.629209" lon="9.6785173"><ele>10.0</ele><time>2026-03-27T12:34:04.846Z</time></trkpt><trkpt lat="40.6291688" lon="9.6786071"><ele>10.0</ele><time>2026-03-27T12:34:06.846Z</time></trkpt><trkpt lat="40.62918" lon="9.6787075"><ele>10.0</ele><time>2026-03-27T12:34:08.851Z</time></trkpt><trkpt lat="40.6292393" lon="9.6788099"><ele>10.0</ele><time>2026-03-27T12:34:10.852Z</time></trkpt><trkpt lat="40.6292834" lon="9.6788923"><ele>10.0</ele><time>2026-03-27T12:34:12.853Z</time></trkpt><trkpt lat="40.6293279" lon="9.6789594"><ele>10.0</ele><time>2026-03-27T12:34:15.845Z</time></trkpt><trkpt lat="40.629355" lon="9.6790392"><ele>10.0</ele><time>2026-03-27T12:34:20.85Z</time></trkpt><trkpt lat="40.6293933" lon="9.6791169"><ele>10.0</ele><time>2026-03-27T12:34:26.844Z</time></trkpt><trkpt lat="40.6294502" lon="9.6791951"><ele>10.0</ele><time>2026-03-27T12:34:32.848Z</time></trkpt></trkseg><trkseg><trkpt lat="40.6315337" lon="9.7150337"><ele>12.0</ele><time>2026-03-27T14:04:34.797Z</time></trkpt><trkpt lat="40.631601" lon="9.714922"><ele>12.0</ele><time>2026-03-27T14:04:59.829Z</time></trkpt><trkpt lat="40.631719" lon="9.714853"><ele>12.0</ele><time>2026-03-27T14:05:43.83Z</time></trkpt><trkpt lat="40.6318207" lon="9.7148529"><ele>12.0</ele><time>2026-03-27T14:05:44.84Z</time></trkpt><trkpt lat="40.6319233" lon="9.714852"><ele>12.0</ele><time>2026-03-27T14:05:45.826Z</time></trkpt><trkpt lat="40.6320335" lon="9.7148495"><ele>12.5</ele><time>2026-03-27T14:05:46.826Z</time></trkpt><trkpt lat="40.6321428" lon="9.7148463"><ele>13.0</ele><time>2026-03-27T14:05:47.83Z</time></trkpt><trkpt lat="40.6322588" lon="9.7148408"><ele>13.5</ele><time>2026-03-27T14:05:48.831Z</time></trkpt><trkpt lat="40.6323758" lon="9.7148367"><ele>14.0</ele><time>2026-03-27T14:05:49.842Z</time></trkpt><trkpt lat="40.632492" lon="9.7148309"><ele>14.0</ele><time>2026-03-27T14:05:50.829Z</time></trkpt><trkpt lat="40.6326135" lon="9.71483"><ele>14.0</ele><time>2026-03-27T14:05:51.835Z</time></trkpt><trkpt lat="40.6327454" lon="9.7148255"><ele>14.0</ele><time>2026-03-27T14:05:52.83Z</time></trkpt><trkpt lat="40.6328569" lon="9.7148242"><ele>14.0</ele><time>2026-03-27T14:05:53.827Z</time></trkpt><trkpt lat="40.6329604" lon="9.71482"><ele>14.2</ele><time>2026-03-27T14:05:54.833Z</time></trkpt><trkpt lat="40.6330623" lon="9.7148154"><ele>14.399999999999999</ele><time>2026-03-27T14:05:55.835Z</time></trkpt><trkpt lat="40.6331689" lon="9.7148074"><ele>14.6</ele><time>2026-03-27T14:05:56.826Z</time></trkpt><trkpt lat="40.6332774" lon="9.7147934"><ele>14.8</ele><time>2026-03-27T14:05:57.852Z</time></trkpt><trkpt lat="40.6333951" lon="9.7147803"><ele>15.0</ele><time>2026-03-27T14:05:58.838Z</time></trkpt><trkpt lat="40.6335183" lon="9.7147495"><ele>13.75</ele><time>2026-03-27T14:05:59.831Z</time></trkpt><trkpt lat="40.633645" lon="9.7147135"><ele>12.5</ele><time>2026-03-27T14:06:00.829Z</time></trkpt><trkpt lat="40.6337878" lon="9.714675"><ele>11.25</ele><time>2026-03-27T14:06:01.834Z</time></trkpt><trkpt lat="40.6339337" lon="9.7146328"><ele>10.0</ele><time>2026-03-27T14:06:02.832Z</time></trkpt><trkpt lat="40.6340915" lon="9.7145845"><ele>10.0</ele><time>2026-03-27T14:06:03.831Z</time></trkpt><trkpt lat="40.6342573" lon="9.7145373"><ele>10.0</ele><time>2026-03-27T14:06:04.834Z</time></trkpt><trkpt lat="40.6344308" lon="9.7144836"><ele>10.0</ele><time>2026-03-27T14:06:05.834Z</time></trkpt><trkpt lat="40.6346062" lon="9.7144278"><ele>8.0</ele><time>2026-03-27T14:06:06.847Z</time></trkpt><trkpt lat="40.6347904" lon="9.7143689"><ele>6.0</ele><time>2026-03-27T14:06:07.833Z</time></trkpt><trkpt lat="40.6349725" lon="9.7143095"><ele>4.0</ele><time>2026-03-27T14:06:08.839Z</time></trkpt><trkpt lat="40.6351629" lon="9.7142478"><ele>3.333333333333333</ele><time>2026-03-27T14:06:09.829Z</time></trkpt><trkpt lat="40.6353572" lon="9.7141868"><ele>2.6666666666666665</ele><time>2026-03-27T14:06:10.83Z</time></trkpt><trkpt lat="40.6355528" lon="9.714126"><ele>2.0</ele><time>2026-03-27T14:06:11.829Z</time></trkpt><trkpt lat="40.6357506" lon="9.7140638"><ele>2.0</ele><time>2026-03-27T14:06:12.828Z</time></trkpt><trkpt lat="40.6359491" lon="9.7140008"><ele>2.0</ele><time>2026-03-27T14:06:13.828Z</time></trkpt><trkpt lat="40.6361476" lon="9.7139373"><ele>2.0</ele><time>2026-03-27T14:06:14.85Z</time></trkpt><trkpt lat="40.6363477" lon="9.7138739"><ele>2.0</ele><time>2026-03-27T14:06:15.83Z</time></trkpt><trkpt lat="40.636548" lon="9.7138115"><ele>2.0</ele><time>2026-03-27T14:06:16.834Z</time></trkpt><trkpt lat="40.6367438" lon="9.7137507"><ele>2.0</ele><time>2026-03-27T14:06:17.831Z</time></trkpt><trkpt lat="40.6369315" lon="9.7136917"><ele>2.0</ele><time>2026-03-27T14:06:18.83Z</time></trkpt><trkpt lat="40.637118" lon="9.7136316"><ele>2.0</ele><time>2026-03-27T14:06:19.83Z</time></trkpt><trkpt lat="40.637298" lon="9.7135767"><ele>2.0</ele><time>2026-03-27T14:06:20.836Z</time></trkpt><trkpt lat="40.6374794" lon="9.7135186"><ele>2.0</ele><time>2026-03-27T14:06:21.828Z</time></trkpt><trkpt lat="40.6376622" lon="9.7134661"><ele>2.0</ele><time>2026-03-27T14:06:22.852Z</time></trkpt><trkpt lat="40.6378453" lon="9.7134116"><ele>2.0</ele><time>2026-03-27T14:06:23.833Z</time></trkpt><trkpt lat="40.6380272" lon="9.7133578"><ele>1.6666666666666665</ele><time>2026-03-27T14:06:24.83Z</time></trkpt><trkpt lat="40.6381987" lon="9.7133058"><ele>1.3333333333333333</ele><time>2026-03-27T14:06:25.83Z</time></trkpt><trkpt lat="40.6383541" lon="9.713259"><ele>1.0</ele><time>2026-03-27T14:06:26.833Z</time></trkpt><trkpt lat="40.6384933" lon="9.7132157"><ele>1.0</ele><time>2026-03-27T14:06:27.833Z</time></trkpt><trkpt lat="40.6386135" lon="9.7131775"><ele>1.0</ele><time>2026-03-27T14:06:28.831Z</time></trkpt><trkpt lat="40.6387128" lon="9.713145"><ele>1.0</ele><time>2026-03-27T14:06:29.853Z</time></trkpt><trkpt lat="40.6387881" lon="9.7131225"><ele>1.0</ele><time>2026-03-27T14:06:30.825Z</time></trkpt><trkpt lat="40.6388771" lon="9.7131089"><ele>1.0</ele><time>2026-03-27T14:06:32.833Z</time></trkpt><trkpt lat="40.6389424" lon="9.7131234"><ele>0.8333333333333333</ele><time>2026-03-27T14:06:35.831Z</time></trkpt><trkpt lat="40.6390138" lon="9.7131476"><ele>0.6666666666666666</ele><time>2026-03-27T14:06:49.835Z</time></trkpt><trkpt lat="40.6390776" lon="9.7131137"><ele>0.5</ele><time>2026-03-27T14:08:24.833Z</time></trkpt><trkpt lat="40.6391325" lon="9.7130708"><ele>0.3333333333333333</ele><time>2026-03-27T14:08:25.839Z</time></trkpt><trkpt lat="40.639214" lon="9.7130435"><ele>0.16666666666666666</ele><time>2026-03-27T14:08:26.839Z</time></trkpt><trkpt lat="40.6393133" lon="9.7130134"><ele>0.0</ele><time>2026-03-27T14:08:27.832Z</time></trkpt><trkpt lat="40.6394189" lon="9.7129866"><ele>0.0</ele><time>2026-03-27T14:08:28.833Z</time></trkpt><trkpt lat="40.6395298" lon="9.7129534"><ele>0.0</ele><time>2026-03-27T14:08:29.83Z</time></trkpt><trkpt lat="40.6396464" lon="9.7129152"><ele>0.0</ele><time>2026-03-27T14:08:30.834Z</time></trkpt><trkpt lat="40.6397709" lon="9.7128751"><ele>0.0</ele><time>2026-03-27T14:08:31.829Z</time></trkpt><trkpt lat="40.6399045" lon="9.7128339"><ele>0.0</ele><time>2026-03-27T14:08:32.832Z</time></trkpt><trkpt lat="40.6400385" lon="9.7127918"><ele>0.0</ele><time>2026-03-27T14:08:33.84Z</time></trkpt><trkpt lat="40.6401731" lon="9.7127481"><ele>0.0</ele><time>2026-03-27T14:08:34.832Z</time></trkpt><trkpt lat="40.6403068" lon="9.7127075"><ele>0.0</ele><time>2026-03-27T14:08:35.854Z</time></trkpt><trkpt lat="40.6404351" lon="9.7126673"><ele>1.0</ele><time>2026-03-27T14:08:36.833Z</time></trkpt><trkpt lat="40.6405661" lon="9.7126272"><ele>2.0</ele><time>2026-03-27T14:08:37.83Z</time></trkpt><trkpt lat="40.6406968" lon="9.7125851"><ele>3.0</ele><time>2026-03-27T14:08:38.832Z</time></trkpt><trkpt lat="40.6408245" lon="9.7125438"><ele>4.0</ele><time>2026-03-27T14:08:39.825Z</time></trkpt><trkpt lat="40.6409423" lon="9.7125085"><ele>4.0</ele><time>2026-03-27T14:08:40.846Z</time></trkpt><trkpt lat="40.6410535" lon="9.7124781"><ele>4.0</ele><time>2026-03-27T14:08:41.827Z</time></trkpt><trkpt lat="40.6411458" lon="9.7124615"><ele>4.0</ele><time>2026-03-27T14:08:42.825Z</time></trkpt><trkpt lat="40.6412486" lon="9.712437"><ele>4.0</ele><time>2026-03-27T14:08:44.83Z</time></trkpt><trkpt lat="40.6413606" lon="9.7123824"><ele>4.0</ele><time>2026-03-27T14:08:46.845Z</time></trkpt><trkpt lat="40.6414462" lon="9.7123513"><ele>3.4999999999999996</ele><time>2026-03-27T14:08:48.828Z</time></trkpt><trkpt lat="40.6415083" lon="9.712368"><ele>3.0</ele><time>2026-03-27T14:08:50.837Z</time></trkpt><trkpt lat="40.6415802" lon="9.7124477"><ele>2.5</ele><time>2026-03-27T14:08:52.828Z</time></trkpt><trkpt lat="40.6416434" lon="9.7125554"><ele>2.0</ele><time>2026-03-27T14:08:54.83Z</time></trkpt><trkpt lat="40.6416948" lon="9.7126133"><ele>1.5</ele><time>2026-03-27T14:08:57.85Z</time></trkpt><trkpt lat="40.6417452" lon="9.7125035"><ele>1.0</ele><time>2026-03-27T14:09:01.837Z</time></trkpt><trkpt lat="40.6417589" lon="9.7123505"><ele>0.9999999999999999</ele><time>2026-03-27T14:09:03.83Z</time></trkpt><trkpt lat="40.6417504" lon="9.7122532"><ele>1.0</ele><time>2026-03-27T14:09:04.834Z</time></trkpt><trkpt lat="40.6417169" lon="9.7121353"><ele>1.0</ele><time>2026-03-27T14:09:05.837Z</time></trkpt><trkpt lat="40.6416918" lon="9.71204"><ele>1.0</ele><time>2026-03-27T14:09:06.826Z</time></trkpt><trkpt lat="40.6416596" lon="9.7119464"><ele>0.9999999999999999</ele><time>2026-03-27T14:09:07.846Z</time></trkpt><trkpt lat="40.6416275" lon="9.7118511"><ele>1.0</ele><time>2026-03-27T14:09:08.829Z</time></trkpt><trkpt lat="40.6415839" lon="9.7117609"><ele>0.8</ele><time>2026-03-27T14:09:09.823Z</time></trkpt><trkpt lat="40.64153" lon="9.7116725"><ele>0.6000000000000001</ele><time>2026-03-27T14:09:10.828Z</time></trkpt><trkpt lat="40.6414715" lon="9.7115862"><ele>0.4</ele><time>2026-03-27T14:09:11.829Z</time></trkpt><trkpt lat="40.6414072" lon="9.7114935"><ele>0.2</ele><time>2026-03-27T14:09:12.83Z</time></trkpt><trkpt lat="40.6413406" lon="9.7113931"><ele>0.0</ele><time>2026-03-27T14:09:13.827Z</time></trkpt><trkpt lat="40.6412737" lon="9.7112828"><ele>0.0</ele><time>2026-03-27T14:09:14.853Z</time></trkpt><trkpt lat="40.6412064" lon="9.7111804"><ele>0.0</ele><time>2026-03-27T14:09:15.825Z</time></trkpt><trkpt lat="40.6411431" lon="9.7110906"><ele>0.0</ele><time>2026-03-27T14:09:16.829Z</time></trkpt><trkpt lat="40.6410834" lon="9.7110003"><ele>0.0</ele><time>2026-03-27T14:09:17.834Z</time></trkpt><trkpt lat="40.6410241" lon="9.7109079"><ele>0.0</ele><time>2026-03-27T14:09:18.825Z</time></trkpt><trkpt lat="40.6409627" lon="9.7108145"><ele>0.2</ele><time>2026-03-27T14:09:19.843Z</time></trkpt><trkpt lat="40.6409022" lon="9.7107171"><ele>0.4</ele><time>2026-03-27T14:09:20.828Z</time></trkpt><trkpt lat="40.6408422" lon="9.7106193"><ele>0.6000000000000001</ele><time>2026-03-27T14:09:21.824Z</time></trkpt><trkpt lat="40.6407829" lon="9.7105231"><ele>0.8</ele><time>2026-03-27T14:09:22.826Z</time></trkpt><trkpt lat="40.6407241" lon="9.7104287"><ele>1.0</ele><time>2026-03-27T14:09:23.832Z</time></trkpt><trkpt lat="40.6406655" lon="9.7103337"><ele>0.9999999999999999</ele><time>2026-03-27T14:09:24.834Z</time></trkpt><trkpt lat="40.6406126" lon="9.7102503"><ele>1.0</ele><time>2026-03-27T14:09:25.828Z</time></trkpt><trkpt lat="40.6405611" lon="9.7101751"><ele>1.0</ele><time>2026-03-27T14:09:26.837Z</time></trkpt><trkpt lat="40.6405132" lon="9.7101011"><ele>1.0</ele><time>2026-03-27T14:09:27.828Z</time></trkpt><trkpt lat="40.6404685" lon="9.7100281"><ele>0.9999999999999999</ele><time>2026-03-27T14:09:28.831Z</time></trkpt><trkpt lat="40.640425" lon="9.709954"><ele>1.0</ele><time>2026-03-27T14:09:29.83Z</time></trkpt><trkpt lat="40.6403783" lon="9.7098744"><ele>0.9999999999999999</ele><time>2026-03-27T14:09:30.829Z</time></trkpt><trkpt lat="40.6403292" lon="9.7097915"><ele>1.0</ele><time>2026-03-27T14:09:31.835Z</time></trkpt><trkpt lat="40.6402799" lon="9.7097073"><ele>1.0</ele><time>2026-03-27T14:09:32.825Z</time></trkpt><trkpt lat="40.6402338" lon="9.7096309"><ele>1.0</ele><time>2026-03-27T14:09:33.846Z</time></trkpt><trkpt lat="40.6401888" lon="9.7095555"><ele>0.9999999999999999</ele><time>2026-03-27T14:09:34.831Z</time></trkpt><trkpt lat="40.6401482" lon="9.7094879"><ele>1.0</ele><time>2026-03-27T14:09:35.826Z</time></trkpt><trkpt lat="40.6400816" lon="9.7093816"><ele>0.9999999999999999</ele><time>2026-03-27T14:09:37.828Z</time></trkpt><trkpt lat="40.6400336" lon="9.7093089"><ele>1.0</ele><time>2026-03-27T14:09:39.831Z</time></trkpt><trkpt lat="40.639997" lon="9.7092379"><ele>1.0</ele><time>2026-03-27T14:09:41.829Z</time></trkpt><trkpt lat="40.6399597" lon="9.7091553"><ele>1.0</ele><time>2026-03-27T14:09:44.826Z</time></trkpt><trkpt lat="40.6398998" lon="9.7090887"><ele>0.9999999999999999</ele><time>2026-03-27T14:11:03.827Z</time></trkpt><trkpt lat="40.6398382" lon="9.7089934"><ele>1.0</ele><time>2026-03-27T14:11:05.826Z</time></trkpt><trkpt lat="40.639771" lon="9.7088874"><ele>0.9999999999999999</ele><time>2026-03-27T14:11:07.836Z</time></trkpt><trkpt lat="40.6396873" lon="9.708756"><ele>1.0</ele><time>2026-03-27T14:11:09.832Z</time></trkpt><trkpt lat="40.6396423" lon="9.7086843"><ele>1.0</ele><time>2026-03-27T14:11:10.827Z</time></trkpt><trkpt lat="40.6395975" lon="9.7086136"><ele>1.0</ele><time>2026-03-27T14:11:11.828Z</time></trkpt><trkpt lat="40.6395496" lon="9.7085402"><ele>0.9999999999999999</ele><time>2026-03-27T14:11:12.827Z</time></trkpt><trkpt lat="40.6394993" lon="9.7084657"><ele>1.0</ele><time>2026-03-27T14:11:13.83Z</time></trkpt><trkpt lat="40.6394512" lon="9.7083899"><ele>0.9999999999999999</ele><time>2026-03-27T14:11:14.838Z</time></trkpt><trkpt lat="40.6394005" lon="9.7083107"><ele>1.0</ele><time>2026-03-27T14:11:15.827Z</time></trkpt><trkpt lat="40.6393485" lon="9.7082289"><ele>1.0</ele><time>2026-03-27T14:11:16.831Z</time></trkpt><trkpt lat="40.6392937" lon="9.7081452"><ele>1.0</ele><time>2026-03-27T14:11:17.833Z</time></trkpt><trkpt lat="40.6392401" lon="9.7080605"><ele>0.9999999999999999</ele><time>2026-03-27T14:11:18.836Z</time></trkpt><trkpt lat="40.6391828" lon="9.7079682"><ele>1.0</ele><time>2026-03-27T14:11:19.824Z</time></trkpt><trkpt lat="40.6391223" lon="9.70787"><ele>1.0</ele><time>2026-03-27T14:11:20.838Z</time></trkpt><trkpt lat="40.6390596" lon="9.7077732"><ele>1.0</ele><time>2026-03-27T14:11:21.832Z</time></trkpt><trkpt lat="40.6389989" lon="9.707676"><ele>1.0</ele><time>2026-03-27T14:11:22.835Z</time></trkpt><trkpt lat="40.6389393" lon="9.7075812"><ele>1.0</ele><time>2026-03-27T14:11:23.826Z</time></trkpt><trkpt lat="40.6388828" lon="9.7074906"><ele>1.0</ele><time>2026-03-27T14:11:24.833Z</time></trkpt><trkpt lat="40.6388277" lon="9.7074028"><ele>0.8333333333333333</ele><time>2026-03-27T14:11:25.835Z</time></trkpt><trkpt lat="40.6387728" lon="9.7073136"><ele>0.6666666666666666</ele><time>2026-03-27T14:11:26.836Z</time></trkpt><trkpt lat="40.6387201" lon="9.7072278"><ele>0.5</ele><time>2026-03-27T14:11:27.855Z</time></trkpt><trkpt lat="40.6386644" lon="9.7071396"><ele>0.3333333333333333</ele><time>2026-03-27T14:11:28.835Z</time></trkpt><trkpt lat="40.63861" lon="9.7070555"><ele>0.16666666666666666</ele><time>2026-03-27T14:11:29.831Z</time></trkpt><trkpt lat="40.6385544" lon="9.7069702"><ele>0.0</ele><time>2026-03-27T14:11:30.832Z</time></trkpt><trkpt lat="40.6384968" lon="9.706885"><ele>0.0</ele><time>2026-03-27T14:11:31.827Z</time></trkpt><trkpt lat="40.6384387" lon="9.706794"><ele>0.0</ele><time>2026-03-27T14:11:32.832Z</time></trkpt><trkpt lat="40.6383787" lon="9.7067001"><ele>0.0</ele><time>2026-03-27T14:11:33.834Z</time></trkpt><trkpt lat="40.6383183" lon="9.7066073"><ele>0.0</ele><time>2026-03-27T14:11:34.834Z</time></trkpt><trkpt lat="40.6382575" lon="9.7065139"><ele>0.0</ele><time>2026-03-27T14:11:35.847Z</time></trkpt><trkpt lat="40.6382002" lon="9.7064257"><ele>0.0</ele><time>2026-03-27T14:11:36.828Z</time></trkpt><trkpt lat="40.6381447" lon="9.7063417"><ele>0.0</ele><time>2026-03-27T14:11:37.824Z</time></trkpt><trkpt lat="40.6380876" lon="9.7062568"><ele>0.0</ele><time>2026-03-27T14:11:38.833Z</time></trkpt><trkpt lat="40.6380298" lon="9.706167"><ele>0.0</ele><time>2026-03-27T14:11:39.827Z</time></trkpt><trkpt lat="40.637975" lon="9.7060782"><ele>0.0</ele><time>2026-03-27T14:11:40.835Z</time></trkpt><trkpt lat="40.6379237" lon="9.7059957"><ele>0.0</ele><time>2026-03-27T14:11:41.826Z</time></trkpt><trkpt lat="40.6378676" lon="9.7059081"><ele>-0.2</ele><time>2026-03-27T14:11:42.85Z</time></trkpt><trkpt lat="40.6378071" lon="9.7058125"><ele>-0.4</ele><time>2026-03-27T14:11:43.836Z</time></trkpt><trkpt lat="40.6377439" lon="9.7057136"><ele>-0.6000000000000001</ele><time>2026-03-27T14:11:44.83Z</time></trkpt><trkpt lat="40.6376796" lon="9.7056134"><ele>-0.8</ele><time>2026-03-27T14:11:45.831Z</time></trkpt><trkpt lat="40.6376165" lon="9.7055135"><ele>-1.0</ele><time>2026-03-27T14:11:46.835Z</time></trkpt><trkpt lat="40.6375577" lon="9.7054195"><ele>-0.9999999999999999</ele><time>2026-03-27T14:11:47.833Z</time></trkpt><trkpt lat="40.6375023" lon="9.705331"><ele>-1.0</ele><time>2026-03-27T14:11:48.832Z</time></trkpt><trkpt lat="40.6374496" lon="9.7052448"><ele>-1.0</ele><time>2026-03-27T14:11:49.828Z</time></trkpt><trkpt lat="40.6373977" lon="9.7051584"><ele>-1.0</ele><time>2026-03-27T14:11:50.838Z</time></trkpt><trkpt lat="40.6373482" lon="9.7050755"><ele>-0.9999999999999999</ele><time>2026-03-27T14:11:51.828Z</time></trkpt><trkpt lat="40.6373003" lon="9.7049955"><ele>-1.0</ele><time>2026-03-27T14:11:52.851Z</time></trkpt><trkpt lat="40.6372511" lon="9.7049183"><ele>-0.9999999999999999</ele><time>2026-03-27T14:11:53.826Z</time></trkpt><trkpt lat="40.6371984" lon="9.7048425"><ele>-1.0</ele><time>2026-03-27T14:11:54.828Z</time></trkpt><trkpt lat="40.6371488" lon="9.7047699"><ele>-1.0</ele><time>2026-03-27T14:11:55.83Z</time></trkpt><trkpt lat="40.6371088" lon="9.7047"><ele>-1.0</ele><time>2026-03-27T14:11:56.831Z</time></trkpt><trkpt lat="40.6370492" lon="9.7045726"><ele>-0.9999999999999999</ele><time>2026-03-27T14:11:58.832Z</time></trkpt><trkpt lat="40.6370056" lon="9.7044472"><ele>-1.0</ele><time>2026-03-27T14:12:00.831Z</time></trkpt><trkpt lat="40.6369415" lon="9.7043256"><ele>-1.0</ele><time>2026-03-27T14:12:02.832Z</time></trkpt><trkpt lat="40.636901" lon="9.7042611"><ele>-0.9999999999999999</ele><time>2026-03-27T14:12:03.845Z</time></trkpt><trkpt lat="40.6368452" lon="9.7042022"><ele>-1.0</ele><time>2026-03-27T14:12:04.834Z</time></trkpt><trkpt lat="40.6367896" lon="9.7041429"><ele>-1.0</ele><time>2026-03-27T14:12:05.83Z</time></trkpt><trkpt lat="40.6367393" lon="9.7040816"><ele>-0.9999999999999999</ele><time>2026-03-27T14:12:06.83Z</time></trkpt><trkpt lat="40.6366889" lon="9.704017"><ele>-1.0</ele><time>2026-03-27T14:12:07.829Z</time></trkpt><trkpt lat="40.636643" lon="9.7039502"><ele>-1.0</ele><time>2026-03-27T14:12:08.877Z</time></trkpt><trkpt lat="40.6365777" lon="9.7038197"><ele>-1.0</ele><time>2026-03-27T14:12:10.837Z</time></trkpt><trkpt lat="40.6365514" lon="9.7037166"><ele>-1.0</ele><time>2026-03-27T14:12:12.832Z</time></trkpt><trkpt lat="40.6365057" lon="9.7035952"><ele>-1.0</ele><time>2026-03-27T14:12:40.824Z</time></trkpt><trkpt lat="40.6364305" lon="9.7034953"><ele>-1.0</ele><time>2026-03-27T14:12:42.83Z</time></trkpt><trkpt lat="40.6363508" lon="9.7034144"><ele>-1.0</ele><time>2026-03-27T14:12:44.832Z</time></trkpt><trkpt lat="40.6362749" lon="9.7033525"><ele>-1.2000000000000002</ele><time>2026-03-27T14:12:46.825Z</time></trkpt><trkpt lat="40.6362226" lon="9.7032671"><ele>-1.4000000000000001</ele><time>2026-03-27T14:12:48.854Z</time></trkpt><trkpt lat="40.6361597" lon="9.7031599"><ele>-1.6</ele><time>2026-03-27T14:12:50.833Z</time></trkpt><trkpt lat="40.6360986" lon="9.7030386"><ele>-1.8</ele><time>2026-03-27T14:12:52.828Z</time></trkpt><trkpt lat="40.6360438" lon="9.7029084"><ele>-2.0</ele><time>2026-03-27T14:12:54.828Z</time></trkpt><trkpt lat="40.6359916" lon="9.7027788"><ele>-1.4999999999999998</ele><time>2026-03-27T14:12:56.829Z</time></trkpt><trkpt lat="40.6359637" lon="9.7027044"><ele>-1.0</ele><time>2026-03-27T14:12:57.829Z</time></trkpt><trkpt lat="40.6359122" lon="9.7025561"><ele>-0.5</ele><time>2026-03-27T14:12:59.825Z</time></trkpt><trkpt lat="40.6358716" lon="9.7024344"><ele>0.0</ele><time>2026-03-27T14:13:01.825Z</time></trkpt><trkpt lat="40.6358445" lon="9.7023457"><ele>0.49999999999999994</ele><time>2026-03-27T14:13:03.829Z</time></trkpt><trkpt lat="40.635813" lon="9.7022502"><ele>1.0</ele><time>2026-03-27T14:13:06.833Z</time></trkpt><trkpt lat="40.6357913" lon="9.7021656"><ele>0.9999999999999999</ele><time>2026-03-27T14:13:14.832Z</time></trkpt><trkpt lat="40.6357683" lon="9.7020699"><ele>1.0</ele><time>2026-03-27T14:13:17.832Z</time></trkpt><trkpt lat="40.6357543" lon="9.7019755"><ele>1.0</ele><time>2026-03-27T14:13:20.829Z</time></trkpt><trkpt lat="40.6357525" lon="9.7018578"><ele>1.0</ele><time>2026-03-27T14:13:43.829Z</time></trkpt><trkpt lat="40.6357292" lon="9.7017374"><ele>0.9999999999999999</ele><time>2026-03-27T14:13:46.832Z</time></trkpt><trkpt lat="40.635703" lon="9.7016244"><ele>1.0</ele><time>2026-03-27T14:13:48.833Z</time></trkpt><trkpt lat="40.6356772" lon="9.7014987"><ele>1.0</ele><time>2026-03-27T14:13:50.826Z</time></trkpt><trkpt lat="40.635649" lon="9.7013584"><ele>1.0</ele><time>2026-03-27T14:13:52.833Z</time></trkpt><trkpt lat="40.6356335" lon="9.7012295"><ele>1.0</ele><time>2026-03-27T14:13:54.831Z</time></trkpt><trkpt lat="40.6356176" lon="9.7010982"><ele>1.0</ele><time>2026-03-27T14:13:56.83Z</time></trkpt><trkpt lat="40.6356006" lon="9.7009635"><ele>1.0</ele><time>2026-03-27T14:13:58.831Z</time></trkpt><trkpt lat="40.6355924" lon="9.7008375"><ele>0.9999999999999999</ele><time>2026-03-27T14:14:00.837Z</time></trkpt><trkpt lat="40.6355812" lon="9.7006772"><ele>1.0</ele><time>2026-03-27T14:14:02.85Z</time></trkpt><trkpt lat="40.6355761" lon="9.7005805"><ele>1.0</ele><time>2026-03-27T14:14:03.83Z</time></trkpt><trkpt lat="40.6355712" lon="9.7004839"><ele>1.0</ele><time>2026-03-27T14:14:04.837Z</time></trkpt><trkpt lat="40.6355713" lon="9.7003875"><ele>0.9999999999999999</ele><time>2026-03-27T14:14:05.835Z</time></trkpt><trkpt lat="40.6355722" lon="9.7002875"><ele>1.0</ele><time>2026-03-27T14:14:06.826Z</time></trkpt><trkpt lat="40.6355753" lon="9.7001927"><ele>1.0</ele><time>2026-03-27T14:14:07.839Z</time></trkpt><trkpt lat="40.6355779" lon="9.700095"><ele>0.9999999999999999</ele><time>2026-03-27T14:14:08.831Z</time></trkpt><trkpt lat="40.6355791" lon="9.7000068"><ele>1.0</ele><time>2026-03-27T14:14:09.825Z</time></trkpt><trkpt lat="40.6355845" lon="9.6999121"><ele>1.0</ele><time>2026-03-27T14:14:10.827Z</time></trkpt><trkpt lat="40.6355925" lon="9.6998154"><ele>0.9999999999999999</ele><time>2026-03-27T14:14:11.828Z</time></trkpt><trkpt lat="40.6356004" lon="9.6997191"><ele>1.0</ele><time>2026-03-27T14:14:12.831Z</time></trkpt><trkpt lat="40.6356081" lon="9.6996278"><ele>1.0</ele><time>2026-03-27T14:14:13.837Z</time></trkpt><trkpt lat="40.635613" lon="9.6995392"><ele>1.0</ele><time>2026-03-27T14:14:14.827Z</time></trkpt><trkpt lat="40.6356193" lon="9.6994463"><ele>0.9999999999999999</ele><time>2026-03-27T14:14:15.836Z</time></trkpt><trkpt lat="40.6356277" lon="9.6993447"><ele>1.0</ele><time>2026-03-27T14:14:16.825Z</time></trkpt><trkpt lat="40.6356395" lon="9.6992449"><ele>1.0</ele><time>2026-03-27T14:14:17.824Z</time></trkpt><trkpt lat="40.6356541" lon="9.6991462"><ele>0.9999999999999999</ele><time>2026-03-27T14:14:18.826Z</time></trkpt><trkpt lat="40.6356711" lon="9.6990526"><ele>1.0</ele><time>2026-03-27T14:14:19.828Z</time></trkpt><trkpt lat="40.6356915" lon="9.6989641"><ele>1.0</ele><time>2026-03-27T14:14:20.828Z</time></trkpt><trkpt lat="40.6357124" lon="9.6988799"><ele>1.2000000000000002</ele><time>2026-03-27T14:14:21.84Z</time></trkpt><trkpt lat="40.6357472" lon="9.6987384"><ele>1.4000000000000001</ele><time>2026-03-27T14:14:23.833Z</time></trkpt><trkpt lat="40.6357809" lon="9.6986187"><ele>1.6</ele><time>2026-03-27T14:14:25.826Z</time></trkpt><trkpt lat="40.6358219" lon="9.6985147"><ele>1.8</ele><time>2026-03-27T14:14:28.845Z</time></trkpt><trkpt lat="40.6358487" lon="9.6984161"><ele>2.0</ele><time>2026-03-27T14:14:31.832Z</time></trkpt><trkpt lat="40.6358564" lon="9.6983136"><ele>2.0</ele><time>2026-03-27T14:14:33.832Z</time></trkpt><trkpt lat="40.6358978" lon="9.6981731"><ele>2.0</ele><time>2026-03-27T14:14:35.829Z</time></trkpt><trkpt lat="40.635936" lon="9.6980306"><ele>2.0</ele><time>2026-03-27T14:14:37.83Z</time></trkpt><trkpt lat="40.6359722" lon="9.6978744"><ele>2.0</ele><time>2026-03-27T14:14:39.826Z</time></trkpt><trkpt lat="40.6360056" lon="9.6977209"><ele>2.4000000000000004</ele><time>2026-03-27T14:14:41.834Z</time></trkpt><trkpt lat="40.6360447" lon="9.6975662"><ele>2.8000000000000003</ele><time>2026-03-27T14:14:43.854Z</time></trkpt><trkpt lat="40.6360852" lon="9.697413"><ele>3.2</ele><time>2026-03-27T14:14:45.833Z</time></trkpt><trkpt lat="40.636121" lon="9.697294"><ele>3.6</ele><time>2026-03-27T14:14:47.831Z</time></trkpt><trkpt lat="40.6361487" lon="9.6971858"><ele>4.0</ele><time>2026-03-27T14:14:49.833Z</time></trkpt><trkpt lat="40.6361721" lon="9.6970703"><ele>3.6</ele><time>2026-03-27T14:14:51.829Z</time></trkpt><trkpt lat="40.636195" lon="9.6969539"><ele>3.2</ele><time>2026-03-27T14:14:53.831Z</time></trkpt><trkpt lat="40.6362151" lon="9.6968448"><ele>2.8000000000000003</ele><time>2026-03-27T14:14:55.83Z</time></trkpt><trkpt lat="40.6362345" lon="9.6967391"><ele>2.4000000000000004</ele><time>2026-03-27T14:14:57.828Z</time></trkpt><trkpt lat="40.6362561" lon="9.6966155"><ele>2.0</ele><time>2026-03-27T14:14:59.842Z</time></trkpt><trkpt lat="40.6362805" lon="9.6964816"><ele>2.0</ele><time>2026-03-27T14:15:01.828Z</time></trkpt><trkpt lat="40.6363013" lon="9.6963437"><ele>2.0</ele><time>2026-03-27T14:15:03.827Z</time></trkpt><trkpt lat="40.6363181" lon="9.6961844"><ele>2.0</ele><time>2026-03-27T14:15:05.84Z</time></trkpt><trkpt lat="40.6363223" lon="9.6960972"><ele>2.0</ele><time>2026-03-27T14:15:06.825Z</time></trkpt><trkpt lat="40.6363239" lon="9.6959524"><ele>2.0</ele><time>2026-03-27T14:15:08.827Z</time></trkpt><trkpt lat="40.6363297" lon="9.695799"><ele>2.0</ele><time>2026-03-27T14:15:10.827Z</time></trkpt><trkpt lat="40.6363336" lon="9.6957082"><ele>1.9999999999999998</ele><time>2026-03-27T14:15:11.827Z</time></trkpt><trkpt lat="40.6363354" lon="9.6956142"><ele>2.0</ele><time>2026-03-27T14:15:12.824Z</time></trkpt><trkpt lat="40.6363363" lon="9.6955191"><ele>2.0</ele><time>2026-03-27T14:15:13.83Z</time></trkpt><trkpt lat="40.6363368" lon="9.6954227"><ele>1.9999999999999998</ele><time>2026-03-27T14:15:14.834Z</time></trkpt><trkpt lat="40.6363374" lon="9.6953299"><ele>2.0</ele><time>2026-03-27T14:15:15.826Z</time></trkpt><trkpt lat="40.6363376" lon="9.6952354"><ele>2.0</ele><time>2026-03-27T14:15:16.825Z</time></trkpt><trkpt lat="40.6363288" lon="9.6951374"><ele>1.9999999999999998</ele><time>2026-03-27T14:15:17.828Z</time></trkpt><trkpt lat="40.6363184" lon="9.6950313"><ele>2.0</ele><time>2026-03-27T14:15:18.84Z</time></trkpt><trkpt lat="40.6363043" lon="9.6949184"><ele>2.0</ele><time>2026-03-27T14:15:19.831Z</time></trkpt><trkpt lat="40.6362876" lon="9.6948061"><ele>2.0</ele><time>2026-03-27T14:15:20.842Z</time></trkpt><trkpt lat="40.6362708" lon="9.694693"><ele>1.9999999999999998</ele><time>2026-03-27T14:15:21.833Z</time></trkpt><trkpt lat="40.6362555" lon="9.6945857"><ele>2.0</ele><time>2026-03-27T14:15:22.832Z</time></trkpt><trkpt lat="40.6362436" lon="9.6944816"><ele>2.0</ele><time>2026-03-27T14:15:23.839Z</time></trkpt><trkpt lat="40.6362275" lon="9.6943757"><ele>1.9999999999999998</ele><time>2026-03-27T14:15:24.83Z</time></trkpt><trkpt lat="40.6362088" lon="9.6942783"><ele>2.0</ele><time>2026-03-27T14:15:25.847Z</time></trkpt><trkpt lat="40.6361919" lon="9.6941872"><ele>2.0</ele><time>2026-03-27T14:15:26.83Z</time></trkpt><trkpt lat="40.636179" lon="9.6940908"><ele>1.9999999999999998</ele><time>2026-03-27T14:15:27.835Z</time></trkpt><trkpt lat="40.6361651" lon="9.6939955"><ele>2.0</ele><time>2026-03-27T14:15:28.83Z</time></trkpt><trkpt lat="40.6361517" lon="9.6939056"><ele>2.0</ele><time>2026-03-27T14:15:29.839Z</time></trkpt><trkpt lat="40.6361366" lon="9.6938088"><ele>1.9999999999999998</ele><time>2026-03-27T14:15:30.837Z</time></trkpt><trkpt lat="40.6361189" lon="9.693707"><ele>2.0</ele><time>2026-03-27T14:15:31.833Z</time></trkpt><trkpt lat="40.6361007" lon="9.6935999"><ele>2.0</ele><time>2026-03-27T14:15:32.845Z</time></trkpt><trkpt lat="40.6360831" lon="9.6935007"><ele>2.0</ele><time>2026-03-27T14:15:33.839Z</time></trkpt><trkpt lat="40.6360637" lon="9.6933817"><ele>1.9999999999999998</ele><time>2026-03-27T14:15:34.831Z</time></trkpt><trkpt lat="40.6360455" lon="9.6932694"><ele>2.0</ele><time>2026-03-27T14:15:35.828Z</time></trkpt><trkpt lat="40.6360204" lon="9.6931609"><ele>2.0</ele><time>2026-03-27T14:15:36.835Z</time></trkpt><trkpt lat="40.6359937" lon="9.6930512"><ele>2.0</ele><time>2026-03-27T14:15:37.833Z</time></trkpt><trkpt lat="40.6359609" lon="9.6929235"><ele>2.0</ele><time>2026-03-27T14:15:38.851Z</time></trkpt><trkpt lat="40.6359288" lon="9.6927919"><ele>2.0</ele><time>2026-03-27T14:15:39.832Z</time></trkpt><trkpt lat="40.6358977" lon="9.6926565"><ele>2.0</ele><time>2026-03-27T14:15:40.833Z</time></trkpt><trkpt lat="40.6358692" lon="9.6925226"><ele>2.0</ele><time>2026-03-27T14:15:41.833Z</time></trkpt><trkpt lat="40.6358396" lon="9.6923905"><ele>2.0</ele><time>2026-03-27T14:15:42.833Z</time></trkpt><trkpt lat="40.6358102" lon="9.6922579"><ele>2.0</ele><time>2026-03-27T14:15:43.831Z</time></trkpt><trkpt lat="40.6357813" lon="9.6921251"><ele>2.0</ele><time>2026-03-27T14:15:44.848Z</time></trkpt><trkpt lat="40.6357558" lon="9.6919892"><ele>2.0</ele><time>2026-03-27T14:15:45.826Z</time></trkpt><trkpt lat="40.6357328" lon="9.6918637"><ele>2.0</ele><time>2026-03-27T14:15:46.829Z</time></trkpt><trkpt lat="40.6357065" lon="9.6917381"><ele>2.0</ele><time>2026-03-27T14:15:47.836Z</time></trkpt><trkpt lat="40.6356755" lon="9.6916067"><ele>2.0</ele><time>2026-03-27T14:15:48.832Z</time></trkpt><trkpt lat="40.6356463" lon="9.691477"><ele>2.0</ele><time>2026-03-27T14:15:49.847Z</time></trkpt><trkpt lat="40.6356144" lon="9.6913428"><ele>2.0</ele><time>2026-03-27T14:15:50.829Z</time></trkpt><trkpt lat="40.6355815" lon="9.6912032"><ele>2.25</ele><time>2026-03-27T14:15:51.831Z</time></trkpt><trkpt lat="40.6355523" lon="9.6910664"><ele>2.5</ele><time>2026-03-27T14:15:52.832Z</time></trkpt><trkpt lat="40.6355224" lon="9.6909253"><ele>2.75</ele><time>2026-03-27T14:15:53.826Z</time></trkpt><trkpt lat="40.6354966" lon="9.6907714"><ele>3.0</ele><time>2026-03-27T14:15:54.857Z</time></trkpt><trkpt lat="40.6354716" lon="9.6906121"><ele>3.0</ele><time>2026-03-27T14:15:55.828Z</time></trkpt><trkpt lat="40.6354521" lon="9.6904506"><ele>3.0</ele><time>2026-03-27T14:15:56.832Z</time></trkpt><trkpt lat="40.6354353" lon="9.6902896"><ele>3.0</ele><time>2026-03-27T14:15:57.837Z</time></trkpt><trkpt lat="40.6354186" lon="9.6901301"><ele>3.0</ele><time>2026-03-27T14:15:58.833Z</time></trkpt><trkpt lat="40.6354078" lon="9.689979"><ele>2.75</ele><time>2026-03-27T14:15:59.841Z</time></trkpt><trkpt lat="40.6354021" lon="9.6898272"><ele>2.5</ele><time>2026-03-27T14:16:00.833Z</time></trkpt><trkpt lat="40.6353968" lon="9.6896785"><ele>2.25</ele><time>2026-03-27T14:16:01.836Z</time></trkpt><trkpt lat="40.6353904" lon="9.6895272"><ele>2.0</ele><time>2026-03-27T14:16:02.832Z</time></trkpt><trkpt lat="40.6353812" lon="9.6893795"><ele>1.75</ele><time>2026-03-27T14:16:03.835Z</time></trkpt><trkpt lat="40.6353688" lon="9.6892389"><ele>1.5</ele><time>2026-03-27T14:16:04.832Z</time></trkpt><trkpt lat="40.635358" lon="9.6890934"><ele>1.25</ele><time>2026-03-27T14:16:05.837Z</time></trkpt><trkpt lat="40.6353539" lon="9.6889361"><ele>1.0</ele><time>2026-03-27T14:16:06.849Z</time></trkpt><trkpt lat="40.6353545" lon="9.688769"><ele>1.0</ele><time>2026-03-27T14:16:07.829Z</time></trkpt><trkpt lat="40.635359" lon="9.6885997"><ele>1.0</ele><time>2026-03-27T14:16:08.836Z</time></trkpt><trkpt lat="40.6353665" lon="9.6884357"><ele>1.0</ele><time>2026-03-27T14:16:09.829Z</time></trkpt><trkpt lat="40.6353764" lon="9.6882748"><ele>1.0</ele><time>2026-03-27T14:16:10.835Z</time></trkpt><trkpt lat="40.6353865" lon="9.6881214"><ele>1.0</ele><time>2026-03-27T14:16:11.83Z</time></trkpt><trkpt lat="40.6354011" lon="9.6879707"><ele>1.0</ele><time>2026-03-27T14:16:12.825Z</time></trkpt><trkpt lat="40.635416" lon="9.6878229"><ele>1.0</ele><time>2026-03-27T14:16:13.834Z</time></trkpt><trkpt lat="40.6354321" lon="9.6876782"><ele>1.0</ele><time>2026-03-27T14:16:14.828Z</time></trkpt><trkpt lat="40.6354536" lon="9.6875261"><ele>1.0</ele><time>2026-03-27T14:16:15.846Z</time></trkpt><trkpt lat="40.6354786" lon="9.6873661"><ele>1.0</ele><time>2026-03-27T14:16:16.835Z</time></trkpt><trkpt lat="40.6355031" lon="9.6872049"><ele>1.0</ele><time>2026-03-27T14:16:17.837Z</time></trkpt><trkpt lat="40.6355206" lon="9.6870542"><ele>1.0</ele><time>2026-03-27T14:16:18.832Z</time></trkpt><trkpt lat="40.6355296" lon="9.6869227"><ele>1.2000000000000002</ele><time>2026-03-27T14:16:19.836Z</time></trkpt><trkpt lat="40.6355331" lon="9.6868079"><ele>1.4000000000000001</ele><time>2026-03-27T14:16:20.831Z</time></trkpt><trkpt lat="40.635535" lon="9.6866959"><ele>1.6</ele><time>2026-03-27T14:16:21.833Z</time></trkpt><trkpt lat="40.6355432" lon="9.6865677"><ele>1.8</ele><time>2026-03-27T14:16:22.835Z</time></trkpt><trkpt lat="40.6355559" lon="9.686438"><ele>2.0</ele><time>2026-03-27T14:16:23.833Z</time></trkpt><trkpt lat="40.635569" lon="9.6863062"><ele>2.0</ele><time>2026-03-27T14:16:24.835Z</time></trkpt><trkpt lat="40.6355801" lon="9.6861738"><ele>2.0</ele><time>2026-03-27T14:16:25.833Z</time></trkpt><trkpt lat="40.6355901" lon="9.6860393"><ele>2.0</ele><time>2026-03-27T14:16:26.841Z</time></trkpt><trkpt lat="40.6355957" lon="9.685901"><ele>2.0</ele><time>2026-03-27T14:16:27.833Z</time></trkpt><trkpt lat="40.6355978" lon="9.6857654"><ele>2.0</ele><time>2026-03-27T14:16:28.831Z</time></trkpt><trkpt lat="40.6356018" lon="9.6856381"><ele>2.0</ele><time>2026-03-27T14:16:29.852Z</time></trkpt><trkpt lat="40.6356053" lon="9.6855181"><ele>2.0</ele><time>2026-03-27T14:16:30.831Z</time></trkpt><trkpt lat="40.6356107" lon="9.6854041"><ele>2.0</ele><time>2026-03-27T14:16:31.831Z</time></trkpt><trkpt lat="40.6356162" lon="9.685298"><ele>2.0</ele><time>2026-03-27T14:16:32.832Z</time></trkpt><trkpt lat="40.6356161" lon="9.6852105"><ele>2.0</ele><time>2026-03-27T14:16:33.842Z</time></trkpt><trkpt lat="40.635607" lon="9.6850368"><ele>2.0</ele><time>2026-03-27T14:16:35.827Z</time></trkpt><trkpt lat="40.6356021" lon="9.6849493"><ele>1.9999999999999998</ele><time>2026-03-27T14:16:36.827Z</time></trkpt><trkpt lat="40.6356021" lon="9.684855"><ele>2.0</ele><time>2026-03-27T14:16:37.835Z</time></trkpt><trkpt lat="40.6355987" lon="9.6847633"><ele>2.0</ele><time>2026-03-27T14:16:38.835Z</time></trkpt><trkpt lat="40.6355923" lon="9.6846682"><ele>1.9999999999999998</ele><time>2026-03-27T14:16:39.844Z</time></trkpt><trkpt lat="40.6355731" lon="9.6845639"><ele>2.0</ele><time>2026-03-27T14:16:40.838Z</time></trkpt><trkpt lat="40.6355569" lon="9.684467"><ele>2.0</ele><time>2026-03-27T14:16:41.833Z</time></trkpt><trkpt lat="40.6355468" lon="9.684376"><ele>1.8333333333333333</ele><time>2026-03-27T14:16:42.831Z</time></trkpt><trkpt lat="40.6355346" lon="9.6842708"><ele>1.6666666666666665</ele><time>2026-03-27T14:16:43.832Z</time></trkpt><trkpt lat="40.635516" lon="9.684167"><ele>1.5</ele><time>2026-03-27T14:16:44.834Z</time></trkpt><trkpt lat="40.6354947" lon="9.6840655"><ele>1.3333333333333333</ele><time>2026-03-27T14:16:45.826Z</time></trkpt><trkpt lat="40.6354742" lon="9.6839627"><ele>1.1666666666666665</ele><time>2026-03-27T14:16:46.838Z</time></trkpt><trkpt lat="40.6354527" lon="9.6838573"><ele>1.0</ele><time>2026-03-27T14:16:47.834Z</time></trkpt><trkpt lat="40.6354307" lon="9.6837487"><ele>1.0</ele><time>2026-03-27T14:16:48.83Z</time></trkpt><trkpt lat="40.6354089" lon="9.6836434"><ele>1.0</ele><time>2026-03-27T14:16:49.845Z</time></trkpt><trkpt lat="40.6353812" lon="9.6835375"><ele>1.0</ele><time>2026-03-27T14:16:50.835Z</time></trkpt><trkpt lat="40.6353501" lon="9.6834233"><ele>1.0</ele><time>2026-03-27T14:16:51.828Z</time></trkpt><trkpt lat="40.6353159" lon="9.683295"><ele>1.0</ele><time>2026-03-27T14:16:52.825Z</time></trkpt><trkpt lat="40.635281" lon="9.6831582"><ele>1.5</ele><time>2026-03-27T14:16:53.835Z</time></trkpt><trkpt lat="40.6352444" lon="9.6830166"><ele>2.0</ele><time>2026-03-27T14:16:54.834Z</time></trkpt><trkpt lat="40.6352057" lon="9.6828579"><ele>2.5</ele><time>2026-03-27T14:16:55.85Z</time></trkpt><trkpt lat="40.6351665" lon="9.6826916"><ele>3.0</ele><time>2026-03-27T14:16:56.834Z</time></trkpt><trkpt lat="40.6351294" lon="9.682523"><ele>3.0</ele><time>2026-03-27T14:16:57.833Z</time></trkpt><trkpt lat="40.635092" lon="9.6823697"><ele>3.0</ele><time>2026-03-27T14:16:58.836Z</time></trkpt><trkpt lat="40.6350516" lon="9.6822339"><ele>3.0</ele><time>2026-03-27T14:16:59.832Z</time></trkpt><trkpt lat="40.6350113" lon="9.6821054"><ele>3.0</ele><time>2026-03-27T14:17:00.848Z</time></trkpt><trkpt lat="40.6349778" lon="9.6819694"><ele>3.0</ele><time>2026-03-27T14:17:01.83Z</time></trkpt><trkpt lat="40.6349382" lon="9.6818244"><ele>3.0</ele><time>2026-03-27T14:17:02.837Z</time></trkpt><trkpt lat="40.6348965" lon="9.6816654"><ele>3.0</ele><time>2026-03-27T14:17:03.836Z</time></trkpt><trkpt lat="40.6348555" lon="9.6814949"><ele>3.0</ele><time>2026-03-27T14:17:04.836Z</time></trkpt><trkpt lat="40.6348139" lon="9.6813152"><ele>3.0</ele><time>2026-03-27T14:17:05.828Z</time></trkpt><trkpt lat="40.634773" lon="9.6811387"><ele>3.0</ele><time>2026-03-27T14:17:06.836Z</time></trkpt><trkpt lat="40.6347306" lon="9.6809631"><ele>3.0</ele><time>2026-03-27T14:17:07.834Z</time></trkpt><trkpt lat="40.6346846" lon="9.6807846"><ele>3.0</ele><time>2026-03-27T14:17:08.83Z</time></trkpt><trkpt lat="40.6346376" lon="9.6805961"><ele>3.0</ele><time>2026-03-27T14:17:09.828Z</time></trkpt><trkpt lat="40.6345905" lon="9.6804095"><ele>3.0</ele><time>2026-03-27T14:17:10.832Z</time></trkpt><trkpt lat="40.6345423" lon="9.6802182"><ele>3.0</ele><time>2026-03-27T14:17:11.837Z</time></trkpt><trkpt lat="40.6344926" lon="9.6800249"><ele>3.0</ele><time>2026-03-27T14:17:12.828Z</time></trkpt><trkpt lat="40.6344425" lon="9.6798328"><ele>3.333333333333333</ele><time>2026-03-27T14:17:13.832Z</time></trkpt><trkpt lat="40.6343901" lon="9.6796394"><ele>3.6666666666666665</ele><time>2026-03-27T14:17:14.829Z</time></trkpt><trkpt lat="40.6343398" lon="9.6794456"><ele>4.0</ele><time>2026-03-27T14:17:15.833Z</time></trkpt><trkpt lat="40.6342896" lon="9.6792506"><ele>4.0</ele><time>2026-03-27T14:17:16.83Z</time></trkpt><trkpt lat="40.6342399" lon="9.6790579"><ele>4.0</ele><time>2026-03-27T14:17:17.83Z</time></trkpt><trkpt lat="40.6341945" lon="9.6788819"><ele>4.0</ele><time>2026-03-27T14:17:18.846Z</time></trkpt><trkpt lat="40.6341563" lon="9.6787228"><ele>4.0</ele><time>2026-03-27T14:17:19.825Z</time></trkpt><trkpt lat="40.6341224" lon="9.6785767"><ele>3.833333333333333</ele><time>2026-03-27T14:17:20.828Z</time></trkpt><trkpt lat="40.6340968" lon="9.678442"><ele>3.6666666666666665</ele><time>2026-03-27T14:17:21.83Z</time></trkpt><trkpt lat="40.6340832" lon="9.6783215"><ele>3.5</ele><time>2026-03-27T14:17:22.833Z</time></trkpt><trkpt lat="40.6340823" lon="9.6782104"><ele>3.333333333333333</ele><time>2026-03-27T14:17:23.838Z</time></trkpt><trkpt lat="40.6340974" lon="9.6781141"><ele>3.1666666666666665</ele><time>2026-03-27T14:17:24.832Z</time></trkpt><trkpt lat="40.634123" lon="9.6780324"><ele>3.0</ele><time>2026-03-27T14:17:25.826Z</time></trkpt><trkpt lat="40.6341514" lon="9.6778955"><ele>3.0</ele><time>2026-03-27T14:17:27.825Z</time></trkpt><trkpt lat="40.634139" lon="9.677789"><ele>3.0</ele><time>2026-03-27T14:17:29.828Z</time></trkpt><trkpt lat="40.6340847" lon="9.6777328"><ele>3.0</ele><time>2026-03-27T14:17:31.83Z</time></trkpt><trkpt lat="40.6339893" lon="9.6777108"><ele>3.0</ele><time>2026-03-27T14:17:33.827Z</time></trkpt><trkpt lat="40.6339059" lon="9.6776282"><ele>3.0</ele><time>2026-03-27T14:17:35.835Z</time></trkpt><trkpt lat="40.6338562" lon="9.6774746"><ele>2.9999999999999996</ele><time>2026-03-27T14:17:37.833Z</time></trkpt><trkpt lat="40.6338324" lon="9.6773798"><ele>3.0</ele><time>2026-03-27T14:17:38.829Z</time></trkpt><trkpt lat="40.6338087" lon="9.6772727"><ele>3.0</ele><time>2026-03-27T14:17:39.824Z</time></trkpt><trkpt lat="40.6337866" lon="9.6771722"><ele>3.0</ele><time>2026-03-27T14:17:40.843Z</time></trkpt><trkpt lat="40.6337541" lon="9.6770977"><ele>3.0</ele><time>2026-03-27T14:17:41.832Z</time></trkpt><trkpt lat="40.6337109" lon="9.6770296"><ele>2.9999999999999996</ele><time>2026-03-27T14:17:42.83Z</time></trkpt><trkpt lat="40.6336578" lon="9.676979"><ele>3.0</ele><time>2026-03-27T14:17:43.832Z</time></trkpt><trkpt lat="40.6336031" lon="9.6769319"><ele>3.666666666666667</ele><time>2026-03-27T14:17:44.833Z</time></trkpt><trkpt lat="40.6335233" lon="9.6769095"><ele>4.333333333333334</ele><time>2026-03-27T14:17:45.833Z</time></trkpt><trkpt lat="40.6334453" lon="9.6769015"><ele>5.0</ele><time>2026-03-27T14:17:46.835Z</time></trkpt><trkpt lat="40.6333543" lon="9.6769151"><ele>5.666666666666667</ele><time>2026-03-27T14:17:47.833Z</time></trkpt><trkpt lat="40.6332655" lon="9.6769345"><ele>6.333333333333334</ele><time>2026-03-27T14:17:48.824Z</time></trkpt><trkpt lat="40.6331669" lon="9.6769523"><ele>7.0</ele><time>2026-03-27T14:17:49.841Z</time></trkpt><trkpt lat="40.6330612" lon="9.6769718"><ele>7.0</ele><time>2026-03-27T14:17:50.835Z</time></trkpt><trkpt lat="40.6329584" lon="9.6769798"><ele>6.999999999999999</ele><time>2026-03-27T14:17:51.827Z</time></trkpt><trkpt lat="40.6328568" lon="9.6769735"><ele>6.999999999999999</ele><time>2026-03-27T14:17:52.824Z</time></trkpt><trkpt lat="40.6327481" lon="9.6769604"><ele>7.0</ele><time>2026-03-27T14:17:53.831Z</time></trkpt><trkpt lat="40.6326355" lon="9.6769384"><ele>7.0</ele><time>2026-03-27T14:17:54.834Z</time></trkpt><trkpt lat="40.632519" lon="9.6769209"><ele>7.0</ele><time>2026-03-27T14:17:55.829Z</time></trkpt><trkpt lat="40.6323949" lon="9.6769078"><ele>7.0</ele><time>2026-03-27T14:17:56.853Z</time></trkpt><trkpt lat="40.632265" lon="9.6768836"><ele>7.0</ele><time>2026-03-27T14:17:57.83Z</time></trkpt><trkpt lat="40.6321366" lon="9.6768496"><ele>7.0</ele><time>2026-03-27T14:17:58.834Z</time></trkpt><trkpt lat="40.6320093" lon="9.6768101"><ele>7.25</ele><time>2026-03-27T14:17:59.832Z</time></trkpt><trkpt lat="40.6318855" lon="9.6767691"><ele>7.5</ele><time>2026-03-27T14:18:00.835Z</time></trkpt><trkpt lat="40.6317654" lon="9.6767253"><ele>7.75</ele><time>2026-03-27T14:18:01.835Z</time></trkpt><trkpt lat="40.6316495" lon="9.6766831"><ele>8.0</ele><time>2026-03-27T14:18:02.826Z</time></trkpt><trkpt lat="40.6315409" lon="9.6766442"><ele>8.0</ele><time>2026-03-27T14:18:03.835Z</time></trkpt><trkpt lat="40.631435" lon="9.6766104"><ele>8.0</ele><time>2026-03-27T14:18:04.829Z</time></trkpt><trkpt lat="40.6313294" lon="9.6765849"><ele>8.0</ele><time>2026-03-27T14:18:05.83Z</time></trkpt><trkpt lat="40.6312259" lon="9.6765649"><ele>8.0</ele><time>2026-03-27T14:18:06.825Z</time></trkpt><trkpt lat="40.6311338" lon="9.6765509"><ele>8.0</ele><time>2026-03-27T14:18:07.826Z</time></trkpt><trkpt lat="40.6310468" lon="9.6765373"><ele>8.333333333333332</ele><time>2026-03-27T14:18:08.828Z</time></trkpt><trkpt lat="40.6309685" lon="9.676535"><ele>8.666666666666666</ele><time>2026-03-27T14:18:09.833Z</time></trkpt><trkpt lat="40.6308961" lon="9.6765541"><ele>9.0</ele><time>2026-03-27T14:18:10.833Z</time></trkpt><trkpt lat="40.6308283" lon="9.6765957"><ele>9.333333333333334</ele><time>2026-03-27T14:18:11.825Z</time></trkpt><trkpt lat="40.6307666" lon="9.6766561"><ele>9.666666666666668</ele><time>2026-03-27T14:18:12.824Z</time></trkpt><trkpt lat="40.6307088" lon="9.6767287"><ele>10.0</ele><time>2026-03-27T14:18:13.833Z</time></trkpt><trkpt lat="40.6306526" lon="9.6768066"><ele>10.0</ele><time>2026-03-27T14:18:14.832Z</time></trkpt><trkpt lat="40.6305925" lon="9.6768878"><ele>10.0</ele><time>2026-03-27T14:18:15.832Z</time></trkpt><trkpt lat="40.6305246" lon="9.6769731"><ele>10.0</ele><time>2026-03-27T14:18:16.848Z</time></trkpt><trkpt lat="40.6304544" lon="9.6770576"><ele>10.0</ele><time>2026-03-27T14:18:17.825Z</time></trkpt><trkpt lat="40.6303827" lon="9.677144"><ele>10.0</ele><time>2026-03-27T14:18:18.827Z</time></trkpt><trkpt lat="40.6303121" lon="9.6772296"><ele>10.166666666666668</ele><time>2026-03-27T14:18:19.83Z</time></trkpt><trkpt lat="40.6302441" lon="9.6773113"><ele>10.333333333333334</ele><time>2026-03-27T14:18:20.831Z</time></trkpt><trkpt lat="40.6301774" lon="9.6773923"><ele>10.5</ele><time>2026-03-27T14:18:21.84Z</time></trkpt><trkpt lat="40.6301111" lon="9.6774725"><ele>10.666666666666666</ele><time>2026-03-27T14:18:22.824Z</time></trkpt><trkpt lat="40.6300472" lon="9.6775519"><ele>10.833333333333332</ele><time>2026-03-27T14:18:23.828Z</time></trkpt><trkpt lat="40.629984" lon="9.6776293"><ele>11.0</ele><time>2026-03-27T14:18:24.826Z</time></trkpt><trkpt lat="40.6299214" lon="9.677706"><ele>10.833333333333332</ele><time>2026-03-27T14:18:25.83Z</time></trkpt><trkpt lat="40.6298597" lon="9.677782"><ele>10.666666666666666</ele><time>2026-03-27T14:18:26.825Z</time></trkpt><trkpt lat="40.6297979" lon="9.6778574"><ele>10.5</ele><time>2026-03-27T14:18:27.832Z</time></trkpt><trkpt lat="40.6297381" lon="9.6779321"><ele>10.333333333333334</ele><time>2026-03-27T14:18:28.824Z</time></trkpt><trkpt lat="40.6296795" lon="9.6780055"><ele>10.166666666666668</ele><time>2026-03-27T14:18:29.828Z</time></trkpt><trkpt lat="40.6296217" lon="9.6780777"><ele>10.0</ele><time>2026-03-27T14:18:30.832Z</time></trkpt><trkpt lat="40.6295649" lon="9.6781486"><ele>10.0</ele><time>2026-03-27T14:18:31.826Z</time></trkpt><trkpt lat="40.6295133" lon="9.6782137"><ele>10.0</ele><time>2026-03-27T14:18:32.833Z</time></trkpt><trkpt lat="40.6294662" lon="9.6782715"><ele>10.0</ele><time>2026-03-27T14:18:33.826Z</time></trkpt><trkpt lat="40.6293923" lon="9.6783509"><ele>10.0</ele><time>2026-03-27T14:18:35.828Z</time></trkpt><trkpt lat="40.6293071" lon="9.6783047"><ele>10.0</ele><time>2026-03-27T14:18:38.828Z</time></trkpt><trkpt lat="40.6292954" lon="9.6781405"><ele>10.0</ele><time>2026-03-27T14:18:40.828Z</time></trkpt><trkpt lat="40.6292779" lon="9.6780313"><ele>10.6</ele><time>2026-03-27T14:18:41.826Z</time></trkpt><trkpt lat="40.6292589" lon="9.6778991"><ele>11.2</ele><time>2026-03-27T14:18:42.829Z</time></trkpt><trkpt lat="40.6292318" lon="9.6777707"><ele>11.8</ele><time>2026-03-27T14:18:43.825Z</time></trkpt><trkpt lat="40.6292043" lon="9.6776381"><ele>12.4</ele><time>2026-03-27T14:18:44.853Z</time></trkpt><trkpt lat="40.6291741" lon="9.6775003"><ele>13.0</ele><time>2026-03-27T14:18:45.832Z</time></trkpt><trkpt lat="40.6291378" lon="9.677354"><ele>13.0</ele><time>2026-03-27T14:18:46.829Z</time></trkpt><trkpt lat="40.6290924" lon="9.677208"><ele>13.0</ele><time>2026-03-27T14:18:47.83Z</time></trkpt><trkpt lat="40.6290379" lon="9.6770663"><ele>13.0</ele><time>2026-03-27T14:18:48.829Z</time></trkpt><trkpt lat="40.6289702" lon="9.6769274"><ele>13.0</ele><time>2026-03-27T14:18:49.844Z</time></trkpt><trkpt lat="40.6289012" lon="9.6767907"><ele>13.25</ele><time>2026-03-27T14:18:50.832Z</time></trkpt><trkpt lat="40.6288317" lon="9.6766548"><ele>13.5</ele><time>2026-03-27T14:18:51.826Z</time></trkpt><trkpt lat="40.6287586" lon="9.6765158"><ele>13.75</ele><time>2026-03-27T14:18:52.834Z</time></trkpt><trkpt lat="40.628686" lon="9.6763742"><ele>14.0</ele><time>2026-03-27T14:18:53.837Z</time></trkpt><trkpt lat="40.6286121" lon="9.6762288"><ele>15.25</ele><time>2026-03-27T14:18:54.847Z</time></trkpt><trkpt lat="40.6285365" lon="9.6760808"><ele>16.5</ele><time>2026-03-27T14:18:55.831Z</time></trkpt><trkpt lat="40.6284611" lon="9.6759375"><ele>17.75</ele><time>2026-03-27T14:18:56.828Z</time></trkpt><trkpt lat="40.6283878" lon="9.6758032"><ele>19.0</ele><time>2026-03-27T14:18:57.834Z</time></trkpt><trkpt lat="40.6283162" lon="9.675686"><ele>19.0</ele><time>2026-03-27T14:18:58.834Z</time></trkpt><trkpt lat="40.6282405" lon="9.6755902"><ele>19.0</ele><time>2026-03-27T14:18:59.829Z</time></trkpt><trkpt lat="40.6281566" lon="9.6755203"><ele>19.0</ele><time>2026-03-27T14:19:00.831Z</time></trkpt><trkpt lat="40.6280714" lon="9.6754842"><ele>19.0</ele><time>2026-03-27T14:19:01.83Z</time></trkpt><trkpt lat="40.6279901" lon="9.6754719"><ele>19.0</ele><time>2026-03-27T14:19:02.829Z</time></trkpt><trkpt lat="40.6279093" lon="9.6754724"><ele>19.0</ele><time>2026-03-27T14:19:03.831Z</time></trkpt><trkpt lat="40.6278369" lon="9.6754806"><ele>19.0</ele><time>2026-03-27T14:19:04.833Z</time></trkpt><trkpt lat="40.6277712" lon="9.6754911"><ele>19.0</ele><time>2026-03-27T14:19:05.832Z</time></trkpt><trkpt lat="40.6276988" lon="9.6754984"><ele>19.0</ele><time>2026-03-27T14:19:06.825Z</time></trkpt><trkpt lat="40.6276226" lon="9.6755183"><ele>19.0</ele><time>2026-03-27T14:19:07.829Z</time></trkpt><trkpt lat="40.6275373" lon="9.6755485"><ele>19.0</ele><time>2026-03-27T14:19:08.833Z</time></trkpt><trkpt lat="40.6274482" lon="9.675574"><ele>19.5</ele><time>2026-03-27T14:19:09.83Z</time></trkpt><trkpt lat="40.6273515" lon="9.6755982"><ele>20.0</ele><time>2026-03-27T14:19:10.845Z</time></trkpt><trkpt lat="40.6272582" lon="9.6756249"><ele>20.5</ele><time>2026-03-27T14:19:11.831Z</time></trkpt><trkpt lat="40.6271722" lon="9.6756388"><ele>21.0</ele><time>2026-03-27T14:19:12.83Z</time></trkpt><trkpt lat="40.627098" lon="9.6756697"><ele>21.5</ele><time>2026-03-27T14:19:13.834Z</time></trkpt><trkpt lat="40.6270294" lon="9.6756779"><ele>22.0</ele><time>2026-03-27T14:19:15.852Z</time></trkpt><trkpt lat="40.6269433" lon="9.675683"><ele>22.6</ele><time>2026-03-27T14:19:19.844Z</time></trkpt><trkpt lat="40.626854" lon="9.6756988"><ele>23.200000000000003</ele><time>2026-03-27T14:19:23.834Z</time></trkpt><trkpt lat="40.6267621" lon="9.6756855"><ele>23.8</ele><time>2026-03-27T14:19:26.822Z</time></trkpt><trkpt lat="40.626781" lon="9.6755668"><ele>24.4</ele><time>2026-03-27T14:19:29.839Z</time></trkpt><trkpt lat="40.6268406" lon="9.6754657"><ele>25.0</ele><time>2026-03-27T14:19:31.83Z</time></trkpt><trkpt lat="40.6268726" lon="9.6753424"><ele>24.4</ele><time>2026-03-27T14:19:33.833Z</time></trkpt><trkpt lat="40.6268696" lon="9.6752064"><ele>23.8</ele><time>2026-03-27T14:19:35.827Z</time></trkpt><trkpt lat="40.6268444" lon="9.6750671"><ele>23.200000000000003</ele><time>2026-03-27T14:19:37.827Z</time></trkpt><trkpt lat="40.6268098" lon="9.674922"><ele>22.6</ele><time>2026-03-27T14:19:39.827Z</time></trkpt><trkpt lat="40.6267823" lon="9.6747756"><ele>22.0</ele><time>2026-03-27T14:19:41.831Z</time></trkpt><trkpt lat="40.6267739" lon="9.6746109"><ele>22.0</ele><time>2026-03-27T14:19:43.831Z</time></trkpt><trkpt lat="40.6267712" lon="9.6744518"><ele>22.0</ele><time>2026-03-27T14:19:45.824Z</time></trkpt><trkpt lat="40.6267673" lon="9.674291"><ele>22.0</ele><time>2026-03-27T14:19:47.827Z</time></trkpt><trkpt lat="40.6267514" lon="9.6742024"><ele>22.0</ele><time>2026-03-27T14:19:48.827Z</time></trkpt><trkpt lat="40.626729" lon="9.6741101"><ele>22.0</ele><time>2026-03-27T14:19:49.838Z</time></trkpt><trkpt lat="40.6266978" lon="9.6740219"><ele>21.166666666666664</ele><time>2026-03-27T14:19:50.827Z</time></trkpt><trkpt lat="40.6266665" lon="9.6739355"><ele>20.333333333333332</ele><time>2026-03-27T14:19:51.829Z</time></trkpt><trkpt lat="40.6266225" lon="9.6738575"><ele>19.5</ele><time>2026-03-27T14:19:52.831Z</time></trkpt><trkpt lat="40.6265765" lon="9.6737842"><ele>18.666666666666668</ele><time>2026-03-27T14:19:53.834Z</time></trkpt><trkpt lat="40.6265228" lon="9.6737097"><ele>17.833333333333336</ele><time>2026-03-27T14:19:54.833Z</time></trkpt><trkpt lat="40.6264646" lon="9.6736309"><ele>17.0</ele><time>2026-03-27T14:19:55.844Z</time></trkpt><trkpt lat="40.6263959" lon="9.6735438"><ele>16.4</ele><time>2026-03-27T14:19:56.831Z</time></trkpt><trkpt lat="40.6263166" lon="9.6734556"><ele>15.799999999999999</ele><time>2026-03-27T14:19:57.831Z</time></trkpt><trkpt lat="40.6262345" lon="9.6733677"><ele>15.2</ele><time>2026-03-27T14:19:58.833Z</time></trkpt><trkpt lat="40.6261498" lon="9.6732843"><ele>14.6</ele><time>2026-03-27T14:19:59.836Z</time></trkpt><trkpt lat="40.6260692" lon="9.673203"><ele>14.0</ele><time>2026-03-27T14:20:00.846Z</time></trkpt><trkpt lat="40.6259973" lon="9.6731217"><ele>14.000000000000002</ele><time>2026-03-27T14:20:01.834Z</time></trkpt><trkpt lat="40.6259365" lon="9.6730349"><ele>14.0</ele><time>2026-03-27T14:20:02.831Z</time></trkpt><trkpt lat="40.6258831" lon="9.6729445"><ele>14.0</ele><time>2026-03-27T14:20:03.835Z</time></trkpt><trkpt lat="40.6258309" lon="9.6728537"><ele>14.0</ele><time>2026-03-27T14:20:04.831Z</time></trkpt><trkpt lat="40.6257763" lon="9.6727648"><ele>14.000000000000002</ele><time>2026-03-27T14:20:05.849Z</time></trkpt><trkpt lat="40.6257175" lon="9.6726725"><ele>14.0</ele><time>2026-03-27T14:20:06.831Z</time></trkpt><trkpt lat="40.6256547" lon="9.6725815"><ele>14.6</ele><time>2026-03-27T14:20:07.831Z</time></trkpt><trkpt lat="40.6255858" lon="9.6724902"><ele>15.2</ele><time>2026-03-27T14:20:08.83Z</time></trkpt><trkpt lat="40.6255116" lon="9.6723976"><ele>15.799999999999999</ele><time>2026-03-27T14:20:09.831Z</time></trkpt><trkpt lat="40.6254327" lon="9.6723013"><ele>16.4</ele><time>2026-03-27T14:20:10.83Z</time></trkpt><trkpt lat="40.6253549" lon="9.6722069"><ele>17.0</ele><time>2026-03-27T14:20:11.837Z</time></trkpt><trkpt lat="40.6252739" lon="9.6721062"><ele>18.2</ele><time>2026-03-27T14:20:12.836Z</time></trkpt><trkpt lat="40.6251947" lon="9.6720107"><ele>19.4</ele><time>2026-03-27T14:20:13.83Z</time></trkpt><trkpt lat="40.6251131" lon="9.6719182"><ele>20.599999999999998</ele><time>2026-03-27T14:20:14.842Z</time></trkpt><trkpt lat="40.6250303" lon="9.6718353"><ele>21.799999999999997</ele><time>2026-03-27T14:20:15.827Z</time></trkpt><trkpt lat="40.6249477" lon="9.671754"><ele>23.0</ele><time>2026-03-27T14:20:16.836Z</time></trkpt><trkpt lat="40.6248662" lon="9.6716819"><ele>23.2</ele><time>2026-03-27T14:20:17.832Z</time></trkpt><trkpt lat="40.6247837" lon="9.6716075"><ele>23.4</ele><time>2026-03-27T14:20:18.836Z</time></trkpt><trkpt lat="40.6246999" lon="9.6715303"><ele>23.599999999999998</ele><time>2026-03-27T14:20:19.839Z</time></trkpt><trkpt lat="40.6246166" lon="9.6714346"><ele>23.799999999999997</ele><time>2026-03-27T14:20:20.829Z</time></trkpt><trkpt lat="40.6245351" lon="9.6713246"><ele>24.0</ele><time>2026-03-27T14:20:21.835Z</time></trkpt><trkpt lat="40.624453" lon="9.6712131"><ele>24.0</ele><time>2026-03-27T14:20:22.827Z</time></trkpt><trkpt lat="40.6243729" lon="9.6710944"><ele>24.0</ele><time>2026-03-27T14:20:23.861Z</time></trkpt><trkpt lat="40.6242894" lon="9.670969"><ele>24.0</ele><time>2026-03-27T14:20:24.832Z</time></trkpt><trkpt lat="40.6242095" lon="9.6708432"><ele>24.0</ele><time>2026-03-27T14:20:25.827Z</time></trkpt><trkpt lat="40.6241365" lon="9.6707275"><ele>24.0</ele><time>2026-03-27T14:20:26.827Z</time></trkpt><trkpt lat="40.6240722" lon="9.6706159"><ele>24.0</ele><time>2026-03-27T14:20:27.832Z</time></trkpt><trkpt lat="40.6240163" lon="9.670503"><ele>24.0</ele><time>2026-03-27T14:20:28.831Z</time></trkpt><trkpt lat="40.6239696" lon="9.6703832"><ele>24.0</ele><time>2026-03-27T14:20:29.859Z</time></trkpt><trkpt lat="40.6239297" lon="9.6702618"><ele>24.0</ele><time>2026-03-27T14:20:30.827Z</time></trkpt><trkpt lat="40.6238962" lon="9.6701492"><ele>23.5</ele><time>2026-03-27T14:20:31.833Z</time></trkpt><trkpt lat="40.6238638" lon="9.6700447"><ele>23.0</ele><time>2026-03-27T14:20:32.836Z</time></trkpt><trkpt lat="40.6238324" lon="9.6699432"><ele>22.5</ele><time>2026-03-27T14:20:33.832Z</time></trkpt><trkpt lat="40.6238034" lon="9.6698431"><ele>22.0</ele><time>2026-03-27T14:20:34.842Z</time></trkpt><trkpt lat="40.6237745" lon="9.6697503"><ele>21.5</ele><time>2026-03-27T14:20:35.833Z</time></trkpt><trkpt lat="40.623745" lon="9.6696675"><ele>21.0</ele><time>2026-03-27T14:20:36.829Z</time></trkpt><trkpt lat="40.6237119" lon="9.6695947"><ele>22.0</ele><time>2026-03-27T14:20:37.831Z</time></trkpt><trkpt lat="40.6236212" lon="9.6694889"><ele>23.0</ele><time>2026-03-27T14:20:39.844Z</time></trkpt><trkpt lat="40.6235593" lon="9.6694597"><ele>24.0</ele><time>2026-03-27T14:20:40.828Z</time></trkpt><trkpt lat="40.6234873" lon="9.6694451"><ele>25.0</ele><time>2026-03-27T14:20:41.829Z</time></trkpt><trkpt lat="40.6234098" lon="9.6694446"><ele>26.0</ele><time>2026-03-27T14:20:42.827Z</time></trkpt><trkpt lat="40.6233256" lon="9.6694492"><ele>27.0</ele><time>2026-03-27T14:20:43.826Z</time></trkpt><trkpt lat="40.6232338" lon="9.6694518"><ele>27.0</ele><time>2026-03-27T14:20:44.833Z</time></trkpt><trkpt lat="40.6231205" lon="9.669454"><ele>27.000000000000004</ele><time>2026-03-27T14:20:45.828Z</time></trkpt><trkpt lat="40.6230204" lon="9.6694562"><ele>27.000000000000004</ele><time>2026-03-27T14:20:46.836Z</time></trkpt><trkpt lat="40.622917" lon="9.6694467"><ele>27.0</ele><time>2026-03-27T14:20:47.83Z</time></trkpt><trkpt lat="40.6228089" lon="9.6694352"><ele>27.0</ele><time>2026-03-27T14:20:48.83Z</time></trkpt><trkpt lat="40.6226948" lon="9.6694049"><ele>27.200000000000003</ele><time>2026-03-27T14:20:49.833Z</time></trkpt><trkpt lat="40.6225839" lon="9.6693636"><ele>27.400000000000002</ele><time>2026-03-27T14:20:50.826Z</time></trkpt><trkpt lat="40.6224853" lon="9.6693154"><ele>27.599999999999998</ele><time>2026-03-27T14:20:51.844Z</time></trkpt><trkpt lat="40.6223916" lon="9.6692477"><ele>27.799999999999997</ele><time>2026-03-27T14:20:52.825Z</time></trkpt><trkpt lat="40.6223034" lon="9.6691722"><ele>28.0</ele><time>2026-03-27T14:20:53.825Z</time></trkpt><trkpt lat="40.6222124" lon="9.669096"><ele>28.0</ele><time>2026-03-27T14:20:54.828Z</time></trkpt><trkpt lat="40.6221203" lon="9.6690187"><ele>27.999999999999996</ele><time>2026-03-27T14:20:55.829Z</time></trkpt><trkpt lat="40.6220301" lon="9.668935"><ele>27.999999999999996</ele><time>2026-03-27T14:20:56.831Z</time></trkpt><trkpt lat="40.6219388" lon="9.6688557"><ele>28.0</ele><time>2026-03-27T14:20:57.84Z</time></trkpt><trkpt lat="40.6218595" lon="9.6687724"><ele>28.0</ele><time>2026-03-27T14:20:58.834Z</time></trkpt><trkpt lat="40.6217815" lon="9.6687078"><ele>29.000000000000004</ele><time>2026-03-27T14:20:59.833Z</time></trkpt><trkpt lat="40.6216998" lon="9.6686619"><ele>30.0</ele><time>2026-03-27T14:21:00.822Z</time></trkpt><trkpt lat="40.621625" lon="9.6686192"><ele>31.0</ele><time>2026-03-27T14:21:01.827Z</time></trkpt><trkpt lat="40.6215536" lon="9.6686083"><ele>32.0</ele><time>2026-03-27T14:21:02.828Z</time></trkpt><trkpt lat="40.6214766" lon="9.6686059"><ele>33.0</ele><time>2026-03-27T14:21:03.827Z</time></trkpt><trkpt lat="40.6213905" lon="9.6686095"><ele>34.0</ele><time>2026-03-27T14:21:04.838Z</time></trkpt><trkpt lat="40.6212987" lon="9.6686107"><ele>34.0</ele><time>2026-03-27T14:21:05.827Z</time></trkpt><trkpt lat="40.6212087" lon="9.6686089"><ele>34.0</ele><time>2026-03-27T14:21:06.835Z</time></trkpt><trkpt lat="40.6211233" lon="9.668607"><ele>34.0</ele><time>2026-03-27T14:21:07.829Z</time></trkpt><trkpt lat="40.6210395" lon="9.6686118"><ele>34.0</ele><time>2026-03-27T14:21:08.828Z</time></trkpt><trkpt lat="40.6209534" lon="9.6686233"><ele>34.0</ele><time>2026-03-27T14:21:09.83Z</time></trkpt><trkpt lat="40.6208741" lon="9.6686381"><ele>34.0</ele><time>2026-03-27T14:21:10.825Z</time></trkpt><trkpt lat="40.6208058" lon="9.6686528"><ele>34.0</ele><time>2026-03-27T14:21:11.832Z</time></trkpt><trkpt lat="40.6207173" lon="9.6686667"><ele>34.0</ele><time>2026-03-27T14:21:13.849Z</time></trkpt><trkpt lat="40.6206449" lon="9.6686364"><ele>34.0</ele><time>2026-03-27T14:21:20.827Z</time></trkpt><trkpt lat="40.6205897" lon="9.668594"><ele>34.0</ele><time>2026-03-27T14:21:22.835Z</time></trkpt><trkpt lat="40.6205219" lon="9.6685638"><ele>34.0</ele><time>2026-03-27T14:21:24.835Z</time></trkpt><trkpt lat="40.6204218" lon="9.6685565"><ele>34.0</ele><time>2026-03-27T14:21:26.83Z</time></trkpt><trkpt lat="40.6203081" lon="9.6685653"><ele>34.2</ele><time>2026-03-27T14:21:28.831Z</time></trkpt><trkpt lat="40.6201917" lon="9.6685916"><ele>34.4</ele><time>2026-03-27T14:21:30.827Z</time></trkpt><trkpt lat="40.6201282" lon="9.6686059"><ele>34.6</ele><time>2026-03-27T14:21:31.838Z</time></trkpt><trkpt lat="40.6200642" lon="9.6686216"><ele>34.8</ele><time>2026-03-27T14:21:32.834Z</time></trkpt><trkpt lat="40.6199389" lon="9.668661"><ele>35.0</ele><time>2026-03-27T14:21:34.829Z</time></trkpt><trkpt lat="40.6198642" lon="9.6686809"><ele>35.5</ele><time>2026-03-27T14:21:35.837Z</time></trkpt><trkpt lat="40.6197887" lon="9.6687012"><ele>36.0</ele><time>2026-03-27T14:21:36.833Z</time></trkpt><trkpt lat="40.6197111" lon="9.6687138"><ele>36.5</ele><time>2026-03-27T14:21:37.849Z</time></trkpt><trkpt lat="40.619632" lon="9.6687237"><ele>37.0</ele><time>2026-03-27T14:21:38.828Z</time></trkpt><trkpt lat="40.6195518" lon="9.668733"><ele>37.5</ele><time>2026-03-27T14:21:39.829Z</time></trkpt><trkpt lat="40.6194734" lon="9.6687414"><ele>38.0</ele><time>2026-03-27T14:21:40.837Z</time></trkpt><trkpt lat="40.6193959" lon="9.6687494"><ele>39.5</ele><time>2026-03-27T14:21:41.842Z</time></trkpt><trkpt lat="40.6193161" lon="9.6687584"><ele>41.0</ele><time>2026-03-27T14:21:42.852Z</time></trkpt><trkpt lat="40.6192339" lon="9.6687617"><ele>42.5</ele><time>2026-03-27T14:21:43.837Z</time></trkpt><trkpt lat="40.6191495" lon="9.6687542"><ele>44.0</ele><time>2026-03-27T14:21:44.825Z</time></trkpt><trkpt lat="40.6190605" lon="9.6687338"><ele>45.5</ele><time>2026-03-27T14:21:45.838Z</time></trkpt><trkpt lat="40.6189697" lon="9.6686961"><ele>47.0</ele><time>2026-03-27T14:21:46.832Z</time></trkpt><trkpt lat="40.6188793" lon="9.6686443"><ele>46.0</ele><time>2026-03-27T14:21:47.866Z</time></trkpt><trkpt lat="40.6187873" lon="9.6685909"><ele>45.0</ele><time>2026-03-27T14:21:48.823Z</time></trkpt><trkpt lat="40.6186925" lon="9.6685163"><ele>44.0</ele><time>2026-03-27T14:21:49.825Z</time></trkpt><trkpt lat="40.6186055" lon="9.6684493"><ele>43.0</ele><time>2026-03-27T14:21:50.827Z</time></trkpt><trkpt lat="40.618527" lon="9.6683942"><ele>42.0</ele><time>2026-03-27T14:21:51.834Z</time></trkpt><trkpt lat="40.6184511" lon="9.6683435"><ele>42.0</ele><time>2026-03-27T14:21:52.828Z</time></trkpt><trkpt lat="40.6183659" lon="9.6683148"><ele>42.0</ele><time>2026-03-27T14:21:53.826Z</time></trkpt><trkpt lat="40.618278" lon="9.6682945"><ele>42.0</ele><time>2026-03-27T14:21:54.847Z</time></trkpt><trkpt lat="40.6181932" lon="9.6682764"><ele>42.0</ele><time>2026-03-27T14:21:55.833Z</time></trkpt><trkpt lat="40.6181131" lon="9.6682646"><ele>42.0</ele><time>2026-03-27T14:21:56.836Z</time></trkpt><trkpt lat="40.61804" lon="9.668252"><ele>42.0</ele><time>2026-03-27T14:21:57.829Z</time></trkpt><trkpt lat="40.6179752" lon="9.6682322"><ele>42.0</ele><time>2026-03-27T14:21:58.829Z</time></trkpt><trkpt lat="40.6179109" lon="9.6682194"><ele>42.0</ele><time>2026-03-27T14:21:59.832Z</time></trkpt><trkpt lat="40.6178434" lon="9.6682168"><ele>42.0</ele><time>2026-03-27T14:22:00.828Z</time></trkpt><trkpt lat="40.6177293" lon="9.6682297"><ele>42.0</ele><time>2026-03-27T14:22:02.833Z</time></trkpt><trkpt lat="40.6176204" lon="9.6682713"><ele>42.0</ele><time>2026-03-27T14:22:04.835Z</time></trkpt><trkpt lat="40.617552" lon="9.6682994"><ele>42.0</ele><time>2026-03-27T14:22:05.834Z</time></trkpt><trkpt lat="40.6174808" lon="9.6683305"><ele>42.42857142857143</ele><time>2026-03-27T14:22:06.826Z</time></trkpt><trkpt lat="40.6174145" lon="9.6683701"><ele>42.85714285714286</ele><time>2026-03-27T14:22:07.834Z</time></trkpt><trkpt lat="40.6173497" lon="9.6684159"><ele>43.285714285714285</ele><time>2026-03-27T14:22:08.833Z</time></trkpt><trkpt lat="40.6172885" lon="9.6684551"><ele>43.714285714285715</ele><time>2026-03-27T14:22:09.83Z</time></trkpt><trkpt lat="40.6172327" lon="9.6685167"><ele>44.142857142857146</ele><time>2026-03-27T14:22:10.834Z</time></trkpt><trkpt lat="40.6171756" lon="9.6685751"><ele>44.57142857142857</ele><time>2026-03-27T14:22:11.829Z</time></trkpt><trkpt lat="40.6171173" lon="9.6686365"><ele>45.0</ele><time>2026-03-27T14:22:12.834Z</time></trkpt><trkpt lat="40.617067" lon="9.6686982"><ele>45.666666666666664</ele><time>2026-03-27T14:22:13.83Z</time></trkpt><trkpt lat="40.6170265" lon="9.6687716"><ele>46.33333333333333</ele><time>2026-03-27T14:22:14.833Z</time></trkpt><trkpt lat="40.6170013" lon="9.6688541"><ele>47.0</ele><time>2026-03-27T14:22:15.829Z</time></trkpt><trkpt lat="40.6169732" lon="9.6689368"><ele>47.666666666666664</ele><time>2026-03-27T14:22:16.829Z</time></trkpt><trkpt lat="40.6169303" lon="9.6690378"><ele>48.33333333333333</ele><time>2026-03-27T14:22:17.845Z</time></trkpt><trkpt lat="40.6168914" lon="9.6691352"><ele>49.0</ele><time>2026-03-27T14:22:18.833Z</time></trkpt><trkpt lat="40.6168392" lon="9.6692298"><ele>49.83333333333333</ele><time>2026-03-27T14:22:19.829Z</time></trkpt><trkpt lat="40.6167856" lon="9.6693268"><ele>50.666666666666664</ele><time>2026-03-27T14:22:20.835Z</time></trkpt><trkpt lat="40.6167379" lon="9.6694162"><ele>51.5</ele><time>2026-03-27T14:22:21.832Z</time></trkpt><trkpt lat="40.6166885" lon="9.6695035"><ele>52.33333333333333</ele><time>2026-03-27T14:22:22.829Z</time></trkpt><trkpt lat="40.6166408" lon="9.6695898"><ele>53.166666666666664</ele><time>2026-03-27T14:22:23.83Z</time></trkpt><trkpt lat="40.6165937" lon="9.6696727"><ele>54.0</ele><time>2026-03-27T14:22:24.834Z</time></trkpt><trkpt lat="40.6165506" lon="9.6697705"><ele>54.833333333333336</ele><time>2026-03-27T14:22:25.832Z</time></trkpt><trkpt lat="40.6165144" lon="9.6698575"><ele>55.66666666666667</ele><time>2026-03-27T14:22:26.837Z</time></trkpt><trkpt lat="40.6164891" lon="9.6699532"><ele>56.5</ele><time>2026-03-27T14:22:27.839Z</time></trkpt><trkpt lat="40.6164684" lon="9.6700566"><ele>57.333333333333336</ele><time>2026-03-27T14:22:28.872Z</time></trkpt><trkpt lat="40.6164648" lon="9.6701639"><ele>58.16666666666667</ele><time>2026-03-27T14:22:29.838Z</time></trkpt><trkpt lat="40.6164661" lon="9.6702669"><ele>59.0</ele><time>2026-03-27T14:22:30.832Z</time></trkpt><trkpt lat="40.6164702" lon="9.6703837"><ele>59.66666666666667</ele><time>2026-03-27T14:22:31.829Z</time></trkpt><trkpt lat="40.6164758" lon="9.6704983"><ele>60.333333333333336</ele><time>2026-03-27T14:22:32.838Z</time></trkpt><trkpt lat="40.6164813" lon="9.6706188"><ele>61.0</ele><time>2026-03-27T14:22:33.83Z</time></trkpt><trkpt lat="40.6164813" lon="9.6707328"><ele>61.66666666666667</ele><time>2026-03-27T14:22:34.837Z</time></trkpt><trkpt lat="40.6164721" lon="9.6708313"><ele>62.333333333333336</ele><time>2026-03-27T14:22:35.832Z</time></trkpt><trkpt lat="40.6164505" lon="9.6709202"><ele>63.0</ele><time>2026-03-27T14:22:36.821Z</time></trkpt><trkpt lat="40.6164194" lon="9.6709994"><ele>63.0</ele><time>2026-03-27T14:22:37.825Z</time></trkpt><trkpt lat="40.6163794" lon="9.6710647"><ele>63.0</ele><time>2026-03-27T14:22:38.832Z</time></trkpt><trkpt lat="40.6163394" lon="9.6711303"><ele>63.0</ele><time>2026-03-27T14:22:39.836Z</time></trkpt><trkpt lat="40.6162848" lon="9.6711723"><ele>63.0</ele><time>2026-03-27T14:22:40.83Z</time></trkpt><trkpt lat="40.616217" lon="9.6712065"><ele>63.0</ele><time>2026-03-27T14:22:41.829Z</time></trkpt><trkpt lat="40.6161387" lon="9.6712469"><ele>63.0</ele><time>2026-03-27T14:22:42.843Z</time></trkpt><trkpt lat="40.6160586" lon="9.671291"><ele>63.0</ele><time>2026-03-27T14:22:43.831Z</time></trkpt><trkpt lat="40.6159791" lon="9.671343"><ele>65.0</ele><time>2026-03-27T14:22:44.83Z</time></trkpt><trkpt lat="40.6159034" lon="9.6713992"><ele>67.0</ele><time>2026-03-27T14:22:45.829Z</time></trkpt><trkpt lat="40.6158295" lon="9.6714608"><ele>69.0</ele><time>2026-03-27T14:22:46.837Z</time></trkpt><trkpt lat="40.6157501" lon="9.6715157"><ele>71.0</ele><time>2026-03-27T14:22:47.834Z</time></trkpt><trkpt lat="40.6156833" lon="9.6715982"><ele>73.0</ele><time>2026-03-27T14:22:48.831Z</time></trkpt><trkpt lat="40.6156265" lon="9.6716762"><ele>75.0</ele><time>2026-03-27T14:22:49.855Z</time></trkpt><trkpt lat="40.6155721" lon="9.6717527"><ele>75.0</ele><time>2026-03-27T14:22:50.831Z</time></trkpt><trkpt lat="40.6155173" lon="9.6718196"><ele>75.0</ele><time>2026-03-27T14:22:51.83Z</time></trkpt><trkpt lat="40.6154585" lon="9.6718922"><ele>75.0</ele><time>2026-03-27T14:22:52.834Z</time></trkpt><trkpt lat="40.6154109" lon="9.671977"><ele>75.0</ele><time>2026-03-27T14:22:53.829Z</time></trkpt><trkpt lat="40.6153739" lon="9.6720688"><ele>75.0</ele><time>2026-03-27T14:22:54.835Z</time></trkpt><trkpt lat="40.6153483" lon="9.6721807"><ele>75.0</ele><time>2026-03-27T14:22:55.836Z</time></trkpt><trkpt lat="40.6153217" lon="9.6722894"><ele>78.33333333333333</ele><time>2026-03-27T14:22:56.833Z</time></trkpt><trkpt lat="40.6152973" lon="9.6724033"><ele>81.66666666666667</ele><time>2026-03-27T14:22:57.853Z</time></trkpt><trkpt lat="40.6152653" lon="9.6725126"><ele>85.0</ele><time>2026-03-27T14:22:58.834Z</time></trkpt><trkpt lat="40.6152344" lon="9.6726192"><ele>88.33333333333334</ele><time>2026-03-27T14:22:59.834Z</time></trkpt><trkpt lat="40.615206" lon="9.6727262"><ele>91.66666666666667</ele><time>2026-03-27T14:23:00.831Z</time></trkpt><trkpt lat="40.6151764" lon="9.6728345"><ele>95.0</ele><time>2026-03-27T14:23:01.83Z</time></trkpt><trkpt lat="40.6151415" lon="9.672937"><ele>95.71428571428572</ele><time>2026-03-27T14:23:02.832Z</time></trkpt><trkpt lat="40.6151097" lon="9.6730309"><ele>96.42857142857143</ele><time>2026-03-27T14:23:03.826Z</time></trkpt><trkpt lat="40.6150818" lon="9.6731237"><ele>97.14285714285714</ele><time>2026-03-27T14:23:04.838Z</time></trkpt><trkpt lat="40.6150621" lon="9.6732154"><ele>97.85714285714286</ele><time>2026-03-27T14:23:05.827Z</time></trkpt><trkpt lat="40.6150448" lon="9.6733088"><ele>98.57142857142857</ele><time>2026-03-27T14:23:06.824Z</time></trkpt><trkpt lat="40.6150292" lon="9.6733907"><ele>99.28571428571429</ele><time>2026-03-27T14:23:07.826Z</time></trkpt><trkpt lat="40.6150035" lon="9.673491"><ele>100.0</ele><time>2026-03-27T14:23:09.83Z</time></trkpt><trkpt lat="40.6149526" lon="9.6735738"><ele>102.6</ele><time>2026-03-27T14:23:11.839Z</time></trkpt><trkpt lat="40.6149066" lon="9.6736404"><ele>105.2</ele><time>2026-03-27T14:23:12.825Z</time></trkpt><trkpt lat="40.6148198" lon="9.6737455"><ele>107.80000000000001</ele><time>2026-03-27T14:23:14.83Z</time></trkpt><trkpt lat="40.6147388" lon="9.6738646"><ele>110.4</ele><time>2026-03-27T14:23:16.825Z</time></trkpt><trkpt lat="40.6146717" lon="9.6739845"><ele>113.0</ele><time>2026-03-27T14:23:18.832Z</time></trkpt><trkpt lat="40.6146269" lon="9.6741109"><ele>112.99999999999999</ele><time>2026-03-27T14:23:20.84Z</time></trkpt><trkpt lat="40.6145931" lon="9.674262"><ele>113.0</ele><time>2026-03-27T14:23:22.827Z</time></trkpt><trkpt lat="40.6145802" lon="9.6743466"><ele>113.0</ele><time>2026-03-27T14:23:23.825Z</time></trkpt><trkpt lat="40.6145547" lon="9.6744827"><ele>113.0</ele><time>2026-03-27T14:23:25.824Z</time></trkpt><trkpt lat="40.6145255" lon="9.6745858"><ele>112.99999999999999</ele><time>2026-03-27T14:23:27.824Z</time></trkpt><trkpt lat="40.6144847" lon="9.6746607"><ele>113.0</ele><time>2026-03-27T14:23:29.829Z</time></trkpt><trkpt lat="40.6144166" lon="9.6746389"><ele>112.99999999999999</ele><time>2026-03-27T14:23:39.83Z</time></trkpt><trkpt lat="40.6144392" lon="9.6744907"><ele>113.0</ele><time>2026-03-27T14:23:42.829Z</time></trkpt><trkpt lat="40.6144524" lon="9.6744071"><ele>113.0</ele><time>2026-03-27T14:23:43.825Z</time></trkpt><trkpt lat="40.6144612" lon="9.6743058"><ele>113.0</ele><time>2026-03-27T14:23:44.843Z</time></trkpt><trkpt lat="40.6144689" lon="9.6741937"><ele>112.99999999999999</ele><time>2026-03-27T14:23:45.823Z</time></trkpt><trkpt lat="40.6144797" lon="9.6740679"><ele>113.0</ele><time>2026-03-27T14:23:46.823Z</time></trkpt><trkpt lat="40.6144934" lon="9.6739283"><ele>113.0</ele><time>2026-03-27T14:23:47.825Z</time></trkpt><trkpt lat="40.6145069" lon="9.673788"><ele>113.00000000000001</ele><time>2026-03-27T14:23:48.826Z</time></trkpt><trkpt lat="40.6145258" lon="9.6736599"><ele>113.00000000000001</ele><time>2026-03-27T14:23:49.863Z</time></trkpt><trkpt lat="40.6145438" lon="9.6735386"><ele>113.0</ele><time>2026-03-27T14:23:50.827Z</time></trkpt><trkpt lat="40.6145589" lon="9.673426"><ele>113.0</ele><time>2026-03-27T14:23:51.833Z</time></trkpt><trkpt lat="40.6145635" lon="9.6733369"><ele>110.83333333333333</ele><time>2026-03-27T14:23:52.833Z</time></trkpt><trkpt lat="40.6145342" lon="9.6732561"><ele>108.66666666666666</ele><time>2026-03-27T14:23:54.845Z</time></trkpt><trkpt lat="40.6144689" lon="9.6731523"><ele>106.5</ele><time>2026-03-27T14:23:56.825Z</time></trkpt><trkpt lat="40.6144306" lon="9.6730282"><ele>104.33333333333334</ele><time>2026-03-27T14:23:58.828Z</time></trkpt><trkpt lat="40.6144484" lon="9.6729342"><ele>102.16666666666667</ele><time>2026-03-27T14:24:01.831Z</time></trkpt><trkpt lat="40.6144303" lon="9.6730405"><ele>100.0</ele><time>2026-03-27T14:25:25.836Z</time></trkpt><trkpt lat="40.6144462" lon="9.6731485"><ele>100.00000000000001</ele><time>2026-03-27T14:25:28.841Z</time></trkpt><trkpt lat="40.6145047" lon="9.6732422"><ele>100.0</ele><time>2026-03-27T14:25:30.855Z</time></trkpt><trkpt lat="40.6145534" lon="9.6733255"><ele>100.0</ele><time>2026-03-27T14:25:32.84Z</time></trkpt><trkpt lat="40.6145553" lon="9.6734305"><ele>100.0</ele><time>2026-03-27T14:25:34.834Z</time></trkpt><trkpt lat="40.6145267" lon="9.6735802"><ele>100.00000000000001</ele><time>2026-03-27T14:25:36.831Z</time></trkpt><trkpt lat="40.6145113" lon="9.6736839"><ele>100.0</ele><time>2026-03-27T14:25:37.827Z</time></trkpt><trkpt lat="40.6144987" lon="9.6737977"><ele>104.00000000000001</ele><time>2026-03-27T14:25:38.847Z</time></trkpt><trkpt lat="40.6144826" lon="9.6739135"><ele>108.0</ele><time>2026-03-27T14:25:39.828Z</time></trkpt><trkpt lat="40.6144688" lon="9.6740257"><ele>112.0</ele><time>2026-03-27T14:25:40.848Z</time></trkpt><trkpt lat="40.6144572" lon="9.6741305"><ele>116.0</ele><time>2026-03-27T14:25:41.827Z</time></trkpt><trkpt lat="40.6144528" lon="9.6742385"><ele>120.00000000000001</ele><time>2026-03-27T14:25:42.828Z</time></trkpt><trkpt lat="40.6144464" lon="9.674331"><ele>124.0</ele><time>2026-03-27T14:25:43.827Z</time></trkpt><trkpt lat="40.6144374" lon="9.6744165"><ele>124.16666666666667</ele><time>2026-03-27T14:25:44.831Z</time></trkpt><trkpt lat="40.6144211" lon="9.6745285"><ele>124.33333333333334</ele><time>2026-03-27T14:25:46.833Z</time></trkpt><trkpt lat="40.6144015" lon="9.6746182"><ele>124.5</ele><time>2026-03-27T14:25:51.83Z</time></trkpt><trkpt lat="40.6143818" lon="9.6747141"><ele>124.66666666666666</ele><time>2026-03-27T14:32:29.831Z</time></trkpt><trkpt lat="40.6143263" lon="9.6748012"><ele>124.83333333333333</ele><time>2026-03-27T14:32:31.832Z</time></trkpt><trkpt lat="40.6142476" lon="9.6749051"><ele>125.0</ele><time>2026-03-27T14:32:33.83Z</time></trkpt><trkpt lat="40.6141802" lon="9.6749857"><ele>125.0</ele><time>2026-03-27T14:32:35.826Z</time></trkpt><trkpt lat="40.6140965" lon="9.675073"><ele>125.0</ele><time>2026-03-27T14:32:37.831Z</time></trkpt><trkpt lat="40.6140146" lon="9.6751318"><ele>125.0</ele><time>2026-03-27T14:32:39.83Z</time></trkpt><trkpt lat="40.6139441" lon="9.6751951"><ele>125.0</ele><time>2026-03-27T14:32:41.828Z</time></trkpt><trkpt lat="40.613871" lon="9.6752654"><ele>125.0</ele><time>2026-03-27T14:32:43.837Z</time></trkpt><trkpt lat="40.6137975" lon="9.6753632"><ele>129.0</ele><time>2026-03-27T14:32:45.825Z</time></trkpt><trkpt lat="40.6137355" lon="9.6754644"><ele>133.0</ele><time>2026-03-27T14:32:47.829Z</time></trkpt><trkpt lat="40.6137037" lon="9.6755561"><ele>137.0</ele><time>2026-03-27T14:32:49.836Z</time></trkpt><trkpt lat="40.6136708" lon="9.6756587"><ele>141.0</ele><time>2026-03-27T14:33:12.83Z</time></trkpt><trkpt lat="40.6136215" lon="9.6757756"><ele>145.0</ele><time>2026-03-27T14:33:15.837Z</time></trkpt><trkpt lat="40.6136966" lon="9.6757486"><ele>149.0</ele><time>2026-03-27T14:33:20.822Z</time></trkpt><trkpt lat="40.6137578" lon="9.6756906"><ele>149.0</ele><time>2026-03-27T14:33:21.829Z</time></trkpt><trkpt lat="40.6138188" lon="9.6756342"><ele>149.0</ele><time>2026-03-27T14:33:22.847Z</time></trkpt><trkpt lat="40.6138793" lon="9.6755884"><ele>149.0</ele><time>2026-03-27T14:33:23.829Z</time></trkpt><trkpt lat="40.6139371" lon="9.6755459"><ele>149.0</ele><time>2026-03-27T14:33:24.827Z</time></trkpt><trkpt lat="40.6139933" lon="9.6755008"><ele>149.0</ele><time>2026-03-27T14:33:25.824Z</time></trkpt><trkpt lat="40.6140661" lon="9.6754705"><ele>149.0</ele><time>2026-03-27T14:33:26.833Z</time></trkpt><trkpt lat="40.6141406" lon="9.6754365"><ele>149.0</ele><time>2026-03-27T14:33:27.829Z</time></trkpt><trkpt lat="40.6142244" lon="9.6754035"><ele>149.0</ele><time>2026-03-27T14:33:28.853Z</time></trkpt><trkpt lat="40.6142995" lon="9.6753656"><ele>149.0</ele><time>2026-03-27T14:33:29.828Z</time></trkpt><trkpt lat="40.6143779" lon="9.6753271"><ele>149.0</ele><time>2026-03-27T14:33:30.834Z</time></trkpt><trkpt lat="40.6144583" lon="9.6752861"><ele>149.0</ele><time>2026-03-27T14:33:31.827Z</time></trkpt><trkpt lat="40.6145314" lon="9.6752438"><ele>149.0</ele><time>2026-03-27T14:33:32.828Z</time></trkpt><trkpt lat="40.6146145" lon="9.6752109"><ele>149.0</ele><time>2026-03-27T14:33:33.829Z</time></trkpt><trkpt lat="40.6146906" lon="9.6751757"><ele>148.5</ele><time>2026-03-27T14:33:34.827Z</time></trkpt><trkpt lat="40.6147556" lon="9.6751477"><ele>148.0</ele><time>2026-03-27T14:33:35.831Z</time></trkpt><trkpt lat="40.6148202" lon="9.6751182"><ele>147.5</ele><time>2026-03-27T14:33:36.856Z</time></trkpt><trkpt lat="40.6149275" lon="9.6750732"><ele>147.0</ele><time>2026-03-27T14:33:38.836Z</time></trkpt><trkpt lat="40.6149908" lon="9.6751337"><ele>146.5</ele><time>2026-03-27T14:33:40.833Z</time></trkpt><trkpt lat="40.6149943" lon="9.6752603"><ele>146.0</ele><time>2026-03-27T14:33:42.83Z</time></trkpt><trkpt lat="40.6149842" lon="9.6753433"><ele>146.0</ele><time>2026-03-27T14:33:43.834Z</time></trkpt><trkpt lat="40.6149844" lon="9.6754407"><ele>146.0</ele><time>2026-03-27T14:33:44.848Z</time></trkpt><trkpt lat="40.6149943" lon="9.6755347"><ele>146.0</ele><time>2026-03-27T14:33:45.825Z</time></trkpt><trkpt lat="40.6150076" lon="9.6756312"><ele>146.0</ele><time>2026-03-27T14:33:46.83Z</time></trkpt><trkpt lat="40.6150186" lon="9.6757245"><ele>146.0</ele><time>2026-03-27T14:33:47.83Z</time></trkpt><trkpt lat="40.6150397" lon="9.6758062"><ele>146.0</ele><time>2026-03-27T14:33:48.833Z</time></trkpt><trkpt lat="40.6150605" lon="9.6758864"><ele>146.0</ele><time>2026-03-27T14:33:49.829Z</time></trkpt><trkpt lat="40.6150771" lon="9.6759783"><ele>146.0</ele><time>2026-03-27T14:33:50.821Z</time></trkpt><trkpt lat="40.6150885" lon="9.6760739"><ele>146.0</ele><time>2026-03-27T14:33:51.825Z</time></trkpt><trkpt lat="40.6150949" lon="9.6761588"><ele>146.0</ele><time>2026-03-27T14:33:52.832Z</time></trkpt><trkpt lat="40.6151291" lon="9.676249"><ele>146.0</ele><time>2026-03-27T14:33:54.829Z</time></trkpt><trkpt lat="40.6151972" lon="9.6762854"><ele>146.0</ele><time>2026-03-27T14:33:56.832Z</time></trkpt><trkpt lat="40.6152577" lon="9.6762606"><ele>146.0</ele><time>2026-03-27T14:34:40.834Z</time></trkpt><trkpt lat="40.6153313" lon="9.6762016"><ele>146.0</ele><time>2026-03-27T14:34:42.832Z</time></trkpt><trkpt lat="40.6153862" lon="9.6761539"><ele>144.66666666666666</ele><time>2026-03-27T14:34:43.834Z</time></trkpt><trkpt lat="40.6154364" lon="9.6761034"><ele>143.33333333333331</ele><time>2026-03-27T14:34:44.842Z</time></trkpt><trkpt lat="40.6155238" lon="9.6760248"><ele>142.0</ele><time>2026-03-27T14:34:46.826Z</time></trkpt><trkpt lat="40.6155956" lon="9.6760027"><ele>140.66666666666666</ele><time>2026-03-27T14:34:48.832Z</time></trkpt><trkpt lat="40.6156803" lon="9.6760051"><ele>139.33333333333334</ele><time>2026-03-27T14:34:50.831Z</time></trkpt><trkpt lat="40.6157768" lon="9.6760646"><ele>138.0</ele><time>2026-03-27T14:34:52.829Z</time></trkpt><trkpt lat="40.6158615" lon="9.6760998"><ele>138.0</ele><time>2026-03-27T14:34:54.826Z</time></trkpt><trkpt lat="40.6159811" lon="9.6760382"><ele>138.0</ele><time>2026-03-27T14:34:56.828Z</time></trkpt><trkpt lat="40.6160533" lon="9.6759937"><ele>138.0</ele><time>2026-03-27T14:34:57.846Z</time></trkpt><trkpt lat="40.6161222" lon="9.6759493"><ele>138.0</ele><time>2026-03-27T14:34:58.823Z</time></trkpt><trkpt lat="40.6161883" lon="9.6759124"><ele>138.0</ele><time>2026-03-27T14:34:59.833Z</time></trkpt><trkpt lat="40.6163074" lon="9.6758761"><ele>139.16666666666666</ele><time>2026-03-27T14:35:01.83Z</time></trkpt><trkpt lat="40.6163872" lon="9.6758754"><ele>140.33333333333334</ele><time>2026-03-27T14:35:02.826Z</time></trkpt><trkpt lat="40.6164604" lon="9.6758619"><ele>141.5</ele><time>2026-03-27T14:35:03.835Z</time></trkpt><trkpt lat="40.6165322" lon="9.6758464"><ele>142.66666666666669</ele><time>2026-03-27T14:35:04.825Z</time></trkpt><trkpt lat="40.616595" lon="9.6758069"><ele>143.83333333333334</ele><time>2026-03-27T14:35:05.833Z</time></trkpt><trkpt lat="40.6166942" lon="9.6757305"><ele>145.0</ele><time>2026-03-27T14:35:07.829Z</time></trkpt><trkpt lat="40.6167638" lon="9.6756253"><ele>145.0</ele><time>2026-03-27T14:35:09.827Z</time></trkpt><trkpt lat="40.6168276" lon="9.6755577"><ele>145.0</ele><time>2026-03-27T14:35:11.84Z</time></trkpt><trkpt lat="40.6169095" lon="9.6755602"><ele>145.0</ele><time>2026-03-27T14:35:14.838Z</time></trkpt><trkpt lat="40.6169819" lon="9.6756314"><ele>145.0</ele><time>2026-03-27T14:35:16.831Z</time></trkpt><trkpt lat="40.6170415" lon="9.6756914"><ele>145.0</ele><time>2026-03-27T14:35:17.828Z</time></trkpt><trkpt lat="40.6171044" lon="9.6757611"><ele>145.0</ele><time>2026-03-27T14:35:18.854Z</time></trkpt><trkpt lat="40.6171588" lon="9.6758227"><ele>143.42857142857144</ele><time>2026-03-27T14:35:19.828Z</time></trkpt><trkpt lat="40.6172177" lon="9.6758631"><ele>141.85714285714286</ele><time>2026-03-27T14:35:20.825Z</time></trkpt><trkpt lat="40.6172765" lon="9.6758983"><ele>140.28571428571428</ele><time>2026-03-27T14:35:21.833Z</time></trkpt><trkpt lat="40.6173406" lon="9.6759124"><ele>138.71428571428572</ele><time>2026-03-27T14:35:22.83Z</time></trkpt><trkpt lat="40.6174094" lon="9.6759138"><ele>137.14285714285714</ele><time>2026-03-27T14:35:23.829Z</time></trkpt><trkpt lat="40.6174786" lon="9.6759001"><ele>135.57142857142858</ele><time>2026-03-27T14:35:24.841Z</time></trkpt><trkpt lat="40.6175407" lon="9.6758845"><ele>134.0</ele><time>2026-03-27T14:35:25.832Z</time></trkpt><trkpt lat="40.6176654" lon="9.6758439"><ele>134.0</ele><time>2026-03-27T14:35:27.831Z</time></trkpt><trkpt lat="40.6177432" lon="9.675824"><ele>134.0</ele><time>2026-03-27T14:35:28.831Z</time></trkpt><trkpt lat="40.6178191" lon="9.6758023"><ele>134.0</ele><time>2026-03-27T14:35:29.838Z</time></trkpt><trkpt lat="40.6178879" lon="9.6757826"><ele>134.0</ele><time>2026-03-27T14:35:30.833Z</time></trkpt><trkpt lat="40.6179833" lon="9.675751"><ele>134.0</ele><time>2026-03-27T14:35:32.826Z</time></trkpt><trkpt lat="40.6180508" lon="9.6757144"><ele>134.0</ele><time>2026-03-27T14:36:03.826Z</time></trkpt><trkpt lat="40.6180556" lon="9.6758025"><ele>134.0</ele><time>2026-03-27T14:36:23.833Z</time></trkpt><trkpt lat="40.6179841" lon="9.6758563"><ele>134.0</ele><time>2026-03-27T14:36:26.884Z</time></trkpt><trkpt lat="40.6179056" lon="9.6759344"><ele>134.0</ele><time>2026-03-27T14:36:28.841Z</time></trkpt><trkpt lat="40.6178045" lon="9.6760264"><ele>134.0</ele><time>2026-03-27T14:36:30.83Z</time></trkpt><trkpt lat="40.6177221" lon="9.6761263"><ele>134.0</ele><time>2026-03-27T14:36:32.834Z</time></trkpt><trkpt lat="40.6176441" lon="9.6762293"><ele>134.42857142857144</ele><time>2026-03-27T14:36:34.841Z</time></trkpt><trkpt lat="40.6175892" lon="9.6762863"><ele>134.85714285714286</ele><time>2026-03-27T14:36:35.832Z</time></trkpt><trkpt lat="40.6175313" lon="9.6763415"><ele>135.28571428571428</ele><time>2026-03-27T14:36:36.834Z</time></trkpt><trkpt lat="40.6174772" lon="9.676394"><ele>135.71428571428572</ele><time>2026-03-27T14:36:37.832Z</time></trkpt><trkpt lat="40.6174177" lon="9.6764405"><ele>136.14285714285714</ele><time>2026-03-27T14:36:38.827Z</time></trkpt><trkpt lat="40.6173621" lon="9.6764919"><ele>136.57142857142858</ele><time>2026-03-27T14:36:39.849Z</time></trkpt><trkpt lat="40.6173069" lon="9.6765373"><ele>137.0</ele><time>2026-03-27T14:36:40.826Z</time></trkpt><trkpt lat="40.6172446" lon="9.6765608"><ele>137.00000000000003</ele><time>2026-03-27T14:36:41.83Z</time></trkpt><trkpt lat="40.6171338" lon="9.6765715"><ele>137.0</ele><time>2026-03-27T14:36:43.833Z</time></trkpt><trkpt lat="40.617069" lon="9.6765648"><ele>137.0</ele><time>2026-03-27T14:36:44.833Z</time></trkpt><trkpt lat="40.6169966" lon="9.6765527"><ele>137.0</ele><time>2026-03-27T14:36:45.842Z</time></trkpt><trkpt lat="40.6169341" lon="9.6765291"><ele>137.0</ele><time>2026-03-27T14:36:46.835Z</time></trkpt><trkpt lat="40.6168725" lon="9.6764991"><ele>137.00000000000003</ele><time>2026-03-27T14:36:47.833Z</time></trkpt><trkpt lat="40.6168105" lon="9.6764731"><ele>137.0</ele><time>2026-03-27T14:36:48.829Z</time></trkpt><trkpt lat="40.6167076" lon="9.6764278"><ele>141.5</ele><time>2026-03-27T14:36:50.84Z</time></trkpt><trkpt lat="40.6166297" lon="9.6764711"><ele>146.0</ele><time>2026-03-27T14:36:53.838Z</time></trkpt><trkpt lat="40.6166048" lon="9.6765511"><ele>150.5</ele><time>2026-03-27T14:38:37.837Z</time></trkpt><trkpt lat="40.6165688" lon="9.6766624"><ele>155.0</ele><time>2026-03-27T14:38:39.848Z</time></trkpt><trkpt lat="40.6165402" lon="9.6767717"><ele>159.5</ele><time>2026-03-27T14:38:41.826Z</time></trkpt><trkpt lat="40.6165621" lon="9.6766254"><ele>164.0</ele><time>2026-03-27T14:52:22.835Z</time></trkpt><trkpt lat="40.6165951" lon="9.6765089"><ele>164.0</ele><time>2026-03-27T14:52:24.845Z</time></trkpt><trkpt lat="40.6166428" lon="9.6764447"><ele>164.0</ele><time>2026-03-27T14:52:26.832Z</time></trkpt><trkpt lat="40.6167365" lon="9.6764525"><ele>164.0</ele><time>2026-03-27T14:52:29.847Z</time></trkpt><trkpt lat="40.6168084" lon="9.6764855"><ele>164.0</ele><time>2026-03-27T14:52:31.834Z</time></trkpt><trkpt lat="40.6168978" lon="9.6765167"><ele>164.0</ele><time>2026-03-27T14:52:34.831Z</time></trkpt><trkpt lat="40.6169907" lon="9.676546"><ele>164.0</ele><time>2026-03-27T14:52:37.834Z</time></trkpt><trkpt lat="40.6170657" lon="9.6765569"><ele>159.5</ele><time>2026-03-27T14:52:39.844Z</time></trkpt><trkpt lat="40.6171519" lon="9.6765491"><ele>155.0</ele><time>2026-03-27T14:52:42.836Z</time></trkpt><trkpt lat="40.6172337" lon="9.6765316"><ele>150.5</ele><time>2026-03-27T14:52:44.832Z</time></trkpt><trkpt lat="40.6173073" lon="9.6764837"><ele>146.0</ele><time>2026-03-27T14:52:46.844Z</time></trkpt><trkpt lat="40.6173816" lon="9.6764251"><ele>141.5</ele><time>2026-03-27T14:52:48.835Z</time></trkpt><trkpt lat="40.6174582" lon="9.6763674"><ele>137.0</ele><time>2026-03-27T14:52:50.835Z</time></trkpt><trkpt lat="40.617531" lon="9.6762965"><ele>137.0</ele><time>2026-03-27T14:52:52.849Z</time></trkpt><trkpt lat="40.6175993" lon="9.676233"><ele>137.0</ele><time>2026-03-27T14:52:54.845Z</time></trkpt><trkpt lat="40.6176653" lon="9.6761602"><ele>137.0</ele><time>2026-03-27T14:52:56.842Z</time></trkpt><trkpt lat="40.6177231" lon="9.6760896"><ele>137.0</ele><time>2026-03-27T14:52:58.834Z</time></trkpt><trkpt lat="40.6177817" lon="9.6760314"><ele>137.0</ele><time>2026-03-27T14:53:00.847Z</time></trkpt><trkpt lat="40.6178396" lon="9.675968"><ele>137.0</ele><time>2026-03-27T14:53:02.845Z</time></trkpt><trkpt lat="40.6179214" lon="9.6758997"><ele>134.14285714285717</ele><time>2026-03-27T14:53:05.841Z</time></trkpt><trkpt lat="40.617975" lon="9.6758493"><ele>131.28571428571428</ele><time>2026-03-27T14:53:07.849Z</time></trkpt><trkpt lat="40.6180247" lon="9.6757964"><ele>128.42857142857144</ele><time>2026-03-27T14:53:09.832Z</time></trkpt><trkpt lat="40.6180735" lon="9.6757435"><ele>125.57142857142858</ele><time>2026-03-27T14:53:12.833Z</time></trkpt><trkpt lat="40.6181357" lon="9.6756704"><ele>122.71428571428572</ele><time>2026-03-27T15:08:28.816Z</time></trkpt><trkpt lat="40.6182055" lon="9.6756439"><ele>119.85714285714286</ele><time>2026-03-27T15:08:30.837Z</time></trkpt><trkpt lat="40.6182686" lon="9.675651"><ele>117.0</ele><time>2026-03-27T15:08:31.843Z</time></trkpt><trkpt lat="40.6183317" lon="9.675652"><ele>117.0</ele><time>2026-03-27T15:08:32.841Z</time></trkpt><trkpt lat="40.618447" lon="9.6756606"><ele>116.99999999999999</ele><time>2026-03-27T15:08:34.857Z</time></trkpt><trkpt lat="40.6185514" lon="9.6756484"><ele>116.99999999999999</ele><time>2026-03-27T15:08:36.831Z</time></trkpt><trkpt lat="40.6186506" lon="9.6756311"><ele>117.0</ele><time>2026-03-27T15:08:38.831Z</time></trkpt><trkpt lat="40.6187544" lon="9.6756302"><ele>117.0</ele><time>2026-03-27T15:08:40.833Z</time></trkpt><trkpt lat="40.618837" lon="9.675627"><ele>115.16666666666667</ele><time>2026-03-27T15:08:42.829Z</time></trkpt><trkpt lat="40.6189049" lon="9.6756154"><ele>113.33333333333334</ele><time>2026-03-27T15:08:45.835Z</time></trkpt><trkpt lat="40.6190053" lon="9.6756086"><ele>111.5</ele><time>2026-03-27T15:10:12.848Z</time></trkpt><trkpt lat="40.6191178" lon="9.6755891"><ele>109.66666666666667</ele><time>2026-03-27T15:10:14.831Z</time></trkpt><trkpt lat="40.6191838" lon="9.6755789"><ele>107.83333333333334</ele><time>2026-03-27T15:10:15.834Z</time></trkpt><trkpt lat="40.6192532" lon="9.6755601"><ele>106.0</ele><time>2026-03-27T15:10:16.837Z</time></trkpt><trkpt lat="40.6193226" lon="9.6755334"><ele>106.00000000000001</ele><time>2026-03-27T15:10:17.835Z</time></trkpt><trkpt lat="40.6193876" lon="9.6754971"><ele>106.0</ele><time>2026-03-27T15:10:18.849Z</time></trkpt><trkpt lat="40.6194779" lon="9.6754384"><ele>106.0</ele><time>2026-03-27T15:10:20.836Z</time></trkpt><trkpt lat="40.619539" lon="9.6753566"><ele>106.0</ele><time>2026-03-27T15:10:23.849Z</time></trkpt><trkpt lat="40.6195745" lon="9.6752859"><ele>106.00000000000001</ele><time>2026-03-27T15:10:25.837Z</time></trkpt><trkpt lat="40.6196405" lon="9.6752192"><ele>106.0</ele><time>2026-03-27T15:10:28.841Z</time></trkpt><trkpt lat="40.6197099" lon="9.6751946"><ele>107.16666666666667</ele><time>2026-03-27T15:10:33.826Z</time></trkpt><trkpt lat="40.6197908" lon="9.6751839"><ele>108.33333333333334</ele><time>2026-03-27T15:10:35.833Z</time></trkpt><trkpt lat="40.6199033" lon="9.6751655"><ele>109.5</ele><time>2026-03-27T15:10:37.831Z</time></trkpt><trkpt lat="40.6199953" lon="9.6751386"><ele>110.66666666666666</ele><time>2026-03-27T15:10:39.83Z</time></trkpt><trkpt lat="40.6200674" lon="9.6751345"><ele>111.83333333333333</ele><time>2026-03-27T15:10:41.833Z</time></trkpt><trkpt lat="40.6201511" lon="9.6751545"><ele>113.0</ele><time>2026-03-27T15:10:43.828Z</time></trkpt><trkpt lat="40.620237" lon="9.6751473"><ele>107.75</ele><time>2026-03-27T15:10:45.837Z</time></trkpt><trkpt lat="40.6203388" lon="9.6750831"><ele>102.5</ele><time>2026-03-27T15:10:47.832Z</time></trkpt><trkpt lat="40.6204322" lon="9.6750003"><ele>97.25</ele><time>2026-03-27T15:10:49.831Z</time></trkpt><trkpt lat="40.620525" lon="9.6749179"><ele>92.0</ele><time>2026-03-27T15:10:51.837Z</time></trkpt><trkpt lat="40.6206422" lon="9.6748793"><ele>92.0</ele><time>2026-03-27T15:10:53.837Z</time></trkpt><trkpt lat="40.6207532" lon="9.6748452"><ele>92.0</ele><time>2026-03-27T15:10:55.831Z</time></trkpt><trkpt lat="40.6208558" lon="9.6747874"><ele>92.0</ele><time>2026-03-27T15:10:57.832Z</time></trkpt><trkpt lat="40.6209449" lon="9.6747364"><ele>92.0</ele><time>2026-03-27T15:10:59.833Z</time></trkpt><trkpt lat="40.6210305" lon="9.6747273"><ele>92.0</ele><time>2026-03-27T15:11:01.827Z</time></trkpt><trkpt lat="40.6211189" lon="9.6748452"><ele>90.57142857142857</ele><time>2026-03-27T15:11:03.828Z</time></trkpt><trkpt lat="40.6211684" lon="9.6749232"><ele>89.14285714285714</ele><time>2026-03-27T15:11:04.827Z</time></trkpt><trkpt lat="40.62122" lon="9.6750009"><ele>87.71428571428571</ele><time>2026-03-27T15:11:05.829Z</time></trkpt><trkpt lat="40.6212703" lon="9.6750761"><ele>86.28571428571428</ele><time>2026-03-27T15:11:06.83Z</time></trkpt><trkpt lat="40.6213157" lon="9.6751477"><ele>84.85714285714286</ele><time>2026-03-27T15:11:07.828Z</time></trkpt><trkpt lat="40.6213569" lon="9.6752221"><ele>83.42857142857142</ele><time>2026-03-27T15:11:08.835Z</time></trkpt><trkpt lat="40.6213972" lon="9.6752965"><ele>82.0</ele><time>2026-03-27T15:11:09.829Z</time></trkpt><trkpt lat="40.6214731" lon="9.6754171"><ele>80.14285714285714</ele><time>2026-03-27T15:11:11.844Z</time></trkpt><trkpt lat="40.6215599" lon="9.6755074"><ele>78.28571428571428</ele><time>2026-03-27T15:11:13.833Z</time></trkpt><trkpt lat="40.6216154" lon="9.6755535"><ele>76.42857142857143</ele><time>2026-03-27T15:11:14.833Z</time></trkpt><trkpt lat="40.6216742" lon="9.6755984"><ele>74.57142857142857</ele><time>2026-03-27T15:11:15.831Z</time></trkpt><trkpt lat="40.6217346" lon="9.6756428"><ele>72.71428571428572</ele><time>2026-03-27T15:11:16.828Z</time></trkpt><trkpt lat="40.6217918" lon="9.6756865"><ele>70.85714285714286</ele><time>2026-03-27T15:11:17.829Z</time></trkpt><trkpt lat="40.6218408" lon="9.6757415"><ele>69.0</ele><time>2026-03-27T15:11:18.83Z</time></trkpt><trkpt lat="40.6218869" lon="9.6758046"><ele>69.0</ele><time>2026-03-27T15:11:19.83Z</time></trkpt><trkpt lat="40.62193" lon="9.6758693"><ele>69.0</ele><time>2026-03-27T15:11:20.847Z</time></trkpt><trkpt lat="40.621972" lon="9.6759331"><ele>69.0</ele><time>2026-03-27T15:11:21.837Z</time></trkpt><trkpt lat="40.622071" lon="9.6760271"><ele>69.0</ele><time>2026-03-27T15:11:23.828Z</time></trkpt><trkpt lat="40.6221836" lon="9.6760647"><ele>69.0</ele><time>2026-03-27T15:11:25.831Z</time></trkpt><trkpt lat="40.6222951" lon="9.6760579"><ele>66.8</ele><time>2026-03-27T15:11:27.831Z</time></trkpt><trkpt lat="40.6223989" lon="9.6760235"><ele>64.60000000000001</ele><time>2026-03-27T15:11:29.829Z</time></trkpt><trkpt lat="40.6224836" lon="9.6759614"><ele>62.4</ele><time>2026-03-27T15:11:31.828Z</time></trkpt><trkpt lat="40.6225659" lon="9.6759635"><ele>60.2</ele><time>2026-03-27T15:11:33.829Z</time></trkpt><trkpt lat="40.6226501" lon="9.6760014"><ele>58.0</ele><time>2026-03-27T15:11:35.832Z</time></trkpt><trkpt lat="40.6227519" lon="9.6760484"><ele>56.14285714285715</ele><time>2026-03-27T15:11:37.827Z</time></trkpt><trkpt lat="40.6228161" lon="9.6760774"><ele>54.28571428571429</ele><time>2026-03-27T15:11:38.836Z</time></trkpt><trkpt lat="40.6228804" lon="9.6761069"><ele>52.42857142857143</ele><time>2026-03-27T15:11:39.83Z</time></trkpt><trkpt lat="40.6229437" lon="9.6761472"><ele>50.57142857142858</ele><time>2026-03-27T15:11:40.828Z</time></trkpt><trkpt lat="40.6230044" lon="9.6761921"><ele>48.71428571428572</ele><time>2026-03-27T15:11:41.829Z</time></trkpt><trkpt lat="40.6230635" lon="9.6762398"><ele>46.857142857142854</ele><time>2026-03-27T15:11:42.83Z</time></trkpt><trkpt lat="40.6231215" lon="9.6762889"><ele>45.0</ele><time>2026-03-27T15:11:43.829Z</time></trkpt><trkpt lat="40.6231799" lon="9.6763392"><ele>45.0</ele><time>2026-03-27T15:11:44.847Z</time></trkpt><trkpt lat="40.623242" lon="9.6763918"><ele>45.0</ele><time>2026-03-27T15:11:45.836Z</time></trkpt><trkpt lat="40.6233038" lon="9.6764436"><ele>45.0</ele><time>2026-03-27T15:11:46.837Z</time></trkpt><trkpt lat="40.6233577" lon="9.6765045"><ele>45.0</ele><time>2026-03-27T15:11:47.83Z</time></trkpt><trkpt lat="40.6234095" lon="9.6765723"><ele>45.0</ele><time>2026-03-27T15:11:48.831Z</time></trkpt><trkpt lat="40.6234657" lon="9.6766398"><ele>45.0</ele><time>2026-03-27T15:11:49.829Z</time></trkpt><trkpt lat="40.6235243" lon="9.6766975"><ele>45.0</ele><time>2026-03-27T15:11:50.83Z</time></trkpt><trkpt lat="40.6235792" lon="9.6767528"><ele>43.833333333333336</ele><time>2026-03-27T15:11:51.855Z</time></trkpt><trkpt lat="40.6236806" lon="9.6768328"><ele>42.666666666666664</ele><time>2026-03-27T15:11:53.825Z</time></trkpt><trkpt lat="40.6237588" lon="9.6769638"><ele>41.5</ele><time>2026-03-27T15:11:55.835Z</time></trkpt><trkpt lat="40.6238068" lon="9.6770234"><ele>40.33333333333333</ele><time>2026-03-27T15:11:56.846Z</time></trkpt><trkpt lat="40.6238721" lon="9.6770573"><ele>39.166666666666664</ele><time>2026-03-27T15:11:57.834Z</time></trkpt><trkpt lat="40.6239363" lon="9.6770838"><ele>38.0</ele><time>2026-03-27T15:11:58.838Z</time></trkpt><trkpt lat="40.6240035" lon="9.677116"><ele>37.714285714285715</ele><time>2026-03-27T15:11:59.835Z</time></trkpt><trkpt lat="40.6240659" lon="9.6771541"><ele>37.42857142857143</ele><time>2026-03-27T15:12:00.831Z</time></trkpt><trkpt lat="40.6241212" lon="9.6772039"><ele>37.142857142857146</ele><time>2026-03-27T15:12:01.836Z</time></trkpt><trkpt lat="40.6241749" lon="9.6772615"><ele>36.85714285714286</ele><time>2026-03-27T15:12:02.83Z</time></trkpt><trkpt lat="40.6242341" lon="9.6773119"><ele>36.57142857142857</ele><time>2026-03-27T15:12:03.857Z</time></trkpt><trkpt lat="40.6242953" lon="9.6773507"><ele>36.28571428571429</ele><time>2026-03-27T15:12:04.837Z</time></trkpt><trkpt lat="40.6243576" lon="9.6773751"><ele>36.0</ele><time>2026-03-27T15:12:05.831Z</time></trkpt><trkpt lat="40.6244223" lon="9.6773946"><ele>35.85714285714286</ele><time>2026-03-27T15:12:06.833Z</time></trkpt><trkpt lat="40.6244885" lon="9.6774088"><ele>35.714285714285715</ele><time>2026-03-27T15:12:07.832Z</time></trkpt><trkpt lat="40.6245562" lon="9.6774185"><ele>35.57142857142857</ele><time>2026-03-27T15:12:08.836Z</time></trkpt><trkpt lat="40.6246238" lon="9.6774279"><ele>35.42857142857143</ele><time>2026-03-27T15:12:09.839Z</time></trkpt><trkpt lat="40.6246923" lon="9.6774298"><ele>35.285714285714285</ele><time>2026-03-27T15:12:10.847Z</time></trkpt><trkpt lat="40.6247597" lon="9.67743"><ele>35.142857142857146</ele><time>2026-03-27T15:12:11.833Z</time></trkpt><trkpt lat="40.624833" lon="9.6774341"><ele>35.0</ele><time>2026-03-27T15:12:12.844Z</time></trkpt><trkpt lat="40.6249115" lon="9.6774393"><ele>35.0</ele><time>2026-03-27T15:12:13.834Z</time></trkpt><trkpt lat="40.6249852" lon="9.6774407"><ele>35.0</ele><time>2026-03-27T15:12:14.829Z</time></trkpt><trkpt lat="40.6250599" lon="9.6774415"><ele>35.0</ele><time>2026-03-27T15:12:15.834Z</time></trkpt><trkpt lat="40.6251309" lon="9.6774395"><ele>35.0</ele><time>2026-03-27T15:12:16.832Z</time></trkpt><trkpt lat="40.625203" lon="9.6774396"><ele>35.0</ele><time>2026-03-27T15:12:17.833Z</time></trkpt><trkpt lat="40.6252731" lon="9.677438"><ele>35.0</ele><time>2026-03-27T15:12:18.834Z</time></trkpt><trkpt lat="40.6253416" lon="9.677441"><ele>35.0</ele><time>2026-03-27T15:12:19.848Z</time></trkpt><trkpt lat="40.625407" lon="9.6774433"><ele>34.0</ele><time>2026-03-27T15:12:20.832Z</time></trkpt><trkpt lat="40.6254734" lon="9.6774457"><ele>33.0</ele><time>2026-03-27T15:12:21.833Z</time></trkpt><trkpt lat="40.6255373" lon="9.6774426"><ele>32.0</ele><time>2026-03-27T15:12:22.827Z</time></trkpt><trkpt lat="40.6256001" lon="9.6774289"><ele>31.0</ele><time>2026-03-27T15:12:23.829Z</time></trkpt><trkpt lat="40.6256684" lon="9.6774149"><ele>30.0</ele><time>2026-03-27T15:12:24.84Z</time></trkpt><trkpt lat="40.6257391" lon="9.677398"><ele>29.0</ele><time>2026-03-27T15:12:25.827Z</time></trkpt><trkpt lat="40.6258117" lon="9.6773819"><ele>28.0</ele><time>2026-03-27T15:12:26.828Z</time></trkpt><trkpt lat="40.6258836" lon="9.6773622"><ele>28.000000000000004</ele><time>2026-03-27T15:12:27.83Z</time></trkpt><trkpt lat="40.6259553" lon="9.6773405"><ele>28.0</ele><time>2026-03-27T15:12:28.825Z</time></trkpt><trkpt lat="40.6260259" lon="9.6773224"><ele>28.0</ele><time>2026-03-27T15:12:29.827Z</time></trkpt><trkpt lat="40.6260921" lon="9.6773053"><ele>28.0</ele><time>2026-03-27T15:12:30.831Z</time></trkpt><trkpt lat="40.6261581" lon="9.6772923"><ele>28.000000000000004</ele><time>2026-03-27T15:12:31.827Z</time></trkpt><trkpt lat="40.6262872" lon="9.6772874"><ele>28.0</ele><time>2026-03-27T15:12:33.835Z</time></trkpt><trkpt lat="40.6263556" lon="9.6772903"><ele>27.333333333333336</ele><time>2026-03-27T15:12:34.828Z</time></trkpt><trkpt lat="40.6264312" lon="9.6772971"><ele>26.666666666666668</ele><time>2026-03-27T15:12:35.84Z</time></trkpt><trkpt lat="40.6265061" lon="9.6772929"><ele>26.0</ele><time>2026-03-27T15:12:36.83Z</time></trkpt><trkpt lat="40.6265801" lon="9.6772842"><ele>25.333333333333336</ele><time>2026-03-27T15:12:37.829Z</time></trkpt><trkpt lat="40.6266528" lon="9.6772772"><ele>24.666666666666668</ele><time>2026-03-27T15:12:38.835Z</time></trkpt><trkpt lat="40.6267281" lon="9.6772773"><ele>24.0</ele><time>2026-03-27T15:12:39.831Z</time></trkpt><trkpt lat="40.6268045" lon="9.6772777"><ele>24.0</ele><time>2026-03-27T15:12:40.848Z</time></trkpt><trkpt lat="40.6268766" lon="9.6772793"><ele>24.0</ele><time>2026-03-27T15:12:41.832Z</time></trkpt><trkpt lat="40.6269446" lon="9.6772814"><ele>24.0</ele><time>2026-03-27T15:12:42.834Z</time></trkpt><trkpt lat="40.6270122" lon="9.6772887"><ele>24.0</ele><time>2026-03-27T15:12:43.829Z</time></trkpt><trkpt lat="40.6271355" lon="9.6773011"><ele>24.0</ele><time>2026-03-27T15:12:45.826Z</time></trkpt><trkpt lat="40.6271986" lon="9.6773005"><ele>24.0</ele><time>2026-03-27T15:12:46.834Z</time></trkpt><trkpt lat="40.6273043" lon="9.6773001"><ele>23.333333333333332</ele><time>2026-03-27T15:12:48.834Z</time></trkpt><trkpt lat="40.6273902" lon="9.6773185"><ele>22.666666666666668</ele><time>2026-03-27T15:12:50.846Z</time></trkpt><trkpt lat="40.6274332" lon="9.6773925"><ele>22.0</ele><time>2026-03-27T15:12:52.84Z</time></trkpt><trkpt lat="40.6274071" lon="9.6774829"><ele>21.333333333333336</ele><time>2026-03-27T15:12:54.833Z</time></trkpt><trkpt lat="40.6273626" lon="9.6775737"><ele>20.666666666666668</ele><time>2026-03-27T15:12:56.831Z</time></trkpt><trkpt lat="40.6273366" lon="9.6776669"><ele>20.0</ele><time>2026-03-27T15:12:58.849Z</time></trkpt><trkpt lat="40.6273327" lon="9.677767"><ele>19.8</ele><time>2026-03-27T15:13:00.829Z</time></trkpt><trkpt lat="40.6273605" lon="9.677862"><ele>19.6</ele><time>2026-03-27T15:13:03.837Z</time></trkpt><trkpt lat="40.6274613" lon="9.6778898"><ele>19.4</ele><time>2026-03-27T15:13:06.831Z</time></trkpt><trkpt lat="40.6275605" lon="9.6778672"><ele>19.2</ele><time>2026-03-27T15:13:08.834Z</time></trkpt><trkpt lat="40.627663" lon="9.6778558"><ele>19.0</ele><time>2026-03-27T15:13:10.829Z</time></trkpt><trkpt lat="40.6277545" lon="9.677853"><ele>18.2</ele><time>2026-03-27T15:13:12.83Z</time></trkpt><trkpt lat="40.6278453" lon="9.6778637"><ele>17.4</ele><time>2026-03-27T15:13:14.841Z</time></trkpt><trkpt lat="40.6279404" lon="9.6778949"><ele>16.6</ele><time>2026-03-27T15:13:16.832Z</time></trkpt><trkpt lat="40.6280448" lon="9.6779053"><ele>15.8</ele><time>2026-03-27T15:13:18.83Z</time></trkpt><trkpt lat="40.628126" lon="9.6778954"><ele>15.0</ele><time>2026-03-27T15:13:20.832Z</time></trkpt><trkpt lat="40.6282022" lon="9.6778991"><ele>15.0</ele><time>2026-03-27T15:13:22.834Z</time></trkpt><trkpt lat="40.6282652" lon="9.6779349"><ele>15.0</ele><time>2026-03-27T15:13:24.829Z</time></trkpt><trkpt lat="40.6282886" lon="9.6780529"><ele>15.0</ele><time>2026-03-27T15:13:27.826Z</time></trkpt><trkpt lat="40.6282704" lon="9.6781589"><ele>15.0</ele><time>2026-03-27T15:13:29.828Z</time></trkpt><trkpt lat="40.6282562" lon="9.6782459"><ele>15.0</ele><time>2026-03-27T15:13:31.828Z</time></trkpt><trkpt lat="40.6283207" lon="9.6783101"><ele>15.0</ele><time>2026-03-27T15:13:34.834Z</time></trkpt><trkpt lat="40.6283877" lon="9.6783181"><ele>15.0</ele><time>2026-03-27T15:13:37.828Z</time></trkpt><trkpt lat="40.6284623" lon="9.6783172"><ele>15.0</ele><time>2026-03-27T15:13:48.829Z</time></trkpt><trkpt lat="40.6285243" lon="9.6783988"><ele>15.0</ele><time>2026-03-27T15:13:54.837Z</time></trkpt><trkpt lat="40.6285062" lon="9.6785201"><ele>15.0</ele><time>2026-03-27T15:13:57.83Z</time></trkpt><trkpt lat="40.6285156" lon="9.678609"><ele>15.0</ele><time>2026-03-27T15:13:59.83Z</time></trkpt><trkpt lat="40.6285632" lon="9.6786728"><ele>15.0</ele><time>2026-03-27T15:14:01.837Z</time></trkpt><trkpt lat="40.62867" lon="9.6787008"><ele>14.166666666666666</ele><time>2026-03-27T15:14:03.833Z</time></trkpt><trkpt lat="40.6287852" lon="9.6787334"><ele>13.333333333333334</ele><time>2026-03-27T15:14:05.846Z</time></trkpt><trkpt lat="40.6288481" lon="9.6787439"><ele>12.5</ele><time>2026-03-27T15:14:06.833Z</time></trkpt><trkpt lat="40.6289113" lon="9.6787432"><ele>11.666666666666668</ele><time>2026-03-27T15:14:07.827Z</time></trkpt><trkpt lat="40.6289747" lon="9.6787265"><ele>10.833333333333334</ele><time>2026-03-27T15:14:08.834Z</time></trkpt><trkpt lat="40.6290741" lon="9.6786827"><ele>10.0</ele><time>2026-03-27T15:14:10.828Z</time></trkpt><trkpt lat="40.6291382" lon="9.6786588"><ele>10.0</ele><time>2026-03-27T15:14:12.834Z</time></trkpt><trkpt lat="40.629228" lon="9.6787587"><ele>10.0</ele><time>2026-03-27T15:14:15.831Z</time></trkpt><trkpt lat="40.629265" lon="9.6788274"><ele>10.0</ele><time>2026-03-27T15:14:16.829Z</time></trkpt><trkpt lat="40.6293044" lon="9.678902"><ele>10.0</ele><time>2026-03-27T15:14:17.831Z</time></trkpt><trkpt lat="40.6293429" lon="9.6789768"><ele>10.0</ele><time>2026-03-27T15:14:18.83Z</time></trkpt><trkpt lat="40.6293836" lon="9.6790538"><ele>10.0</ele><time>2026-03-27T15:14:19.831Z</time></trkpt><trkpt lat="40.6294192" lon="9.6791436"><ele>10.0</ele><time>2026-03-27T15:14:20.832Z</time></trkpt><trkpt lat="40.6294526" lon="9.6792479"><ele>10.0</ele><time>2026-03-27T15:14:21.832Z</time></trkpt><trkpt lat="40.6294833" lon="9.6793593"><ele>10.0</ele><time>2026-03-27T15:14:22.829Z</time></trkpt><trkpt lat="40.6295132" lon="9.6794732"><ele>10.0</ele><time>2026-03-27T15:14:23.849Z</time></trkpt><trkpt lat="40.6295435" lon="9.67959"><ele>10.0</ele><time>2026-03-27T15:14:24.829Z</time></trkpt><trkpt lat="40.6295737" lon="9.6797054"><ele>9.8</ele><time>2026-03-27T15:14:25.839Z</time></trkpt><trkpt lat="40.6296024" lon="9.6798234"><ele>9.6</ele><time>2026-03-27T15:14:26.837Z</time></trkpt><trkpt lat="40.6296263" lon="9.6799426"><ele>9.4</ele><time>2026-03-27T15:14:27.832Z</time></trkpt><trkpt lat="40.6296444" lon="9.6800671"><ele>9.2</ele><time>2026-03-27T15:14:28.846Z</time></trkpt><trkpt lat="40.6296584" lon="9.6801941"><ele>9.0</ele><time>2026-03-27T15:14:29.829Z</time></trkpt><trkpt lat="40.6296672" lon="9.680322"><ele>9.0</ele><time>2026-03-27T15:14:30.829Z</time></trkpt><trkpt lat="40.6296716" lon="9.6804467"><ele>9.0</ele><time>2026-03-27T15:14:31.84Z</time></trkpt><trkpt lat="40.6296753" lon="9.6805692"><ele>9.0</ele><time>2026-03-27T15:14:32.831Z</time></trkpt><trkpt lat="40.6296787" lon="9.6806911"><ele>9.0</ele><time>2026-03-27T15:14:33.838Z</time></trkpt><trkpt lat="40.6296799" lon="9.6808078"><ele>9.0</ele><time>2026-03-27T15:14:34.828Z</time></trkpt><trkpt lat="40.6296795" lon="9.6809274"><ele>9.0</ele><time>2026-03-27T15:14:35.83Z</time></trkpt><trkpt lat="40.6296802" lon="9.6810457"><ele>9.0</ele><time>2026-03-27T15:14:36.833Z</time></trkpt><trkpt lat="40.6296836" lon="9.6811669"><ele>9.0</ele><time>2026-03-27T15:14:37.834Z</time></trkpt><trkpt lat="40.6296871" lon="9.6812902"><ele>9.0</ele><time>2026-03-27T15:14:38.833Z</time></trkpt><trkpt lat="40.6296902" lon="9.681414"><ele>9.0</ele><time>2026-03-27T15:14:39.835Z</time></trkpt><trkpt lat="40.6296945" lon="9.6815377"><ele>9.0</ele><time>2026-03-27T15:14:40.835Z</time></trkpt><trkpt lat="40.6296991" lon="9.6816647"><ele>9.0</ele><time>2026-03-27T15:14:41.834Z</time></trkpt><trkpt lat="40.629703" lon="9.6817977"><ele>9.0</ele><time>2026-03-27T15:14:42.849Z</time></trkpt><trkpt lat="40.6297075" lon="9.6819388"><ele>9.0</ele><time>2026-03-27T15:14:43.833Z</time></trkpt><trkpt lat="40.6297097" lon="9.6820871"><ele>9.0</ele><time>2026-03-27T15:14:44.828Z</time></trkpt><trkpt lat="40.6297126" lon="9.6822429"><ele>9.0</ele><time>2026-03-27T15:14:45.837Z</time></trkpt><trkpt lat="40.6297159" lon="9.6824049"><ele>9.0</ele><time>2026-03-27T15:14:46.833Z</time></trkpt><trkpt lat="40.6297191" lon="9.6825689"><ele>9.0</ele><time>2026-03-27T15:14:47.826Z</time></trkpt><trkpt lat="40.6297218" lon="9.6827337"><ele>9.0</ele><time>2026-03-27T15:14:48.852Z</time></trkpt><trkpt lat="40.6297263" lon="9.6829009"><ele>8.5</ele><time>2026-03-27T15:14:49.83Z</time></trkpt><trkpt lat="40.629729" lon="9.6830689"><ele>8.0</ele><time>2026-03-27T15:14:50.842Z</time></trkpt><trkpt lat="40.6297312" lon="9.6832379"><ele>7.5</ele><time>2026-03-27T15:14:51.829Z</time></trkpt><trkpt lat="40.6297323" lon="9.6834083"><ele>7.0</ele><time>2026-03-27T15:14:52.831Z</time></trkpt><trkpt lat="40.6297334" lon="9.68358"><ele>7.0</ele><time>2026-03-27T15:14:53.833Z</time></trkpt><trkpt lat="40.6297356" lon="9.6837536"><ele>7.0</ele><time>2026-03-27T15:14:54.834Z</time></trkpt><trkpt lat="40.6297381" lon="9.6839275"><ele>7.0</ele><time>2026-03-27T15:14:55.833Z</time></trkpt><trkpt lat="40.6297405" lon="9.6841025"><ele>7.0</ele><time>2026-03-27T15:14:56.83Z</time></trkpt><trkpt lat="40.6297433" lon="9.684278"><ele>6.75</ele><time>2026-03-27T15:14:57.833Z</time></trkpt><trkpt lat="40.6297463" lon="9.6844535"><ele>6.5</ele><time>2026-03-27T15:14:58.83Z</time></trkpt><trkpt lat="40.6297509" lon="9.684629"><ele>6.25</ele><time>2026-03-27T15:14:59.826Z</time></trkpt><trkpt lat="40.6297545" lon="9.6848072"><ele>6.0</ele><time>2026-03-27T15:15:00.828Z</time></trkpt><trkpt lat="40.6297578" lon="9.6849879"><ele>6.0</ele><time>2026-03-27T15:15:01.834Z</time></trkpt><trkpt lat="40.6297621" lon="9.6851698"><ele>6.0</ele><time>2026-03-27T15:15:02.829Z</time></trkpt><trkpt lat="40.6297678" lon="9.6853529"><ele>6.0</ele><time>2026-03-27T15:15:03.841Z</time></trkpt><trkpt lat="40.629774" lon="9.6855369"><ele>6.0</ele><time>2026-03-27T15:15:04.833Z</time></trkpt><trkpt lat="40.6297779" lon="9.6857213"><ele>6.0</ele><time>2026-03-27T15:15:05.832Z</time></trkpt><trkpt lat="40.6297788" lon="9.6859057"><ele>6.0</ele><time>2026-03-27T15:15:06.831Z</time></trkpt><trkpt lat="40.6297801" lon="9.6860907"><ele>6.0</ele><time>2026-03-27T15:15:07.828Z</time></trkpt><trkpt lat="40.6297834" lon="9.686276"><ele>6.0</ele><time>2026-03-27T15:15:08.835Z</time></trkpt><trkpt lat="40.6297872" lon="9.6864617"><ele>6.0</ele><time>2026-03-27T15:15:09.834Z</time></trkpt><trkpt lat="40.629792" lon="9.6866465"><ele>6.0</ele><time>2026-03-27T15:15:10.849Z</time></trkpt><trkpt lat="40.6297987" lon="9.6868293"><ele>6.0</ele><time>2026-03-27T15:15:11.833Z</time></trkpt><trkpt lat="40.6298092" lon="9.6870105"><ele>6.0</ele><time>2026-03-27T15:15:12.838Z</time></trkpt><trkpt lat="40.6298269" lon="9.6871896"><ele>6.0</ele><time>2026-03-27T15:15:13.831Z</time></trkpt><trkpt lat="40.6298523" lon="9.6873684"><ele>6.0</ele><time>2026-03-27T15:15:14.838Z</time></trkpt><trkpt lat="40.6298844" lon="9.6875492"><ele>6.0</ele><time>2026-03-27T15:15:15.835Z</time></trkpt><trkpt lat="40.6299218" lon="9.6877346"><ele>6.0</ele><time>2026-03-27T15:15:16.829Z</time></trkpt><trkpt lat="40.6299631" lon="9.6879246"><ele>6.0</ele><time>2026-03-27T15:15:17.854Z</time></trkpt><trkpt lat="40.6300069" lon="9.6881187"><ele>6.0</ele><time>2026-03-27T15:15:18.835Z</time></trkpt><trkpt lat="40.6300516" lon="9.6883165"><ele>6.0</ele><time>2026-03-27T15:15:19.831Z</time></trkpt><trkpt lat="40.6300969" lon="9.6885169"><ele>6.0</ele><time>2026-03-27T15:15:20.831Z</time></trkpt><trkpt lat="40.6301427" lon="9.6887194"><ele>6.0</ele><time>2026-03-27T15:15:21.828Z</time></trkpt><trkpt lat="40.6301892" lon="9.6889232"><ele>6.0</ele><time>2026-03-27T15:15:22.837Z</time></trkpt><trkpt lat="40.6302355" lon="9.689129"><ele>6.0</ele><time>2026-03-27T15:15:23.829Z</time></trkpt><trkpt lat="40.6302815" lon="9.6893356"><ele>6.0</ele><time>2026-03-27T15:15:24.839Z</time></trkpt><trkpt lat="40.6303274" lon="9.6895445"><ele>6.0</ele><time>2026-03-27T15:15:25.836Z</time></trkpt><trkpt lat="40.6303748" lon="9.6897551"><ele>5.333333333333333</ele><time>2026-03-27T15:15:26.828Z</time></trkpt><trkpt lat="40.6304229" lon="9.6899673"><ele>4.666666666666666</ele><time>2026-03-27T15:15:27.843Z</time></trkpt><trkpt lat="40.6304715" lon="9.6901818"><ele>4.0</ele><time>2026-03-27T15:15:28.831Z</time></trkpt><trkpt lat="40.6305205" lon="9.6903979"><ele>3.6666666666666665</ele><time>2026-03-27T15:15:29.83Z</time></trkpt><trkpt lat="40.6305702" lon="9.6906145"><ele>3.333333333333333</ele><time>2026-03-27T15:15:30.832Z</time></trkpt><trkpt lat="40.6306209" lon="9.6908316"><ele>3.0</ele><time>2026-03-27T15:15:31.833Z</time></trkpt><trkpt lat="40.6306718" lon="9.6910472"><ele>3.0</ele><time>2026-03-27T15:15:32.844Z</time></trkpt><trkpt lat="40.6307214" lon="9.6912555"><ele>3.0</ele><time>2026-03-27T15:15:33.833Z</time></trkpt><trkpt lat="40.6307688" lon="9.6914592"><ele>3.0</ele><time>2026-03-27T15:15:34.832Z</time></trkpt><trkpt lat="40.6308141" lon="9.6916588"><ele>3.0</ele><time>2026-03-27T15:15:35.83Z</time></trkpt><trkpt lat="40.6308578" lon="9.6918548"><ele>3.0</ele><time>2026-03-27T15:15:36.832Z</time></trkpt><trkpt lat="40.6308999" lon="9.6920498"><ele>3.0</ele><time>2026-03-27T15:15:37.85Z</time></trkpt><trkpt lat="40.6309399" lon="9.6922455"><ele>3.333333333333333</ele><time>2026-03-27T15:15:38.833Z</time></trkpt><trkpt lat="40.6309764" lon="9.6924414"><ele>3.6666666666666665</ele><time>2026-03-27T15:15:39.828Z</time></trkpt><trkpt lat="40.631008" lon="9.6926391"><ele>4.0</ele><time>2026-03-27T15:15:40.825Z</time></trkpt><trkpt lat="40.6310295" lon="9.6928412"><ele>5.0</ele><time>2026-03-27T15:15:41.83Z</time></trkpt><trkpt lat="40.6310378" lon="9.6930474"><ele>6.0</ele><time>2026-03-27T15:15:42.831Z</time></trkpt><trkpt lat="40.6310341" lon="9.6932559"><ele>7.0</ele><time>2026-03-27T15:15:43.833Z</time></trkpt><trkpt lat="40.6310236" lon="9.6934654"><ele>6.666666666666667</ele><time>2026-03-27T15:15:44.834Z</time></trkpt><trkpt lat="40.6310082" lon="9.6936761"><ele>6.333333333333334</ele><time>2026-03-27T15:15:45.834Z</time></trkpt><trkpt lat="40.6309909" lon="9.6938887"><ele>6.0</ele><time>2026-03-27T15:15:46.83Z</time></trkpt><trkpt lat="40.6309738" lon="9.694103"><ele>6.0</ele><time>2026-03-27T15:15:47.833Z</time></trkpt><trkpt lat="40.6309567" lon="9.6943182"><ele>6.0</ele><time>2026-03-27T15:15:48.833Z</time></trkpt><trkpt lat="40.6309401" lon="9.694534"><ele>6.0</ele><time>2026-03-27T15:15:49.837Z</time></trkpt><trkpt lat="40.6309238" lon="9.6947504"><ele>6.0</ele><time>2026-03-27T15:15:50.834Z</time></trkpt><trkpt lat="40.630908" lon="9.6949675"><ele>6.0</ele><time>2026-03-27T15:15:51.829Z</time></trkpt><trkpt lat="40.6308928" lon="9.6951854"><ele>6.0</ele><time>2026-03-27T15:15:52.843Z</time></trkpt><trkpt lat="40.6308765" lon="9.6954034"><ele>6.0</ele><time>2026-03-27T15:15:53.825Z</time></trkpt><trkpt lat="40.6308556" lon="9.6956205"><ele>6.0</ele><time>2026-03-27T15:15:54.832Z</time></trkpt><trkpt lat="40.6308259" lon="9.6958357"><ele>6.0</ele><time>2026-03-27T15:15:55.836Z</time></trkpt><trkpt lat="40.6307861" lon="9.6960475"><ele>6.333333333333334</ele><time>2026-03-27T15:15:56.832Z</time></trkpt><trkpt lat="40.630737" lon="9.6962555"><ele>6.666666666666667</ele><time>2026-03-27T15:15:57.826Z</time></trkpt><trkpt lat="40.6306834" lon="9.6964613"><ele>7.0</ele><time>2026-03-27T15:15:58.832Z</time></trkpt><trkpt lat="40.6306286" lon="9.6966664"><ele>7.0</ele><time>2026-03-27T15:15:59.835Z</time></trkpt><trkpt lat="40.6305741" lon="9.6968717"><ele>7.0</ele><time>2026-03-27T15:16:00.837Z</time></trkpt><trkpt lat="40.63052" lon="9.6970776"><ele>7.0</ele><time>2026-03-27T15:16:01.836Z</time></trkpt><trkpt lat="40.6304647" lon="9.6972843"><ele>7.333333333333334</ele><time>2026-03-27T15:16:02.831Z</time></trkpt><trkpt lat="40.6304084" lon="9.6974917"><ele>7.666666666666666</ele><time>2026-03-27T15:16:03.829Z</time></trkpt><trkpt lat="40.6303511" lon="9.6976997"><ele>8.0</ele><time>2026-03-27T15:16:04.832Z</time></trkpt><trkpt lat="40.6302931" lon="9.6979081"><ele>9.333333333333332</ele><time>2026-03-27T15:16:05.839Z</time></trkpt><trkpt lat="40.6302355" lon="9.6981168"><ele>10.666666666666666</ele><time>2026-03-27T15:16:06.833Z</time></trkpt><trkpt lat="40.6301776" lon="9.6983269"><ele>12.0</ele><time>2026-03-27T15:16:07.844Z</time></trkpt><trkpt lat="40.6301196" lon="9.6985398"><ele>12.0</ele><time>2026-03-27T15:16:08.833Z</time></trkpt><trkpt lat="40.6300612" lon="9.6987565"><ele>12.0</ele><time>2026-03-27T15:16:09.829Z</time></trkpt><trkpt lat="40.6300028" lon="9.6989748"><ele>12.0</ele><time>2026-03-27T15:16:10.831Z</time></trkpt><trkpt lat="40.629947" lon="9.6991869"><ele>12.0</ele><time>2026-03-27T15:16:11.836Z</time></trkpt><trkpt lat="40.6298945" lon="9.6993937"><ele>12.0</ele><time>2026-03-27T15:16:12.833Z</time></trkpt><trkpt lat="40.6298449" lon="9.6995997"><ele>12.0</ele><time>2026-03-27T15:16:13.832Z</time></trkpt><trkpt lat="40.6297965" lon="9.6998059"><ele>11.666666666666666</ele><time>2026-03-27T15:16:14.849Z</time></trkpt><trkpt lat="40.6297474" lon="9.7000132"><ele>11.333333333333332</ele><time>2026-03-27T15:16:15.835Z</time></trkpt><trkpt lat="40.6296977" lon="9.7002217"><ele>11.0</ele><time>2026-03-27T15:16:16.834Z</time></trkpt><trkpt lat="40.6296485" lon="9.7004319"><ele>10.333333333333332</ele><time>2026-03-27T15:16:17.829Z</time></trkpt><trkpt lat="40.6296003" lon="9.700644"><ele>9.666666666666666</ele><time>2026-03-27T15:16:18.832Z</time></trkpt><trkpt lat="40.6295524" lon="9.700858"><ele>9.0</ele><time>2026-03-27T15:16:19.83Z</time></trkpt><trkpt lat="40.629505" lon="9.7010735"><ele>9.333333333333334</ele><time>2026-03-27T15:16:20.827Z</time></trkpt><trkpt lat="40.6294591" lon="9.7012916"><ele>9.666666666666668</ele><time>2026-03-27T15:16:21.833Z</time></trkpt><trkpt lat="40.6294153" lon="9.7015124"><ele>10.0</ele><time>2026-03-27T15:16:22.832Z</time></trkpt><trkpt lat="40.6293728" lon="9.7017358"><ele>10.666666666666668</ele><time>2026-03-27T15:16:23.831Z</time></trkpt><trkpt lat="40.62933" lon="9.7019604"><ele>11.333333333333334</ele><time>2026-03-27T15:16:24.83Z</time></trkpt><trkpt lat="40.629288" lon="9.7021856"><ele>12.0</ele><time>2026-03-27T15:16:25.839Z</time></trkpt><trkpt lat="40.6292469" lon="9.7024115"><ele>12.0</ele><time>2026-03-27T15:16:26.832Z</time></trkpt><trkpt lat="40.629215" lon="9.7026234"><ele>12.0</ele><time>2026-03-27T15:16:27.858Z</time></trkpt><trkpt lat="40.6291782" lon="9.7028363"><ele>12.0</ele><time>2026-03-27T15:16:28.825Z</time></trkpt><trkpt lat="40.6291532" lon="9.7030544"><ele>12.666666666666668</ele><time>2026-03-27T15:16:29.829Z</time></trkpt><trkpt lat="40.6291271" lon="9.7032821"><ele>13.333333333333334</ele><time>2026-03-27T15:16:30.831Z</time></trkpt><trkpt lat="40.6290982" lon="9.7035134"><ele>14.0</ele><time>2026-03-27T15:16:31.829Z</time></trkpt><trkpt lat="40.6290669" lon="9.7037454"><ele>14.0</ele><time>2026-03-27T15:16:32.849Z</time></trkpt><trkpt lat="40.6290467" lon="9.7039707"><ele>14.0</ele><time>2026-03-27T15:16:33.833Z</time></trkpt><trkpt lat="40.6290321" lon="9.7041976"><ele>14.0</ele><time>2026-03-27T15:16:34.833Z</time></trkpt><trkpt lat="40.6290186" lon="9.7044299"><ele>14.0</ele><time>2026-03-27T15:16:35.829Z</time></trkpt><trkpt lat="40.6290063" lon="9.7046554"><ele>14.0</ele><time>2026-03-27T15:16:36.828Z</time></trkpt><trkpt lat="40.6289971" lon="9.7048792"><ele>14.0</ele><time>2026-03-27T15:16:37.833Z</time></trkpt><trkpt lat="40.6289856" lon="9.7051011"><ele>13.666666666666668</ele><time>2026-03-27T15:16:38.833Z</time></trkpt><trkpt lat="40.628975" lon="9.7053267"><ele>13.333333333333332</ele><time>2026-03-27T15:16:39.83Z</time></trkpt><trkpt lat="40.6289647" lon="9.7055504"><ele>13.0</ele><time>2026-03-27T15:16:40.843Z</time></trkpt><trkpt lat="40.6289549" lon="9.7057736"><ele>13.0</ele><time>2026-03-27T15:16:41.838Z</time></trkpt><trkpt lat="40.6289452" lon="9.7059975"><ele>13.0</ele><time>2026-03-27T15:16:42.833Z</time></trkpt><trkpt lat="40.6289335" lon="9.7062165"><ele>13.0</ele><time>2026-03-27T15:16:43.83Z</time></trkpt><trkpt lat="40.628924" lon="9.7064396"><ele>13.333333333333332</ele><time>2026-03-27T15:16:44.834Z</time></trkpt><trkpt lat="40.6289173" lon="9.7066639"><ele>13.666666666666668</ele><time>2026-03-27T15:16:45.836Z</time></trkpt><trkpt lat="40.6289255" lon="9.7068852"><ele>14.0</ele><time>2026-03-27T15:16:46.835Z</time></trkpt><trkpt lat="40.6289568" lon="9.7071018"><ele>14.333333333333334</ele><time>2026-03-27T15:16:47.833Z</time></trkpt><trkpt lat="40.6290123" lon="9.7073128"><ele>14.666666666666668</ele><time>2026-03-27T15:16:48.842Z</time></trkpt><trkpt lat="40.62909" lon="9.7075108"><ele>15.0</ele><time>2026-03-27T15:16:49.834Z</time></trkpt><trkpt lat="40.6291886" lon="9.7076955"><ele>14.666666666666668</ele><time>2026-03-27T15:16:50.848Z</time></trkpt><trkpt lat="40.6292909" lon="9.7078726"><ele>14.333333333333334</ele><time>2026-03-27T15:16:51.831Z</time></trkpt><trkpt lat="40.6294078" lon="9.7080558"><ele>14.0</ele><time>2026-03-27T15:16:52.829Z</time></trkpt><trkpt lat="40.6295153" lon="9.7082587"><ele>14.0</ele><time>2026-03-27T15:16:53.836Z</time></trkpt><trkpt lat="40.6296194" lon="9.7084672"><ele>14.0</ele><time>2026-03-27T15:16:54.83Z</time></trkpt><trkpt lat="40.6297205" lon="9.7086799"><ele>14.0</ele><time>2026-03-27T15:16:55.842Z</time></trkpt><trkpt lat="40.6298168" lon="9.7088964"><ele>14.666666666666668</ele><time>2026-03-27T15:16:56.834Z</time></trkpt><trkpt lat="40.6299097" lon="9.7091123"><ele>15.333333333333332</ele><time>2026-03-27T15:16:57.836Z</time></trkpt><trkpt lat="40.6299837" lon="9.7093426"><ele>16.0</ele><time>2026-03-27T15:16:58.826Z</time></trkpt><trkpt lat="40.6300354" lon="9.7095739"><ele>16.0</ele><time>2026-03-27T15:16:59.832Z</time></trkpt><trkpt lat="40.6300681" lon="9.7098057"><ele>16.0</ele><time>2026-03-27T15:17:00.829Z</time></trkpt><trkpt lat="40.6300836" lon="9.710041"><ele>16.0</ele><time>2026-03-27T15:17:01.83Z</time></trkpt><trkpt lat="40.6300903" lon="9.7102763"><ele>16.0</ele><time>2026-03-27T15:17:02.832Z</time></trkpt><trkpt lat="40.630097" lon="9.7105084"><ele>16.0</ele><time>2026-03-27T15:17:03.836Z</time></trkpt><trkpt lat="40.6301059" lon="9.7107273"><ele>16.0</ele><time>2026-03-27T15:17:04.834Z</time></trkpt><trkpt lat="40.6301139" lon="9.7109315"><ele>15.75</ele><time>2026-03-27T15:17:05.859Z</time></trkpt><trkpt lat="40.6301229" lon="9.711121"><ele>15.5</ele><time>2026-03-27T15:17:06.83Z</time></trkpt><trkpt lat="40.6301309" lon="9.7112929"><ele>15.25</ele><time>2026-03-27T15:17:07.839Z</time></trkpt><trkpt lat="40.6301365" lon="9.7114512"><ele>15.0</ele><time>2026-03-27T15:17:08.834Z</time></trkpt><trkpt lat="40.6301404" lon="9.7115809"><ele>15.0</ele><time>2026-03-27T15:17:09.83Z</time></trkpt><trkpt lat="40.630144" lon="9.711682"><ele>15.0</ele><time>2026-03-27T15:17:10.828Z</time></trkpt><trkpt lat="40.630148" lon="9.7117648"><ele>15.0</ele><time>2026-03-27T15:17:11.835Z</time></trkpt><trkpt lat="40.6301566" lon="9.7119113"><ele>15.0</ele><time>2026-03-27T15:17:13.841Z</time></trkpt><trkpt lat="40.6301621" lon="9.7120593"><ele>15.0</ele><time>2026-03-27T15:17:15.831Z</time></trkpt><trkpt lat="40.6301669" lon="9.7122087"><ele>15.0</ele><time>2026-03-27T15:17:17.838Z</time></trkpt><trkpt lat="40.6301725" lon="9.7123453"><ele>15.0</ele><time>2026-03-27T15:17:19.829Z</time></trkpt><trkpt lat="40.6301769" lon="9.712471"><ele>15.0</ele><time>2026-03-27T15:17:21.835Z</time></trkpt><trkpt lat="40.6301813" lon="9.7125977"><ele>15.0</ele><time>2026-03-27T15:17:23.834Z</time></trkpt><trkpt lat="40.6301914" lon="9.7127368"><ele>15.0</ele><time>2026-03-27T15:17:25.832Z</time></trkpt><trkpt lat="40.6302039" lon="9.7128971"><ele>15.0</ele><time>2026-03-27T15:17:27.848Z</time></trkpt><trkpt lat="40.6302071" lon="9.712984"><ele>15.0</ele><time>2026-03-27T15:17:28.831Z</time></trkpt><trkpt lat="40.6302109" lon="9.7130756"><ele>15.0</ele><time>2026-03-27T15:17:29.832Z</time></trkpt><trkpt lat="40.6302146" lon="9.7131695"><ele>15.0</ele><time>2026-03-27T15:17:30.838Z</time></trkpt><trkpt lat="40.6302189" lon="9.7132608"><ele>15.0</ele><time>2026-03-27T15:17:31.837Z</time></trkpt><trkpt lat="40.6302241" lon="9.713351"><ele>15.0</ele><time>2026-03-27T15:17:32.863Z</time></trkpt><trkpt lat="40.6302283" lon="9.7134415"><ele>15.0</ele><time>2026-03-27T15:17:33.834Z</time></trkpt><trkpt lat="40.6302318" lon="9.7135309"><ele>14.714285714285715</ele><time>2026-03-27T15:17:34.833Z</time></trkpt><trkpt lat="40.630235" lon="9.7136203"><ele>14.428571428571427</ele><time>2026-03-27T15:17:35.833Z</time></trkpt><trkpt lat="40.630238" lon="9.7137098"><ele>14.142857142857142</ele><time>2026-03-27T15:17:36.837Z</time></trkpt><trkpt lat="40.630241" lon="9.7138009"><ele>13.857142857142858</ele><time>2026-03-27T15:17:37.838Z</time></trkpt><trkpt lat="40.6302444" lon="9.7139002"><ele>13.571428571428573</ele><time>2026-03-27T15:17:38.837Z</time></trkpt><trkpt lat="40.63025" lon="9.7140075"><ele>13.285714285714285</ele><time>2026-03-27T15:17:39.83Z</time></trkpt><trkpt lat="40.6302551" lon="9.7141191"><ele>13.0</ele><time>2026-03-27T15:17:40.845Z</time></trkpt><trkpt lat="40.6302605" lon="9.7142348"><ele>12.999999999999998</ele><time>2026-03-27T15:17:41.836Z</time></trkpt><trkpt lat="40.6302666" lon="9.7143532"><ele>13.0</ele><time>2026-03-27T15:17:42.837Z</time></trkpt><trkpt lat="40.6302734" lon="9.7144735"><ele>13.0</ele><time>2026-03-27T15:17:43.837Z</time></trkpt><trkpt lat="40.6302787" lon="9.7145837"><ele>13.0</ele><time>2026-03-27T15:17:44.834Z</time></trkpt><trkpt lat="40.6302834" lon="9.7146798"><ele>12.999999999999998</ele><time>2026-03-27T15:17:45.85Z</time></trkpt><trkpt lat="40.6302713" lon="9.7148156"><ele>13.0</ele><time>2026-03-27T15:17:47.835Z</time></trkpt><trkpt lat="40.6302017" lon="9.7148787"><ele>12.600000000000001</ele><time>2026-03-27T15:17:49.835Z</time></trkpt><trkpt lat="40.6301328" lon="9.7148799"><ele>12.200000000000001</ele><time>2026-03-27T15:17:50.835Z</time></trkpt><trkpt lat="40.6300472" lon="9.7148799"><ele>11.8</ele><time>2026-03-27T15:17:51.848Z</time></trkpt><trkpt lat="40.6299513" lon="9.714884"><ele>11.4</ele><time>2026-03-27T15:17:52.831Z</time></trkpt><trkpt lat="40.6298445" lon="9.7148872"><ele>11.0</ele><time>2026-03-27T15:17:53.838Z</time></trkpt><trkpt lat="40.6297353" lon="9.7148866"><ele>11.0</ele><time>2026-03-27T15:17:54.837Z</time></trkpt><trkpt lat="40.6296128" lon="9.714896"><ele>11.0</ele><time>2026-03-27T15:17:55.835Z</time></trkpt><trkpt lat="40.6294755" lon="9.7149034"><ele>11.0</ele><time>2026-03-27T15:17:56.831Z</time></trkpt><trkpt lat="40.6293304" lon="9.7149076"><ele>11.0</ele><time>2026-03-27T15:17:57.834Z</time></trkpt><trkpt lat="40.6291778" lon="9.7149143"><ele>11.666666666666666</ele><time>2026-03-27T15:17:58.836Z</time></trkpt><trkpt lat="40.6290052" lon="9.7149171"><ele>12.333333333333332</ele><time>2026-03-27T15:17:59.848Z</time></trkpt><trkpt lat="40.6288345" lon="9.714922"><ele>13.0</ele><time>2026-03-27T15:18:00.836Z</time></trkpt><trkpt lat="40.6286548" lon="9.7149283"><ele>14.0</ele><time>2026-03-27T15:18:01.832Z</time></trkpt><trkpt lat="40.6284683" lon="9.7149377"><ele>15.0</ele><time>2026-03-27T15:18:02.834Z</time></trkpt><trkpt lat="40.6282848" lon="9.7149435"><ele>16.0</ele><time>2026-03-27T15:18:03.837Z</time></trkpt><trkpt lat="40.6281152" lon="9.7149507"><ele>16.0</ele><time>2026-03-27T15:18:04.835Z</time></trkpt><trkpt lat="40.6279527" lon="9.714961"><ele>16.0</ele><time>2026-03-27T15:18:05.834Z</time></trkpt><trkpt lat="40.6277961" lon="9.7149664"><ele>16.0</ele><time>2026-03-27T15:18:06.829Z</time></trkpt><trkpt lat="40.6276414" lon="9.7149617"><ele>16.0</ele><time>2026-03-27T15:18:07.836Z</time></trkpt><trkpt lat="40.6274854" lon="9.7149565"><ele>16.0</ele><time>2026-03-27T15:18:08.834Z</time></trkpt><trkpt lat="40.627326" lon="9.7149166"><ele>16.0</ele><time>2026-03-27T15:18:09.833Z</time></trkpt><trkpt lat="40.6271746" lon="9.7148395"><ele>16.0</ele><time>2026-03-27T15:18:10.854Z</time></trkpt><trkpt lat="40.6270189" lon="9.7147454"><ele>16.0</ele><time>2026-03-27T15:18:11.834Z</time></trkpt><trkpt lat="40.6268673" lon="9.7146402"><ele>16.0</ele><time>2026-03-27T15:18:12.834Z</time></trkpt><trkpt lat="40.626711" lon="9.714527"><ele>15.666666666666666</ele><time>2026-03-27T15:18:13.833Z</time></trkpt><trkpt lat="40.6265514" lon="9.7144038"><ele>15.333333333333332</ele><time>2026-03-27T15:18:14.833Z</time></trkpt><trkpt lat="40.6263923" lon="9.7142807"><ele>15.0</ele><time>2026-03-27T15:18:15.831Z</time></trkpt><trkpt lat="40.6262358" lon="9.7141596"><ele>12.333333333333334</ele><time>2026-03-27T15:18:16.839Z</time></trkpt><trkpt lat="40.6260838" lon="9.7140416"><ele>9.666666666666668</ele><time>2026-03-27T15:18:17.829Z</time></trkpt><trkpt lat="40.6259316" lon="9.7139277"><ele>7.0</ele><time>2026-03-27T15:18:18.829Z</time></trkpt><trkpt lat="40.6257873" lon="9.7138191"><ele>7.0</ele><time>2026-03-27T15:18:19.831Z</time></trkpt><trkpt lat="40.6256427" lon="9.7137078"><ele>7.0</ele><time>2026-03-27T15:18:20.831Z</time></trkpt><trkpt lat="40.6254938" lon="9.7135927"><ele>7.0</ele><time>2026-03-27T15:18:21.846Z</time></trkpt><trkpt lat="40.6253416" lon="9.7134767"><ele>6.333333333333334</ele><time>2026-03-27T15:18:22.829Z</time></trkpt><trkpt lat="40.6251878" lon="9.7133583"><ele>5.666666666666667</ele><time>2026-03-27T15:18:23.829Z</time></trkpt><trkpt lat="40.6250323" lon="9.7132407"><ele>5.0</ele><time>2026-03-27T15:18:24.831Z</time></trkpt><trkpt lat="40.6248764" lon="9.7131233"><ele>5.0</ele><time>2026-03-27T15:18:25.828Z</time></trkpt><trkpt lat="40.6247191" lon="9.7130039"><ele>5.0</ele><time>2026-03-27T15:18:26.833Z</time></trkpt><trkpt lat="40.6245606" lon="9.7128831"><ele>5.0</ele><time>2026-03-27T15:18:27.835Z</time></trkpt><trkpt lat="40.6244007" lon="9.7127598"><ele>5.333333333333334</ele><time>2026-03-27T15:18:28.83Z</time></trkpt><trkpt lat="40.6242405" lon="9.7126367"><ele>5.666666666666667</ele><time>2026-03-27T15:18:29.83Z</time></trkpt><trkpt lat="40.6240818" lon="9.7125151"><ele>6.0</ele><time>2026-03-27T15:18:30.829Z</time></trkpt><trkpt lat="40.6239222" lon="9.7123936"><ele>6.0</ele><time>2026-03-27T15:18:31.838Z</time></trkpt><trkpt lat="40.6237638" lon="9.7122729"><ele>6.0</ele><time>2026-03-27T15:18:32.831Z</time></trkpt><trkpt lat="40.6236071" lon="9.7121532"><ele>6.0</ele><time>2026-03-27T15:18:33.839Z</time></trkpt><trkpt lat="40.6234519" lon="9.712033"><ele>7.333333333333334</ele><time>2026-03-27T15:18:34.837Z</time></trkpt><trkpt lat="40.6232984" lon="9.7119151"><ele>8.666666666666668</ele><time>2026-03-27T15:18:35.831Z</time></trkpt><trkpt lat="40.623143" lon="9.7118003"><ele>10.0</ele><time>2026-03-27T15:18:36.831Z</time></trkpt><trkpt lat="40.622987" lon="9.7116885"><ele>10.0</ele><time>2026-03-27T15:18:37.838Z</time></trkpt><trkpt lat="40.6228309" lon="9.711574"><ele>10.0</ele><time>2026-03-27T15:18:38.836Z</time></trkpt><trkpt lat="40.622675" lon="9.7114558"><ele>10.0</ele><time>2026-03-27T15:18:39.826Z</time></trkpt><trkpt lat="40.6225214" lon="9.7113345"><ele>10.666666666666668</ele><time>2026-03-27T15:18:40.833Z</time></trkpt><trkpt lat="40.6223766" lon="9.7112189"><ele>11.333333333333334</ele><time>2026-03-27T15:18:41.837Z</time></trkpt><trkpt lat="40.6222401" lon="9.7111114"><ele>12.0</ele><time>2026-03-27T15:18:42.835Z</time></trkpt><trkpt lat="40.6221059" lon="9.7110089"><ele>12.75</ele><time>2026-03-27T15:18:43.83Z</time></trkpt><trkpt lat="40.6219745" lon="9.7109104"><ele>13.5</ele><time>2026-03-27T15:18:44.835Z</time></trkpt><trkpt lat="40.6218461" lon="9.7108135"><ele>14.25</ele><time>2026-03-27T15:18:45.837Z</time></trkpt><trkpt lat="40.6217191" lon="9.7107196"><ele>15.0</ele><time>2026-03-27T15:18:46.852Z</time></trkpt><trkpt lat="40.6215935" lon="9.7106263"><ele>15.0</ele><time>2026-03-27T15:18:47.838Z</time></trkpt><trkpt lat="40.6214675" lon="9.7105335"><ele>15.0</ele><time>2026-03-27T15:18:48.833Z</time></trkpt><trkpt lat="40.6213383" lon="9.7104355"><ele>15.0</ele><time>2026-03-27T15:18:49.834Z</time></trkpt><trkpt lat="40.6212051" lon="9.7103336"><ele>15.0</ele><time>2026-03-27T15:18:50.833Z</time></trkpt><trkpt lat="40.6210697" lon="9.7102309"><ele>15.333333333333332</ele><time>2026-03-27T15:18:51.835Z</time></trkpt><trkpt lat="40.6209333" lon="9.7101279"><ele>15.666666666666666</ele><time>2026-03-27T15:18:52.831Z</time></trkpt><trkpt lat="40.6207965" lon="9.7100255"><ele>16.0</ele><time>2026-03-27T15:18:53.845Z</time></trkpt><trkpt lat="40.6206589" lon="9.7099247"><ele>16.0</ele><time>2026-03-27T15:18:54.833Z</time></trkpt><trkpt lat="40.6205222" lon="9.7098239"><ele>16.0</ele><time>2026-03-27T15:18:55.829Z</time></trkpt><trkpt lat="40.6203861" lon="9.709722"><ele>16.0</ele><time>2026-03-27T15:18:56.829Z</time></trkpt><trkpt lat="40.6202501" lon="9.7096187"><ele>17.666666666666664</ele><time>2026-03-27T15:18:57.832Z</time></trkpt><trkpt lat="40.6201148" lon="9.709516"><ele>19.333333333333332</ele><time>2026-03-27T15:18:58.834Z</time></trkpt><trkpt lat="40.6199794" lon="9.7094131"><ele>21.0</ele><time>2026-03-27T15:18:59.832Z</time></trkpt><trkpt lat="40.6198441" lon="9.7093101"><ele>21.0</ele><time>2026-03-27T15:19:00.853Z</time></trkpt><trkpt lat="40.619708" lon="9.709209"><ele>21.0</ele><time>2026-03-27T15:19:01.829Z</time></trkpt><trkpt lat="40.6195693" lon="9.7091145"><ele>21.0</ele><time>2026-03-27T15:19:02.832Z</time></trkpt><trkpt lat="40.6194255" lon="9.7090332"><ele>22.666666666666664</ele><time>2026-03-27T15:19:03.834Z</time></trkpt><trkpt lat="40.6192764" lon="9.7089666"><ele>24.333333333333332</ele><time>2026-03-27T15:19:04.835Z</time></trkpt><trkpt lat="40.6191248" lon="9.7089098"><ele>26.0</ele><time>2026-03-27T15:19:05.835Z</time></trkpt><trkpt lat="40.6189722" lon="9.7088553"><ele>26.0</ele><time>2026-03-27T15:19:06.83Z</time></trkpt><trkpt lat="40.6188194" lon="9.7088023"><ele>26.0</ele><time>2026-03-27T15:19:07.832Z</time></trkpt><trkpt lat="40.6186666" lon="9.7087508"><ele>26.0</ele><time>2026-03-27T15:19:08.832Z</time></trkpt><trkpt lat="40.6185135" lon="9.7087009"><ele>25.333333333333332</ele><time>2026-03-27T15:19:09.838Z</time></trkpt><trkpt lat="40.6183607" lon="9.7086516"><ele>24.666666666666664</ele><time>2026-03-27T15:19:10.833Z</time></trkpt><trkpt lat="40.6182078" lon="9.7086024"><ele>24.0</ele><time>2026-03-27T15:19:11.837Z</time></trkpt><trkpt lat="40.6180555" lon="9.7085537"><ele>24.0</ele><time>2026-03-27T15:19:12.833Z</time></trkpt><trkpt lat="40.6179031" lon="9.708506"><ele>24.0</ele><time>2026-03-27T15:19:13.832Z</time></trkpt><trkpt lat="40.6177514" lon="9.7084577"><ele>24.0</ele><time>2026-03-27T15:19:14.866Z</time></trkpt><trkpt lat="40.6176009" lon="9.708405"><ele>25.333333333333336</ele><time>2026-03-27T15:19:15.832Z</time></trkpt><trkpt lat="40.6174534" lon="9.7083361"><ele>26.666666666666668</ele><time>2026-03-27T15:19:16.836Z</time></trkpt><trkpt lat="40.6173148" lon="9.7082449"><ele>28.0</ele><time>2026-03-27T15:19:17.836Z</time></trkpt><trkpt lat="40.6171779" lon="9.7081467"><ele>28.0</ele><time>2026-03-27T15:19:18.84Z</time></trkpt><trkpt lat="40.6170488" lon="9.7080326"><ele>28.0</ele><time>2026-03-27T15:19:19.837Z</time></trkpt><trkpt lat="40.6169224" lon="9.7079124"><ele>28.0</ele><time>2026-03-27T15:19:20.837Z</time></trkpt><trkpt lat="40.6167973" lon="9.7077888"><ele>29.0</ele><time>2026-03-27T15:19:21.836Z</time></trkpt><trkpt lat="40.6166689" lon="9.7076673"><ele>30.0</ele><time>2026-03-27T15:19:22.84Z</time></trkpt><trkpt lat="40.6165404" lon="9.7075428"><ele>31.0</ele><time>2026-03-27T15:19:23.836Z</time></trkpt><trkpt lat="40.6164122" lon="9.707419"><ele>31.0</ele><time>2026-03-27T15:19:24.83Z</time></trkpt><trkpt lat="40.6162844" lon="9.7072973"><ele>31.0</ele><time>2026-03-27T15:19:25.834Z</time></trkpt><trkpt lat="40.6161534" lon="9.7071749"><ele>31.0</ele><time>2026-03-27T15:19:26.841Z</time></trkpt><trkpt lat="40.6160242" lon="9.7070551"><ele>31.333333333333336</ele><time>2026-03-27T15:19:27.839Z</time></trkpt><trkpt lat="40.6158939" lon="9.7069374"><ele>31.666666666666664</ele><time>2026-03-27T15:19:28.833Z</time></trkpt><trkpt lat="40.6157654" lon="9.7068181"><ele>32.0</ele><time>2026-03-27T15:19:29.832Z</time></trkpt><trkpt lat="40.6156355" lon="9.7066984"><ele>32.0</ele><time>2026-03-27T15:19:30.831Z</time></trkpt><trkpt lat="40.6155073" lon="9.7065782"><ele>32.0</ele><time>2026-03-27T15:19:31.836Z</time></trkpt><trkpt lat="40.6153777" lon="9.7064596"><ele>32.0</ele><time>2026-03-27T15:19:32.838Z</time></trkpt><trkpt lat="40.6152485" lon="9.7063426"><ele>32.666666666666664</ele><time>2026-03-27T15:19:33.849Z</time></trkpt><trkpt lat="40.6151187" lon="9.706224"><ele>33.333333333333336</ele><time>2026-03-27T15:19:34.841Z</time></trkpt><trkpt lat="40.6149886" lon="9.706102"><ele>34.0</ele><time>2026-03-27T15:19:35.832Z</time></trkpt><trkpt lat="40.6148606" lon="9.7059791"><ele>34.0</ele><time>2026-03-27T15:19:36.837Z</time></trkpt><trkpt lat="40.6147318" lon="9.7058558"><ele>34.0</ele><time>2026-03-27T15:19:37.834Z</time></trkpt><trkpt lat="40.6146033" lon="9.7057328"><ele>34.0</ele><time>2026-03-27T15:19:38.84Z</time></trkpt><trkpt lat="40.614475" lon="9.7056112"><ele>33.333333333333336</ele><time>2026-03-27T15:19:39.834Z</time></trkpt><trkpt lat="40.6143457" lon="9.7054912"><ele>32.666666666666664</ele><time>2026-03-27T15:19:40.835Z</time></trkpt><trkpt lat="40.614218" lon="9.7053715"><ele>32.0</ele><time>2026-03-27T15:19:41.836Z</time></trkpt><trkpt lat="40.6140902" lon="9.7052511"><ele>32.33333333333333</ele><time>2026-03-27T15:19:42.832Z</time></trkpt><trkpt lat="40.6139628" lon="9.7051319"><ele>32.666666666666664</ele><time>2026-03-27T15:19:43.835Z</time></trkpt><trkpt lat="40.6138354" lon="9.7050127"><ele>33.0</ele><time>2026-03-27T15:19:44.838Z</time></trkpt><trkpt lat="40.6137086" lon="9.7048956"><ele>32.0</ele><time>2026-03-27T15:19:45.833Z</time></trkpt><trkpt lat="40.6135816" lon="9.7047778"><ele>31.0</ele><time>2026-03-27T15:19:46.851Z</time></trkpt><trkpt lat="40.6134542" lon="9.7046566"><ele>30.0</ele><time>2026-03-27T15:19:47.838Z</time></trkpt><trkpt lat="40.6133264" lon="9.7045351"><ele>30.0</ele><time>2026-03-27T15:19:48.836Z</time></trkpt><trkpt lat="40.6131955" lon="9.7044181"><ele>30.0</ele><time>2026-03-27T15:19:49.83Z</time></trkpt><trkpt lat="40.6130571" lon="9.704311"><ele>30.0</ele><time>2026-03-27T15:19:50.835Z</time></trkpt><trkpt lat="40.6129081" lon="9.7042117"><ele>30.666666666666664</ele><time>2026-03-27T15:19:51.835Z</time></trkpt><trkpt lat="40.612752" lon="9.7041217"><ele>31.333333333333332</ele><time>2026-03-27T15:19:52.835Z</time></trkpt><trkpt lat="40.6125917" lon="9.704038"><ele>32.0</ele><time>2026-03-27T15:19:53.847Z</time></trkpt><trkpt lat="40.6124258" lon="9.7039546"><ele>32.0</ele><time>2026-03-27T15:19:54.834Z</time></trkpt><trkpt lat="40.6122558" lon="9.7038715"><ele>32.0</ele><time>2026-03-27T15:19:55.828Z</time></trkpt><trkpt lat="40.6120792" lon="9.7037871"><ele>32.0</ele><time>2026-03-27T15:19:56.832Z</time></trkpt><trkpt lat="40.6118984" lon="9.7036991"><ele>32.0</ele><time>2026-03-27T15:19:57.828Z</time></trkpt><trkpt lat="40.611715" lon="9.7036109"><ele>32.0</ele><time>2026-03-27T15:19:58.842Z</time></trkpt><trkpt lat="40.6115309" lon="9.7035227"><ele>32.0</ele><time>2026-03-27T15:19:59.827Z</time></trkpt><trkpt lat="40.6113478" lon="9.7034351"><ele>33.0</ele><time>2026-03-27T15:20:00.826Z</time></trkpt><trkpt lat="40.6111658" lon="9.7033485"><ele>34.0</ele><time>2026-03-27T15:20:01.828Z</time></trkpt><trkpt lat="40.6109844" lon="9.703264"><ele>35.0</ele><time>2026-03-27T15:20:02.83Z</time></trkpt><trkpt lat="40.6108034" lon="9.7031788"><ele>35.0</ele><time>2026-03-27T15:20:03.845Z</time></trkpt><trkpt lat="40.6106227" lon="9.703094"><ele>35.0</ele><time>2026-03-27T15:20:04.832Z</time></trkpt><trkpt lat="40.6104424" lon="9.7030077"><ele>35.0</ele><time>2026-03-27T15:20:05.828Z</time></trkpt><trkpt lat="40.6102625" lon="9.7029219"><ele>34.33333333333333</ele><time>2026-03-27T15:20:06.826Z</time></trkpt><trkpt lat="40.6100834" lon="9.7028366"><ele>33.666666666666664</ele><time>2026-03-27T15:20:07.826Z</time></trkpt><trkpt lat="40.6099041" lon="9.7027515"><ele>33.0</ele><time>2026-03-27T15:20:08.831Z</time></trkpt><trkpt lat="40.6097251" lon="9.7026656"><ele>34.0</ele><time>2026-03-27T15:20:09.845Z</time></trkpt><trkpt lat="40.6095462" lon="9.7025752"><ele>35.0</ele><time>2026-03-27T15:20:10.829Z</time></trkpt><trkpt lat="40.6093691" lon="9.7024762"><ele>36.0</ele><time>2026-03-27T15:20:11.829Z</time></trkpt><trkpt lat="40.6091942" lon="9.7023699"><ele>36.0</ele><time>2026-03-27T15:20:12.827Z</time></trkpt><trkpt lat="40.6090194" lon="9.7022582"><ele>36.0</ele><time>2026-03-27T15:20:13.834Z</time></trkpt><trkpt lat="40.6088442" lon="9.7021445"><ele>36.0</ele><time>2026-03-27T15:20:14.834Z</time></trkpt><trkpt lat="40.6086683" lon="9.7020317"><ele>36.0</ele><time>2026-03-27T15:20:15.828Z</time></trkpt><trkpt lat="40.6084919" lon="9.7019202"><ele>36.0</ele><time>2026-03-27T15:20:16.83Z</time></trkpt><trkpt lat="40.6083151" lon="9.7018087"><ele>36.0</ele><time>2026-03-27T15:20:17.829Z</time></trkpt><trkpt lat="40.6081386" lon="9.7016958"><ele>36.333333333333336</ele><time>2026-03-27T15:20:18.827Z</time></trkpt><trkpt lat="40.6079649" lon="9.7015784"><ele>36.66666666666667</ele><time>2026-03-27T15:20:19.833Z</time></trkpt><trkpt lat="40.6077962" lon="9.7014482"><ele>37.0</ele><time>2026-03-27T15:20:20.832Z</time></trkpt><trkpt lat="40.6076313" lon="9.7013071"><ele>37.0</ele><time>2026-03-27T15:20:21.837Z</time></trkpt><trkpt lat="40.6074688" lon="9.7011596"><ele>37.0</ele><time>2026-03-27T15:20:22.834Z</time></trkpt><trkpt lat="40.6073084" lon="9.7010078"><ele>37.0</ele><time>2026-03-27T15:20:23.832Z</time></trkpt><trkpt lat="40.6071481" lon="9.7008583"><ele>36.66666666666667</ele><time>2026-03-27T15:20:24.846Z</time></trkpt><trkpt lat="40.6069879" lon="9.700711"><ele>36.333333333333336</ele><time>2026-03-27T15:20:25.825Z</time></trkpt><trkpt lat="40.6068273" lon="9.7005654"><ele>36.0</ele><time>2026-03-27T15:20:26.826Z</time></trkpt><trkpt lat="40.606667" lon="9.7004199"><ele>36.0</ele><time>2026-03-27T15:20:27.831Z</time></trkpt><trkpt lat="40.6065073" lon="9.7002742"><ele>36.0</ele><time>2026-03-27T15:20:28.829Z</time></trkpt><trkpt lat="40.6063479" lon="9.7001284"><ele>36.0</ele><time>2026-03-27T15:20:29.847Z</time></trkpt><trkpt lat="40.6061893" lon="9.699982"><ele>34.666666666666664</ele><time>2026-03-27T15:20:30.83Z</time></trkpt><trkpt lat="40.6060307" lon="9.6998357"><ele>33.33333333333333</ele><time>2026-03-27T15:20:31.832Z</time></trkpt><trkpt lat="40.6058721" lon="9.6996891"><ele>32.0</ele><time>2026-03-27T15:20:32.831Z</time></trkpt><trkpt lat="40.6057139" lon="9.6995435"><ele>32.666666666666664</ele><time>2026-03-27T15:20:33.83Z</time></trkpt><trkpt lat="40.6055564" lon="9.6993973"><ele>33.333333333333336</ele><time>2026-03-27T15:20:34.83Z</time></trkpt><trkpt lat="40.6053992" lon="9.6992502"><ele>34.0</ele><time>2026-03-27T15:20:35.83Z</time></trkpt><trkpt lat="40.605243" lon="9.6991029"><ele>32.0</ele><time>2026-03-27T15:20:36.829Z</time></trkpt><trkpt lat="40.6050866" lon="9.698953"><ele>30.0</ele><time>2026-03-27T15:20:37.829Z</time></trkpt><trkpt lat="40.6049293" lon="9.6988058"><ele>28.0</ele><time>2026-03-27T15:20:38.878Z</time></trkpt><trkpt lat="40.6047708" lon="9.6986594"><ele>27.666666666666668</ele><time>2026-03-27T15:20:39.83Z</time></trkpt><trkpt lat="40.6046123" lon="9.6985135"><ele>27.333333333333336</ele><time>2026-03-27T15:20:40.828Z</time></trkpt><trkpt lat="40.6044543" lon="9.6983675"><ele>27.0</ele><time>2026-03-27T15:20:41.831Z</time></trkpt><trkpt lat="40.6042966" lon="9.6982218"><ele>27.0</ele><time>2026-03-27T15:20:42.82Z</time></trkpt><trkpt lat="40.6041398" lon="9.6980757"><ele>27.0</ele><time>2026-03-27T15:20:43.85Z</time></trkpt><trkpt lat="40.6039821" lon="9.6979301"><ele>27.0</ele><time>2026-03-27T15:20:44.825Z</time></trkpt><trkpt lat="40.6038243" lon="9.697784"><ele>27.333333333333336</ele><time>2026-03-27T15:20:45.822Z</time></trkpt><trkpt lat="40.6036661" lon="9.6976379"><ele>27.666666666666668</ele><time>2026-03-27T15:20:46.837Z</time></trkpt><trkpt lat="40.6035078" lon="9.6974904"><ele>28.0</ele><time>2026-03-27T15:20:47.826Z</time></trkpt><trkpt lat="40.6033498" lon="9.6973422"><ele>28.666666666666668</ele><time>2026-03-27T15:20:48.85Z</time></trkpt><trkpt lat="40.6031922" lon="9.6971941"><ele>29.333333333333336</ele><time>2026-03-27T15:20:49.826Z</time></trkpt><trkpt lat="40.6030342" lon="9.697046"><ele>30.0</ele><time>2026-03-27T15:20:50.828Z</time></trkpt><trkpt lat="40.6028753" lon="9.6968991"><ele>30.0</ele><time>2026-03-27T15:20:51.828Z</time></trkpt><trkpt lat="40.6027163" lon="9.6967532"><ele>30.0</ele><time>2026-03-27T15:20:52.825Z</time></trkpt><trkpt lat="40.6025579" lon="9.6966073"><ele>30.0</ele><time>2026-03-27T15:20:53.833Z</time></trkpt><trkpt lat="40.6023997" lon="9.6964616"><ele>30.0</ele><time>2026-03-27T15:20:54.829Z</time></trkpt><trkpt lat="40.6022409" lon="9.6963158"><ele>30.0</ele><time>2026-03-27T15:20:55.837Z</time></trkpt><trkpt lat="40.6020822" lon="9.6961693"><ele>30.0</ele><time>2026-03-27T15:20:56.829Z</time></trkpt><trkpt lat="40.6019241" lon="9.6960218"><ele>29.333333333333336</ele><time>2026-03-27T15:20:57.83Z</time></trkpt><trkpt lat="40.601767" lon="9.6958741"><ele>28.666666666666668</ele><time>2026-03-27T15:20:58.826Z</time></trkpt><trkpt lat="40.6016105" lon="9.6957279"><ele>28.0</ele><time>2026-03-27T15:20:59.833Z</time></trkpt><trkpt lat="40.6014541" lon="9.6955836"><ele>28.0</ele><time>2026-03-27T15:21:00.827Z</time></trkpt><trkpt lat="40.601294" lon="9.6954547"><ele>28.0</ele><time>2026-03-27T15:21:01.826Z</time></trkpt><trkpt lat="40.6011338" lon="9.6953223"><ele>28.0</ele><time>2026-03-27T15:21:02.828Z</time></trkpt><trkpt lat="40.6009661" lon="9.6952044"><ele>30.333333333333336</ele><time>2026-03-27T15:21:03.83Z</time></trkpt><trkpt lat="40.6007896" lon="9.6951119"><ele>32.666666666666664</ele><time>2026-03-27T15:21:04.828Z</time></trkpt><trkpt lat="40.6006092" lon="9.6950431"><ele>35.0</ele><time>2026-03-27T15:21:05.825Z</time></trkpt><trkpt lat="40.6004241" lon="9.6949926"><ele>35.666666666666664</ele><time>2026-03-27T15:21:06.825Z</time></trkpt><trkpt lat="40.6002342" lon="9.6949489"><ele>36.333333333333336</ele><time>2026-03-27T15:21:07.828Z</time></trkpt><trkpt lat="40.6000428" lon="9.6949127"><ele>37.0</ele><time>2026-03-27T15:21:08.825Z</time></trkpt><trkpt lat="40.5998508" lon="9.6948766"><ele>37.0</ele><time>2026-03-27T15:21:09.848Z</time></trkpt><trkpt lat="40.5996591" lon="9.694839"><ele>37.0</ele><time>2026-03-27T15:21:10.825Z</time></trkpt><trkpt lat="40.5994641" lon="9.6948013"><ele>37.0</ele><time>2026-03-27T15:21:11.824Z</time></trkpt><trkpt lat="40.5992678" lon="9.6947682"><ele>37.66666666666667</ele><time>2026-03-27T15:21:12.825Z</time></trkpt><trkpt lat="40.5990707" lon="9.6947372"><ele>38.333333333333336</ele><time>2026-03-27T15:21:13.825Z</time></trkpt><trkpt lat="40.5988698" lon="9.6947081"><ele>39.0</ele><time>2026-03-27T15:21:14.86Z</time></trkpt><trkpt lat="40.598665" lon="9.6946809"><ele>40.333333333333336</ele><time>2026-03-27T15:21:15.834Z</time></trkpt><trkpt lat="40.5984605" lon="9.6946565"><ele>41.66666666666667</ele><time>2026-03-27T15:21:16.83Z</time></trkpt><trkpt lat="40.5982572" lon="9.6946322"><ele>43.0</ele><time>2026-03-27T15:21:17.826Z</time></trkpt><trkpt lat="40.5980553" lon="9.6946098"><ele>43.0</ele><time>2026-03-27T15:21:18.825Z</time></trkpt><trkpt lat="40.5978549" lon="9.6945876"><ele>43.0</ele><time>2026-03-27T15:21:19.827Z</time></trkpt><trkpt lat="40.5976554" lon="9.6945629"><ele>43.0</ele><time>2026-03-27T15:21:20.831Z</time></trkpt><trkpt lat="40.597457" lon="9.6945367"><ele>45.0</ele><time>2026-03-27T15:21:21.844Z</time></trkpt><trkpt lat="40.5972576" lon="9.6945101"><ele>47.0</ele><time>2026-03-27T15:21:22.825Z</time></trkpt><trkpt lat="40.5970576" lon="9.6944835"><ele>49.0</ele><time>2026-03-27T15:21:23.829Z</time></trkpt><trkpt lat="40.5968564" lon="9.6944587"><ele>50.666666666666664</ele><time>2026-03-27T15:21:24.829Z</time></trkpt><trkpt lat="40.5966558" lon="9.6944344"><ele>52.33333333333333</ele><time>2026-03-27T15:21:25.827Z</time></trkpt><trkpt lat="40.5964529" lon="9.6944094"><ele>54.0</ele><time>2026-03-27T15:21:26.864Z</time></trkpt><trkpt lat="40.5962486" lon="9.6943844"><ele>55.0</ele><time>2026-03-27T15:21:27.827Z</time></trkpt><trkpt lat="40.5960432" lon="9.6943612"><ele>56.0</ele><time>2026-03-27T15:21:28.827Z</time></trkpt><trkpt lat="40.5958366" lon="9.694343"><ele>57.0</ele><time>2026-03-27T15:21:29.831Z</time></trkpt><trkpt lat="40.5956287" lon="9.6943263"><ele>57.0</ele><time>2026-03-27T15:21:30.828Z</time></trkpt><trkpt lat="40.5954192" lon="9.6943182"><ele>57.0</ele><time>2026-03-27T15:21:31.846Z</time></trkpt><trkpt lat="40.595205" lon="9.6943126"><ele>57.0</ele><time>2026-03-27T15:21:32.827Z</time></trkpt><trkpt lat="40.5949885" lon="9.6943042"><ele>55.33333333333333</ele><time>2026-03-27T15:21:33.822Z</time></trkpt><trkpt lat="40.594774" lon="9.6942968"><ele>53.666666666666664</ele><time>2026-03-27T15:21:34.827Z</time></trkpt><trkpt lat="40.5945656" lon="9.6942871"><ele>52.0</ele><time>2026-03-27T15:21:35.829Z</time></trkpt><trkpt lat="40.594357" lon="9.6942777"><ele>51.0</ele><time>2026-03-27T15:21:36.826Z</time></trkpt><trkpt lat="40.5941499" lon="9.6942671"><ele>50.0</ele><time>2026-03-27T15:21:37.841Z</time></trkpt><trkpt lat="40.5939459" lon="9.6942558"><ele>49.0</ele><time>2026-03-27T15:21:38.832Z</time></trkpt><trkpt lat="40.5937434" lon="9.6942433"><ele>49.33333333333333</ele><time>2026-03-27T15:21:39.824Z</time></trkpt><trkpt lat="40.5935417" lon="9.6942222"><ele>49.66666666666667</ele><time>2026-03-27T15:21:40.831Z</time></trkpt><trkpt lat="40.5933405" lon="9.6941943"><ele>50.0</ele><time>2026-03-27T15:21:41.828Z</time></trkpt><trkpt lat="40.5931385" lon="9.6941611"><ele>50.0</ele><time>2026-03-27T15:21:42.829Z</time></trkpt><trkpt lat="40.5929348" lon="9.6941249"><ele>50.0</ele><time>2026-03-27T15:21:43.828Z</time></trkpt><trkpt lat="40.5927308" lon="9.6940895"><ele>50.0</ele><time>2026-03-27T15:21:44.832Z</time></trkpt><trkpt lat="40.592528" lon="9.6940518"><ele>49.66666666666667</ele><time>2026-03-27T15:21:45.827Z</time></trkpt><trkpt lat="40.5923247" lon="9.6940128"><ele>49.33333333333333</ele><time>2026-03-27T15:21:46.853Z</time></trkpt><trkpt lat="40.5921202" lon="9.6939727"><ele>49.0</ele><time>2026-03-27T15:21:47.831Z</time></trkpt><trkpt lat="40.5919114" lon="9.6939307"><ele>48.0</ele><time>2026-03-27T15:21:48.829Z</time></trkpt><trkpt lat="40.5916965" lon="9.693886"><ele>47.0</ele><time>2026-03-27T15:21:49.828Z</time></trkpt><trkpt lat="40.5914792" lon="9.6938423"><ele>46.0</ele><time>2026-03-27T15:21:50.829Z</time></trkpt><trkpt lat="40.5912629" lon="9.6938005"><ele>46.0</ele><time>2026-03-27T15:21:51.83Z</time></trkpt><trkpt lat="40.5910464" lon="9.6937593"><ele>46.0</ele><time>2026-03-27T15:21:52.83Z</time></trkpt><trkpt lat="40.590831" lon="9.6937178"><ele>46.0</ele><time>2026-03-27T15:21:53.829Z</time></trkpt><trkpt lat="40.5906166" lon="9.6936744"><ele>46.0</ele><time>2026-03-27T15:21:54.823Z</time></trkpt><trkpt lat="40.590403" lon="9.6936341"><ele>46.0</ele><time>2026-03-27T15:21:55.831Z</time></trkpt><trkpt lat="40.5901903" lon="9.6935955"><ele>46.0</ele><time>2026-03-27T15:21:56.829Z</time></trkpt><trkpt lat="40.5899789" lon="9.6935554"><ele>47.333333333333336</ele><time>2026-03-27T15:21:57.842Z</time></trkpt><trkpt lat="40.5897684" lon="9.69351"><ele>48.66666666666667</ele><time>2026-03-27T15:21:58.829Z</time></trkpt><trkpt lat="40.5895611" lon="9.6934647"><ele>50.0</ele><time>2026-03-27T15:21:59.829Z</time></trkpt><trkpt lat="40.5893519" lon="9.6933891"><ele>50.333333333333336</ele><time>2026-03-27T15:22:00.826Z</time></trkpt><trkpt lat="40.5891433" lon="9.6933032"><ele>50.66666666666667</ele><time>2026-03-27T15:22:01.829Z</time></trkpt><trkpt lat="40.5889323" lon="9.6932122"><ele>51.0</ele><time>2026-03-27T15:22:02.829Z</time></trkpt><trkpt lat="40.5887153" lon="9.6931186"><ele>48.0</ele><time>2026-03-27T15:22:03.83Z</time></trkpt><trkpt lat="40.5884986" lon="9.6930241"><ele>45.0</ele><time>2026-03-27T15:22:04.825Z</time></trkpt><trkpt lat="40.5882849" lon="9.6929317"><ele>45.0</ele><time>2026-03-27T15:22:05.839Z</time></trkpt><trkpt lat="40.588077" lon="9.6928423"><ele>45.0</ele><time>2026-03-27T15:22:06.828Z</time></trkpt><trkpt lat="40.5878756" lon="9.6927538"><ele>45.0</ele><time>2026-03-27T15:22:07.828Z</time></trkpt><trkpt lat="40.5876752" lon="9.6926633"><ele>46.66666666666667</ele><time>2026-03-27T15:22:08.825Z</time></trkpt><trkpt lat="40.5874818" lon="9.6925851"><ele>48.333333333333336</ele><time>2026-03-27T15:22:09.828Z</time></trkpt><trkpt lat="40.5872958" lon="9.6925364"><ele>50.0</ele><time>2026-03-27T15:22:10.829Z</time></trkpt><trkpt lat="40.5871143" lon="9.6925379"><ele>51.0</ele><time>2026-03-27T15:22:11.83Z</time></trkpt><trkpt lat="40.5869323" lon="9.6925724"><ele>52.0</ele><time>2026-03-27T15:22:12.829Z</time></trkpt><trkpt lat="40.5867562" lon="9.6926135"><ele>53.0</ele><time>2026-03-27T15:22:13.829Z</time></trkpt><trkpt lat="40.5865891" lon="9.692646"><ele>53.0</ele><time>2026-03-27T15:22:14.851Z</time></trkpt><trkpt lat="40.5864384" lon="9.6926746"><ele>53.0</ele><time>2026-03-27T15:22:15.83Z</time></trkpt><trkpt lat="40.5862993" lon="9.6926997"><ele>53.0</ele><time>2026-03-27T15:22:16.828Z</time></trkpt><trkpt lat="40.5861768" lon="9.6927251"><ele>53.0</ele><time>2026-03-27T15:22:17.835Z</time></trkpt><trkpt lat="40.5860737" lon="9.6927398"><ele>53.333333333333336</ele><time>2026-03-27T15:22:18.83Z</time></trkpt><trkpt lat="40.5859939" lon="9.6927532"><ele>53.66666666666667</ele><time>2026-03-27T15:22:19.839Z</time></trkpt><trkpt lat="40.5859017" lon="9.692696"><ele>54.0</ele><time>2026-03-27T15:22:21.832Z</time></trkpt><trkpt lat="40.5858222" lon="9.6926392"><ele>54.33333333333333</ele><time>2026-03-27T15:22:50.84Z</time></trkpt><trkpt lat="40.585749" lon="9.6926224"><ele>54.666666666666664</ele><time>2026-03-27T15:22:51.837Z</time></trkpt><trkpt lat="40.5856647" lon="9.6926252"><ele>55.0</ele><time>2026-03-27T15:22:52.83Z</time></trkpt><trkpt lat="40.5855612" lon="9.6926562"><ele>55.0</ele><time>2026-03-27T15:22:53.83Z</time></trkpt><trkpt lat="40.5854492" lon="9.6927191"><ele>55.0</ele><time>2026-03-27T15:22:54.833Z</time></trkpt><trkpt lat="40.5853252" lon="9.6927933"><ele>55.0</ele><time>2026-03-27T15:22:55.828Z</time></trkpt><trkpt lat="40.5851921" lon="9.6929158"><ele>55.0</ele><time>2026-03-27T15:22:56.827Z</time></trkpt><trkpt lat="40.5850449" lon="9.6930452"><ele>50.666666666666664</ele><time>2026-03-27T15:22:57.832Z</time></trkpt><trkpt lat="40.5848814" lon="9.6931833"><ele>46.33333333333333</ele><time>2026-03-27T15:22:58.833Z</time></trkpt><trkpt lat="40.5847135" lon="9.693326"><ele>42.0</ele><time>2026-03-27T15:22:59.835Z</time></trkpt><trkpt lat="40.5845421" lon="9.6934757"><ele>43.0</ele><time>2026-03-27T15:23:00.829Z</time></trkpt><trkpt lat="40.5843656" lon="9.6936348"><ele>44.0</ele><time>2026-03-27T15:23:01.829Z</time></trkpt><trkpt lat="40.5841843" lon="9.6938041"><ele>45.0</ele><time>2026-03-27T15:23:02.835Z</time></trkpt><trkpt lat="40.5840067" lon="9.6939741"><ele>45.0</ele><time>2026-03-27T15:23:03.834Z</time></trkpt><trkpt lat="40.5838315" lon="9.6941475"><ele>45.0</ele><time>2026-03-27T15:23:04.851Z</time></trkpt><trkpt lat="40.583657" lon="9.6943227"><ele>45.0</ele><time>2026-03-27T15:23:05.829Z</time></trkpt><trkpt lat="40.5834861" lon="9.694494"><ele>46.33333333333333</ele><time>2026-03-27T15:23:06.83Z</time></trkpt><trkpt lat="40.5833256" lon="9.6946548"><ele>47.666666666666664</ele><time>2026-03-27T15:23:07.83Z</time></trkpt><trkpt lat="40.5831782" lon="9.6948009"><ele>49.0</ele><time>2026-03-27T15:23:08.832Z</time></trkpt><trkpt lat="40.5830389" lon="9.6949338"><ele>49.0</ele><time>2026-03-27T15:23:09.849Z</time></trkpt><trkpt lat="40.5829089" lon="9.6950544"><ele>49.0</ele><time>2026-03-27T15:23:10.836Z</time></trkpt><trkpt lat="40.5827676" lon="9.695166"><ele>49.0</ele><time>2026-03-27T15:23:11.831Z</time></trkpt><trkpt lat="40.5826184" lon="9.6952623"><ele>50.33333333333333</ele><time>2026-03-27T15:23:12.835Z</time></trkpt><trkpt lat="40.5824616" lon="9.6953475"><ele>51.66666666666667</ele><time>2026-03-27T15:23:13.83Z</time></trkpt><trkpt lat="40.5822954" lon="9.6954312"><ele>53.0</ele><time>2026-03-27T15:23:14.855Z</time></trkpt><trkpt lat="40.5821224" lon="9.6955189"><ele>52.66666666666667</ele><time>2026-03-27T15:23:15.83Z</time></trkpt><trkpt lat="40.5819448" lon="9.6956103"><ele>52.33333333333333</ele><time>2026-03-27T15:23:16.829Z</time></trkpt><trkpt lat="40.5817675" lon="9.6956994"><ele>52.0</ele><time>2026-03-27T15:23:17.832Z</time></trkpt><trkpt lat="40.5815928" lon="9.6957848"><ele>52.0</ele><time>2026-03-27T15:23:18.83Z</time></trkpt><trkpt lat="40.5814255" lon="9.6958638"><ele>52.0</ele><time>2026-03-27T15:23:19.85Z</time></trkpt><trkpt lat="40.5812648" lon="9.6959298"><ele>52.0</ele><time>2026-03-27T15:23:20.831Z</time></trkpt><trkpt lat="40.5811094" lon="9.6959779"><ele>51.33333333333333</ele><time>2026-03-27T15:23:21.828Z</time></trkpt><trkpt lat="40.5809579" lon="9.6959743"><ele>50.66666666666667</ele><time>2026-03-27T15:23:22.834Z</time></trkpt><trkpt lat="40.5808141" lon="9.6959416"><ele>50.0</ele><time>2026-03-27T15:23:23.834Z</time></trkpt><trkpt lat="40.5806649" lon="9.6958883"><ele>50.0</ele><time>2026-03-27T15:23:24.825Z</time></trkpt><trkpt lat="40.5805117" lon="9.6958324"><ele>50.0</ele><time>2026-03-27T15:23:25.851Z</time></trkpt><trkpt lat="40.5803544" lon="9.6957796"><ele>50.0</ele><time>2026-03-27T15:23:26.834Z</time></trkpt><trkpt lat="40.5802012" lon="9.6957335"><ele>48.75</ele><time>2026-03-27T15:23:27.834Z</time></trkpt><trkpt lat="40.5800626" lon="9.6956814"><ele>47.5</ele><time>2026-03-27T15:23:28.834Z</time></trkpt><trkpt lat="40.5799214" lon="9.6956324"><ele>46.25</ele><time>2026-03-27T15:23:29.828Z</time></trkpt><trkpt lat="40.5797963" lon="9.6955859"><ele>45.0</ele><time>2026-03-27T15:23:30.838Z</time></trkpt><trkpt lat="40.5796709" lon="9.6955426"><ele>45.0</ele><time>2026-03-27T15:23:31.83Z</time></trkpt><trkpt lat="40.579551" lon="9.6955033"><ele>45.0</ele><time>2026-03-27T15:23:32.829Z</time></trkpt><trkpt lat="40.5794425" lon="9.6954676"><ele>45.0</ele><time>2026-03-27T15:23:33.829Z</time></trkpt><trkpt lat="40.5793524" lon="9.6954321"><ele>45.0</ele><time>2026-03-27T15:23:34.843Z</time></trkpt><trkpt lat="40.579278" lon="9.6954038"><ele>45.0</ele><time>2026-03-27T15:23:35.833Z</time></trkpt><trkpt lat="40.5791911" lon="9.6953618"><ele>45.2</ele><time>2026-03-27T15:23:37.827Z</time></trkpt><trkpt lat="40.5791252" lon="9.6953505"><ele>45.4</ele><time>2026-03-27T15:24:00.831Z</time></trkpt><trkpt lat="40.5789869" lon="9.6953037"><ele>45.599999999999994</ele><time>2026-03-27T15:24:02.83Z</time></trkpt><trkpt lat="40.5789022" lon="9.6952654"><ele>45.8</ele><time>2026-03-27T15:24:03.845Z</time></trkpt><trkpt lat="40.578805" lon="9.6952008"><ele>46.0</ele><time>2026-03-27T15:24:04.836Z</time></trkpt><trkpt lat="40.5787072" lon="9.6951183"><ele>44.599999999999994</ele><time>2026-03-27T15:24:05.829Z</time></trkpt><trkpt lat="40.5786255" lon="9.6950204"><ele>43.199999999999996</ele><time>2026-03-27T15:24:06.827Z</time></trkpt><trkpt lat="40.578558" lon="9.6949192"><ele>41.8</ele><time>2026-03-27T15:24:07.831Z</time></trkpt><trkpt lat="40.5784904" lon="9.6948083"><ele>40.4</ele><time>2026-03-27T15:24:08.83Z</time></trkpt><trkpt lat="40.5784224" lon="9.6947009"><ele>39.0</ele><time>2026-03-27T15:24:09.845Z</time></trkpt><trkpt lat="40.5783574" lon="9.6945962"><ele>39.0</ele><time>2026-03-27T15:24:10.83Z</time></trkpt><trkpt lat="40.5782931" lon="9.6944942"><ele>39.0</ele><time>2026-03-27T15:24:11.831Z</time></trkpt><trkpt lat="40.5782314" lon="9.6943933"><ele>39.0</ele><time>2026-03-27T15:24:12.832Z</time></trkpt><trkpt lat="40.5781689" lon="9.6942921"><ele>39.0</ele><time>2026-03-27T15:24:13.832Z</time></trkpt><trkpt lat="40.5781057" lon="9.6941841"><ele>39.0</ele><time>2026-03-27T15:24:14.831Z</time></trkpt><trkpt lat="40.5780412" lon="9.6940718"><ele>39.8</ele><time>2026-03-27T15:24:15.833Z</time></trkpt><trkpt lat="40.5779716" lon="9.693959"><ele>40.599999999999994</ele><time>2026-03-27T15:24:16.832Z</time></trkpt><trkpt lat="40.5778905" lon="9.6938557"><ele>41.4</ele><time>2026-03-27T15:24:17.832Z</time></trkpt><trkpt lat="40.5778011" lon="9.6937655"><ele>42.199999999999996</ele><time>2026-03-27T15:24:18.828Z</time></trkpt><trkpt lat="40.5777" lon="9.6936973"><ele>43.0</ele><time>2026-03-27T15:24:19.828Z</time></trkpt><trkpt lat="40.5775917" lon="9.6936505"><ele>42.199999999999996</ele><time>2026-03-27T15:24:20.837Z</time></trkpt><trkpt lat="40.577482" lon="9.6936188"><ele>41.4</ele><time>2026-03-27T15:24:21.834Z</time></trkpt><trkpt lat="40.5773776" lon="9.6935944"><ele>40.599999999999994</ele><time>2026-03-27T15:24:22.842Z</time></trkpt><trkpt lat="40.5772795" lon="9.693571"><ele>39.8</ele><time>2026-03-27T15:24:23.831Z</time></trkpt><trkpt lat="40.5771862" lon="9.6935478"><ele>39.0</ele><time>2026-03-27T15:24:24.83Z</time></trkpt><trkpt lat="40.5770981" lon="9.6935299"><ele>39.0</ele><time>2026-03-27T15:24:25.837Z</time></trkpt><trkpt lat="40.5770237" lon="9.6935053"><ele>39.0</ele><time>2026-03-27T15:24:26.833Z</time></trkpt><trkpt lat="40.5769428" lon="9.6934867"><ele>39.0</ele><time>2026-03-27T15:24:27.844Z</time></trkpt><trkpt lat="40.5768773" lon="9.6934653"><ele>39.0</ele><time>2026-03-27T15:24:28.837Z</time></trkpt><trkpt lat="40.5768107" lon="9.6934569"><ele>39.0</ele><time>2026-03-27T15:24:29.837Z</time></trkpt><trkpt lat="40.5767453" lon="9.693453"><ele>39.0</ele><time>2026-03-27T15:24:30.833Z</time></trkpt><trkpt lat="40.576631" lon="9.6934647"><ele>38.4</ele><time>2026-03-27T15:24:32.839Z</time></trkpt><trkpt lat="40.5765374" lon="9.6934826"><ele>37.8</ele><time>2026-03-27T15:24:34.833Z</time></trkpt><trkpt lat="40.5764359" lon="9.6934972"><ele>37.2</ele><time>2026-03-27T15:24:36.834Z</time></trkpt><trkpt lat="40.5763339" lon="9.6935119"><ele>36.6</ele><time>2026-03-27T15:24:38.832Z</time></trkpt><trkpt lat="40.5762245" lon="9.6935483"><ele>36.0</ele><time>2026-03-27T15:24:40.829Z</time></trkpt><trkpt lat="40.5760981" lon="9.6935379"><ele>36.0</ele><time>2026-03-27T15:24:42.833Z</time></trkpt><trkpt lat="40.5760283" lon="9.6935158"><ele>36.0</ele><time>2026-03-27T15:24:43.834Z</time></trkpt><trkpt lat="40.5759634" lon="9.693482"><ele>36.0</ele><time>2026-03-27T15:24:44.831Z</time></trkpt><trkpt lat="40.5758857" lon="9.6934358"><ele>36.0</ele><time>2026-03-27T15:24:45.829Z</time></trkpt><trkpt lat="40.5758057" lon="9.6933993"><ele>36.0</ele><time>2026-03-27T15:24:46.836Z</time></trkpt><trkpt lat="40.5757279" lon="9.6933502"><ele>36.0</ele><time>2026-03-27T15:24:47.83Z</time></trkpt><trkpt lat="40.5756583" lon="9.6932887"><ele>36.0</ele><time>2026-03-27T15:24:48.832Z</time></trkpt><trkpt lat="40.5755977" lon="9.6932101"><ele>36.0</ele><time>2026-03-27T15:24:49.834Z</time></trkpt><trkpt lat="40.5755296" lon="9.69315"><ele>36.0</ele><time>2026-03-27T15:24:50.833Z</time></trkpt><trkpt lat="40.5754582" lon="9.6930832"><ele>36.0</ele><time>2026-03-27T15:24:51.836Z</time></trkpt><trkpt lat="40.5753933" lon="9.6930342"><ele>36.0</ele><time>2026-03-27T15:24:52.834Z</time></trkpt><trkpt lat="40.5753225" lon="9.6929817"><ele>36.0</ele><time>2026-03-27T15:24:53.825Z</time></trkpt><trkpt lat="40.5752487" lon="9.6929307"><ele>36.4</ele><time>2026-03-27T15:24:54.83Z</time></trkpt><trkpt lat="40.5751734" lon="9.6928725"><ele>36.8</ele><time>2026-03-27T15:24:55.828Z</time></trkpt><trkpt lat="40.5750946" lon="9.6928175"><ele>37.199999999999996</ele><time>2026-03-27T15:24:56.839Z</time></trkpt><trkpt lat="40.5750159" lon="9.692756"><ele>37.6</ele><time>2026-03-27T15:24:57.835Z</time></trkpt><trkpt lat="40.5749389" lon="9.6926957"><ele>38.0</ele><time>2026-03-27T15:24:58.828Z</time></trkpt><trkpt lat="40.5748604" lon="9.6926316"><ele>38.666666666666664</ele><time>2026-03-27T15:24:59.826Z</time></trkpt><trkpt lat="40.5747845" lon="9.6925617"><ele>39.33333333333333</ele><time>2026-03-27T15:25:00.833Z</time></trkpt><trkpt lat="40.5747113" lon="9.6924829"><ele>40.0</ele><time>2026-03-27T15:25:01.836Z</time></trkpt><trkpt lat="40.5746408" lon="9.6924025"><ele>40.666666666666664</ele><time>2026-03-27T15:25:02.849Z</time></trkpt><trkpt lat="40.574582" lon="9.6923237"><ele>41.333333333333336</ele><time>2026-03-27T15:25:03.836Z</time></trkpt><trkpt lat="40.5745359" lon="9.6922551"><ele>42.0</ele><time>2026-03-27T15:25:04.831Z</time></trkpt><trkpt lat="40.5744929" lon="9.6921782"><ele>42.285714285714285</ele><time>2026-03-27T15:25:05.829Z</time></trkpt><trkpt lat="40.5744467" lon="9.6921097"><ele>42.57142857142857</ele><time>2026-03-27T15:25:06.835Z</time></trkpt><trkpt lat="40.574401" lon="9.6920503"><ele>42.85714285714286</ele><time>2026-03-27T15:25:07.84Z</time></trkpt><trkpt lat="40.5743576" lon="9.6919814"><ele>43.14285714285714</ele><time>2026-03-27T15:25:08.831Z</time></trkpt><trkpt lat="40.5743123" lon="9.691889"><ele>43.42857142857143</ele><time>2026-03-27T15:25:09.834Z</time></trkpt><trkpt lat="40.5742573" lon="9.6918034"><ele>43.714285714285715</ele><time>2026-03-27T15:25:10.832Z</time></trkpt><trkpt lat="40.5742048" lon="9.6917263"><ele>44.0</ele><time>2026-03-27T15:25:11.848Z</time></trkpt><trkpt lat="40.5741516" lon="9.6916535"><ele>44.0</ele><time>2026-03-27T15:25:12.832Z</time></trkpt><trkpt lat="40.5740982" lon="9.6915862"><ele>44.0</ele><time>2026-03-27T15:25:13.833Z</time></trkpt><trkpt lat="40.5740492" lon="9.6915124"><ele>44.0</ele><time>2026-03-27T15:25:14.839Z</time></trkpt><trkpt lat="40.5740041" lon="9.6914367"><ele>44.0</ele><time>2026-03-27T15:25:15.833Z</time></trkpt><trkpt lat="40.5739542" lon="9.6913699"><ele>44.0</ele><time>2026-03-27T15:25:16.877Z</time></trkpt><trkpt lat="40.5739161" lon="9.6912874"><ele>44.0</ele><time>2026-03-27T15:25:17.834Z</time></trkpt><trkpt lat="40.5738763" lon="9.6912119"><ele>44.0</ele><time>2026-03-27T15:25:18.83Z</time></trkpt><trkpt lat="40.5738305" lon="9.691136"><ele>45.0</ele><time>2026-03-27T15:25:19.831Z</time></trkpt><trkpt lat="40.5737801" lon="9.6910611"><ele>46.0</ele><time>2026-03-27T15:25:20.824Z</time></trkpt><trkpt lat="40.5737241" lon="9.6909788"><ele>47.0</ele><time>2026-03-27T15:25:21.847Z</time></trkpt><trkpt lat="40.5736659" lon="9.6908905"><ele>48.0</ele><time>2026-03-27T15:25:22.831Z</time></trkpt><trkpt lat="40.5736105" lon="9.6907916"><ele>49.00000000000001</ele><time>2026-03-27T15:25:23.831Z</time></trkpt><trkpt lat="40.5735508" lon="9.6907019"><ele>50.0</ele><time>2026-03-27T15:25:24.832Z</time></trkpt><trkpt lat="40.5734877" lon="9.6906163"><ele>50.0</ele><time>2026-03-27T15:25:25.831Z</time></trkpt><trkpt lat="40.5734281" lon="9.6905174"><ele>50.0</ele><time>2026-03-27T15:25:26.841Z</time></trkpt><trkpt lat="40.5733676" lon="9.6904307"><ele>50.0</ele><time>2026-03-27T15:25:27.832Z</time></trkpt><trkpt lat="40.5733088" lon="9.6903397"><ele>50.0</ele><time>2026-03-27T15:25:28.836Z</time></trkpt><trkpt lat="40.5732497" lon="9.6902526"><ele>50.0</ele><time>2026-03-27T15:25:29.83Z</time></trkpt><trkpt lat="40.5731867" lon="9.6901703"><ele>49.66666666666667</ele><time>2026-03-27T15:25:30.834Z</time></trkpt><trkpt lat="40.5731286" lon="9.6900901"><ele>49.333333333333336</ele><time>2026-03-27T15:25:31.83Z</time></trkpt><trkpt lat="40.5730643" lon="9.6900349"><ele>49.0</ele><time>2026-03-27T15:25:32.831Z</time></trkpt><trkpt lat="40.5730033" lon="9.6899911"><ele>48.66666666666667</ele><time>2026-03-27T15:25:33.831Z</time></trkpt><trkpt lat="40.5729056" lon="9.6899061"><ele>48.333333333333336</ele><time>2026-03-27T15:25:35.842Z</time></trkpt><trkpt lat="40.5728354" lon="9.6898488"><ele>48.0</ele><time>2026-03-27T15:25:37.828Z</time></trkpt><trkpt lat="40.5727697" lon="9.689797"><ele>48.0</ele><time>2026-03-27T15:25:40.834Z</time></trkpt><trkpt lat="40.572703" lon="9.6897311"><ele>48.0</ele><time>2026-03-27T15:25:43.836Z</time></trkpt><trkpt lat="40.5726489" lon="9.6896766"><ele>48.0</ele><time>2026-03-27T15:25:45.833Z</time></trkpt><trkpt lat="40.5725763" lon="9.6895998"><ele>48.0</ele><time>2026-03-27T15:25:47.838Z</time></trkpt><trkpt lat="40.5725291" lon="9.689543"><ele>48.0</ele><time>2026-03-27T15:25:48.826Z</time></trkpt><trkpt lat="40.5724842" lon="9.6894829"><ele>48.0</ele><time>2026-03-27T15:25:49.837Z</time></trkpt><trkpt lat="40.5724138" lon="9.6893888"><ele>48.166666666666664</ele><time>2026-03-27T15:25:51.824Z</time></trkpt><trkpt lat="40.5723546" lon="9.6893103"><ele>48.33333333333333</ele><time>2026-03-27T15:25:53.839Z</time></trkpt><trkpt lat="40.5722945" lon="9.6892282"><ele>48.5</ele><time>2026-03-27T15:25:55.841Z</time></trkpt><trkpt lat="40.5722229" lon="9.6891629"><ele>48.666666666666664</ele><time>2026-03-27T15:25:57.837Z</time></trkpt><trkpt lat="40.5721538" lon="9.6891409"><ele>48.83333333333333</ele><time>2026-03-27T15:25:59.835Z</time></trkpt><trkpt lat="40.5720893" lon="9.6891535"><ele>49.0</ele><time>2026-03-27T15:26:01.836Z</time></trkpt><trkpt lat="40.5720133" lon="9.6891778"><ele>49.0</ele><time>2026-03-27T15:26:03.851Z</time></trkpt><trkpt lat="40.5719307" lon="9.6892157"><ele>49.0</ele><time>2026-03-27T15:26:05.836Z</time></trkpt><trkpt lat="40.5718401" lon="9.6892403"><ele>49.0</ele><time>2026-03-27T15:26:07.833Z</time></trkpt><trkpt lat="40.5717348" lon="9.6892382"><ele>49.0</ele><time>2026-03-27T15:26:09.848Z</time></trkpt><trkpt lat="40.5716343" lon="9.6891906"><ele>49.0</ele><time>2026-03-27T15:26:11.825Z</time></trkpt><trkpt lat="40.5715355" lon="9.6890835"><ele>48.99999999999999</ele><time>2026-03-27T15:26:13.833Z</time></trkpt><trkpt lat="40.5714716" lon="9.6890148"><ele>49.0</ele><time>2026-03-27T15:26:14.841Z</time></trkpt><trkpt lat="40.5714061" lon="9.6889473"><ele>49.0</ele><time>2026-03-27T15:26:15.838Z</time></trkpt><trkpt lat="40.5713382" lon="9.6888778"><ele>49.0</ele><time>2026-03-27T15:26:16.829Z</time></trkpt><trkpt lat="40.5712695" lon="9.6888084"><ele>48.99999999999999</ele><time>2026-03-27T15:26:17.838Z</time></trkpt><trkpt lat="40.5712007" lon="9.6887356"><ele>49.0</ele><time>2026-03-27T15:26:18.832Z</time></trkpt><trkpt lat="40.5711298" lon="9.6886589"><ele>50.6</ele><time>2026-03-27T15:26:19.856Z</time></trkpt><trkpt lat="40.5710595" lon="9.6885768"><ele>52.2</ele><time>2026-03-27T15:26:20.832Z</time></trkpt><trkpt lat="40.5709876" lon="9.6884914"><ele>53.800000000000004</ele><time>2026-03-27T15:26:21.836Z</time></trkpt><trkpt lat="40.5709157" lon="9.6883997"><ele>55.400000000000006</ele><time>2026-03-27T15:26:22.834Z</time></trkpt><trkpt lat="40.570843" lon="9.6882998"><ele>57.0</ele><time>2026-03-27T15:26:23.831Z</time></trkpt><trkpt lat="40.5707758" lon="9.688191"><ele>57.0</ele><time>2026-03-27T15:26:24.852Z</time></trkpt><trkpt lat="40.5707094" lon="9.6880788"><ele>57.0</ele><time>2026-03-27T15:26:25.831Z</time></trkpt><trkpt lat="40.5706466" lon="9.6879789"><ele>57.0</ele><time>2026-03-27T15:26:26.84Z</time></trkpt><trkpt lat="40.5705815" lon="9.6878908"><ele>57.0</ele><time>2026-03-27T15:26:27.834Z</time></trkpt><trkpt lat="40.5705095" lon="9.687811"><ele>57.0</ele><time>2026-03-27T15:26:28.828Z</time></trkpt><trkpt lat="40.5704313" lon="9.6877338"><ele>58.6</ele><time>2026-03-27T15:26:29.835Z</time></trkpt><trkpt lat="40.5703473" lon="9.6876627"><ele>60.2</ele><time>2026-03-27T15:26:30.828Z</time></trkpt><trkpt lat="40.5702677" lon="9.6875954"><ele>61.8</ele><time>2026-03-27T15:26:31.846Z</time></trkpt><trkpt lat="40.5702034" lon="9.6875453"><ele>63.4</ele><time>2026-03-27T15:26:32.83Z</time></trkpt><trkpt lat="40.5701025" lon="9.6874668"><ele>65.0</ele><time>2026-03-27T15:26:34.833Z</time></trkpt><trkpt lat="40.5700368" lon="9.6874457"><ele>65.0</ele><time>2026-03-27T15:26:36.828Z</time></trkpt><trkpt lat="40.5699858" lon="9.6875223"><ele>65.0</ele><time>2026-03-27T15:26:39.833Z</time></trkpt><trkpt lat="40.569997" lon="9.6876871"><ele>65.0</ele><time>2026-03-27T15:26:41.833Z</time></trkpt><trkpt lat="40.570011" lon="9.6878053"><ele>65.0</ele><time>2026-03-27T15:26:42.831Z</time></trkpt><trkpt lat="40.570028" lon="9.6879289"><ele>65.0</ele><time>2026-03-27T15:26:43.854Z</time></trkpt><trkpt lat="40.5700426" lon="9.6880679"><ele>65.0</ele><time>2026-03-27T15:26:44.834Z</time></trkpt><trkpt lat="40.5700602" lon="9.6882028"><ele>65.0</ele><time>2026-03-27T15:26:45.835Z</time></trkpt><trkpt lat="40.5700759" lon="9.6883476"><ele>65.0</ele><time>2026-03-27T15:26:46.833Z</time></trkpt><trkpt lat="40.5700852" lon="9.6884926"><ele>65.0</ele><time>2026-03-27T15:26:47.835Z</time></trkpt><trkpt lat="40.5700963" lon="9.6886425"><ele>65.0</ele><time>2026-03-27T15:26:48.829Z</time></trkpt><trkpt lat="40.5701053" lon="9.6887953"><ele>63.75</ele><time>2026-03-27T15:26:49.83Z</time></trkpt><trkpt lat="40.5701155" lon="9.6889526"><ele>62.5</ele><time>2026-03-27T15:26:50.829Z</time></trkpt><trkpt lat="40.5701243" lon="9.6891087"><ele>61.25</ele><time>2026-03-27T15:26:51.833Z</time></trkpt><trkpt lat="40.570131" lon="9.6892665"><ele>60.0</ele><time>2026-03-27T15:26:52.831Z</time></trkpt><trkpt lat="40.5701388" lon="9.6894282"><ele>58.5</ele><time>2026-03-27T15:26:53.834Z</time></trkpt><trkpt lat="40.5701457" lon="9.6895922"><ele>57.0</ele><time>2026-03-27T15:26:54.832Z</time></trkpt><trkpt lat="40.5701529" lon="9.6897593"><ele>55.5</ele><time>2026-03-27T15:26:55.833Z</time></trkpt><trkpt lat="40.5701618" lon="9.6899288"><ele>54.0</ele><time>2026-03-27T15:26:56.831Z</time></trkpt><trkpt lat="40.5701698" lon="9.6901014"><ele>53.25</ele><time>2026-03-27T15:26:57.83Z</time></trkpt><trkpt lat="40.5701783" lon="9.690278"><ele>52.5</ele><time>2026-03-27T15:26:58.837Z</time></trkpt><trkpt lat="40.5701851" lon="9.6904542"><ele>51.75</ele><time>2026-03-27T15:26:59.833Z</time></trkpt><trkpt lat="40.5701905" lon="9.6906281"><ele>51.0</ele><time>2026-03-27T15:27:00.841Z</time></trkpt><trkpt lat="40.5701957" lon="9.6908002"><ele>51.0</ele><time>2026-03-27T15:27:01.833Z</time></trkpt><trkpt lat="40.5702007" lon="9.6909697"><ele>51.0</ele><time>2026-03-27T15:27:02.836Z</time></trkpt><trkpt lat="40.5702042" lon="9.6911366"><ele>51.0</ele><time>2026-03-27T15:27:03.83Z</time></trkpt><trkpt lat="40.5702049" lon="9.6913029"><ele>51.0</ele><time>2026-03-27T15:27:04.834Z</time></trkpt><trkpt lat="40.5702058" lon="9.6914681"><ele>50.25</ele><time>2026-03-27T15:27:05.829Z</time></trkpt><trkpt lat="40.5702055" lon="9.6916329"><ele>49.5</ele><time>2026-03-27T15:27:06.843Z</time></trkpt><trkpt lat="40.5701999" lon="9.6918001"><ele>48.75</ele><time>2026-03-27T15:27:07.831Z</time></trkpt><trkpt lat="40.5701875" lon="9.6919673"><ele>48.0</ele><time>2026-03-27T15:27:08.833Z</time></trkpt><trkpt lat="40.5701698" lon="9.6921332"><ele>47.0</ele><time>2026-03-27T15:27:09.833Z</time></trkpt><trkpt lat="40.5701457" lon="9.6922991"><ele>46.0</ele><time>2026-03-27T15:27:10.839Z</time></trkpt><trkpt lat="40.5701173" lon="9.6924652"><ele>45.0</ele><time>2026-03-27T15:27:11.833Z</time></trkpt><trkpt lat="40.5700828" lon="9.692626"><ele>44.0</ele><time>2026-03-27T15:27:12.853Z</time></trkpt><trkpt lat="40.5700412" lon="9.6927772"><ele>43.2</ele><time>2026-03-27T15:27:13.832Z</time></trkpt><trkpt lat="40.5699985" lon="9.6929207"><ele>42.400000000000006</ele><time>2026-03-27T15:27:14.832Z</time></trkpt><trkpt lat="40.5699666" lon="9.6930553"><ele>41.6</ele><time>2026-03-27T15:27:15.833Z</time></trkpt><trkpt lat="40.5699465" lon="9.6931745"><ele>40.8</ele><time>2026-03-27T15:27:16.831Z</time></trkpt><trkpt lat="40.5699313" lon="9.6932714"><ele>40.0</ele><time>2026-03-27T15:27:17.847Z</time></trkpt><trkpt lat="40.5698977" lon="9.6934"><ele>40.0</ele><time>2026-03-27T15:27:19.829Z</time></trkpt><trkpt lat="40.5698544" lon="9.6934825"><ele>40.0</ele><time>2026-03-27T15:27:21.833Z</time></trkpt><trkpt lat="40.5697892" lon="9.6935161"><ele>40.0</ele><time>2026-03-27T15:27:23.832Z</time></trkpt><trkpt lat="40.5696545" lon="9.6934876"><ele>40.0</ele><time>2026-03-27T15:27:25.834Z</time></trkpt><trkpt lat="40.5695589" lon="9.6934662"><ele>40.0</ele><time>2026-03-27T15:27:26.833Z</time></trkpt><trkpt lat="40.5694551" lon="9.6934426"><ele>40.25</ele><time>2026-03-27T15:27:27.83Z</time></trkpt><trkpt lat="40.5693329" lon="9.6934146"><ele>40.5</ele><time>2026-03-27T15:27:28.831Z</time></trkpt><trkpt lat="40.5692119" lon="9.693393"><ele>40.75</ele><time>2026-03-27T15:27:29.831Z</time></trkpt><trkpt lat="40.5690969" lon="9.69337"><ele>41.0</ele><time>2026-03-27T15:27:30.845Z</time></trkpt><trkpt lat="40.5689854" lon="9.6933505"><ele>41.0</ele><time>2026-03-27T15:27:31.836Z</time></trkpt><trkpt lat="40.5688736" lon="9.6933386"><ele>41.0</ele><time>2026-03-27T15:27:32.834Z</time></trkpt><trkpt lat="40.5687667" lon="9.6933319"><ele>41.0</ele><time>2026-03-27T15:27:33.829Z</time></trkpt><trkpt lat="40.5686699" lon="9.6933243"><ele>41.0</ele><time>2026-03-27T15:27:34.835Z</time></trkpt><trkpt lat="40.5685898" lon="9.6933151"><ele>41.0</ele><time>2026-03-27T15:27:35.825Z</time></trkpt><trkpt lat="40.5685267" lon="9.6933066"><ele>41.0</ele><time>2026-03-27T15:27:36.833Z</time></trkpt><trkpt lat="40.5684544" lon="9.6932881"><ele>41.0</ele><time>2026-03-27T15:27:38.836Z</time></trkpt><trkpt lat="40.5683803" lon="9.6932822"><ele>41.0</ele><time>2026-03-27T16:28:31.821Z</time></trkpt><trkpt lat="40.5685684" lon="9.6933128"><ele>41.0</ele><time>2026-03-27T16:28:34.837Z</time></trkpt><trkpt lat="40.5686369" lon="9.6933153"><ele>41.0</ele><time>2026-03-27T16:28:35.852Z</time></trkpt><trkpt lat="40.5687073" lon="9.6933211"><ele>41.0</ele><time>2026-03-27T16:28:36.834Z</time></trkpt><trkpt lat="40.5687794" lon="9.693324"><ele>41.0</ele><time>2026-03-27T16:28:37.833Z</time></trkpt><trkpt lat="40.5688602" lon="9.6933389"><ele>41.0</ele><time>2026-03-27T16:28:38.842Z</time></trkpt><trkpt lat="40.568946" lon="9.6933584"><ele>41.0</ele><time>2026-03-27T16:28:39.834Z</time></trkpt><trkpt lat="40.5690355" lon="9.6933732"><ele>41.0</ele><time>2026-03-27T16:28:40.834Z</time></trkpt><trkpt lat="40.5691251" lon="9.6933887"><ele>41.0</ele><time>2026-03-27T16:28:41.836Z</time></trkpt><trkpt lat="40.5692155" lon="9.6934027"><ele>41.0</ele><time>2026-03-27T16:28:42.832Z</time></trkpt><trkpt lat="40.5693023" lon="9.6934169"><ele>41.0</ele><time>2026-03-27T16:28:43.833Z</time></trkpt><trkpt lat="40.569387" lon="9.6934346"><ele>41.0</ele><time>2026-03-27T16:28:44.841Z</time></trkpt><trkpt lat="40.5694722" lon="9.6934581"><ele>41.0</ele><time>2026-03-27T16:28:45.835Z</time></trkpt><trkpt lat="40.5695552" lon="9.6934818"><ele>41.0</ele><time>2026-03-27T16:28:46.837Z</time></trkpt><trkpt lat="40.5696365" lon="9.6935071"><ele>41.0</ele><time>2026-03-27T16:28:47.829Z</time></trkpt><trkpt lat="40.5697084" lon="9.6935297"><ele>40.8</ele><time>2026-03-27T16:28:48.829Z</time></trkpt><trkpt lat="40.5697742" lon="9.693539"><ele>40.599999999999994</ele><time>2026-03-27T16:28:49.833Z</time></trkpt><trkpt lat="40.5698758" lon="9.693496"><ele>40.4</ele><time>2026-03-27T16:28:51.836Z</time></trkpt><trkpt lat="40.5699232" lon="9.693355"><ele>40.2</ele><time>2026-03-27T16:28:53.835Z</time></trkpt><trkpt lat="40.5699358" lon="9.693253"><ele>40.0</ele><time>2026-03-27T16:28:54.832Z</time></trkpt><trkpt lat="40.5699529" lon="9.6931374"><ele>40.0</ele><time>2026-03-27T16:28:55.85Z</time></trkpt><trkpt lat="40.5699764" lon="9.6930136"><ele>40.0</ele><time>2026-03-27T16:28:56.84Z</time></trkpt><trkpt lat="40.5700071" lon="9.6928945"><ele>40.0</ele><time>2026-03-27T16:28:57.83Z</time></trkpt><trkpt lat="40.5700434" lon="9.6927734"><ele>40.0</ele><time>2026-03-27T16:28:58.837Z</time></trkpt><trkpt lat="40.5700796" lon="9.6926456"><ele>40.0</ele><time>2026-03-27T16:28:59.836Z</time></trkpt><trkpt lat="40.5701124" lon="9.69251"><ele>41.0</ele><time>2026-03-27T16:29:00.828Z</time></trkpt><trkpt lat="40.5701401" lon="9.6923665"><ele>42.0</ele><time>2026-03-27T16:29:01.833Z</time></trkpt><trkpt lat="40.5701615" lon="9.6922165"><ele>43.0</ele><time>2026-03-27T16:29:02.839Z</time></trkpt><trkpt lat="40.5701778" lon="9.6920608"><ele>44.0</ele><time>2026-03-27T16:29:03.836Z</time></trkpt><trkpt lat="40.5701903" lon="9.6919"><ele>45.0</ele><time>2026-03-27T16:29:04.833Z</time></trkpt><trkpt lat="40.5701989" lon="9.6917342"><ele>46.0</ele><time>2026-03-27T16:29:05.83Z</time></trkpt><trkpt lat="40.570204" lon="9.6915651"><ele>47.0</ele><time>2026-03-27T16:29:06.833Z</time></trkpt><trkpt lat="40.570206" lon="9.6913929"><ele>48.0</ele><time>2026-03-27T16:29:07.834Z</time></trkpt><trkpt lat="40.5702058" lon="9.6912174"><ele>48.75</ele><time>2026-03-27T16:29:08.832Z</time></trkpt><trkpt lat="40.570204" lon="9.6910384"><ele>49.5</ele><time>2026-03-27T16:29:09.841Z</time></trkpt><trkpt lat="40.5702002" lon="9.6908598"><ele>50.25</ele><time>2026-03-27T16:29:10.834Z</time></trkpt><trkpt lat="40.5701971" lon="9.690692"><ele>51.0</ele><time>2026-03-27T16:29:11.837Z</time></trkpt><trkpt lat="40.570193" lon="9.6905261"><ele>51.0</ele><time>2026-03-27T16:29:12.837Z</time></trkpt><trkpt lat="40.5701872" lon="9.6903556"><ele>51.0</ele><time>2026-03-27T16:29:13.834Z</time></trkpt><trkpt lat="40.5701799" lon="9.690182"><ele>51.0</ele><time>2026-03-27T16:29:14.836Z</time></trkpt><trkpt lat="40.5701727" lon="9.6900055"><ele>51.0</ele><time>2026-03-27T16:29:15.834Z</time></trkpt><trkpt lat="40.5701645" lon="9.6898282"><ele>51.75</ele><time>2026-03-27T16:29:16.856Z</time></trkpt><trkpt lat="40.5701558" lon="9.6896503"><ele>52.5</ele><time>2026-03-27T16:29:17.837Z</time></trkpt><trkpt lat="40.5701462" lon="9.6894707"><ele>53.25</ele><time>2026-03-27T16:29:18.837Z</time></trkpt><trkpt lat="40.5701376" lon="9.6892918"><ele>54.0</ele><time>2026-03-27T16:29:19.841Z</time></trkpt><trkpt lat="40.5701283" lon="9.6891118"><ele>55.5</ele><time>2026-03-27T16:29:20.836Z</time></trkpt><trkpt lat="40.570118" lon="9.6889291"><ele>57.0</ele><time>2026-03-27T16:29:21.851Z</time></trkpt><trkpt lat="40.5701065" lon="9.6887456"><ele>58.5</ele><time>2026-03-27T16:29:22.833Z</time></trkpt><trkpt lat="40.570098" lon="9.688562"><ele>60.0</ele><time>2026-03-27T16:29:23.845Z</time></trkpt><trkpt lat="40.5700912" lon="9.6883817"><ele>61.25</ele><time>2026-03-27T16:29:24.84Z</time></trkpt><trkpt lat="40.5700828" lon="9.6882052"><ele>62.5</ele><time>2026-03-27T16:29:25.833Z</time></trkpt><trkpt lat="40.5700705" lon="9.6880327"><ele>63.75</ele><time>2026-03-27T16:29:26.836Z</time></trkpt><trkpt lat="40.5700572" lon="9.6878669"><ele>65.0</ele><time>2026-03-27T16:29:27.838Z</time></trkpt><trkpt lat="40.5700431" lon="9.6877145"><ele>65.0</ele><time>2026-03-27T16:29:28.838Z</time></trkpt><trkpt lat="40.570023" lon="9.6875749"><ele>65.0</ele><time>2026-03-27T16:29:29.844Z</time></trkpt><trkpt lat="40.5699944" lon="9.687458"><ele>65.0</ele><time>2026-03-27T16:29:30.835Z</time></trkpt><trkpt lat="40.5699535" lon="9.6873604"><ele>65.0</ele><time>2026-03-27T16:29:31.837Z</time></trkpt><trkpt lat="40.5699017" lon="9.6872762"><ele>65.0</ele><time>2026-03-27T16:29:32.837Z</time></trkpt><trkpt lat="40.5698417" lon="9.6872036"><ele>65.0</ele><time>2026-03-27T16:29:33.84Z</time></trkpt><trkpt lat="40.5697767" lon="9.6871372"><ele>65.0</ele><time>2026-03-27T16:29:34.839Z</time></trkpt><trkpt lat="40.5697055" lon="9.6870754"><ele>65.0</ele><time>2026-03-27T16:29:35.84Z</time></trkpt><trkpt lat="40.5696287" lon="9.6870122"><ele>65.0</ele><time>2026-03-27T16:29:36.834Z</time></trkpt><trkpt lat="40.5695463" lon="9.6869462"><ele>65.0</ele><time>2026-03-27T16:29:37.84Z</time></trkpt><trkpt lat="40.5694652" lon="9.6868822"><ele>65.0</ele><time>2026-03-27T16:29:38.848Z</time></trkpt><trkpt lat="40.5693932" lon="9.6868265"><ele>65.83333333333334</ele><time>2026-03-27T16:29:39.841Z</time></trkpt><trkpt lat="40.5693301" lon="9.6867786"><ele>66.66666666666667</ele><time>2026-03-27T16:29:40.83Z</time></trkpt><trkpt lat="40.5692659" lon="9.6867309"><ele>67.5</ele><time>2026-03-27T16:29:41.838Z</time></trkpt><trkpt lat="40.5692002" lon="9.6866821"><ele>68.33333333333333</ele><time>2026-03-27T16:29:42.833Z</time></trkpt><trkpt lat="40.569134" lon="9.6866295"><ele>69.16666666666666</ele><time>2026-03-27T16:29:43.838Z</time></trkpt><trkpt lat="40.5690669" lon="9.6865719"><ele>70.0</ele><time>2026-03-27T16:29:44.835Z</time></trkpt><trkpt lat="40.569005" lon="9.6865192"><ele>70.0</ele><time>2026-03-27T16:29:45.838Z</time></trkpt><trkpt lat="40.5689409" lon="9.6864792"><ele>70.0</ele><time>2026-03-27T16:29:46.833Z</time></trkpt><trkpt lat="40.5688718" lon="9.6864385"><ele>70.0</ele><time>2026-03-27T16:29:47.835Z</time></trkpt><trkpt lat="40.5688081" lon="9.6864179"><ele>70.0</ele><time>2026-03-27T16:29:48.838Z</time></trkpt><trkpt lat="40.5687453" lon="9.686396"><ele>70.0</ele><time>2026-03-27T16:29:49.836Z</time></trkpt><trkpt lat="40.5686363" lon="9.6863392"><ele>70.0</ele><time>2026-03-27T16:29:51.838Z</time></trkpt><trkpt lat="40.5685784" lon="9.6863052"><ele>69.83333333333333</ele><time>2026-03-27T16:29:52.839Z</time></trkpt><trkpt lat="40.56852" lon="9.686263"><ele>69.66666666666666</ele><time>2026-03-27T16:29:53.837Z</time></trkpt><trkpt lat="40.568455" lon="9.6862169"><ele>69.5</ele><time>2026-03-27T16:29:54.833Z</time></trkpt><trkpt lat="40.5683845" lon="9.6861749"><ele>69.33333333333333</ele><time>2026-03-27T16:29:55.839Z</time></trkpt><trkpt lat="40.5683069" lon="9.6861398"><ele>69.16666666666667</ele><time>2026-03-27T16:29:56.842Z</time></trkpt><trkpt lat="40.5682242" lon="9.6861119"><ele>69.0</ele><time>2026-03-27T16:29:57.845Z</time></trkpt><trkpt lat="40.568144" lon="9.6860798"><ele>69.0</ele><time>2026-03-27T16:29:58.833Z</time></trkpt><trkpt lat="40.5680628" lon="9.6860638"><ele>69.0</ele><time>2026-03-27T16:29:59.838Z</time></trkpt><trkpt lat="40.5679903" lon="9.6860549"><ele>69.0</ele><time>2026-03-27T16:30:00.846Z</time></trkpt><trkpt lat="40.5679265" lon="9.6860464"><ele>69.0</ele><time>2026-03-27T16:30:01.847Z</time></trkpt><trkpt lat="40.5678101" lon="9.6860137"><ele>69.0</ele><time>2026-03-27T16:30:03.838Z</time></trkpt><trkpt lat="40.5677002" lon="9.6859508"><ele>69.0</ele><time>2026-03-27T16:30:05.837Z</time></trkpt><trkpt lat="40.5676419" lon="9.6859045"><ele>69.0</ele><time>2026-03-27T16:30:06.84Z</time></trkpt><trkpt lat="40.5675772" lon="9.6858502"><ele>69.0</ele><time>2026-03-27T16:30:07.836Z</time></trkpt><trkpt lat="40.5675158" lon="9.6857947"><ele>69.0</ele><time>2026-03-27T16:30:08.839Z</time></trkpt><trkpt lat="40.5674569" lon="9.6857407"><ele>69.0</ele><time>2026-03-27T16:30:09.838Z</time></trkpt><trkpt lat="40.5673939" lon="9.6856834"><ele>69.0</ele><time>2026-03-27T16:30:10.861Z</time></trkpt><trkpt lat="40.5673349" lon="9.6856303"><ele>69.0</ele><time>2026-03-27T16:30:11.835Z</time></trkpt><trkpt lat="40.5672774" lon="9.6855793"><ele>69.0</ele><time>2026-03-27T16:30:12.838Z</time></trkpt><trkpt lat="40.5672202" lon="9.6855233"><ele>69.0</ele><time>2026-03-27T16:30:13.833Z</time></trkpt><trkpt lat="40.5671665" lon="9.6854628"><ele>69.0</ele><time>2026-03-27T16:30:14.837Z</time></trkpt><trkpt lat="40.5671062" lon="9.6854098"><ele>69.0</ele><time>2026-03-27T16:30:15.835Z</time></trkpt><trkpt lat="40.5670362" lon="9.685373"><ele>69.0</ele><time>2026-03-27T16:30:16.837Z</time></trkpt><trkpt lat="40.5669625" lon="9.6853495"><ele>69.0</ele><time>2026-03-27T16:30:17.842Z</time></trkpt><trkpt lat="40.5668831" lon="9.6853297"><ele>69.0</ele><time>2026-03-27T16:30:18.841Z</time></trkpt><trkpt lat="40.5667969" lon="9.6853113"><ele>68.57142857142857</ele><time>2026-03-27T16:30:19.84Z</time></trkpt><trkpt lat="40.5667148" lon="9.6852774"><ele>68.14285714285715</ele><time>2026-03-27T16:30:20.852Z</time></trkpt><trkpt lat="40.5666343" lon="9.6852494"><ele>67.71428571428572</ele><time>2026-03-27T16:30:21.837Z</time></trkpt><trkpt lat="40.5665637" lon="9.6852207"><ele>67.28571428571429</ele><time>2026-03-27T16:30:22.841Z</time></trkpt><trkpt lat="40.566499" lon="9.685195"><ele>66.85714285714286</ele><time>2026-03-27T16:30:23.837Z</time></trkpt><trkpt lat="40.566438" lon="9.6851629"><ele>66.42857142857143</ele><time>2026-03-27T16:30:24.843Z</time></trkpt><trkpt lat="40.5663796" lon="9.6851303"><ele>66.0</ele><time>2026-03-27T16:30:25.833Z</time></trkpt><trkpt lat="40.5663204" lon="9.6850963"><ele>65.5</ele><time>2026-03-27T16:30:26.832Z</time></trkpt><trkpt lat="40.5662651" lon="9.6850565"><ele>65.0</ele><time>2026-03-27T16:30:27.837Z</time></trkpt><trkpt lat="40.5662076" lon="9.6850119"><ele>64.5</ele><time>2026-03-27T16:30:28.837Z</time></trkpt><trkpt lat="40.5661483" lon="9.6849641"><ele>64.0</ele><time>2026-03-27T16:30:29.835Z</time></trkpt><trkpt lat="40.566077" lon="9.6848991"><ele>63.5</ele><time>2026-03-27T16:30:30.833Z</time></trkpt><trkpt lat="40.5660053" lon="9.6848199"><ele>63.0</ele><time>2026-03-27T16:30:31.838Z</time></trkpt><trkpt lat="40.565937" lon="9.6847338"><ele>62.666666666666664</ele><time>2026-03-27T16:30:32.841Z</time></trkpt><trkpt lat="40.5658681" lon="9.6846543"><ele>62.33333333333333</ele><time>2026-03-27T16:30:33.833Z</time></trkpt><trkpt lat="40.5658095" lon="9.6845691"><ele>62.0</ele><time>2026-03-27T16:30:34.842Z</time></trkpt><trkpt lat="40.5657494" lon="9.6844936"><ele>61.666666666666664</ele><time>2026-03-27T16:30:35.834Z</time></trkpt><trkpt lat="40.5656864" lon="9.6844202"><ele>61.33333333333333</ele><time>2026-03-27T16:30:36.844Z</time></trkpt><trkpt lat="40.5656321" lon="9.6843623"><ele>61.0</ele><time>2026-03-27T16:30:37.837Z</time></trkpt><trkpt lat="40.5655806" lon="9.6843087"><ele>60.33333333333333</ele><time>2026-03-27T16:30:38.842Z</time></trkpt><trkpt lat="40.5655271" lon="9.68426"><ele>59.666666666666664</ele><time>2026-03-27T16:30:39.836Z</time></trkpt><trkpt lat="40.5653976" lon="9.6842052"><ele>59.0</ele><time>2026-03-27T16:30:41.834Z</time></trkpt><trkpt lat="40.5653334" lon="9.6841792"><ele>58.33333333333333</ele><time>2026-03-27T16:30:42.835Z</time></trkpt><trkpt lat="40.5652629" lon="9.6841446"><ele>57.666666666666664</ele><time>2026-03-27T16:30:43.848Z</time></trkpt><trkpt lat="40.5651782" lon="9.6841065"><ele>57.0</ele><time>2026-03-27T16:30:44.84Z</time></trkpt><trkpt lat="40.5650984" lon="9.6840686"><ele>56.400000000000006</ele><time>2026-03-27T16:30:45.843Z</time></trkpt><trkpt lat="40.5650125" lon="9.6840121"><ele>55.800000000000004</ele><time>2026-03-27T16:30:46.836Z</time></trkpt><trkpt lat="40.5649159" lon="9.6839557"><ele>55.2</ele><time>2026-03-27T16:30:47.843Z</time></trkpt><trkpt lat="40.56482" lon="9.6839032"><ele>54.6</ele><time>2026-03-27T16:30:48.831Z</time></trkpt><trkpt lat="40.5647259" lon="9.6838498"><ele>54.0</ele><time>2026-03-27T16:30:49.845Z</time></trkpt><trkpt lat="40.5646304" lon="9.6838293"><ele>54.0</ele><time>2026-03-27T16:30:50.839Z</time></trkpt><trkpt lat="40.5645368" lon="9.6838214"><ele>54.0</ele><time>2026-03-27T16:30:51.84Z</time></trkpt><trkpt lat="40.5644458" lon="9.6838134"><ele>54.0</ele><time>2026-03-27T16:30:52.84Z</time></trkpt><trkpt lat="40.5643545" lon="9.6838061"><ele>54.0</ele><time>2026-03-27T16:30:53.834Z</time></trkpt><trkpt lat="40.5642679" lon="9.6837974"><ele>54.0</ele><time>2026-03-27T16:30:54.839Z</time></trkpt><trkpt lat="40.5641848" lon="9.6837908"><ele>54.0</ele><time>2026-03-27T16:30:55.831Z</time></trkpt><trkpt lat="40.5641049" lon="9.6837907"><ele>53.42857142857143</ele><time>2026-03-27T16:30:56.838Z</time></trkpt><trkpt lat="40.5640288" lon="9.6837985"><ele>52.857142857142854</ele><time>2026-03-27T16:30:57.836Z</time></trkpt><trkpt lat="40.5639591" lon="9.6838098"><ele>52.28571428571429</ele><time>2026-03-27T16:30:58.838Z</time></trkpt><trkpt lat="40.5638956" lon="9.6838204"><ele>51.714285714285715</ele><time>2026-03-27T16:30:59.844Z</time></trkpt><trkpt lat="40.5638289" lon="9.6838312"><ele>51.142857142857146</ele><time>2026-03-27T16:31:00.837Z</time></trkpt><trkpt lat="40.5637564" lon="9.6838407"><ele>50.57142857142858</ele><time>2026-03-27T16:31:01.844Z</time></trkpt><trkpt lat="40.5636803" lon="9.6838577"><ele>50.0</ele><time>2026-03-27T16:31:02.837Z</time></trkpt><trkpt lat="40.5636066" lon="9.6838598"><ele>49.16666666666667</ele><time>2026-03-27T16:31:03.84Z</time></trkpt><trkpt lat="40.5635315" lon="9.6838531"><ele>48.333333333333336</ele><time>2026-03-27T16:31:04.839Z</time></trkpt><trkpt lat="40.5634521" lon="9.6838488"><ele>47.5</ele><time>2026-03-27T16:31:05.833Z</time></trkpt><trkpt lat="40.5633694" lon="9.6838303"><ele>46.66666666666667</ele><time>2026-03-27T16:31:06.854Z</time></trkpt><trkpt lat="40.5632858" lon="9.6838143"><ele>45.833333333333336</ele><time>2026-03-27T16:31:07.836Z</time></trkpt><trkpt lat="40.5631973" lon="9.6838052"><ele>45.0</ele><time>2026-03-27T16:31:08.834Z</time></trkpt><trkpt lat="40.5631104" lon="9.683796"><ele>45.0</ele><time>2026-03-27T16:31:09.837Z</time></trkpt><trkpt lat="40.5630159" lon="9.6837852"><ele>45.0</ele><time>2026-03-27T16:31:10.837Z</time></trkpt><trkpt lat="40.5629208" lon="9.6837806"><ele>45.0</ele><time>2026-03-27T16:31:11.836Z</time></trkpt><trkpt lat="40.5628248" lon="9.6837865"><ele>45.0</ele><time>2026-03-27T16:31:12.839Z</time></trkpt><trkpt lat="40.5627335" lon="9.683791"><ele>45.0</ele><time>2026-03-27T16:31:13.842Z</time></trkpt><trkpt lat="40.5626499" lon="9.6837949"><ele>44.333333333333336</ele><time>2026-03-27T16:31:14.841Z</time></trkpt><trkpt lat="40.5625709" lon="9.6837907"><ele>43.666666666666664</ele><time>2026-03-27T16:31:15.842Z</time></trkpt><trkpt lat="40.562493" lon="9.6837768"><ele>43.0</ele><time>2026-03-27T16:31:16.831Z</time></trkpt><trkpt lat="40.5624132" lon="9.6837478"><ele>42.33333333333333</ele><time>2026-03-27T16:31:17.842Z</time></trkpt><trkpt lat="40.5623302" lon="9.6837125"><ele>41.666666666666664</ele><time>2026-03-27T16:31:18.841Z</time></trkpt><trkpt lat="40.5622488" lon="9.6836777"><ele>41.0</ele><time>2026-03-27T16:31:19.839Z</time></trkpt><trkpt lat="40.5621675" lon="9.6836282"><ele>41.8</ele><time>2026-03-27T16:31:20.836Z</time></trkpt><trkpt lat="40.5620879" lon="9.683567"><ele>42.599999999999994</ele><time>2026-03-27T16:31:21.841Z</time></trkpt><trkpt lat="40.5620092" lon="9.6834833"><ele>43.4</ele><time>2026-03-27T16:31:22.838Z</time></trkpt><trkpt lat="40.5619274" lon="9.6833983"><ele>44.2</ele><time>2026-03-27T16:31:23.841Z</time></trkpt><trkpt lat="40.5618409" lon="9.6833335"><ele>45.0</ele><time>2026-03-27T16:31:24.836Z</time></trkpt><trkpt lat="40.5617554" lon="9.6832677"><ele>45.0</ele><time>2026-03-27T16:31:25.847Z</time></trkpt><trkpt lat="40.5616755" lon="9.6832092"><ele>45.0</ele><time>2026-03-27T16:31:26.838Z</time></trkpt><trkpt lat="40.5616044" lon="9.68315"><ele>45.0</ele><time>2026-03-27T16:31:27.837Z</time></trkpt><trkpt lat="40.5615374" lon="9.6831106"><ele>45.0</ele><time>2026-03-27T16:31:28.837Z</time></trkpt><trkpt lat="40.561463" lon="9.683076"><ele>45.0</ele><time>2026-03-27T16:31:29.835Z</time></trkpt><trkpt lat="40.5613889" lon="9.6830492"><ele>45.0</ele><time>2026-03-27T16:31:30.834Z</time></trkpt><trkpt lat="40.5613231" lon="9.6830166"><ele>45.2</ele><time>2026-03-27T16:31:31.839Z</time></trkpt><trkpt lat="40.5611988" lon="9.6829615"><ele>45.4</ele><time>2026-03-27T16:31:33.842Z</time></trkpt><trkpt lat="40.5611053" lon="9.6829119"><ele>45.599999999999994</ele><time>2026-03-27T16:31:35.836Z</time></trkpt><trkpt lat="40.5610181" lon="9.6828685"><ele>45.8</ele><time>2026-03-27T16:31:39.836Z</time></trkpt><trkpt lat="40.5609383" lon="9.682801"><ele>46.0</ele><time>2026-03-27T16:31:41.833Z</time></trkpt><trkpt lat="40.5608461" lon="9.6826905"><ele>46.0</ele><time>2026-03-27T16:31:43.833Z</time></trkpt><trkpt lat="40.5607992" lon="9.6826347"><ele>46.0</ele><time>2026-03-27T16:31:44.831Z</time></trkpt><trkpt lat="40.5606911" lon="9.6825427"><ele>46.0</ele><time>2026-03-27T16:31:46.834Z</time></trkpt><trkpt lat="40.560594" lon="9.6824299"><ele>46.0</ele><time>2026-03-27T16:31:48.835Z</time></trkpt><trkpt lat="40.5605407" lon="9.6823514"><ele>46.0</ele><time>2026-03-27T16:31:49.833Z</time></trkpt><trkpt lat="40.5604827" lon="9.6822665"><ele>46.0</ele><time>2026-03-27T16:31:50.857Z</time></trkpt><trkpt lat="40.5604236" lon="9.6821746"><ele>46.0</ele><time>2026-03-27T16:31:51.836Z</time></trkpt><trkpt lat="40.5603702" lon="9.6820948"><ele>46.0</ele><time>2026-03-27T16:31:52.839Z</time></trkpt><trkpt lat="40.560321" lon="9.6820223"><ele>46.0</ele><time>2026-03-27T16:31:53.833Z</time></trkpt><trkpt lat="40.5602667" lon="9.6819527"><ele>46.0</ele><time>2026-03-27T16:31:54.84Z</time></trkpt><trkpt lat="40.5602055" lon="9.6818754"><ele>46.0</ele><time>2026-03-27T16:31:55.839Z</time></trkpt><trkpt lat="40.5601421" lon="9.6818005"><ele>45.5</ele><time>2026-03-27T16:31:56.84Z</time></trkpt><trkpt lat="40.5600765" lon="9.6817329"><ele>45.0</ele><time>2026-03-27T16:31:57.839Z</time></trkpt><trkpt lat="40.5600083" lon="9.6816744"><ele>44.5</ele><time>2026-03-27T16:31:58.845Z</time></trkpt><trkpt lat="40.5599421" lon="9.6816234"><ele>44.0</ele><time>2026-03-27T16:31:59.847Z</time></trkpt><trkpt lat="40.5598773" lon="9.6815747"><ele>43.5</ele><time>2026-03-27T16:32:00.84Z</time></trkpt><trkpt lat="40.5598147" lon="9.6815293"><ele>43.0</ele><time>2026-03-27T16:32:01.838Z</time></trkpt><trkpt lat="40.5597571" lon="9.6814928"><ele>43.0</ele><time>2026-03-27T16:32:02.839Z</time></trkpt><trkpt lat="40.55966" lon="9.6814469"><ele>43.0</ele><time>2026-03-27T16:32:04.84Z</time></trkpt><trkpt lat="40.5595704" lon="9.6814337"><ele>43.0</ele><time>2026-03-27T16:32:06.838Z</time></trkpt><trkpt lat="40.5594844" lon="9.6814362"><ele>43.0</ele><time>2026-03-27T16:32:08.848Z</time></trkpt><trkpt lat="40.5593909" lon="9.6814385"><ele>43.0</ele><time>2026-03-27T16:32:10.835Z</time></trkpt><trkpt lat="40.5593024" lon="9.6814585"><ele>42.199999999999996</ele><time>2026-03-27T16:32:12.837Z</time></trkpt><trkpt lat="40.5592161" lon="9.681462"><ele>41.4</ele><time>2026-03-27T16:32:14.841Z</time></trkpt><trkpt lat="40.5591067" lon="9.681371"><ele>40.599999999999994</ele><time>2026-03-27T16:32:16.841Z</time></trkpt><trkpt lat="40.5590616" lon="9.6813093"><ele>39.8</ele><time>2026-03-27T16:32:17.853Z</time></trkpt><trkpt lat="40.5589668" lon="9.681202"><ele>39.0</ele><time>2026-03-27T16:32:19.834Z</time></trkpt><trkpt lat="40.5589085" lon="9.6811612"><ele>39.0</ele><time>2026-03-27T16:32:20.834Z</time></trkpt><trkpt lat="40.5588053" lon="9.6811055"><ele>39.0</ele><time>2026-03-27T16:32:22.844Z</time></trkpt><trkpt lat="40.5587382" lon="9.6810786"><ele>39.0</ele><time>2026-03-27T16:32:24.836Z</time></trkpt><trkpt lat="40.5586696" lon="9.6810382"><ele>39.0</ele><time>2026-03-27T16:32:27.843Z</time></trkpt><trkpt lat="40.5586041" lon="9.6809913"><ele>39.0</ele><time>2026-03-27T16:32:30.834Z</time></trkpt><trkpt lat="40.5585356" lon="9.6809194"><ele>39.0</ele><time>2026-03-27T16:32:32.835Z</time></trkpt><trkpt lat="40.5584847" lon="9.6808535"><ele>38.666666666666664</ele><time>2026-03-27T16:32:36.838Z</time></trkpt><trkpt lat="40.5584109" lon="9.6807998"><ele>38.333333333333336</ele><time>2026-03-27T16:32:46.835Z</time></trkpt><trkpt lat="40.5583164" lon="9.6807782"><ele>38.0</ele><time>2026-03-27T16:32:49.837Z</time></trkpt><trkpt lat="40.5582128" lon="9.6807576"><ele>37.66666666666667</ele><time>2026-03-27T16:32:52.836Z</time></trkpt><trkpt lat="40.5581426" lon="9.6807451"><ele>37.333333333333336</ele><time>2026-03-27T16:32:53.837Z</time></trkpt><trkpt lat="40.5580661" lon="9.6807385"><ele>37.0</ele><time>2026-03-27T16:32:54.839Z</time></trkpt><trkpt lat="40.5579815" lon="9.6807343"><ele>37.0</ele><time>2026-03-27T16:32:55.836Z</time></trkpt><trkpt lat="40.5579104" lon="9.6807291"><ele>37.0</ele><time>2026-03-27T16:32:56.829Z</time></trkpt><trkpt lat="40.5578123" lon="9.6807256"><ele>37.0</ele><time>2026-03-27T16:32:58.828Z</time></trkpt><trkpt lat="40.557746" lon="9.6807017"><ele>37.0</ele><time>2026-03-27T16:33:00.836Z</time></trkpt><trkpt lat="40.557689" lon="9.6806145"><ele>37.0</ele><time>2026-03-27T16:33:02.836Z</time></trkpt><trkpt lat="40.5575794" lon="9.6805533"><ele>37.0</ele><time>2026-03-27T16:33:04.829Z</time></trkpt><trkpt lat="40.5575108" lon="9.6805187"><ele>36.800000000000004</ele><time>2026-03-27T16:33:05.837Z</time></trkpt><trkpt lat="40.5574335" lon="9.680461"><ele>36.6</ele><time>2026-03-27T16:33:06.829Z</time></trkpt><trkpt lat="40.5573552" lon="9.6803975"><ele>36.400000000000006</ele><time>2026-03-27T16:33:07.836Z</time></trkpt><trkpt lat="40.5572683" lon="9.680336"><ele>36.2</ele><time>2026-03-27T16:33:08.833Z</time></trkpt><trkpt lat="40.5571675" lon="9.6802729"><ele>36.0</ele><time>2026-03-27T16:33:09.838Z</time></trkpt><trkpt lat="40.5570723" lon="9.6802119"><ele>35.666666666666664</ele><time>2026-03-27T16:33:10.83Z</time></trkpt><trkpt lat="40.5569858" lon="9.6801543"><ele>35.333333333333336</ele><time>2026-03-27T16:33:11.837Z</time></trkpt><trkpt lat="40.5569161" lon="9.680098"><ele>35.0</ele><time>2026-03-27T16:33:12.829Z</time></trkpt><trkpt lat="40.5568651" lon="9.6800349"><ele>34.66666666666667</ele><time>2026-03-27T16:33:13.835Z</time></trkpt><trkpt lat="40.5568212" lon="9.6799073"><ele>34.333333333333336</ele><time>2026-03-27T16:33:15.837Z</time></trkpt><trkpt lat="40.5567776" lon="9.6798046"><ele>34.0</ele><time>2026-03-27T16:33:17.839Z</time></trkpt><trkpt lat="40.556675" lon="9.6796912"><ele>34.0</ele><time>2026-03-27T16:33:19.839Z</time></trkpt><trkpt lat="40.5565962" lon="9.6796338"><ele>34.0</ele><time>2026-03-27T16:33:20.841Z</time></trkpt><trkpt lat="40.5565075" lon="9.6795705"><ele>34.0</ele><time>2026-03-27T16:33:21.831Z</time></trkpt><trkpt lat="40.5563957" lon="9.6795056"><ele>34.0</ele><time>2026-03-27T16:33:22.83Z</time></trkpt><trkpt lat="40.5562759" lon="9.6794357"><ele>34.0</ele><time>2026-03-27T16:33:23.835Z</time></trkpt><trkpt lat="40.5561506" lon="9.6793607"><ele>34.66666666666667</ele><time>2026-03-27T16:33:24.839Z</time></trkpt><trkpt lat="40.5560148" lon="9.6792814"><ele>35.333333333333336</ele><time>2026-03-27T16:33:25.834Z</time></trkpt><trkpt lat="40.5558714" lon="9.6791958"><ele>36.0</ele><time>2026-03-27T16:33:26.837Z</time></trkpt><trkpt lat="40.5557216" lon="9.6791067"><ele>36.0</ele><time>2026-03-27T16:33:27.832Z</time></trkpt><trkpt lat="40.5555643" lon="9.6790128"><ele>36.0</ele><time>2026-03-27T16:33:28.834Z</time></trkpt><trkpt lat="40.5554164" lon="9.6789265"><ele>36.0</ele><time>2026-03-27T16:33:29.838Z</time></trkpt><trkpt lat="40.555286" lon="9.6788502"><ele>36.25</ele><time>2026-03-27T16:33:30.84Z</time></trkpt><trkpt lat="40.5551661" lon="9.6787786"><ele>36.5</ele><time>2026-03-27T16:33:31.847Z</time></trkpt><trkpt lat="40.5550554" lon="9.6787125"><ele>36.75</ele><time>2026-03-27T16:33:32.862Z</time></trkpt><trkpt lat="40.5549547" lon="9.6786534"><ele>37.0</ele><time>2026-03-27T16:33:33.838Z</time></trkpt><trkpt lat="40.5548748" lon="9.6786076"><ele>37.0</ele><time>2026-03-27T16:33:34.834Z</time></trkpt><trkpt lat="40.5547786" lon="9.6785566"><ele>37.0</ele><time>2026-03-27T16:33:36.837Z</time></trkpt><trkpt lat="40.5546708" lon="9.678541"><ele>37.0</ele><time>2026-03-27T16:33:39.866Z</time></trkpt><trkpt lat="40.5546187" lon="9.6785922"><ele>37.0</ele><time>2026-03-27T16:33:40.839Z</time></trkpt><trkpt lat="40.5545595" lon="9.6786837"><ele>37.0</ele><time>2026-03-27T16:33:41.836Z</time></trkpt><trkpt lat="40.5544981" lon="9.6788092"><ele>36.5</ele><time>2026-03-27T16:33:42.838Z</time></trkpt><trkpt lat="40.5544429" lon="9.67895"><ele>36.0</ele><time>2026-03-27T16:33:43.833Z</time></trkpt><trkpt lat="40.5543855" lon="9.6790998"><ele>35.5</ele><time>2026-03-27T16:33:44.835Z</time></trkpt><trkpt lat="40.5543249" lon="9.6792487"><ele>35.0</ele><time>2026-03-27T16:33:45.835Z</time></trkpt><trkpt lat="40.5542598" lon="9.6793795"><ele>34.4</ele><time>2026-03-27T16:33:46.836Z</time></trkpt><trkpt lat="40.5541922" lon="9.679497"><ele>33.8</ele><time>2026-03-27T16:33:47.842Z</time></trkpt><trkpt lat="40.5541038" lon="9.6795695"><ele>33.2</ele><time>2026-03-27T16:33:48.84Z</time></trkpt><trkpt lat="40.5540173" lon="9.6796221"><ele>32.6</ele><time>2026-03-27T16:33:49.835Z</time></trkpt><trkpt lat="40.553912" lon="9.679626"><ele>32.0</ele><time>2026-03-27T16:33:50.835Z</time></trkpt><trkpt lat="40.5537986" lon="9.6795875"><ele>32.0</ele><time>2026-03-27T16:33:51.837Z</time></trkpt><trkpt lat="40.5536653" lon="9.6795376"><ele>32.0</ele><time>2026-03-27T16:33:52.834Z</time></trkpt><trkpt lat="40.5535253" lon="9.6794745"><ele>32.0</ele><time>2026-03-27T16:33:53.833Z</time></trkpt><trkpt lat="40.5533873" lon="9.6794033"><ele>32.0</ele><time>2026-03-27T16:33:54.838Z</time></trkpt><trkpt lat="40.5532394" lon="9.6793187"><ele>32.33333333333333</ele><time>2026-03-27T16:33:55.832Z</time></trkpt><trkpt lat="40.5530854" lon="9.6792267"><ele>32.666666666666664</ele><time>2026-03-27T16:33:56.832Z</time></trkpt><trkpt lat="40.5529252" lon="9.6791305"><ele>33.0</ele><time>2026-03-27T16:33:57.838Z</time></trkpt><trkpt lat="40.5527625" lon="9.6790453"><ele>32.333333333333336</ele><time>2026-03-27T16:33:58.833Z</time></trkpt><trkpt lat="40.5525926" lon="9.6789718"><ele>31.666666666666668</ele><time>2026-03-27T16:33:59.835Z</time></trkpt><trkpt lat="40.5524157" lon="9.6789039"><ele>31.0</ele><time>2026-03-27T16:34:00.853Z</time></trkpt><trkpt lat="40.5522354" lon="9.678841"><ele>31.0</ele><time>2026-03-27T16:34:01.84Z</time></trkpt><trkpt lat="40.5520558" lon="9.6787826"><ele>31.0</ele><time>2026-03-27T16:34:02.833Z</time></trkpt><trkpt lat="40.5518806" lon="9.6787279"><ele>31.0</ele><time>2026-03-27T16:34:03.831Z</time></trkpt><trkpt lat="40.55171" lon="9.678677"><ele>30.666666666666668</ele><time>2026-03-27T16:34:04.832Z</time></trkpt><trkpt lat="40.5515438" lon="9.6786263"><ele>30.333333333333336</ele><time>2026-03-27T16:34:05.832Z</time></trkpt><trkpt lat="40.5513845" lon="9.6785756"><ele>30.0</ele><time>2026-03-27T16:34:06.833Z</time></trkpt><trkpt lat="40.5512291" lon="9.6785264"><ele>29.666666666666664</ele><time>2026-03-27T16:34:07.838Z</time></trkpt><trkpt lat="40.5510741" lon="9.67848"><ele>29.333333333333332</ele><time>2026-03-27T16:34:08.833Z</time></trkpt><trkpt lat="40.5509171" lon="9.6784331"><ele>29.0</ele><time>2026-03-27T16:34:09.841Z</time></trkpt><trkpt lat="40.5507568" lon="9.6783849"><ele>29.0</ele><time>2026-03-27T16:34:10.839Z</time></trkpt><trkpt lat="40.5506014" lon="9.6783387"><ele>29.0</ele><time>2026-03-27T16:34:11.84Z</time></trkpt><trkpt lat="40.5504645" lon="9.6782971"><ele>29.0</ele><time>2026-03-27T16:34:12.838Z</time></trkpt><trkpt lat="40.5503395" lon="9.6782602"><ele>29.0</ele><time>2026-03-27T16:34:13.836Z</time></trkpt><trkpt lat="40.5502333" lon="9.6781955"><ele>28.5</ele><time>2026-03-27T16:34:14.833Z</time></trkpt><trkpt lat="40.5501392" lon="9.6781081"><ele>28.0</ele><time>2026-03-27T16:34:15.838Z</time></trkpt><trkpt lat="40.5500485" lon="9.6780131"><ele>27.5</ele><time>2026-03-27T16:34:16.84Z</time></trkpt><trkpt lat="40.5499625" lon="9.677899"><ele>27.0</ele><time>2026-03-27T16:34:17.836Z</time></trkpt><trkpt lat="40.54988" lon="9.6777796"><ele>27.25</ele><time>2026-03-27T16:34:18.853Z</time></trkpt><trkpt lat="40.5497987" lon="9.6776506"><ele>27.5</ele><time>2026-03-27T16:34:19.834Z</time></trkpt><trkpt lat="40.5497069" lon="9.6775344"><ele>27.75</ele><time>2026-03-27T16:34:20.83Z</time></trkpt><trkpt lat="40.5496001" lon="9.6774485"><ele>28.0</ele><time>2026-03-27T16:34:21.834Z</time></trkpt><trkpt lat="40.5494863" lon="9.6773697"><ele>28.2</ele><time>2026-03-27T16:34:22.837Z</time></trkpt><trkpt lat="40.5493774" lon="9.6773199"><ele>28.4</ele><time>2026-03-27T16:34:23.834Z</time></trkpt><trkpt lat="40.5492673" lon="9.6772716"><ele>28.599999999999998</ele><time>2026-03-27T16:34:24.837Z</time></trkpt><trkpt lat="40.5491806" lon="9.6772876"><ele>28.799999999999997</ele><time>2026-03-27T16:34:25.835Z</time></trkpt><trkpt lat="40.5490693" lon="9.677304"><ele>29.0</ele><time>2026-03-27T16:34:26.836Z</time></trkpt><trkpt lat="40.5489581" lon="9.6773372"><ele>29.0</ele><time>2026-03-27T16:34:27.834Z</time></trkpt><trkpt lat="40.5488487" lon="9.677373"><ele>29.0</ele><time>2026-03-27T16:34:28.835Z</time></trkpt><trkpt lat="40.5487416" lon="9.677387"><ele>29.0</ele><time>2026-03-27T16:34:29.837Z</time></trkpt><trkpt lat="40.5486331" lon="9.6773978"><ele>29.0</ele><time>2026-03-27T16:34:30.837Z</time></trkpt><trkpt lat="40.5485222" lon="9.6773551"><ele>29.0</ele><time>2026-03-27T16:34:31.838Z</time></trkpt><trkpt lat="40.5484123" lon="9.6772907"><ele>30.0</ele><time>2026-03-27T16:34:32.831Z</time></trkpt><trkpt lat="40.5483002" lon="9.6772143"><ele>31.0</ele><time>2026-03-27T16:34:33.836Z</time></trkpt><trkpt lat="40.5481796" lon="9.6771387"><ele>32.0</ele><time>2026-03-27T16:34:34.829Z</time></trkpt><trkpt lat="40.5480503" lon="9.6770557"><ele>33.0</ele><time>2026-03-27T16:34:35.836Z</time></trkpt><trkpt lat="40.5479177" lon="9.6769644"><ele>33.0</ele><time>2026-03-27T16:34:36.83Z</time></trkpt><trkpt lat="40.5477844" lon="9.6768711"><ele>33.0</ele><time>2026-03-27T16:34:37.842Z</time></trkpt><trkpt lat="40.5476499" lon="9.676778"><ele>33.0</ele><time>2026-03-27T16:34:38.833Z</time></trkpt><trkpt lat="40.5475206" lon="9.6766867"><ele>33.0</ele><time>2026-03-27T16:34:39.834Z</time></trkpt><trkpt lat="40.5473914" lon="9.6765944"><ele>33.0</ele><time>2026-03-27T16:34:40.835Z</time></trkpt><trkpt lat="40.5472647" lon="9.6765035"><ele>33.0</ele><time>2026-03-27T16:34:41.835Z</time></trkpt><trkpt lat="40.547141" lon="9.6764148"><ele>33.0</ele><time>2026-03-27T16:34:42.834Z</time></trkpt><trkpt lat="40.5470179" lon="9.6763275"><ele>33.0</ele><time>2026-03-27T16:34:43.833Z</time></trkpt><trkpt lat="40.5469045" lon="9.6762461"><ele>33.0</ele><time>2026-03-27T16:34:44.836Z</time></trkpt><trkpt lat="40.5468013" lon="9.6761711"><ele>33.0</ele><time>2026-03-27T16:34:45.834Z</time></trkpt><trkpt lat="40.5467074" lon="9.6761061"><ele>33.0</ele><time>2026-03-27T16:34:46.836Z</time></trkpt><trkpt lat="40.5466167" lon="9.6760644"><ele>33.0</ele><time>2026-03-27T16:34:47.83Z</time></trkpt><trkpt lat="40.5465309" lon="9.6760533"><ele>33.0</ele><time>2026-03-27T16:34:48.83Z</time></trkpt><trkpt lat="40.5464487" lon="9.6760727"><ele>33.0</ele><time>2026-03-27T16:34:49.833Z</time></trkpt><trkpt lat="40.5463723" lon="9.6761234"><ele>33.0</ele><time>2026-03-27T16:34:50.83Z</time></trkpt><trkpt lat="40.5463014" lon="9.6762018"><ele>33.0</ele><time>2026-03-27T16:34:51.83Z</time></trkpt><trkpt lat="40.5462332" lon="9.6763044"><ele>33.0</ele><time>2026-03-27T16:34:52.836Z</time></trkpt><trkpt lat="40.5461631" lon="9.6764255"><ele>33.75</ele><time>2026-03-27T16:34:53.833Z</time></trkpt><trkpt lat="40.5460863" lon="9.6765625"><ele>34.5</ele><time>2026-03-27T16:34:54.838Z</time></trkpt><trkpt lat="40.546004" lon="9.6767119"><ele>35.25</ele><time>2026-03-27T16:34:55.834Z</time></trkpt><trkpt lat="40.5459158" lon="9.6768715"><ele>36.0</ele><time>2026-03-27T16:34:56.836Z</time></trkpt><trkpt lat="40.5458251" lon="9.6770348"><ele>36.0</ele><time>2026-03-27T16:34:57.834Z</time></trkpt><trkpt lat="40.545743" lon="9.6771856"><ele>36.0</ele><time>2026-03-27T16:34:58.836Z</time></trkpt><trkpt lat="40.5456671" lon="9.6773233"><ele>36.0</ele><time>2026-03-27T16:34:59.839Z</time></trkpt><trkpt lat="40.5455947" lon="9.6774527"><ele>36.0</ele><time>2026-03-27T16:35:00.831Z</time></trkpt><trkpt lat="40.5455276" lon="9.6775717"><ele>36.0</ele><time>2026-03-27T16:35:01.838Z</time></trkpt><trkpt lat="40.5454675" lon="9.6776746"><ele>36.0</ele><time>2026-03-27T16:35:02.835Z</time></trkpt><trkpt lat="40.5454137" lon="9.6777615"><ele>36.0</ele><time>2026-03-27T16:35:03.832Z</time></trkpt><trkpt lat="40.5453597" lon="9.6778394"><ele>36.0</ele><time>2026-03-27T16:35:04.834Z</time></trkpt><trkpt lat="40.5453064" lon="9.677911"><ele>36.0</ele><time>2026-03-27T16:35:05.844Z</time></trkpt><trkpt lat="40.5452625" lon="9.6779754"><ele>36.0</ele><time>2026-03-27T16:35:06.835Z</time></trkpt><trkpt lat="40.5452238" lon="9.6780434"><ele>36.0</ele><time>2026-03-27T16:35:07.839Z</time></trkpt><trkpt lat="40.5451863" lon="9.6781233"><ele>36.0</ele><time>2026-03-27T16:35:08.843Z</time></trkpt><trkpt lat="40.5451456" lon="9.6782194"><ele>36.0</ele><time>2026-03-27T16:35:09.836Z</time></trkpt><trkpt lat="40.5450976" lon="9.6783295"><ele>36.0</ele><time>2026-03-27T16:35:10.839Z</time></trkpt><trkpt lat="40.5450407" lon="9.6784446"><ele>36.0</ele><time>2026-03-27T16:35:11.841Z</time></trkpt><trkpt lat="40.5449704" lon="9.6785489"><ele>36.25</ele><time>2026-03-27T16:35:12.843Z</time></trkpt><trkpt lat="40.5448842" lon="9.6786392"><ele>36.5</ele><time>2026-03-27T16:35:13.838Z</time></trkpt><trkpt lat="40.5447849" lon="9.6787196"><ele>36.75</ele><time>2026-03-27T16:35:14.844Z</time></trkpt><trkpt lat="40.5446775" lon="9.6787953"><ele>37.0</ele><time>2026-03-27T16:35:15.845Z</time></trkpt><trkpt lat="40.5445638" lon="9.6788708"><ele>37.0</ele><time>2026-03-27T16:35:16.837Z</time></trkpt><trkpt lat="40.5444452" lon="9.6789489"><ele>37.0</ele><time>2026-03-27T16:35:17.835Z</time></trkpt><trkpt lat="40.544324" lon="9.6790297"><ele>37.0</ele><time>2026-03-27T16:35:18.833Z</time></trkpt><trkpt lat="40.5442" lon="9.6791135"><ele>37.0</ele><time>2026-03-27T16:35:19.831Z</time></trkpt><trkpt lat="40.5440774" lon="9.6791964"><ele>37.0</ele><time>2026-03-27T16:35:20.833Z</time></trkpt><trkpt lat="40.5439644" lon="9.6792727"><ele>37.0</ele><time>2026-03-27T16:35:21.841Z</time></trkpt><trkpt lat="40.5438596" lon="9.6793471"><ele>37.0</ele><time>2026-03-27T16:35:22.836Z</time></trkpt><trkpt lat="40.5437555" lon="9.6794218"><ele>37.0</ele><time>2026-03-27T16:35:23.829Z</time></trkpt><trkpt lat="40.5436468" lon="9.6794953"><ele>38.0</ele><time>2026-03-27T16:35:24.83Z</time></trkpt><trkpt lat="40.5435263" lon="9.6795709"><ele>39.0</ele><time>2026-03-27T16:35:25.835Z</time></trkpt><trkpt lat="40.543407" lon="9.6796472"><ele>40.0</ele><time>2026-03-27T16:35:26.83Z</time></trkpt><trkpt lat="40.5432912" lon="9.6797241"><ele>41.0</ele><time>2026-03-27T16:35:27.833Z</time></trkpt><trkpt lat="40.5431756" lon="9.6797998"><ele>41.0</ele><time>2026-03-27T16:35:28.834Z</time></trkpt><trkpt lat="40.5430584" lon="9.6798751"><ele>41.0</ele><time>2026-03-27T16:35:29.837Z</time></trkpt><trkpt lat="40.5429416" lon="9.6799518"><ele>41.0</ele><time>2026-03-27T16:35:30.842Z</time></trkpt><trkpt lat="40.5428244" lon="9.6800302"><ele>41.0</ele><time>2026-03-27T16:35:31.834Z</time></trkpt><trkpt lat="40.5427054" lon="9.6801092"><ele>41.25</ele><time>2026-03-27T16:35:32.897Z</time></trkpt><trkpt lat="40.54259" lon="9.6801923"><ele>41.5</ele><time>2026-03-27T16:35:33.832Z</time></trkpt><trkpt lat="40.5424761" lon="9.6802735"><ele>41.75</ele><time>2026-03-27T16:35:34.832Z</time></trkpt><trkpt lat="40.5423639" lon="9.6803557"><ele>42.0</ele><time>2026-03-27T16:35:35.836Z</time></trkpt><trkpt lat="40.5422492" lon="9.6804353"><ele>42.25</ele><time>2026-03-27T16:35:36.835Z</time></trkpt><trkpt lat="40.5421326" lon="9.6805127"><ele>42.5</ele><time>2026-03-27T16:35:37.838Z</time></trkpt><trkpt lat="40.5420132" lon="9.6805942"><ele>42.75</ele><time>2026-03-27T16:35:38.844Z</time></trkpt><trkpt lat="40.5418909" lon="9.6806751"><ele>43.0</ele><time>2026-03-27T16:35:39.836Z</time></trkpt><trkpt lat="40.5417706" lon="9.6807552"><ele>43.599999999999994</ele><time>2026-03-27T16:35:40.829Z</time></trkpt><trkpt lat="40.5416603" lon="9.6808307"><ele>44.199999999999996</ele><time>2026-03-27T16:35:41.841Z</time></trkpt><trkpt lat="40.5415617" lon="9.6808969"><ele>44.8</ele><time>2026-03-27T16:35:42.841Z</time></trkpt><trkpt lat="40.5414775" lon="9.6809523"><ele>45.4</ele><time>2026-03-27T16:35:43.837Z</time></trkpt><trkpt lat="40.5414043" lon="9.681"><ele>46.0</ele><time>2026-03-27T16:35:44.841Z</time></trkpt><trkpt lat="40.54134" lon="9.6810421"><ele>46.0</ele><time>2026-03-27T16:35:45.837Z</time></trkpt><trkpt lat="40.5412835" lon="9.6810797"><ele>46.0</ele><time>2026-03-27T16:35:46.835Z</time></trkpt><trkpt lat="40.5411981" lon="9.6811375"><ele>46.0</ele><time>2026-03-27T16:35:48.84Z</time></trkpt><trkpt lat="40.5411587" lon="9.6812046"><ele>46.0</ele><time>2026-03-27T16:35:50.838Z</time></trkpt><trkpt lat="40.5411662" lon="9.6813023"><ele>46.0</ele><time>2026-03-27T16:35:52.84Z</time></trkpt><trkpt lat="40.5412102" lon="9.6814252"><ele>46.0</ele><time>2026-03-27T16:35:54.843Z</time></trkpt><trkpt lat="40.5412898" lon="9.6815444"><ele>45.599999999999994</ele><time>2026-03-27T16:35:56.834Z</time></trkpt><trkpt lat="40.541342" lon="9.6815971"><ele>45.2</ele><time>2026-03-27T16:35:57.837Z</time></trkpt><trkpt lat="40.5414192" lon="9.6816528"><ele>44.8</ele><time>2026-03-27T16:35:58.841Z</time></trkpt><trkpt lat="40.5415051" lon="9.6817059"><ele>44.400000000000006</ele><time>2026-03-27T16:35:59.841Z</time></trkpt><trkpt lat="40.5415949" lon="9.6817618"><ele>44.0</ele><time>2026-03-27T16:36:00.831Z</time></trkpt><trkpt lat="40.5416861" lon="9.6818213"><ele>44.0</ele><time>2026-03-27T16:36:01.833Z</time></trkpt><trkpt lat="40.5417681" lon="9.681881"><ele>44.0</ele><time>2026-03-27T16:36:02.839Z</time></trkpt><trkpt lat="40.5418492" lon="9.6819485"><ele>44.0</ele><time>2026-03-27T16:36:03.835Z</time></trkpt><trkpt lat="40.5419231" lon="9.6820111"><ele>44.0</ele><time>2026-03-27T16:36:04.845Z</time></trkpt><trkpt lat="40.5420053" lon="9.6821021"><ele>44.0</ele><time>2026-03-27T16:36:05.836Z</time></trkpt><trkpt lat="40.5420802" lon="9.6821853"><ele>44.2</ele><time>2026-03-27T16:36:06.833Z</time></trkpt><trkpt lat="40.5421488" lon="9.6822718"><ele>44.400000000000006</ele><time>2026-03-27T16:36:07.834Z</time></trkpt><trkpt lat="40.5422123" lon="9.6823641"><ele>44.6</ele><time>2026-03-27T16:36:08.837Z</time></trkpt><trkpt lat="40.5422677" lon="9.6824618"><ele>44.8</ele><time>2026-03-27T16:36:09.838Z</time></trkpt><trkpt lat="40.5423237" lon="9.6825516"><ele>45.0</ele><time>2026-03-27T16:36:10.855Z</time></trkpt><trkpt lat="40.5423841" lon="9.6826311"><ele>45.0</ele><time>2026-03-27T16:36:11.834Z</time></trkpt><trkpt lat="40.5424535" lon="9.6826934"><ele>45.0</ele><time>2026-03-27T16:36:12.838Z</time></trkpt><trkpt lat="40.542529" lon="9.6827469"><ele>45.0</ele><time>2026-03-27T16:36:13.837Z</time></trkpt><trkpt lat="40.5426075" lon="9.6828033"><ele>45.0</ele><time>2026-03-27T16:36:14.838Z</time></trkpt><trkpt lat="40.5426929" lon="9.6828555"><ele>45.0</ele><time>2026-03-27T16:36:15.834Z</time></trkpt><trkpt lat="40.5427835" lon="9.6829095"><ele>45.4</ele><time>2026-03-27T16:36:16.841Z</time></trkpt><trkpt lat="40.542877" lon="9.6829637"><ele>45.8</ele><time>2026-03-27T16:36:17.833Z</time></trkpt><trkpt lat="40.5429727" lon="9.6830242"><ele>46.2</ele><time>2026-03-27T16:36:18.84Z</time></trkpt><trkpt lat="40.5430651" lon="9.6830931"><ele>46.6</ele><time>2026-03-27T16:36:19.832Z</time></trkpt><trkpt lat="40.5431567" lon="9.6831661"><ele>47.0</ele><time>2026-03-27T16:36:20.832Z</time></trkpt><trkpt lat="40.5432461" lon="9.6832402"><ele>47.2</ele><time>2026-03-27T16:36:21.836Z</time></trkpt><trkpt lat="40.5433331" lon="9.6833148"><ele>47.400000000000006</ele><time>2026-03-27T16:36:22.833Z</time></trkpt><trkpt lat="40.5434167" lon="9.6833921"><ele>47.599999999999994</ele><time>2026-03-27T16:36:23.839Z</time></trkpt><trkpt lat="40.5434987" lon="9.683482"><ele>47.8</ele><time>2026-03-27T16:36:24.837Z</time></trkpt><trkpt lat="40.5435879" lon="9.683578"><ele>48.0</ele><time>2026-03-27T16:36:25.846Z</time></trkpt><trkpt lat="40.5436739" lon="9.6836781"><ele>48.25</ele><time>2026-03-27T16:36:26.837Z</time></trkpt><trkpt lat="40.5437512" lon="9.6837769"><ele>48.5</ele><time>2026-03-27T16:36:27.831Z</time></trkpt><trkpt lat="40.5438337" lon="9.6838707"><ele>48.75</ele><time>2026-03-27T16:36:28.834Z</time></trkpt><trkpt lat="40.5439252" lon="9.6839764"><ele>49.0</ele><time>2026-03-27T16:36:29.839Z</time></trkpt><trkpt lat="40.5440138" lon="9.6840714"><ele>49.0</ele><time>2026-03-27T16:36:30.832Z</time></trkpt><trkpt lat="40.5441079" lon="9.6841586"><ele>49.0</ele><time>2026-03-27T16:36:31.837Z</time></trkpt><trkpt lat="40.5442007" lon="9.6842554"><ele>49.0</ele><time>2026-03-27T16:36:32.838Z</time></trkpt><trkpt lat="40.5442784" lon="9.6843341"><ele>49.0</ele><time>2026-03-27T16:36:33.83Z</time></trkpt><trkpt lat="40.5443376" lon="9.684398"><ele>49.0</ele><time>2026-03-27T16:36:34.837Z</time></trkpt><trkpt lat="40.5443961" lon="9.6844475"><ele>49.0</ele><time>2026-03-27T16:36:35.831Z</time></trkpt><trkpt lat="40.5444777" lon="9.6845088"><ele>49.0</ele><time>2026-03-27T16:36:36.837Z</time></trkpt><trkpt lat="40.5445508" lon="9.6845719"><ele>49.0</ele><time>2026-03-27T16:36:37.838Z</time></trkpt><trkpt lat="40.5446221" lon="9.6846482"><ele>49.0</ele><time>2026-03-27T16:36:38.837Z</time></trkpt><trkpt lat="40.5447002" lon="9.6847361"><ele>49.0</ele><time>2026-03-27T16:36:39.833Z</time></trkpt><trkpt lat="40.5447738" lon="9.6848328"><ele>49.0</ele><time>2026-03-27T16:36:40.837Z</time></trkpt><trkpt lat="40.5448451" lon="9.6849251"><ele>49.0</ele><time>2026-03-27T16:36:41.829Z</time></trkpt><trkpt lat="40.5449019" lon="9.6850254"><ele>49.0</ele><time>2026-03-27T16:36:42.837Z</time></trkpt><trkpt lat="40.5449485" lon="9.6851267"><ele>49.0</ele><time>2026-03-27T16:36:43.835Z</time></trkpt><trkpt lat="40.5449892" lon="9.6852364"><ele>49.0</ele><time>2026-03-27T16:36:44.833Z</time></trkpt><trkpt lat="40.5450365" lon="9.6853557"><ele>49.400000000000006</ele><time>2026-03-27T16:36:45.836Z</time></trkpt><trkpt lat="40.5450884" lon="9.6854709"><ele>49.8</ele><time>2026-03-27T16:36:46.833Z</time></trkpt><trkpt lat="40.5451429" lon="9.6855888"><ele>50.2</ele><time>2026-03-27T16:36:47.841Z</time></trkpt><trkpt lat="40.5451951" lon="9.6857033"><ele>50.599999999999994</ele><time>2026-03-27T16:36:48.835Z</time></trkpt><trkpt lat="40.5452407" lon="9.6857875"><ele>51.0</ele><time>2026-03-27T16:36:49.836Z</time></trkpt><trkpt lat="40.5452943" lon="9.6858762"><ele>51.0</ele><time>2026-03-27T16:36:51.843Z</time></trkpt><trkpt lat="40.5453502" lon="9.6859573"><ele>51.0</ele><time>2026-03-27T16:36:55.833Z</time></trkpt><trkpt lat="40.5454147" lon="9.6860128"><ele>51.0</ele><time>2026-03-27T16:36:57.835Z</time></trkpt><trkpt lat="40.5454837" lon="9.6861005"><ele>51.0</ele><time>2026-03-27T16:36:59.832Z</time></trkpt><trkpt lat="40.5455584" lon="9.6862016"><ele>51.0</ele><time>2026-03-27T16:37:01.834Z</time></trkpt><trkpt lat="40.5456276" lon="9.6863352"><ele>51.166666666666664</ele><time>2026-03-27T16:37:03.833Z</time></trkpt><trkpt lat="40.5456662" lon="9.6864177"><ele>51.33333333333333</ele><time>2026-03-27T16:37:04.853Z</time></trkpt><trkpt lat="40.5457074" lon="9.6865052"><ele>51.5</ele><time>2026-03-27T16:37:05.835Z</time></trkpt><trkpt lat="40.5457425" lon="9.686579"><ele>51.666666666666664</ele><time>2026-03-27T16:37:06.833Z</time></trkpt><trkpt lat="40.545786" lon="9.6866887"><ele>51.83333333333333</ele><time>2026-03-27T16:37:08.833Z</time></trkpt><trkpt lat="40.5457438" lon="9.6867831"><ele>52.0</ele><time>2026-03-27T16:37:11.839Z</time></trkpt><trkpt lat="40.5456448" lon="9.6868159"><ele>51.99999999999999</ele><time>2026-03-27T16:37:13.833Z</time></trkpt><trkpt lat="40.5455799" lon="9.6868324"><ele>52.0</ele><time>2026-03-27T16:37:14.829Z</time></trkpt><trkpt lat="40.545509" lon="9.6868496"><ele>52.0</ele><time>2026-03-27T16:37:15.836Z</time></trkpt><trkpt lat="40.5454286" lon="9.6868691"><ele>52.0</ele><time>2026-03-27T16:37:16.829Z</time></trkpt><trkpt lat="40.5453407" lon="9.686891"><ele>51.99999999999999</ele><time>2026-03-27T16:37:17.834Z</time></trkpt><trkpt lat="40.5452524" lon="9.6869126"><ele>52.0</ele><time>2026-03-27T16:37:18.838Z</time></trkpt><trkpt lat="40.5451742" lon="9.6869315"><ele>52.857142857142854</ele><time>2026-03-27T16:37:19.84Z</time></trkpt><trkpt lat="40.5451045" lon="9.686949"><ele>53.71428571428572</ele><time>2026-03-27T16:37:20.841Z</time></trkpt><trkpt lat="40.5450392" lon="9.6869663"><ele>54.57142857142858</ele><time>2026-03-27T16:37:21.834Z</time></trkpt><trkpt lat="40.5449724" lon="9.6869826"><ele>55.42857142857143</ele><time>2026-03-27T16:37:22.837Z</time></trkpt><trkpt lat="40.5449012" lon="9.6869977"><ele>56.28571428571429</ele><time>2026-03-27T16:37:23.834Z</time></trkpt><trkpt lat="40.5448289" lon="9.6870088"><ele>57.14285714285715</ele><time>2026-03-27T16:37:24.84Z</time></trkpt><trkpt lat="40.5447626" lon="9.6870175"><ele>58.00000000000001</ele><time>2026-03-27T16:37:25.84Z</time></trkpt><trkpt lat="40.5446523" lon="9.6870239"><ele>58.599999999999994</ele><time>2026-03-27T16:37:27.848Z</time></trkpt><trkpt lat="40.544531" lon="9.687042"><ele>59.199999999999996</ele><time>2026-03-27T16:37:29.835Z</time></trkpt><trkpt lat="40.5444149" lon="9.6870667"><ele>59.8</ele><time>2026-03-27T16:37:31.845Z</time></trkpt><trkpt lat="40.5443216" lon="9.6870897"><ele>60.4</ele><time>2026-03-27T16:37:33.836Z</time></trkpt><trkpt lat="40.5442346" lon="9.6871163"><ele>61.0</ele><time>2026-03-27T16:38:13.845Z</time></trkpt><trkpt lat="40.5442007" lon="9.687189"><ele>60.99999999999999</ele><time>2026-03-27T16:38:16.837Z</time></trkpt><trkpt lat="40.5441927" lon="9.6872829"><ele>61.0</ele><time>2026-03-27T16:38:18.836Z</time></trkpt><trkpt lat="40.5441788" lon="9.6874239"><ele>61.0</ele><time>2026-03-27T16:38:20.848Z</time></trkpt><trkpt lat="40.5441811" lon="9.6875085"><ele>61.0</ele><time>2026-03-27T16:38:21.837Z</time></trkpt><trkpt lat="40.5442042" lon="9.687602"><ele>60.99999999999999</ele><time>2026-03-27T16:38:22.833Z</time></trkpt><trkpt lat="40.5442391" lon="9.687685"><ele>61.0</ele><time>2026-03-27T16:38:23.84Z</time></trkpt><trkpt lat="40.5442784" lon="9.6877703"><ele>62.599999999999994</ele><time>2026-03-27T16:38:24.846Z</time></trkpt><trkpt lat="40.5443351" lon="9.6878565"><ele>64.19999999999999</ele><time>2026-03-27T16:38:25.844Z</time></trkpt><trkpt lat="40.5443996" lon="9.6879339"><ele>65.80000000000001</ele><time>2026-03-27T16:38:26.838Z</time></trkpt><trkpt lat="40.5444489" lon="9.6880013"><ele>67.4</ele><time>2026-03-27T16:38:27.837Z</time></trkpt><trkpt lat="40.5444849" lon="9.6881543"><ele>69.0</ele><time>2026-03-27T16:38:29.837Z</time></trkpt><trkpt lat="40.5445083" lon="9.6882897"><ele>69.0</ele><time>2026-03-27T16:38:31.839Z</time></trkpt><trkpt lat="40.5445317" lon="9.6884531"><ele>69.0</ele><time>2026-03-27T16:38:33.84Z</time></trkpt><trkpt lat="40.544483" lon="9.6885501"><ele>69.0</ele><time>2026-03-27T16:38:35.837Z</time></trkpt><trkpt lat="40.5444004" lon="9.6885713"><ele>69.0</ele><time>2026-03-27T16:38:37.846Z</time></trkpt><trkpt lat="40.5443297" lon="9.6885334"><ele>69.0</ele><time>2026-03-27T16:38:38.84Z</time></trkpt><trkpt lat="40.5442507" lon="9.6884921"><ele>69.0</ele><time>2026-03-27T16:38:39.85Z</time></trkpt><trkpt lat="40.5441628" lon="9.6884662"><ele>69.0</ele><time>2026-03-27T16:38:40.837Z</time></trkpt><trkpt lat="40.5440827" lon="9.6884662"><ele>69.0</ele><time>2026-03-27T16:38:41.846Z</time></trkpt><trkpt lat="40.5440104" lon="9.6884695"><ele>69.0</ele><time>2026-03-27T16:38:42.839Z</time></trkpt><trkpt lat="40.5439507" lon="9.6885084"><ele>69.0</ele><time>2026-03-27T16:38:43.838Z</time></trkpt><trkpt lat="40.5439036" lon="9.6885876"><ele>69.0</ele><time>2026-03-27T16:38:44.836Z</time></trkpt><trkpt lat="40.5438521" lon="9.6886898"><ele>72.2</ele><time>2026-03-27T16:38:45.836Z</time></trkpt><trkpt lat="40.5437919" lon="9.6888046"><ele>75.4</ele><time>2026-03-27T16:38:46.845Z</time></trkpt><trkpt lat="40.5437314" lon="9.6889264"><ele>78.6</ele><time>2026-03-27T16:38:47.838Z</time></trkpt><trkpt lat="40.5436705" lon="9.6890459"><ele>81.8</ele><time>2026-03-27T16:38:48.834Z</time></trkpt><trkpt lat="40.5436006" lon="9.6891428"><ele>85.0</ele><time>2026-03-27T16:38:49.837Z</time></trkpt><trkpt lat="40.5435303" lon="9.6892311"><ele>85.16666666666666</ele><time>2026-03-27T16:38:50.84Z</time></trkpt><trkpt lat="40.5434505" lon="9.6893094"><ele>85.33333333333333</ele><time>2026-03-27T16:38:51.834Z</time></trkpt><trkpt lat="40.5433812" lon="9.6894015"><ele>85.5</ele><time>2026-03-27T16:38:52.836Z</time></trkpt><trkpt lat="40.54332" lon="9.6894843"><ele>85.66666666666667</ele><time>2026-03-27T16:38:53.833Z</time></trkpt><trkpt lat="40.5432781" lon="9.6895781"><ele>85.83333333333334</ele><time>2026-03-27T16:38:54.841Z</time></trkpt><trkpt lat="40.5432443" lon="9.6896723"><ele>86.0</ele><time>2026-03-27T16:38:55.833Z</time></trkpt><trkpt lat="40.5431606" lon="9.6897687"><ele>88.8</ele><time>2026-03-27T16:38:57.841Z</time></trkpt><trkpt lat="40.5430398" lon="9.6897492"><ele>91.6</ele><time>2026-03-27T16:38:59.836Z</time></trkpt><trkpt lat="40.5429285" lon="9.6897837"><ele>94.4</ele><time>2026-03-27T16:39:01.833Z</time></trkpt><trkpt lat="40.5428737" lon="9.6898334"><ele>97.2</ele><time>2026-03-27T16:39:02.839Z</time></trkpt><trkpt lat="40.5428255" lon="9.6899067"><ele>100.0</ele><time>2026-03-27T16:39:03.833Z</time></trkpt><trkpt lat="40.5427654" lon="9.6899806"><ele>100.4</ele><time>2026-03-27T16:39:04.839Z</time></trkpt><trkpt lat="40.542695" lon="9.6900673"><ele>100.8</ele><time>2026-03-27T16:39:05.835Z</time></trkpt><trkpt lat="40.5426192" lon="9.6901601"><ele>101.19999999999999</ele><time>2026-03-27T16:39:06.834Z</time></trkpt><trkpt lat="40.5425506" lon="9.6902479"><ele>101.6</ele><time>2026-03-27T16:39:07.832Z</time></trkpt><trkpt lat="40.5425014" lon="9.6903394"><ele>102.0</ele><time>2026-03-27T16:39:08.836Z</time></trkpt><trkpt lat="40.54247" lon="9.6904508"><ele>103.83333333333333</ele><time>2026-03-27T16:39:09.839Z</time></trkpt><trkpt lat="40.5424321" lon="9.6905347"><ele>105.66666666666666</ele><time>2026-03-27T16:39:10.834Z</time></trkpt><trkpt lat="40.5423815" lon="9.6905992"><ele>107.5</ele><time>2026-03-27T16:39:11.834Z</time></trkpt><trkpt lat="40.5423248" lon="9.6906397"><ele>109.33333333333333</ele><time>2026-03-27T16:39:12.832Z</time></trkpt><trkpt lat="40.5422359" lon="9.6906724"><ele>111.16666666666666</ele><time>2026-03-27T16:39:14.84Z</time></trkpt><trkpt lat="40.5421973" lon="9.6905819"><ele>113.0</ele><time>2026-03-27T16:39:16.837Z</time></trkpt><trkpt lat="40.5422224" lon="9.690434"><ele>112.99999999999999</ele><time>2026-03-27T16:39:18.836Z</time></trkpt><trkpt lat="40.5422443" lon="9.6903331"><ele>113.0</ele><time>2026-03-27T16:39:19.831Z</time></trkpt><trkpt lat="40.5422397" lon="9.6902331"><ele>113.0</ele><time>2026-03-27T16:39:20.832Z</time></trkpt><trkpt lat="40.5422304" lon="9.6901304"><ele>113.0</ele><time>2026-03-27T16:39:21.834Z</time></trkpt><trkpt lat="40.5422013" lon="9.6900177"><ele>112.99999999999999</ele><time>2026-03-27T16:39:22.834Z</time></trkpt><trkpt lat="40.5421808" lon="9.6899069"><ele>113.0</ele><time>2026-03-27T16:39:23.842Z</time></trkpt><trkpt lat="40.5421935" lon="9.6897997"><ele>111.16666666666666</ele><time>2026-03-27T16:39:24.836Z</time></trkpt><trkpt lat="40.54221" lon="9.6896896"><ele>109.33333333333333</ele><time>2026-03-27T16:39:25.835Z</time></trkpt><trkpt lat="40.5422052" lon="9.689589"><ele>107.5</ele><time>2026-03-27T16:39:26.845Z</time></trkpt><trkpt lat="40.5421947" lon="9.6894842"><ele>105.66666666666666</ele><time>2026-03-27T16:39:27.835Z</time></trkpt><trkpt lat="40.5421649" lon="9.6893777"><ele>103.83333333333333</ele><time>2026-03-27T16:39:28.838Z</time></trkpt><trkpt lat="40.5421403" lon="9.6892528"><ele>102.0</ele><time>2026-03-27T16:39:29.837Z</time></trkpt><trkpt lat="40.5421202" lon="9.6891251"><ele>101.39999999999999</ele><time>2026-03-27T16:39:30.836Z</time></trkpt><trkpt lat="40.5420882" lon="9.6889982"><ele>100.8</ele><time>2026-03-27T16:39:31.833Z</time></trkpt><trkpt lat="40.542036" lon="9.6888764"><ele>100.2</ele><time>2026-03-27T16:39:32.832Z</time></trkpt><trkpt lat="40.541968" lon="9.688761"><ele>99.6</ele><time>2026-03-27T16:39:33.835Z</time></trkpt><trkpt lat="40.5418986" lon="9.6886463"><ele>99.0</ele><time>2026-03-27T16:39:34.839Z</time></trkpt><trkpt lat="40.5418286" lon="9.6885205"><ele>101.66666666666667</ele><time>2026-03-27T16:39:35.833Z</time></trkpt><trkpt lat="40.5417599" lon="9.6883935"><ele>104.33333333333334</ele><time>2026-03-27T16:39:36.834Z</time></trkpt><trkpt lat="40.5416961" lon="9.6882927"><ele>107.0</ele><time>2026-03-27T16:39:37.839Z</time></trkpt><trkpt lat="40.5416453" lon="9.6882294"><ele>109.66666666666667</ele><time>2026-03-27T16:39:38.832Z</time></trkpt><trkpt lat="40.5415548" lon="9.6881893"><ele>112.33333333333334</ele><time>2026-03-27T16:39:40.835Z</time></trkpt><trkpt lat="40.5414966" lon="9.6882226"><ele>115.0</ele><time>2026-03-27T16:39:41.833Z</time></trkpt><trkpt lat="40.5414313" lon="9.6882616"><ele>115.00000000000001</ele><time>2026-03-27T16:39:42.848Z</time></trkpt><trkpt lat="40.5413716" lon="9.6883045"><ele>115.0</ele><time>2026-03-27T16:39:43.837Z</time></trkpt><trkpt lat="40.5413049" lon="9.6883"><ele>115.0</ele><time>2026-03-27T16:39:44.84Z</time></trkpt><trkpt lat="40.5412269" lon="9.688267"><ele>115.0</ele><time>2026-03-27T16:39:45.833Z</time></trkpt><trkpt lat="40.541142" lon="9.6882262"><ele>115.00000000000001</ele><time>2026-03-27T16:39:46.836Z</time></trkpt><trkpt lat="40.5410465" lon="9.6881791"><ele>115.0</ele><time>2026-03-27T16:39:47.838Z</time></trkpt><trkpt lat="40.5409599" lon="9.6881406"><ele>116.00000000000001</ele><time>2026-03-27T16:39:48.84Z</time></trkpt><trkpt lat="40.5408969" lon="9.6881197"><ele>117.0</ele><time>2026-03-27T16:39:49.83Z</time></trkpt><trkpt lat="40.5408027" lon="9.6881792"><ele>118.0</ele><time>2026-03-27T16:39:51.841Z</time></trkpt><trkpt lat="40.5407765" lon="9.6883176"><ele>119.0</ele><time>2026-03-27T16:39:53.836Z</time></trkpt><trkpt lat="40.5407865" lon="9.6884163"><ele>120.00000000000001</ele><time>2026-03-27T16:39:54.838Z</time></trkpt><trkpt lat="40.5408013" lon="9.688532"><ele>121.0</ele><time>2026-03-27T16:39:55.838Z</time></trkpt><trkpt lat="40.540826" lon="9.6886711"><ele>122.6</ele><time>2026-03-27T16:39:56.837Z</time></trkpt><trkpt lat="40.5408472" lon="9.6888087"><ele>124.19999999999999</ele><time>2026-03-27T16:39:57.842Z</time></trkpt><trkpt lat="40.5408326" lon="9.6889456"><ele>125.80000000000001</ele><time>2026-03-27T16:39:58.835Z</time></trkpt><trkpt lat="40.5408057" lon="9.6890881"><ele>127.4</ele><time>2026-03-27T16:39:59.836Z</time></trkpt><trkpt lat="40.540779" lon="9.6892139"><ele>129.0</ele><time>2026-03-27T16:40:00.845Z</time></trkpt><trkpt lat="40.5407332" lon="9.6893211"><ele>129.0</ele><time>2026-03-27T16:40:01.835Z</time></trkpt><trkpt lat="40.540682" lon="9.6894194"><ele>129.0</ele><time>2026-03-27T16:40:02.834Z</time></trkpt><trkpt lat="40.5406525" lon="9.689512"><ele>129.0</ele><time>2026-03-27T16:40:03.84Z</time></trkpt><trkpt lat="40.5406494" lon="9.6896041"><ele>129.0</ele><time>2026-03-27T16:40:04.843Z</time></trkpt><trkpt lat="40.5406498" lon="9.6897053"><ele>129.0</ele><time>2026-03-27T16:40:05.836Z</time></trkpt><trkpt lat="40.5406834" lon="9.6898155"><ele>129.0</ele><time>2026-03-27T16:40:06.841Z</time></trkpt><trkpt lat="40.5407418" lon="9.6898987"><ele>129.6</ele><time>2026-03-27T16:40:07.851Z</time></trkpt><trkpt lat="40.5408142" lon="9.689967"><ele>130.2</ele><time>2026-03-27T16:40:08.841Z</time></trkpt><trkpt lat="40.5408864" lon="9.6900254"><ele>130.79999999999998</ele><time>2026-03-27T16:40:09.833Z</time></trkpt><trkpt lat="40.5409477" lon="9.6900963"><ele>131.4</ele><time>2026-03-27T16:40:10.839Z</time></trkpt><trkpt lat="40.5409938" lon="9.6901967"><ele>132.0</ele><time>2026-03-27T16:40:11.839Z</time></trkpt><trkpt lat="40.5410312" lon="9.6903267"><ele>132.6</ele><time>2026-03-27T16:40:12.841Z</time></trkpt><trkpt lat="40.5410759" lon="9.6904746"><ele>133.2</ele><time>2026-03-27T16:40:13.839Z</time></trkpt><trkpt lat="40.5411156" lon="9.6906112"><ele>133.8</ele><time>2026-03-27T16:40:14.841Z</time></trkpt><trkpt lat="40.5411462" lon="9.6907409"><ele>134.4</ele><time>2026-03-27T16:40:15.845Z</time></trkpt><trkpt lat="40.5411567" lon="9.6908472"><ele>135.0</ele><time>2026-03-27T16:40:16.846Z</time></trkpt><trkpt lat="40.5411298" lon="9.6909589"><ele>135.0</ele><time>2026-03-27T16:40:17.843Z</time></trkpt><trkpt lat="40.5410747" lon="9.6910737"><ele>135.0</ele><time>2026-03-27T16:40:18.843Z</time></trkpt><trkpt lat="40.5410168" lon="9.6912277"><ele>135.0</ele><time>2026-03-27T16:40:19.843Z</time></trkpt><trkpt lat="40.5409704" lon="9.6913818"><ele>135.0</ele><time>2026-03-27T16:40:20.835Z</time></trkpt><trkpt lat="40.5409136" lon="9.6915135"><ele>138.0</ele><time>2026-03-27T16:40:21.856Z</time></trkpt><trkpt lat="40.540859" lon="9.6916347"><ele>141.0</ele><time>2026-03-27T16:40:22.841Z</time></trkpt><trkpt lat="40.5407855" lon="9.6917565"><ele>144.0</ele><time>2026-03-27T16:40:23.839Z</time></trkpt><trkpt lat="40.5407204" lon="9.6918988"><ele>147.0</ele><time>2026-03-27T16:40:24.845Z</time></trkpt><trkpt lat="40.5406485" lon="9.6920144"><ele>148.6</ele><time>2026-03-27T16:40:25.833Z</time></trkpt><trkpt lat="40.5405724" lon="9.6920965"><ele>150.2</ele><time>2026-03-27T16:40:26.838Z</time></trkpt><trkpt lat="40.540492" lon="9.6921763"><ele>151.8</ele><time>2026-03-27T16:40:27.835Z</time></trkpt><trkpt lat="40.5403987" lon="9.6922344"><ele>153.4</ele><time>2026-03-27T16:40:28.841Z</time></trkpt><trkpt lat="40.5403408" lon="9.6922985"><ele>155.0</ele><time>2026-03-27T16:40:29.835Z</time></trkpt><trkpt lat="40.5403011" lon="9.6923813"><ele>155.0</ele><time>2026-03-27T16:40:30.837Z</time></trkpt><trkpt lat="40.540271" lon="9.692481"><ele>155.0</ele><time>2026-03-27T16:40:31.842Z</time></trkpt><trkpt lat="40.5402374" lon="9.692553"><ele>155.0</ele><time>2026-03-27T16:40:32.837Z</time></trkpt><trkpt lat="40.5401634" lon="9.6926271"><ele>155.0</ele><time>2026-03-27T16:40:34.833Z</time></trkpt><trkpt lat="40.5400936" lon="9.6926097"><ele>155.0</ele><time>2026-03-27T16:40:35.841Z</time></trkpt><trkpt lat="40.5400319" lon="9.6925919"><ele>155.0</ele><time>2026-03-27T16:40:36.836Z</time></trkpt><trkpt lat="40.5399241" lon="9.6926168"><ele>155.8</ele><time>2026-03-27T16:40:38.837Z</time></trkpt><trkpt lat="40.5398783" lon="9.6927884"><ele>156.6</ele><time>2026-03-27T16:40:40.843Z</time></trkpt><trkpt lat="40.5398598" lon="9.6928967"><ele>157.4</ele><time>2026-03-27T16:40:41.834Z</time></trkpt><trkpt lat="40.5398254" lon="9.6929857"><ele>158.2</ele><time>2026-03-27T16:40:42.833Z</time></trkpt><trkpt lat="40.5397907" lon="9.6930666"><ele>159.0</ele><time>2026-03-27T16:40:43.84Z</time></trkpt><trkpt lat="40.5396673" lon="9.6930786"><ele>159.0</ele><time>2026-03-27T16:40:45.839Z</time></trkpt><trkpt lat="40.5395871" lon="9.693041"><ele>159.0</ele><time>2026-03-27T16:40:46.834Z</time></trkpt><trkpt lat="40.5395" lon="9.6929764"><ele>159.0</ele><time>2026-03-27T16:40:47.838Z</time></trkpt><trkpt lat="40.5394071" lon="9.6928865"><ele>159.0</ele><time>2026-03-27T16:40:48.837Z</time></trkpt><trkpt lat="40.5393179" lon="9.6927804"><ele>159.0</ele><time>2026-03-27T16:40:49.839Z</time></trkpt><trkpt lat="40.539234" lon="9.6926816"><ele>159.0</ele><time>2026-03-27T16:40:50.842Z</time></trkpt><trkpt lat="40.5391636" lon="9.6926331"><ele>159.0</ele><time>2026-03-27T16:40:51.846Z</time></trkpt><trkpt lat="40.5390982" lon="9.6926232"><ele>159.0</ele><time>2026-03-27T16:40:52.838Z</time></trkpt><trkpt lat="40.5390209" lon="9.6926406"><ele>159.0</ele><time>2026-03-27T16:40:53.835Z</time></trkpt><trkpt lat="40.5389311" lon="9.6926623"><ele>159.0</ele><time>2026-03-27T16:40:54.845Z</time></trkpt><trkpt lat="40.5388466" lon="9.6926656"><ele>159.0</ele><time>2026-03-27T16:40:55.835Z</time></trkpt><trkpt lat="40.5387672" lon="9.6926307"><ele>163.0</ele><time>2026-03-27T16:40:56.843Z</time></trkpt><trkpt lat="40.5386752" lon="9.6925818"><ele>167.0</ele><time>2026-03-27T16:40:57.837Z</time></trkpt><trkpt lat="40.5385733" lon="9.6924853"><ele>171.0</ele><time>2026-03-27T16:40:58.845Z</time></trkpt><trkpt lat="40.5384652" lon="9.6923576"><ele>175.0</ele><time>2026-03-27T16:40:59.837Z</time></trkpt><trkpt lat="40.5383671" lon="9.6922475"><ele>175.0</ele><time>2026-03-27T16:41:00.839Z</time></trkpt><trkpt lat="40.5382914" lon="9.6921624"><ele>175.0</ele><time>2026-03-27T16:41:01.895Z</time></trkpt><trkpt lat="40.5381871" lon="9.692123"><ele>175.0</ele><time>2026-03-27T16:41:03.852Z</time></trkpt><trkpt lat="40.5380695" lon="9.6921952"><ele>175.0</ele><time>2026-03-27T16:41:05.843Z</time></trkpt><trkpt lat="40.5380042" lon="9.6922916"><ele>175.0</ele><time>2026-03-27T16:41:06.842Z</time></trkpt><trkpt lat="40.5379391" lon="9.6923965"><ele>175.0</ele><time>2026-03-27T16:41:07.834Z</time></trkpt><trkpt lat="40.537888" lon="9.6925308"><ele>175.0</ele><time>2026-03-27T16:41:08.833Z</time></trkpt><trkpt lat="40.5378458" lon="9.6926401"><ele>175.0</ele><time>2026-03-27T16:41:09.848Z</time></trkpt><trkpt lat="40.5378018" lon="9.6927106"><ele>175.0</ele><time>2026-03-27T16:41:10.845Z</time></trkpt><trkpt lat="40.5377358" lon="9.6927495"><ele>175.0</ele><time>2026-03-27T16:41:11.844Z</time></trkpt><trkpt lat="40.5376483" lon="9.6927522"><ele>175.0</ele><time>2026-03-27T16:41:12.848Z</time></trkpt><trkpt lat="40.5375404" lon="9.6927925"><ele>178.16666666666669</ele><time>2026-03-27T16:41:13.842Z</time></trkpt><trkpt lat="40.537446" lon="9.6928465"><ele>181.33333333333334</ele><time>2026-03-27T16:41:14.839Z</time></trkpt><trkpt lat="40.5373583" lon="9.6929009"><ele>184.5</ele><time>2026-03-27T16:41:15.847Z</time></trkpt><trkpt lat="40.5372793" lon="9.6929536"><ele>187.66666666666669</ele><time>2026-03-27T16:41:16.838Z</time></trkpt><trkpt lat="40.5372113" lon="9.6929752"><ele>190.83333333333334</ele><time>2026-03-27T16:41:17.839Z</time></trkpt><trkpt lat="40.5371443" lon="9.6929658"><ele>194.0</ele><time>2026-03-27T16:41:18.845Z</time></trkpt><trkpt lat="40.5370708" lon="9.6929271"><ele>192.79999999999998</ele><time>2026-03-27T16:41:19.839Z</time></trkpt><trkpt lat="40.5369726" lon="9.6928634"><ele>191.6</ele><time>2026-03-27T16:41:20.838Z</time></trkpt><trkpt lat="40.5368819" lon="9.6927963"><ele>190.4</ele><time>2026-03-27T16:41:21.835Z</time></trkpt><trkpt lat="40.5368121" lon="9.6927185"><ele>189.2</ele><time>2026-03-27T16:41:22.84Z</time></trkpt><trkpt lat="40.5367454" lon="9.6926373"><ele>188.0</ele><time>2026-03-27T16:41:23.84Z</time></trkpt><trkpt lat="40.5366896" lon="9.6925433"><ele>188.0</ele><time>2026-03-27T16:41:24.832Z</time></trkpt><trkpt lat="40.5366252" lon="9.6924696"><ele>188.0</ele><time>2026-03-27T16:41:25.835Z</time></trkpt><trkpt lat="40.5365382" lon="9.6924164"><ele>188.0</ele><time>2026-03-27T16:41:26.831Z</time></trkpt><trkpt lat="40.5364459" lon="9.6923641"><ele>188.0</ele><time>2026-03-27T16:41:27.831Z</time></trkpt><trkpt lat="40.5363199" lon="9.6923243"><ele>188.0</ele><time>2026-03-27T16:41:28.843Z</time></trkpt><trkpt lat="40.5362128" lon="9.6922817"><ele>189.83333333333331</ele><time>2026-03-27T16:41:29.835Z</time></trkpt><trkpt lat="40.5361222" lon="9.6922546"><ele>191.66666666666666</ele><time>2026-03-27T16:41:30.842Z</time></trkpt><trkpt lat="40.5360294" lon="9.6922263"><ele>193.5</ele><time>2026-03-27T16:41:31.839Z</time></trkpt><trkpt lat="40.5359466" lon="9.6922441"><ele>195.33333333333331</ele><time>2026-03-27T16:41:32.839Z</time></trkpt><trkpt lat="40.5358687" lon="9.6922722"><ele>197.16666666666666</ele><time>2026-03-27T16:41:33.845Z</time></trkpt><trkpt lat="40.5358016" lon="9.6922965"><ele>199.0</ele><time>2026-03-27T16:41:34.84Z</time></trkpt><trkpt lat="40.5357095" lon="9.692407"><ele>199.0</ele><time>2026-03-27T16:41:36.835Z</time></trkpt><trkpt lat="40.5356564" lon="9.6924676"><ele>199.0</ele><time>2026-03-27T16:41:37.845Z</time></trkpt><trkpt lat="40.5356144" lon="9.6925736"><ele>199.0</ele><time>2026-03-27T16:41:38.836Z</time></trkpt><trkpt lat="40.535559" lon="9.6927004"><ele>199.0</ele><time>2026-03-27T16:41:39.846Z</time></trkpt><trkpt lat="40.5355307" lon="9.6928267"><ele>199.0</ele><time>2026-03-27T16:41:40.84Z</time></trkpt><trkpt lat="40.5355068" lon="9.6929507"><ele>201.16666666666666</ele><time>2026-03-27T16:41:41.837Z</time></trkpt><trkpt lat="40.5355047" lon="9.6930793"><ele>203.33333333333331</ele><time>2026-03-27T16:41:42.847Z</time></trkpt><trkpt lat="40.5355052" lon="9.6931893"><ele>205.5</ele><time>2026-03-27T16:41:43.84Z</time></trkpt><trkpt lat="40.5355263" lon="9.6932988"><ele>207.66666666666669</ele><time>2026-03-27T16:41:44.849Z</time></trkpt><trkpt lat="40.5355521" lon="9.6934021"><ele>209.83333333333334</ele><time>2026-03-27T16:41:45.835Z</time></trkpt><trkpt lat="40.5356" lon="9.6935062"><ele>212.0</ele><time>2026-03-27T16:41:46.836Z</time></trkpt><trkpt lat="40.5356431" lon="9.6936181"><ele>211.66666666666669</ele><time>2026-03-27T16:41:47.838Z</time></trkpt><trkpt lat="40.535666" lon="9.6937035"><ele>211.33333333333334</ele><time>2026-03-27T16:41:48.839Z</time></trkpt><trkpt lat="40.5356528" lon="9.6938115"><ele>211.0</ele><time>2026-03-27T16:41:50.838Z</time></trkpt><trkpt lat="40.5355683" lon="9.6938576"><ele>210.66666666666669</ele><time>2026-03-27T16:41:52.848Z</time></trkpt><trkpt lat="40.535506" lon="9.6938748"><ele>210.33333333333334</ele><time>2026-03-27T16:41:53.844Z</time></trkpt><trkpt lat="40.5354216" lon="9.6939321"><ele>210.0</ele><time>2026-03-27T16:41:55.831Z</time></trkpt><trkpt lat="40.535377" lon="9.6939987"><ele>210.0</ele><time>2026-03-27T16:41:56.837Z</time></trkpt><trkpt lat="40.5353245" lon="9.694121"><ele>210.0</ele><time>2026-03-27T16:41:57.836Z</time></trkpt><trkpt lat="40.5352683" lon="9.6942209"><ele>210.0</ele><time>2026-03-27T16:41:58.836Z</time></trkpt><trkpt lat="40.5352015" lon="9.6943034"><ele>210.0</ele><time>2026-03-27T16:41:59.845Z</time></trkpt><trkpt lat="40.5351232" lon="9.6943666"><ele>210.0</ele><time>2026-03-27T16:42:00.846Z</time></trkpt><trkpt lat="40.5350501" lon="9.6944103"><ele>213.4</ele><time>2026-03-27T16:42:01.834Z</time></trkpt><trkpt lat="40.5349899" lon="9.6944577"><ele>216.8</ele><time>2026-03-27T16:42:02.835Z</time></trkpt><trkpt lat="40.5349233" lon="9.6945703"><ele>220.2</ele><time>2026-03-27T16:42:04.837Z</time></trkpt><trkpt lat="40.5349224" lon="9.6947521"><ele>223.6</ele><time>2026-03-27T16:42:06.834Z</time></trkpt><trkpt lat="40.534922" lon="9.6948682"><ele>227.0</ele><time>2026-03-27T16:42:07.838Z</time></trkpt><trkpt lat="40.5348966" lon="9.6949785"><ele>227.0</ele><time>2026-03-27T16:42:08.833Z</time></trkpt><trkpt lat="40.5348496" lon="9.695081"><ele>227.0</ele><time>2026-03-27T16:42:09.844Z</time></trkpt><trkpt lat="40.5348032" lon="9.6951789"><ele>227.0</ele><time>2026-03-27T16:42:10.836Z</time></trkpt><trkpt lat="40.5347394" lon="9.6952496"><ele>227.0</ele><time>2026-03-27T16:42:11.839Z</time></trkpt><trkpt lat="40.5346449" lon="9.6952883"><ele>227.0</ele><time>2026-03-27T16:42:12.833Z</time></trkpt><trkpt lat="40.5345626" lon="9.695334"><ele>226.00000000000003</ele><time>2026-03-27T16:42:13.843Z</time></trkpt><trkpt lat="40.5345033" lon="9.695394"><ele>225.0</ele><time>2026-03-27T16:42:14.831Z</time></trkpt><trkpt lat="40.5344637" lon="9.6954744"><ele>224.0</ele><time>2026-03-27T16:42:15.841Z</time></trkpt><trkpt lat="40.5344338" lon="9.6955765"><ele>223.0</ele><time>2026-03-27T16:42:16.835Z</time></trkpt><trkpt lat="40.5344115" lon="9.6956936"><ele>222.00000000000003</ele><time>2026-03-27T16:42:17.842Z</time></trkpt><trkpt lat="40.5343909" lon="9.6958116"><ele>221.0</ele><time>2026-03-27T16:42:18.833Z</time></trkpt><trkpt lat="40.5343774" lon="9.6959306"><ele>221.00000000000003</ele><time>2026-03-27T16:42:19.839Z</time></trkpt><trkpt lat="40.5343861" lon="9.6960465"><ele>221.0</ele><time>2026-03-27T16:42:20.841Z</time></trkpt><trkpt lat="40.5344093" lon="9.6961512"><ele>221.0</ele><time>2026-03-27T16:42:21.836Z</time></trkpt><trkpt lat="40.534431" lon="9.6962587"><ele>221.0</ele><time>2026-03-27T16:42:22.842Z</time></trkpt><trkpt lat="40.5344426" lon="9.6963705"><ele>221.00000000000003</ele><time>2026-03-27T16:42:23.834Z</time></trkpt><trkpt lat="40.5344107" lon="9.6964981"><ele>221.0</ele><time>2026-03-27T16:42:24.836Z</time></trkpt><trkpt lat="40.5343623" lon="9.6966389"><ele>224.20000000000002</ele><time>2026-03-27T16:42:25.837Z</time></trkpt><trkpt lat="40.5343157" lon="9.6967786"><ele>227.40000000000003</ele><time>2026-03-27T16:42:26.837Z</time></trkpt><trkpt lat="40.53427" lon="9.6969078"><ele>230.6</ele><time>2026-03-27T16:42:27.837Z</time></trkpt><trkpt lat="40.5342302" lon="9.6970058"><ele>233.8</ele><time>2026-03-27T16:42:28.837Z</time></trkpt><trkpt lat="40.5341813" lon="9.6970724"><ele>237.0</ele><time>2026-03-27T16:42:29.835Z</time></trkpt><trkpt lat="40.5341056" lon="9.6971046"><ele>238.0</ele><time>2026-03-27T16:42:30.839Z</time></trkpt><trkpt lat="40.5340154" lon="9.6970995"><ele>239.0</ele><time>2026-03-27T16:42:31.839Z</time></trkpt><trkpt lat="40.5339178" lon="9.6970912"><ele>240.0</ele><time>2026-03-27T16:42:32.835Z</time></trkpt><trkpt lat="40.5338226" lon="9.6970884"><ele>241.0</ele><time>2026-03-27T16:42:33.833Z</time></trkpt><trkpt lat="40.5337506" lon="9.6971324"><ele>242.0</ele><time>2026-03-27T16:42:34.839Z</time></trkpt><trkpt lat="40.5336781" lon="9.6972006"><ele>242.00000000000003</ele><time>2026-03-27T16:42:35.829Z</time></trkpt><trkpt lat="40.5336189" lon="9.6972833"><ele>242.0</ele><time>2026-03-27T16:42:36.84Z</time></trkpt><trkpt lat="40.5335617" lon="9.6973664"><ele>242.0</ele><time>2026-03-27T16:42:37.833Z</time></trkpt><trkpt lat="40.5335121" lon="9.697472"><ele>242.0</ele><time>2026-03-27T16:42:38.842Z</time></trkpt><trkpt lat="40.5334638" lon="9.6975812"><ele>242.00000000000003</ele><time>2026-03-27T16:42:39.834Z</time></trkpt><trkpt lat="40.5334231" lon="9.6976799"><ele>242.0</ele><time>2026-03-27T16:42:40.841Z</time></trkpt><trkpt lat="40.5334061" lon="9.6977925"><ele>245.39999999999998</ele><time>2026-03-27T16:42:41.839Z</time></trkpt><trkpt lat="40.533391" lon="9.6978858"><ele>248.79999999999998</ele><time>2026-03-27T16:42:42.836Z</time></trkpt><trkpt lat="40.5333003" lon="9.6980148"><ele>252.2</ele><time>2026-03-27T16:42:44.837Z</time></trkpt><trkpt lat="40.5332362" lon="9.6980781"><ele>255.6</ele><time>2026-03-27T16:42:45.834Z</time></trkpt><trkpt lat="40.533164" lon="9.6982163"><ele>259.0</ele><time>2026-03-27T16:42:47.833Z</time></trkpt><trkpt lat="40.5331288" lon="9.6982955"><ele>259.0</ele><time>2026-03-27T16:42:48.834Z</time></trkpt><trkpt lat="40.5330973" lon="9.6983916"><ele>259.0</ele><time>2026-03-27T16:42:49.841Z</time></trkpt><trkpt lat="40.5330799" lon="9.6985074"><ele>259.0</ele><time>2026-03-27T16:42:50.838Z</time></trkpt><trkpt lat="40.5330731" lon="9.698639"><ele>259.0</ele><time>2026-03-27T16:42:51.836Z</time></trkpt><trkpt lat="40.5330701" lon="9.6987971"><ele>259.0</ele><time>2026-03-27T16:42:52.835Z</time></trkpt><trkpt lat="40.533065" lon="9.6989431"><ele>257.2</ele><time>2026-03-27T16:42:53.84Z</time></trkpt><trkpt lat="40.53305" lon="9.6990737"><ele>255.39999999999998</ele><time>2026-03-27T16:42:54.844Z</time></trkpt><trkpt lat="40.5330348" lon="9.6991982"><ele>253.6</ele><time>2026-03-27T16:42:55.843Z</time></trkpt><trkpt lat="40.5329997" lon="9.6992851"><ele>251.8</ele><time>2026-03-27T16:42:56.853Z</time></trkpt><trkpt lat="40.5329252" lon="9.6993869"><ele>250.0</ele><time>2026-03-27T16:42:58.839Z</time></trkpt><trkpt lat="40.5328409" lon="9.699398"><ele>253.2</ele><time>2026-03-27T16:42:59.839Z</time></trkpt><trkpt lat="40.5327216" lon="9.699418"><ele>256.4</ele><time>2026-03-27T16:43:00.844Z</time></trkpt><trkpt lat="40.5326131" lon="9.699472"><ele>259.6</ele><time>2026-03-27T16:43:01.837Z</time></trkpt><trkpt lat="40.5325149" lon="9.6995244"><ele>262.8</ele><time>2026-03-27T16:43:02.834Z</time></trkpt><trkpt lat="40.5324373" lon="9.6995625"><ele>266.0</ele><time>2026-03-27T16:43:03.835Z</time></trkpt><trkpt lat="40.5323737" lon="9.6996028"><ele>266.0</ele><time>2026-03-27T16:43:05.837Z</time></trkpt><trkpt lat="40.53238" lon="9.6997212"><ele>266.0</ele><time>2026-03-27T16:43:08.837Z</time></trkpt><trkpt lat="40.5324965" lon="9.6997529"><ele>266.0</ele><time>2026-03-27T16:43:10.839Z</time></trkpt><trkpt lat="40.5325932" lon="9.6997352"><ele>266.0</ele><time>2026-03-27T16:43:11.849Z</time></trkpt><trkpt lat="40.5326864" lon="9.699714"><ele>266.0</ele><time>2026-03-27T16:43:12.838Z</time></trkpt><trkpt lat="40.5327631" lon="9.6996866"><ele>266.0</ele><time>2026-03-27T16:43:13.836Z</time></trkpt><trkpt lat="40.5328817" lon="9.6997584"><ele>266.0</ele><time>2026-03-27T16:43:15.839Z</time></trkpt><trkpt lat="40.532955" lon="9.6998537"><ele>266.0</ele><time>2026-03-27T16:43:16.833Z</time></trkpt><trkpt lat="40.5330365" lon="9.6999393"><ele>266.0</ele><time>2026-03-27T16:43:17.848Z</time></trkpt><trkpt lat="40.5331342" lon="9.6999887"><ele>266.0</ele><time>2026-03-27T16:43:18.833Z</time></trkpt><trkpt lat="40.5332311" lon="9.7000315"><ele>267.8</ele><time>2026-03-27T16:43:19.831Z</time></trkpt><trkpt lat="40.533336" lon="9.7000687"><ele>269.6</ele><time>2026-03-27T16:43:20.836Z</time></trkpt><trkpt lat="40.5334213" lon="9.700075"><ele>271.4</ele><time>2026-03-27T16:43:21.834Z</time></trkpt><trkpt lat="40.5334994" lon="9.700043"><ele>273.2</ele><time>2026-03-27T16:43:22.842Z</time></trkpt><trkpt lat="40.5335769" lon="9.7000121"><ele>275.0</ele><time>2026-03-27T16:43:23.841Z</time></trkpt><trkpt lat="40.5336812" lon="9.6999955"><ele>275.0</ele><time>2026-03-27T16:43:25.867Z</time></trkpt><trkpt lat="40.533715" lon="9.7000776"><ele>275.0</ele><time>2026-03-27T16:43:27.836Z</time></trkpt><trkpt lat="40.533676" lon="9.7002164"><ele>275.0</ele><time>2026-03-27T16:43:29.845Z</time></trkpt><trkpt lat="40.5336364" lon="9.7003041"><ele>275.0</ele><time>2026-03-27T16:43:30.837Z</time></trkpt><trkpt lat="40.5335612" lon="9.7004103"><ele>275.0</ele><time>2026-03-27T16:43:31.851Z</time></trkpt><trkpt lat="40.5334955" lon="9.7005365"><ele>276.8</ele><time>2026-03-27T16:43:32.841Z</time></trkpt><trkpt lat="40.5334501" lon="9.7006802"><ele>278.6</ele><time>2026-03-27T16:43:33.841Z</time></trkpt><trkpt lat="40.5334089" lon="9.7007922"><ele>280.4</ele><time>2026-03-27T16:43:34.838Z</time></trkpt><trkpt lat="40.5333494" lon="9.7008818"><ele>282.2</ele><time>2026-03-27T16:43:35.844Z</time></trkpt><trkpt lat="40.5332948" lon="9.7009588"><ele>284.0</ele><time>2026-03-27T16:43:36.833Z</time></trkpt><trkpt lat="40.5332733" lon="9.7010437"><ele>285.2</ele><time>2026-03-27T16:43:37.847Z</time></trkpt><trkpt lat="40.5332741" lon="9.7011587"><ele>286.4</ele><time>2026-03-27T16:43:38.835Z</time></trkpt><trkpt lat="40.5332787" lon="9.7012944"><ele>287.6</ele><time>2026-03-27T16:43:39.842Z</time></trkpt><trkpt lat="40.5332955" lon="9.7014526"><ele>288.8</ele><time>2026-03-27T16:43:40.834Z</time></trkpt><trkpt lat="40.5332983" lon="9.7016091"><ele>290.0</ele><time>2026-03-27T16:43:41.843Z</time></trkpt><trkpt lat="40.5332967" lon="9.7017565"><ele>290.0</ele><time>2026-03-27T16:43:42.834Z</time></trkpt><trkpt lat="40.5332854" lon="9.7018929"><ele>290.0</ele><time>2026-03-27T16:43:43.836Z</time></trkpt><trkpt lat="40.5332665" lon="9.7020207"><ele>290.0</ele><time>2026-03-27T16:43:44.829Z</time></trkpt><trkpt lat="40.5332352" lon="9.7021198"><ele>290.0</ele><time>2026-03-27T16:43:45.84Z</time></trkpt><trkpt lat="40.5331913" lon="9.7022096"><ele>290.0</ele><time>2026-03-27T16:43:46.838Z</time></trkpt><trkpt lat="40.5331068" lon="9.7022889"><ele>289.6</ele><time>2026-03-27T16:43:47.849Z</time></trkpt><trkpt lat="40.5330183" lon="9.7023684"><ele>289.2</ele><time>2026-03-27T16:43:48.835Z</time></trkpt><trkpt lat="40.5329078" lon="9.7024286"><ele>288.8</ele><time>2026-03-27T16:43:49.845Z</time></trkpt><trkpt lat="40.532816" lon="9.7024904"><ele>288.4</ele><time>2026-03-27T16:43:50.835Z</time></trkpt><trkpt lat="40.5327435" lon="9.7025672"><ele>288.0</ele><time>2026-03-27T16:43:51.842Z</time></trkpt><trkpt lat="40.5326914" lon="9.7026748"><ele>293.8</ele><time>2026-03-27T16:43:52.838Z</time></trkpt><trkpt lat="40.5326293" lon="9.7027964"><ele>299.6</ele><time>2026-03-27T16:43:53.842Z</time></trkpt><trkpt lat="40.5325543" lon="9.7029251"><ele>305.4</ele><time>2026-03-27T16:43:54.839Z</time></trkpt><trkpt lat="40.5324877" lon="9.7030361"><ele>311.2</ele><time>2026-03-27T16:43:55.841Z</time></trkpt><trkpt lat="40.5324495" lon="9.7031361"><ele>317.0</ele><time>2026-03-27T16:43:56.827Z</time></trkpt><trkpt lat="40.532416" lon="9.7032214"><ele>317.0</ele><time>2026-03-27T16:43:57.838Z</time></trkpt><trkpt lat="40.5324151" lon="9.7033264"><ele>317.0</ele><time>2026-03-27T16:43:58.831Z</time></trkpt><trkpt lat="40.5324365" lon="9.7034563"><ele>317.0</ele><time>2026-03-27T16:43:59.839Z</time></trkpt><trkpt lat="40.5324557" lon="9.7036158"><ele>317.0</ele><time>2026-03-27T16:44:00.841Z</time></trkpt><trkpt lat="40.5324724" lon="9.7037891"><ele>317.0</ele><time>2026-03-27T16:44:01.832Z</time></trkpt><trkpt lat="40.5324892" lon="9.7039603"><ele>317.8</ele><time>2026-03-27T16:44:02.827Z</time></trkpt><trkpt lat="40.5325128" lon="9.7041034"><ele>318.6</ele><time>2026-03-27T16:44:03.834Z</time></trkpt><trkpt lat="40.5325368" lon="9.7042307"><ele>319.40000000000003</ele><time>2026-03-27T16:44:04.835Z</time></trkpt><trkpt lat="40.5325338" lon="9.7043504"><ele>320.2</ele><time>2026-03-27T16:44:05.848Z</time></trkpt><trkpt lat="40.5325119" lon="9.7044547"><ele>321.0</ele><time>2026-03-27T16:44:06.836Z</time></trkpt><trkpt lat="40.5324901" lon="9.7045518"><ele>321.0</ele><time>2026-03-27T16:44:07.835Z</time></trkpt><trkpt lat="40.5324444" lon="9.70465"><ele>321.0</ele><time>2026-03-27T16:44:08.832Z</time></trkpt><trkpt lat="40.5323967" lon="9.7047523"><ele>321.0</ele><time>2026-03-27T16:44:09.832Z</time></trkpt><trkpt lat="40.5323455" lon="9.7048707"><ele>321.0</ele><time>2026-03-27T16:44:10.832Z</time></trkpt><trkpt lat="40.5322976" lon="9.7049996"><ele>321.0</ele><time>2026-03-27T16:44:11.838Z</time></trkpt><trkpt lat="40.5322671" lon="9.7051207"><ele>320.5</ele><time>2026-03-27T16:44:12.837Z</time></trkpt><trkpt lat="40.532235" lon="9.7052549"><ele>320.0</ele><time>2026-03-27T16:44:13.832Z</time></trkpt><trkpt lat="40.532222" lon="9.7054327"><ele>319.5</ele><time>2026-03-27T16:44:14.831Z</time></trkpt><trkpt lat="40.5322198" lon="9.7055878"><ele>319.0</ele><time>2026-03-27T16:44:15.83Z</time></trkpt><trkpt lat="40.5322207" lon="9.7057257"><ele>319.0</ele><time>2026-03-27T16:44:16.828Z</time></trkpt><trkpt lat="40.5322039" lon="9.7058618"><ele>319.0</ele><time>2026-03-27T16:44:17.833Z</time></trkpt><trkpt lat="40.5321678" lon="9.7060025"><ele>319.0</ele><time>2026-03-27T16:44:18.831Z</time></trkpt><trkpt lat="40.5321306" lon="9.7061385"><ele>319.0</ele><time>2026-03-27T16:44:19.837Z</time></trkpt><trkpt lat="40.5320886" lon="9.706274"><ele>319.0</ele><time>2026-03-27T16:44:20.84Z</time></trkpt><trkpt lat="40.5320489" lon="9.7064256"><ele>320.4</ele><time>2026-03-27T16:44:21.838Z</time></trkpt><trkpt lat="40.5320104" lon="9.706536"><ele>321.79999999999995</ele><time>2026-03-27T16:44:22.838Z</time></trkpt><trkpt lat="40.5319815" lon="9.7066367"><ele>323.20000000000005</ele><time>2026-03-27T16:44:23.837Z</time></trkpt><trkpt lat="40.5319746" lon="9.7067908"><ele>324.6</ele><time>2026-03-27T16:44:25.839Z</time></trkpt><trkpt lat="40.5320979" lon="9.7068654"><ele>326.0</ele><time>2026-03-27T16:44:27.837Z</time></trkpt><trkpt lat="40.5321971" lon="9.7068839"><ele>328.6</ele><time>2026-03-27T16:44:28.843Z</time></trkpt><trkpt lat="40.5322904" lon="9.7069147"><ele>331.20000000000005</ele><time>2026-03-27T16:44:29.836Z</time></trkpt><trkpt lat="40.5323744" lon="9.7069434"><ele>333.79999999999995</ele><time>2026-03-27T16:44:30.845Z</time></trkpt><trkpt lat="40.5324462" lon="9.7070058"><ele>336.4</ele><time>2026-03-27T16:44:31.841Z</time></trkpt><trkpt lat="40.5324908" lon="9.7071173"><ele>339.0</ele><time>2026-03-27T16:44:32.835Z</time></trkpt><trkpt lat="40.5325232" lon="9.7072487"><ele>339.0</ele><time>2026-03-27T16:44:33.843Z</time></trkpt><trkpt lat="40.5325434" lon="9.7074117"><ele>339.0</ele><time>2026-03-27T16:44:34.839Z</time></trkpt><trkpt lat="40.5325587" lon="9.7075718"><ele>339.0</ele><time>2026-03-27T16:44:35.836Z</time></trkpt><trkpt lat="40.532581" lon="9.7077187"><ele>339.0</ele><time>2026-03-27T16:44:36.833Z</time></trkpt><trkpt lat="40.5326214" lon="9.7078589"><ele>342.0</ele><time>2026-03-27T16:44:37.84Z</time></trkpt><trkpt lat="40.5326659" lon="9.7080096"><ele>345.0</ele><time>2026-03-27T16:44:38.843Z</time></trkpt><trkpt lat="40.5327293" lon="9.7081552"><ele>348.0</ele><time>2026-03-27T16:44:39.835Z</time></trkpt><trkpt lat="40.5327979" lon="9.7083082"><ele>351.0</ele><time>2026-03-27T16:44:40.843Z</time></trkpt><trkpt lat="40.5328742" lon="9.7084377"><ele>351.1666666666667</ele><time>2026-03-27T16:44:41.846Z</time></trkpt><trkpt lat="40.532945" lon="9.7085524"><ele>351.3333333333333</ele><time>2026-03-27T16:44:42.84Z</time></trkpt><trkpt lat="40.5329995" lon="9.7086487"><ele>351.5</ele><time>2026-03-27T16:44:43.844Z</time></trkpt><trkpt lat="40.533035" lon="9.7087624"><ele>351.66666666666663</ele><time>2026-03-27T16:44:44.843Z</time></trkpt><trkpt lat="40.5330613" lon="9.7088629"><ele>351.8333333333333</ele><time>2026-03-27T16:44:45.845Z</time></trkpt><trkpt lat="40.5330972" lon="9.7089325"><ele>352.0</ele><time>2026-03-27T16:44:46.835Z</time></trkpt><trkpt lat="40.5331546" lon="9.7089781"><ele>352.0</ele><time>2026-03-27T16:44:47.835Z</time></trkpt><trkpt lat="40.5332185" lon="9.7090238"><ele>352.0</ele><time>2026-03-27T16:44:48.84Z</time></trkpt><trkpt lat="40.5333211" lon="9.709038"><ele>352.0</ele><time>2026-03-27T16:44:49.843Z</time></trkpt><trkpt lat="40.5334338" lon="9.7090476"><ele>352.0</ele><time>2026-03-27T16:44:50.837Z</time></trkpt><trkpt lat="40.5335428" lon="9.7090578"><ele>352.0</ele><time>2026-03-27T16:44:51.839Z</time></trkpt><trkpt lat="40.5336385" lon="9.7090456"><ele>351.8</ele><time>2026-03-27T16:44:52.848Z</time></trkpt><trkpt lat="40.5337427" lon="9.7090267"><ele>351.6</ele><time>2026-03-27T16:44:53.845Z</time></trkpt><trkpt lat="40.5338371" lon="9.7090232"><ele>351.40000000000003</ele><time>2026-03-27T16:44:54.838Z</time></trkpt><trkpt lat="40.5339199" lon="9.709042"><ele>351.20000000000005</ele><time>2026-03-27T16:44:55.845Z</time></trkpt><trkpt lat="40.5340044" lon="9.7090876"><ele>351.0</ele><time>2026-03-27T16:44:56.842Z</time></trkpt><trkpt lat="40.5341008" lon="9.7091599"><ele>351.0</ele><time>2026-03-27T16:44:57.841Z</time></trkpt><trkpt lat="40.5342049" lon="9.709238"><ele>351.0</ele><time>2026-03-27T16:44:58.839Z</time></trkpt><trkpt lat="40.5343024" lon="9.7093222"><ele>351.0</ele><time>2026-03-27T16:44:59.842Z</time></trkpt><trkpt lat="40.5343837" lon="9.7093995"><ele>351.0</ele><time>2026-03-27T16:45:00.848Z</time></trkpt><trkpt lat="40.5344365" lon="9.7094806"><ele>351.0</ele><time>2026-03-27T16:45:01.845Z</time></trkpt><trkpt lat="40.534469" lon="9.7095636"><ele>352.6</ele><time>2026-03-27T16:45:02.842Z</time></trkpt><trkpt lat="40.5344549" lon="9.7097484"><ele>354.20000000000005</ele><time>2026-03-27T16:45:04.846Z</time></trkpt><trkpt lat="40.5344284" lon="9.7098664"><ele>355.79999999999995</ele><time>2026-03-27T16:45:05.839Z</time></trkpt><trkpt lat="40.5344034" lon="9.7099769"><ele>357.4</ele><time>2026-03-27T16:45:06.841Z</time></trkpt><trkpt lat="40.5344147" lon="9.7101068"><ele>359.0</ele><time>2026-03-27T16:45:07.845Z</time></trkpt><trkpt lat="40.5344303" lon="9.7102361"><ele>359.33333333333337</ele><time>2026-03-27T16:45:08.836Z</time></trkpt><trkpt lat="40.5344574" lon="9.7103621"><ele>359.6666666666667</ele><time>2026-03-27T16:45:09.841Z</time></trkpt><trkpt lat="40.5344837" lon="9.7104639"><ele>360.0</ele><time>2026-03-27T16:45:10.838Z</time></trkpt><trkpt lat="40.5345016" lon="9.7105512"><ele>360.3333333333333</ele><time>2026-03-27T16:45:11.84Z</time></trkpt><trkpt lat="40.5345034" lon="9.7106718"><ele>360.66666666666663</ele><time>2026-03-27T16:45:13.841Z</time></trkpt><trkpt lat="40.534458" lon="9.7107458"><ele>361.0</ele><time>2026-03-27T16:45:16.849Z</time></trkpt><trkpt lat="40.5343804" lon="9.7107341"><ele>361.0</ele><time>2026-03-27T16:45:25.839Z</time></trkpt><trkpt lat="40.5342811" lon="9.7107206"><ele>361.0</ele><time>2026-03-27T16:45:27.839Z</time></trkpt><trkpt lat="40.5341706" lon="9.7107136"><ele>361.0</ele><time>2026-03-27T16:45:29.834Z</time></trkpt><trkpt lat="40.5340411" lon="9.7107133"><ele>361.0</ele><time>2026-03-27T16:45:31.838Z</time></trkpt><trkpt lat="40.5339706" lon="9.7107147"><ele>361.0</ele><time>2026-03-27T16:45:32.838Z</time></trkpt><trkpt lat="40.5338993" lon="9.7107171"><ele>361.0</ele><time>2026-03-27T16:45:33.847Z</time></trkpt><trkpt lat="40.53383" lon="9.7107213"><ele>361.0</ele><time>2026-03-27T16:45:34.84Z</time></trkpt><trkpt lat="40.5337607" lon="9.7107318"><ele>361.0</ele><time>2026-03-27T16:45:35.837Z</time></trkpt><trkpt lat="40.5336971" lon="9.7107435"><ele>361.0</ele><time>2026-03-27T16:45:36.839Z</time></trkpt><trkpt lat="40.5335707" lon="9.7107687"><ele>361.0</ele><time>2026-03-27T16:45:38.837Z</time></trkpt><trkpt lat="40.5335027" lon="9.7107821"><ele>361.0</ele><time>2026-03-27T16:45:39.843Z</time></trkpt><trkpt lat="40.5334279" lon="9.710791"><ele>360.5</ele><time>2026-03-27T16:45:40.838Z</time></trkpt><trkpt lat="40.5333551" lon="9.7107907"><ele>360.0</ele><time>2026-03-27T16:45:41.843Z</time></trkpt><trkpt lat="40.5332889" lon="9.7107854"><ele>359.5</ele><time>2026-03-27T16:45:42.838Z</time></trkpt><trkpt lat="40.5331665" lon="9.7108102"><ele>359.0</ele><time>2026-03-27T16:45:44.841Z</time></trkpt><trkpt lat="40.5331088" lon="9.7108502"><ele>358.5</ele><time>2026-03-27T16:45:45.842Z</time></trkpt><trkpt lat="40.5330507" lon="9.7108934"><ele>358.0</ele><time>2026-03-27T16:45:46.839Z</time></trkpt><trkpt lat="40.5330016" lon="9.7109732"><ele>358.0</ele><time>2026-03-27T16:45:47.839Z</time></trkpt><trkpt lat="40.5329501" lon="9.7110627"><ele>358.0</ele><time>2026-03-27T16:45:48.847Z</time></trkpt><trkpt lat="40.5329078" lon="9.7111735"><ele>358.0</ele><time>2026-03-27T16:45:49.837Z</time></trkpt><trkpt lat="40.5328583" lon="9.7112741"><ele>358.0</ele><time>2026-03-27T16:45:50.846Z</time></trkpt><trkpt lat="40.5328084" lon="9.7113595"><ele>358.0</ele><time>2026-03-27T16:45:51.847Z</time></trkpt><trkpt lat="40.5327573" lon="9.7114282"><ele>358.0</ele><time>2026-03-27T16:45:52.844Z</time></trkpt><trkpt lat="40.5327034" lon="9.7114715"><ele>356.59999999999997</ele><time>2026-03-27T16:45:53.847Z</time></trkpt><trkpt lat="40.5325816" lon="9.7115298"><ele>355.2</ele><time>2026-03-27T16:45:55.846Z</time></trkpt><trkpt lat="40.5324961" lon="9.7115407"><ele>353.8</ele><time>2026-03-27T16:45:56.842Z</time></trkpt><trkpt lat="40.5324111" lon="9.7115567"><ele>352.4</ele><time>2026-03-27T16:45:57.837Z</time></trkpt><trkpt lat="40.5323112" lon="9.7115987"><ele>351.0</ele><time>2026-03-27T16:45:58.846Z</time></trkpt><trkpt lat="40.532219" lon="9.7116616"><ele>351.0</ele><time>2026-03-27T16:45:59.845Z</time></trkpt><trkpt lat="40.5321205" lon="9.7117308"><ele>351.0</ele><time>2026-03-27T16:46:00.847Z</time></trkpt><trkpt lat="40.5320353" lon="9.7118387"><ele>351.0</ele><time>2026-03-27T16:46:01.842Z</time></trkpt><trkpt lat="40.5319636" lon="9.7119529"><ele>351.0</ele><time>2026-03-27T16:46:02.858Z</time></trkpt><trkpt lat="40.5318913" lon="9.7120767"><ele>350.0</ele><time>2026-03-27T16:46:03.839Z</time></trkpt><trkpt lat="40.5318253" lon="9.7122135"><ele>349.0</ele><time>2026-03-27T16:46:04.844Z</time></trkpt><trkpt lat="40.5317673" lon="9.7123413"><ele>348.0</ele><time>2026-03-27T16:46:05.838Z</time></trkpt><trkpt lat="40.5317118" lon="9.7124616"><ele>347.0</ele><time>2026-03-27T16:46:06.842Z</time></trkpt><trkpt lat="40.5316613" lon="9.7125594"><ele>346.0</ele><time>2026-03-27T16:46:07.841Z</time></trkpt><trkpt lat="40.5316169" lon="9.7126424"><ele>346.0</ele><time>2026-03-27T16:46:08.839Z</time></trkpt><trkpt lat="40.5315731" lon="9.7127219"><ele>346.0</ele><time>2026-03-27T16:46:09.846Z</time></trkpt><trkpt lat="40.5315282" lon="9.7127926"><ele>346.0</ele><time>2026-03-27T16:46:10.843Z</time></trkpt><trkpt lat="40.5314854" lon="9.7128687"><ele>346.0</ele><time>2026-03-27T16:46:11.844Z</time></trkpt><trkpt lat="40.5314455" lon="9.7129419"><ele>346.0</ele><time>2026-03-27T16:46:12.837Z</time></trkpt><trkpt lat="40.5314209" lon="9.7130317"><ele>346.0</ele><time>2026-03-27T16:46:13.841Z</time></trkpt><trkpt lat="40.5314061" lon="9.7131286"><ele>346.0</ele><time>2026-03-27T16:46:14.836Z</time></trkpt><trkpt lat="40.5313946" lon="9.7132269"><ele>343.4</ele><time>2026-03-27T16:46:15.843Z</time></trkpt><trkpt lat="40.5313852" lon="9.7133262"><ele>340.8</ele><time>2026-03-27T16:46:16.841Z</time></trkpt><trkpt lat="40.5313754" lon="9.7134185"><ele>338.2</ele><time>2026-03-27T16:46:17.841Z</time></trkpt><trkpt lat="40.5313642" lon="9.7135019"><ele>335.59999999999997</ele><time>2026-03-27T16:46:18.843Z</time></trkpt><trkpt lat="40.5313403" lon="9.7136576"><ele>333.0</ele><time>2026-03-27T16:46:20.838Z</time></trkpt><trkpt lat="40.531309" lon="9.7138096"><ele>330.79999999999995</ele><time>2026-03-27T16:46:22.838Z</time></trkpt><trkpt lat="40.531279" lon="9.7139597"><ele>328.6</ele><time>2026-03-27T16:46:24.848Z</time></trkpt><trkpt lat="40.5312323" lon="9.714115"><ele>326.4</ele><time>2026-03-27T16:46:26.838Z</time></trkpt><trkpt lat="40.5311942" lon="9.7141894"><ele>324.20000000000005</ele><time>2026-03-27T16:46:27.838Z</time></trkpt><trkpt lat="40.5311239" lon="9.714303"><ele>322.0</ele><time>2026-03-27T16:46:29.835Z</time></trkpt><trkpt lat="40.5310491" lon="9.714384"><ele>322.0</ele><time>2026-03-27T16:46:31.838Z</time></trkpt><trkpt lat="40.5309644" lon="9.7144458"><ele>322.0</ele><time>2026-03-27T16:46:33.839Z</time></trkpt><trkpt lat="40.5309018" lon="9.7144567"><ele>322.0</ele><time>2026-03-27T16:46:34.837Z</time></trkpt><trkpt lat="40.530786" lon="9.7144602"><ele>322.0</ele><time>2026-03-27T16:46:36.836Z</time></trkpt><trkpt lat="40.5306854" lon="9.7144108"><ele>322.0</ele><time>2026-03-27T16:46:38.889Z</time></trkpt><trkpt lat="40.5305893" lon="9.7143055"><ele>322.0</ele><time>2026-03-27T16:46:40.86Z</time></trkpt><trkpt lat="40.530538" lon="9.7142227"><ele>322.0</ele><time>2026-03-27T16:46:41.848Z</time></trkpt><trkpt lat="40.530487" lon="9.7141333"><ele>322.0</ele><time>2026-03-27T16:46:42.842Z</time></trkpt><trkpt lat="40.5304346" lon="9.7140529"><ele>322.0</ele><time>2026-03-27T16:46:43.838Z</time></trkpt><trkpt lat="40.530389" lon="9.7139757"><ele>322.0</ele><time>2026-03-27T16:46:44.847Z</time></trkpt><trkpt lat="40.5303447" lon="9.7139038"><ele>322.0</ele><time>2026-03-27T16:46:45.846Z</time></trkpt><trkpt lat="40.5302711" lon="9.7137958"><ele>320.0</ele><time>2026-03-27T16:46:47.841Z</time></trkpt><trkpt lat="40.5301776" lon="9.7137673"><ele>318.0</ele><time>2026-03-27T16:46:49.838Z</time></trkpt><trkpt lat="40.5300476" lon="9.7138256"><ele>316.0</ele><time>2026-03-27T16:46:51.84Z</time></trkpt><trkpt lat="40.5299766" lon="9.7138642"><ele>314.0</ele><time>2026-03-27T16:46:52.832Z</time></trkpt><trkpt lat="40.5298992" lon="9.7138951"><ele>312.0</ele><time>2026-03-27T16:46:53.834Z</time></trkpt><trkpt lat="40.5298278" lon="9.7139283"><ele>312.0</ele><time>2026-03-27T16:46:54.841Z</time></trkpt><trkpt lat="40.5297491" lon="9.7139527"><ele>312.0</ele><time>2026-03-27T16:46:55.837Z</time></trkpt><trkpt lat="40.529672" lon="9.7139873"><ele>312.0</ele><time>2026-03-27T16:46:56.837Z</time></trkpt><trkpt lat="40.5295939" lon="9.7140246"><ele>312.0</ele><time>2026-03-27T16:46:57.833Z</time></trkpt><trkpt lat="40.529524" lon="9.7140954"><ele>312.0</ele><time>2026-03-27T16:46:58.84Z</time></trkpt><trkpt lat="40.5294567" lon="9.7141729"><ele>312.0</ele><time>2026-03-27T16:46:59.839Z</time></trkpt><trkpt lat="40.5293926" lon="9.7142554"><ele>313.4</ele><time>2026-03-27T16:47:00.839Z</time></trkpt><trkpt lat="40.529331" lon="9.7143265"><ele>314.79999999999995</ele><time>2026-03-27T16:47:01.845Z</time></trkpt><trkpt lat="40.5292605" lon="9.7143953"><ele>316.2</ele><time>2026-03-27T16:47:02.833Z</time></trkpt><trkpt lat="40.5291651" lon="9.7144461"><ele>317.59999999999997</ele><time>2026-03-27T16:47:03.839Z</time></trkpt><trkpt lat="40.5290452" lon="9.7144964"><ele>319.0</ele><time>2026-03-27T16:47:04.838Z</time></trkpt><trkpt lat="40.5289352" lon="9.7145455"><ele>318.3333333333333</ele><time>2026-03-27T16:47:05.835Z</time></trkpt><trkpt lat="40.52883" lon="9.7145895"><ele>317.66666666666663</ele><time>2026-03-27T16:47:06.842Z</time></trkpt><trkpt lat="40.5287313" lon="9.7146204"><ele>317.0</ele><time>2026-03-27T16:47:07.841Z</time></trkpt><trkpt lat="40.528649" lon="9.7146324"><ele>316.3333333333333</ele><time>2026-03-27T16:47:08.836Z</time></trkpt><trkpt lat="40.5285761" lon="9.7146364"><ele>315.6666666666667</ele><time>2026-03-27T16:47:09.844Z</time></trkpt><trkpt lat="40.5285047" lon="9.7146443"><ele>315.0</ele><time>2026-03-27T16:47:10.833Z</time></trkpt><trkpt lat="40.5284217" lon="9.7146468"><ele>315.0</ele><time>2026-03-27T16:47:11.844Z</time></trkpt><trkpt lat="40.5283264" lon="9.7146551"><ele>315.0</ele><time>2026-03-27T16:47:12.84Z</time></trkpt><trkpt lat="40.5282461" lon="9.7146822"><ele>315.0</ele><time>2026-03-27T16:47:13.837Z</time></trkpt><trkpt lat="40.5281776" lon="9.7147302"><ele>315.0</ele><time>2026-03-27T16:47:14.837Z</time></trkpt><trkpt lat="40.5280449" lon="9.7147738"><ele>315.0</ele><time>2026-03-27T16:47:16.848Z</time></trkpt><trkpt lat="40.5279547" lon="9.7147918"><ele>316.8333333333333</ele><time>2026-03-27T16:47:17.838Z</time></trkpt><trkpt lat="40.5278598" lon="9.7148124"><ele>318.6666666666667</ele><time>2026-03-27T16:47:18.84Z</time></trkpt><trkpt lat="40.5277727" lon="9.7148338"><ele>320.5</ele><time>2026-03-27T16:47:19.843Z</time></trkpt><trkpt lat="40.5276995" lon="9.7148494"><ele>322.33333333333337</ele><time>2026-03-27T16:47:20.839Z</time></trkpt><trkpt lat="40.5276254" lon="9.7148665"><ele>324.1666666666667</ele><time>2026-03-27T16:47:21.842Z</time></trkpt><trkpt lat="40.5275584" lon="9.7148823"><ele>326.0</ele><time>2026-03-27T16:47:22.838Z</time></trkpt><trkpt lat="40.5274388" lon="9.7149271"><ele>326.0</ele><time>2026-03-27T16:47:24.843Z</time></trkpt><trkpt lat="40.5273748" lon="9.7149608"><ele>326.0</ele><time>2026-03-27T16:47:25.841Z</time></trkpt><trkpt lat="40.5273073" lon="9.715"><ele>326.0</ele><time>2026-03-27T16:47:26.84Z</time></trkpt><trkpt lat="40.5272381" lon="9.7150498"><ele>326.0</ele><time>2026-03-27T16:47:27.837Z</time></trkpt><trkpt lat="40.5271794" lon="9.7151089"><ele>326.0</ele><time>2026-03-27T16:47:28.843Z</time></trkpt><trkpt lat="40.5271314" lon="9.7151732"><ele>326.0</ele><time>2026-03-27T16:47:29.846Z</time></trkpt><trkpt lat="40.5270886" lon="9.7152362"><ele>326.0</ele><time>2026-03-27T16:47:30.836Z</time></trkpt><trkpt lat="40.5270123" lon="9.7153515"><ele>326.20000000000005</ele><time>2026-03-27T16:47:32.837Z</time></trkpt><trkpt lat="40.5269174" lon="9.7154259"><ele>326.40000000000003</ele><time>2026-03-27T16:47:34.834Z</time></trkpt><trkpt lat="40.5267942" lon="9.7154497"><ele>326.6</ele><time>2026-03-27T16:47:36.839Z</time></trkpt><trkpt lat="40.5267232" lon="9.7154768"><ele>326.8</ele><time>2026-03-27T16:47:37.84Z</time></trkpt><trkpt lat="40.526648" lon="9.7155118"><ele>327.0</ele><time>2026-03-27T16:47:38.837Z</time></trkpt><trkpt lat="40.5265759" lon="9.7155692"><ele>327.0</ele><time>2026-03-27T16:47:39.839Z</time></trkpt><trkpt lat="40.526516" lon="9.715638"><ele>327.0</ele><time>2026-03-27T16:47:40.837Z</time></trkpt><trkpt lat="40.5264725" lon="9.7157171"><ele>327.0</ele><time>2026-03-27T16:47:41.844Z</time></trkpt><trkpt lat="40.5264279" lon="9.7158034"><ele>327.0</ele><time>2026-03-27T16:47:42.84Z</time></trkpt><trkpt lat="40.5263932" lon="9.7159066"><ele>327.0</ele><time>2026-03-27T16:47:43.837Z</time></trkpt><trkpt lat="40.5263597" lon="9.7160089"><ele>327.0</ele><time>2026-03-27T16:47:44.839Z</time></trkpt><trkpt lat="40.5263267" lon="9.7161014"><ele>325.5</ele><time>2026-03-27T16:47:45.833Z</time></trkpt><trkpt lat="40.5262831" lon="9.7161798"><ele>324.0</ele><time>2026-03-27T16:47:46.846Z</time></trkpt><trkpt lat="40.5262377" lon="9.7162571"><ele>322.5</ele><time>2026-03-27T16:47:47.841Z</time></trkpt><trkpt lat="40.526185" lon="9.7163424"><ele>321.0</ele><time>2026-03-27T16:47:48.854Z</time></trkpt><trkpt lat="40.5261456" lon="9.716434"><ele>319.5</ele><time>2026-03-27T16:47:49.835Z</time></trkpt><trkpt lat="40.5261114" lon="9.7165343"><ele>318.0</ele><time>2026-03-27T16:47:50.836Z</time></trkpt><trkpt lat="40.526082" lon="9.7166441"><ele>321.0</ele><time>2026-03-27T16:47:51.838Z</time></trkpt><trkpt lat="40.5260522" lon="9.7167581"><ele>324.0</ele><time>2026-03-27T16:47:52.84Z</time></trkpt><trkpt lat="40.5260324" lon="9.7168767"><ele>327.0</ele><time>2026-03-27T16:47:53.851Z</time></trkpt><trkpt lat="40.5260153" lon="9.7169851"><ele>330.0</ele><time>2026-03-27T16:47:54.838Z</time></trkpt><trkpt lat="40.5260023" lon="9.7170854"><ele>333.0</ele><time>2026-03-27T16:47:55.847Z</time></trkpt><trkpt lat="40.5259854" lon="9.7171886"><ele>336.0</ele><time>2026-03-27T16:47:56.837Z</time></trkpt><trkpt lat="40.5259708" lon="9.7173017"><ele>336.0</ele><time>2026-03-27T16:47:57.836Z</time></trkpt><trkpt lat="40.5259706" lon="9.7174041"><ele>336.0</ele><time>2026-03-27T16:47:58.836Z</time></trkpt><trkpt lat="40.5259731" lon="9.7175029"><ele>336.0</ele><time>2026-03-27T16:47:59.837Z</time></trkpt><trkpt lat="40.5259803" lon="9.7176078"><ele>336.0</ele><time>2026-03-27T16:48:00.833Z</time></trkpt><trkpt lat="40.5259817" lon="9.7177164"><ele>336.0</ele><time>2026-03-27T16:48:01.838Z</time></trkpt><trkpt lat="40.5259744" lon="9.7178121"><ele>336.0</ele><time>2026-03-27T16:48:02.833Z</time></trkpt><trkpt lat="40.5259665" lon="9.7179122"><ele>334.5</ele><time>2026-03-27T16:48:03.839Z</time></trkpt><trkpt lat="40.5259436" lon="9.717994"><ele>333.0</ele><time>2026-03-27T16:48:04.837Z</time></trkpt><trkpt lat="40.5258791" lon="9.7180929"><ele>331.5</ele><time>2026-03-27T16:48:06.845Z</time></trkpt><trkpt lat="40.5257933" lon="9.7181391"><ele>330.0</ele><time>2026-03-27T16:48:08.838Z</time></trkpt><trkpt lat="40.5257171" lon="9.7181673"><ele>328.5</ele><time>2026-03-27T16:48:10.847Z</time></trkpt><trkpt lat="40.5256351" lon="9.7181657"><ele>327.0</ele><time>2026-03-27T16:48:12.84Z</time></trkpt><trkpt lat="40.5255707" lon="9.7180903"><ele>327.0</ele><time>2026-03-27T16:48:14.844Z</time></trkpt><trkpt lat="40.5255212" lon="9.7179383"><ele>327.0</ele><time>2026-03-27T16:48:16.832Z</time></trkpt><trkpt lat="40.5254887" lon="9.7178377"><ele>327.0</ele><time>2026-03-27T16:48:17.838Z</time></trkpt><trkpt lat="40.5254433" lon="9.7177351"><ele>327.0</ele><time>2026-03-27T16:48:18.839Z</time></trkpt><trkpt lat="40.5253962" lon="9.7176281"><ele>327.0</ele><time>2026-03-27T16:48:19.838Z</time></trkpt><trkpt lat="40.5253248" lon="9.717523"><ele>325.8</ele><time>2026-03-27T16:48:20.851Z</time></trkpt><trkpt lat="40.5252508" lon="9.7174264"><ele>324.6</ele><time>2026-03-27T16:48:21.838Z</time></trkpt><trkpt lat="40.5251789" lon="9.7173322"><ele>323.40000000000003</ele><time>2026-03-27T16:48:22.842Z</time></trkpt><trkpt lat="40.5251067" lon="9.7172394"><ele>322.20000000000005</ele><time>2026-03-27T16:48:23.847Z</time></trkpt><trkpt lat="40.5250339" lon="9.7171564"><ele>321.0</ele><time>2026-03-27T16:48:24.844Z</time></trkpt><trkpt lat="40.5249635" lon="9.7170785"><ele>321.0</ele><time>2026-03-27T16:48:25.845Z</time></trkpt><trkpt lat="40.5248856" lon="9.7170037"><ele>321.0</ele><time>2026-03-27T16:48:26.834Z</time></trkpt><trkpt lat="40.524806" lon="9.7169312"><ele>321.0</ele><time>2026-03-27T16:48:27.84Z</time></trkpt><trkpt lat="40.5247201" lon="9.7168594"><ele>321.0</ele><time>2026-03-27T16:48:28.839Z</time></trkpt><trkpt lat="40.5246338" lon="9.7167828"><ele>321.0</ele><time>2026-03-27T16:48:29.838Z</time></trkpt><trkpt lat="40.5245475" lon="9.7166928"><ele>321.25</ele><time>2026-03-27T16:48:30.839Z</time></trkpt><trkpt lat="40.5244623" lon="9.716596"><ele>321.5</ele><time>2026-03-27T16:48:31.835Z</time></trkpt><trkpt lat="40.5243685" lon="9.7164975"><ele>321.75</ele><time>2026-03-27T16:48:32.84Z</time></trkpt><trkpt lat="40.5242722" lon="9.716409"><ele>322.0</ele><time>2026-03-27T16:48:33.835Z</time></trkpt><trkpt lat="40.5241752" lon="9.7163323"><ele>322.0</ele><time>2026-03-27T16:48:34.84Z</time></trkpt><trkpt lat="40.5240847" lon="9.7162655"><ele>322.0</ele><time>2026-03-27T16:48:35.845Z</time></trkpt><trkpt lat="40.5240046" lon="9.7161986"><ele>322.0</ele><time>2026-03-27T16:48:36.839Z</time></trkpt><trkpt lat="40.5239373" lon="9.7161227"><ele>322.0</ele><time>2026-03-27T16:48:37.835Z</time></trkpt><trkpt lat="40.5238817" lon="9.7160448"><ele>322.0</ele><time>2026-03-27T16:48:38.844Z</time></trkpt><trkpt lat="40.523832" lon="9.7159671"><ele>322.0</ele><time>2026-03-27T16:48:39.835Z</time></trkpt><trkpt lat="40.5237836" lon="9.715892"><ele>321.57142857142856</ele><time>2026-03-27T16:48:40.842Z</time></trkpt><trkpt lat="40.5237283" lon="9.7158225"><ele>321.1428571428571</ele><time>2026-03-27T16:48:41.838Z</time></trkpt><trkpt lat="40.5236701" lon="9.7157567"><ele>320.7142857142857</ele><time>2026-03-27T16:48:42.836Z</time></trkpt><trkpt lat="40.5236253" lon="9.7156936"><ele>320.2857142857143</ele><time>2026-03-27T16:48:43.837Z</time></trkpt><trkpt lat="40.5235842" lon="9.7156142"><ele>319.85714285714283</ele><time>2026-03-27T16:48:44.836Z</time></trkpt><trkpt lat="40.5235463" lon="9.7155239"><ele>319.42857142857144</ele><time>2026-03-27T16:48:45.846Z</time></trkpt><trkpt lat="40.5235174" lon="9.715433"><ele>319.0</ele><time>2026-03-27T16:48:46.833Z</time></trkpt><trkpt lat="40.5234909" lon="9.7153472"><ele>319.0</ele><time>2026-03-27T16:48:47.849Z</time></trkpt><trkpt lat="40.5234613" lon="9.7152739"><ele>319.0</ele><time>2026-03-27T16:48:48.837Z</time></trkpt><trkpt lat="40.5233757" lon="9.715181"><ele>319.0</ele><time>2026-03-27T16:48:50.838Z</time></trkpt><trkpt lat="40.5232996" lon="9.7151199"><ele>319.0</ele><time>2026-03-27T16:48:52.841Z</time></trkpt><trkpt lat="40.5232355" lon="9.7150446"><ele>319.0</ele><time>2026-03-27T16:48:54.842Z</time></trkpt><trkpt lat="40.5231938" lon="9.7148974"><ele>319.16666666666663</ele><time>2026-03-27T16:48:56.832Z</time></trkpt><trkpt lat="40.5231899" lon="9.7147941"><ele>319.3333333333333</ele><time>2026-03-27T16:48:57.837Z</time></trkpt><trkpt lat="40.523191" lon="9.7146905"><ele>319.5</ele><time>2026-03-27T16:48:58.832Z</time></trkpt><trkpt lat="40.5231914" lon="9.7146073"><ele>319.6666666666667</ele><time>2026-03-27T16:48:59.855Z</time></trkpt><trkpt lat="40.5231847" lon="9.7144954"><ele>319.83333333333337</ele><time>2026-03-27T16:49:01.844Z</time></trkpt><trkpt lat="40.523137" lon="9.7144036"><ele>320.0</ele><time>2026-03-27T16:49:04.839Z</time></trkpt><trkpt lat="40.5230656" lon="9.7143784"><ele>320.0</ele><time>2026-03-27T16:49:06.837Z</time></trkpt><trkpt lat="40.5229548" lon="9.7144366"><ele>320.0</ele><time>2026-03-27T16:49:08.833Z</time></trkpt><trkpt lat="40.5228975" lon="9.7144911"><ele>320.0</ele><time>2026-03-27T16:49:09.836Z</time></trkpt><trkpt lat="40.5228323" lon="9.7145531"><ele>320.0</ele><time>2026-03-27T16:49:10.837Z</time></trkpt><trkpt lat="40.5227576" lon="9.7146134"><ele>320.0</ele><time>2026-03-27T16:49:11.832Z</time></trkpt><trkpt lat="40.5226706" lon="9.7146694"><ele>317.25</ele><time>2026-03-27T16:49:12.841Z</time></trkpt><trkpt lat="40.522567" lon="9.7147099"><ele>314.5</ele><time>2026-03-27T16:49:13.84Z</time></trkpt><trkpt lat="40.5224533" lon="9.7147569"><ele>311.75</ele><time>2026-03-27T16:49:14.838Z</time></trkpt><trkpt lat="40.5223353" lon="9.7147911"><ele>309.0</ele><time>2026-03-27T16:49:15.837Z</time></trkpt><trkpt lat="40.5222164" lon="9.7148121"><ele>309.0</ele><time>2026-03-27T16:49:16.831Z</time></trkpt><trkpt lat="40.5221007" lon="9.7148248"><ele>309.0</ele><time>2026-03-27T16:49:17.829Z</time></trkpt><trkpt lat="40.521991" lon="9.7148299"><ele>309.0</ele><time>2026-03-27T16:49:18.833Z</time></trkpt><trkpt lat="40.5218873" lon="9.7148325"><ele>309.0</ele><time>2026-03-27T16:49:19.83Z</time></trkpt><trkpt lat="40.521786" lon="9.7148116"><ele>309.0</ele><time>2026-03-27T16:49:20.837Z</time></trkpt><trkpt lat="40.5216806" lon="9.7147853"><ele>309.59999999999997</ele><time>2026-03-27T16:49:21.837Z</time></trkpt><trkpt lat="40.5215705" lon="9.7147573"><ele>310.2</ele><time>2026-03-27T16:49:22.843Z</time></trkpt><trkpt lat="40.5214613" lon="9.7147282"><ele>310.79999999999995</ele><time>2026-03-27T16:49:23.836Z</time></trkpt><trkpt lat="40.5213617" lon="9.7146948"><ele>311.4</ele><time>2026-03-27T16:49:24.838Z</time></trkpt><trkpt lat="40.5212745" lon="9.7146396"><ele>312.0</ele><time>2026-03-27T16:49:25.837Z</time></trkpt><trkpt lat="40.5211878" lon="9.7145729"><ele>312.8</ele><time>2026-03-27T16:49:26.837Z</time></trkpt><trkpt lat="40.5210999" lon="9.7144927"><ele>313.6</ele><time>2026-03-27T16:49:27.836Z</time></trkpt><trkpt lat="40.5210191" lon="9.7143941"><ele>314.40000000000003</ele><time>2026-03-27T16:49:28.841Z</time></trkpt><trkpt lat="40.5209358" lon="9.7142939"><ele>315.2</ele><time>2026-03-27T16:49:29.836Z</time></trkpt><trkpt lat="40.5208519" lon="9.7141969"><ele>316.0</ele><time>2026-03-27T16:49:30.863Z</time></trkpt><trkpt lat="40.5207704" lon="9.7141091"><ele>316.0</ele><time>2026-03-27T16:49:31.836Z</time></trkpt><trkpt lat="40.5206872" lon="9.7140383"><ele>316.0</ele><time>2026-03-27T16:49:32.837Z</time></trkpt><trkpt lat="40.5206197" lon="9.7139753"><ele>316.0</ele><time>2026-03-27T16:49:33.831Z</time></trkpt><trkpt lat="40.5205614" lon="9.7139216"><ele>316.0</ele><time>2026-03-27T16:49:34.833Z</time></trkpt><trkpt lat="40.520472" lon="9.7138789"><ele>316.0</ele><time>2026-03-27T16:49:36.835Z</time></trkpt><trkpt lat="40.5203884" lon="9.7138993"><ele>316.0</ele><time>2026-03-27T16:49:38.843Z</time></trkpt><trkpt lat="40.5203321" lon="9.7139525"><ele>315.5</ele><time>2026-03-27T16:49:39.847Z</time></trkpt><trkpt lat="40.5202724" lon="9.7140126"><ele>315.0</ele><time>2026-03-27T16:49:40.86Z</time></trkpt><trkpt lat="40.5202063" lon="9.7140912"><ele>314.5</ele><time>2026-03-27T16:49:41.84Z</time></trkpt><trkpt lat="40.5201322" lon="9.7141726"><ele>314.0</ele><time>2026-03-27T16:49:42.834Z</time></trkpt><trkpt lat="40.5200564" lon="9.7142427"><ele>313.5</ele><time>2026-03-27T16:49:43.836Z</time></trkpt><trkpt lat="40.5199789" lon="9.7143123"><ele>313.0</ele><time>2026-03-27T16:49:44.842Z</time></trkpt><trkpt lat="40.5199054" lon="9.7143766"><ele>311.0</ele><time>2026-03-27T16:49:45.839Z</time></trkpt><trkpt lat="40.5198419" lon="9.7144315"><ele>309.0</ele><time>2026-03-27T16:49:46.847Z</time></trkpt><trkpt lat="40.5197818" lon="9.7144809"><ele>307.0</ele><time>2026-03-27T16:49:47.834Z</time></trkpt><trkpt lat="40.5197079" lon="9.7145276"><ele>305.0</ele><time>2026-03-27T16:49:48.835Z</time></trkpt><trkpt lat="40.5195995" lon="9.7145436"><ele>303.0</ele><time>2026-03-27T16:49:49.838Z</time></trkpt><trkpt lat="40.5194899" lon="9.7145595"><ele>301.0</ele><time>2026-03-27T16:49:50.83Z</time></trkpt><trkpt lat="40.5193787" lon="9.7145603"><ele>301.0</ele><time>2026-03-27T16:49:51.84Z</time></trkpt><trkpt lat="40.5192741" lon="9.7145473"><ele>301.0</ele><time>2026-03-27T16:49:52.833Z</time></trkpt><trkpt lat="40.5191865" lon="9.7145259"><ele>301.0</ele><time>2026-03-27T16:49:53.835Z</time></trkpt><trkpt lat="40.5191279" lon="9.7144889"><ele>301.0</ele><time>2026-03-27T16:49:54.831Z</time></trkpt><trkpt lat="40.519049" lon="9.7144381"><ele>301.0</ele><time>2026-03-27T16:49:56.833Z</time></trkpt><trkpt lat="40.5189635" lon="9.7144235"><ele>301.0</ele><time>2026-03-27T16:49:59.838Z</time></trkpt><trkpt lat="40.5189101" lon="9.7145327"><ele>301.0</ele><time>2026-03-27T16:50:01.832Z</time></trkpt><trkpt lat="40.5188836" lon="9.7146114"><ele>301.0</ele><time>2026-03-27T16:50:02.836Z</time></trkpt><trkpt lat="40.5188669" lon="9.7147269"><ele>301.0</ele><time>2026-03-27T16:50:03.843Z</time></trkpt><trkpt lat="40.5188675" lon="9.7148687"><ele>301.0</ele><time>2026-03-27T16:50:04.836Z</time></trkpt><trkpt lat="40.5188786" lon="9.7150116"><ele>301.0</ele><time>2026-03-27T16:50:05.834Z</time></trkpt><trkpt lat="40.5188938" lon="9.7151474"><ele>301.0</ele><time>2026-03-27T16:50:06.835Z</time></trkpt><trkpt lat="40.5189161" lon="9.7152757"><ele>301.0</ele><time>2026-03-27T16:50:07.837Z</time></trkpt><trkpt lat="40.518951" lon="9.7153902"><ele>301.0</ele><time>2026-03-27T16:50:08.835Z</time></trkpt><trkpt lat="40.5189885" lon="9.7154902"><ele>301.0</ele><time>2026-03-27T16:50:09.835Z</time></trkpt><trkpt lat="40.5190095" lon="9.7155845"><ele>301.0</ele><time>2026-03-27T16:50:10.836Z</time></trkpt><trkpt lat="40.5189897" lon="9.7156973"><ele>301.0</ele><time>2026-03-27T16:50:11.845Z</time></trkpt><trkpt lat="40.5189698" lon="9.7157994"><ele>301.0</ele><time>2026-03-27T16:50:12.833Z</time></trkpt><trkpt lat="40.5189265" lon="9.7158608"><ele>301.0</ele><time>2026-03-27T16:50:13.837Z</time></trkpt><trkpt lat="40.5188503" lon="9.7159343"><ele>301.0</ele><time>2026-03-27T16:50:15.839Z</time></trkpt><trkpt lat="40.5187709" lon="9.7159401"><ele>301.0</ele><time>2026-03-27T16:50:17.844Z</time></trkpt><trkpt lat="40.5186774" lon="9.7158493"><ele>301.0</ele><time>2026-03-27T16:50:19.835Z</time></trkpt><trkpt lat="40.5186386" lon="9.7157744"><ele>301.0</ele><time>2026-03-27T16:50:20.838Z</time></trkpt><trkpt lat="40.5186021" lon="9.7156792"><ele>304.5</ele><time>2026-03-27T16:50:21.835Z</time></trkpt><trkpt lat="40.5185554" lon="9.7155765"><ele>308.0</ele><time>2026-03-27T16:50:22.832Z</time></trkpt><trkpt lat="40.5185046" lon="9.7154776"><ele>311.5</ele><time>2026-03-27T16:50:23.833Z</time></trkpt><trkpt lat="40.5184549" lon="9.7153948"><ele>315.0</ele><time>2026-03-27T16:50:24.842Z</time></trkpt><trkpt lat="40.5184081" lon="9.7153332"><ele>318.5</ele><time>2026-03-27T16:50:25.831Z</time></trkpt><trkpt lat="40.5182986" lon="9.7152653"><ele>322.0</ele><time>2026-03-27T16:50:27.842Z</time></trkpt><trkpt lat="40.518233" lon="9.7152378"><ele>322.0</ele><time>2026-03-27T16:50:28.838Z</time></trkpt><trkpt lat="40.5181729" lon="9.7152656"><ele>322.0</ele><time>2026-03-27T16:50:29.839Z</time></trkpt><trkpt lat="40.5181079" lon="9.7153029"><ele>322.0</ele><time>2026-03-27T16:50:30.839Z</time></trkpt><trkpt lat="40.5180531" lon="9.7153901"><ele>322.0</ele><time>2026-03-27T16:50:31.843Z</time></trkpt><trkpt lat="40.5179958" lon="9.7154946"><ele>322.0</ele><time>2026-03-27T16:50:32.842Z</time></trkpt><trkpt lat="40.5179378" lon="9.7155937"><ele>322.0</ele><time>2026-03-27T16:50:33.837Z</time></trkpt><trkpt lat="40.5178806" lon="9.7156768"><ele>323.66666666666663</ele><time>2026-03-27T16:50:34.841Z</time></trkpt><trkpt lat="40.5178175" lon="9.7157626"><ele>325.3333333333333</ele><time>2026-03-27T16:50:35.829Z</time></trkpt><trkpt lat="40.5177551" lon="9.7158369"><ele>327.0</ele><time>2026-03-27T16:50:36.837Z</time></trkpt><trkpt lat="40.5176975" lon="9.7159018"><ele>328.6666666666667</ele><time>2026-03-27T16:50:37.838Z</time></trkpt><trkpt lat="40.5176541" lon="9.7159777"><ele>330.33333333333337</ele><time>2026-03-27T16:50:38.84Z</time></trkpt><trkpt lat="40.5175968" lon="9.7160506"><ele>332.0</ele><time>2026-03-27T16:50:39.841Z</time></trkpt><trkpt lat="40.5175511" lon="9.7161634"><ele>332.0</ele><time>2026-03-27T16:50:40.832Z</time></trkpt><trkpt lat="40.5175107" lon="9.7162747"><ele>332.0</ele><time>2026-03-27T16:50:41.837Z</time></trkpt><trkpt lat="40.517472" lon="9.7163709"><ele>332.0</ele><time>2026-03-27T16:50:42.837Z</time></trkpt><trkpt lat="40.517428" lon="9.7164601"><ele>332.0</ele><time>2026-03-27T16:50:43.842Z</time></trkpt><trkpt lat="40.5173668" lon="9.7165412"><ele>332.0</ele><time>2026-03-27T16:50:44.844Z</time></trkpt><trkpt lat="40.5172879" lon="9.7166293"><ele>332.0</ele><time>2026-03-27T16:50:45.843Z</time></trkpt><trkpt lat="40.5172237" lon="9.7167348"><ele>332.0</ele><time>2026-03-27T16:50:46.843Z</time></trkpt><trkpt lat="40.5171619" lon="9.7168544"><ele>332.0</ele><time>2026-03-27T16:50:47.838Z</time></trkpt><trkpt lat="40.5171136" lon="9.7169692"><ele>332.0</ele><time>2026-03-27T16:50:48.838Z</time></trkpt><trkpt lat="40.5170637" lon="9.7170861"><ele>332.0</ele><time>2026-03-27T16:50:49.835Z</time></trkpt><trkpt lat="40.5170354" lon="9.7172098"><ele>332.0</ele><time>2026-03-27T16:50:50.836Z</time></trkpt><trkpt lat="40.5170083" lon="9.7173436"><ele>334.6666666666667</ele><time>2026-03-27T16:50:51.837Z</time></trkpt><trkpt lat="40.5169743" lon="9.7174727"><ele>337.33333333333337</ele><time>2026-03-27T16:50:52.834Z</time></trkpt><trkpt lat="40.5169489" lon="9.7175813"><ele>340.0</ele><time>2026-03-27T16:50:53.838Z</time></trkpt><trkpt lat="40.5169245" lon="9.7176757"><ele>342.6666666666667</ele><time>2026-03-27T16:50:54.839Z</time></trkpt><trkpt lat="40.5168845" lon="9.7177702"><ele>345.3333333333333</ele><time>2026-03-27T16:50:55.836Z</time></trkpt><trkpt lat="40.5168452" lon="9.7178911"><ele>348.0</ele><time>2026-03-27T16:50:56.841Z</time></trkpt><trkpt lat="40.5168055" lon="9.718018"><ele>348.0</ele><time>2026-03-27T16:50:57.838Z</time></trkpt><trkpt lat="40.516783" lon="9.7181644"><ele>348.0</ele><time>2026-03-27T16:50:58.838Z</time></trkpt><trkpt lat="40.516765" lon="9.7183121"><ele>348.0</ele><time>2026-03-27T16:50:59.834Z</time></trkpt><trkpt lat="40.516757" lon="9.7184702"><ele>348.0</ele><time>2026-03-27T16:51:00.833Z</time></trkpt><trkpt lat="40.5167549" lon="9.7186279"><ele>348.0</ele><time>2026-03-27T16:51:01.835Z</time></trkpt><trkpt lat="40.5167608" lon="9.7187693"><ele>348.0</ele><time>2026-03-27T16:51:02.832Z</time></trkpt><trkpt lat="40.5167615" lon="9.7188982"><ele>348.0</ele><time>2026-03-27T16:51:03.84Z</time></trkpt><trkpt lat="40.51675" lon="9.7190202"><ele>348.0</ele><time>2026-03-27T16:51:04.835Z</time></trkpt><trkpt lat="40.5167396" lon="9.7191473"><ele>348.0</ele><time>2026-03-27T16:51:05.831Z</time></trkpt><trkpt lat="40.5167389" lon="9.719278"><ele>347.1666666666667</ele><time>2026-03-27T16:51:06.835Z</time></trkpt><trkpt lat="40.5167377" lon="9.7194054"><ele>346.3333333333333</ele><time>2026-03-27T16:51:07.833Z</time></trkpt><trkpt lat="40.5167377" lon="9.7195227"><ele>345.5</ele><time>2026-03-27T16:51:08.832Z</time></trkpt><trkpt lat="40.5167314" lon="9.7196281"><ele>344.66666666666663</ele><time>2026-03-27T16:51:09.829Z</time></trkpt><trkpt lat="40.5167311" lon="9.7197403"><ele>343.8333333333333</ele><time>2026-03-27T16:51:10.837Z</time></trkpt><trkpt lat="40.516737" lon="9.719862"><ele>343.0</ele><time>2026-03-27T16:51:11.832Z</time></trkpt><trkpt lat="40.5167503" lon="9.7199935"><ele>343.0</ele><time>2026-03-27T16:51:12.84Z</time></trkpt><trkpt lat="40.5167526" lon="9.7201084"><ele>343.0</ele><time>2026-03-27T16:51:13.832Z</time></trkpt><trkpt lat="40.5167419" lon="9.7202156"><ele>343.0</ele><time>2026-03-27T16:51:14.834Z</time></trkpt><trkpt lat="40.5167259" lon="9.720331"><ele>343.0</ele><time>2026-03-27T16:51:15.832Z</time></trkpt><trkpt lat="40.5167008" lon="9.7204416"><ele>343.0</ele><time>2026-03-27T16:51:16.833Z</time></trkpt><trkpt lat="40.5166726" lon="9.7205586"><ele>343.0</ele><time>2026-03-27T16:51:17.841Z</time></trkpt><trkpt lat="40.5166636" lon="9.7206963"><ele>343.0</ele><time>2026-03-27T16:51:18.838Z</time></trkpt><trkpt lat="40.5166571" lon="9.7208297"><ele>343.0</ele><time>2026-03-27T16:51:19.836Z</time></trkpt><trkpt lat="40.5166571" lon="9.7209599"><ele>343.0</ele><time>2026-03-27T16:51:20.854Z</time></trkpt><trkpt lat="40.516657" lon="9.7210701"><ele>343.0</ele><time>2026-03-27T16:51:21.835Z</time></trkpt><trkpt lat="40.5166547" lon="9.721164"><ele>343.0</ele><time>2026-03-27T16:51:22.831Z</time></trkpt><trkpt lat="40.5166401" lon="9.7212561"><ele>343.0</ele><time>2026-03-27T16:51:23.831Z</time></trkpt><trkpt lat="40.5166178" lon="9.7213481"><ele>341.85714285714283</ele><time>2026-03-27T16:51:24.828Z</time></trkpt><trkpt lat="40.5165942" lon="9.7214386"><ele>340.7142857142857</ele><time>2026-03-27T16:51:25.835Z</time></trkpt><trkpt lat="40.5165623" lon="9.7215165"><ele>339.57142857142856</ele><time>2026-03-27T16:51:26.837Z</time></trkpt><trkpt lat="40.5165281" lon="9.7215884"><ele>338.42857142857144</ele><time>2026-03-27T16:51:27.83Z</time></trkpt><trkpt lat="40.5164925" lon="9.7216679"><ele>337.2857142857143</ele><time>2026-03-27T16:51:28.843Z</time></trkpt><trkpt lat="40.5164495" lon="9.7217478"><ele>336.1428571428571</ele><time>2026-03-27T16:51:29.83Z</time></trkpt><trkpt lat="40.5163986" lon="9.7218445"><ele>335.0</ele><time>2026-03-27T16:51:30.837Z</time></trkpt><trkpt lat="40.5163478" lon="9.7219567"><ele>333.2</ele><time>2026-03-27T16:51:31.833Z</time></trkpt><trkpt lat="40.5163039" lon="9.7220473"><ele>331.4</ele><time>2026-03-27T16:51:32.83Z</time></trkpt><trkpt lat="40.5162701" lon="9.7221201"><ele>329.6</ele><time>2026-03-27T16:51:33.832Z</time></trkpt><trkpt lat="40.5162165" lon="9.7222318"><ele>327.8</ele><time>2026-03-27T16:51:35.831Z</time></trkpt><trkpt lat="40.5161736" lon="9.722336"><ele>326.0</ele><time>2026-03-27T16:51:37.837Z</time></trkpt><trkpt lat="40.516116" lon="9.7224686"><ele>326.0</ele><time>2026-03-27T16:51:39.831Z</time></trkpt><trkpt lat="40.5160541" lon="9.7225977"><ele>326.0</ele><time>2026-03-27T16:51:41.834Z</time></trkpt><trkpt lat="40.5160217" lon="9.7226698"><ele>326.0</ele><time>2026-03-27T16:51:42.834Z</time></trkpt><trkpt lat="40.5159729" lon="9.7228502"><ele>326.0</ele><time>2026-03-27T16:51:44.836Z</time></trkpt><trkpt lat="40.5159623" lon="9.7229555"><ele>326.0</ele><time>2026-03-27T16:51:45.831Z</time></trkpt><trkpt lat="40.5159534" lon="9.7230535"><ele>324.1666666666667</ele><time>2026-03-27T16:51:46.834Z</time></trkpt><trkpt lat="40.5159468" lon="9.7231612"><ele>322.33333333333337</ele><time>2026-03-27T16:51:47.841Z</time></trkpt><trkpt lat="40.5159432" lon="9.7232598"><ele>320.5</ele><time>2026-03-27T16:51:48.841Z</time></trkpt><trkpt lat="40.51594" lon="9.7233717"><ele>318.6666666666667</ele><time>2026-03-27T16:51:49.835Z</time></trkpt><trkpt lat="40.5159395" lon="9.7234776"><ele>316.8333333333333</ele><time>2026-03-27T16:51:50.836Z</time></trkpt><trkpt lat="40.5159597" lon="9.7235819"><ele>315.0</ele><time>2026-03-27T16:51:51.839Z</time></trkpt><trkpt lat="40.515983" lon="9.7236804"><ele>314.0</ele><time>2026-03-27T16:51:52.857Z</time></trkpt><trkpt lat="40.5160162" lon="9.7237773"><ele>313.0</ele><time>2026-03-27T16:51:53.835Z</time></trkpt><trkpt lat="40.5160473" lon="9.7238763"><ele>312.0</ele><time>2026-03-27T16:51:54.841Z</time></trkpt><trkpt lat="40.5160743" lon="9.7239673"><ele>311.0</ele><time>2026-03-27T16:51:55.84Z</time></trkpt><trkpt lat="40.5160775" lon="9.7240927"><ele>310.0</ele><time>2026-03-27T16:51:57.833Z</time></trkpt><trkpt lat="40.516026" lon="9.724175"><ele>309.0</ele><time>2026-03-27T16:51:59.841Z</time></trkpt><trkpt lat="40.5159531" lon="9.7241946"><ele>309.0</ele><time>2026-03-27T16:52:05.842Z</time></trkpt><trkpt lat="40.5158705" lon="9.724211"><ele>309.0</ele><time>2026-03-27T16:52:08.854Z</time></trkpt><trkpt lat="40.5158033" lon="9.7242513"><ele>309.0</ele><time>2026-03-27T16:52:11.841Z</time></trkpt><trkpt lat="40.5157392" lon="9.7242839"><ele>309.0</ele><time>2026-03-27T16:53:13.845Z</time></trkpt><trkpt lat="40.5156972" lon="9.724353"><ele>309.0</ele><time>2026-03-27T16:53:16.85Z</time></trkpt><trkpt lat="40.5157172" lon="9.7244634"><ele>309.0</ele><time>2026-03-27T16:53:19.837Z</time></trkpt><trkpt lat="40.5157828" lon="9.7245647"><ele>309.5</ele><time>2026-03-27T16:53:21.838Z</time></trkpt><trkpt lat="40.5158301" lon="9.7246335"><ele>310.0</ele><time>2026-03-27T16:53:22.833Z</time></trkpt><trkpt lat="40.5158834" lon="9.72471"><ele>310.5</ele><time>2026-03-27T16:53:23.834Z</time></trkpt><trkpt lat="40.5159412" lon="9.7247909"><ele>311.0</ele><time>2026-03-27T16:53:24.843Z</time></trkpt><trkpt lat="40.5159965" lon="9.7248754"><ele>311.5</ele><time>2026-03-27T16:53:25.842Z</time></trkpt><trkpt lat="40.516045" lon="9.7249691"><ele>312.0</ele><time>2026-03-27T16:53:26.836Z</time></trkpt><trkpt lat="40.5160848" lon="9.7250656"><ele>312.0</ele><time>2026-03-27T16:53:27.84Z</time></trkpt><trkpt lat="40.5161182" lon="9.7251713"><ele>312.0</ele><time>2026-03-27T16:53:28.848Z</time></trkpt><trkpt lat="40.5161417" lon="9.725276"><ele>312.0</ele><time>2026-03-27T16:53:29.844Z</time></trkpt><trkpt lat="40.5161588" lon="9.725379"><ele>312.0</ele><time>2026-03-27T16:53:30.849Z</time></trkpt><trkpt lat="40.5161663" lon="9.725482"><ele>312.0</ele><time>2026-03-27T16:53:31.841Z</time></trkpt><trkpt lat="40.5161716" lon="9.7255762"><ele>312.0</ele><time>2026-03-27T16:53:32.84Z</time></trkpt><trkpt lat="40.5161827" lon="9.7256608"><ele>312.1666666666667</ele><time>2026-03-27T16:53:33.836Z</time></trkpt><trkpt lat="40.5162013" lon="9.725748"><ele>312.3333333333333</ele><time>2026-03-27T16:53:34.841Z</time></trkpt><trkpt lat="40.5162212" lon="9.7258306"><ele>312.5</ele><time>2026-03-27T16:53:35.84Z</time></trkpt><trkpt lat="40.5162572" lon="9.7259825"><ele>312.66666666666663</ele><time>2026-03-27T16:53:37.845Z</time></trkpt><trkpt lat="40.516275" lon="9.7260673"><ele>312.8333333333333</ele><time>2026-03-27T16:53:38.839Z</time></trkpt><trkpt lat="40.5162909" lon="9.7261616"><ele>313.0</ele><time>2026-03-27T16:53:39.855Z</time></trkpt><trkpt lat="40.5163021" lon="9.7262577"><ele>310.8333333333333</ele><time>2026-03-27T16:53:40.842Z</time></trkpt><trkpt lat="40.5163125" lon="9.7263464"><ele>308.66666666666663</ele><time>2026-03-27T16:53:41.842Z</time></trkpt><trkpt lat="40.5163155" lon="9.7264962"><ele>306.5</ele><time>2026-03-27T16:53:43.844Z</time></trkpt><trkpt lat="40.5163156" lon="9.7266198"><ele>304.3333333333333</ele><time>2026-03-27T16:53:45.847Z</time></trkpt><trkpt lat="40.5163173" lon="9.7267202"><ele>302.1666666666667</ele><time>2026-03-27T16:53:47.844Z</time></trkpt><trkpt lat="40.5163234" lon="9.7268216"><ele>300.0</ele><time>2026-03-27T16:53:49.843Z</time></trkpt><trkpt lat="40.5163442" lon="9.7269095"><ele>299.1666666666667</ele><time>2026-03-27T16:53:52.851Z</time></trkpt><trkpt lat="40.5163923" lon="9.7269761"><ele>298.3333333333333</ele><time>2026-03-27T16:53:56.842Z</time></trkpt><trkpt lat="40.516473" lon="9.7270356"><ele>297.5</ele><time>2026-03-27T16:53:59.838Z</time></trkpt><trkpt lat="40.5165264" lon="9.7271118"><ele>296.66666666666663</ele><time>2026-03-27T16:54:01.841Z</time></trkpt><trkpt lat="40.5165737" lon="9.7272026"><ele>295.8333333333333</ele><time>2026-03-27T16:54:03.846Z</time></trkpt><trkpt lat="40.516613" lon="9.7273139"><ele>295.0</ele><time>2026-03-27T16:54:05.841Z</time></trkpt><trkpt lat="40.5166588" lon="9.7274178"><ele>295.0</ele><time>2026-03-27T16:54:07.852Z</time></trkpt><trkpt lat="40.5167179" lon="9.7274964"><ele>295.0</ele><time>2026-03-27T16:54:09.841Z</time></trkpt><trkpt lat="40.516788" lon="9.727573"><ele>295.0</ele><time>2026-03-27T16:54:11.841Z</time></trkpt><trkpt lat="40.5168489" lon="9.7276614"><ele>295.0</ele><time>2026-03-27T16:54:13.845Z</time></trkpt><trkpt lat="40.5168768" lon="9.7277842"><ele>295.0</ele><time>2026-03-27T16:54:15.847Z</time></trkpt><trkpt lat="40.5169226" lon="9.7279122"><ele>292.3333333333333</ele><time>2026-03-27T16:54:17.841Z</time></trkpt><trkpt lat="40.5169626" lon="9.7279768"><ele>289.66666666666663</ele><time>2026-03-27T16:54:18.844Z</time></trkpt><trkpt lat="40.5170092" lon="9.7280439"><ele>287.0</ele><time>2026-03-27T16:54:19.853Z</time></trkpt><trkpt lat="40.5170522" lon="9.7281132"><ele>284.3333333333333</ele><time>2026-03-27T16:54:20.845Z</time></trkpt><trkpt lat="40.5170856" lon="9.7281881"><ele>281.6666666666667</ele><time>2026-03-27T16:54:21.855Z</time></trkpt><trkpt lat="40.5171426" lon="9.7283263"><ele>279.0</ele><time>2026-03-27T16:54:23.845Z</time></trkpt><trkpt lat="40.5171753" lon="9.7283995"><ele>279.0</ele><time>2026-03-27T16:54:24.842Z</time></trkpt><trkpt lat="40.5172146" lon="9.72848"><ele>279.0</ele><time>2026-03-27T16:54:25.841Z</time></trkpt><trkpt lat="40.5172536" lon="9.7285595"><ele>279.0</ele><time>2026-03-27T16:54:26.841Z</time></trkpt><trkpt lat="40.5172917" lon="9.7286312"><ele>279.0</ele><time>2026-03-27T16:54:27.838Z</time></trkpt><trkpt lat="40.517361" lon="9.7287294"><ele>279.0</ele><time>2026-03-27T16:54:29.85Z</time></trkpt><trkpt lat="40.5174571" lon="9.7287807"><ele>279.0</ele><time>2026-03-27T16:54:31.845Z</time></trkpt><trkpt lat="40.5175406" lon="9.7287462"><ele>279.0</ele><time>2026-03-27T16:54:33.848Z</time></trkpt><trkpt lat="40.517644" lon="9.7286457"><ele>279.0</ele><time>2026-03-27T16:54:35.847Z</time></trkpt><trkpt lat="40.5176885" lon="9.7285843"><ele>279.0</ele><time>2026-03-27T16:54:36.852Z</time></trkpt><trkpt lat="40.5177844" lon="9.7285264"><ele>279.0</ele><time>2026-03-27T16:54:38.85Z</time></trkpt><trkpt lat="40.5178945" lon="9.7285547"><ele>279.0</ele><time>2026-03-27T16:54:40.843Z</time></trkpt><trkpt lat="40.5179623" lon="9.7286071"><ele>277.0</ele><time>2026-03-27T16:54:41.845Z</time></trkpt><trkpt lat="40.5180287" lon="9.7286627"><ele>275.0</ele><time>2026-03-27T16:54:42.84Z</time></trkpt><trkpt lat="40.5180846" lon="9.7287199"><ele>273.0</ele><time>2026-03-27T16:54:43.846Z</time></trkpt><trkpt lat="40.5181373" lon="9.7287798"><ele>271.0</ele><time>2026-03-27T16:54:44.841Z</time></trkpt><trkpt lat="40.5181891" lon="9.7288383"><ele>269.0</ele><time>2026-03-27T16:54:45.849Z</time></trkpt><trkpt lat="40.5182397" lon="9.7288965"><ele>267.0</ele><time>2026-03-27T16:54:46.845Z</time></trkpt><trkpt lat="40.5183458" lon="9.7289825"><ele>267.0</ele><time>2026-03-27T16:54:48.841Z</time></trkpt><trkpt lat="40.5184055" lon="9.7290134"><ele>267.0</ele><time>2026-03-27T16:54:49.844Z</time></trkpt><trkpt lat="40.5184928" lon="9.7290617"><ele>267.0</ele><time>2026-03-27T16:54:51.86Z</time></trkpt><trkpt lat="40.5185234" lon="9.7291879"><ele>267.0</ele><time>2026-03-27T16:54:54.849Z</time></trkpt><trkpt lat="40.5184869" lon="9.7293353"><ele>267.0</ele><time>2026-03-27T16:54:56.85Z</time></trkpt><trkpt lat="40.5184695" lon="9.729472"><ele>264.3333333333333</ele><time>2026-03-27T16:54:58.849Z</time></trkpt><trkpt lat="40.5184319" lon="9.7295492"><ele>261.6666666666667</ele><time>2026-03-27T16:55:00.849Z</time></trkpt><trkpt lat="40.5183823" lon="9.7296089"><ele>259.0</ele><time>2026-03-27T16:55:02.853Z</time></trkpt><trkpt lat="40.5183474" lon="9.7297253"><ele>256.33333333333337</ele><time>2026-03-27T16:55:04.842Z</time></trkpt><trkpt lat="40.518341" lon="9.7298653"><ele>253.66666666666669</ele><time>2026-03-27T16:55:06.853Z</time></trkpt><trkpt lat="40.5183349" lon="9.730009"><ele>251.0</ele><time>2026-03-27T16:55:08.842Z</time></trkpt><trkpt lat="40.5183176" lon="9.7301452"><ele>247.20000000000002</ele><time>2026-03-27T16:55:10.843Z</time></trkpt><trkpt lat="40.5182895" lon="9.730274"><ele>243.40000000000003</ele><time>2026-03-27T16:55:12.849Z</time></trkpt><trkpt lat="40.5182302" lon="9.7304113"><ele>239.6</ele><time>2026-03-27T16:55:14.841Z</time></trkpt><trkpt lat="40.5181911" lon="9.730506"><ele>235.8</ele><time>2026-03-27T16:55:15.848Z</time></trkpt><trkpt lat="40.5181443" lon="9.7306005"><ele>232.0</ele><time>2026-03-27T16:55:16.842Z</time></trkpt><trkpt lat="40.5180873" lon="9.7307047"><ele>232.0</ele><time>2026-03-27T16:55:17.852Z</time></trkpt><trkpt lat="40.5180246" lon="9.7308105"><ele>232.0</ele><time>2026-03-27T16:55:18.843Z</time></trkpt><trkpt lat="40.517968" lon="9.7309028"><ele>232.0</ele><time>2026-03-27T16:55:19.839Z</time></trkpt><trkpt lat="40.5179092" lon="9.7310349"><ele>232.0</ele><time>2026-03-27T16:55:21.845Z</time></trkpt><trkpt lat="40.5178975" lon="9.7311214"><ele>232.0</ele><time>2026-03-27T16:55:22.847Z</time></trkpt><trkpt lat="40.5178942" lon="9.7313123"><ele>229.33333333333331</ele><time>2026-03-27T16:55:24.846Z</time></trkpt><trkpt lat="40.5178977" lon="9.7314113"><ele>226.66666666666666</ele><time>2026-03-27T16:55:25.843Z</time></trkpt><trkpt lat="40.5178976" lon="9.7315138"><ele>224.0</ele><time>2026-03-27T16:55:26.839Z</time></trkpt><trkpt lat="40.5178882" lon="9.7316295"><ele>221.33333333333331</ele><time>2026-03-27T16:55:27.838Z</time></trkpt><trkpt lat="40.5178765" lon="9.7317328"><ele>218.66666666666666</ele><time>2026-03-27T16:55:28.841Z</time></trkpt><trkpt lat="40.5178729" lon="9.7318315"><ele>216.0</ele><time>2026-03-27T16:55:29.843Z</time></trkpt><trkpt lat="40.517875" lon="9.7319225"><ele>214.0</ele><time>2026-03-27T16:55:30.842Z</time></trkpt><trkpt lat="40.517878" lon="9.7320548"><ele>212.00000000000003</ele><time>2026-03-27T16:55:32.842Z</time></trkpt><trkpt lat="40.5178388" lon="9.7321876"><ele>210.0</ele><time>2026-03-27T16:55:34.847Z</time></trkpt><trkpt lat="40.5178161" lon="9.7323317"><ele>208.0</ele><time>2026-03-27T16:55:36.841Z</time></trkpt><trkpt lat="40.5178329" lon="9.7324532"><ele>206.0</ele><time>2026-03-27T16:55:38.845Z</time></trkpt><trkpt lat="40.5178597" lon="9.732603"><ele>206.00000000000003</ele><time>2026-03-27T16:55:40.847Z</time></trkpt><trkpt lat="40.5178538" lon="9.7327085"><ele>206.0</ele><time>2026-03-27T16:55:41.837Z</time></trkpt><trkpt lat="40.5178481" lon="9.7328194"><ele>206.0</ele><time>2026-03-27T16:55:42.84Z</time></trkpt><trkpt lat="40.5178479" lon="9.7329298"><ele>206.0</ele><time>2026-03-27T16:55:43.838Z</time></trkpt><trkpt lat="40.5178482" lon="9.7330333"><ele>206.00000000000003</ele><time>2026-03-27T16:55:44.841Z</time></trkpt><trkpt lat="40.5178746" lon="9.7331698"><ele>206.0</ele><time>2026-03-27T16:55:46.841Z</time></trkpt><trkpt lat="40.5179449" lon="9.733242"><ele>205.60000000000002</ele><time>2026-03-27T16:55:48.842Z</time></trkpt><trkpt lat="40.5180302" lon="9.7333207"><ele>205.2</ele><time>2026-03-27T16:55:50.844Z</time></trkpt><trkpt lat="40.518067" lon="9.7335006"><ele>204.8</ele><time>2026-03-27T16:55:52.839Z</time></trkpt><trkpt lat="40.5180831" lon="9.7335972"><ele>204.39999999999998</ele><time>2026-03-27T16:55:53.845Z</time></trkpt><trkpt lat="40.5181078" lon="9.7336773"><ele>204.0</ele><time>2026-03-27T16:55:54.837Z</time></trkpt><trkpt lat="40.5181744" lon="9.7337623"><ele>203.0</ele><time>2026-03-27T16:55:56.843Z</time></trkpt><trkpt lat="40.5182599" lon="9.7338023"><ele>202.0</ele><time>2026-03-27T16:55:58.842Z</time></trkpt><trkpt lat="40.5183421" lon="9.7338752"><ele>201.0</ele><time>2026-03-27T16:56:00.841Z</time></trkpt><trkpt lat="40.5183741" lon="9.7340279"><ele>200.0</ele><time>2026-03-27T16:56:02.85Z</time></trkpt><trkpt lat="40.5183759" lon="9.7341195"><ele>199.0</ele><time>2026-03-27T16:56:03.838Z</time></trkpt><trkpt lat="40.518374" lon="9.7342102"><ele>198.0</ele><time>2026-03-27T16:56:04.858Z</time></trkpt><trkpt lat="40.5183878" lon="9.7342989"><ele>196.16666666666666</ele><time>2026-03-27T16:56:05.837Z</time></trkpt><trkpt lat="40.5184188" lon="9.7343882"><ele>194.33333333333334</ele><time>2026-03-27T16:56:06.839Z</time></trkpt><trkpt lat="40.5184526" lon="9.73448"><ele>192.5</ele><time>2026-03-27T16:56:07.841Z</time></trkpt><trkpt lat="40.5184885" lon="9.7345817"><ele>190.66666666666669</ele><time>2026-03-27T16:56:08.837Z</time></trkpt><trkpt lat="40.5185295" lon="9.7346752"><ele>188.83333333333334</ele><time>2026-03-27T16:56:09.84Z</time></trkpt><trkpt lat="40.5185705" lon="9.7347694"><ele>187.0</ele><time>2026-03-27T16:56:10.847Z</time></trkpt><trkpt lat="40.518613" lon="9.7348648"><ele>187.0</ele><time>2026-03-27T16:56:11.842Z</time></trkpt><trkpt lat="40.5186633" lon="9.7349736"><ele>187.0</ele><time>2026-03-27T16:56:12.837Z</time></trkpt><trkpt lat="40.5187099" lon="9.7350789"><ele>187.0</ele><time>2026-03-27T16:56:13.851Z</time></trkpt><trkpt lat="40.5187426" lon="9.7351755"><ele>187.0</ele><time>2026-03-27T16:56:14.841Z</time></trkpt><trkpt lat="40.518763" lon="9.7352681"><ele>187.0</ele><time>2026-03-27T16:56:15.84Z</time></trkpt><trkpt lat="40.5187729" lon="9.7353555"><ele>187.0</ele><time>2026-03-27T16:56:16.84Z</time></trkpt><trkpt lat="40.5187831" lon="9.7354375"><ele>186.5</ele><time>2026-03-27T16:56:17.839Z</time></trkpt><trkpt lat="40.5187927" lon="9.7355217"><ele>186.0</ele><time>2026-03-27T16:56:18.842Z</time></trkpt><trkpt lat="40.5188056" lon="9.7356215"><ele>185.5</ele><time>2026-03-27T16:56:19.841Z</time></trkpt><trkpt lat="40.5188169" lon="9.7357145"><ele>185.0</ele><time>2026-03-27T16:56:20.843Z</time></trkpt><trkpt lat="40.518826" lon="9.7357968"><ele>184.5</ele><time>2026-03-27T16:56:21.848Z</time></trkpt><trkpt lat="40.5188241" lon="9.735952"><ele>184.0</ele><time>2026-03-27T16:56:23.842Z</time></trkpt><trkpt lat="40.5188117" lon="9.7360872"><ele>181.79999999999998</ele><time>2026-03-27T16:56:25.84Z</time></trkpt><trkpt lat="40.5188101" lon="9.7362144"><ele>179.6</ele><time>2026-03-27T16:56:27.847Z</time></trkpt><trkpt lat="40.5188276" lon="9.7363472"><ele>177.4</ele><time>2026-03-27T16:56:29.838Z</time></trkpt><trkpt lat="40.5188839" lon="9.7364558"><ele>175.2</ele><time>2026-03-27T16:56:31.846Z</time></trkpt><trkpt lat="40.518952" lon="9.7365212"><ele>173.0</ele><time>2026-03-27T16:56:33.841Z</time></trkpt><trkpt lat="40.5190146" lon="9.7365991"><ele>173.0</ele><time>2026-03-27T16:56:35.844Z</time></trkpt><trkpt lat="40.5190795" lon="9.7366902"><ele>173.0</ele><time>2026-03-27T16:56:37.839Z</time></trkpt><trkpt lat="40.5191578" lon="9.7367872"><ele>173.0</ele><time>2026-03-27T16:56:39.852Z</time></trkpt><trkpt lat="40.5192584" lon="9.7368949"><ele>173.0</ele><time>2026-03-27T16:56:41.856Z</time></trkpt><trkpt lat="40.5193348" lon="9.7369738"><ele>173.0</ele><time>2026-03-27T16:56:43.841Z</time></trkpt><trkpt lat="40.5193628" lon="9.7370721"><ele>169.66666666666666</ele><time>2026-03-27T16:56:45.852Z</time></trkpt><trkpt lat="40.5193191" lon="9.7371321"><ele>166.33333333333331</ele><time>2026-03-27T16:56:47.849Z</time></trkpt><trkpt lat="40.5192492" lon="9.7371766"><ele>163.0</ele><time>2026-03-27T16:56:49.848Z</time></trkpt><trkpt lat="40.5191357" lon="9.7372546"><ele>159.66666666666666</ele><time>2026-03-27T16:56:51.847Z</time></trkpt><trkpt lat="40.519068" lon="9.7372882"><ele>156.33333333333334</ele><time>2026-03-27T16:56:52.843Z</time></trkpt><trkpt lat="40.5190046" lon="9.7373173"><ele>153.0</ele><time>2026-03-27T16:56:53.84Z</time></trkpt><trkpt lat="40.5189398" lon="9.7373083"><ele>153.0</ele><time>2026-03-27T16:56:54.843Z</time></trkpt><trkpt lat="40.5188158" lon="9.7372926"><ele>153.0</ele><time>2026-03-27T16:56:56.844Z</time></trkpt><trkpt lat="40.5187493" lon="9.7372909"><ele>153.0</ele><time>2026-03-27T16:56:57.848Z</time></trkpt><trkpt lat="40.5186808" lon="9.7372997"><ele>153.0</ele><time>2026-03-27T16:56:58.842Z</time></trkpt><trkpt lat="40.5186113" lon="9.7373041"><ele>153.0</ele><time>2026-03-27T16:56:59.842Z</time></trkpt><trkpt lat="40.5185424" lon="9.7372958"><ele>153.0</ele><time>2026-03-27T16:57:00.843Z</time></trkpt><trkpt lat="40.5184768" lon="9.73729"><ele>151.83333333333334</ele><time>2026-03-27T16:57:01.837Z</time></trkpt><trkpt lat="40.5184117" lon="9.7372826"><ele>150.66666666666666</ele><time>2026-03-27T16:57:02.845Z</time></trkpt><trkpt lat="40.5183495" lon="9.7372693"><ele>149.5</ele><time>2026-03-27T16:57:03.842Z</time></trkpt><trkpt lat="40.5182916" lon="9.7372305"><ele>148.33333333333331</ele><time>2026-03-27T16:57:04.845Z</time></trkpt><trkpt lat="40.5181982" lon="9.7371097"><ele>147.16666666666666</ele><time>2026-03-27T16:57:06.84Z</time></trkpt><trkpt lat="40.5181533" lon="9.7370219"><ele>146.0</ele><time>2026-03-27T16:57:07.839Z</time></trkpt><trkpt lat="40.5181044" lon="9.736931"><ele>148.0</ele><time>2026-03-27T16:57:08.841Z</time></trkpt><trkpt lat="40.5180678" lon="9.7368277"><ele>150.0</ele><time>2026-03-27T16:57:09.844Z</time></trkpt><trkpt lat="40.5180316" lon="9.7367342"><ele>152.0</ele><time>2026-03-27T16:57:10.837Z</time></trkpt><trkpt lat="40.5180089" lon="9.7366461"><ele>154.0</ele><time>2026-03-27T16:57:11.835Z</time></trkpt><trkpt lat="40.517991" lon="9.7365505"><ele>156.0</ele><time>2026-03-27T16:57:12.837Z</time></trkpt><trkpt lat="40.5179671" lon="9.7364649"><ele>158.0</ele><time>2026-03-27T16:57:13.837Z</time></trkpt><trkpt lat="40.5179449" lon="9.7363821"><ele>160.0</ele><time>2026-03-27T16:57:14.84Z</time></trkpt><trkpt lat="40.517916" lon="9.7363026"><ele>155.2</ele><time>2026-03-27T16:57:15.852Z</time></trkpt><trkpt lat="40.5178817" lon="9.7362301"><ele>150.4</ele><time>2026-03-27T16:57:16.836Z</time></trkpt><trkpt lat="40.5178115" lon="9.7360841"><ele>145.6</ele><time>2026-03-27T16:57:18.831Z</time></trkpt><trkpt lat="40.5177634" lon="9.7359979"><ele>140.8</ele><time>2026-03-27T16:57:19.837Z</time></trkpt><trkpt lat="40.5177101" lon="9.7359009"><ele>136.0</ele><time>2026-03-27T16:57:20.835Z</time></trkpt><trkpt lat="40.5176537" lon="9.7358114"><ele>136.0</ele><time>2026-03-27T16:57:21.836Z</time></trkpt><trkpt lat="40.5175997" lon="9.7357201"><ele>136.0</ele><time>2026-03-27T16:57:22.843Z</time></trkpt><trkpt lat="40.5175462" lon="9.7356371"><ele>136.0</ele><time>2026-03-27T16:57:23.836Z</time></trkpt><trkpt lat="40.5174971" lon="9.7355598"><ele>136.0</ele><time>2026-03-27T16:57:24.85Z</time></trkpt><trkpt lat="40.5174444" lon="9.7354919"><ele>136.0</ele><time>2026-03-27T16:57:25.835Z</time></trkpt><trkpt lat="40.5173818" lon="9.735423"><ele>136.0</ele><time>2026-03-27T16:57:26.836Z</time></trkpt><trkpt lat="40.5173302" lon="9.7353544"><ele>136.0</ele><time>2026-03-27T16:57:27.844Z</time></trkpt><trkpt lat="40.5172783" lon="9.7352823"><ele>136.0</ele><time>2026-03-27T16:57:28.842Z</time></trkpt><trkpt lat="40.5172341" lon="9.7352046"><ele>136.0</ele><time>2026-03-27T16:57:29.839Z</time></trkpt><trkpt lat="40.5171898" lon="9.7351263"><ele>136.0</ele><time>2026-03-27T16:57:30.842Z</time></trkpt><trkpt lat="40.5171641" lon="9.7350403"><ele>136.0</ele><time>2026-03-27T16:57:31.833Z</time></trkpt><trkpt lat="40.5171413" lon="9.7349421"><ele>136.0</ele><time>2026-03-27T16:57:32.836Z</time></trkpt><trkpt lat="40.5171127" lon="9.7348458"><ele>134.83333333333334</ele><time>2026-03-27T16:57:33.834Z</time></trkpt><trkpt lat="40.5170786" lon="9.7347539"><ele>133.66666666666669</ele><time>2026-03-27T16:57:34.841Z</time></trkpt><trkpt lat="40.517048" lon="9.7346666"><ele>132.5</ele><time>2026-03-27T16:57:35.84Z</time></trkpt><trkpt lat="40.5169926" lon="9.734596"><ele>131.33333333333334</ele><time>2026-03-27T16:57:36.836Z</time></trkpt><trkpt lat="40.5169264" lon="9.7345224"><ele>130.16666666666666</ele><time>2026-03-27T16:57:37.841Z</time></trkpt><trkpt lat="40.516863" lon="9.7344578"><ele>129.0</ele><time>2026-03-27T16:57:38.838Z</time></trkpt><trkpt lat="40.5168028" lon="9.7344008"><ele>131.66666666666666</ele><time>2026-03-27T16:57:39.845Z</time></trkpt><trkpt lat="40.5167414" lon="9.734346"><ele>134.33333333333334</ele><time>2026-03-27T16:57:40.838Z</time></trkpt><trkpt lat="40.5166787" lon="9.7342928"><ele>137.0</ele><time>2026-03-27T16:57:41.842Z</time></trkpt><trkpt lat="40.5166136" lon="9.7342328"><ele>139.66666666666669</ele><time>2026-03-27T16:57:42.837Z</time></trkpt><trkpt lat="40.51655" lon="9.7341694"><ele>142.33333333333334</ele><time>2026-03-27T16:57:43.841Z</time></trkpt><trkpt lat="40.5164941" lon="9.7341082"><ele>145.0</ele><time>2026-03-27T16:57:44.836Z</time></trkpt><trkpt lat="40.5164116" lon="9.7340082"><ele>145.0</ele><time>2026-03-27T16:57:46.838Z</time></trkpt><trkpt lat="40.5163696" lon="9.7339272"><ele>145.0</ele><time>2026-03-27T16:57:48.84Z</time></trkpt><trkpt lat="40.5162932" lon="9.7339046"><ele>145.0</ele><time>2026-03-27T16:57:51.838Z</time></trkpt><trkpt lat="40.5162407" lon="9.7340012"><ele>145.0</ele><time>2026-03-27T16:57:53.835Z</time></trkpt><trkpt lat="40.5162006" lon="9.7341475"><ele>145.0</ele><time>2026-03-27T16:57:55.843Z</time></trkpt><trkpt lat="40.5161789" lon="9.7343"><ele>140.4</ele><time>2026-03-27T16:57:57.843Z</time></trkpt><trkpt lat="40.5161622" lon="9.7344492"><ele>135.8</ele><time>2026-03-27T16:57:59.837Z</time></trkpt><trkpt lat="40.5160701" lon="9.7345612"><ele>131.2</ele><time>2026-03-27T16:58:01.838Z</time></trkpt><trkpt lat="40.5159967" lon="9.7345998"><ele>126.6</ele><time>2026-03-27T16:58:02.842Z</time></trkpt><trkpt lat="40.5159281" lon="9.7346378"><ele>122.0</ele><time>2026-03-27T16:58:03.835Z</time></trkpt><trkpt lat="40.5158646" lon="9.7346779"><ele>121.99999999999999</ele><time>2026-03-27T16:58:04.843Z</time></trkpt><trkpt lat="40.5158043" lon="9.7347229"><ele>122.0</ele><time>2026-03-27T16:58:05.837Z</time></trkpt><trkpt lat="40.5157506" lon="9.7347808"><ele>122.0</ele><time>2026-03-27T16:58:06.837Z</time></trkpt><trkpt lat="40.5157023" lon="9.7348486"><ele>122.0</ele><time>2026-03-27T16:58:07.837Z</time></trkpt><trkpt lat="40.51566" lon="9.734922"><ele>121.99999999999999</ele><time>2026-03-27T16:58:08.845Z</time></trkpt><trkpt lat="40.5156175" lon="9.7350673"><ele>122.0</ele><time>2026-03-27T16:58:10.842Z</time></trkpt><trkpt lat="40.5156123" lon="9.735151"><ele>121.14285714285712</ele><time>2026-03-27T16:58:11.847Z</time></trkpt><trkpt lat="40.5156117" lon="9.7352461"><ele>120.28571428571428</ele><time>2026-03-27T16:58:12.844Z</time></trkpt><trkpt lat="40.5156112" lon="9.7353445"><ele>119.42857142857143</ele><time>2026-03-27T16:58:13.841Z</time></trkpt><trkpt lat="40.5156093" lon="9.7354433"><ele>118.57142857142857</ele><time>2026-03-27T16:58:14.837Z</time></trkpt><trkpt lat="40.5156077" lon="9.735539"><ele>117.71428571428572</ele><time>2026-03-27T16:58:15.847Z</time></trkpt><trkpt lat="40.5155971" lon="9.7356381"><ele>116.85714285714288</ele><time>2026-03-27T16:58:16.842Z</time></trkpt><trkpt lat="40.5155753" lon="9.7357332"><ele>116.00000000000001</ele><time>2026-03-27T16:58:17.843Z</time></trkpt><trkpt lat="40.5155438" lon="9.735826"><ele>115.99999999999999</ele><time>2026-03-27T16:58:18.842Z</time></trkpt><trkpt lat="40.5155124" lon="9.7359188"><ele>116.0</ele><time>2026-03-27T16:58:19.833Z</time></trkpt><trkpt lat="40.5154804" lon="9.7360128"><ele>116.0</ele><time>2026-03-27T16:58:20.838Z</time></trkpt><trkpt lat="40.5154528" lon="9.7361112"><ele>116.0</ele><time>2026-03-27T16:58:21.838Z</time></trkpt><trkpt lat="40.5154326" lon="9.7361992"><ele>115.99999999999999</ele><time>2026-03-27T16:58:22.847Z</time></trkpt><trkpt lat="40.5153904" lon="9.7363297"><ele>116.0</ele><time>2026-03-27T16:58:24.839Z</time></trkpt><trkpt lat="40.5153228" lon="9.7364"><ele>113.66666666666666</ele><time>2026-03-27T16:58:26.842Z</time></trkpt><trkpt lat="40.5152332" lon="9.7363805"><ele>111.33333333333333</ele><time>2026-03-27T16:58:28.852Z</time></trkpt><trkpt lat="40.5151623" lon="9.7363499"><ele>109.0</ele><time>2026-03-27T16:58:30.844Z</time></trkpt><trkpt lat="40.5150832" lon="9.7363232"><ele>106.66666666666666</ele><time>2026-03-27T16:58:33.845Z</time></trkpt><trkpt lat="40.5150094" lon="9.7363481"><ele>104.33333333333333</ele><time>2026-03-27T16:58:37.846Z</time></trkpt><trkpt lat="40.5149791" lon="9.7364328"><ele>102.0</ele><time>2026-03-27T16:58:39.847Z</time></trkpt><trkpt lat="40.5149804" lon="9.7365263"><ele>102.0</ele><time>2026-03-27T16:58:41.836Z</time></trkpt><trkpt lat="40.5150104" lon="9.736629"><ele>102.0</ele><time>2026-03-27T16:58:44.843Z</time></trkpt><trkpt lat="40.5150544" lon="9.7367271"><ele>102.0</ele><time>2026-03-27T16:58:46.837Z</time></trkpt><trkpt lat="40.5150893" lon="9.7368012"><ele>102.0</ele><time>2026-03-27T16:58:47.834Z</time></trkpt><trkpt lat="40.5151224" lon="9.7368834"><ele>102.0</ele><time>2026-03-27T16:58:48.844Z</time></trkpt><trkpt lat="40.5151527" lon="9.7369679"><ele>102.0</ele><time>2026-03-27T16:58:49.831Z</time></trkpt><trkpt lat="40.5151785" lon="9.7370581"><ele>101.0</ele><time>2026-03-27T16:58:50.842Z</time></trkpt><trkpt lat="40.5152018" lon="9.7371584"><ele>100.0</ele><time>2026-03-27T16:58:51.842Z</time></trkpt><trkpt lat="40.5152226" lon="9.7372589"><ele>99.0</ele><time>2026-03-27T16:58:52.839Z</time></trkpt><trkpt lat="40.5152354" lon="9.7373497"><ele>98.0</ele><time>2026-03-27T16:58:53.838Z</time></trkpt><trkpt lat="40.5152369" lon="9.7374425"><ele>97.0</ele><time>2026-03-27T16:58:54.837Z</time></trkpt><trkpt lat="40.5152333" lon="9.7375374"><ele>96.0</ele><time>2026-03-27T16:58:55.832Z</time></trkpt><trkpt lat="40.5152265" lon="9.7376491"><ele>95.4</ele><time>2026-03-27T16:58:56.868Z</time></trkpt><trkpt lat="40.515227" lon="9.7377752"><ele>94.8</ele><time>2026-03-27T16:58:57.842Z</time></trkpt><trkpt lat="40.5152294" lon="9.7379007"><ele>94.2</ele><time>2026-03-27T16:58:58.837Z</time></trkpt><trkpt lat="40.51524" lon="9.7380319"><ele>93.60000000000001</ele><time>2026-03-27T16:58:59.836Z</time></trkpt><trkpt lat="40.5152512" lon="9.7381638"><ele>93.0</ele><time>2026-03-27T16:59:00.839Z</time></trkpt><trkpt lat="40.5152512" lon="9.7382957"><ele>93.0</ele><time>2026-03-27T16:59:01.829Z</time></trkpt><trkpt lat="40.5152513" lon="9.7384216"><ele>93.0</ele><time>2026-03-27T16:59:02.835Z</time></trkpt><trkpt lat="40.5152482" lon="9.738525"><ele>93.0</ele><time>2026-03-27T16:59:03.83Z</time></trkpt><trkpt lat="40.5152386" lon="9.7386727"><ele>93.0</ele><time>2026-03-27T16:59:05.838Z</time></trkpt><trkpt lat="40.5152318" lon="9.738756"><ele>93.0</ele><time>2026-03-27T16:59:12.841Z</time></trkpt><trkpt lat="40.5152233" lon="9.7388525"><ele>93.0</ele><time>2026-03-27T16:59:15.84Z</time></trkpt><trkpt lat="40.5152109" lon="9.7389499"><ele>91.83333333333333</ele><time>2026-03-27T16:59:30.838Z</time></trkpt><trkpt lat="40.5151919" lon="9.7390356"><ele>90.66666666666667</ele><time>2026-03-27T16:59:33.837Z</time></trkpt><trkpt lat="40.5151583" lon="9.7391403"><ele>89.5</ele><time>2026-03-27T17:00:46.838Z</time></trkpt><trkpt lat="40.5150937" lon="9.7392402"><ele>88.33333333333334</ele><time>2026-03-27T17:00:48.833Z</time></trkpt><trkpt lat="40.515039" lon="9.7392911"><ele>87.16666666666667</ele><time>2026-03-27T17:00:49.838Z</time></trkpt><trkpt lat="40.5149801" lon="9.7393465"><ele>86.0</ele><time>2026-03-27T17:00:50.834Z</time></trkpt><trkpt lat="40.5149264" lon="9.7394052"><ele>85.4</ele><time>2026-03-27T17:00:51.839Z</time></trkpt><trkpt lat="40.5148515" lon="9.7395122"><ele>84.8</ele><time>2026-03-27T17:00:53.837Z</time></trkpt><trkpt lat="40.5148126" lon="9.7395899"><ele>84.2</ele><time>2026-03-27T17:00:55.835Z</time></trkpt><trkpt lat="40.5147524" lon="9.7396966"><ele>83.60000000000001</ele><time>2026-03-27T17:02:43.838Z</time></trkpt><trkpt lat="40.5146908" lon="9.7398122"><ele>83.0</ele><time>2026-03-27T17:02:45.838Z</time></trkpt><trkpt lat="40.5146268" lon="9.7399215"><ele>83.0</ele><time>2026-03-27T17:02:47.837Z</time></trkpt><trkpt lat="40.5145854" lon="9.740045"><ele>83.0</ele><time>2026-03-27T17:02:49.836Z</time></trkpt><trkpt lat="40.5145644" lon="9.7401615"><ele>83.0</ele><time>2026-03-27T17:02:51.834Z</time></trkpt><trkpt lat="40.5145432" lon="9.740253"><ele>83.0</ele><time>2026-03-27T17:02:54.835Z</time></trkpt><trkpt lat="40.5145178" lon="9.7403666"><ele>83.0</ele><time>2026-03-27T17:02:57.84Z</time></trkpt><trkpt lat="40.514491" lon="9.7404847"><ele>82.5</ele><time>2026-03-27T17:03:00.836Z</time></trkpt><trkpt lat="40.514466" lon="9.7405629"><ele>82.0</ele><time>2026-03-27T17:03:02.841Z</time></trkpt><trkpt lat="40.5144449" lon="9.7406846"><ele>81.5</ele><time>2026-03-27T17:03:04.844Z</time></trkpt><trkpt lat="40.5144426" lon="9.7407821"><ele>81.0</ele><time>2026-03-27T17:03:05.835Z</time></trkpt><trkpt lat="40.5144428" lon="9.7409042"><ele>80.5</ele><time>2026-03-27T17:03:06.834Z</time></trkpt><trkpt lat="40.5144529" lon="9.7410436"><ele>80.0</ele><time>2026-03-27T17:03:07.829Z</time></trkpt><trkpt lat="40.5144679" lon="9.7411906"><ele>78.8</ele><time>2026-03-27T17:03:08.84Z</time></trkpt><trkpt lat="40.514478" lon="9.7413308"><ele>77.6</ele><time>2026-03-27T17:03:09.833Z</time></trkpt><trkpt lat="40.5144851" lon="9.7414721"><ele>76.4</ele><time>2026-03-27T17:03:10.848Z</time></trkpt><trkpt lat="40.5144897" lon="9.7416039"><ele>75.2</ele><time>2026-03-27T17:03:11.836Z</time></trkpt><trkpt lat="40.5144946" lon="9.7417275"><ele>74.0</ele><time>2026-03-27T17:03:12.836Z</time></trkpt><trkpt lat="40.5144998" lon="9.7418455"><ele>73.60000000000001</ele><time>2026-03-27T17:03:13.842Z</time></trkpt><trkpt lat="40.514479" lon="9.7419719"><ele>73.2</ele><time>2026-03-27T17:03:14.838Z</time></trkpt><trkpt lat="40.5144517" lon="9.7421045"><ele>72.80000000000001</ele><time>2026-03-27T17:03:15.864Z</time></trkpt><trkpt lat="40.5144258" lon="9.742248"><ele>72.4</ele><time>2026-03-27T17:03:16.841Z</time></trkpt><trkpt lat="40.5144003" lon="9.7423904"><ele>72.0</ele><time>2026-03-27T17:03:17.842Z</time></trkpt><trkpt lat="40.5143703" lon="9.7425368"><ele>72.0</ele><time>2026-03-27T17:03:18.839Z</time></trkpt><trkpt lat="40.5143416" lon="9.7426723"><ele>72.0</ele><time>2026-03-27T17:03:19.837Z</time></trkpt><trkpt lat="40.514306" lon="9.7427906"><ele>72.0</ele><time>2026-03-27T17:03:20.834Z</time></trkpt><trkpt lat="40.5142616" lon="9.7428972"><ele>72.0</ele><time>2026-03-27T17:03:21.847Z</time></trkpt><trkpt lat="40.5142173" lon="9.743002"><ele>72.0</ele><time>2026-03-27T17:03:22.846Z</time></trkpt><trkpt lat="40.514166" lon="9.7431001"><ele>71.2</ele><time>2026-03-27T17:03:23.839Z</time></trkpt><trkpt lat="40.514112" lon="9.7432009"><ele>70.4</ele><time>2026-03-27T17:03:24.843Z</time></trkpt><trkpt lat="40.514041" lon="9.7432944"><ele>69.6</ele><time>2026-03-27T17:03:25.844Z</time></trkpt><trkpt lat="40.5139504" lon="9.7433788"><ele>68.8</ele><time>2026-03-27T17:03:26.852Z</time></trkpt><trkpt lat="40.513868" lon="9.743445"><ele>68.0</ele><time>2026-03-27T17:03:27.84Z</time></trkpt><trkpt lat="40.5137934" lon="9.7435025"><ele>67.16666666666667</ele><time>2026-03-27T17:03:28.847Z</time></trkpt><trkpt lat="40.5137444" lon="9.7435563"><ele>66.33333333333334</ele><time>2026-03-27T17:03:29.841Z</time></trkpt><trkpt lat="40.5137099" lon="9.7436344"><ele>65.5</ele><time>2026-03-27T17:03:30.839Z</time></trkpt><trkpt lat="40.5136758" lon="9.7437232"><ele>64.66666666666667</ele><time>2026-03-27T17:03:31.842Z</time></trkpt><trkpt lat="40.5135999" lon="9.7438405"><ele>63.833333333333336</ele><time>2026-03-27T17:03:33.856Z</time></trkpt><trkpt lat="40.5135232" lon="9.7439511"><ele>63.0</ele><time>2026-03-27T17:03:35.842Z</time></trkpt><trkpt lat="40.513479" lon="9.7441044"><ele>62.85714285714286</ele><time>2026-03-27T17:03:37.837Z</time></trkpt><trkpt lat="40.5134901" lon="9.7441955"><ele>62.714285714285715</ele><time>2026-03-27T17:03:38.838Z</time></trkpt><trkpt lat="40.5135153" lon="9.7442825"><ele>62.57142857142857</ele><time>2026-03-27T17:03:39.845Z</time></trkpt><trkpt lat="40.5135405" lon="9.7443757"><ele>62.42857142857143</ele><time>2026-03-27T17:03:40.834Z</time></trkpt><trkpt lat="40.5135459" lon="9.7444695"><ele>62.28571428571429</ele><time>2026-03-27T17:03:41.849Z</time></trkpt><trkpt lat="40.5135369" lon="9.7445697"><ele>62.142857142857146</ele><time>2026-03-27T17:03:42.835Z</time></trkpt><trkpt lat="40.513526" lon="9.7446668"><ele>62.0</ele><time>2026-03-27T17:03:43.829Z</time></trkpt><trkpt lat="40.5134535" lon="9.7447964"><ele>62.00000000000001</ele><time>2026-03-27T17:03:45.836Z</time></trkpt><trkpt lat="40.513331" lon="9.7448498"><ele>62.0</ele><time>2026-03-27T17:03:47.845Z</time></trkpt><trkpt lat="40.5132638" lon="9.7448735"><ele>62.0</ele><time>2026-03-27T17:03:48.838Z</time></trkpt><trkpt lat="40.5132074" lon="9.7449315"><ele>62.0</ele><time>2026-03-27T17:03:49.838Z</time></trkpt><trkpt lat="40.5131689" lon="9.7450238"><ele>62.00000000000001</ele><time>2026-03-27T17:03:50.836Z</time></trkpt><trkpt lat="40.5131421" lon="9.7451167"><ele>62.0</ele><time>2026-03-27T17:03:51.829Z</time></trkpt><trkpt lat="40.5131185" lon="9.7452523"><ele>62.0</ele><time>2026-03-27T17:03:53.835Z</time></trkpt><trkpt lat="40.5131261" lon="9.7453424"><ele>62.0</ele><time>2026-03-27T17:03:55.839Z</time></trkpt><trkpt lat="40.5131414" lon="9.7454491"><ele>62.0</ele><time>2026-03-27T17:03:59.835Z</time></trkpt><trkpt lat="40.5131517" lon="9.7455447"><ele>62.0</ele><time>2026-03-27T17:04:01.838Z</time></trkpt><trkpt lat="40.5131646" lon="9.7457112"><ele>62.0</ele><time>2026-03-27T17:04:03.838Z</time></trkpt><trkpt lat="40.513138" lon="9.7458673"><ele>62.0</ele><time>2026-03-27T17:04:05.832Z</time></trkpt><trkpt lat="40.5130827" lon="9.7460076"><ele>62.0</ele><time>2026-03-27T17:04:07.843Z</time></trkpt><trkpt lat="40.5130267" lon="9.7461343"><ele>62.0</ele><time>2026-03-27T17:04:09.832Z</time></trkpt><trkpt lat="40.5129781" lon="9.746265"><ele>62.0</ele><time>2026-03-27T17:04:11.839Z</time></trkpt><trkpt lat="40.512946" lon="9.7464192"><ele>62.00000000000001</ele><time>2026-03-27T17:04:13.837Z</time></trkpt><trkpt lat="40.5129386" lon="9.7465017"><ele>62.0</ele><time>2026-03-27T17:04:14.834Z</time></trkpt><trkpt lat="40.5129309" lon="9.7465858"><ele>62.0</ele><time>2026-03-27T17:04:15.836Z</time></trkpt><trkpt lat="40.5129241" lon="9.74667"><ele>62.0</ele><time>2026-03-27T17:04:16.833Z</time></trkpt><trkpt lat="40.5129179" lon="9.7467553"><ele>62.00000000000001</ele><time>2026-03-27T17:04:17.833Z</time></trkpt><trkpt lat="40.5129021" lon="9.7469048"><ele>62.0</ele><time>2026-03-27T17:04:19.833Z</time></trkpt><trkpt lat="40.5128936" lon="9.7470376"><ele>62.0</ele><time>2026-03-27T17:04:21.836Z</time></trkpt><trkpt lat="40.5128857" lon="9.747163"><ele>62.0</ele><time>2026-03-27T17:04:23.836Z</time></trkpt><trkpt lat="40.5128786" lon="9.7472809"><ele>62.0</ele><time>2026-03-27T17:04:25.839Z</time></trkpt><trkpt lat="40.5128745" lon="9.7474089"><ele>62.0</ele><time>2026-03-27T17:04:27.842Z</time></trkpt><trkpt lat="40.5128683" lon="9.7475546"><ele>62.0</ele><time>2026-03-27T17:04:29.84Z</time></trkpt><trkpt lat="40.5128618" lon="9.7477127"><ele>61.0</ele><time>2026-03-27T17:04:31.843Z</time></trkpt><trkpt lat="40.512856" lon="9.7477973"><ele>60.0</ele><time>2026-03-27T17:04:32.841Z</time></trkpt><trkpt lat="40.5128569" lon="9.7479499"><ele>59.0</ele><time>2026-03-27T17:04:34.846Z</time></trkpt><trkpt lat="40.5128508" lon="9.748103"><ele>58.0</ele><time>2026-03-27T17:04:36.843Z</time></trkpt><trkpt lat="40.5128282" lon="9.7482697"><ele>57.0</ele><time>2026-03-27T17:04:38.841Z</time></trkpt><trkpt lat="40.5128222" lon="9.7483554"><ele>57.0</ele><time>2026-03-27T17:04:39.843Z</time></trkpt><trkpt lat="40.5128173" lon="9.7485163"><ele>57.0</ele><time>2026-03-27T17:04:41.845Z</time></trkpt><trkpt lat="40.5128117" lon="9.7486025"><ele>57.0</ele><time>2026-03-27T17:04:42.858Z</time></trkpt><trkpt lat="40.5127905" lon="9.7487374"><ele>57.0</ele><time>2026-03-27T17:04:44.841Z</time></trkpt><trkpt lat="40.5127644" lon="9.748859"><ele>57.0</ele><time>2026-03-27T17:04:46.841Z</time></trkpt><trkpt lat="40.5127336" lon="9.7489634"><ele>56.333333333333336</ele><time>2026-03-27T17:04:48.843Z</time></trkpt><trkpt lat="40.5126895" lon="9.7490477"><ele>55.66666666666667</ele><time>2026-03-27T17:04:50.842Z</time></trkpt><trkpt lat="40.5126484" lon="9.7491515"><ele>55.0</ele><time>2026-03-27T17:04:53.845Z</time></trkpt><trkpt lat="40.5126054" lon="9.749251"><ele>54.333333333333336</ele><time>2026-03-27T17:04:56.839Z</time></trkpt><trkpt lat="40.5125784" lon="9.7493303"><ele>53.66666666666667</ele><time>2026-03-27T17:04:59.838Z</time></trkpt><trkpt lat="40.5125373" lon="9.7494002"><ele>53.0</ele><time>2026-03-27T17:05:03.841Z</time></trkpt><trkpt lat="40.5124406" lon="9.7493935"><ele>53.0</ele><time>2026-03-27T17:05:08.839Z</time></trkpt><trkpt lat="40.512381" lon="9.7493655"><ele>53.0</ele><time>2026-03-27T17:05:09.837Z</time></trkpt><trkpt lat="40.5123088" lon="9.7493145"><ele>53.0</ele><time>2026-03-27T17:05:10.844Z</time></trkpt><trkpt lat="40.5122286" lon="9.7492566"><ele>53.0</ele><time>2026-03-27T17:05:11.837Z</time></trkpt><trkpt lat="40.5121339" lon="9.749173"><ele>53.0</ele><time>2026-03-27T17:05:12.832Z</time></trkpt><trkpt lat="40.5120283" lon="9.7490843"><ele>53.25</ele><time>2026-03-27T17:05:13.837Z</time></trkpt><trkpt lat="40.5119166" lon="9.7489865"><ele>53.5</ele><time>2026-03-27T17:05:14.843Z</time></trkpt><trkpt lat="40.5118004" lon="9.7488735"><ele>53.75</ele><time>2026-03-27T17:05:15.836Z</time></trkpt><trkpt lat="40.5116958" lon="9.7487552"><ele>54.0</ele><time>2026-03-27T17:05:16.834Z</time></trkpt><trkpt lat="40.5116016" lon="9.7486318"><ele>56.5</ele><time>2026-03-27T17:05:17.835Z</time></trkpt><trkpt lat="40.5115168" lon="9.7485027"><ele>59.0</ele><time>2026-03-27T17:05:18.842Z</time></trkpt><trkpt lat="40.5114405" lon="9.748369"><ele>61.5</ele><time>2026-03-27T17:05:19.836Z</time></trkpt><trkpt lat="40.5113677" lon="9.7482354"><ele>64.0</ele><time>2026-03-27T17:05:20.837Z</time></trkpt><trkpt lat="40.511293" lon="9.7480983"><ele>63.25</ele><time>2026-03-27T17:05:21.834Z</time></trkpt><trkpt lat="40.5112171" lon="9.7479577"><ele>62.5</ele><time>2026-03-27T17:05:22.832Z</time></trkpt><trkpt lat="40.5111395" lon="9.7478149"><ele>61.75</ele><time>2026-03-27T17:05:23.832Z</time></trkpt><trkpt lat="40.5110573" lon="9.7476623"><ele>61.0</ele><time>2026-03-27T17:05:24.837Z</time></trkpt><trkpt lat="40.5109744" lon="9.7475036"><ele>61.0</ele><time>2026-03-27T17:05:25.838Z</time></trkpt><trkpt lat="40.5108932" lon="9.7473497"><ele>61.0</ele><time>2026-03-27T17:05:26.841Z</time></trkpt><trkpt lat="40.5108089" lon="9.7471922"><ele>61.0</ele><time>2026-03-27T17:05:27.833Z</time></trkpt><trkpt lat="40.5107181" lon="9.7470282"><ele>61.0</ele><time>2026-03-27T17:05:28.837Z</time></trkpt><trkpt lat="40.5106227" lon="9.7468582"><ele>60.0</ele><time>2026-03-27T17:05:29.837Z</time></trkpt><trkpt lat="40.5105234" lon="9.7466858"><ele>59.0</ele><time>2026-03-27T17:05:30.84Z</time></trkpt><trkpt lat="40.510422" lon="9.7465165"><ele>58.0</ele><time>2026-03-27T17:05:31.835Z</time></trkpt><trkpt lat="40.5103225" lon="9.7463525"><ele>58.0</ele><time>2026-03-27T17:05:32.829Z</time></trkpt><trkpt lat="40.5102237" lon="9.7461928"><ele>58.0</ele><time>2026-03-27T17:05:33.841Z</time></trkpt><trkpt lat="40.5101252" lon="9.7460367"><ele>58.0</ele><time>2026-03-27T17:05:34.837Z</time></trkpt><trkpt lat="40.510027" lon="9.7458869"><ele>61.33333333333333</ele><time>2026-03-27T17:05:35.833Z</time></trkpt><trkpt lat="40.5099266" lon="9.7457408"><ele>64.66666666666667</ele><time>2026-03-27T17:05:36.834Z</time></trkpt><trkpt lat="40.5098222" lon="9.7455992"><ele>68.0</ele><time>2026-03-27T17:05:37.84Z</time></trkpt><trkpt lat="40.5097121" lon="9.7454588"><ele>68.0</ele><time>2026-03-27T17:05:38.832Z</time></trkpt><trkpt lat="40.5095974" lon="9.7453176"><ele>68.0</ele><time>2026-03-27T17:05:39.837Z</time></trkpt><trkpt lat="40.5094779" lon="9.7451763"><ele>68.0</ele><time>2026-03-27T17:05:40.833Z</time></trkpt><trkpt lat="40.5093539" lon="9.7450343"><ele>67.0</ele><time>2026-03-27T17:05:41.834Z</time></trkpt><trkpt lat="40.5092277" lon="9.7448923"><ele>66.0</ele><time>2026-03-27T17:05:42.838Z</time></trkpt><trkpt lat="40.5090979" lon="9.7447468"><ele>65.0</ele><time>2026-03-27T17:05:43.858Z</time></trkpt><trkpt lat="40.5089737" lon="9.7445997"><ele>65.0</ele><time>2026-03-27T17:05:44.837Z</time></trkpt><trkpt lat="40.5088519" lon="9.7444511"><ele>65.0</ele><time>2026-03-27T17:05:45.838Z</time></trkpt><trkpt lat="40.5087296" lon="9.7442928"><ele>65.0</ele><time>2026-03-27T17:05:46.839Z</time></trkpt><trkpt lat="40.5086108" lon="9.7441253"><ele>64.66666666666667</ele><time>2026-03-27T17:05:47.834Z</time></trkpt><trkpt lat="40.5084943" lon="9.7439467"><ele>64.33333333333333</ele><time>2026-03-27T17:05:48.849Z</time></trkpt><trkpt lat="40.5083793" lon="9.7437561"><ele>64.0</ele><time>2026-03-27T17:05:49.838Z</time></trkpt><trkpt lat="40.5082639" lon="9.7435631"><ele>67.0</ele><time>2026-03-27T17:05:50.834Z</time></trkpt><trkpt lat="40.5081531" lon="9.7433786"><ele>70.0</ele><time>2026-03-27T17:05:51.841Z</time></trkpt><trkpt lat="40.5080509" lon="9.743208"><ele>73.0</ele><time>2026-03-27T17:05:52.832Z</time></trkpt><trkpt lat="40.507953" lon="9.7430449"><ele>72.33333333333333</ele><time>2026-03-27T17:05:53.839Z</time></trkpt><trkpt lat="40.5078558" lon="9.7428821"><ele>71.66666666666667</ele><time>2026-03-27T17:05:54.834Z</time></trkpt><trkpt lat="40.5077579" lon="9.7427182"><ele>71.0</ele><time>2026-03-27T17:05:55.838Z</time></trkpt><trkpt lat="40.5076596" lon="9.7425547"><ele>71.0</ele><time>2026-03-27T17:05:56.836Z</time></trkpt><trkpt lat="40.507561" lon="9.7423865"><ele>71.0</ele><time>2026-03-27T17:05:57.839Z</time></trkpt><trkpt lat="40.5074608" lon="9.7422129"><ele>71.0</ele><time>2026-03-27T17:05:58.833Z</time></trkpt><trkpt lat="40.5073596" lon="9.7420341"><ele>69.66666666666667</ele><time>2026-03-27T17:05:59.836Z</time></trkpt><trkpt lat="40.5072589" lon="9.7418506"><ele>68.33333333333333</ele><time>2026-03-27T17:06:00.838Z</time></trkpt><trkpt lat="40.5071562" lon="9.7416654"><ele>67.0</ele><time>2026-03-27T17:06:01.837Z</time></trkpt><trkpt lat="40.5070519" lon="9.7414801"><ele>67.0</ele><time>2026-03-27T17:06:02.844Z</time></trkpt><trkpt lat="40.5069463" lon="9.741297"><ele>67.0</ele><time>2026-03-27T17:06:03.834Z</time></trkpt><trkpt lat="40.50684" lon="9.741114"><ele>67.0</ele><time>2026-03-27T17:06:04.835Z</time></trkpt><trkpt lat="40.5067347" lon="9.7409337"><ele>69.33333333333333</ele><time>2026-03-27T17:06:05.834Z</time></trkpt><trkpt lat="40.5066291" lon="9.7407595"><ele>71.66666666666667</ele><time>2026-03-27T17:06:06.834Z</time></trkpt><trkpt lat="40.5065229" lon="9.7405896"><ele>74.0</ele><time>2026-03-27T17:06:07.832Z</time></trkpt><trkpt lat="40.5064166" lon="9.7404218"><ele>74.0</ele><time>2026-03-27T17:06:08.834Z</time></trkpt><trkpt lat="40.5063068" lon="9.7402581"><ele>74.0</ele><time>2026-03-27T17:06:09.842Z</time></trkpt><trkpt lat="40.5061918" lon="9.7401017"><ele>74.0</ele><time>2026-03-27T17:06:10.839Z</time></trkpt><trkpt lat="40.5060719" lon="9.7399491"><ele>73.33333333333334</ele><time>2026-03-27T17:06:11.837Z</time></trkpt><trkpt lat="40.5059476" lon="9.7398008"><ele>72.66666666666667</ele><time>2026-03-27T17:06:12.835Z</time></trkpt><trkpt lat="40.5058192" lon="9.739656"><ele>72.0</ele><time>2026-03-27T17:06:13.84Z</time></trkpt><trkpt lat="40.5056857" lon="9.7395119"><ele>72.0</ele><time>2026-03-27T17:06:14.833Z</time></trkpt><trkpt lat="40.5055436" lon="9.739369"><ele>72.0</ele><time>2026-03-27T17:06:15.839Z</time></trkpt><trkpt lat="40.5053993" lon="9.7392168"><ele>72.0</ele><time>2026-03-27T17:06:16.835Z</time></trkpt><trkpt lat="40.5052552" lon="9.7390598"><ele>72.0</ele><time>2026-03-27T17:06:17.834Z</time></trkpt><trkpt lat="40.5051216" lon="9.7389057"><ele>72.0</ele><time>2026-03-27T17:06:18.841Z</time></trkpt><trkpt lat="40.5049916" lon="9.7387389"><ele>72.0</ele><time>2026-03-27T17:06:19.83Z</time></trkpt><trkpt lat="40.5048701" lon="9.7385634"><ele>71.0</ele><time>2026-03-27T17:06:20.836Z</time></trkpt><trkpt lat="40.5047551" lon="9.7383799"><ele>70.0</ele><time>2026-03-27T17:06:21.839Z</time></trkpt><trkpt lat="40.504649" lon="9.7381921"><ele>69.0</ele><time>2026-03-27T17:06:22.832Z</time></trkpt><trkpt lat="40.5045444" lon="9.7379955"><ele>69.0</ele><time>2026-03-27T17:06:23.834Z</time></trkpt><trkpt lat="40.5044469" lon="9.7378115"><ele>69.0</ele><time>2026-03-27T17:06:24.835Z</time></trkpt><trkpt lat="40.5043476" lon="9.7376156"><ele>69.0</ele><time>2026-03-27T17:06:25.833Z</time></trkpt><trkpt lat="40.5042438" lon="9.7374255"><ele>71.0</ele><time>2026-03-27T17:06:26.833Z</time></trkpt><trkpt lat="40.5041398" lon="9.737239"><ele>73.0</ele><time>2026-03-27T17:06:27.836Z</time></trkpt><trkpt lat="40.5040313" lon="9.7370523"><ele>75.0</ele><time>2026-03-27T17:06:28.832Z</time></trkpt><trkpt lat="40.5039181" lon="9.7368746"><ele>75.66666666666667</ele><time>2026-03-27T17:06:29.837Z</time></trkpt><trkpt lat="40.5038004" lon="9.7367049"><ele>76.33333333333334</ele><time>2026-03-27T17:06:30.838Z</time></trkpt><trkpt lat="40.5036731" lon="9.7365435"><ele>77.0</ele><time>2026-03-27T17:06:31.838Z</time></trkpt><trkpt lat="40.5035399" lon="9.7363904"><ele>77.0</ele><time>2026-03-27T17:06:32.833Z</time></trkpt><trkpt lat="40.5034" lon="9.7362416"><ele>77.0</ele><time>2026-03-27T17:06:33.836Z</time></trkpt><trkpt lat="40.5032563" lon="9.7360966"><ele>77.0</ele><time>2026-03-27T17:06:34.837Z</time></trkpt><trkpt lat="40.5031103" lon="9.7359538"><ele>77.33333333333334</ele><time>2026-03-27T17:06:35.836Z</time></trkpt><trkpt lat="40.5029641" lon="9.7358103"><ele>77.66666666666667</ele><time>2026-03-27T17:06:36.838Z</time></trkpt><trkpt lat="40.5028196" lon="9.7356602"><ele>78.0</ele><time>2026-03-27T17:06:37.841Z</time></trkpt><trkpt lat="40.5026827" lon="9.7354991"><ele>78.0</ele><time>2026-03-27T17:06:38.836Z</time></trkpt><trkpt lat="40.5025525" lon="9.7353266"><ele>78.0</ele><time>2026-03-27T17:06:39.84Z</time></trkpt><trkpt lat="40.50243" lon="9.735142"><ele>78.0</ele><time>2026-03-27T17:06:40.841Z</time></trkpt><trkpt lat="40.5023158" lon="9.7349475"><ele>79.33333333333333</ele><time>2026-03-27T17:06:41.838Z</time></trkpt><trkpt lat="40.5022064" lon="9.7347478"><ele>80.66666666666666</ele><time>2026-03-27T17:06:42.837Z</time></trkpt><trkpt lat="40.5020937" lon="9.7345503"><ele>82.0</ele><time>2026-03-27T17:06:43.855Z</time></trkpt><trkpt lat="40.501975" lon="9.73436"><ele>82.0</ele><time>2026-03-27T17:06:44.841Z</time></trkpt><trkpt lat="40.5018499" lon="9.7341811"><ele>82.0</ele><time>2026-03-27T17:06:45.837Z</time></trkpt><trkpt lat="40.5017169" lon="9.7340161"><ele>82.0</ele><time>2026-03-27T17:06:46.837Z</time></trkpt><trkpt lat="40.5015766" lon="9.7338647"><ele>82.0</ele><time>2026-03-27T17:06:47.839Z</time></trkpt><trkpt lat="40.5014277" lon="9.7337297"><ele>82.0</ele><time>2026-03-27T17:06:48.849Z</time></trkpt><trkpt lat="40.5012728" lon="9.7336071"><ele>82.0</ele><time>2026-03-27T17:06:49.836Z</time></trkpt><trkpt lat="40.5011138" lon="9.7334953"><ele>82.0</ele><time>2026-03-27T17:06:50.842Z</time></trkpt><trkpt lat="40.5009523" lon="9.7333897"><ele>82.0</ele><time>2026-03-27T17:06:51.843Z</time></trkpt><trkpt lat="40.5007886" lon="9.7332884"><ele>82.0</ele><time>2026-03-27T17:06:52.838Z</time></trkpt><trkpt lat="40.5006247" lon="9.7331883"><ele>82.0</ele><time>2026-03-27T17:06:53.838Z</time></trkpt><trkpt lat="40.5004611" lon="9.7330878"><ele>82.0</ele><time>2026-03-27T17:06:54.835Z</time></trkpt><trkpt lat="40.5002971" lon="9.7329847"><ele>82.0</ele><time>2026-03-27T17:06:55.843Z</time></trkpt><trkpt lat="40.5001351" lon="9.7328784"><ele>82.0</ele><time>2026-03-27T17:06:56.84Z</time></trkpt><trkpt lat="40.4999731" lon="9.7327709"><ele>82.0</ele><time>2026-03-27T17:06:57.833Z</time></trkpt><trkpt lat="40.4998121" lon="9.7326593"><ele>82.0</ele><time>2026-03-27T17:06:58.839Z</time></trkpt><trkpt lat="40.4996504" lon="9.7325417"><ele>82.66666666666666</ele><time>2026-03-27T17:06:59.833Z</time></trkpt><trkpt lat="40.4994848" lon="9.732418"><ele>83.33333333333333</ele><time>2026-03-27T17:07:00.841Z</time></trkpt><trkpt lat="40.4993181" lon="9.7322919"><ele>84.0</ele><time>2026-03-27T17:07:01.832Z</time></trkpt><trkpt lat="40.4991511" lon="9.7321647"><ele>84.0</ele><time>2026-03-27T17:07:02.835Z</time></trkpt><trkpt lat="40.4989852" lon="9.7320346"><ele>84.0</ele><time>2026-03-27T17:07:03.833Z</time></trkpt><trkpt lat="40.4988226" lon="9.7318983"><ele>84.0</ele><time>2026-03-27T17:07:04.841Z</time></trkpt><trkpt lat="40.4986642" lon="9.7317542"><ele>84.0</ele><time>2026-03-27T17:07:05.834Z</time></trkpt><trkpt lat="40.498512" lon="9.7316008"><ele>84.0</ele><time>2026-03-27T17:07:06.836Z</time></trkpt><trkpt lat="40.4983663" lon="9.7314385"><ele>84.0</ele><time>2026-03-27T17:07:07.831Z</time></trkpt><trkpt lat="40.4982284" lon="9.7312655"><ele>84.0</ele><time>2026-03-27T17:07:08.834Z</time></trkpt><trkpt lat="40.4981" lon="9.7310817"><ele>84.0</ele><time>2026-03-27T17:07:09.833Z</time></trkpt><trkpt lat="40.4979787" lon="9.7308877"><ele>84.0</ele><time>2026-03-27T17:07:10.838Z</time></trkpt><trkpt lat="40.4978613" lon="9.7306893"><ele>85.0</ele><time>2026-03-27T17:07:11.834Z</time></trkpt><trkpt lat="40.4977467" lon="9.7304882"><ele>86.0</ele><time>2026-03-27T17:07:12.838Z</time></trkpt><trkpt lat="40.4976324" lon="9.730286"><ele>87.0</ele><time>2026-03-27T17:07:13.835Z</time></trkpt><trkpt lat="40.4975146" lon="9.7300781"><ele>88.0</ele><time>2026-03-27T17:07:14.837Z</time></trkpt><trkpt lat="40.4973896" lon="9.7298662"><ele>89.0</ele><time>2026-03-27T17:07:15.835Z</time></trkpt><trkpt lat="40.497253" lon="9.7296546"><ele>90.0</ele><time>2026-03-27T17:07:16.832Z</time></trkpt><trkpt lat="40.4971047" lon="9.7294479"><ele>90.33333333333333</ele><time>2026-03-27T17:07:17.84Z</time></trkpt><trkpt lat="40.4969496" lon="9.7292462"><ele>90.66666666666666</ele><time>2026-03-27T17:07:18.837Z</time></trkpt><trkpt lat="40.4967909" lon="9.7290461"><ele>91.0</ele><time>2026-03-27T17:07:19.829Z</time></trkpt><trkpt lat="40.4966308" lon="9.7288474"><ele>91.0</ele><time>2026-03-27T17:07:20.834Z</time></trkpt><trkpt lat="40.4964712" lon="9.7286511"><ele>91.0</ele><time>2026-03-27T17:07:21.835Z</time></trkpt><trkpt lat="40.4963177" lon="9.7284596"><ele>91.0</ele><time>2026-03-27T17:07:22.836Z</time></trkpt><trkpt lat="40.4961735" lon="9.7282729"><ele>91.66666666666666</ele><time>2026-03-27T17:07:23.839Z</time></trkpt><trkpt lat="40.4960366" lon="9.7280802"><ele>92.33333333333333</ele><time>2026-03-27T17:07:24.836Z</time></trkpt><trkpt lat="40.4959041" lon="9.7278745"><ele>93.0</ele><time>2026-03-27T17:07:25.829Z</time></trkpt><trkpt lat="40.4957747" lon="9.727656"><ele>93.0</ele><time>2026-03-27T17:07:26.837Z</time></trkpt><trkpt lat="40.4956442" lon="9.7274431"><ele>93.0</ele><time>2026-03-27T17:07:27.833Z</time></trkpt><trkpt lat="40.4955173" lon="9.7272132"><ele>93.0</ele><time>2026-03-27T17:07:28.836Z</time></trkpt><trkpt lat="40.4953862" lon="9.7269743"><ele>94.0</ele><time>2026-03-27T17:07:29.832Z</time></trkpt><trkpt lat="40.4952496" lon="9.7267245"><ele>95.0</ele><time>2026-03-27T17:07:30.836Z</time></trkpt><trkpt lat="40.4951122" lon="9.7264775"><ele>95.0</ele><time>2026-03-27T17:07:31.833Z</time></trkpt><trkpt lat="40.4949763" lon="9.7262283"><ele>95.0</ele><time>2026-03-27T17:07:32.834Z</time></trkpt><trkpt lat="40.4948388" lon="9.7259811"><ele>95.0</ele><time>2026-03-27T17:07:33.829Z</time></trkpt><trkpt lat="40.4947015" lon="9.725736"><ele>95.0</ele><time>2026-03-27T17:07:34.83Z</time></trkpt><trkpt lat="40.4945615" lon="9.7254882"><ele>95.0</ele><time>2026-03-27T17:07:35.83Z</time></trkpt><trkpt lat="40.4944184" lon="9.7252449"><ele>95.0</ele><time>2026-03-27T17:07:36.847Z</time></trkpt><trkpt lat="40.4942726" lon="9.7250045"><ele>97.0</ele><time>2026-03-27T17:07:37.828Z</time></trkpt><trkpt lat="40.4941217" lon="9.7247687"><ele>99.0</ele><time>2026-03-27T17:07:38.837Z</time></trkpt><trkpt lat="40.493965" lon="9.7245391"><ele>99.5</ele><time>2026-03-27T17:07:39.835Z</time></trkpt><trkpt lat="40.4938007" lon="9.7243192"><ele>100.0</ele><time>2026-03-27T17:07:40.84Z</time></trkpt><trkpt lat="40.4936308" lon="9.7241069"><ele>100.0</ele><time>2026-03-27T17:07:41.839Z</time></trkpt><trkpt lat="40.4934533" lon="9.7239023"><ele>100.0</ele><time>2026-03-27T17:07:42.833Z</time></trkpt><trkpt lat="40.4932702" lon="9.7237088"><ele>100.5</ele><time>2026-03-27T17:07:43.855Z</time></trkpt><trkpt lat="40.4930811" lon="9.7235234"><ele>101.0</ele><time>2026-03-27T17:07:44.833Z</time></trkpt><trkpt lat="40.492894" lon="9.7233502"><ele>101.0</ele><time>2026-03-27T17:07:45.833Z</time></trkpt><trkpt lat="40.4927169" lon="9.7231967"><ele>101.0</ele><time>2026-03-27T17:07:46.836Z</time></trkpt><trkpt lat="40.4925534" lon="9.7230591"><ele>101.0</ele><time>2026-03-27T17:07:47.831Z</time></trkpt><trkpt lat="40.4923989" lon="9.7229338"><ele>101.0</ele><time>2026-03-27T17:07:48.843Z</time></trkpt><trkpt lat="40.4922504" lon="9.722816"><ele>101.0</ele><time>2026-03-27T17:07:49.833Z</time></trkpt><trkpt lat="40.4921044" lon="9.7227026"><ele>101.0</ele><time>2026-03-27T17:07:50.829Z</time></trkpt><trkpt lat="40.4919608" lon="9.7225958"><ele>101.75</ele><time>2026-03-27T17:07:51.83Z</time></trkpt><trkpt lat="40.491822" lon="9.7224944"><ele>102.5</ele><time>2026-03-27T17:07:52.832Z</time></trkpt><trkpt lat="40.4916953" lon="9.7224022"><ele>103.25</ele><time>2026-03-27T17:07:53.834Z</time></trkpt><trkpt lat="40.4915891" lon="9.7223244"><ele>104.0</ele><time>2026-03-27T17:07:54.843Z</time></trkpt><trkpt lat="40.4915013" lon="9.7222674"><ele>103.99999999999999</ele><time>2026-03-27T17:07:55.832Z</time></trkpt><trkpt lat="40.4914217" lon="9.7222392"><ele>104.0</ele><time>2026-03-27T17:07:56.833Z</time></trkpt><trkpt lat="40.4913494" lon="9.7222499"><ele>104.0</ele><time>2026-03-27T17:07:57.839Z</time></trkpt><trkpt lat="40.4912848" lon="9.7223013"><ele>104.0</ele><time>2026-03-27T17:07:58.841Z</time></trkpt><trkpt lat="40.4912185" lon="9.7223921"><ele>103.99999999999999</ele><time>2026-03-27T17:07:59.857Z</time></trkpt><trkpt lat="40.4911507" lon="9.7224951"><ele>104.0</ele><time>2026-03-27T17:08:00.835Z</time></trkpt><trkpt lat="40.4910698" lon="9.7225879"><ele>103.75</ele><time>2026-03-27T17:08:01.839Z</time></trkpt><trkpt lat="40.490972" lon="9.7226746"><ele>103.5</ele><time>2026-03-27T17:08:02.838Z</time></trkpt><trkpt lat="40.4908587" lon="9.7227629"><ele>103.25</ele><time>2026-03-27T17:08:03.841Z</time></trkpt><trkpt lat="40.4907392" lon="9.7228515"><ele>103.0</ele><time>2026-03-27T17:08:04.837Z</time></trkpt><trkpt lat="40.4906254" lon="9.722935"><ele>103.0</ele><time>2026-03-27T17:08:05.837Z</time></trkpt><trkpt lat="40.4905186" lon="9.7230185"><ele>103.0</ele><time>2026-03-27T17:08:06.836Z</time></trkpt><trkpt lat="40.4904133" lon="9.7231035"><ele>103.0</ele><time>2026-03-27T17:08:07.843Z</time></trkpt><trkpt lat="40.4903083" lon="9.7231869"><ele>103.0</ele><time>2026-03-27T17:08:08.835Z</time></trkpt><trkpt lat="40.4902046" lon="9.7232707"><ele>103.25</ele><time>2026-03-27T17:08:09.843Z</time></trkpt><trkpt lat="40.4901081" lon="9.7233509"><ele>103.5</ele><time>2026-03-27T17:08:10.829Z</time></trkpt><trkpt lat="40.4900128" lon="9.7234327"><ele>103.75</ele><time>2026-03-27T17:08:11.833Z</time></trkpt><trkpt lat="40.4899178" lon="9.7235113"><ele>104.0</ele><time>2026-03-27T17:08:12.834Z</time></trkpt><trkpt lat="40.4898103" lon="9.7235972"><ele>105.4</ele><time>2026-03-27T17:08:13.835Z</time></trkpt><trkpt lat="40.4897062" lon="9.7236765"><ele>106.80000000000001</ele><time>2026-03-27T17:08:14.832Z</time></trkpt><trkpt lat="40.4896029" lon="9.7237467"><ele>108.19999999999999</ele><time>2026-03-27T17:08:15.841Z</time></trkpt><trkpt lat="40.4895069" lon="9.7238048"><ele>109.6</ele><time>2026-03-27T17:08:16.832Z</time></trkpt><trkpt lat="40.4894237" lon="9.7238515"><ele>111.0</ele><time>2026-03-27T17:08:17.835Z</time></trkpt><trkpt lat="40.4893451" lon="9.7238826"><ele>111.19999999999999</ele><time>2026-03-27T17:08:18.836Z</time></trkpt><trkpt lat="40.4892675" lon="9.7238905"><ele>111.39999999999999</ele><time>2026-03-27T17:08:19.836Z</time></trkpt><trkpt lat="40.4891885" lon="9.7238682"><ele>111.6</ele><time>2026-03-27T17:08:20.833Z</time></trkpt><trkpt lat="40.4891097" lon="9.7238102"><ele>111.8</ele><time>2026-03-27T17:08:21.838Z</time></trkpt><trkpt lat="40.4890358" lon="9.7237253"><ele>112.0</ele><time>2026-03-27T17:08:22.831Z</time></trkpt><trkpt lat="40.4889676" lon="9.7236203"><ele>112.39999999999999</ele><time>2026-03-27T17:08:23.833Z</time></trkpt><trkpt lat="40.4888967" lon="9.7235206"><ele>112.79999999999998</ele><time>2026-03-27T17:08:24.833Z</time></trkpt><trkpt lat="40.4888284" lon="9.7234196"><ele>113.2</ele><time>2026-03-27T17:08:25.838Z</time></trkpt><trkpt lat="40.4887189" lon="9.7233638"><ele>113.6</ele><time>2026-03-27T17:08:26.841Z</time></trkpt><trkpt lat="40.488612" lon="9.7233069"><ele>114.0</ele><time>2026-03-27T17:08:27.834Z</time></trkpt><trkpt lat="40.488482" lon="9.7232671"><ele>116.0</ele><time>2026-03-27T17:08:28.839Z</time></trkpt><trkpt lat="40.4883478" lon="9.7232266"><ele>118.0</ele><time>2026-03-27T17:08:29.833Z</time></trkpt><trkpt lat="40.4882156" lon="9.7231909"><ele>120.0</ele><time>2026-03-27T17:08:30.837Z</time></trkpt><trkpt lat="40.4880877" lon="9.7231597"><ele>122.0</ele><time>2026-03-27T17:08:31.833Z</time></trkpt><trkpt lat="40.4879573" lon="9.7230883"><ele>123.25</ele><time>2026-03-27T17:08:32.84Z</time></trkpt><trkpt lat="40.4878455" lon="9.7229981"><ele>124.5</ele><time>2026-03-27T17:08:33.835Z</time></trkpt><trkpt lat="40.487747" lon="9.7229057"><ele>125.75</ele><time>2026-03-27T17:08:34.842Z</time></trkpt><trkpt lat="40.4876592" lon="9.7228264"><ele>127.0</ele><time>2026-03-27T17:08:35.837Z</time></trkpt><trkpt lat="40.4875805" lon="9.7227639"><ele>127.66666666666667</ele><time>2026-03-27T17:08:36.835Z</time></trkpt><trkpt lat="40.4875097" lon="9.7227151"><ele>128.33333333333334</ele><time>2026-03-27T17:08:37.836Z</time></trkpt><trkpt lat="40.4874484" lon="9.7226832"><ele>129.0</ele><time>2026-03-27T17:08:38.841Z</time></trkpt><trkpt lat="40.4873466" lon="9.722665"><ele>129.66666666666666</ele><time>2026-03-27T17:08:40.837Z</time></trkpt><trkpt lat="40.4872699" lon="9.7226837"><ele>130.33333333333331</ele><time>2026-03-27T17:08:42.84Z</time></trkpt><trkpt lat="40.4871497" lon="9.7226968"><ele>131.0</ele><time>2026-03-27T17:08:48.836Z</time></trkpt><trkpt lat="40.4870588" lon="9.7227165"><ele>132.0</ele><time>2026-03-27T17:08:52.849Z</time></trkpt><trkpt lat="40.4869888" lon="9.7227293"><ele>133.0</ele><time>2026-03-27T17:09:24.841Z</time></trkpt><trkpt lat="40.4868239" lon="9.7227371"><ele>134.0</ele><time>2026-03-27T17:09:26.837Z</time></trkpt><trkpt lat="40.4867027" lon="9.7227521"><ele>135.0</ele><time>2026-03-27T17:09:27.836Z</time></trkpt><trkpt lat="40.4865692" lon="9.7227705"><ele>135.0</ele><time>2026-03-27T17:09:28.833Z</time></trkpt><trkpt lat="40.4864356" lon="9.7227774"><ele>135.0</ele><time>2026-03-27T17:09:29.836Z</time></trkpt><trkpt lat="40.4863055" lon="9.7227611"><ele>135.0</ele><time>2026-03-27T17:09:30.843Z</time></trkpt><trkpt lat="40.4861708" lon="9.7227154"><ele>135.0</ele><time>2026-03-27T17:09:31.835Z</time></trkpt><trkpt lat="40.4860417" lon="9.722638"><ele>137.0</ele><time>2026-03-27T17:09:32.834Z</time></trkpt><trkpt lat="40.4859136" lon="9.7225322"><ele>139.0</ele><time>2026-03-27T17:09:33.84Z</time></trkpt><trkpt lat="40.4857797" lon="9.722415"><ele>141.0</ele><time>2026-03-27T17:09:34.832Z</time></trkpt><trkpt lat="40.4856432" lon="9.7222957"><ele>141.0</ele><time>2026-03-27T17:09:35.836Z</time></trkpt><trkpt lat="40.4855019" lon="9.7221761"><ele>141.0</ele><time>2026-03-27T17:09:36.84Z</time></trkpt><trkpt lat="40.4853509" lon="9.7220535"><ele>141.0</ele><time>2026-03-27T17:09:37.83Z</time></trkpt><trkpt lat="40.4851945" lon="9.7219293"><ele>143.33333333333334</ele><time>2026-03-27T17:09:38.842Z</time></trkpt><trkpt lat="40.4850402" lon="9.7218109"><ele>145.66666666666669</ele><time>2026-03-27T17:09:39.827Z</time></trkpt><trkpt lat="40.4848898" lon="9.721695"><ele>148.0</ele><time>2026-03-27T17:09:40.843Z</time></trkpt><trkpt lat="40.484747" lon="9.7215777"><ele>148.0</ele><time>2026-03-27T17:09:41.839Z</time></trkpt><trkpt lat="40.4846096" lon="9.7214601"><ele>148.0</ele><time>2026-03-27T17:09:42.843Z</time></trkpt><trkpt lat="40.484469" lon="9.7213507"><ele>148.0</ele><time>2026-03-27T17:09:43.834Z</time></trkpt><trkpt lat="40.4843228" lon="9.7212487"><ele>149.66666666666669</ele><time>2026-03-27T17:09:44.839Z</time></trkpt><trkpt lat="40.484173" lon="9.7211512"><ele>151.33333333333334</ele><time>2026-03-27T17:09:45.837Z</time></trkpt><trkpt lat="40.48402" lon="9.7210567"><ele>153.0</ele><time>2026-03-27T17:09:46.84Z</time></trkpt><trkpt lat="40.483863" lon="9.7209629"><ele>155.33333333333334</ele><time>2026-03-27T17:09:47.832Z</time></trkpt><trkpt lat="40.4837016" lon="9.7208703"><ele>157.66666666666669</ele><time>2026-03-27T17:09:48.837Z</time></trkpt><trkpt lat="40.4835385" lon="9.72078"><ele>160.0</ele><time>2026-03-27T17:09:49.829Z</time></trkpt><trkpt lat="40.4833768" lon="9.7206919"><ele>160.0</ele><time>2026-03-27T17:09:50.838Z</time></trkpt><trkpt lat="40.4832181" lon="9.7206054"><ele>160.0</ele><time>2026-03-27T17:09:51.833Z</time></trkpt><trkpt lat="40.4830641" lon="9.7205181"><ele>160.0</ele><time>2026-03-27T17:09:52.834Z</time></trkpt><trkpt lat="40.4829131" lon="9.7204327"><ele>162.0</ele><time>2026-03-27T17:09:53.835Z</time></trkpt><trkpt lat="40.4827609" lon="9.7203517"><ele>164.0</ele><time>2026-03-27T17:09:54.838Z</time></trkpt><trkpt lat="40.4826071" lon="9.7202722"><ele>166.0</ele><time>2026-03-27T17:09:55.832Z</time></trkpt><trkpt lat="40.4824507" lon="9.7201948"><ele>166.0</ele><time>2026-03-27T17:09:56.831Z</time></trkpt><trkpt lat="40.4822982" lon="9.7201167"><ele>166.0</ele><time>2026-03-27T17:09:57.837Z</time></trkpt><trkpt lat="40.4821649" lon="9.7200363"><ele>166.0</ele><time>2026-03-27T17:09:58.837Z</time></trkpt><trkpt lat="40.4820495" lon="9.7199417"><ele>166.0</ele><time>2026-03-27T17:09:59.837Z</time></trkpt><trkpt lat="40.4819571" lon="9.7198213"><ele>170.0</ele><time>2026-03-27T17:10:00.849Z</time></trkpt><trkpt lat="40.4818921" lon="9.7196745"><ele>174.0</ele><time>2026-03-27T17:10:01.84Z</time></trkpt><trkpt lat="40.4818487" lon="9.7195015"><ele>178.0</ele><time>2026-03-27T17:10:02.833Z</time></trkpt><trkpt lat="40.4818053" lon="9.7193277"><ele>182.0</ele><time>2026-03-27T17:10:03.837Z</time></trkpt><trkpt lat="40.481775" lon="9.7191184"><ele>182.0</ele><time>2026-03-27T17:10:04.838Z</time></trkpt><trkpt lat="40.4817444" lon="9.7189286"><ele>182.0</ele><time>2026-03-27T17:10:05.835Z</time></trkpt><trkpt lat="40.4817193" lon="9.7187424"><ele>182.0</ele><time>2026-03-27T17:10:06.841Z</time></trkpt><trkpt lat="40.4816878" lon="9.7185676"><ele>182.0</ele><time>2026-03-27T17:10:07.839Z</time></trkpt><trkpt lat="40.4816416" lon="9.7184051"><ele>181.75</ele><time>2026-03-27T17:10:08.835Z</time></trkpt><trkpt lat="40.4815748" lon="9.7182696"><ele>181.5</ele><time>2026-03-27T17:10:09.833Z</time></trkpt><trkpt lat="40.4814894" lon="9.7181526"><ele>181.25</ele><time>2026-03-27T17:10:10.834Z</time></trkpt><trkpt lat="40.4813784" lon="9.7180463"><ele>181.0</ele><time>2026-03-27T17:10:11.836Z</time></trkpt><trkpt lat="40.4812475" lon="9.7179469"><ele>183.66666666666669</ele><time>2026-03-27T17:10:12.837Z</time></trkpt><trkpt lat="40.4810949" lon="9.7178516"><ele>186.33333333333334</ele><time>2026-03-27T17:10:13.841Z</time></trkpt><trkpt lat="40.4809348" lon="9.717752"><ele>189.0</ele><time>2026-03-27T17:10:14.837Z</time></trkpt><trkpt lat="40.4807886" lon="9.7176553"><ele>189.0</ele><time>2026-03-27T17:10:15.841Z</time></trkpt><trkpt lat="40.4806575" lon="9.7175564"><ele>189.0</ele><time>2026-03-27T17:10:16.833Z</time></trkpt><trkpt lat="40.4805405" lon="9.717447"><ele>189.0</ele><time>2026-03-27T17:10:17.833Z</time></trkpt><trkpt lat="40.4804458" lon="9.7173211"><ele>189.0</ele><time>2026-03-27T17:10:18.842Z</time></trkpt><trkpt lat="40.4803752" lon="9.7171851"><ele>195.25</ele><time>2026-03-27T17:10:19.834Z</time></trkpt><trkpt lat="40.4803292" lon="9.7170315"><ele>201.5</ele><time>2026-03-27T17:10:20.843Z</time></trkpt><trkpt lat="40.4803009" lon="9.7168627"><ele>207.75</ele><time>2026-03-27T17:10:21.834Z</time></trkpt><trkpt lat="40.4802716" lon="9.7166835"><ele>214.0</ele><time>2026-03-27T17:10:22.839Z</time></trkpt><trkpt lat="40.4802295" lon="9.7164955"><ele>214.0</ele><time>2026-03-27T17:10:23.837Z</time></trkpt><trkpt lat="40.4801762" lon="9.7162967"><ele>214.0</ele><time>2026-03-27T17:10:24.839Z</time></trkpt><trkpt lat="40.4801139" lon="9.7160884"><ele>214.0</ele><time>2026-03-27T17:10:25.841Z</time></trkpt><trkpt lat="40.480049" lon="9.7158726"><ele>215.33333333333331</ele><time>2026-03-27T17:10:26.843Z</time></trkpt><trkpt lat="40.479986" lon="9.715661"><ele>216.66666666666669</ele><time>2026-03-27T17:10:27.834Z</time></trkpt><trkpt lat="40.4799283" lon="9.7154697"><ele>218.0</ele><time>2026-03-27T17:10:28.837Z</time></trkpt><trkpt lat="40.479875" lon="9.7152965"><ele>216.5</ele><time>2026-03-27T17:10:29.836Z</time></trkpt><trkpt lat="40.479823" lon="9.715132"><ele>215.0</ele><time>2026-03-27T17:10:30.84Z</time></trkpt><trkpt lat="40.4797721" lon="9.7149721"><ele>213.5</ele><time>2026-03-27T17:10:31.847Z</time></trkpt><trkpt lat="40.4797256" lon="9.7148134"><ele>212.0</ele><time>2026-03-27T17:10:32.839Z</time></trkpt><trkpt lat="40.4796801" lon="9.7146581"><ele>212.0</ele><time>2026-03-27T17:10:33.846Z</time></trkpt><trkpt lat="40.4796352" lon="9.7145116"><ele>212.0</ele><time>2026-03-27T17:10:34.841Z</time></trkpt><trkpt lat="40.4795858" lon="9.7143742"><ele>212.0</ele><time>2026-03-27T17:10:35.833Z</time></trkpt><trkpt lat="40.4795251" lon="9.7142519"><ele>212.0</ele><time>2026-03-27T17:10:36.837Z</time></trkpt><trkpt lat="40.4794488" lon="9.7141447"><ele>214.2</ele><time>2026-03-27T17:10:37.833Z</time></trkpt><trkpt lat="40.4793587" lon="9.7140576"><ele>216.39999999999998</ele><time>2026-03-27T17:10:38.833Z</time></trkpt><trkpt lat="40.4792703" lon="9.7139967"><ele>218.60000000000002</ele><time>2026-03-27T17:10:39.837Z</time></trkpt><trkpt lat="40.4791937" lon="9.7139627"><ele>220.8</ele><time>2026-03-27T17:10:40.845Z</time></trkpt><trkpt lat="40.4790814" lon="9.7139425"><ele>223.0</ele><time>2026-03-27T17:10:42.843Z</time></trkpt><trkpt lat="40.479015" lon="9.7139799"><ele>222.99999999999997</ele><time>2026-03-27T17:10:46.839Z</time></trkpt><trkpt lat="40.4789914" lon="9.7140801"><ele>223.0</ele><time>2026-03-27T17:10:51.843Z</time></trkpt><trkpt lat="40.4790456" lon="9.7141907"><ele>223.0</ele><time>2026-03-27T17:10:53.838Z</time></trkpt><trkpt lat="40.4791169" lon="9.7143143"><ele>223.0</ele><time>2026-03-27T17:10:55.84Z</time></trkpt><trkpt lat="40.4791426" lon="9.7144027"><ele>222.99999999999997</ele><time>2026-03-27T17:10:56.837Z</time></trkpt><trkpt lat="40.4791573" lon="9.7145048"><ele>223.0</ele><time>2026-03-27T17:10:57.841Z</time></trkpt><trkpt lat="40.4791722" lon="9.714611"><ele>224.0</ele><time>2026-03-27T17:10:58.845Z</time></trkpt><trkpt lat="40.4791765" lon="9.7147374"><ele>225.0</ele><time>2026-03-27T17:10:59.842Z</time></trkpt><trkpt lat="40.4791871" lon="9.7148799"><ele>226.0</ele><time>2026-03-27T17:11:00.843Z</time></trkpt><trkpt lat="40.4791999" lon="9.7150345"><ele>227.0</ele><time>2026-03-27T17:11:01.836Z</time></trkpt><trkpt lat="40.4792177" lon="9.7151983"><ele>228.0</ele><time>2026-03-27T17:11:02.845Z</time></trkpt><trkpt lat="40.4792322" lon="9.7153444"><ele>229.2</ele><time>2026-03-27T17:11:03.84Z</time></trkpt><trkpt lat="40.4792336" lon="9.715486"><ele>230.4</ele><time>2026-03-27T17:11:04.845Z</time></trkpt><trkpt lat="40.4792206" lon="9.7156069"><ele>231.59999999999997</ele><time>2026-03-27T17:11:05.835Z</time></trkpt><trkpt lat="40.4791929" lon="9.7157136"><ele>232.79999999999998</ele><time>2026-03-27T17:11:06.837Z</time></trkpt><trkpt lat="40.4791394" lon="9.7158218"><ele>234.0</ele><time>2026-03-27T17:11:07.84Z</time></trkpt><trkpt lat="40.4790768" lon="9.7159575"><ele>235.25</ele><time>2026-03-27T17:11:08.854Z</time></trkpt><trkpt lat="40.4790054" lon="9.7161009"><ele>236.5</ele><time>2026-03-27T17:11:09.841Z</time></trkpt><trkpt lat="40.4789382" lon="9.7162404"><ele>237.75</ele><time>2026-03-27T17:11:10.841Z</time></trkpt><trkpt lat="40.4788789" lon="9.7163815"><ele>239.0</ele><time>2026-03-27T17:11:11.843Z</time></trkpt><trkpt lat="40.4788224" lon="9.7165055"><ele>239.0</ele><time>2026-03-27T17:11:12.84Z</time></trkpt><trkpt lat="40.4787943" lon="9.7166244"><ele>238.99999999999997</ele><time>2026-03-27T17:11:13.849Z</time></trkpt><trkpt lat="40.4787854" lon="9.7167335"><ele>238.99999999999997</ele><time>2026-03-27T17:11:14.841Z</time></trkpt><trkpt lat="40.4787801" lon="9.716849"><ele>239.0</ele><time>2026-03-27T17:11:15.839Z</time></trkpt><trkpt lat="40.4787787" lon="9.7169685"><ele>239.0</ele><time>2026-03-27T17:11:16.84Z</time></trkpt><trkpt lat="40.4787866" lon="9.717109"><ele>239.75</ele><time>2026-03-27T17:11:17.848Z</time></trkpt><trkpt lat="40.4787955" lon="9.7172554"><ele>240.5</ele><time>2026-03-27T17:11:18.84Z</time></trkpt><trkpt lat="40.4788118" lon="9.717417"><ele>241.25</ele><time>2026-03-27T17:11:19.841Z</time></trkpt><trkpt lat="40.478838" lon="9.717586"><ele>242.0</ele><time>2026-03-27T17:11:20.84Z</time></trkpt><trkpt lat="40.4788666" lon="9.7177565"><ele>243.0</ele><time>2026-03-27T17:11:21.843Z</time></trkpt><trkpt lat="40.4788885" lon="9.7179054"><ele>244.0</ele><time>2026-03-27T17:11:22.841Z</time></trkpt><trkpt lat="40.478897" lon="9.7180622"><ele>245.0</ele><time>2026-03-27T17:11:23.846Z</time></trkpt><trkpt lat="40.4788843" lon="9.7182207"><ele>246.0</ele><time>2026-03-27T17:11:24.844Z</time></trkpt><trkpt lat="40.4788684" lon="9.7183958"><ele>247.75</ele><time>2026-03-27T17:11:25.854Z</time></trkpt><trkpt lat="40.4788414" lon="9.7185684"><ele>249.5</ele><time>2026-03-27T17:11:26.833Z</time></trkpt><trkpt lat="40.4787996" lon="9.7187311"><ele>251.25</ele><time>2026-03-27T17:11:27.844Z</time></trkpt><trkpt lat="40.4787587" lon="9.7188897"><ele>253.0</ele><time>2026-03-27T17:11:28.836Z</time></trkpt><trkpt lat="40.4787428" lon="9.7190281"><ele>253.0</ele><time>2026-03-27T17:11:29.836Z</time></trkpt><trkpt lat="40.4787514" lon="9.7191668"><ele>253.0</ele><time>2026-03-27T17:11:30.838Z</time></trkpt><trkpt lat="40.4787537" lon="9.7192952"><ele>253.0</ele><time>2026-03-27T17:11:31.844Z</time></trkpt><trkpt lat="40.4787658" lon="9.7194054"><ele>253.0</ele><time>2026-03-27T17:11:32.836Z</time></trkpt><trkpt lat="40.4787662" lon="9.7195141"><ele>253.0</ele><time>2026-03-27T17:11:33.84Z</time></trkpt><trkpt lat="40.4787567" lon="9.7196189"><ele>254.83333333333331</ele><time>2026-03-27T17:11:34.844Z</time></trkpt><trkpt lat="40.4787304" lon="9.7197108"><ele>256.66666666666663</ele><time>2026-03-27T17:11:35.844Z</time></trkpt><trkpt lat="40.47869" lon="9.7198035"><ele>258.5</ele><time>2026-03-27T17:11:36.838Z</time></trkpt><trkpt lat="40.4786492" lon="9.7199053"><ele>260.3333333333333</ele><time>2026-03-27T17:11:37.837Z</time></trkpt><trkpt lat="40.4786139" lon="9.7200067"><ele>262.1666666666667</ele><time>2026-03-27T17:11:38.835Z</time></trkpt><trkpt lat="40.4785953" lon="9.7201135"><ele>264.0</ele><time>2026-03-27T17:11:39.843Z</time></trkpt><trkpt lat="40.4785878" lon="9.7202228"><ele>265.3333333333333</ele><time>2026-03-27T17:11:40.841Z</time></trkpt><trkpt lat="40.4785906" lon="9.7203331"><ele>266.6666666666667</ele><time>2026-03-27T17:11:41.837Z</time></trkpt><trkpt lat="40.4785907" lon="9.7204494"><ele>268.0</ele><time>2026-03-27T17:11:42.843Z</time></trkpt><trkpt lat="40.4785968" lon="9.7205665"><ele>269.33333333333337</ele><time>2026-03-27T17:11:43.839Z</time></trkpt><trkpt lat="40.4786151" lon="9.720682"><ele>270.6666666666667</ele><time>2026-03-27T17:11:44.841Z</time></trkpt><trkpt lat="40.4786458" lon="9.7207934"><ele>272.0</ele><time>2026-03-27T17:11:45.844Z</time></trkpt><trkpt lat="40.4786892" lon="9.7209057"><ele>272.0</ele><time>2026-03-27T17:11:46.839Z</time></trkpt><trkpt lat="40.4787471" lon="9.721014"><ele>272.0</ele><time>2026-03-27T17:11:47.842Z</time></trkpt><trkpt lat="40.478817" lon="9.7211165"><ele>272.0</ele><time>2026-03-27T17:11:48.837Z</time></trkpt><trkpt lat="40.4788855" lon="9.7212184"><ele>272.0</ele><time>2026-03-27T17:11:49.839Z</time></trkpt><trkpt lat="40.478945" lon="9.7213258"><ele>272.0</ele><time>2026-03-27T17:11:50.84Z</time></trkpt><trkpt lat="40.478998" lon="9.7214441"><ele>273.2</ele><time>2026-03-27T17:11:51.834Z</time></trkpt><trkpt lat="40.479048" lon="9.7215694"><ele>274.4</ele><time>2026-03-27T17:11:52.842Z</time></trkpt><trkpt lat="40.4790963" lon="9.7216911"><ele>275.6</ele><time>2026-03-27T17:11:53.834Z</time></trkpt><trkpt lat="40.479139" lon="9.721828"><ele>276.8</ele><time>2026-03-27T17:11:54.851Z</time></trkpt><trkpt lat="40.4791863" lon="9.7219725"><ele>278.0</ele><time>2026-03-27T17:11:55.842Z</time></trkpt><trkpt lat="40.4792334" lon="9.7221211"><ele>278.2</ele><time>2026-03-27T17:11:56.838Z</time></trkpt><trkpt lat="40.4792683" lon="9.7222584"><ele>278.4</ele><time>2026-03-27T17:11:57.844Z</time></trkpt><trkpt lat="40.4792932" lon="9.7223885"><ele>278.59999999999997</ele><time>2026-03-27T17:11:58.834Z</time></trkpt><trkpt lat="40.4793062" lon="9.7225165"><ele>278.8</ele><time>2026-03-27T17:11:59.844Z</time></trkpt><trkpt lat="40.4793196" lon="9.7226396"><ele>279.0</ele><time>2026-03-27T17:12:00.841Z</time></trkpt><trkpt lat="40.4793399" lon="9.7227557"><ele>278.4</ele><time>2026-03-27T17:12:01.842Z</time></trkpt><trkpt lat="40.4793696" lon="9.7228669"><ele>277.79999999999995</ele><time>2026-03-27T17:12:02.839Z</time></trkpt><trkpt lat="40.4794149" lon="9.7229534"><ele>277.20000000000005</ele><time>2026-03-27T17:12:03.845Z</time></trkpt><trkpt lat="40.4794671" lon="9.7230572"><ele>276.6</ele><time>2026-03-27T17:12:04.841Z</time></trkpt><trkpt lat="40.4795252" lon="9.7231692"><ele>276.0</ele><time>2026-03-27T17:12:05.84Z</time></trkpt><trkpt lat="40.4795893" lon="9.7232816"><ele>275.6</ele><time>2026-03-27T17:12:06.847Z</time></trkpt><trkpt lat="40.4796629" lon="9.7233966"><ele>275.20000000000005</ele><time>2026-03-27T17:12:07.84Z</time></trkpt><trkpt lat="40.4797309" lon="9.7235155"><ele>274.79999999999995</ele><time>2026-03-27T17:12:08.846Z</time></trkpt><trkpt lat="40.4797878" lon="9.7236328"><ele>274.4</ele><time>2026-03-27T17:12:09.839Z</time></trkpt><trkpt lat="40.4798361" lon="9.7237532"><ele>274.0</ele><time>2026-03-27T17:12:10.84Z</time></trkpt><trkpt lat="40.4798768" lon="9.7238829"><ele>274.0</ele><time>2026-03-27T17:12:11.84Z</time></trkpt><trkpt lat="40.4799241" lon="9.724006"><ele>274.0</ele><time>2026-03-27T17:12:12.843Z</time></trkpt><trkpt lat="40.4799819" lon="9.7241055"><ele>274.0</ele><time>2026-03-27T17:12:13.841Z</time></trkpt><trkpt lat="40.4800456" lon="9.7241887"><ele>274.0</ele><time>2026-03-27T17:12:14.838Z</time></trkpt><trkpt lat="40.4801165" lon="9.7242617"><ele>274.0</ele><time>2026-03-27T17:12:15.845Z</time></trkpt><trkpt lat="40.4801811" lon="9.7243349"><ele>273.59999999999997</ele><time>2026-03-27T17:12:16.843Z</time></trkpt><trkpt lat="40.4802308" lon="9.7244164"><ele>273.2</ele><time>2026-03-27T17:12:17.84Z</time></trkpt><trkpt lat="40.4802762" lon="9.7245067"><ele>272.79999999999995</ele><time>2026-03-27T17:12:18.85Z</time></trkpt><trkpt lat="40.480309" lon="9.7246418"><ele>272.4</ele><time>2026-03-27T17:12:19.841Z</time></trkpt><trkpt lat="40.4803251" lon="9.7247702"><ele>272.0</ele><time>2026-03-27T17:12:20.837Z</time></trkpt><trkpt lat="40.4803301" lon="9.724883"><ele>272.0</ele><time>2026-03-27T17:12:21.837Z</time></trkpt><trkpt lat="40.4803175" lon="9.7249991"><ele>272.0</ele><time>2026-03-27T17:12:22.842Z</time></trkpt><trkpt lat="40.4802957" lon="9.7251246"><ele>272.0</ele><time>2026-03-27T17:12:23.842Z</time></trkpt><trkpt lat="40.4802406" lon="9.7252585"><ele>272.0</ele><time>2026-03-27T17:12:24.844Z</time></trkpt><trkpt lat="40.4801856" lon="9.7253992"><ele>272.0</ele><time>2026-03-27T17:12:25.843Z</time></trkpt><trkpt lat="40.4801436" lon="9.7255214"><ele>271.8</ele><time>2026-03-27T17:12:26.844Z</time></trkpt><trkpt lat="40.4801203" lon="9.7256182"><ele>271.6</ele><time>2026-03-27T17:12:27.841Z</time></trkpt><trkpt lat="40.4801106" lon="9.7257273"><ele>271.40000000000003</ele><time>2026-03-27T17:12:28.842Z</time></trkpt><trkpt lat="40.4801096" lon="9.7258461"><ele>271.2</ele><time>2026-03-27T17:12:29.838Z</time></trkpt><trkpt lat="40.4801128" lon="9.725988"><ele>271.0</ele><time>2026-03-27T17:12:30.84Z</time></trkpt><trkpt lat="40.4801149" lon="9.7261342"><ele>272.5</ele><time>2026-03-27T17:12:31.839Z</time></trkpt><trkpt lat="40.4801078" lon="9.7262832"><ele>274.0</ele><time>2026-03-27T17:12:32.836Z</time></trkpt><trkpt lat="40.4801035" lon="9.726433"><ele>275.5</ele><time>2026-03-27T17:12:33.846Z</time></trkpt><trkpt lat="40.4800777" lon="9.7265815"><ele>277.0</ele><time>2026-03-27T17:12:34.835Z</time></trkpt><trkpt lat="40.4800496" lon="9.7267337"><ele>277.0</ele><time>2026-03-27T17:12:35.841Z</time></trkpt><trkpt lat="40.4800278" lon="9.7268793"><ele>277.0</ele><time>2026-03-27T17:12:36.837Z</time></trkpt><trkpt lat="40.4800128" lon="9.7269941"><ele>277.0</ele><time>2026-03-27T17:12:37.837Z</time></trkpt><trkpt lat="40.4799843" lon="9.727086"><ele>277.0</ele><time>2026-03-27T17:12:38.833Z</time></trkpt><trkpt lat="40.4799578" lon="9.7271676"><ele>277.0</ele><time>2026-03-27T17:12:39.839Z</time></trkpt><trkpt lat="40.4798925" lon="9.7272069"><ele>277.0</ele><time>2026-03-27T17:12:40.838Z</time></trkpt><trkpt lat="40.4798119" lon="9.7272369"><ele>279.0</ele><time>2026-03-27T17:12:41.837Z</time></trkpt><trkpt lat="40.4797196" lon="9.727266"><ele>281.0</ele><time>2026-03-27T17:12:42.834Z</time></trkpt><trkpt lat="40.4796185" lon="9.7273073"><ele>283.0</ele><time>2026-03-27T17:12:43.838Z</time></trkpt><trkpt lat="40.4795229" lon="9.7273618"><ele>285.0</ele><time>2026-03-27T17:12:44.835Z</time></trkpt><trkpt lat="40.4794355" lon="9.7274332"><ele>287.0</ele><time>2026-03-27T17:12:45.838Z</time></trkpt><trkpt lat="40.4793579" lon="9.7275176"><ele>287.0</ele><time>2026-03-27T17:12:46.832Z</time></trkpt><trkpt lat="40.4792905" lon="9.7276035"><ele>287.0</ele><time>2026-03-27T17:12:47.842Z</time></trkpt><trkpt lat="40.4792395" lon="9.7276847"><ele>287.0</ele><time>2026-03-27T17:12:48.833Z</time></trkpt><trkpt lat="40.4792065" lon="9.7277632"><ele>287.0</ele><time>2026-03-27T17:12:49.842Z</time></trkpt><trkpt lat="40.4791891" lon="9.727924"><ele>287.0</ele><time>2026-03-27T17:12:51.838Z</time></trkpt><trkpt lat="40.4791818" lon="9.7280301"><ele>287.0</ele><time>2026-03-27T17:12:52.84Z</time></trkpt><trkpt lat="40.479174" lon="9.7281437"><ele>289.4</ele><time>2026-03-27T17:12:53.841Z</time></trkpt><trkpt lat="40.4791581" lon="9.7282786"><ele>291.79999999999995</ele><time>2026-03-27T17:12:54.841Z</time></trkpt><trkpt lat="40.4791438" lon="9.7284082"><ele>294.2</ele><time>2026-03-27T17:12:55.834Z</time></trkpt><trkpt lat="40.4791271" lon="9.7285255"><ele>296.59999999999997</ele><time>2026-03-27T17:12:56.833Z</time></trkpt><trkpt lat="40.4791051" lon="9.7286219"><ele>299.0</ele><time>2026-03-27T17:12:57.833Z</time></trkpt><trkpt lat="40.4790278" lon="9.7287392"><ele>302.0</ele><time>2026-03-27T17:12:59.838Z</time></trkpt><trkpt lat="40.4789648" lon="9.7287783"><ele>305.0</ele><time>2026-03-27T17:13:00.838Z</time></trkpt><trkpt lat="40.4788857" lon="9.7288047"><ele>308.0</ele><time>2026-03-27T17:13:01.835Z</time></trkpt><trkpt lat="40.4787948" lon="9.7288339"><ele>311.0</ele><time>2026-03-27T17:13:02.836Z</time></trkpt><trkpt lat="40.478687" lon="9.7288577"><ele>314.0</ele><time>2026-03-27T17:13:03.837Z</time></trkpt><trkpt lat="40.4785816" lon="9.7288868"><ele>314.2</ele><time>2026-03-27T17:13:04.838Z</time></trkpt><trkpt lat="40.4784874" lon="9.7289114"><ele>314.4</ele><time>2026-03-27T17:13:05.839Z</time></trkpt><trkpt lat="40.4783953" lon="9.7289303"><ele>314.6</ele><time>2026-03-27T17:13:06.836Z</time></trkpt><trkpt lat="40.4783137" lon="9.7289387"><ele>314.8</ele><time>2026-03-27T17:13:07.839Z</time></trkpt><trkpt lat="40.4782447" lon="9.7289311"><ele>315.0</ele><time>2026-03-27T17:13:08.836Z</time></trkpt><trkpt lat="40.4781318" lon="9.728862"><ele>315.0</ele><time>2026-03-27T17:13:10.838Z</time></trkpt><trkpt lat="40.4780661" lon="9.7288002"><ele>315.0</ele><time>2026-03-27T17:13:11.836Z</time></trkpt><trkpt lat="40.4779837" lon="9.7287544"><ele>315.0</ele><time>2026-03-27T17:13:12.841Z</time></trkpt><trkpt lat="40.4779026" lon="9.7287085"><ele>315.0</ele><time>2026-03-27T17:13:13.833Z</time></trkpt><trkpt lat="40.4778209" lon="9.7286927"><ele>315.0</ele><time>2026-03-27T17:13:14.835Z</time></trkpt><trkpt lat="40.477739" lon="9.7286933"><ele>315.0</ele><time>2026-03-27T17:13:15.833Z</time></trkpt><trkpt lat="40.4776567" lon="9.7287154"><ele>315.1666666666667</ele><time>2026-03-27T17:13:16.834Z</time></trkpt><trkpt lat="40.4775801" lon="9.7287533"><ele>315.3333333333333</ele><time>2026-03-27T17:13:17.833Z</time></trkpt><trkpt lat="40.4775091" lon="9.7288013"><ele>315.5</ele><time>2026-03-27T17:13:18.842Z</time></trkpt><trkpt lat="40.477444" lon="9.7288498"><ele>315.66666666666663</ele><time>2026-03-27T17:13:19.845Z</time></trkpt><trkpt lat="40.4773848" lon="9.7289264"><ele>315.8333333333333</ele><time>2026-03-27T17:13:20.837Z</time></trkpt><trkpt lat="40.4773129" lon="9.7290095"><ele>316.0</ele><time>2026-03-27T17:13:21.843Z</time></trkpt><trkpt lat="40.4772324" lon="9.7290902"><ele>316.0</ele><time>2026-03-27T17:13:22.846Z</time></trkpt><trkpt lat="40.4771585" lon="9.7291658"><ele>316.0</ele><time>2026-03-27T17:13:23.846Z</time></trkpt><trkpt lat="40.4770934" lon="9.7292485"><ele>316.0</ele><time>2026-03-27T17:13:24.837Z</time></trkpt><trkpt lat="40.4770402" lon="9.729343"><ele>316.0</ele><time>2026-03-27T17:13:25.834Z</time></trkpt><trkpt lat="40.4770002" lon="9.7294491"><ele>316.0</ele><time>2026-03-27T17:13:26.841Z</time></trkpt><trkpt lat="40.4769702" lon="9.7295661"><ele>315.2</ele><time>2026-03-27T17:13:27.833Z</time></trkpt><trkpt lat="40.4769399" lon="9.7296985"><ele>314.40000000000003</ele><time>2026-03-27T17:13:28.84Z</time></trkpt><trkpt lat="40.4769039" lon="9.729835"><ele>313.6</ele><time>2026-03-27T17:13:29.839Z</time></trkpt><trkpt lat="40.4768727" lon="9.7299606"><ele>312.8</ele><time>2026-03-27T17:13:30.837Z</time></trkpt><trkpt lat="40.4768436" lon="9.7300815"><ele>312.0</ele><time>2026-03-27T17:13:31.842Z</time></trkpt><trkpt lat="40.4768398" lon="9.7302061"><ele>312.0</ele><time>2026-03-27T17:13:32.834Z</time></trkpt><trkpt lat="40.4768439" lon="9.7303427"><ele>312.0</ele><time>2026-03-27T17:13:33.843Z</time></trkpt><trkpt lat="40.4768498" lon="9.7304861"><ele>312.0</ele><time>2026-03-27T17:13:34.838Z</time></trkpt><trkpt lat="40.4768636" lon="9.7306161"><ele>312.0</ele><time>2026-03-27T17:13:35.844Z</time></trkpt><trkpt lat="40.4768915" lon="9.7307333"><ele>312.0</ele><time>2026-03-27T17:13:36.835Z</time></trkpt><trkpt lat="40.4769211" lon="9.7308463"><ele>312.0</ele><time>2026-03-27T17:13:37.841Z</time></trkpt><trkpt lat="40.4769469" lon="9.7309549"><ele>312.0</ele><time>2026-03-27T17:13:38.837Z</time></trkpt><trkpt lat="40.4769738" lon="9.7310565"><ele>312.0</ele><time>2026-03-27T17:13:39.842Z</time></trkpt><trkpt lat="40.4769987" lon="9.7311508"><ele>312.0</ele><time>2026-03-27T17:13:40.837Z</time></trkpt><trkpt lat="40.4770211" lon="9.7312361"><ele>312.0</ele><time>2026-03-27T17:13:41.838Z</time></trkpt><trkpt lat="40.4770625" lon="9.7313929"><ele>312.0</ele><time>2026-03-27T17:13:43.835Z</time></trkpt><trkpt lat="40.4770865" lon="9.73148"><ele>312.14285714285717</ele><time>2026-03-27T17:13:44.838Z</time></trkpt><trkpt lat="40.4771122" lon="9.7315669"><ele>312.2857142857143</ele><time>2026-03-27T17:13:45.837Z</time></trkpt><trkpt lat="40.4771379" lon="9.7316543"><ele>312.42857142857144</ele><time>2026-03-27T17:13:46.833Z</time></trkpt><trkpt lat="40.4771719" lon="9.7317288"><ele>312.57142857142856</ele><time>2026-03-27T17:13:47.836Z</time></trkpt><trkpt lat="40.4772207" lon="9.7317823"><ele>312.7142857142857</ele><time>2026-03-27T17:13:48.837Z</time></trkpt><trkpt lat="40.4772901" lon="9.7318188"><ele>312.85714285714283</ele><time>2026-03-27T17:13:49.837Z</time></trkpt><trkpt lat="40.4773589" lon="9.7318552"><ele>313.0</ele><time>2026-03-27T17:13:50.843Z</time></trkpt><trkpt lat="40.4774082" lon="9.7319227"><ele>313.0</ele><time>2026-03-27T17:13:51.839Z</time></trkpt><trkpt lat="40.4774298" lon="9.7320021"><ele>313.0</ele><time>2026-03-27T17:13:52.84Z</time></trkpt><trkpt lat="40.4774453" lon="9.7321048"><ele>313.0</ele><time>2026-03-27T17:13:53.841Z</time></trkpt><trkpt lat="40.4774603" lon="9.7322251"><ele>313.0</ele><time>2026-03-27T17:13:54.837Z</time></trkpt><trkpt lat="40.4774747" lon="9.7323385"><ele>313.0</ele><time>2026-03-27T17:13:55.848Z</time></trkpt><trkpt lat="40.4774908" lon="9.7324469"><ele>313.0</ele><time>2026-03-27T17:13:56.84Z</time></trkpt><trkpt lat="40.4775107" lon="9.732544"><ele>313.0</ele><time>2026-03-27T17:13:57.838Z</time></trkpt><trkpt lat="40.477542" lon="9.7326323"><ele>313.0</ele><time>2026-03-27T17:13:58.836Z</time></trkpt><trkpt lat="40.4775778" lon="9.7327279"><ele>313.0</ele><time>2026-03-27T17:13:59.843Z</time></trkpt><trkpt lat="40.4776391" lon="9.7328101"><ele>313.0</ele><time>2026-03-27T17:14:00.836Z</time></trkpt><trkpt lat="40.4776971" lon="9.7328907"><ele>313.0</ele><time>2026-03-27T17:14:01.841Z</time></trkpt><trkpt lat="40.4777447" lon="9.7329647"><ele>313.0</ele><time>2026-03-27T17:14:02.842Z</time></trkpt><trkpt lat="40.4778058" lon="9.7330921"><ele>311.8333333333333</ele><time>2026-03-27T17:14:04.833Z</time></trkpt><trkpt lat="40.4778198" lon="9.73319"><ele>310.66666666666663</ele><time>2026-03-27T17:14:06.84Z</time></trkpt><trkpt lat="40.4778041" lon="9.7332769"><ele>309.5</ele><time>2026-03-27T17:14:08.844Z</time></trkpt><trkpt lat="40.4777844" lon="9.7333653"><ele>308.3333333333333</ele><time>2026-03-27T17:14:10.844Z</time></trkpt><trkpt lat="40.4777418" lon="9.7334764"><ele>307.1666666666667</ele><time>2026-03-27T17:14:12.861Z</time></trkpt><trkpt lat="40.4776721" lon="9.7336335"><ele>306.0</ele><time>2026-03-27T17:14:14.834Z</time></trkpt><trkpt lat="40.4776237" lon="9.733738"><ele>306.0</ele><time>2026-03-27T17:14:15.841Z</time></trkpt><trkpt lat="40.477565" lon="9.7338574"><ele>306.0</ele><time>2026-03-27T17:14:16.839Z</time></trkpt><trkpt lat="40.4775009" lon="9.7339654"><ele>306.0</ele><time>2026-03-27T17:14:17.844Z</time></trkpt><trkpt lat="40.4774323" lon="9.7340685"><ele>306.0</ele><time>2026-03-27T17:14:18.833Z</time></trkpt><trkpt lat="40.4773668" lon="9.7341674"><ele>306.0</ele><time>2026-03-27T17:14:19.838Z</time></trkpt><trkpt lat="40.4773048" lon="9.7342656"><ele>306.0</ele><time>2026-03-27T17:14:20.838Z</time></trkpt><trkpt lat="40.477235" lon="9.7343644"><ele>306.0</ele><time>2026-03-27T17:14:21.837Z</time></trkpt><trkpt lat="40.4771491" lon="9.7344721"><ele>306.0</ele><time>2026-03-27T17:14:22.843Z</time></trkpt><trkpt lat="40.4770548" lon="9.7345925"><ele>306.0</ele><time>2026-03-27T17:14:23.835Z</time></trkpt><trkpt lat="40.476972" lon="9.7347103"><ele>306.6</ele><time>2026-03-27T17:14:24.879Z</time></trkpt><trkpt lat="40.4768953" lon="9.7348198"><ele>307.20000000000005</ele><time>2026-03-27T17:14:25.837Z</time></trkpt><trkpt lat="40.4768263" lon="9.7349302"><ele>307.79999999999995</ele><time>2026-03-27T17:14:26.845Z</time></trkpt><trkpt lat="40.4767619" lon="9.7350254"><ele>308.4</ele><time>2026-03-27T17:14:27.845Z</time></trkpt><trkpt lat="40.476703" lon="9.7351175"><ele>309.0</ele><time>2026-03-27T17:14:28.831Z</time></trkpt><trkpt lat="40.4766454" lon="9.7351935"><ele>308.3333333333333</ele><time>2026-03-27T17:14:29.841Z</time></trkpt><trkpt lat="40.4765752" lon="9.7352603"><ele>307.6666666666667</ele><time>2026-03-27T17:14:30.839Z</time></trkpt><trkpt lat="40.4764916" lon="9.7353135"><ele>307.0</ele><time>2026-03-27T17:14:31.837Z</time></trkpt><trkpt lat="40.4764204" lon="9.7353471"><ele>306.33333333333337</ele><time>2026-03-27T17:14:32.837Z</time></trkpt><trkpt lat="40.47631" lon="9.7353635"><ele>305.6666666666667</ele><time>2026-03-27T17:14:34.835Z</time></trkpt><trkpt lat="40.4762363" lon="9.7353625"><ele>305.0</ele><time>2026-03-27T17:14:36.844Z</time></trkpt><trkpt lat="40.4761562" lon="9.7353603"><ele>305.0</ele><time>2026-03-27T17:15:23.839Z</time></trkpt><trkpt lat="40.4760848" lon="9.7353875"><ele>305.0</ele><time>2026-03-27T17:15:25.84Z</time></trkpt><trkpt lat="40.4759917" lon="9.73543"><ele>305.0</ele><time>2026-03-27T17:15:27.849Z</time></trkpt><trkpt lat="40.4759037" lon="9.7354529"><ele>305.0</ele><time>2026-03-27T17:15:29.838Z</time></trkpt><trkpt lat="40.475835" lon="9.735478"><ele>305.0</ele><time>2026-03-27T17:15:32.845Z</time></trkpt><trkpt lat="40.4757621" lon="9.7354779"><ele>305.0</ele><time>2026-03-27T17:15:35.847Z</time></trkpt><trkpt lat="40.4756908" lon="9.7354698"><ele>305.0</ele><time>2026-03-27T17:15:38.845Z</time></trkpt><trkpt lat="40.475613" lon="9.735461"><ele>305.0</ele><time>2026-03-27T17:15:41.844Z</time></trkpt><trkpt lat="40.4755356" lon="9.7354433"><ele>305.0</ele><time>2026-03-27T17:15:44.842Z</time></trkpt><trkpt lat="40.4754541" lon="9.7354264"><ele>305.0</ele><time>2026-03-27T17:15:47.838Z</time></trkpt><trkpt lat="40.4753766" lon="9.7354291"><ele>305.0</ele><time>2026-03-27T17:15:50.844Z</time></trkpt><trkpt lat="40.4753081" lon="9.7354434"><ele>305.0</ele><time>2026-03-27T17:15:53.835Z</time></trkpt><trkpt lat="40.475238" lon="9.7354569"><ele>304.5</ele><time>2026-03-27T17:15:56.837Z</time></trkpt><trkpt lat="40.4751601" lon="9.7354587"><ele>304.0</ele><time>2026-03-27T17:15:59.841Z</time></trkpt><trkpt lat="40.4750774" lon="9.7354574"><ele>303.5</ele><time>2026-03-27T17:16:02.837Z</time></trkpt><trkpt lat="40.4749886" lon="9.735454"><ele>303.0</ele><time>2026-03-27T17:16:05.838Z</time></trkpt><trkpt lat="40.4748988" lon="9.7354668"><ele>302.5</ele><time>2026-03-27T17:16:08.839Z</time></trkpt><trkpt lat="40.4748098" lon="9.7354823"><ele>302.0</ele><time>2026-03-27T17:16:10.847Z</time></trkpt><trkpt lat="40.4746779" lon="9.7354995"><ele>301.8</ele><time>2026-03-27T17:16:12.838Z</time></trkpt><trkpt lat="40.4745901" lon="9.7355088"><ele>301.6</ele><time>2026-03-27T17:16:13.841Z</time></trkpt><trkpt lat="40.4744989" lon="9.7355114"><ele>301.40000000000003</ele><time>2026-03-27T17:16:14.84Z</time></trkpt><trkpt lat="40.4744054" lon="9.7355112"><ele>301.2</ele><time>2026-03-27T17:16:15.844Z</time></trkpt><trkpt lat="40.4743163" lon="9.7355108"><ele>301.0</ele><time>2026-03-27T17:16:16.835Z</time></trkpt><trkpt lat="40.4742108" lon="9.7355126"><ele>301.0</ele><time>2026-03-27T17:16:17.84Z</time></trkpt><trkpt lat="40.4741024" lon="9.7355108"><ele>301.0</ele><time>2026-03-27T17:16:18.841Z</time></trkpt><trkpt lat="40.474003" lon="9.7355106"><ele>301.0</ele><time>2026-03-27T17:16:19.84Z</time></trkpt><trkpt lat="40.4738924" lon="9.7355011"><ele>301.0</ele><time>2026-03-27T17:16:20.838Z</time></trkpt><trkpt lat="40.4737875" lon="9.7354916"><ele>301.0</ele><time>2026-03-27T17:16:21.851Z</time></trkpt><trkpt lat="40.4736885" lon="9.7354897"><ele>300.40000000000003</ele><time>2026-03-27T17:16:22.84Z</time></trkpt><trkpt lat="40.4736027" lon="9.7355086"><ele>299.8</ele><time>2026-03-27T17:16:23.838Z</time></trkpt><trkpt lat="40.473522" lon="9.735556"><ele>299.20000000000005</ele><time>2026-03-27T17:16:24.837Z</time></trkpt><trkpt lat="40.4734314" lon="9.7356269"><ele>298.6</ele><time>2026-03-27T17:16:25.841Z</time></trkpt><trkpt lat="40.4733351" lon="9.7357195"><ele>298.0</ele><time>2026-03-27T17:16:26.839Z</time></trkpt><trkpt lat="40.4732363" lon="9.7358252"><ele>298.0</ele><time>2026-03-27T17:16:27.838Z</time></trkpt><trkpt lat="40.4731432" lon="9.7359256"><ele>298.0</ele><time>2026-03-27T17:16:28.836Z</time></trkpt><trkpt lat="40.4730504" lon="9.7360117"><ele>298.0</ele><time>2026-03-27T17:16:29.839Z</time></trkpt><trkpt lat="40.4729545" lon="9.7360851"><ele>298.0</ele><time>2026-03-27T17:16:30.84Z</time></trkpt><trkpt lat="40.4728643" lon="9.7361552"><ele>295.25</ele><time>2026-03-27T17:16:31.84Z</time></trkpt><trkpt lat="40.4727477" lon="9.7362085"><ele>292.5</ele><time>2026-03-27T17:16:32.838Z</time></trkpt><trkpt lat="40.4726275" lon="9.7362611"><ele>289.75</ele><time>2026-03-27T17:16:33.84Z</time></trkpt><trkpt lat="40.472508" lon="9.7363188"><ele>287.0</ele><time>2026-03-27T17:16:34.838Z</time></trkpt><trkpt lat="40.4723952" lon="9.7363793"><ele>287.0</ele><time>2026-03-27T17:16:35.842Z</time></trkpt><trkpt lat="40.4723019" lon="9.736432"><ele>287.0</ele><time>2026-03-27T17:16:36.84Z</time></trkpt><trkpt lat="40.4722281" lon="9.7364724"><ele>287.0</ele><time>2026-03-27T17:16:37.837Z</time></trkpt><trkpt lat="40.4721457" lon="9.7365255"><ele>287.0</ele><time>2026-03-27T17:16:39.837Z</time></trkpt><trkpt lat="40.4720703" lon="9.7365494"><ele>287.0</ele><time>2026-03-27T17:16:50.836Z</time></trkpt><trkpt lat="40.4720059" lon="9.7365415"><ele>287.0</ele><time>2026-03-27T17:16:52.841Z</time></trkpt><trkpt lat="40.4719201" lon="9.7364976"><ele>286.8</ele><time>2026-03-27T17:16:55.841Z</time></trkpt><trkpt lat="40.4718481" lon="9.736461"><ele>286.6</ele><time>2026-03-27T17:16:57.833Z</time></trkpt><trkpt lat="40.4717319" lon="9.7363915"><ele>286.40000000000003</ele><time>2026-03-27T17:16:59.831Z</time></trkpt><trkpt lat="40.4716516" lon="9.7363417"><ele>286.2</ele><time>2026-03-27T17:17:00.84Z</time></trkpt><trkpt lat="40.4715612" lon="9.7362857"><ele>286.0</ele><time>2026-03-27T17:17:01.833Z</time></trkpt><trkpt lat="40.4714563" lon="9.7362169"><ele>286.0</ele><time>2026-03-27T17:17:02.838Z</time></trkpt><trkpt lat="40.4713406" lon="9.736138"><ele>286.0</ele><time>2026-03-27T17:17:03.841Z</time></trkpt><trkpt lat="40.4712104" lon="9.7360498"><ele>286.0</ele><time>2026-03-27T17:17:04.829Z</time></trkpt><trkpt lat="40.4710635" lon="9.7359517"><ele>286.0</ele><time>2026-03-27T17:17:05.838Z</time></trkpt><trkpt lat="40.4709164" lon="9.7358538"><ele>287.5</ele><time>2026-03-27T17:17:06.833Z</time></trkpt><trkpt lat="40.4707745" lon="9.7357631"><ele>289.0</ele><time>2026-03-27T17:17:07.832Z</time></trkpt><trkpt lat="40.470645" lon="9.7356799"><ele>290.5</ele><time>2026-03-27T17:17:08.835Z</time></trkpt><trkpt lat="40.4705282" lon="9.7356168"><ele>292.0</ele><time>2026-03-27T17:17:09.838Z</time></trkpt><trkpt lat="40.4704117" lon="9.7355647"><ele>292.0</ele><time>2026-03-27T17:17:10.833Z</time></trkpt><trkpt lat="40.4703039" lon="9.7355029"><ele>292.0</ele><time>2026-03-27T17:17:11.841Z</time></trkpt><trkpt lat="40.470202" lon="9.735449"><ele>292.0</ele><time>2026-03-27T17:17:12.84Z</time></trkpt><trkpt lat="40.4701084" lon="9.7353956"><ele>292.0</ele><time>2026-03-27T17:17:13.836Z</time></trkpt><trkpt lat="40.4700221" lon="9.735324"><ele>292.0</ele><time>2026-03-27T17:17:14.834Z</time></trkpt><trkpt lat="40.4699342" lon="9.7352577"><ele>293.5</ele><time>2026-03-27T17:17:15.834Z</time></trkpt><trkpt lat="40.4698456" lon="9.7352163"><ele>295.0</ele><time>2026-03-27T17:17:16.837Z</time></trkpt><trkpt lat="40.4697518" lon="9.7351906"><ele>296.5</ele><time>2026-03-27T17:17:17.837Z</time></trkpt><trkpt lat="40.4696531" lon="9.7351761"><ele>298.0</ele><time>2026-03-27T17:17:18.835Z</time></trkpt><trkpt lat="40.469584" lon="9.7351618"><ele>299.5</ele><time>2026-03-27T17:17:19.841Z</time></trkpt><trkpt lat="40.469525" lon="9.7351137"><ele>301.0</ele><time>2026-03-27T17:17:21.836Z</time></trkpt><trkpt lat="40.4694941" lon="9.7349542"><ele>301.0</ele><time>2026-03-27T17:17:23.844Z</time></trkpt><trkpt lat="40.4694842" lon="9.7348253"><ele>301.0</ele><time>2026-03-27T17:17:24.845Z</time></trkpt><trkpt lat="40.4694751" lon="9.734674"><ele>301.0</ele><time>2026-03-27T17:17:25.834Z</time></trkpt><trkpt lat="40.4694664" lon="9.734526"><ele>301.0</ele><time>2026-03-27T17:17:26.84Z</time></trkpt><trkpt lat="40.4694474" lon="9.7343903"><ele>301.0</ele><time>2026-03-27T17:17:27.836Z</time></trkpt><trkpt lat="40.4694445" lon="9.7342409"><ele>303.6</ele><time>2026-03-27T17:17:28.839Z</time></trkpt><trkpt lat="40.4694611" lon="9.7341289"><ele>306.20000000000005</ele><time>2026-03-27T17:17:29.836Z</time></trkpt><trkpt lat="40.4694674" lon="9.7340403"><ele>308.79999999999995</ele><time>2026-03-27T17:17:30.841Z</time></trkpt><trkpt lat="40.4694598" lon="9.7339207"><ele>311.4</ele><time>2026-03-27T17:17:32.839Z</time></trkpt><trkpt lat="40.4694248" lon="9.7338183"><ele>314.0</ele><time>2026-03-27T17:17:34.842Z</time></trkpt><trkpt lat="40.4693303" lon="9.7337018"><ele>314.0</ele><time>2026-03-27T17:17:36.862Z</time></trkpt><trkpt lat="40.4692639" lon="9.7336433"><ele>314.0</ele><time>2026-03-27T17:17:37.834Z</time></trkpt><trkpt lat="40.4691883" lon="9.7335806"><ele>314.0</ele><time>2026-03-27T17:17:38.837Z</time></trkpt><trkpt lat="40.4690913" lon="9.733514"><ele>314.0</ele><time>2026-03-27T17:17:39.84Z</time></trkpt><trkpt lat="40.4689643" lon="9.7334704"><ele>314.0</ele><time>2026-03-27T17:17:40.838Z</time></trkpt><trkpt lat="40.4688582" lon="9.7334068"><ele>318.0</ele><time>2026-03-27T17:17:41.831Z</time></trkpt><trkpt lat="40.4687447" lon="9.7333354"><ele>322.0</ele><time>2026-03-27T17:17:42.833Z</time></trkpt><trkpt lat="40.4686349" lon="9.7332716"><ele>326.0</ele><time>2026-03-27T17:17:43.833Z</time></trkpt><trkpt lat="40.4685325" lon="9.733192"><ele>330.0</ele><time>2026-03-27T17:17:44.834Z</time></trkpt><trkpt lat="40.4684319" lon="9.7331182"><ele>330.0</ele><time>2026-03-27T17:17:45.842Z</time></trkpt><trkpt lat="40.4683398" lon="9.7330536"><ele>330.0</ele><time>2026-03-27T17:17:46.845Z</time></trkpt><trkpt lat="40.4682543" lon="9.7329894"><ele>330.0</ele><time>2026-03-27T17:17:47.84Z</time></trkpt><trkpt lat="40.468165" lon="9.7329365"><ele>330.0</ele><time>2026-03-27T17:17:48.845Z</time></trkpt><trkpt lat="40.4680725" lon="9.7328932"><ele>330.0</ele><time>2026-03-27T17:17:49.845Z</time></trkpt><trkpt lat="40.4679927" lon="9.7328467"><ele>330.1666666666667</ele><time>2026-03-27T17:17:50.848Z</time></trkpt><trkpt lat="40.4679098" lon="9.7328091"><ele>330.3333333333333</ele><time>2026-03-27T17:17:51.841Z</time></trkpt><trkpt lat="40.4678227" lon="9.732767"><ele>330.5</ele><time>2026-03-27T17:17:52.837Z</time></trkpt><trkpt lat="40.4677348" lon="9.7327333"><ele>330.66666666666663</ele><time>2026-03-27T17:17:53.835Z</time></trkpt><trkpt lat="40.4676506" lon="9.7327235"><ele>330.8333333333333</ele><time>2026-03-27T17:17:54.833Z</time></trkpt><trkpt lat="40.4675817" lon="9.7327381"><ele>331.0</ele><time>2026-03-27T17:17:55.834Z</time></trkpt><trkpt lat="40.4675102" lon="9.7327543"><ele>331.0</ele><time>2026-03-27T17:17:56.841Z</time></trkpt><trkpt lat="40.4674464" lon="9.7327807"><ele>331.0</ele><time>2026-03-27T17:17:57.834Z</time></trkpt><trkpt lat="40.467379" lon="9.7328166"><ele>331.0</ele><time>2026-03-27T17:17:58.837Z</time></trkpt><trkpt lat="40.4673095" lon="9.7328743"><ele>331.0</ele><time>2026-03-27T17:17:59.837Z</time></trkpt><trkpt lat="40.4672459" lon="9.7329332"><ele>331.0</ele><time>2026-03-27T17:18:00.833Z</time></trkpt><trkpt lat="40.4671741" lon="9.7330095"><ele>331.0</ele><time>2026-03-27T17:18:01.833Z</time></trkpt><trkpt lat="40.4671023" lon="9.7330909"><ele>328.6</ele><time>2026-03-27T17:18:02.837Z</time></trkpt><trkpt lat="40.4670366" lon="9.7331683"><ele>326.20000000000005</ele><time>2026-03-27T17:18:03.838Z</time></trkpt><trkpt lat="40.4669621" lon="9.7332567"><ele>323.79999999999995</ele><time>2026-03-27T17:18:04.836Z</time></trkpt><trkpt lat="40.4668848" lon="9.7333497"><ele>321.4</ele><time>2026-03-27T17:18:05.838Z</time></trkpt><trkpt lat="40.4668172" lon="9.7334258"><ele>319.0</ele><time>2026-03-27T17:18:06.844Z</time></trkpt><trkpt lat="40.4667469" lon="9.733518"><ele>319.16666666666663</ele><time>2026-03-27T17:18:07.84Z</time></trkpt><trkpt lat="40.4666845" lon="9.7336002"><ele>319.3333333333333</ele><time>2026-03-27T17:18:08.846Z</time></trkpt><trkpt lat="40.4666338" lon="9.7336578"><ele>319.5</ele><time>2026-03-27T17:18:09.839Z</time></trkpt><trkpt lat="40.4665265" lon="9.7337221"><ele>319.6666666666667</ele><time>2026-03-27T17:18:11.834Z</time></trkpt><trkpt lat="40.4664619" lon="9.7337299"><ele>319.83333333333337</ele><time>2026-03-27T17:18:12.833Z</time></trkpt><trkpt lat="40.4663927" lon="9.7337301"><ele>320.0</ele><time>2026-03-27T17:18:13.841Z</time></trkpt><trkpt lat="40.4663218" lon="9.7337218"><ele>318.1666666666667</ele><time>2026-03-27T17:18:14.834Z</time></trkpt><trkpt lat="40.4662125" lon="9.7337158"><ele>316.33333333333337</ele><time>2026-03-27T17:18:16.841Z</time></trkpt><trkpt lat="40.466123" lon="9.7337217"><ele>314.5</ele><time>2026-03-27T17:18:18.838Z</time></trkpt><trkpt lat="40.4660383" lon="9.7337395"><ele>312.6666666666667</ele><time>2026-03-27T17:18:20.847Z</time></trkpt><trkpt lat="40.4659599" lon="9.7337654"><ele>310.8333333333333</ele><time>2026-03-27T17:18:22.839Z</time></trkpt><trkpt lat="40.4658968" lon="9.733799"><ele>309.0</ele><time>2026-03-27T17:18:24.848Z</time></trkpt><trkpt lat="40.4658198" lon="9.7338533"><ele>309.0</ele><time>2026-03-27T17:18:26.845Z</time></trkpt><trkpt lat="40.4657398" lon="9.7339204"><ele>309.0</ele><time>2026-03-27T17:18:28.84Z</time></trkpt><trkpt lat="40.4656816" lon="9.7340192"><ele>309.0</ele><time>2026-03-27T17:18:30.838Z</time></trkpt><trkpt lat="40.4656447" lon="9.7341261"><ele>309.0</ele><time>2026-03-27T17:18:32.835Z</time></trkpt><trkpt lat="40.4656247" lon="9.7342338"><ele>309.0</ele><time>2026-03-27T17:18:34.843Z</time></trkpt><trkpt lat="40.4656189" lon="9.7343341"><ele>309.0</ele><time>2026-03-27T17:18:36.838Z</time></trkpt><trkpt lat="40.4655787" lon="9.7344401"><ele>309.0</ele><time>2026-03-27T17:18:38.842Z</time></trkpt><trkpt lat="40.4654698" lon="9.7345499"><ele>309.0</ele><time>2026-03-27T17:18:40.847Z</time></trkpt><trkpt lat="40.4654088" lon="9.7346041"><ele>309.0</ele><time>2026-03-27T17:18:41.831Z</time></trkpt><trkpt lat="40.4653433" lon="9.734661"><ele>309.0</ele><time>2026-03-27T17:18:42.837Z</time></trkpt><trkpt lat="40.4652894" lon="9.7347091"><ele>309.0</ele><time>2026-03-27T17:18:43.835Z</time></trkpt><trkpt lat="40.4652372" lon="9.7347746"><ele>309.0</ele><time>2026-03-27T17:18:44.843Z</time></trkpt><trkpt lat="40.4651864" lon="9.7348442"><ele>306.2</ele><time>2026-03-27T17:18:45.836Z</time></trkpt><trkpt lat="40.4651102" lon="9.7349409"><ele>303.4</ele><time>2026-03-27T17:18:47.838Z</time></trkpt><trkpt lat="40.4650442" lon="9.7349935"><ele>300.6</ele><time>2026-03-27T17:18:49.834Z</time></trkpt><trkpt lat="40.4649545" lon="9.7349651"><ele>297.8</ele><time>2026-03-27T17:18:51.839Z</time></trkpt><trkpt lat="40.4648509" lon="9.7348289"><ele>295.0</ele><time>2026-03-27T17:18:53.834Z</time></trkpt><trkpt lat="40.4647835" lon="9.7347281"><ele>295.0</ele><time>2026-03-27T17:18:54.848Z</time></trkpt><trkpt lat="40.4647123" lon="9.7346409"><ele>295.0</ele><time>2026-03-27T17:18:55.835Z</time></trkpt><trkpt lat="40.4646616" lon="9.7345912"><ele>295.0</ele><time>2026-03-27T17:18:56.833Z</time></trkpt><trkpt lat="40.464547" lon="9.7345574"><ele>295.0</ele><time>2026-03-27T17:18:58.83Z</time></trkpt><trkpt lat="40.4644837" lon="9.7345662"><ele>295.0</ele><time>2026-03-27T17:18:59.843Z</time></trkpt><trkpt lat="40.4644136" lon="9.734613"><ele>295.0</ele><time>2026-03-27T17:19:00.841Z</time></trkpt><trkpt lat="40.4643391" lon="9.7346747"><ele>294.8</ele><time>2026-03-27T17:19:01.844Z</time></trkpt><trkpt lat="40.4642692" lon="9.7347395"><ele>294.6</ele><time>2026-03-27T17:19:02.843Z</time></trkpt><trkpt lat="40.4641971" lon="9.734827"><ele>294.4</ele><time>2026-03-27T17:19:03.831Z</time></trkpt><trkpt lat="40.4641268" lon="9.7349395"><ele>294.2</ele><time>2026-03-27T17:19:04.834Z</time></trkpt><trkpt lat="40.4640411" lon="9.7350519"><ele>294.0</ele><time>2026-03-27T17:19:05.831Z</time></trkpt><trkpt lat="40.4639701" lon="9.7351979"><ele>294.2</ele><time>2026-03-27T17:19:06.836Z</time></trkpt><trkpt lat="40.4638963" lon="9.7353457"><ele>294.4</ele><time>2026-03-27T17:19:07.835Z</time></trkpt><trkpt lat="40.4638381" lon="9.7354808"><ele>294.6</ele><time>2026-03-27T17:19:08.842Z</time></trkpt><trkpt lat="40.4637937" lon="9.7356094"><ele>294.8</ele><time>2026-03-27T17:19:09.834Z</time></trkpt><trkpt lat="40.4637509" lon="9.7357023"><ele>295.0</ele><time>2026-03-27T17:19:10.845Z</time></trkpt><trkpt lat="40.4637108" lon="9.7357771"><ele>295.0</ele><time>2026-03-27T17:19:11.833Z</time></trkpt><trkpt lat="40.4636471" lon="9.7358482"><ele>295.0</ele><time>2026-03-27T17:19:12.838Z</time></trkpt><trkpt lat="40.4635682" lon="9.7359106"><ele>295.0</ele><time>2026-03-27T17:19:13.832Z</time></trkpt><trkpt lat="40.4634852" lon="9.735973"><ele>295.0</ele><time>2026-03-27T17:19:14.836Z</time></trkpt><trkpt lat="40.4633898" lon="9.7360187"><ele>295.0</ele><time>2026-03-27T17:19:15.831Z</time></trkpt><trkpt lat="40.4632843" lon="9.7360469"><ele>294.4</ele><time>2026-03-27T17:19:16.835Z</time></trkpt><trkpt lat="40.4631793" lon="9.7360825"><ele>293.8</ele><time>2026-03-27T17:19:17.835Z</time></trkpt><trkpt lat="40.4630728" lon="9.7361189"><ele>293.2</ele><time>2026-03-27T17:19:18.837Z</time></trkpt><trkpt lat="40.4629759" lon="9.7361626"><ele>292.6</ele><time>2026-03-27T17:19:19.833Z</time></trkpt><trkpt lat="40.4628814" lon="9.7362037"><ele>292.0</ele><time>2026-03-27T17:19:20.836Z</time></trkpt><trkpt lat="40.4627801" lon="9.7362395"><ele>292.0</ele><time>2026-03-27T17:19:21.833Z</time></trkpt><trkpt lat="40.4626844" lon="9.736265"><ele>292.0</ele><time>2026-03-27T17:19:22.838Z</time></trkpt><trkpt lat="40.4625875" lon="9.736272"><ele>292.0</ele><time>2026-03-27T17:19:23.845Z</time></trkpt><trkpt lat="40.4624991" lon="9.7362609"><ele>292.0</ele><time>2026-03-27T17:19:24.837Z</time></trkpt><trkpt lat="40.4624176" lon="9.7362482"><ele>292.0</ele><time>2026-03-27T17:19:25.837Z</time></trkpt><trkpt lat="40.4623262" lon="9.7362442"><ele>292.0</ele><time>2026-03-27T17:19:26.845Z</time></trkpt><trkpt lat="40.4622234" lon="9.7362604"><ele>292.0</ele><time>2026-03-27T17:19:27.845Z</time></trkpt><trkpt lat="40.4621239" lon="9.7362742"><ele>292.0</ele><time>2026-03-27T17:19:28.836Z</time></trkpt><trkpt lat="40.4620428" lon="9.736287"><ele>292.0</ele><time>2026-03-27T17:19:29.843Z</time></trkpt><trkpt lat="40.4619745" lon="9.736294"><ele>292.0</ele><time>2026-03-27T17:19:30.834Z</time></trkpt><trkpt lat="40.4618684" lon="9.736267"><ele>292.2</ele><time>2026-03-27T17:19:32.838Z</time></trkpt><trkpt lat="40.4617974" lon="9.7362147"><ele>292.4</ele><time>2026-03-27T17:19:34.843Z</time></trkpt><trkpt lat="40.4617689" lon="9.7361073"><ele>292.6</ele><time>2026-03-27T17:19:36.847Z</time></trkpt><trkpt lat="40.4617719" lon="9.735936"><ele>292.8</ele><time>2026-03-27T17:19:38.844Z</time></trkpt><trkpt lat="40.4617989" lon="9.735842"><ele>293.0</ele><time>2026-03-27T17:19:39.838Z</time></trkpt><trkpt lat="40.4618258" lon="9.7357446"><ele>293.0</ele><time>2026-03-27T17:19:40.844Z</time></trkpt><trkpt lat="40.4618804" lon="9.7356286"><ele>293.0</ele><time>2026-03-27T17:19:41.835Z</time></trkpt><trkpt lat="40.461936" lon="9.7355071"><ele>293.0</ele><time>2026-03-27T17:19:42.834Z</time></trkpt><trkpt lat="40.4619862" lon="9.7354015"><ele>293.0</ele><time>2026-03-27T17:19:43.837Z</time></trkpt><trkpt lat="40.4620396" lon="9.7352829"><ele>293.0</ele><time>2026-03-27T17:19:45.842Z</time></trkpt><trkpt lat="40.4620906" lon="9.7351889"><ele>292.1666666666667</ele><time>2026-03-27T17:19:47.85Z</time></trkpt><trkpt lat="40.4621525" lon="9.7351357"><ele>291.33333333333337</ele><time>2026-03-27T17:19:48.841Z</time></trkpt><trkpt lat="40.4622188" lon="9.7350805"><ele>290.5</ele><time>2026-03-27T17:19:49.851Z</time></trkpt><trkpt lat="40.4622965" lon="9.7350375"><ele>289.6666666666667</ele><time>2026-03-27T17:19:50.839Z</time></trkpt><trkpt lat="40.4623768" lon="9.7349911"><ele>288.8333333333333</ele><time>2026-03-27T17:19:51.839Z</time></trkpt><trkpt lat="40.4624512" lon="9.7349477"><ele>288.0</ele><time>2026-03-27T17:19:52.839Z</time></trkpt><trkpt lat="40.4625125" lon="9.7349045"><ele>288.0</ele><time>2026-03-27T17:19:53.841Z</time></trkpt><trkpt lat="40.4626112" lon="9.734837"><ele>288.0</ele><time>2026-03-27T17:19:55.835Z</time></trkpt><trkpt lat="40.4626737" lon="9.7348072"><ele>288.0</ele><time>2026-03-27T17:19:57.849Z</time></trkpt><trkpt lat="40.4627379" lon="9.7347689"><ele>288.0</ele><time>2026-03-27T17:20:00.837Z</time></trkpt><trkpt lat="40.4627575" lon="9.7346864"><ele>288.0</ele><time>2026-03-27T17:25:19.836Z</time></trkpt><trkpt lat="40.462673" lon="9.7346432"><ele>288.0</ele><time>2026-03-27T17:25:22.85Z</time></trkpt><trkpt lat="40.4625849" lon="9.7346291"><ele>288.0</ele><time>2026-03-27T17:25:24.835Z</time></trkpt><trkpt lat="40.4624657" lon="9.734619"><ele>288.0</ele><time>2026-03-27T17:25:26.84Z</time></trkpt><trkpt lat="40.4624026" lon="9.7346026"><ele>288.0</ele><time>2026-03-27T17:25:27.831Z</time></trkpt><trkpt lat="40.4623096" lon="9.7345417"><ele>288.0</ele><time>2026-03-27T17:25:29.833Z</time></trkpt><trkpt lat="40.4622288" lon="9.7344405"><ele>288.0</ele><time>2026-03-27T17:25:31.838Z</time></trkpt><trkpt lat="40.4621516" lon="9.73432"><ele>285.0</ele><time>2026-03-27T17:25:33.835Z</time></trkpt><trkpt lat="40.4620814" lon="9.7341973"><ele>282.0</ele><time>2026-03-27T17:25:35.835Z</time></trkpt><trkpt lat="40.4620191" lon="9.734075"><ele>279.0</ele><time>2026-03-27T17:25:37.831Z</time></trkpt><trkpt lat="40.4619709" lon="9.7339697"><ele>276.0</ele><time>2026-03-27T17:25:39.835Z</time></trkpt><trkpt lat="40.4619424" lon="9.7338904"><ele>273.0</ele><time>2026-03-27T17:25:41.835Z</time></trkpt><trkpt lat="40.4619095" lon="9.7338197"><ele>273.0</ele><time>2026-03-27T17:25:44.841Z</time></trkpt><trkpt lat="40.461833" lon="9.7337392"><ele>273.0</ele><time>2026-03-27T17:25:47.835Z</time></trkpt><trkpt lat="40.4617459" lon="9.7337206"><ele>273.0</ele><time>2026-03-27T17:25:50.835Z</time></trkpt><trkpt lat="40.4616815" lon="9.7337509"><ele>273.0</ele><time>2026-03-27T17:25:52.833Z</time></trkpt><trkpt lat="40.4616169" lon="9.7337392"><ele>273.0</ele><time>2026-03-27T17:25:54.83Z</time></trkpt><trkpt lat="40.4615243" lon="9.7336748"><ele>273.0</ele><time>2026-03-27T17:26:04.839Z</time></trkpt><trkpt lat="40.4614658" lon="9.7336355"><ele>273.0</ele><time>2026-03-27T17:26:05.841Z</time></trkpt><trkpt lat="40.46135" lon="9.7335949"><ele>273.0</ele><time>2026-03-27T17:26:07.838Z</time></trkpt><trkpt lat="40.4612267" lon="9.7336349"><ele>273.0</ele><time>2026-03-27T17:26:09.832Z</time></trkpt><trkpt lat="40.4611503" lon="9.7336785"><ele>273.0</ele><time>2026-03-27T17:26:10.836Z</time></trkpt><trkpt lat="40.4610694" lon="9.7337238"><ele>273.0</ele><time>2026-03-27T17:26:11.832Z</time></trkpt><trkpt lat="40.460979" lon="9.7337739"><ele>272.8</ele><time>2026-03-27T17:26:12.84Z</time></trkpt><trkpt lat="40.4608748" lon="9.7338237"><ele>272.6</ele><time>2026-03-27T17:26:13.833Z</time></trkpt><trkpt lat="40.4607551" lon="9.7338643"><ele>272.4</ele><time>2026-03-27T17:26:14.832Z</time></trkpt><trkpt lat="40.460646" lon="9.7338994"><ele>272.2</ele><time>2026-03-27T17:26:15.834Z</time></trkpt><trkpt lat="40.4605521" lon="9.733919"><ele>272.0</ele><time>2026-03-27T17:26:16.834Z</time></trkpt><trkpt lat="40.4604623" lon="9.7339367"><ele>270.6666666666667</ele><time>2026-03-27T17:26:17.837Z</time></trkpt><trkpt lat="40.4603754" lon="9.73395"><ele>269.33333333333337</ele><time>2026-03-27T17:26:18.842Z</time></trkpt><trkpt lat="40.4602903" lon="9.7339608"><ele>268.0</ele><time>2026-03-27T17:26:19.83Z</time></trkpt><trkpt lat="40.4602117" lon="9.7339281"><ele>266.6666666666667</ele><time>2026-03-27T17:26:20.841Z</time></trkpt><trkpt lat="40.4601291" lon="9.7338858"><ele>265.3333333333333</ele><time>2026-03-27T17:26:21.833Z</time></trkpt><trkpt lat="40.4600502" lon="9.73383"><ele>264.0</ele><time>2026-03-27T17:26:22.836Z</time></trkpt><trkpt lat="40.4599706" lon="9.7337713"><ele>264.0</ele><time>2026-03-27T17:26:23.842Z</time></trkpt><trkpt lat="40.4598985" lon="9.7337102"><ele>264.0</ele><time>2026-03-27T17:26:24.841Z</time></trkpt><trkpt lat="40.4598302" lon="9.7336583"><ele>264.0</ele><time>2026-03-27T17:26:25.84Z</time></trkpt><trkpt lat="40.459762" lon="9.7336177"><ele>264.0</ele><time>2026-03-27T17:26:26.837Z</time></trkpt><trkpt lat="40.4596948" lon="9.7335965"><ele>264.0</ele><time>2026-03-27T17:26:27.833Z</time></trkpt><trkpt lat="40.4596292" lon="9.7335791"><ele>264.0</ele><time>2026-03-27T17:26:28.839Z</time></trkpt><trkpt lat="40.459566" lon="9.7335962"><ele>264.0</ele><time>2026-03-27T17:26:29.839Z</time></trkpt><trkpt lat="40.4595056" lon="9.7336263"><ele>261.8</ele><time>2026-03-27T17:26:30.838Z</time></trkpt><trkpt lat="40.4594063" lon="9.7336567"><ele>259.59999999999997</ele><time>2026-03-27T17:26:32.834Z</time></trkpt><trkpt lat="40.4593297" lon="9.7336207"><ele>257.4</ele><time>2026-03-27T17:26:34.839Z</time></trkpt><trkpt lat="40.4592948" lon="9.7335284"><ele>255.2</ele><time>2026-03-27T17:26:36.839Z</time></trkpt><trkpt lat="40.4592863" lon="9.7333435"><ele>253.0</ele><time>2026-03-27T17:26:38.834Z</time></trkpt><trkpt lat="40.4592705" lon="9.7332108"><ele>252.99999999999997</ele><time>2026-03-27T17:26:39.832Z</time></trkpt><trkpt lat="40.4592529" lon="9.7330874"><ele>253.0</ele><time>2026-03-27T17:26:40.843Z</time></trkpt><trkpt lat="40.4592394" lon="9.7329711"><ele>253.0</ele><time>2026-03-27T17:26:41.839Z</time></trkpt><trkpt lat="40.4592308" lon="9.7328685"><ele>253.0</ele><time>2026-03-27T17:26:42.836Z</time></trkpt><trkpt lat="40.4592204" lon="9.7327616"><ele>252.99999999999997</ele><time>2026-03-27T17:26:43.841Z</time></trkpt><trkpt lat="40.4592101" lon="9.732669"><ele>253.0</ele><time>2026-03-27T17:26:44.833Z</time></trkpt><trkpt lat="40.4591499" lon="9.7325334"><ele>252.0</ele><time>2026-03-27T17:26:46.839Z</time></trkpt><trkpt lat="40.459056" lon="9.7324561"><ele>251.0</ele><time>2026-03-27T17:26:48.839Z</time></trkpt><trkpt lat="40.4589194" lon="9.7324325"><ele>250.0</ele><time>2026-03-27T17:26:50.837Z</time></trkpt><trkpt lat="40.4588317" lon="9.7324253"><ele>249.0</ele><time>2026-03-27T17:26:51.839Z</time></trkpt><trkpt lat="40.4587275" lon="9.7324274"><ele>248.0</ele><time>2026-03-27T17:26:52.84Z</time></trkpt><trkpt lat="40.4586273" lon="9.7324534"><ele>245.60000000000002</ele><time>2026-03-27T17:26:53.835Z</time></trkpt><trkpt lat="40.4585373" lon="9.7324821"><ele>243.20000000000002</ele><time>2026-03-27T17:26:54.84Z</time></trkpt><trkpt lat="40.4584464" lon="9.732515"><ele>240.8</ele><time>2026-03-27T17:26:55.841Z</time></trkpt><trkpt lat="40.4583521" lon="9.7325619"><ele>238.4</ele><time>2026-03-27T17:26:56.846Z</time></trkpt><trkpt lat="40.4582694" lon="9.7326123"><ele>236.0</ele><time>2026-03-27T17:26:57.839Z</time></trkpt><trkpt lat="40.4581899" lon="9.7326563"><ele>236.0</ele><time>2026-03-27T17:26:58.838Z</time></trkpt><trkpt lat="40.4581247" lon="9.7327045"><ele>236.00000000000003</ele><time>2026-03-27T17:26:59.838Z</time></trkpt><trkpt lat="40.4580384" lon="9.7327584"><ele>236.00000000000003</ele><time>2026-03-27T17:27:01.841Z</time></trkpt><trkpt lat="40.457962" lon="9.7327239"><ele>236.0</ele><time>2026-03-27T17:27:04.84Z</time></trkpt><trkpt lat="40.4579751" lon="9.7326207"><ele>236.0</ele><time>2026-03-27T17:27:06.838Z</time></trkpt><trkpt lat="40.4580684" lon="9.7324822"><ele>236.0</ele><time>2026-03-27T17:27:08.841Z</time></trkpt><trkpt lat="40.4581369" lon="9.7323888"><ele>236.00000000000003</ele><time>2026-03-27T17:27:09.837Z</time></trkpt><trkpt lat="40.458201" lon="9.7322836"><ele>236.00000000000003</ele><time>2026-03-27T17:27:10.838Z</time></trkpt><trkpt lat="40.4582673" lon="9.7321775"><ele>236.0</ele><time>2026-03-27T17:27:11.834Z</time></trkpt><trkpt lat="40.4583334" lon="9.7320891"><ele>236.0</ele><time>2026-03-27T17:27:12.838Z</time></trkpt><trkpt lat="40.4584104" lon="9.7320065"><ele>236.0</ele><time>2026-03-27T17:27:13.832Z</time></trkpt><trkpt lat="40.4584998" lon="9.7319209"><ele>236.00000000000003</ele><time>2026-03-27T17:27:14.837Z</time></trkpt><trkpt lat="40.4585953" lon="9.7318234"><ele>236.00000000000003</ele><time>2026-03-27T17:27:15.837Z</time></trkpt><trkpt lat="40.4586831" lon="9.7317439"><ele>236.0</ele><time>2026-03-27T17:27:16.836Z</time></trkpt><trkpt lat="40.4587413" lon="9.7316894"><ele>236.0</ele><time>2026-03-27T17:27:17.836Z</time></trkpt><trkpt lat="40.458861" lon="9.7316831"><ele>234.83333333333334</ele><time>2026-03-27T17:27:19.835Z</time></trkpt><trkpt lat="40.4589178" lon="9.7317196"><ele>233.66666666666669</ele><time>2026-03-27T17:27:20.833Z</time></trkpt><trkpt lat="40.4589833" lon="9.7317817"><ele>232.5</ele><time>2026-03-27T17:27:21.844Z</time></trkpt><trkpt lat="40.4590527" lon="9.7318509"><ele>231.33333333333331</ele><time>2026-03-27T17:27:22.83Z</time></trkpt><trkpt lat="40.4591281" lon="9.7319031"><ele>230.16666666666666</ele><time>2026-03-27T17:27:23.838Z</time></trkpt><trkpt lat="40.4592037" lon="9.7319326"><ele>229.0</ele><time>2026-03-27T17:27:24.835Z</time></trkpt><trkpt lat="40.4592717" lon="9.7319373"><ele>228.99999999999997</ele><time>2026-03-27T17:27:25.835Z</time></trkpt><trkpt lat="40.4593336" lon="9.7319144"><ele>229.0</ele><time>2026-03-27T17:27:26.838Z</time></trkpt><trkpt lat="40.4594056" lon="9.7318589"><ele>229.0</ele><time>2026-03-27T17:27:27.837Z</time></trkpt><trkpt lat="40.4594837" lon="9.731796"><ele>229.0</ele><time>2026-03-27T17:27:28.849Z</time></trkpt><trkpt lat="40.4595543" lon="9.7317005"><ele>228.99999999999997</ele><time>2026-03-27T17:27:29.845Z</time></trkpt><trkpt lat="40.4596077" lon="9.7316041"><ele>229.0</ele><time>2026-03-27T17:27:30.84Z</time></trkpt><trkpt lat="40.4596577" lon="9.7315143"><ele>229.99999999999997</ele><time>2026-03-27T17:27:31.835Z</time></trkpt><trkpt lat="40.4597204" lon="9.7314331"><ele>231.0</ele><time>2026-03-27T17:27:32.833Z</time></trkpt><trkpt lat="40.4597905" lon="9.7313759"><ele>232.0</ele><time>2026-03-27T17:27:33.836Z</time></trkpt><trkpt lat="40.4598642" lon="9.7313402"><ele>233.0</ele><time>2026-03-27T17:27:34.84Z</time></trkpt><trkpt lat="40.45993" lon="9.7313264"><ele>233.99999999999997</ele><time>2026-03-27T17:27:35.836Z</time></trkpt><trkpt lat="40.4600371" lon="9.7313829"><ele>235.0</ele><time>2026-03-27T17:27:37.839Z</time></trkpt><trkpt lat="40.4601029" lon="9.7314518"><ele>234.99999999999997</ele><time>2026-03-27T17:27:38.84Z</time></trkpt><trkpt lat="40.4601774" lon="9.7315228"><ele>235.0</ele><time>2026-03-27T17:27:39.838Z</time></trkpt><trkpt lat="40.4602522" lon="9.7315837"><ele>235.0</ele><time>2026-03-27T17:27:40.84Z</time></trkpt><trkpt lat="40.4603319" lon="9.7316328"><ele>235.0</ele><time>2026-03-27T17:27:41.829Z</time></trkpt><trkpt lat="40.4604125" lon="9.7316807"><ele>234.99999999999997</ele><time>2026-03-27T17:27:42.832Z</time></trkpt><trkpt lat="40.4605008" lon="9.7317154"><ele>235.0</ele><time>2026-03-27T17:27:43.832Z</time></trkpt><trkpt lat="40.4605876" lon="9.7317528"><ele>232.0</ele><time>2026-03-27T17:27:44.834Z</time></trkpt><trkpt lat="40.4606751" lon="9.7317885"><ele>229.0</ele><time>2026-03-27T17:27:45.833Z</time></trkpt><trkpt lat="40.4607641" lon="9.7318132"><ele>226.0</ele><time>2026-03-27T17:27:46.837Z</time></trkpt><trkpt lat="40.4608593" lon="9.7318308"><ele>223.0</ele><time>2026-03-27T17:27:47.833Z</time></trkpt><trkpt lat="40.4609574" lon="9.7318545"><ele>220.0</ele><time>2026-03-27T17:27:48.837Z</time></trkpt><trkpt lat="40.4610584" lon="9.7318717"><ele>219.99999999999997</ele><time>2026-03-27T17:27:49.839Z</time></trkpt><trkpt lat="40.4611586" lon="9.7318855"><ele>220.0</ele><time>2026-03-27T17:27:50.837Z</time></trkpt><trkpt lat="40.4612449" lon="9.7318919"><ele>220.0</ele><time>2026-03-27T17:27:51.833Z</time></trkpt><trkpt lat="40.4613183" lon="9.7318892"><ele>220.0</ele><time>2026-03-27T17:27:52.833Z</time></trkpt><trkpt lat="40.4614059" lon="9.7318724"><ele>219.99999999999997</ele><time>2026-03-27T17:27:54.838Z</time></trkpt><trkpt lat="40.4614725" lon="9.7318394"><ele>220.0</ele><time>2026-03-27T17:27:57.836Z</time></trkpt><trkpt lat="40.4615568" lon="9.7317907"><ele>219.33333333333331</ele><time>2026-03-27T17:28:13.838Z</time></trkpt><trkpt lat="40.4616337" lon="9.7317554"><ele>218.66666666666666</ele><time>2026-03-27T17:28:15.848Z</time></trkpt><trkpt lat="40.4617128" lon="9.7317101"><ele>218.0</ele><time>2026-03-27T17:28:17.844Z</time></trkpt><trkpt lat="40.461782" lon="9.731648"><ele>217.33333333333331</ele><time>2026-03-27T17:28:19.836Z</time></trkpt><trkpt lat="40.4618361" lon="9.7316014"><ele>216.66666666666666</ele><time>2026-03-27T17:28:21.841Z</time></trkpt><trkpt lat="40.4618967" lon="9.7315666"><ele>216.0</ele><time>2026-03-27T17:28:23.835Z</time></trkpt><trkpt lat="40.4619758" lon="9.7315261"><ele>216.0</ele><time>2026-03-27T17:28:25.838Z</time></trkpt><trkpt lat="40.4620457" lon="9.731461"><ele>216.0</ele><time>2026-03-27T17:28:27.849Z</time></trkpt><trkpt lat="40.4620664" lon="9.7313827"><ele>216.0</ele><time>2026-03-27T17:28:29.836Z</time></trkpt><trkpt lat="40.4620284" lon="9.7312684"><ele>216.0</ele><time>2026-03-27T17:28:32.838Z</time></trkpt><trkpt lat="40.4619532" lon="9.7312364"><ele>216.0</ele><time>2026-03-27T17:28:34.849Z</time></trkpt><trkpt lat="40.4618643" lon="9.7312488"><ele>216.0</ele><time>2026-03-27T17:28:36.838Z</time></trkpt><trkpt lat="40.461774" lon="9.7312846"><ele>216.0</ele><time>2026-03-27T17:28:38.833Z</time></trkpt><trkpt lat="40.4616551" lon="9.731344"><ele>216.00000000000003</ele><time>2026-03-27T17:28:40.839Z</time></trkpt><trkpt lat="40.4615891" lon="9.7313599"><ele>216.00000000000003</ele><time>2026-03-27T17:28:41.837Z</time></trkpt><trkpt lat="40.4615248" lon="9.7313749"><ele>216.0</ele><time>2026-03-27T17:28:42.838Z</time></trkpt><trkpt lat="40.461411" lon="9.7313818"><ele>216.0</ele><time>2026-03-27T17:28:44.858Z</time></trkpt><trkpt lat="40.4613105" lon="9.73137"><ele>216.66666666666666</ele><time>2026-03-27T17:28:46.829Z</time></trkpt><trkpt lat="40.4612482" lon="9.7313262"><ele>217.33333333333331</ele><time>2026-03-27T17:28:47.834Z</time></trkpt><trkpt lat="40.4611791" lon="9.7312572"><ele>218.0</ele><time>2026-03-27T17:28:48.838Z</time></trkpt><trkpt lat="40.4611154" lon="9.731191"><ele>218.66666666666666</ele><time>2026-03-27T17:28:49.835Z</time></trkpt><trkpt lat="40.4610534" lon="9.7311242"><ele>219.33333333333331</ele><time>2026-03-27T17:28:50.841Z</time></trkpt><trkpt lat="40.4609976" lon="9.7310631"><ele>220.0</ele><time>2026-03-27T17:28:51.838Z</time></trkpt><trkpt lat="40.4609532" lon="9.7310036"><ele>216.49999999999997</ele><time>2026-03-27T17:28:52.844Z</time></trkpt><trkpt lat="40.460897" lon="9.7308976"><ele>213.0</ele><time>2026-03-27T17:28:54.838Z</time></trkpt><trkpt lat="40.4609037" lon="9.7307905"><ele>209.5</ele><time>2026-03-27T17:28:57.833Z</time></trkpt><trkpt lat="40.4609673" lon="9.7307763"><ele>206.0</ele><time>2026-03-27T17:28:59.839Z</time></trkpt><trkpt lat="40.4610425" lon="9.7307911"><ele>202.49999999999997</ele><time>2026-03-27T17:29:01.842Z</time></trkpt><trkpt lat="40.4611289" lon="9.730815"><ele>199.0</ele><time>2026-03-27T17:29:03.835Z</time></trkpt><trkpt lat="40.4612265" lon="9.7308055"><ele>198.0</ele><time>2026-03-27T17:29:05.829Z</time></trkpt><trkpt lat="40.4613412" lon="9.7307467"><ele>197.0</ele><time>2026-03-27T17:29:07.83Z</time></trkpt><trkpt lat="40.4614451" lon="9.7306742"><ele>196.0</ele><time>2026-03-27T17:29:09.838Z</time></trkpt><trkpt lat="40.4615396" lon="9.730605"><ele>195.0</ele><time>2026-03-27T17:29:11.839Z</time></trkpt><trkpt lat="40.4615944" lon="9.730502"><ele>194.0</ele><time>2026-03-27T17:29:13.836Z</time></trkpt><trkpt lat="40.4616536" lon="9.7303987"><ele>194.00000000000003</ele><time>2026-03-27T17:29:15.844Z</time></trkpt><trkpt lat="40.4617393" lon="9.7302836"><ele>194.0</ele><time>2026-03-27T17:29:17.843Z</time></trkpt><trkpt lat="40.4617946" lon="9.7302238"><ele>194.0</ele><time>2026-03-27T17:29:18.835Z</time></trkpt><trkpt lat="40.4618512" lon="9.7301657"><ele>194.0</ele><time>2026-03-27T17:29:19.837Z</time></trkpt><trkpt lat="40.461904" lon="9.7301091"><ele>194.00000000000003</ele><time>2026-03-27T17:29:20.833Z</time></trkpt><trkpt lat="40.4619554" lon="9.7300493"><ele>194.0</ele><time>2026-03-27T17:29:21.839Z</time></trkpt><trkpt lat="40.4620435" lon="9.7299511"><ele>189.6</ele><time>2026-03-27T17:29:23.84Z</time></trkpt><trkpt lat="40.4621304" lon="9.7298497"><ele>185.2</ele><time>2026-03-27T17:29:25.829Z</time></trkpt><trkpt lat="40.4621633" lon="9.7297749"><ele>180.79999999999998</ele><time>2026-03-27T17:29:26.837Z</time></trkpt><trkpt lat="40.4621882" lon="9.729635"><ele>176.39999999999998</ele><time>2026-03-27T17:29:28.857Z</time></trkpt><trkpt lat="40.4621644" lon="9.7295055"><ele>172.0</ele><time>2026-03-27T17:29:30.842Z</time></trkpt><trkpt lat="40.46209" lon="9.7294179"><ele>169.8</ele><time>2026-03-27T17:29:32.832Z</time></trkpt><trkpt lat="40.4619611" lon="9.7293841"><ele>167.6</ele><time>2026-03-27T17:29:34.834Z</time></trkpt><trkpt lat="40.4618878" lon="9.7293773"><ele>165.4</ele><time>2026-03-27T17:29:35.838Z</time></trkpt><trkpt lat="40.4618024" lon="9.7293726"><ele>163.20000000000002</ele><time>2026-03-27T17:29:36.837Z</time></trkpt><trkpt lat="40.4617097" lon="9.7293704"><ele>161.0</ele><time>2026-03-27T17:29:37.84Z</time></trkpt><trkpt lat="40.4616113" lon="9.7293752"><ele>161.0</ele><time>2026-03-27T17:29:38.843Z</time></trkpt><trkpt lat="40.4615052" lon="9.7293748"><ele>161.0</ele><time>2026-03-27T17:29:39.835Z</time></trkpt><trkpt lat="40.4614162" lon="9.7293679"><ele>161.0</ele><time>2026-03-27T17:29:40.831Z</time></trkpt><trkpt lat="40.4613367" lon="9.7293556"><ele>161.0</ele><time>2026-03-27T17:29:41.834Z</time></trkpt><trkpt lat="40.4612663" lon="9.7293228"><ele>161.0</ele><time>2026-03-27T17:29:42.838Z</time></trkpt><trkpt lat="40.4612066" lon="9.7292777"><ele>161.0</ele><time>2026-03-27T17:29:43.85Z</time></trkpt><trkpt lat="40.4611461" lon="9.7292124"><ele>162.0</ele><time>2026-03-27T17:29:44.842Z</time></trkpt><trkpt lat="40.4610822" lon="9.7291337"><ele>163.0</ele><time>2026-03-27T17:29:45.829Z</time></trkpt><trkpt lat="40.4610213" lon="9.729058"><ele>164.0</ele><time>2026-03-27T17:29:46.841Z</time></trkpt><trkpt lat="40.4609742" lon="9.7289879"><ele>165.0</ele><time>2026-03-27T17:29:47.833Z</time></trkpt><trkpt lat="40.4609234" lon="9.7289032"><ele>166.0</ele><time>2026-03-27T17:29:48.833Z</time></trkpt><trkpt lat="40.4608843" lon="9.7288113"><ele>167.0</ele><time>2026-03-27T17:29:49.838Z</time></trkpt><trkpt lat="40.4608331" lon="9.7287148"><ele>167.0</ele><time>2026-03-27T17:29:50.837Z</time></trkpt><trkpt lat="40.4607879" lon="9.7286402"><ele>167.0</ele><time>2026-03-27T17:29:51.84Z</time></trkpt><trkpt lat="40.4607413" lon="9.7285822"><ele>167.0</ele><time>2026-03-27T17:29:52.832Z</time></trkpt><trkpt lat="40.4606786" lon="9.7285135"><ele>167.0</ele><time>2026-03-27T17:29:54.841Z</time></trkpt><trkpt lat="40.4606122" lon="9.7284607"><ele>167.0</ele><time>2026-03-27T17:29:56.837Z</time></trkpt><trkpt lat="40.4605371" lon="9.7284259"><ele>167.0</ele><time>2026-03-27T17:29:58.84Z</time></trkpt><trkpt lat="40.4604723" lon="9.7284118"><ele>167.0</ele><time>2026-03-27T17:30:00.843Z</time></trkpt><trkpt lat="40.4604048" lon="9.7284174"><ele>167.5</ele><time>2026-03-27T17:30:03.836Z</time></trkpt><trkpt lat="40.4603371" lon="9.7284274"><ele>168.0</ele><time>2026-03-27T17:30:06.836Z</time></trkpt><trkpt lat="40.4602402" lon="9.728478"><ele>168.5</ele><time>2026-03-27T17:30:35.847Z</time></trkpt><trkpt lat="40.4601756" lon="9.7285008"><ele>169.0</ele><time>2026-03-27T17:30:36.837Z</time></trkpt><trkpt lat="40.4601052" lon="9.7285234"><ele>169.5</ele><time>2026-03-27T17:30:37.837Z</time></trkpt><trkpt lat="40.4600351" lon="9.728546"><ele>170.0</ele><time>2026-03-27T17:30:38.844Z</time></trkpt><trkpt lat="40.4599628" lon="9.7285672"><ele>170.0</ele><time>2026-03-27T17:30:39.84Z</time></trkpt><trkpt lat="40.4598937" lon="9.7285906"><ele>170.0</ele><time>2026-03-27T17:30:40.84Z</time></trkpt><trkpt lat="40.4598263" lon="9.7286255"><ele>170.0</ele><time>2026-03-27T17:30:41.836Z</time></trkpt><trkpt lat="40.4597562" lon="9.7286794"><ele>170.0</ele><time>2026-03-27T17:30:42.841Z</time></trkpt><trkpt lat="40.459678" lon="9.7287404"><ele>170.0</ele><time>2026-03-27T17:30:43.836Z</time></trkpt><trkpt lat="40.4595914" lon="9.7288084"><ele>170.0</ele><time>2026-03-27T17:30:44.836Z</time></trkpt><trkpt lat="40.4595065" lon="9.728878"><ele>165.2</ele><time>2026-03-27T17:30:45.844Z</time></trkpt><trkpt lat="40.4594159" lon="9.7289543"><ele>160.4</ele><time>2026-03-27T17:30:46.836Z</time></trkpt><trkpt lat="40.4593317" lon="9.7290437"><ele>155.6</ele><time>2026-03-27T17:30:47.843Z</time></trkpt><trkpt lat="40.4592447" lon="9.7291305"><ele>150.8</ele><time>2026-03-27T17:30:48.834Z</time></trkpt><trkpt lat="40.4591546" lon="9.7292137"><ele>146.0</ele><time>2026-03-27T17:30:49.836Z</time></trkpt><trkpt lat="40.4590699" lon="9.7292884"><ele>146.0</ele><time>2026-03-27T17:30:50.836Z</time></trkpt><trkpt lat="40.458995" lon="9.7293552"><ele>146.0</ele><time>2026-03-27T17:30:51.842Z</time></trkpt><trkpt lat="40.4589357" lon="9.7294014"><ele>146.0</ele><time>2026-03-27T17:30:52.84Z</time></trkpt><trkpt lat="40.4588795" lon="9.7294431"><ele>146.0</ele><time>2026-03-27T17:30:53.835Z</time></trkpt><trkpt lat="40.458766" lon="9.7294483"><ele>146.0</ele><time>2026-03-27T17:30:55.835Z</time></trkpt><trkpt lat="40.4586325" lon="9.729397"><ele>143.0</ele><time>2026-03-27T17:30:57.833Z</time></trkpt><trkpt lat="40.4585504" lon="9.7293728"><ele>140.0</ele><time>2026-03-27T17:30:58.841Z</time></trkpt><trkpt lat="40.4584633" lon="9.7293435"><ele>137.0</ele><time>2026-03-27T17:30:59.835Z</time></trkpt><trkpt lat="40.4583775" lon="9.7293109"><ele>134.0</ele><time>2026-03-27T17:31:00.835Z</time></trkpt><trkpt lat="40.4582951" lon="9.7292799"><ele>131.0</ele><time>2026-03-27T17:31:01.843Z</time></trkpt><trkpt lat="40.4582153" lon="9.7292509"><ele>128.0</ele><time>2026-03-27T17:31:02.837Z</time></trkpt><trkpt lat="40.4581372" lon="9.7292192"><ele>128.0</ele><time>2026-03-27T17:31:03.839Z</time></trkpt><trkpt lat="40.4580596" lon="9.7291909"><ele>128.0</ele><time>2026-03-27T17:31:04.833Z</time></trkpt><trkpt lat="40.4579921" lon="9.7291647"><ele>128.0</ele><time>2026-03-27T17:31:05.832Z</time></trkpt><trkpt lat="40.4579296" lon="9.7291367"><ele>128.0</ele><time>2026-03-27T17:31:06.84Z</time></trkpt><trkpt lat="40.4578044" lon="9.7290876"><ele>128.0</ele><time>2026-03-27T17:31:08.834Z</time></trkpt><trkpt lat="40.4576927" lon="9.7291065"><ele>127.99999999999999</ele><time>2026-03-27T17:31:10.835Z</time></trkpt><trkpt lat="40.4576296" lon="9.7291097"><ele>128.0</ele><time>2026-03-27T17:31:12.837Z</time></trkpt><trkpt lat="40.4576179" lon="9.7290079"><ele>128.0</ele><time>2026-03-27T17:31:15.839Z</time></trkpt><trkpt lat="40.4576808" lon="9.7289449"><ele>128.0</ele><time>2026-03-27T17:31:17.84Z</time></trkpt><trkpt lat="40.4577665" lon="9.7288964"><ele>127.99999999999999</ele><time>2026-03-27T17:31:18.839Z</time></trkpt><trkpt lat="40.4578615" lon="9.7288497"><ele>128.0</ele><time>2026-03-27T17:31:19.835Z</time></trkpt><trkpt lat="40.4579603" lon="9.7288176"><ele>128.0</ele><time>2026-03-27T17:31:20.839Z</time></trkpt><trkpt lat="40.458049" lon="9.7287888"><ele>128.0</ele><time>2026-03-27T17:31:21.835Z</time></trkpt><trkpt lat="40.4581477" lon="9.7287428"><ele>128.0</ele><time>2026-03-27T17:31:22.84Z</time></trkpt><trkpt lat="40.4582466" lon="9.7286868"><ele>128.0</ele><time>2026-03-27T17:31:23.837Z</time></trkpt><trkpt lat="40.4583328" lon="9.7286389"><ele>128.0</ele><time>2026-03-27T17:31:24.841Z</time></trkpt><trkpt lat="40.4583992" lon="9.7286082"><ele>128.0</ele><time>2026-03-27T17:31:25.835Z</time></trkpt><trkpt lat="40.4585094" lon="9.7285647"><ele>128.0</ele><time>2026-03-27T17:31:27.834Z</time></trkpt><trkpt lat="40.4585914" lon="9.7284005"><ele>128.0</ele><time>2026-03-27T17:31:29.837Z</time></trkpt><trkpt lat="40.4586308" lon="9.7282967"><ele>128.0</ele><time>2026-03-27T17:31:30.835Z</time></trkpt><trkpt lat="40.4586683" lon="9.7281939"><ele>128.0</ele><time>2026-03-27T17:31:31.835Z</time></trkpt><trkpt lat="40.458698" lon="9.7281172"><ele>124.16666666666666</ele><time>2026-03-27T17:31:32.834Z</time></trkpt><trkpt lat="40.4587311" lon="9.7279937"><ele>120.33333333333333</ele><time>2026-03-27T17:31:34.835Z</time></trkpt><trkpt lat="40.4586743" lon="9.7278752"><ele>116.5</ele><time>2026-03-27T17:31:36.836Z</time></trkpt><trkpt lat="40.458621" lon="9.7278195"><ele>112.66666666666666</ele><time>2026-03-27T17:31:37.839Z</time></trkpt><trkpt lat="40.4585704" lon="9.7277681"><ele>108.83333333333333</ele><time>2026-03-27T17:31:38.835Z</time></trkpt><trkpt lat="40.458467" lon="9.7277168"><ele>105.0</ele><time>2026-03-27T17:31:40.836Z</time></trkpt><trkpt lat="40.4583375" lon="9.7277294"><ele>105.0</ele><time>2026-03-27T17:31:42.83Z</time></trkpt><trkpt lat="40.4582585" lon="9.7277706"><ele>105.0</ele><time>2026-03-27T17:31:43.837Z</time></trkpt><trkpt lat="40.4581598" lon="9.7278197"><ele>105.0</ele><time>2026-03-27T17:31:44.835Z</time></trkpt><trkpt lat="40.4580387" lon="9.7278763"><ele>105.0</ele><time>2026-03-27T17:31:45.838Z</time></trkpt><trkpt lat="40.4579149" lon="9.7279206"><ele>105.0</ele><time>2026-03-27T17:31:46.833Z</time></trkpt><trkpt lat="40.4578105" lon="9.7279513"><ele>102.8</ele><time>2026-03-27T17:31:47.84Z</time></trkpt><trkpt lat="40.4577214" lon="9.7279918"><ele>100.6</ele><time>2026-03-27T17:31:48.835Z</time></trkpt><trkpt lat="40.4576453" lon="9.7280344"><ele>98.4</ele><time>2026-03-27T17:31:49.836Z</time></trkpt><trkpt lat="40.4575807" lon="9.728069"><ele>96.2</ele><time>2026-03-27T17:31:50.842Z</time></trkpt><trkpt lat="40.4574948" lon="9.7281126"><ele>94.0</ele><time>2026-03-27T17:31:52.833Z</time></trkpt><trkpt lat="40.4573839" lon="9.7281462"><ele>94.0</ele><time>2026-03-27T17:32:51.843Z</time></trkpt><trkpt lat="40.4573099" lon="9.7281819"><ele>94.0</ele><time>2026-03-27T17:32:52.836Z</time></trkpt><trkpt lat="40.4572384" lon="9.7282121"><ele>94.0</ele><time>2026-03-27T17:32:53.838Z</time></trkpt><trkpt lat="40.4571249" lon="9.728232"><ele>94.0</ele><time>2026-03-27T17:32:55.832Z</time></trkpt><trkpt lat="40.4570088" lon="9.7282036"><ele>94.0</ele><time>2026-03-27T17:32:57.834Z</time></trkpt><trkpt lat="40.4569038" lon="9.7281164"><ele>93.14285714285714</ele><time>2026-03-27T17:32:59.836Z</time></trkpt><trkpt lat="40.4568577" lon="9.7280534"><ele>92.28571428571428</ele><time>2026-03-27T17:33:00.85Z</time></trkpt><trkpt lat="40.4568132" lon="9.7279759"><ele>91.42857142857143</ele><time>2026-03-27T17:33:01.836Z</time></trkpt><trkpt lat="40.4567746" lon="9.7278968"><ele>90.57142857142857</ele><time>2026-03-27T17:33:02.845Z</time></trkpt><trkpt lat="40.4567357" lon="9.7278157"><ele>89.71428571428571</ele><time>2026-03-27T17:33:03.839Z</time></trkpt><trkpt lat="40.4566987" lon="9.727731"><ele>88.85714285714286</ele><time>2026-03-27T17:33:04.84Z</time></trkpt><trkpt lat="40.4566623" lon="9.7276413"><ele>88.0</ele><time>2026-03-27T17:33:05.836Z</time></trkpt><trkpt lat="40.4566223" lon="9.7275482"><ele>86.66666666666666</ele><time>2026-03-27T17:33:06.843Z</time></trkpt><trkpt lat="40.4565807" lon="9.7274492"><ele>85.33333333333333</ele><time>2026-03-27T17:33:07.841Z</time></trkpt><trkpt lat="40.4565375" lon="9.7273499"><ele>84.0</ele><time>2026-03-27T17:33:08.852Z</time></trkpt><trkpt lat="40.4564974" lon="9.7272533"><ele>82.66666666666667</ele><time>2026-03-27T17:33:09.838Z</time></trkpt><trkpt lat="40.4564601" lon="9.7271601"><ele>81.33333333333334</ele><time>2026-03-27T17:33:10.841Z</time></trkpt><trkpt lat="40.4564257" lon="9.7270718"><ele>80.0</ele><time>2026-03-27T17:33:11.834Z</time></trkpt><trkpt lat="40.4563939" lon="9.726989"><ele>80.0</ele><time>2026-03-27T17:33:12.84Z</time></trkpt><trkpt lat="40.4563581" lon="9.7269059"><ele>80.0</ele><time>2026-03-27T17:33:13.837Z</time></trkpt><trkpt lat="40.4563283" lon="9.726829"><ele>80.0</ele><time>2026-03-27T17:33:14.846Z</time></trkpt><trkpt lat="40.4562924" lon="9.726704"><ele>80.0</ele><time>2026-03-27T17:33:16.842Z</time></trkpt><trkpt lat="40.4562617" lon="9.7266033"><ele>80.0</ele><time>2026-03-27T17:33:18.839Z</time></trkpt><trkpt lat="40.456233" lon="9.7265146"><ele>80.0</ele><time>2026-03-27T17:33:20.862Z</time></trkpt><trkpt lat="40.4562065" lon="9.7264303"><ele>79.71428571428571</ele><time>2026-03-27T17:33:24.843Z</time></trkpt><trkpt lat="40.4561959" lon="9.7263449"><ele>79.42857142857143</ele><time>2026-03-27T17:33:35.834Z</time></trkpt><trkpt lat="40.4561988" lon="9.7262593"><ele>79.14285714285714</ele><time>2026-03-27T17:33:49.836Z</time></trkpt><trkpt lat="40.4562691" lon="9.726246"><ele>78.85714285714286</ele><time>2026-03-27T17:33:53.84Z</time></trkpt><trkpt lat="40.4563379" lon="9.7262264"><ele>78.57142857142857</ele><time>2026-03-27T17:33:56.839Z</time></trkpt><trkpt lat="40.4564173" lon="9.7261668"><ele>78.28571428571429</ele><time>2026-03-27T17:33:59.838Z</time></trkpt><trkpt lat="40.4564816" lon="9.726123"><ele>78.0</ele><time>2026-03-27T17:34:01.837Z</time></trkpt><trkpt lat="40.4565562" lon="9.7260637"><ele>77.66666666666667</ele><time>2026-03-27T17:34:03.836Z</time></trkpt><trkpt lat="40.4566258" lon="9.7259959"><ele>77.33333333333333</ele><time>2026-03-27T17:34:05.842Z</time></trkpt><trkpt lat="40.4566871" lon="9.7259076"><ele>77.0</ele><time>2026-03-27T17:34:07.837Z</time></trkpt><trkpt lat="40.4567332" lon="9.72582"><ele>76.66666666666666</ele><time>2026-03-27T17:34:09.842Z</time></trkpt><trkpt lat="40.4567787" lon="9.7257325"><ele>76.33333333333333</ele><time>2026-03-27T17:34:11.837Z</time></trkpt><trkpt lat="40.4568225" lon="9.7256556"><ele>76.0</ele><time>2026-03-27T17:34:13.834Z</time></trkpt><trkpt lat="40.4568624" lon="9.7255326"><ele>76.0</ele><time>2026-03-27T17:34:23.845Z</time></trkpt><trkpt lat="40.4568872" lon="9.7254529"><ele>76.0</ele><time>2026-03-27T17:34:24.841Z</time></trkpt><trkpt lat="40.4569139" lon="9.7253664"><ele>76.0</ele><time>2026-03-27T17:34:25.835Z</time></trkpt><trkpt lat="40.4569491" lon="9.7252677"><ele>76.0</ele><time>2026-03-27T17:34:26.836Z</time></trkpt><trkpt lat="40.4569747" lon="9.7251874"><ele>76.0</ele><time>2026-03-27T17:34:27.838Z</time></trkpt><trkpt lat="40.4569942" lon="9.7250695"><ele>76.0</ele><time>2026-03-27T17:34:28.839Z</time></trkpt><trkpt lat="40.4570249" lon="9.724948"><ele>76.2</ele><time>2026-03-27T17:34:29.834Z</time></trkpt><trkpt lat="40.4570561" lon="9.7248239"><ele>76.39999999999999</ele><time>2026-03-27T17:34:30.838Z</time></trkpt><trkpt lat="40.4570823" lon="9.7247161"><ele>76.6</ele><time>2026-03-27T17:34:31.838Z</time></trkpt><trkpt lat="40.4570948" lon="9.7246286"><ele>76.8</ele><time>2026-03-27T17:34:32.835Z</time></trkpt><trkpt lat="40.4571589" lon="9.7244978"><ele>77.0</ele><time>2026-03-27T17:34:34.834Z</time></trkpt><trkpt lat="40.4572124" lon="9.7243852"><ele>78.0</ele><time>2026-03-27T17:34:36.837Z</time></trkpt><trkpt lat="40.4572287" lon="9.7242683"><ele>79.0</ele><time>2026-03-27T17:34:38.842Z</time></trkpt><trkpt lat="40.4572699" lon="9.7241666"><ele>80.0</ele><time>2026-03-27T17:34:40.837Z</time></trkpt><trkpt lat="40.4572865" lon="9.7240257"><ele>81.0</ele><time>2026-03-27T17:34:42.841Z</time></trkpt><trkpt lat="40.4572883" lon="9.7239425"><ele>82.0</ele><time>2026-03-27T17:34:43.85Z</time></trkpt><trkpt lat="40.4572943" lon="9.7238076"><ele>82.0</ele><time>2026-03-27T17:34:45.841Z</time></trkpt><trkpt lat="40.45735" lon="9.7236571"><ele>82.0</ele><time>2026-03-27T17:34:47.833Z</time></trkpt><trkpt lat="40.4573438" lon="9.7235561"><ele>82.0</ele><time>2026-03-27T17:34:48.831Z</time></trkpt><trkpt lat="40.4573366" lon="9.7234703"><ele>82.0</ele><time>2026-03-27T17:34:49.832Z</time></trkpt><trkpt lat="40.4573611" lon="9.7233416"><ele>82.0</ele><time>2026-03-27T17:34:51.843Z</time></trkpt><trkpt lat="40.4573974" lon="9.7232726"><ele>82.0</ele><time>2026-03-27T17:34:52.837Z</time></trkpt><trkpt lat="40.4574546" lon="9.7231466"><ele>83.19999999999999</ele><time>2026-03-27T17:34:54.841Z</time></trkpt><trkpt lat="40.4574454" lon="9.7229786"><ele>84.4</ele><time>2026-03-27T17:34:56.839Z</time></trkpt><trkpt lat="40.4574294" lon="9.7228581"><ele>85.6</ele><time>2026-03-27T17:34:57.841Z</time></trkpt><trkpt lat="40.4574135" lon="9.7227308"><ele>86.80000000000001</ele><time>2026-03-27T17:34:58.837Z</time></trkpt><trkpt lat="40.4573967" lon="9.7226113"><ele>88.0</ele><time>2026-03-27T17:34:59.843Z</time></trkpt><trkpt lat="40.4573848" lon="9.7224959"><ele>88.33333333333333</ele><time>2026-03-27T17:35:00.845Z</time></trkpt><trkpt lat="40.4573759" lon="9.7223763"><ele>88.66666666666666</ele><time>2026-03-27T17:35:01.841Z</time></trkpt><trkpt lat="40.4573686" lon="9.7222661"><ele>89.0</ele><time>2026-03-27T17:35:02.838Z</time></trkpt><trkpt lat="40.4573592" lon="9.7221673"><ele>89.33333333333333</ele><time>2026-03-27T17:35:03.842Z</time></trkpt><trkpt lat="40.4573428" lon="9.72208"><ele>89.66666666666667</ele><time>2026-03-27T17:35:04.834Z</time></trkpt><trkpt lat="40.4573057" lon="9.7219771"><ele>90.0</ele><time>2026-03-27T17:35:05.836Z</time></trkpt><trkpt lat="40.457264" lon="9.7218658"><ele>90.5</ele><time>2026-03-27T17:35:06.837Z</time></trkpt><trkpt lat="40.4572283" lon="9.7217522"><ele>91.0</ele><time>2026-03-27T17:35:07.839Z</time></trkpt><trkpt lat="40.457195" lon="9.7216543"><ele>91.5</ele><time>2026-03-27T17:35:08.837Z</time></trkpt><trkpt lat="40.4571657" lon="9.7215484"><ele>92.0</ele><time>2026-03-27T17:35:09.838Z</time></trkpt><trkpt lat="40.457144" lon="9.7214511"><ele>92.5</ele><time>2026-03-27T17:35:10.835Z</time></trkpt><trkpt lat="40.4571135" lon="9.7213778"><ele>93.0</ele><time>2026-03-27T17:35:11.841Z</time></trkpt><trkpt lat="40.4570714" lon="9.7213128"><ele>93.4</ele><time>2026-03-27T17:35:12.835Z</time></trkpt><trkpt lat="40.4570063" lon="9.7212491"><ele>93.80000000000001</ele><time>2026-03-27T17:35:13.837Z</time></trkpt><trkpt lat="40.4569508" lon="9.7211959"><ele>94.2</ele><time>2026-03-27T17:35:14.836Z</time></trkpt><trkpt lat="40.456866" lon="9.7211043"><ele>94.6</ele><time>2026-03-27T17:35:16.836Z</time></trkpt><trkpt lat="40.4568367" lon="9.7209586"><ele>95.0</ele><time>2026-03-27T17:35:18.839Z</time></trkpt><trkpt lat="40.4568252" lon="9.7208522"><ele>95.16666666666667</ele><time>2026-03-27T17:35:19.839Z</time></trkpt><trkpt lat="40.4568031" lon="9.7207361"><ele>95.33333333333334</ele><time>2026-03-27T17:35:20.837Z</time></trkpt><trkpt lat="40.4567737" lon="9.7206353"><ele>95.5</ele><time>2026-03-27T17:35:21.84Z</time></trkpt><trkpt lat="40.4567517" lon="9.7204728"><ele>95.66666666666667</ele><time>2026-03-27T17:35:23.86Z</time></trkpt><trkpt lat="40.4567542" lon="9.7203734"><ele>95.83333333333333</ele><time>2026-03-27T17:35:24.837Z</time></trkpt><trkpt lat="40.4567512" lon="9.7202798"><ele>96.0</ele><time>2026-03-27T17:35:25.858Z</time></trkpt><trkpt lat="40.4566851" lon="9.7201803"><ele>97.16666666666667</ele><time>2026-03-27T17:35:27.837Z</time></trkpt><trkpt lat="40.4566231" lon="9.7201394"><ele>98.33333333333334</ele><time>2026-03-27T17:35:28.837Z</time></trkpt><trkpt lat="40.456553" lon="9.7200984"><ele>99.5</ele><time>2026-03-27T17:35:29.832Z</time></trkpt><trkpt lat="40.456484" lon="9.7200493"><ele>100.66666666666667</ele><time>2026-03-27T17:35:30.834Z</time></trkpt><trkpt lat="40.4564116" lon="9.7199706"><ele>101.83333333333334</ele><time>2026-03-27T17:35:32.842Z</time></trkpt><trkpt lat="40.4563951" lon="9.7198606"><ele>103.0</ele><time>2026-03-27T17:35:34.846Z</time></trkpt><trkpt lat="40.4564006" lon="9.7197736"><ele>103.00000000000001</ele><time>2026-03-27T17:35:35.834Z</time></trkpt><trkpt lat="40.4563946" lon="9.7196347"><ele>103.0</ele><time>2026-03-27T17:35:37.835Z</time></trkpt><trkpt lat="40.4564513" lon="9.7195615"><ele>103.0</ele><time>2026-03-27T17:35:40.847Z</time></trkpt><trkpt lat="40.4565201" lon="9.7195283"><ele>103.0</ele><time>2026-03-27T17:35:41.838Z</time></trkpt><trkpt lat="40.4565895" lon="9.7194927"><ele>103.00000000000001</ele><time>2026-03-27T17:35:42.839Z</time></trkpt><trkpt lat="40.4566437" lon="9.7194218"><ele>103.0</ele><time>2026-03-27T17:35:43.842Z</time></trkpt><trkpt lat="40.4566832" lon="9.7193502"><ele>104.60000000000001</ele><time>2026-03-27T17:35:44.832Z</time></trkpt><trkpt lat="40.4567792" lon="9.7192935"><ele>106.2</ele><time>2026-03-27T17:35:46.835Z</time></trkpt><trkpt lat="40.456896" lon="9.7192811"><ele>107.8</ele><time>2026-03-27T17:35:48.843Z</time></trkpt><trkpt lat="40.4569655" lon="9.7192829"><ele>109.4</ele><time>2026-03-27T17:35:49.844Z</time></trkpt><trkpt lat="40.4570423" lon="9.7192786"><ele>111.0</ele><time>2026-03-27T17:35:50.837Z</time></trkpt><trkpt lat="40.4571257" lon="9.7192742"><ele>112.16666666666667</ele><time>2026-03-27T17:35:51.83Z</time></trkpt><trkpt lat="40.457201" lon="9.7192741"><ele>113.33333333333334</ele><time>2026-03-27T17:35:52.835Z</time></trkpt><trkpt lat="40.4572675" lon="9.7192749"><ele>114.5</ele><time>2026-03-27T17:35:53.839Z</time></trkpt><trkpt lat="40.4573582" lon="9.7192596"><ele>115.66666666666667</ele><time>2026-03-27T17:35:55.838Z</time></trkpt><trkpt lat="40.457418" lon="9.7191611"><ele>116.83333333333334</ele><time>2026-03-27T17:35:58.839Z</time></trkpt><trkpt lat="40.4575039" lon="9.7190812"><ele>118.0</ele><time>2026-03-27T17:36:00.837Z</time></trkpt><trkpt lat="40.4575616" lon="9.7189975"><ele>118.0</ele><time>2026-03-27T17:36:02.837Z</time></trkpt><trkpt lat="40.4575344" lon="9.7188963"><ele>118.00000000000001</ele><time>2026-03-27T17:36:04.838Z</time></trkpt><trkpt lat="40.4575392" lon="9.7187519"><ele>118.00000000000001</ele><time>2026-03-27T17:36:06.841Z</time></trkpt><trkpt lat="40.4575926" lon="9.7185886"><ele>118.0</ele><time>2026-03-27T17:36:08.834Z</time></trkpt><trkpt lat="40.4576494" lon="9.7184976"><ele>118.0</ele><time>2026-03-27T17:36:09.836Z</time></trkpt><trkpt lat="40.4576992" lon="9.7184183"><ele>118.60000000000001</ele><time>2026-03-27T17:36:10.841Z</time></trkpt><trkpt lat="40.4577542" lon="9.7182991"><ele>119.20000000000002</ele><time>2026-03-27T17:36:12.848Z</time></trkpt><trkpt lat="40.4578246" lon="9.7181876"><ele>119.8</ele><time>2026-03-27T17:36:14.836Z</time></trkpt><trkpt lat="40.4578989" lon="9.7181148"><ele>120.4</ele><time>2026-03-27T17:36:16.834Z</time></trkpt><trkpt lat="40.4579677" lon="9.7180852"><ele>121.0</ele><time>2026-03-27T17:36:18.84Z</time></trkpt><trkpt lat="40.4580348" lon="9.7180292"><ele>121.83333333333334</ele><time>2026-03-27T17:36:24.842Z</time></trkpt><trkpt lat="40.4580395" lon="9.7179413"><ele>122.66666666666667</ele><time>2026-03-27T17:36:27.839Z</time></trkpt><trkpt lat="40.4580104" lon="9.717849"><ele>123.5</ele><time>2026-03-27T17:36:30.837Z</time></trkpt><trkpt lat="40.4579652" lon="9.7177734"><ele>124.33333333333334</ele><time>2026-03-27T17:40:55.843Z</time></trkpt><trkpt lat="40.4579247" lon="9.717707"><ele>125.16666666666667</ele><time>2026-03-27T17:41:02.843Z</time></trkpt><trkpt lat="40.45787" lon="9.7175964"><ele>126.0</ele><time>2026-03-27T17:44:11.823Z</time></trkpt><trkpt lat="40.4578179" lon="9.7175216"><ele>126.0</ele><time>2026-03-27T17:44:14.851Z</time></trkpt><trkpt lat="40.4577733" lon="9.7174274"><ele>126.0</ele><time>2026-03-27T17:44:17.849Z</time></trkpt><trkpt lat="40.4577185" lon="9.7173352"><ele>126.0</ele><time>2026-03-27T17:44:20.845Z</time></trkpt><trkpt lat="40.4576737" lon="9.7172479"><ele>126.0</ele><time>2026-03-27T17:44:22.851Z</time></trkpt><trkpt lat="40.4575935" lon="9.7171044"><ele>126.0</ele><time>2026-03-27T17:44:24.846Z</time></trkpt><trkpt lat="40.4575382" lon="9.717009"><ele>127.19999999999999</ele><time>2026-03-27T17:44:25.84Z</time></trkpt><trkpt lat="40.4574933" lon="9.7169014"><ele>128.39999999999998</ele><time>2026-03-27T17:44:26.851Z</time></trkpt><trkpt lat="40.4574409" lon="9.7167955"><ele>129.6</ele><time>2026-03-27T17:44:27.842Z</time></trkpt><trkpt lat="40.4574198" lon="9.7166668"><ele>130.79999999999998</ele><time>2026-03-27T17:44:28.843Z</time></trkpt><trkpt lat="40.4574057" lon="9.7165427"><ele>132.0</ele><time>2026-03-27T17:44:29.84Z</time></trkpt><trkpt lat="40.4573844" lon="9.7164184"><ele>132.0</ele><time>2026-03-27T17:44:30.845Z</time></trkpt><trkpt lat="40.4573572" lon="9.7163002"><ele>132.0</ele><time>2026-03-27T17:44:31.842Z</time></trkpt><trkpt lat="40.4573144" lon="9.7161877"><ele>132.0</ele><time>2026-03-27T17:44:32.857Z</time></trkpt><trkpt lat="40.4572526" lon="9.7160819"><ele>132.0</ele><time>2026-03-27T17:44:33.834Z</time></trkpt><trkpt lat="40.4571668" lon="9.7159837"><ele>132.0</ele><time>2026-03-27T17:44:34.846Z</time></trkpt><trkpt lat="40.4570643" lon="9.7158876"><ele>131.5</ele><time>2026-03-27T17:44:35.848Z</time></trkpt><trkpt lat="40.4569611" lon="9.715791"><ele>131.0</ele><time>2026-03-27T17:44:36.849Z</time></trkpt><trkpt lat="40.4568531" lon="9.7157109"><ele>130.5</ele><time>2026-03-27T17:44:37.846Z</time></trkpt><trkpt lat="40.4567606" lon="9.7156327"><ele>130.0</ele><time>2026-03-27T17:44:38.843Z</time></trkpt><trkpt lat="40.4567024" lon="9.7155374"><ele>130.0</ele><time>2026-03-27T17:44:39.846Z</time></trkpt><trkpt lat="40.4566678" lon="9.7154339"><ele>130.0</ele><time>2026-03-27T17:44:40.849Z</time></trkpt><trkpt lat="40.4566459" lon="9.7153223"><ele>130.0</ele><time>2026-03-27T17:44:41.847Z</time></trkpt><trkpt lat="40.456618" lon="9.7152325"><ele>130.0</ele><time>2026-03-27T17:44:42.835Z</time></trkpt><trkpt lat="40.456577" lon="9.715166"><ele>130.0</ele><time>2026-03-27T17:44:43.843Z</time></trkpt><trkpt lat="40.4564543" lon="9.7151274"><ele>130.0</ele><time>2026-03-27T17:44:45.847Z</time></trkpt><trkpt lat="40.4563768" lon="9.7151593"><ele>133.25</ele><time>2026-03-27T17:44:46.849Z</time></trkpt><trkpt lat="40.4562847" lon="9.7152146"><ele>136.5</ele><time>2026-03-27T17:44:47.844Z</time></trkpt><trkpt lat="40.4561773" lon="9.7152786"><ele>139.75</ele><time>2026-03-27T17:44:48.84Z</time></trkpt><trkpt lat="40.4560486" lon="9.7153355"><ele>143.0</ele><time>2026-03-27T17:44:49.843Z</time></trkpt><trkpt lat="40.4559071" lon="9.7153922"><ele>143.0</ele><time>2026-03-27T17:44:50.852Z</time></trkpt><trkpt lat="40.4557554" lon="9.7154606"><ele>143.0</ele><time>2026-03-27T17:44:51.85Z</time></trkpt><trkpt lat="40.4556007" lon="9.7155462"><ele>143.0</ele><time>2026-03-27T17:44:52.85Z</time></trkpt><trkpt lat="40.4554406" lon="9.7156399"><ele>149.0</ele><time>2026-03-27T17:44:53.851Z</time></trkpt><trkpt lat="40.4552761" lon="9.715738"><ele>155.0</ele><time>2026-03-27T17:44:54.855Z</time></trkpt><trkpt lat="40.4551182" lon="9.7158358"><ele>161.0</ele><time>2026-03-27T17:44:55.849Z</time></trkpt><trkpt lat="40.4549758" lon="9.715925"><ele>161.0</ele><time>2026-03-27T17:44:56.849Z</time></trkpt><trkpt lat="40.4548523" lon="9.7160131"><ele>161.0</ele><time>2026-03-27T17:44:57.848Z</time></trkpt><trkpt lat="40.4547563" lon="9.716108"><ele>161.0</ele><time>2026-03-27T17:44:58.848Z</time></trkpt><trkpt lat="40.4546873" lon="9.7162139"><ele>161.0</ele><time>2026-03-27T17:44:59.84Z</time></trkpt><trkpt lat="40.4546446" lon="9.7163378"><ele>159.5</ele><time>2026-03-27T17:45:00.836Z</time></trkpt><trkpt lat="40.4546116" lon="9.7164642"><ele>158.0</ele><time>2026-03-27T17:45:01.837Z</time></trkpt><trkpt lat="40.4546132" lon="9.716626"><ele>156.5</ele><time>2026-03-27T17:45:02.839Z</time></trkpt><trkpt lat="40.4546235" lon="9.7167904"><ele>155.0</ele><time>2026-03-27T17:45:03.841Z</time></trkpt><trkpt lat="40.4546111" lon="9.7169787"><ele>159.25</ele><time>2026-03-27T17:45:04.854Z</time></trkpt><trkpt lat="40.4546051" lon="9.7171586"><ele>163.5</ele><time>2026-03-27T17:45:05.841Z</time></trkpt><trkpt lat="40.454544" lon="9.7173171"><ele>167.75</ele><time>2026-03-27T17:45:06.855Z</time></trkpt><trkpt lat="40.4545058" lon="9.7174716"><ele>172.0</ele><time>2026-03-27T17:45:07.847Z</time></trkpt><trkpt lat="40.4544415" lon="9.7175695"><ele>172.0</ele><time>2026-03-27T17:45:08.844Z</time></trkpt><trkpt lat="40.4543713" lon="9.7176216"><ele>172.0</ele><time>2026-03-27T17:45:09.84Z</time></trkpt><trkpt lat="40.454306" lon="9.7176388"><ele>172.0</ele><time>2026-03-27T17:45:10.839Z</time></trkpt><trkpt lat="40.4542403" lon="9.7176373"><ele>172.0</ele><time>2026-03-27T17:45:11.842Z</time></trkpt><trkpt lat="40.4541513" lon="9.7175722"><ele>172.0</ele><time>2026-03-27T17:45:12.842Z</time></trkpt><trkpt lat="40.4540677" lon="9.7174914"><ele>172.0</ele><time>2026-03-27T17:45:13.838Z</time></trkpt><trkpt lat="40.4540038" lon="9.7174169"><ele>172.0</ele><time>2026-03-27T17:45:14.838Z</time></trkpt><trkpt lat="40.4539925" lon="9.7172997"><ele>172.0</ele><time>2026-03-27T17:45:15.836Z</time></trkpt><trkpt lat="40.4539941" lon="9.7171888"><ele>172.0</ele><time>2026-03-27T17:45:16.846Z</time></trkpt><trkpt lat="40.4540027" lon="9.7170541"><ele>172.0</ele><time>2026-03-27T17:45:17.848Z</time></trkpt><trkpt lat="40.454003" lon="9.7169096"><ele>172.0</ele><time>2026-03-27T17:45:18.838Z</time></trkpt><trkpt lat="40.4539867" lon="9.7167546"><ele>173.75</ele><time>2026-03-27T17:45:19.834Z</time></trkpt><trkpt lat="40.453964" lon="9.7165942"><ele>175.5</ele><time>2026-03-27T17:45:20.844Z</time></trkpt><trkpt lat="40.4539308" lon="9.7164268"><ele>177.25</ele><time>2026-03-27T17:45:21.862Z</time></trkpt><trkpt lat="40.453898" lon="9.7162456"><ele>179.0</ele><time>2026-03-27T17:45:22.856Z</time></trkpt><trkpt lat="40.4538775" lon="9.7160481"><ele>182.0</ele><time>2026-03-27T17:45:23.841Z</time></trkpt><trkpt lat="40.4538947" lon="9.7158433"><ele>185.0</ele><time>2026-03-27T17:45:24.851Z</time></trkpt><trkpt lat="40.4539199" lon="9.715634"><ele>188.0</ele><time>2026-03-27T17:45:25.853Z</time></trkpt><trkpt lat="40.4539421" lon="9.7154313"><ele>188.0</ele><time>2026-03-27T17:45:26.84Z</time></trkpt><trkpt lat="40.4539669" lon="9.7152543"><ele>188.0</ele><time>2026-03-27T17:45:27.842Z</time></trkpt><trkpt lat="40.4539837" lon="9.7150858"><ele>188.0</ele><time>2026-03-27T17:45:28.84Z</time></trkpt><trkpt lat="40.45399" lon="9.7149496"><ele>188.0</ele><time>2026-03-27T17:45:29.835Z</time></trkpt><trkpt lat="40.4539789" lon="9.7148307"><ele>190.4</ele><time>2026-03-27T17:45:30.854Z</time></trkpt><trkpt lat="40.4539584" lon="9.7147231"><ele>192.8</ele><time>2026-03-27T17:45:31.852Z</time></trkpt><trkpt lat="40.4538873" lon="9.714637"><ele>195.2</ele><time>2026-03-27T17:45:32.841Z</time></trkpt><trkpt lat="40.4537997" lon="9.7145569"><ele>197.6</ele><time>2026-03-27T17:45:33.856Z</time></trkpt><trkpt lat="40.4536901" lon="9.7144704"><ele>200.0</ele><time>2026-03-27T17:45:34.841Z</time></trkpt><trkpt lat="40.4535576" lon="9.7143688"><ele>200.33333333333334</ele><time>2026-03-27T17:45:35.847Z</time></trkpt><trkpt lat="40.4534143" lon="9.7142573"><ele>200.66666666666669</ele><time>2026-03-27T17:45:36.869Z</time></trkpt><trkpt lat="40.4532683" lon="9.7141474"><ele>201.0</ele><time>2026-03-27T17:45:37.851Z</time></trkpt><trkpt lat="40.4531399" lon="9.7140409"><ele>201.0</ele><time>2026-03-27T17:45:38.848Z</time></trkpt><trkpt lat="40.4530187" lon="9.7139413"><ele>201.0</ele><time>2026-03-27T17:45:39.845Z</time></trkpt><trkpt lat="40.4529033" lon="9.7138379"><ele>201.0</ele><time>2026-03-27T17:45:40.883Z</time></trkpt><trkpt lat="40.4527957" lon="9.71373"><ele>201.0</ele><time>2026-03-27T17:45:41.854Z</time></trkpt><trkpt lat="40.452701" lon="9.7136249"><ele>199.0</ele><time>2026-03-27T17:45:42.853Z</time></trkpt><trkpt lat="40.452609" lon="9.7135117"><ele>197.0</ele><time>2026-03-27T17:45:43.84Z</time></trkpt><trkpt lat="40.4525269" lon="9.7133978"><ele>195.0</ele><time>2026-03-27T17:45:44.843Z</time></trkpt><trkpt lat="40.4524502" lon="9.7132856"><ele>193.0</ele><time>2026-03-27T17:45:45.846Z</time></trkpt><trkpt lat="40.4523813" lon="9.7131712"><ele>193.0</ele><time>2026-03-27T17:45:46.846Z</time></trkpt><trkpt lat="40.452314" lon="9.7130479"><ele>193.0</ele><time>2026-03-27T17:45:47.844Z</time></trkpt><trkpt lat="40.4522464" lon="9.7129148"><ele>193.0</ele><time>2026-03-27T17:45:48.846Z</time></trkpt><trkpt lat="40.4521784" lon="9.7127745"><ele>193.0</ele><time>2026-03-27T17:45:49.844Z</time></trkpt><trkpt lat="40.4521161" lon="9.7126357"><ele>190.0</ele><time>2026-03-27T17:45:50.843Z</time></trkpt><trkpt lat="40.4520543" lon="9.7125032"><ele>187.0</ele><time>2026-03-27T17:45:51.843Z</time></trkpt><trkpt lat="40.4519944" lon="9.7123604"><ele>184.0</ele><time>2026-03-27T17:45:52.841Z</time></trkpt><trkpt lat="40.4519365" lon="9.7122148"><ele>181.0</ele><time>2026-03-27T17:45:53.844Z</time></trkpt><trkpt lat="40.4518836" lon="9.7120675"><ele>181.0</ele><time>2026-03-27T17:45:54.858Z</time></trkpt><trkpt lat="40.4518299" lon="9.7119197"><ele>181.0</ele><time>2026-03-27T17:45:55.841Z</time></trkpt><trkpt lat="40.4517788" lon="9.711761"><ele>181.0</ele><time>2026-03-27T17:45:56.842Z</time></trkpt><trkpt lat="40.4517267" lon="9.7115985"><ele>181.0</ele><time>2026-03-27T17:45:57.838Z</time></trkpt><trkpt lat="40.4516744" lon="9.7114393"><ele>180.5</ele><time>2026-03-27T17:45:58.833Z</time></trkpt><trkpt lat="40.4516241" lon="9.7112774"><ele>180.0</ele><time>2026-03-27T17:45:59.856Z</time></trkpt><trkpt lat="40.4515708" lon="9.7111126"><ele>179.5</ele><time>2026-03-27T17:46:00.84Z</time></trkpt><trkpt lat="40.4515187" lon="9.7109416"><ele>179.0</ele><time>2026-03-27T17:46:01.851Z</time></trkpt><trkpt lat="40.4514641" lon="9.7107712"><ele>177.5</ele><time>2026-03-27T17:46:02.843Z</time></trkpt><trkpt lat="40.4514078" lon="9.7105981"><ele>176.0</ele><time>2026-03-27T17:46:03.856Z</time></trkpt><trkpt lat="40.4513537" lon="9.7104213"><ele>174.5</ele><time>2026-03-27T17:46:04.811Z</time></trkpt><trkpt lat="40.4512985" lon="9.7102343"><ele>173.0</ele><time>2026-03-27T17:46:05.816Z</time></trkpt><trkpt lat="40.4512402" lon="9.7100341"><ele>171.33333333333331</ele><time>2026-03-27T17:46:06.821Z</time></trkpt><trkpt lat="40.4511768" lon="9.7098309"><ele>169.66666666666666</ele><time>2026-03-27T17:46:07.828Z</time></trkpt><trkpt lat="40.451109" lon="9.7096208"><ele>168.0</ele><time>2026-03-27T17:46:08.826Z</time></trkpt><trkpt lat="40.451045" lon="9.7094284"><ele>168.0</ele><time>2026-03-27T17:46:09.82Z</time></trkpt><trkpt lat="40.450981" lon="9.7092487"><ele>168.0</ele><time>2026-03-27T17:46:10.818Z</time></trkpt><trkpt lat="40.4509128" lon="9.7091021"><ele>168.0</ele><time>2026-03-27T17:46:11.803Z</time></trkpt><trkpt lat="40.4508323" lon="9.7089857"><ele>168.0</ele><time>2026-03-27T17:46:12.809Z</time></trkpt><trkpt lat="40.4507323" lon="9.7089116"><ele>168.0</ele><time>2026-03-27T17:46:13.818Z</time></trkpt><trkpt lat="40.4506218" lon="9.7088704"><ele>168.0</ele><time>2026-03-27T17:46:14.811Z</time></trkpt><trkpt lat="40.4504949" lon="9.7088585"><ele>168.0</ele><time>2026-03-27T17:46:15.817Z</time></trkpt><trkpt lat="40.4503552" lon="9.7088666"><ele>168.0</ele><time>2026-03-27T17:46:16.815Z</time></trkpt><trkpt lat="40.4502044" lon="9.7088807"><ele>168.0</ele><time>2026-03-27T17:46:17.816Z</time></trkpt><trkpt lat="40.4500407" lon="9.7088936"><ele>168.0</ele><time>2026-03-27T17:46:18.814Z</time></trkpt><trkpt lat="40.4498789" lon="9.7088958"><ele>168.0</ele><time>2026-03-27T17:46:19.82Z</time></trkpt><trkpt lat="40.4497314" lon="9.7088939"><ele>166.75</ele><time>2026-03-27T17:46:20.806Z</time></trkpt><trkpt lat="40.4496064" lon="9.7088681"><ele>165.5</ele><time>2026-03-27T17:46:21.813Z</time></trkpt><trkpt lat="40.4494763" lon="9.708807"><ele>164.25</ele><time>2026-03-27T17:46:22.816Z</time></trkpt><trkpt lat="40.4493435" lon="9.7087224"><ele>163.0</ele><time>2026-03-27T17:46:23.821Z</time></trkpt><trkpt lat="40.4491953" lon="9.7086089"><ele>163.33333333333334</ele><time>2026-03-27T17:46:24.822Z</time></trkpt><trkpt lat="40.4490411" lon="9.7084814"><ele>163.66666666666666</ele><time>2026-03-27T17:46:25.83Z</time></trkpt><trkpt lat="40.4488859" lon="9.708353"><ele>164.0</ele><time>2026-03-27T17:46:26.815Z</time></trkpt><trkpt lat="40.4487236" lon="9.7082233"><ele>161.66666666666666</ele><time>2026-03-27T17:46:27.819Z</time></trkpt><trkpt lat="40.4485579" lon="9.7080897"><ele>159.33333333333334</ele><time>2026-03-27T17:46:28.813Z</time></trkpt><trkpt lat="40.4483892" lon="9.7079525"><ele>157.0</ele><time>2026-03-27T17:46:29.822Z</time></trkpt><trkpt lat="40.4482173" lon="9.707811"><ele>156.33333333333334</ele><time>2026-03-27T17:46:30.813Z</time></trkpt><trkpt lat="40.4480437" lon="9.7076621"><ele>155.66666666666666</ele><time>2026-03-27T17:46:31.83Z</time></trkpt><trkpt lat="40.4478708" lon="9.7075116"><ele>155.0</ele><time>2026-03-27T17:46:32.829Z</time></trkpt><trkpt lat="40.4477049" lon="9.7073668"><ele>155.0</ele><time>2026-03-27T17:46:33.81Z</time></trkpt><trkpt lat="40.4475425" lon="9.7072277"><ele>155.0</ele><time>2026-03-27T17:46:34.823Z</time></trkpt><trkpt lat="40.447384" lon="9.7070939"><ele>155.0</ele><time>2026-03-27T17:46:35.812Z</time></trkpt><trkpt lat="40.4472296" lon="9.7069621"><ele>154.33333333333331</ele><time>2026-03-27T17:46:36.811Z</time></trkpt><trkpt lat="40.4470817" lon="9.7068335"><ele>153.66666666666666</ele><time>2026-03-27T17:46:37.82Z</time></trkpt><trkpt lat="40.4469459" lon="9.7067047"><ele>153.0</ele><time>2026-03-27T17:46:38.825Z</time></trkpt><trkpt lat="40.4468178" lon="9.7065576"><ele>153.0</ele><time>2026-03-27T17:46:39.826Z</time></trkpt><trkpt lat="40.4466939" lon="9.7063924"><ele>153.0</ele><time>2026-03-27T17:46:40.822Z</time></trkpt><trkpt lat="40.4465695" lon="9.7062157"><ele>153.0</ele><time>2026-03-27T17:46:41.836Z</time></trkpt><trkpt lat="40.4464399" lon="9.706033"><ele>154.0</ele><time>2026-03-27T17:46:42.837Z</time></trkpt><trkpt lat="40.4463025" lon="9.7058555"><ele>155.0</ele><time>2026-03-27T17:46:43.845Z</time></trkpt><trkpt lat="40.4461538" lon="9.7056953"><ele>156.0</ele><time>2026-03-27T17:46:44.817Z</time></trkpt><trkpt lat="40.4459934" lon="9.7055557"><ele>154.33333333333334</ele><time>2026-03-27T17:46:45.817Z</time></trkpt><trkpt lat="40.445824" lon="9.7054324"><ele>152.66666666666669</ele><time>2026-03-27T17:46:46.832Z</time></trkpt><trkpt lat="40.4456543" lon="9.7053112"><ele>151.0</ele><time>2026-03-27T17:46:47.827Z</time></trkpt><trkpt lat="40.4454873" lon="9.7051994"><ele>150.33333333333334</ele><time>2026-03-27T17:46:48.832Z</time></trkpt><trkpt lat="40.4453013" lon="9.7050732"><ele>149.66666666666666</ele><time>2026-03-27T17:46:49.851Z</time></trkpt><trkpt lat="40.4451152" lon="9.704951"><ele>149.0</ele><time>2026-03-27T17:46:50.835Z</time></trkpt><trkpt lat="40.4449308" lon="9.7048299"><ele>149.0</ele><time>2026-03-27T17:46:51.832Z</time></trkpt><trkpt lat="40.444746" lon="9.7047099"><ele>149.0</ele><time>2026-03-27T17:46:52.826Z</time></trkpt><trkpt lat="40.4445669" lon="9.7045882"><ele>149.0</ele><time>2026-03-27T17:46:53.826Z</time></trkpt><trkpt lat="40.444401" lon="9.7044749"><ele>149.66666666666666</ele><time>2026-03-27T17:46:54.82Z</time></trkpt><trkpt lat="40.4442445" lon="9.7043702"><ele>150.33333333333334</ele><time>2026-03-27T17:46:55.827Z</time></trkpt><trkpt lat="40.4441021" lon="9.704274"><ele>151.0</ele><time>2026-03-27T17:46:56.829Z</time></trkpt><trkpt lat="40.4439693" lon="9.7041846"><ele>151.0</ele><time>2026-03-27T17:46:57.826Z</time></trkpt><trkpt lat="40.4438414" lon="9.7041014"><ele>151.0</ele><time>2026-03-27T17:46:58.821Z</time></trkpt><trkpt lat="40.4437087" lon="9.704016"><ele>151.0</ele><time>2026-03-27T17:46:59.833Z</time></trkpt><trkpt lat="40.4435645" lon="9.7039162"><ele>152.33333333333334</ele><time>2026-03-27T17:47:00.832Z</time></trkpt><trkpt lat="40.4434096" lon="9.7037933"><ele>153.66666666666666</ele><time>2026-03-27T17:47:01.827Z</time></trkpt><trkpt lat="40.4432484" lon="9.7036487"><ele>155.0</ele><time>2026-03-27T17:47:02.823Z</time></trkpt><trkpt lat="40.4430842" lon="9.7034974"><ele>153.66666666666666</ele><time>2026-03-27T17:47:03.838Z</time></trkpt><trkpt lat="40.4429144" lon="9.703334"><ele>152.33333333333334</ele><time>2026-03-27T17:47:04.827Z</time></trkpt><trkpt lat="40.4427414" lon="9.7031824"><ele>151.0</ele><time>2026-03-27T17:47:05.84Z</time></trkpt><trkpt lat="40.4425758" lon="9.7030367"><ele>151.0</ele><time>2026-03-27T17:47:06.826Z</time></trkpt><trkpt lat="40.442418" lon="9.7028853"><ele>151.0</ele><time>2026-03-27T17:47:07.821Z</time></trkpt><trkpt lat="40.4422726" lon="9.7027175"><ele>151.0</ele><time>2026-03-27T17:47:08.831Z</time></trkpt><trkpt lat="40.4421333" lon="9.7025377"><ele>150.0</ele><time>2026-03-27T17:47:09.826Z</time></trkpt><trkpt lat="40.4420071" lon="9.7023433"><ele>149.0</ele><time>2026-03-27T17:47:10.819Z</time></trkpt><trkpt lat="40.4418908" lon="9.7021386"><ele>148.0</ele><time>2026-03-27T17:47:11.827Z</time></trkpt><trkpt lat="40.4417881" lon="9.7019235"><ele>149.33333333333334</ele><time>2026-03-27T17:47:12.827Z</time></trkpt><trkpt lat="40.4416986" lon="9.7017036"><ele>150.66666666666666</ele><time>2026-03-27T17:47:13.822Z</time></trkpt><trkpt lat="40.4416153" lon="9.7014853"><ele>152.0</ele><time>2026-03-27T17:47:14.839Z</time></trkpt><trkpt lat="40.4415234" lon="9.7012692"><ele>152.33333333333331</ele><time>2026-03-27T17:47:15.822Z</time></trkpt><trkpt lat="40.4414169" lon="9.7010545"><ele>152.66666666666666</ele><time>2026-03-27T17:47:16.838Z</time></trkpt><trkpt lat="40.4412976" lon="9.700839"><ele>153.0</ele><time>2026-03-27T17:47:17.835Z</time></trkpt><trkpt lat="40.4411696" lon="9.7006181"><ele>151.66666666666666</ele><time>2026-03-27T17:47:18.84Z</time></trkpt><trkpt lat="40.4410389" lon="9.7003927"><ele>150.33333333333331</ele><time>2026-03-27T17:47:19.818Z</time></trkpt><trkpt lat="40.4409036" lon="9.700164"><ele>149.0</ele><time>2026-03-27T17:47:20.819Z</time></trkpt><trkpt lat="40.4407642" lon="9.6999315"><ele>148.0</ele><time>2026-03-27T17:47:21.823Z</time></trkpt><trkpt lat="40.4406216" lon="9.6996945"><ele>147.0</ele><time>2026-03-27T17:47:22.83Z</time></trkpt><trkpt lat="40.4404765" lon="9.6994548"><ele>143.0</ele><time>2026-03-27T17:47:23.836Z</time></trkpt><trkpt lat="40.4403301" lon="9.6992155"><ele>139.0</ele><time>2026-03-27T17:47:24.822Z</time></trkpt><trkpt lat="40.440182" lon="9.6989775"><ele>139.0</ele><time>2026-03-27T17:47:25.835Z</time></trkpt><trkpt lat="40.4400322" lon="9.6987434"><ele>139.0</ele><time>2026-03-27T17:47:26.835Z</time></trkpt><trkpt lat="40.4398831" lon="9.6985115"><ele>138.0</ele><time>2026-03-27T17:47:27.824Z</time></trkpt><trkpt lat="40.4397356" lon="9.6982797"><ele>137.0</ele><time>2026-03-27T17:47:28.824Z</time></trkpt><trkpt lat="40.439588" lon="9.6980465"><ele>135.5</ele><time>2026-03-27T17:47:29.818Z</time></trkpt><trkpt lat="40.4394408" lon="9.6978142"><ele>134.0</ele><time>2026-03-27T17:47:30.822Z</time></trkpt><trkpt lat="40.439295" lon="9.6975835"><ele>133.5</ele><time>2026-03-27T17:47:31.818Z</time></trkpt><trkpt lat="40.4391481" lon="9.697354"><ele>133.0</ele><time>2026-03-27T17:47:32.822Z</time></trkpt><trkpt lat="40.4390009" lon="9.697126"><ele>132.5</ele><time>2026-03-27T17:47:33.826Z</time></trkpt><trkpt lat="40.4388542" lon="9.6968984"><ele>132.0</ele><time>2026-03-27T17:47:34.839Z</time></trkpt><trkpt lat="40.4387072" lon="9.6966703"><ele>131.0</ele><time>2026-03-27T17:47:35.815Z</time></trkpt><trkpt lat="40.4385601" lon="9.6964426"><ele>130.0</ele><time>2026-03-27T17:47:36.829Z</time></trkpt><trkpt lat="40.4384137" lon="9.6962174"><ele>129.33333333333334</ele><time>2026-03-27T17:47:37.825Z</time></trkpt><trkpt lat="40.4382699" lon="9.695992"><ele>128.66666666666666</ele><time>2026-03-27T17:47:38.832Z</time></trkpt><trkpt lat="40.4381332" lon="9.6957668"><ele>128.0</ele><time>2026-03-27T17:47:39.819Z</time></trkpt><trkpt lat="40.4380128" lon="9.6955539"><ele>130.0</ele><time>2026-03-27T17:47:40.833Z</time></trkpt><trkpt lat="40.4379158" lon="9.6953533"><ele>132.0</ele><time>2026-03-27T17:47:41.814Z</time></trkpt><trkpt lat="40.4378488" lon="9.6951558"><ele>134.0</ele><time>2026-03-27T17:47:42.823Z</time></trkpt><trkpt lat="40.4378077" lon="9.6949485"><ele>134.33333333333331</ele><time>2026-03-27T17:47:43.826Z</time></trkpt><trkpt lat="40.4377751" lon="9.6947295"><ele>134.66666666666666</ele><time>2026-03-27T17:47:44.827Z</time></trkpt><trkpt lat="40.4377427" lon="9.6944991"><ele>135.0</ele><time>2026-03-27T17:47:45.829Z</time></trkpt><trkpt lat="40.4377049" lon="9.6942587"><ele>135.33333333333334</ele><time>2026-03-27T17:47:46.831Z</time></trkpt><trkpt lat="40.4376588" lon="9.6940245"><ele>135.66666666666669</ele><time>2026-03-27T17:47:47.819Z</time></trkpt><trkpt lat="40.4376041" lon="9.6937996"><ele>136.0</ele><time>2026-03-27T17:47:48.82Z</time></trkpt><trkpt lat="40.4375442" lon="9.693594"><ele>135.75</ele><time>2026-03-27T17:47:49.835Z</time></trkpt><trkpt lat="40.4374825" lon="9.6934179"><ele>135.5</ele><time>2026-03-27T17:47:50.843Z</time></trkpt><trkpt lat="40.4374194" lon="9.6932532"><ele>135.25</ele><time>2026-03-27T17:47:51.82Z</time></trkpt><trkpt lat="40.4373566" lon="9.6930909"><ele>135.0</ele><time>2026-03-27T17:47:52.84Z</time></trkpt><trkpt lat="40.4372977" lon="9.6929358"><ele>135.0</ele><time>2026-03-27T17:47:53.824Z</time></trkpt><trkpt lat="40.4372442" lon="9.6927942"><ele>135.0</ele><time>2026-03-27T17:47:54.823Z</time></trkpt><trkpt lat="40.4371967" lon="9.6926681"><ele>135.0</ele><time>2026-03-27T17:47:55.832Z</time></trkpt><trkpt lat="40.4371544" lon="9.6925563"><ele>135.0</ele><time>2026-03-27T17:47:56.826Z</time></trkpt><trkpt lat="40.437118" lon="9.692459"><ele>135.0</ele><time>2026-03-27T17:47:57.832Z</time></trkpt><trkpt lat="40.4370868" lon="9.6923692"><ele>134.4</ele><time>2026-03-27T17:47:58.836Z</time></trkpt><trkpt lat="40.4370544" lon="9.6922777"><ele>133.8</ele><time>2026-03-27T17:47:59.832Z</time></trkpt><trkpt lat="40.4370254" lon="9.6921951"><ele>133.2</ele><time>2026-03-27T17:48:00.832Z</time></trkpt><trkpt lat="40.4369771" lon="9.6920444"><ele>132.6</ele><time>2026-03-27T17:48:02.823Z</time></trkpt><trkpt lat="40.4369288" lon="9.6918931"><ele>132.0</ele><time>2026-03-27T17:48:04.821Z</time></trkpt><trkpt lat="40.4369046" lon="9.6918159"><ele>131.66666666666666</ele><time>2026-03-27T17:48:05.82Z</time></trkpt><trkpt lat="40.4368781" lon="9.6917385"><ele>131.33333333333334</ele><time>2026-03-27T17:48:06.823Z</time></trkpt><trkpt lat="40.4368509" lon="9.6916634"><ele>131.0</ele><time>2026-03-27T17:48:07.826Z</time></trkpt><trkpt lat="40.4367993" lon="9.6915119"><ele>130.66666666666669</ele><time>2026-03-27T17:48:09.826Z</time></trkpt><trkpt lat="40.4367541" lon="9.6913718"><ele>130.33333333333334</ele><time>2026-03-27T17:48:11.829Z</time></trkpt><trkpt lat="40.4367306" lon="9.6912946"><ele>130.0</ele><time>2026-03-27T17:48:12.817Z</time></trkpt><trkpt lat="40.4366933" lon="9.6912158"><ele>130.00000000000003</ele><time>2026-03-27T17:48:13.817Z</time></trkpt><trkpt lat="40.4366669" lon="9.6911254"><ele>130.0</ele><time>2026-03-27T17:48:14.823Z</time></trkpt><trkpt lat="40.4366327" lon="9.6910418"><ele>130.0</ele><time>2026-03-27T17:48:15.816Z</time></trkpt><trkpt lat="40.4366023" lon="9.6909577"><ele>130.0</ele><time>2026-03-27T17:48:16.83Z</time></trkpt><trkpt lat="40.4365719" lon="9.690867"><ele>130.0</ele><time>2026-03-27T17:48:17.817Z</time></trkpt><trkpt lat="40.4365414" lon="9.6907746"><ele>130.00000000000003</ele><time>2026-03-27T17:48:18.828Z</time></trkpt><trkpt lat="40.4365153" lon="9.6906875"><ele>130.0</ele><time>2026-03-27T17:48:19.819Z</time></trkpt><trkpt lat="40.4364855" lon="9.6905968"><ele>129.66666666666669</ele><time>2026-03-27T17:48:20.816Z</time></trkpt><trkpt lat="40.4364571" lon="9.6904996"><ele>129.33333333333334</ele><time>2026-03-27T17:48:21.805Z</time></trkpt><trkpt lat="40.4364242" lon="9.6904"><ele>129.0</ele><time>2026-03-27T17:48:22.82Z</time></trkpt><trkpt lat="40.4363925" lon="9.6902998"><ele>128.66666666666666</ele><time>2026-03-27T17:48:23.834Z</time></trkpt><trkpt lat="40.4363594" lon="9.6902088"><ele>128.33333333333331</ele><time>2026-03-27T17:48:24.829Z</time></trkpt><trkpt lat="40.436326" lon="9.6901195"><ele>128.0</ele><time>2026-03-27T17:48:25.826Z</time></trkpt><trkpt lat="40.4362914" lon="9.6900311"><ele>127.66666666666666</ele><time>2026-03-27T17:48:26.831Z</time></trkpt><trkpt lat="40.4362568" lon="9.6899356"><ele>127.33333333333333</ele><time>2026-03-27T17:48:27.83Z</time></trkpt><trkpt lat="40.4362206" lon="9.6898353"><ele>127.0</ele><time>2026-03-27T17:48:28.826Z</time></trkpt><trkpt lat="40.4361787" lon="9.6897314"><ele>126.66666666666666</ele><time>2026-03-27T17:48:29.85Z</time></trkpt><trkpt lat="40.4361337" lon="9.6896276"><ele>126.33333333333333</ele><time>2026-03-27T17:48:30.828Z</time></trkpt><trkpt lat="40.4360853" lon="9.6895228"><ele>126.0</ele><time>2026-03-27T17:48:31.826Z</time></trkpt><trkpt lat="40.436035" lon="9.6894064"><ele>125.25</ele><time>2026-03-27T17:48:32.824Z</time></trkpt><trkpt lat="40.4359778" lon="9.689285"><ele>124.5</ele><time>2026-03-27T17:48:33.84Z</time></trkpt><trkpt lat="40.435914" lon="9.6891537"><ele>123.75</ele><time>2026-03-27T17:48:34.83Z</time></trkpt><trkpt lat="40.4358506" lon="9.6890248"><ele>123.0</ele><time>2026-03-27T17:48:35.818Z</time></trkpt><trkpt lat="40.4357742" lon="9.6888999"><ele>123.0</ele><time>2026-03-27T17:48:36.82Z</time></trkpt><trkpt lat="40.4357014" lon="9.6887553"><ele>123.0</ele><time>2026-03-27T17:48:37.813Z</time></trkpt><trkpt lat="40.4356239" lon="9.6885991"><ele>123.0</ele><time>2026-03-27T17:48:38.832Z</time></trkpt><trkpt lat="40.4355364" lon="9.6884328"><ele>123.0</ele><time>2026-03-27T17:48:39.829Z</time></trkpt><trkpt lat="40.4354351" lon="9.6882603"><ele>121.33333333333334</ele><time>2026-03-27T17:48:40.835Z</time></trkpt><trkpt lat="40.4353219" lon="9.6880809"><ele>119.66666666666667</ele><time>2026-03-27T17:48:41.827Z</time></trkpt><trkpt lat="40.4351986" lon="9.6878999"><ele>118.0</ele><time>2026-03-27T17:48:42.829Z</time></trkpt><trkpt lat="40.4350569" lon="9.6877224"><ele>118.0</ele><time>2026-03-27T17:48:43.827Z</time></trkpt><trkpt lat="40.434911" lon="9.6875362"><ele>118.0</ele><time>2026-03-27T17:48:44.828Z</time></trkpt><trkpt lat="40.4347437" lon="9.6873761"><ele>118.0</ele><time>2026-03-27T17:48:45.831Z</time></trkpt><trkpt lat="40.4345738" lon="9.687223"><ele>117.0</ele><time>2026-03-27T17:48:46.836Z</time></trkpt><trkpt lat="40.4344048" lon="9.6870706"><ele>116.0</ele><time>2026-03-27T17:48:47.835Z</time></trkpt><trkpt lat="40.4342413" lon="9.6869261"><ele>115.0</ele><time>2026-03-27T17:48:48.828Z</time></trkpt><trkpt lat="40.4340864" lon="9.6867697"><ele>115.0</ele><time>2026-03-27T17:48:49.826Z</time></trkpt><trkpt lat="40.4339437" lon="9.686629"><ele>115.0</ele><time>2026-03-27T17:48:50.842Z</time></trkpt><trkpt lat="40.4338054" lon="9.6864917"><ele>115.0</ele><time>2026-03-27T17:48:51.829Z</time></trkpt><trkpt lat="40.4336808" lon="9.6863715"><ele>115.0</ele><time>2026-03-27T17:48:52.835Z</time></trkpt><trkpt lat="40.4335657" lon="9.6862708"><ele>115.0</ele><time>2026-03-27T17:48:53.84Z</time></trkpt><trkpt lat="40.4334487" lon="9.6861801"><ele>115.0</ele><time>2026-03-27T17:48:54.824Z</time></trkpt><trkpt lat="40.4333284" lon="9.6861073"><ele>115.0</ele><time>2026-03-27T17:48:55.82Z</time></trkpt><trkpt lat="40.4332017" lon="9.6860604"><ele>114.33333333333334</ele><time>2026-03-27T17:48:56.824Z</time></trkpt><trkpt lat="40.4330581" lon="9.6860458"><ele>113.66666666666666</ele><time>2026-03-27T17:48:57.818Z</time></trkpt><trkpt lat="40.4328929" lon="9.6860542"><ele>113.0</ele><time>2026-03-27T17:48:58.825Z</time></trkpt><trkpt lat="40.432709" lon="9.6860775"><ele>114.0</ele><time>2026-03-27T17:48:59.824Z</time></trkpt><trkpt lat="40.4325095" lon="9.6861074"><ele>115.0</ele><time>2026-03-27T17:49:00.823Z</time></trkpt><trkpt lat="40.4322987" lon="9.6861404"><ele>116.0</ele><time>2026-03-27T17:49:01.827Z</time></trkpt><trkpt lat="40.4320886" lon="9.6861736"><ele>116.33333333333333</ele><time>2026-03-27T17:49:02.829Z</time></trkpt><trkpt lat="40.4318852" lon="9.686202"><ele>116.66666666666666</ele><time>2026-03-27T17:49:03.824Z</time></trkpt><trkpt lat="40.431693" lon="9.6862289"><ele>117.0</ele><time>2026-03-27T17:49:04.836Z</time></trkpt><trkpt lat="40.4315141" lon="9.686255"><ele>117.0</ele><time>2026-03-27T17:49:05.83Z</time></trkpt><trkpt lat="40.4313448" lon="9.6862836"><ele>117.0</ele><time>2026-03-27T17:49:06.817Z</time></trkpt><trkpt lat="40.4311841" lon="9.6863061"><ele>117.0</ele><time>2026-03-27T17:49:07.816Z</time></trkpt><trkpt lat="40.4310207" lon="9.6863647"><ele>116.33333333333334</ele><time>2026-03-27T17:49:08.839Z</time></trkpt><trkpt lat="40.4308558" lon="9.6864064"><ele>115.66666666666667</ele><time>2026-03-27T17:49:09.834Z</time></trkpt><trkpt lat="40.4306909" lon="9.6864603"><ele>115.0</ele><time>2026-03-27T17:49:10.814Z</time></trkpt><trkpt lat="40.4305371" lon="9.6865141"><ele>113.33333333333334</ele><time>2026-03-27T17:49:11.83Z</time></trkpt><trkpt lat="40.430378" lon="9.6865636"><ele>111.66666666666666</ele><time>2026-03-27T17:49:12.84Z</time></trkpt><trkpt lat="40.4302214" lon="9.6866078"><ele>110.0</ele><time>2026-03-27T17:49:13.841Z</time></trkpt><trkpt lat="40.4300569" lon="9.6866298"><ele>110.0</ele><time>2026-03-27T17:49:14.819Z</time></trkpt><trkpt lat="40.4299057" lon="9.68663"><ele>110.0</ele><time>2026-03-27T17:49:15.83Z</time></trkpt><trkpt lat="40.4297528" lon="9.6866065"><ele>110.0</ele><time>2026-03-27T17:49:16.82Z</time></trkpt><trkpt lat="40.4296094" lon="9.6865676"><ele>109.6</ele><time>2026-03-27T17:49:17.826Z</time></trkpt><trkpt lat="40.4294905" lon="9.6865279"><ele>109.2</ele><time>2026-03-27T17:49:18.825Z</time></trkpt><trkpt lat="40.4293983" lon="9.6864809"><ele>108.80000000000001</ele><time>2026-03-27T17:49:19.825Z</time></trkpt><trkpt lat="40.4293168" lon="9.686408"><ele>108.4</ele><time>2026-03-27T17:49:20.818Z</time></trkpt><trkpt lat="40.4292529" lon="9.6863121"><ele>108.0</ele><time>2026-03-27T17:49:21.818Z</time></trkpt><trkpt lat="40.4291997" lon="9.6862026"><ele>107.75</ele><time>2026-03-27T17:49:22.821Z</time></trkpt><trkpt lat="40.4291529" lon="9.6860789"><ele>107.5</ele><time>2026-03-27T17:49:23.832Z</time></trkpt><trkpt lat="40.4291125" lon="9.6859321"><ele>107.25</ele><time>2026-03-27T17:49:24.83Z</time></trkpt><trkpt lat="40.4290781" lon="9.6857691"><ele>107.0</ele><time>2026-03-27T17:49:25.837Z</time></trkpt><trkpt lat="40.4290454" lon="9.685584"><ele>107.0</ele><time>2026-03-27T17:49:26.834Z</time></trkpt><trkpt lat="40.4290098" lon="9.685408"><ele>107.0</ele><time>2026-03-27T17:49:27.83Z</time></trkpt><trkpt lat="40.4289673" lon="9.6852469"><ele>107.0</ele><time>2026-03-27T17:49:28.835Z</time></trkpt><trkpt lat="40.4289072" lon="9.6851137"><ele>107.0</ele><time>2026-03-27T17:49:29.822Z</time></trkpt><trkpt lat="40.4288311" lon="9.6849986"><ele>109.5</ele><time>2026-03-27T17:49:30.823Z</time></trkpt><trkpt lat="40.4287363" lon="9.6849124"><ele>112.0</ele><time>2026-03-27T17:49:31.811Z</time></trkpt><trkpt lat="40.4286304" lon="9.6848592"><ele>114.5</ele><time>2026-03-27T17:49:32.816Z</time></trkpt><trkpt lat="40.4285107" lon="9.6848407"><ele>117.0</ele><time>2026-03-27T17:49:33.818Z</time></trkpt><trkpt lat="40.4283833" lon="9.684851"><ele>117.0</ele><time>2026-03-27T17:49:34.823Z</time></trkpt><trkpt lat="40.4282472" lon="9.6848621"><ele>117.0</ele><time>2026-03-27T17:49:35.816Z</time></trkpt><trkpt lat="40.4281042" lon="9.6848666"><ele>117.0</ele><time>2026-03-27T17:49:36.821Z</time></trkpt><trkpt lat="40.4279546" lon="9.6848448"><ele>117.0</ele><time>2026-03-27T17:49:37.819Z</time></trkpt><trkpt lat="40.4278176" lon="9.6847807"><ele>120.25</ele><time>2026-03-27T17:49:38.817Z</time></trkpt><trkpt lat="40.4276945" lon="9.6847047"><ele>123.5</ele><time>2026-03-27T17:49:39.828Z</time></trkpt><trkpt lat="40.4275788" lon="9.6846143"><ele>126.75</ele><time>2026-03-27T17:49:40.82Z</time></trkpt><trkpt lat="40.4274643" lon="9.6845214"><ele>130.0</ele><time>2026-03-27T17:49:41.821Z</time></trkpt><trkpt lat="40.4273488" lon="9.684433"><ele>126.25</ele><time>2026-03-27T17:49:42.841Z</time></trkpt><trkpt lat="40.4272249" lon="9.6843472"><ele>122.5</ele><time>2026-03-27T17:49:43.824Z</time></trkpt><trkpt lat="40.4271055" lon="9.68426"><ele>118.75</ele><time>2026-03-27T17:49:44.831Z</time></trkpt><trkpt lat="40.4269898" lon="9.6841782"><ele>115.0</ele><time>2026-03-27T17:49:45.823Z</time></trkpt><trkpt lat="40.426874" lon="9.6841041"><ele>115.0</ele><time>2026-03-27T17:49:46.836Z</time></trkpt><trkpt lat="40.4267478" lon="9.6840479"><ele>115.0</ele><time>2026-03-27T17:49:47.833Z</time></trkpt><trkpt lat="40.4266039" lon="9.6840146"><ele>115.0</ele><time>2026-03-27T17:49:48.82Z</time></trkpt><trkpt lat="40.4264489" lon="9.6840033"><ele>115.0</ele><time>2026-03-27T17:49:49.82Z</time></trkpt><trkpt lat="40.4262923" lon="9.6840098"><ele>112.75</ele><time>2026-03-27T17:49:50.824Z</time></trkpt><trkpt lat="40.426138" lon="9.6840227"><ele>110.5</ele><time>2026-03-27T17:49:51.832Z</time></trkpt><trkpt lat="40.4260035" lon="9.6840466"><ele>108.25</ele><time>2026-03-27T17:49:52.845Z</time></trkpt><trkpt lat="40.4258781" lon="9.6840927"><ele>106.0</ele><time>2026-03-27T17:49:53.833Z</time></trkpt><trkpt lat="40.4257586" lon="9.6841779"><ele>106.0</ele><time>2026-03-27T17:49:54.833Z</time></trkpt><trkpt lat="40.4256417" lon="9.6842975"><ele>106.0</ele><time>2026-03-27T17:49:55.828Z</time></trkpt><trkpt lat="40.4255285" lon="9.6844355"><ele>106.0</ele><time>2026-03-27T17:49:56.821Z</time></trkpt><trkpt lat="40.4254024" lon="9.6845613"><ele>109.33333333333334</ele><time>2026-03-27T17:49:57.84Z</time></trkpt><trkpt lat="40.4252629" lon="9.6846622"><ele>112.66666666666666</ele><time>2026-03-27T17:49:58.831Z</time></trkpt><trkpt lat="40.425114" lon="9.6847252"><ele>116.0</ele><time>2026-03-27T17:49:59.829Z</time></trkpt><trkpt lat="40.4249593" lon="9.6847623"><ele>116.0</ele><time>2026-03-27T17:50:00.826Z</time></trkpt><trkpt lat="40.4248083" lon="9.6847863"><ele>116.0</ele><time>2026-03-27T17:50:01.836Z</time></trkpt><trkpt lat="40.4246695" lon="9.6847572"><ele>116.0</ele><time>2026-03-27T17:50:02.823Z</time></trkpt><trkpt lat="40.4245418" lon="9.6846669"><ele>116.0</ele><time>2026-03-27T17:50:03.831Z</time></trkpt><trkpt lat="40.4244238" lon="9.6845779"><ele>116.0</ele><time>2026-03-27T17:50:04.823Z</time></trkpt><trkpt lat="40.4242891" lon="9.6844704"><ele>116.0</ele><time>2026-03-27T17:50:05.817Z</time></trkpt><trkpt lat="40.4241544" lon="9.6843572"><ele>116.0</ele><time>2026-03-27T17:50:06.833Z</time></trkpt><trkpt lat="40.4240263" lon="9.6842514"><ele>113.25</ele><time>2026-03-27T17:50:07.825Z</time></trkpt><trkpt lat="40.4238961" lon="9.6841622"><ele>110.5</ele><time>2026-03-27T17:50:08.829Z</time></trkpt><trkpt lat="40.423768" lon="9.6840829"><ele>107.75</ele><time>2026-03-27T17:50:09.827Z</time></trkpt><trkpt lat="40.4236498" lon="9.6840066"><ele>105.0</ele><time>2026-03-27T17:50:10.817Z</time></trkpt><trkpt lat="40.423548" lon="9.6839104"><ele>104.75</ele><time>2026-03-27T17:50:11.813Z</time></trkpt><trkpt lat="40.4234673" lon="9.683787"><ele>104.5</ele><time>2026-03-27T17:50:12.814Z</time></trkpt><trkpt lat="40.4234052" lon="9.6836483"><ele>104.25</ele><time>2026-03-27T17:50:13.833Z</time></trkpt><trkpt lat="40.4233457" lon="9.6835147"><ele>104.0</ele><time>2026-03-27T17:50:14.837Z</time></trkpt><trkpt lat="40.4232631" lon="9.6834203"><ele>103.0</ele><time>2026-03-27T17:50:15.836Z</time></trkpt><trkpt lat="40.4231566" lon="9.6833607"><ele>102.0</ele><time>2026-03-27T17:50:16.833Z</time></trkpt><trkpt lat="40.4230289" lon="9.6833044"><ele>101.0</ele><time>2026-03-27T17:50:17.825Z</time></trkpt><trkpt lat="40.4229012" lon="9.6832466"><ele>100.0</ele><time>2026-03-27T17:50:18.824Z</time></trkpt><trkpt lat="40.4227906" lon="9.6831299"><ele>98.75</ele><time>2026-03-27T17:50:19.832Z</time></trkpt><trkpt lat="40.4226913" lon="9.6830005"><ele>97.5</ele><time>2026-03-27T17:50:20.828Z</time></trkpt><trkpt lat="40.4226193" lon="9.6828382"><ele>96.25</ele><time>2026-03-27T17:50:21.824Z</time></trkpt><trkpt lat="40.4225633" lon="9.6826543"><ele>95.0</ele><time>2026-03-27T17:50:22.832Z</time></trkpt><trkpt lat="40.422511" lon="9.682453"><ele>94.66666666666667</ele><time>2026-03-27T17:50:23.822Z</time></trkpt><trkpt lat="40.4224608" lon="9.6822368"><ele>94.33333333333333</ele><time>2026-03-27T17:50:24.826Z</time></trkpt><trkpt lat="40.4224127" lon="9.6820212"><ele>94.0</ele><time>2026-03-27T17:50:25.835Z</time></trkpt><trkpt lat="40.4223742" lon="9.6818143"><ele>94.0</ele><time>2026-03-27T17:50:26.833Z</time></trkpt><trkpt lat="40.4223502" lon="9.6816215"><ele>94.0</ele><time>2026-03-27T17:50:27.835Z</time></trkpt><trkpt lat="40.4223475" lon="9.6814411"><ele>94.0</ele><time>2026-03-27T17:50:28.837Z</time></trkpt><trkpt lat="40.4223732" lon="9.681263"><ele>94.0</ele><time>2026-03-27T17:50:29.829Z</time></trkpt><trkpt lat="40.4224197" lon="9.6810784"><ele>94.0</ele><time>2026-03-27T17:50:30.833Z</time></trkpt><trkpt lat="40.4224775" lon="9.6808787"><ele>94.0</ele><time>2026-03-27T17:50:31.842Z</time></trkpt><trkpt lat="40.422538" lon="9.6806672"><ele>94.0</ele><time>2026-03-27T17:50:32.832Z</time></trkpt><trkpt lat="40.4226002" lon="9.680452"><ele>93.33333333333333</ele><time>2026-03-27T17:50:33.831Z</time></trkpt><trkpt lat="40.4226587" lon="9.6802432"><ele>92.66666666666667</ele><time>2026-03-27T17:50:34.825Z</time></trkpt><trkpt lat="40.4227126" lon="9.6800392"><ele>92.0</ele><time>2026-03-27T17:50:35.833Z</time></trkpt><trkpt lat="40.4227568" lon="9.6798315"><ele>92.0</ele><time>2026-03-27T17:50:36.834Z</time></trkpt><trkpt lat="40.4227903" lon="9.6796132"><ele>92.0</ele><time>2026-03-27T17:50:37.832Z</time></trkpt><trkpt lat="40.4228145" lon="9.6793821"><ele>92.0</ele><time>2026-03-27T17:50:38.82Z</time></trkpt><trkpt lat="40.422837" lon="9.6791472"><ele>92.0</ele><time>2026-03-27T17:50:39.829Z</time></trkpt><trkpt lat="40.4228597" lon="9.6789136"><ele>92.0</ele><time>2026-03-27T17:50:40.839Z</time></trkpt><trkpt lat="40.4228838" lon="9.6786791"><ele>92.0</ele><time>2026-03-27T17:50:41.836Z</time></trkpt><trkpt lat="40.4229067" lon="9.678443"><ele>92.66666666666667</ele><time>2026-03-27T17:50:42.835Z</time></trkpt><trkpt lat="40.422929" lon="9.6782154"><ele>93.33333333333333</ele><time>2026-03-27T17:50:43.831Z</time></trkpt><trkpt lat="40.4229511" lon="9.677998"><ele>94.0</ele><time>2026-03-27T17:50:44.819Z</time></trkpt><trkpt lat="40.4229738" lon="9.677785"><ele>93.33333333333333</ele><time>2026-03-27T17:50:45.837Z</time></trkpt><trkpt lat="40.4229994" lon="9.6775701"><ele>92.66666666666667</ele><time>2026-03-27T17:50:46.826Z</time></trkpt><trkpt lat="40.4230247" lon="9.6773586"><ele>92.0</ele><time>2026-03-27T17:50:47.825Z</time></trkpt><trkpt lat="40.4230391" lon="9.677163"><ele>92.0</ele><time>2026-03-27T17:50:48.837Z</time></trkpt><trkpt lat="40.4230328" lon="9.6769733"><ele>92.0</ele><time>2026-03-27T17:50:49.841Z</time></trkpt><trkpt lat="40.4230182" lon="9.6767854"><ele>92.0</ele><time>2026-03-27T17:50:50.831Z</time></trkpt><trkpt lat="40.4229674" lon="9.6765904"><ele>92.0</ele><time>2026-03-27T17:50:51.833Z</time></trkpt><trkpt lat="40.4229114" lon="9.6763911"><ele>91.75</ele><time>2026-03-27T17:50:52.831Z</time></trkpt><trkpt lat="40.4228585" lon="9.6762043"><ele>91.5</ele><time>2026-03-27T17:50:53.84Z</time></trkpt><trkpt lat="40.4228125" lon="9.6760334"><ele>91.25</ele><time>2026-03-27T17:50:54.831Z</time></trkpt><trkpt lat="40.4227776" lon="9.6758699"><ele>91.0</ele><time>2026-03-27T17:50:55.821Z</time></trkpt><trkpt lat="40.4227388" lon="9.6757103"><ele>91.0</ele><time>2026-03-27T17:50:56.822Z</time></trkpt><trkpt lat="40.4226972" lon="9.6755434"><ele>91.0</ele><time>2026-03-27T17:50:57.841Z</time></trkpt><trkpt lat="40.4226303" lon="9.6754092"><ele>91.0</ele><time>2026-03-27T17:50:58.824Z</time></trkpt><trkpt lat="40.422542" lon="9.6752791"><ele>91.0</ele><time>2026-03-27T17:50:59.828Z</time></trkpt><trkpt lat="40.4224342" lon="9.6751517"><ele>90.75</ele><time>2026-03-27T17:51:00.831Z</time></trkpt><trkpt lat="40.4223207" lon="9.6750309"><ele>90.5</ele><time>2026-03-27T17:51:01.831Z</time></trkpt><trkpt lat="40.4222163" lon="9.6749135"><ele>90.25</ele><time>2026-03-27T17:51:02.835Z</time></trkpt><trkpt lat="40.4221342" lon="9.6747824"><ele>90.0</ele><time>2026-03-27T17:51:03.838Z</time></trkpt><trkpt lat="40.4220752" lon="9.6746321"><ele>90.0</ele><time>2026-03-27T17:51:04.826Z</time></trkpt><trkpt lat="40.4220407" lon="9.6744629"><ele>90.0</ele><time>2026-03-27T17:51:05.822Z</time></trkpt><trkpt lat="40.4220284" lon="9.6742889"><ele>90.0</ele><time>2026-03-27T17:51:06.821Z</time></trkpt><trkpt lat="40.4220328" lon="9.6741083"><ele>90.0</ele><time>2026-03-27T17:51:07.823Z</time></trkpt><trkpt lat="40.4220515" lon="9.6739195"><ele>88.66666666666667</ele><time>2026-03-27T17:51:08.826Z</time></trkpt><trkpt lat="40.4220827" lon="9.6737184"><ele>87.33333333333334</ele><time>2026-03-27T17:51:09.827Z</time></trkpt><trkpt lat="40.4221213" lon="9.6735027"><ele>86.0</ele><time>2026-03-27T17:51:10.835Z</time></trkpt><trkpt lat="40.4221669" lon="9.6732783"><ele>85.33333333333334</ele><time>2026-03-27T17:51:11.838Z</time></trkpt><trkpt lat="40.422214" lon="9.673041"><ele>84.66666666666667</ele><time>2026-03-27T17:51:12.831Z</time></trkpt><trkpt lat="40.4222467" lon="9.6728131"><ele>84.0</ele><time>2026-03-27T17:51:13.811Z</time></trkpt><trkpt lat="40.4222685" lon="9.672591"><ele>83.33333333333333</ele><time>2026-03-27T17:51:14.832Z</time></trkpt><trkpt lat="40.4222783" lon="9.6723697"><ele>82.66666666666666</ele><time>2026-03-27T17:51:15.826Z</time></trkpt><trkpt lat="40.4222723" lon="9.6721501"><ele>82.0</ele><time>2026-03-27T17:51:16.82Z</time></trkpt><trkpt lat="40.4222516" lon="9.6719228"><ele>82.0</ele><time>2026-03-27T17:51:17.832Z</time></trkpt><trkpt lat="40.4222198" lon="9.6716914"><ele>82.0</ele><time>2026-03-27T17:51:18.826Z</time></trkpt><trkpt lat="40.4221798" lon="9.6714575"><ele>82.0</ele><time>2026-03-27T17:51:19.819Z</time></trkpt><trkpt lat="40.4221339" lon="9.6712254"><ele>81.0</ele><time>2026-03-27T17:51:20.831Z</time></trkpt><trkpt lat="40.4220844" lon="9.6710009"><ele>80.0</ele><time>2026-03-27T17:51:21.833Z</time></trkpt><trkpt lat="40.4220332" lon="9.6707822"><ele>79.0</ele><time>2026-03-27T17:51:22.839Z</time></trkpt><trkpt lat="40.42198" lon="9.670559"><ele>79.0</ele><time>2026-03-27T17:51:23.833Z</time></trkpt><trkpt lat="40.4219263" lon="9.6703306"><ele>79.0</ele><time>2026-03-27T17:51:24.839Z</time></trkpt><trkpt lat="40.4218724" lon="9.6700983"><ele>79.0</ele><time>2026-03-27T17:51:25.839Z</time></trkpt><trkpt lat="40.4218162" lon="9.669866"><ele>78.33333333333333</ele><time>2026-03-27T17:51:26.835Z</time></trkpt><trkpt lat="40.4217569" lon="9.6696462"><ele>77.66666666666667</ele><time>2026-03-27T17:51:27.838Z</time></trkpt><trkpt lat="40.4216963" lon="9.6694288"><ele>77.0</ele><time>2026-03-27T17:51:28.833Z</time></trkpt><trkpt lat="40.4216354" lon="9.6692131"><ele>76.0</ele><time>2026-03-27T17:51:29.838Z</time></trkpt><trkpt lat="40.4215743" lon="9.6689985"><ele>75.0</ele><time>2026-03-27T17:51:30.824Z</time></trkpt><trkpt lat="40.4215137" lon="9.6687883"><ele>74.0</ele><time>2026-03-27T17:51:31.865Z</time></trkpt><trkpt lat="40.4214604" lon="9.6685731"><ele>73.0</ele><time>2026-03-27T17:51:32.835Z</time></trkpt><trkpt lat="40.4213998" lon="9.6683696"><ele>72.0</ele><time>2026-03-27T17:51:33.836Z</time></trkpt><trkpt lat="40.4213375" lon="9.6681684"><ele>71.0</ele><time>2026-03-27T17:51:34.828Z</time></trkpt><trkpt lat="40.4212747" lon="9.6679655"><ele>69.33333333333334</ele><time>2026-03-27T17:51:35.827Z</time></trkpt><trkpt lat="40.4212135" lon="9.667748"><ele>67.66666666666667</ele><time>2026-03-27T17:51:36.841Z</time></trkpt><trkpt lat="40.4211479" lon="9.6675323"><ele>66.0</ele><time>2026-03-27T17:51:37.828Z</time></trkpt><trkpt lat="40.4210851" lon="9.6673254"><ele>66.0</ele><time>2026-03-27T17:51:38.829Z</time></trkpt><trkpt lat="40.4210219" lon="9.6671228"><ele>66.0</ele><time>2026-03-27T17:51:39.818Z</time></trkpt><trkpt lat="40.4209625" lon="9.6669242"><ele>66.0</ele><time>2026-03-27T17:51:40.817Z</time></trkpt><trkpt lat="40.4209101" lon="9.6667368"><ele>65.66666666666667</ele><time>2026-03-27T17:51:41.836Z</time></trkpt><trkpt lat="40.4208632" lon="9.6665444"><ele>65.33333333333334</ele><time>2026-03-27T17:51:42.836Z</time></trkpt><trkpt lat="40.4208199" lon="9.6663446"><ele>65.0</ele><time>2026-03-27T17:51:43.824Z</time></trkpt><trkpt lat="40.4207838" lon="9.6661458"><ele>65.25</ele><time>2026-03-27T17:51:44.83Z</time></trkpt><trkpt lat="40.4207548" lon="9.6659499"><ele>65.5</ele><time>2026-03-27T17:51:45.829Z</time></trkpt><trkpt lat="40.4207406" lon="9.6657582"><ele>65.75</ele><time>2026-03-27T17:51:46.829Z</time></trkpt><trkpt lat="40.4207446" lon="9.6655682"><ele>66.0</ele><time>2026-03-27T17:51:47.832Z</time></trkpt><trkpt lat="40.4207635" lon="9.6653736"><ele>65.33333333333333</ele><time>2026-03-27T17:51:48.84Z</time></trkpt><trkpt lat="40.4207926" lon="9.6651649"><ele>64.66666666666666</ele><time>2026-03-27T17:51:49.832Z</time></trkpt><trkpt lat="40.4208251" lon="9.6649432"><ele>64.0</ele><time>2026-03-27T17:51:50.825Z</time></trkpt><trkpt lat="40.4208585" lon="9.6647105"><ele>64.0</ele><time>2026-03-27T17:51:51.81Z</time></trkpt><trkpt lat="40.4208916" lon="9.6644703"><ele>64.0</ele><time>2026-03-27T17:51:52.832Z</time></trkpt><trkpt lat="40.4209235" lon="9.6642254"><ele>64.0</ele><time>2026-03-27T17:51:53.836Z</time></trkpt><trkpt lat="40.4209518" lon="9.6639816"><ele>63.666666666666664</ele><time>2026-03-27T17:51:54.815Z</time></trkpt><trkpt lat="40.4209762" lon="9.6637379"><ele>63.33333333333333</ele><time>2026-03-27T17:51:55.834Z</time></trkpt><trkpt lat="40.420993" lon="9.6634926"><ele>63.0</ele><time>2026-03-27T17:51:56.833Z</time></trkpt><trkpt lat="40.4209984" lon="9.6632498"><ele>63.0</ele><time>2026-03-27T17:51:57.834Z</time></trkpt><trkpt lat="40.4209921" lon="9.6630165"><ele>63.0</ele><time>2026-03-27T17:51:58.835Z</time></trkpt><trkpt lat="40.4209717" lon="9.6627934"><ele>63.0</ele><time>2026-03-27T17:51:59.825Z</time></trkpt><trkpt lat="40.4209336" lon="9.6625747"><ele>62.33333333333333</ele><time>2026-03-27T17:52:00.829Z</time></trkpt><trkpt lat="40.4208807" lon="9.6623609"><ele>61.666666666666664</ele><time>2026-03-27T17:52:01.829Z</time></trkpt><trkpt lat="40.4208154" lon="9.6621636"><ele>61.0</ele><time>2026-03-27T17:52:02.827Z</time></trkpt><trkpt lat="40.4207408" lon="9.6619919"><ele>59.33333333333333</ele><time>2026-03-27T17:52:03.828Z</time></trkpt><trkpt lat="40.4206636" lon="9.6618348"><ele>57.66666666666667</ele><time>2026-03-27T17:52:04.819Z</time></trkpt><trkpt lat="40.4205512" lon="9.6617092"><ele>56.0</ele><time>2026-03-27T17:52:05.831Z</time></trkpt><trkpt lat="40.4204111" lon="9.6615737"><ele>53.66666666666667</ele><time>2026-03-27T17:52:06.82Z</time></trkpt><trkpt lat="40.4202499" lon="9.6614385"><ele>51.33333333333333</ele><time>2026-03-27T17:52:07.822Z</time></trkpt><trkpt lat="40.4200776" lon="9.6612963"><ele>49.0</ele><time>2026-03-27T17:52:08.829Z</time></trkpt><trkpt lat="40.4199046" lon="9.6611635"><ele>49.33333333333333</ele><time>2026-03-27T17:52:09.829Z</time></trkpt><trkpt lat="40.4197275" lon="9.661037"><ele>49.66666666666667</ele><time>2026-03-27T17:52:10.82Z</time></trkpt><trkpt lat="40.4195574" lon="9.6609236"><ele>50.0</ele><time>2026-03-27T17:52:11.829Z</time></trkpt><trkpt lat="40.4193964" lon="9.6608185"><ele>49.333333333333336</ele><time>2026-03-27T17:52:12.836Z</time></trkpt><trkpt lat="40.4192406" lon="9.6607226"><ele>48.66666666666667</ele><time>2026-03-27T17:52:13.839Z</time></trkpt><trkpt lat="40.4191118" lon="9.6606325"><ele>48.0</ele><time>2026-03-27T17:52:14.828Z</time></trkpt><trkpt lat="40.4189985" lon="9.6605327"><ele>48.0</ele><time>2026-03-27T17:52:15.815Z</time></trkpt><trkpt lat="40.4188982" lon="9.6604152"><ele>48.0</ele><time>2026-03-27T17:52:16.814Z</time></trkpt><trkpt lat="40.4188096" lon="9.6602679"><ele>48.0</ele><time>2026-03-27T17:52:17.829Z</time></trkpt><trkpt lat="40.4187187" lon="9.6600909"><ele>48.0</ele><time>2026-03-27T17:52:18.813Z</time></trkpt><trkpt lat="40.4186387" lon="9.6598996"><ele>47.666666666666664</ele><time>2026-03-27T17:52:19.83Z</time></trkpt><trkpt lat="40.4185692" lon="9.6596909"><ele>47.33333333333333</ele><time>2026-03-27T17:52:20.824Z</time></trkpt><trkpt lat="40.4185058" lon="9.6594763"><ele>47.0</ele><time>2026-03-27T17:52:21.822Z</time></trkpt><trkpt lat="40.418448" lon="9.6592739"><ele>47.0</ele><time>2026-03-27T17:52:22.827Z</time></trkpt><trkpt lat="40.4184025" lon="9.6590887"><ele>47.0</ele><time>2026-03-27T17:52:23.827Z</time></trkpt><trkpt lat="40.4183752" lon="9.6589159"><ele>47.0</ele><time>2026-03-27T17:52:24.839Z</time></trkpt><trkpt lat="40.4183498" lon="9.6587472"><ele>47.0</ele><time>2026-03-27T17:52:25.826Z</time></trkpt><trkpt lat="40.4183681" lon="9.6585627"><ele>47.0</ele><time>2026-03-27T17:52:26.819Z</time></trkpt><trkpt lat="40.4183907" lon="9.6583891"><ele>47.0</ele><time>2026-03-27T17:52:27.819Z</time></trkpt><trkpt lat="40.4183863" lon="9.6582283"><ele>47.0</ele><time>2026-03-27T17:52:28.834Z</time></trkpt><trkpt lat="40.4183689" lon="9.6580651"><ele>47.0</ele><time>2026-03-27T17:52:29.83Z</time></trkpt><trkpt lat="40.4183288" lon="9.6579092"><ele>47.0</ele><time>2026-03-27T17:52:30.822Z</time></trkpt><trkpt lat="40.418291" lon="9.6577693"><ele>47.0</ele><time>2026-03-27T17:52:31.826Z</time></trkpt><trkpt lat="40.4182453" lon="9.6576623"><ele>47.0</ele><time>2026-03-27T17:52:32.831Z</time></trkpt><trkpt lat="40.4181967" lon="9.6575758"><ele>47.0</ele><time>2026-03-27T17:52:33.817Z</time></trkpt><trkpt lat="40.4181263" lon="9.6575547"><ele>47.0</ele><time>2026-03-27T17:52:34.823Z</time></trkpt><trkpt lat="40.41802" lon="9.6575494"><ele>45.33333333333333</ele><time>2026-03-27T17:52:35.826Z</time></trkpt><trkpt lat="40.4178903" lon="9.6575627"><ele>43.666666666666664</ele><time>2026-03-27T17:52:36.811Z</time></trkpt><trkpt lat="40.4177385" lon="9.6575781"><ele>42.0</ele><time>2026-03-27T17:52:37.823Z</time></trkpt><trkpt lat="40.4175613" lon="9.6576062"><ele>42.0</ele><time>2026-03-27T17:52:38.83Z</time></trkpt><trkpt lat="40.4173781" lon="9.657638"><ele>42.0</ele><time>2026-03-27T17:52:39.828Z</time></trkpt><trkpt lat="40.4171899" lon="9.6576748"><ele>42.0</ele><time>2026-03-27T17:52:40.827Z</time></trkpt><trkpt lat="40.4170046" lon="9.6577086"><ele>41.333333333333336</ele><time>2026-03-27T17:52:41.825Z</time></trkpt><trkpt lat="40.4168233" lon="9.6577356"><ele>40.66666666666667</ele><time>2026-03-27T17:52:42.819Z</time></trkpt><trkpt lat="40.4166458" lon="9.6577571"><ele>40.0</ele><time>2026-03-27T17:52:43.82Z</time></trkpt><trkpt lat="40.4164692" lon="9.657777"><ele>41.0</ele><time>2026-03-27T17:52:44.83Z</time></trkpt><trkpt lat="40.4162966" lon="9.6577985"><ele>42.0</ele><time>2026-03-27T17:52:45.829Z</time></trkpt><trkpt lat="40.4161354" lon="9.6578221"><ele>43.0</ele><time>2026-03-27T17:52:46.829Z</time></trkpt><trkpt lat="40.4159913" lon="9.6578452"><ele>43.0</ele><time>2026-03-27T17:52:47.834Z</time></trkpt><trkpt lat="40.4158623" lon="9.6578643"><ele>43.0</ele><time>2026-03-27T17:52:48.832Z</time></trkpt><trkpt lat="40.415755" lon="9.6578732"><ele>43.0</ele><time>2026-03-27T17:52:49.831Z</time></trkpt><trkpt lat="40.415665" lon="9.6578772"><ele>43.0</ele><time>2026-03-27T17:52:50.813Z</time></trkpt><trkpt lat="40.41559" lon="9.6578353"><ele>43.0</ele><time>2026-03-27T17:52:51.81Z</time></trkpt><trkpt lat="40.4155383" lon="9.6577574"><ele>43.25</ele><time>2026-03-27T17:52:52.824Z</time></trkpt><trkpt lat="40.4154856" lon="9.6576502"><ele>43.5</ele><time>2026-03-27T17:52:53.817Z</time></trkpt><trkpt lat="40.4154749" lon="9.6575006"><ele>43.75</ele><time>2026-03-27T17:52:54.815Z</time></trkpt><trkpt lat="40.4154809" lon="9.6573121"><ele>44.0</ele><time>2026-03-27T17:52:55.817Z</time></trkpt><trkpt lat="40.4154783" lon="9.6571022"><ele>43.666666666666664</ele><time>2026-03-27T17:52:56.829Z</time></trkpt><trkpt lat="40.4154845" lon="9.6568793"><ele>43.333333333333336</ele><time>2026-03-27T17:52:57.825Z</time></trkpt><trkpt lat="40.415469" lon="9.6566536"><ele>43.0</ele><time>2026-03-27T17:52:58.832Z</time></trkpt><trkpt lat="40.4154386" lon="9.6564313"><ele>43.0</ele><time>2026-03-27T17:52:59.835Z</time></trkpt><trkpt lat="40.4154077" lon="9.6562106"><ele>43.0</ele><time>2026-03-27T17:53:00.818Z</time></trkpt><trkpt lat="40.4153782" lon="9.6559816"><ele>43.0</ele><time>2026-03-27T17:53:01.834Z</time></trkpt><trkpt lat="40.4153405" lon="9.6557466"><ele>43.0</ele><time>2026-03-27T17:53:02.842Z</time></trkpt><trkpt lat="40.4153004" lon="9.6555119"><ele>43.0</ele><time>2026-03-27T17:53:03.835Z</time></trkpt><trkpt lat="40.415253" lon="9.6552868"><ele>43.0</ele><time>2026-03-27T17:53:04.821Z</time></trkpt><trkpt lat="40.415209" lon="9.6550752"><ele>43.0</ele><time>2026-03-27T17:53:05.814Z</time></trkpt><trkpt lat="40.4151703" lon="9.6548637"><ele>43.0</ele><time>2026-03-27T17:53:06.835Z</time></trkpt><trkpt lat="40.4151391" lon="9.6546626"><ele>43.0</ele><time>2026-03-27T17:53:07.809Z</time></trkpt><trkpt lat="40.4151076" lon="9.6544685"><ele>43.333333333333336</ele><time>2026-03-27T17:53:08.827Z</time></trkpt><trkpt lat="40.4151012" lon="9.6542783"><ele>43.666666666666664</ele><time>2026-03-27T17:53:09.831Z</time></trkpt><trkpt lat="40.4151035" lon="9.6540653"><ele>44.0</ele><time>2026-03-27T17:53:10.808Z</time></trkpt><trkpt lat="40.4151135" lon="9.6538189"><ele>43.33333333333333</ele><time>2026-03-27T17:53:11.821Z</time></trkpt><trkpt lat="40.4151159" lon="9.6535683"><ele>42.666666666666664</ele><time>2026-03-27T17:53:12.815Z</time></trkpt><trkpt lat="40.4151073" lon="9.6533339"><ele>42.0</ele><time>2026-03-27T17:53:13.826Z</time></trkpt><trkpt lat="40.4150985" lon="9.6530931"><ele>42.0</ele><time>2026-03-27T17:53:14.843Z</time></trkpt><trkpt lat="40.415074" lon="9.6528497"><ele>42.0</ele><time>2026-03-27T17:53:15.825Z</time></trkpt><trkpt lat="40.4150358" lon="9.6525976"><ele>42.0</ele><time>2026-03-27T17:53:16.813Z</time></trkpt><trkpt lat="40.4150063" lon="9.6523593"><ele>41.666666666666664</ele><time>2026-03-27T17:53:17.823Z</time></trkpt><trkpt lat="40.4149728" lon="9.652132"><ele>41.33333333333333</ele><time>2026-03-27T17:53:18.828Z</time></trkpt><trkpt lat="40.41493" lon="9.651917"><ele>41.0</ele><time>2026-03-27T17:53:19.825Z</time></trkpt><trkpt lat="40.4148807" lon="9.6517123"><ele>41.0</ele><time>2026-03-27T17:53:20.836Z</time></trkpt><trkpt lat="40.4148293" lon="9.6515139"><ele>41.0</ele><time>2026-03-27T17:53:21.822Z</time></trkpt><trkpt lat="40.4147701" lon="9.6513284"><ele>41.0</ele><time>2026-03-27T17:53:22.829Z</time></trkpt><trkpt lat="40.4147001" lon="9.6511485"><ele>44.0</ele><time>2026-03-27T17:53:23.827Z</time></trkpt><trkpt lat="40.4146123" lon="9.6509661"><ele>47.0</ele><time>2026-03-27T17:53:24.821Z</time></trkpt><trkpt lat="40.4145132" lon="9.6507796"><ele>50.0</ele><time>2026-03-27T17:53:25.835Z</time></trkpt><trkpt lat="40.41442" lon="9.6506084"><ele>50.0</ele><time>2026-03-27T17:53:26.839Z</time></trkpt><trkpt lat="40.4143424" lon="9.6504502"><ele>50.0</ele><time>2026-03-27T17:53:27.819Z</time></trkpt><trkpt lat="40.4142847" lon="9.6502997"><ele>50.0</ele><time>2026-03-27T17:53:28.816Z</time></trkpt><trkpt lat="40.4142413" lon="9.6501378"><ele>50.0</ele><time>2026-03-27T17:53:29.83Z</time></trkpt><trkpt lat="40.4142046" lon="9.6499435"><ele>49.25</ele><time>2026-03-27T17:53:30.828Z</time></trkpt><trkpt lat="40.4141773" lon="9.6497351"><ele>48.5</ele><time>2026-03-27T17:53:31.824Z</time></trkpt><trkpt lat="40.4141538" lon="9.6495446"><ele>47.75</ele><time>2026-03-27T17:53:32.845Z</time></trkpt><trkpt lat="40.4141538" lon="9.6493691"><ele>47.0</ele><time>2026-03-27T17:53:33.829Z</time></trkpt><trkpt lat="40.414157" lon="9.6491908"><ele>45.33333333333333</ele><time>2026-03-27T17:53:34.823Z</time></trkpt><trkpt lat="40.4141931" lon="9.6489896"><ele>43.666666666666664</ele><time>2026-03-27T17:53:35.818Z</time></trkpt><trkpt lat="40.4142253" lon="9.6487591"><ele>42.0</ele><time>2026-03-27T17:53:36.84Z</time></trkpt><trkpt lat="40.414265" lon="9.6485358"><ele>41.333333333333336</ele><time>2026-03-27T17:53:37.822Z</time></trkpt><trkpt lat="40.4142634" lon="9.6483185"><ele>40.66666666666667</ele><time>2026-03-27T17:53:38.821Z</time></trkpt><trkpt lat="40.4142555" lon="9.6481107"><ele>40.0</ele><time>2026-03-27T17:53:39.825Z</time></trkpt><trkpt lat="40.4142452" lon="9.6479205"><ele>39.25</ele><time>2026-03-27T17:53:40.823Z</time></trkpt><trkpt lat="40.4142253" lon="9.6477325"><ele>38.5</ele><time>2026-03-27T17:53:41.827Z</time></trkpt><trkpt lat="40.4141736" lon="9.6475584"><ele>37.75</ele><time>2026-03-27T17:53:42.829Z</time></trkpt><trkpt lat="40.4140979" lon="9.6473841"><ele>37.0</ele><time>2026-03-27T17:53:43.828Z</time></trkpt><trkpt lat="40.4139989" lon="9.6472138"><ele>37.0</ele><time>2026-03-27T17:53:44.824Z</time></trkpt><trkpt lat="40.4138852" lon="9.6470565"><ele>37.0</ele><time>2026-03-27T17:53:45.814Z</time></trkpt><trkpt lat="40.4137678" lon="9.6469072"><ele>37.0</ele><time>2026-03-27T17:53:46.827Z</time></trkpt><trkpt lat="40.4136527" lon="9.6467672"><ele>37.0</ele><time>2026-03-27T17:53:47.825Z</time></trkpt><trkpt lat="40.4135488" lon="9.6466356"><ele>37.0</ele><time>2026-03-27T17:53:48.827Z</time></trkpt><trkpt lat="40.4134497" lon="9.6465085"><ele>37.0</ele><time>2026-03-27T17:53:49.833Z</time></trkpt><trkpt lat="40.4133485" lon="9.6463927"><ele>37.0</ele><time>2026-03-27T17:53:50.828Z</time></trkpt><trkpt lat="40.4132274" lon="9.6462978"><ele>37.0</ele><time>2026-03-27T17:53:51.838Z</time></trkpt><trkpt lat="40.4130852" lon="9.6462088"><ele>37.0</ele><time>2026-03-27T17:53:52.825Z</time></trkpt><trkpt lat="40.4129379" lon="9.64612"><ele>37.0</ele><time>2026-03-27T17:53:53.827Z</time></trkpt><trkpt lat="40.412791" lon="9.6460358"><ele>36.5</ele><time>2026-03-27T17:53:54.826Z</time></trkpt><trkpt lat="40.4126571" lon="9.6459713"><ele>36.0</ele><time>2026-03-27T17:53:55.835Z</time></trkpt><trkpt lat="40.4125133" lon="9.6459266"><ele>35.5</ele><time>2026-03-27T17:53:56.846Z</time></trkpt><trkpt lat="40.4123729" lon="9.6459123"><ele>35.0</ele><time>2026-03-27T17:53:57.846Z</time></trkpt><trkpt lat="40.412227" lon="9.6459141"><ele>34.0</ele><time>2026-03-27T17:53:58.835Z</time></trkpt><trkpt lat="40.4120849" lon="9.6459396"><ele>33.0</ele><time>2026-03-27T17:53:59.822Z</time></trkpt><trkpt lat="40.4119216" lon="9.64595"><ele>32.0</ele><time>2026-03-27T17:54:00.825Z</time></trkpt><trkpt lat="40.4117696" lon="9.6459203"><ele>32.0</ele><time>2026-03-27T17:54:01.81Z</time></trkpt><trkpt lat="40.4116173" lon="9.6458814"><ele>32.0</ele><time>2026-03-27T17:54:02.817Z</time></trkpt><trkpt lat="40.4114652" lon="9.6458463"><ele>32.0</ele><time>2026-03-27T17:54:03.829Z</time></trkpt><trkpt lat="40.411311" lon="9.645819"><ele>32.0</ele><time>2026-03-27T17:54:04.827Z</time></trkpt><trkpt lat="40.4111533" lon="9.6458076"><ele>32.0</ele><time>2026-03-27T17:54:05.818Z</time></trkpt><trkpt lat="40.4109865" lon="9.6457961"><ele>32.0</ele><time>2026-03-27T17:54:06.823Z</time></trkpt><trkpt lat="40.4108318" lon="9.6457733"><ele>32.0</ele><time>2026-03-27T17:54:07.829Z</time></trkpt><trkpt lat="40.4106848" lon="9.6457243"><ele>32.0</ele><time>2026-03-27T17:54:08.81Z</time></trkpt><trkpt lat="40.4105438" lon="9.6456567"><ele>32.0</ele><time>2026-03-27T17:54:09.829Z</time></trkpt><trkpt lat="40.4104022" lon="9.6455692"><ele>33.0</ele><time>2026-03-27T17:54:10.831Z</time></trkpt><trkpt lat="40.4102642" lon="9.6454726"><ele>34.0</ele><time>2026-03-27T17:54:11.808Z</time></trkpt><trkpt lat="40.4101295" lon="9.6453732"><ele>35.0</ele><time>2026-03-27T17:54:12.823Z</time></trkpt><trkpt lat="40.4100014" lon="9.645278"><ele>33.75</ele><time>2026-03-27T17:54:13.825Z</time></trkpt><trkpt lat="40.4098828" lon="9.6451867"><ele>32.5</ele><time>2026-03-27T17:54:14.825Z</time></trkpt><trkpt lat="40.409756" lon="9.6451071"><ele>31.25</ele><time>2026-03-27T17:54:15.824Z</time></trkpt><trkpt lat="40.4096191" lon="9.6450515"><ele>30.0</ele><time>2026-03-27T17:54:16.821Z</time></trkpt><trkpt lat="40.4094704" lon="9.6450206"><ele>30.0</ele><time>2026-03-27T17:54:17.831Z</time></trkpt><trkpt lat="40.4093115" lon="9.6450124"><ele>30.0</ele><time>2026-03-27T17:54:18.823Z</time></trkpt><trkpt lat="40.4091453" lon="9.6450172"><ele>30.0</ele><time>2026-03-27T17:54:19.812Z</time></trkpt><trkpt lat="40.4089751" lon="9.6450281"><ele>30.0</ele><time>2026-03-27T17:54:20.814Z</time></trkpt><trkpt lat="40.4088081" lon="9.6450411"><ele>30.0</ele><time>2026-03-27T17:54:21.812Z</time></trkpt><trkpt lat="40.4086459" lon="9.6450491"><ele>30.0</ele><time>2026-03-27T17:54:22.829Z</time></trkpt><trkpt lat="40.4084858" lon="9.6450526"><ele>30.0</ele><time>2026-03-27T17:54:23.826Z</time></trkpt><trkpt lat="40.4083285" lon="9.6450538"><ele>30.0</ele><time>2026-03-27T17:54:24.824Z</time></trkpt><trkpt lat="40.4081733" lon="9.64506"><ele>30.0</ele><time>2026-03-27T17:54:25.831Z</time></trkpt><trkpt lat="40.4080243" lon="9.6450744"><ele>29.5</ele><time>2026-03-27T17:54:26.832Z</time></trkpt><trkpt lat="40.4078772" lon="9.6451008"><ele>29.0</ele><time>2026-03-27T17:54:27.829Z</time></trkpt><trkpt lat="40.4077311" lon="9.64514"><ele>28.5</ele><time>2026-03-27T17:54:28.823Z</time></trkpt><trkpt lat="40.407584" lon="9.6451842"><ele>28.0</ele><time>2026-03-27T17:54:29.827Z</time></trkpt><trkpt lat="40.4074368" lon="9.6452303"><ele>28.0</ele><time>2026-03-27T17:54:30.826Z</time></trkpt><trkpt lat="40.4072902" lon="9.6452748"><ele>28.0</ele><time>2026-03-27T17:54:31.825Z</time></trkpt><trkpt lat="40.4071438" lon="9.6453175"><ele>28.0</ele><time>2026-03-27T17:54:32.827Z</time></trkpt><trkpt lat="40.4069991" lon="9.6453584"><ele>28.0</ele><time>2026-03-27T17:54:33.826Z</time></trkpt><trkpt lat="40.4068553" lon="9.6454021"><ele>28.75</ele><time>2026-03-27T17:54:34.822Z</time></trkpt><trkpt lat="40.4067126" lon="9.6454515"><ele>29.5</ele><time>2026-03-27T17:54:35.819Z</time></trkpt><trkpt lat="40.4065725" lon="9.6455133"><ele>30.25</ele><time>2026-03-27T17:54:36.835Z</time></trkpt><trkpt lat="40.4064345" lon="9.6455875"><ele>31.0</ele><time>2026-03-27T17:54:37.821Z</time></trkpt><trkpt lat="40.4062974" lon="9.6456713"><ele>29.0</ele><time>2026-03-27T17:54:38.814Z</time></trkpt><trkpt lat="40.4061659" lon="9.6457586"><ele>27.0</ele><time>2026-03-27T17:54:39.831Z</time></trkpt><trkpt lat="40.4060394" lon="9.6458453"><ele>25.0</ele><time>2026-03-27T17:54:40.808Z</time></trkpt><trkpt lat="40.4059176" lon="9.6459363"><ele>23.0</ele><time>2026-03-27T17:54:41.818Z</time></trkpt><trkpt lat="40.4058" lon="9.6460247"><ele>23.0</ele><time>2026-03-27T17:54:42.819Z</time></trkpt><trkpt lat="40.4056938" lon="9.6461041"><ele>23.0</ele><time>2026-03-27T17:54:43.823Z</time></trkpt><trkpt lat="40.4056022" lon="9.6461955"><ele>23.0</ele><time>2026-03-27T17:54:44.815Z</time></trkpt><trkpt lat="40.4055283" lon="9.6462987"><ele>23.0</ele><time>2026-03-27T17:54:45.817Z</time></trkpt><trkpt lat="40.4054759" lon="9.6464307"><ele>21.5</ele><time>2026-03-27T17:54:46.809Z</time></trkpt><trkpt lat="40.40544" lon="9.6465859"><ele>20.0</ele><time>2026-03-27T17:54:47.843Z</time></trkpt><trkpt lat="40.4054059" lon="9.6467491"><ele>18.5</ele><time>2026-03-27T17:54:48.815Z</time></trkpt><trkpt lat="40.4053716" lon="9.6469085"><ele>17.0</ele><time>2026-03-27T17:54:49.812Z</time></trkpt><trkpt lat="40.4053395" lon="9.6470614"><ele>16.833333333333336</ele><time>2026-03-27T17:54:50.811Z</time></trkpt><trkpt lat="40.4053089" lon="9.6471931"><ele>16.666666666666668</ele><time>2026-03-27T17:54:51.825Z</time></trkpt><trkpt lat="40.4052812" lon="9.6473083"><ele>16.5</ele><time>2026-03-27T17:54:52.822Z</time></trkpt><trkpt lat="40.4052521" lon="9.6474081"><ele>16.333333333333332</ele><time>2026-03-27T17:54:53.811Z</time></trkpt><trkpt lat="40.4052131" lon="9.6474943"><ele>16.166666666666664</ele><time>2026-03-27T17:54:54.813Z</time></trkpt><trkpt lat="40.4051695" lon="9.647571"><ele>16.0</ele><time>2026-03-27T17:54:55.823Z</time></trkpt><trkpt lat="40.4051079" lon="9.6476097"><ele>16.0</ele><time>2026-03-27T17:54:56.823Z</time></trkpt><trkpt lat="40.4049504" lon="9.6476554"><ele>16.0</ele><time>2026-03-27T17:55:12.817Z</time></trkpt><trkpt lat="40.4049298" lon="9.647773"><ele>16.0</ele><time>2026-03-27T17:55:15.811Z</time></trkpt><trkpt lat="40.4049629" lon="9.6479191"><ele>16.0</ele><time>2026-03-27T17:55:17.812Z</time></trkpt><trkpt lat="40.4049895" lon="9.6480276"><ele>15.200000000000001</ele><time>2026-03-27T17:55:18.827Z</time></trkpt><trkpt lat="40.4050147" lon="9.6481649"><ele>14.400000000000002</ele><time>2026-03-27T17:55:19.815Z</time></trkpt><trkpt lat="40.4050412" lon="9.6483055"><ele>13.6</ele><time>2026-03-27T17:55:20.82Z</time></trkpt><trkpt lat="40.4050646" lon="9.64845"><ele>12.8</ele><time>2026-03-27T17:55:21.823Z</time></trkpt><trkpt lat="40.4050803" lon="9.6485947"><ele>12.0</ele><time>2026-03-27T17:55:22.81Z</time></trkpt><trkpt lat="40.4050916" lon="9.6487383"><ele>12.0</ele><time>2026-03-27T17:55:23.829Z</time></trkpt><trkpt lat="40.4051007" lon="9.6488762"><ele>12.0</ele><time>2026-03-27T17:55:24.828Z</time></trkpt><trkpt lat="40.4051064" lon="9.6490073"><ele>12.0</ele><time>2026-03-27T17:55:25.81Z</time></trkpt><trkpt lat="40.4051164" lon="9.649137"><ele>12.0</ele><time>2026-03-27T17:55:26.809Z</time></trkpt><trkpt lat="40.4051315" lon="9.6492676"><ele>12.0</ele><time>2026-03-27T17:55:27.824Z</time></trkpt><trkpt lat="40.4051546" lon="9.6493977"><ele>12.2</ele><time>2026-03-27T17:55:28.812Z</time></trkpt><trkpt lat="40.405189" lon="9.6495247"><ele>12.399999999999999</ele><time>2026-03-27T17:55:29.82Z</time></trkpt><trkpt lat="40.4052312" lon="9.6496542"><ele>12.600000000000001</ele><time>2026-03-27T17:55:30.811Z</time></trkpt><trkpt lat="40.4052763" lon="9.6497866"><ele>12.8</ele><time>2026-03-27T17:55:31.825Z</time></trkpt><trkpt lat="40.4053173" lon="9.6499149"><ele>13.0</ele><time>2026-03-27T17:55:32.83Z</time></trkpt><trkpt lat="40.4053539" lon="9.650031"><ele>12.999999999999998</ele><time>2026-03-27T17:55:33.812Z</time></trkpt><trkpt lat="40.4053874" lon="9.6501355"><ele>13.0</ele><time>2026-03-27T17:55:34.824Z</time></trkpt><trkpt lat="40.4054188" lon="9.6502277"><ele>13.0</ele><time>2026-03-27T17:55:35.828Z</time></trkpt><trkpt lat="40.4054505" lon="9.6503184"><ele>13.0</ele><time>2026-03-27T17:55:36.829Z</time></trkpt><trkpt lat="40.4054812" lon="9.650411"><ele>12.999999999999998</ele><time>2026-03-27T17:55:37.829Z</time></trkpt><trkpt lat="40.4055104" lon="9.6505023"><ele>13.0</ele><time>2026-03-27T17:55:38.791Z</time></trkpt><trkpt lat="40.4055361" lon="9.6505948"><ele>13.166666666666666</ele><time>2026-03-27T17:55:39.814Z</time></trkpt><trkpt lat="40.4055524" lon="9.6506932"><ele>13.333333333333332</ele><time>2026-03-27T17:55:40.815Z</time></trkpt><trkpt lat="40.4055542" lon="9.650803"><ele>13.5</ele><time>2026-03-27T17:55:41.816Z</time></trkpt><trkpt lat="40.4055341" lon="9.6509127"><ele>13.666666666666668</ele><time>2026-03-27T17:55:42.814Z</time></trkpt><trkpt lat="40.405489" lon="9.6510071"><ele>13.833333333333334</ele><time>2026-03-27T17:55:43.814Z</time></trkpt><trkpt lat="40.4054189" lon="9.6510727"><ele>14.0</ele><time>2026-03-27T17:55:44.804Z</time></trkpt><trkpt lat="40.4053295" lon="9.651116"><ele>14.6</ele><time>2026-03-27T17:55:45.802Z</time></trkpt><trkpt lat="40.4052265" lon="9.6511472"><ele>15.2</ele><time>2026-03-27T17:55:46.825Z</time></trkpt><trkpt lat="40.4051118" lon="9.651179"><ele>15.799999999999999</ele><time>2026-03-27T17:55:47.823Z</time></trkpt><trkpt lat="40.4049978" lon="9.6512149"><ele>16.4</ele><time>2026-03-27T17:55:48.82Z</time></trkpt><trkpt lat="40.4048941" lon="9.651249"><ele>17.0</ele><time>2026-03-27T17:55:49.817Z</time></trkpt><trkpt lat="40.4047987" lon="9.6512784"><ele>17.0</ele><time>2026-03-27T17:55:50.816Z</time></trkpt><trkpt lat="40.404713" lon="9.6513064"><ele>17.0</ele><time>2026-03-27T17:55:51.826Z</time></trkpt><trkpt lat="40.4046376" lon="9.6513357"><ele>17.0</ele><time>2026-03-27T17:55:52.821Z</time></trkpt><trkpt lat="40.4045668" lon="9.651371"><ele>17.0</ele><time>2026-03-27T17:55:53.824Z</time></trkpt><trkpt lat="40.4044944" lon="9.6514128"><ele>17.0</ele><time>2026-03-27T17:55:54.814Z</time></trkpt><trkpt lat="40.4044286" lon="9.6514573"><ele>17.0</ele><time>2026-03-27T17:55:55.816Z</time></trkpt><trkpt lat="40.4043601" lon="9.6514997"><ele>16.4</ele><time>2026-03-27T17:55:56.794Z</time></trkpt><trkpt lat="40.4042884" lon="9.6515191"><ele>15.799999999999999</ele><time>2026-03-27T17:55:58.799Z</time></trkpt><trkpt lat="40.4043522" lon="9.6515849"><ele>15.2</ele><time>2026-03-27T17:56:42.842Z</time></trkpt><trkpt lat="40.4044632" lon="9.6515025"><ele>14.6</ele><time>2026-03-27T17:56:44.858Z</time></trkpt><trkpt lat="40.4045393" lon="9.6514512"><ele>14.0</ele><time>2026-03-27T17:56:45.863Z</time></trkpt><trkpt lat="40.4046347" lon="9.6513931"><ele>14.75</ele><time>2026-03-27T17:56:46.843Z</time></trkpt><trkpt lat="40.4047506" lon="9.6513381"><ele>15.5</ele><time>2026-03-27T17:56:47.841Z</time></trkpt><trkpt lat="40.4048701" lon="9.6512943"><ele>16.25</ele><time>2026-03-27T17:56:48.843Z</time></trkpt><trkpt lat="40.4049949" lon="9.6512555"><ele>17.0</ele><time>2026-03-27T17:56:49.842Z</time></trkpt><trkpt lat="40.4051178" lon="9.6512179"><ele>17.0</ele><time>2026-03-27T17:56:50.856Z</time></trkpt><trkpt lat="40.4052305" lon="9.6511815"><ele>17.0</ele><time>2026-03-27T17:56:51.858Z</time></trkpt><trkpt lat="40.4053339" lon="9.6511446"><ele>17.0</ele><time>2026-03-27T17:56:52.841Z</time></trkpt><trkpt lat="40.4054256" lon="9.6511002"><ele>17.0</ele><time>2026-03-27T17:56:53.845Z</time></trkpt><trkpt lat="40.4054998" lon="9.6510412"><ele>17.0</ele><time>2026-03-27T17:56:54.83Z</time></trkpt><trkpt lat="40.4055511" lon="9.6509658"><ele>16.5</ele><time>2026-03-27T17:56:55.839Z</time></trkpt><trkpt lat="40.4055826" lon="9.650878"><ele>16.0</ele><time>2026-03-27T17:56:56.841Z</time></trkpt><trkpt lat="40.4055916" lon="9.6507748"><ele>15.5</ele><time>2026-03-27T17:56:57.835Z</time></trkpt><trkpt lat="40.405583" lon="9.6506647"><ele>15.0</ele><time>2026-03-27T17:56:58.842Z</time></trkpt><trkpt lat="40.4055576" lon="9.6505497"><ele>14.500000000000002</ele><time>2026-03-27T17:56:59.846Z</time></trkpt><trkpt lat="40.4055219" lon="9.6504308"><ele>14.0</ele><time>2026-03-27T17:57:00.842Z</time></trkpt><trkpt lat="40.4054819" lon="9.6503058"><ele>13.75</ele><time>2026-03-27T17:57:01.843Z</time></trkpt><trkpt lat="40.4054384" lon="9.6501705"><ele>13.5</ele><time>2026-03-27T17:57:02.84Z</time></trkpt><trkpt lat="40.4053914" lon="9.6500253"><ele>13.25</ele><time>2026-03-27T17:57:03.847Z</time></trkpt><trkpt lat="40.4053434" lon="9.6498779"><ele>13.0</ele><time>2026-03-27T17:57:04.843Z</time></trkpt><trkpt lat="40.4052922" lon="9.6497202"><ele>13.0</ele><time>2026-03-27T17:57:05.856Z</time></trkpt><trkpt lat="40.4052436" lon="9.6495683"><ele>13.0</ele><time>2026-03-27T17:57:06.847Z</time></trkpt><trkpt lat="40.4052043" lon="9.6494204"><ele>13.0</ele><time>2026-03-27T17:57:07.835Z</time></trkpt><trkpt lat="40.4051772" lon="9.6492704"><ele>13.0</ele><time>2026-03-27T17:57:08.841Z</time></trkpt><trkpt lat="40.4051649" lon="9.6491196"><ele>12.75</ele><time>2026-03-27T17:57:09.847Z</time></trkpt><trkpt lat="40.4051559" lon="9.648959"><ele>12.5</ele><time>2026-03-27T17:57:10.852Z</time></trkpt><trkpt lat="40.4051475" lon="9.648787"><ele>12.25</ele><time>2026-03-27T17:57:11.843Z</time></trkpt><trkpt lat="40.4051314" lon="9.6486114"><ele>12.0</ele><time>2026-03-27T17:57:12.845Z</time></trkpt><trkpt lat="40.4051133" lon="9.648435"><ele>12.0</ele><time>2026-03-27T17:57:13.843Z</time></trkpt><trkpt lat="40.4050823" lon="9.6482568"><ele>12.0</ele><time>2026-03-27T17:57:14.838Z</time></trkpt><trkpt lat="40.4050492" lon="9.6480816"><ele>12.0</ele><time>2026-03-27T17:57:15.845Z</time></trkpt><trkpt lat="40.4050166" lon="9.6479096"><ele>12.0</ele><time>2026-03-27T17:57:16.846Z</time></trkpt><trkpt lat="40.4049826" lon="9.6477411"><ele>13.0</ele><time>2026-03-27T17:57:17.842Z</time></trkpt><trkpt lat="40.4049444" lon="9.647577"><ele>14.0</ele><time>2026-03-27T17:57:18.839Z</time></trkpt><trkpt lat="40.4049033" lon="9.6474232"><ele>15.0</ele><time>2026-03-27T17:57:19.844Z</time></trkpt><trkpt lat="40.4048611" lon="9.6472799"><ele>16.0</ele><time>2026-03-27T17:57:20.848Z</time></trkpt><trkpt lat="40.4048224" lon="9.647139"><ele>16.0</ele><time>2026-03-27T17:57:21.854Z</time></trkpt><trkpt lat="40.4047884" lon="9.6469966"><ele>16.0</ele><time>2026-03-27T17:57:22.844Z</time></trkpt><trkpt lat="40.4047623" lon="9.6468497"><ele>16.0</ele><time>2026-03-27T17:57:23.841Z</time></trkpt><trkpt lat="40.4047458" lon="9.6466934"><ele>16.0</ele><time>2026-03-27T17:57:24.843Z</time></trkpt><trkpt lat="40.4047396" lon="9.6465294"><ele>16.25</ele><time>2026-03-27T17:57:25.839Z</time></trkpt><trkpt lat="40.4047421" lon="9.6463597"><ele>16.5</ele><time>2026-03-27T17:57:26.841Z</time></trkpt><trkpt lat="40.4047472" lon="9.646183"><ele>16.75</ele><time>2026-03-27T17:57:27.844Z</time></trkpt><trkpt lat="40.4047504" lon="9.6460008"><ele>17.0</ele><time>2026-03-27T17:57:28.842Z</time></trkpt><trkpt lat="40.4047521" lon="9.645816"><ele>16.25</ele><time>2026-03-27T17:57:29.839Z</time></trkpt><trkpt lat="40.4047536" lon="9.6456381"><ele>15.5</ele><time>2026-03-27T17:57:30.839Z</time></trkpt><trkpt lat="40.4047552" lon="9.6454663"><ele>14.75</ele><time>2026-03-27T17:57:31.839Z</time></trkpt><trkpt lat="40.4047581" lon="9.6452999"><ele>14.0</ele><time>2026-03-27T17:57:32.845Z</time></trkpt><trkpt lat="40.4047613" lon="9.6451315"><ele>13.25</ele><time>2026-03-27T17:57:33.834Z</time></trkpt><trkpt lat="40.4047686" lon="9.6449607"><ele>12.5</ele><time>2026-03-27T17:57:34.839Z</time></trkpt><trkpt lat="40.4047861" lon="9.6447897"><ele>11.75</ele><time>2026-03-27T17:57:35.842Z</time></trkpt><trkpt lat="40.4048164" lon="9.644622"><ele>11.0</ele><time>2026-03-27T17:57:36.837Z</time></trkpt><trkpt lat="40.4048528" lon="9.6444564"><ele>11.0</ele><time>2026-03-27T17:57:37.84Z</time></trkpt><trkpt lat="40.4048933" lon="9.6442903"><ele>11.0</ele><time>2026-03-27T17:57:38.839Z</time></trkpt><trkpt lat="40.4049338" lon="9.6441235"><ele>11.0</ele><time>2026-03-27T17:57:39.845Z</time></trkpt><trkpt lat="40.4049726" lon="9.643961"><ele>11.0</ele><time>2026-03-27T17:57:40.851Z</time></trkpt><trkpt lat="40.4050128" lon="9.6438034"><ele>11.0</ele><time>2026-03-27T17:57:41.842Z</time></trkpt><trkpt lat="40.4050513" lon="9.6436509"><ele>11.0</ele><time>2026-03-27T17:57:42.849Z</time></trkpt><trkpt lat="40.4050886" lon="9.6435032"><ele>11.0</ele><time>2026-03-27T17:57:43.85Z</time></trkpt><trkpt lat="40.4051244" lon="9.6433573"><ele>11.0</ele><time>2026-03-27T17:57:44.84Z</time></trkpt><trkpt lat="40.4051611" lon="9.6432107"><ele>11.0</ele><time>2026-03-27T17:57:45.844Z</time></trkpt><trkpt lat="40.4051981" lon="9.6430648"><ele>11.0</ele><time>2026-03-27T17:57:46.846Z</time></trkpt><trkpt lat="40.4052353" lon="9.6429207"><ele>11.0</ele><time>2026-03-27T17:57:47.837Z</time></trkpt><trkpt lat="40.4052747" lon="9.6427801"><ele>11.0</ele><time>2026-03-27T17:57:48.841Z</time></trkpt><trkpt lat="40.4053165" lon="9.6426401"><ele>10.5</ele><time>2026-03-27T17:57:49.843Z</time></trkpt><trkpt lat="40.4053604" lon="9.6424977"><ele>10.0</ele><time>2026-03-27T17:57:50.84Z</time></trkpt><trkpt lat="40.405404" lon="9.6423562"><ele>9.5</ele><time>2026-03-27T17:57:51.841Z</time></trkpt><trkpt lat="40.4054429" lon="9.642207"><ele>9.0</ele><time>2026-03-27T17:57:52.85Z</time></trkpt><trkpt lat="40.4054748" lon="9.6420561"><ele>10.0</ele><time>2026-03-27T17:57:53.84Z</time></trkpt><trkpt lat="40.4055004" lon="9.6419033"><ele>11.0</ele><time>2026-03-27T17:57:54.844Z</time></trkpt><trkpt lat="40.4055239" lon="9.641751"><ele>12.0</ele><time>2026-03-27T17:57:55.847Z</time></trkpt><trkpt lat="40.4055535" lon="9.641602"><ele>13.0</ele><time>2026-03-27T17:57:56.839Z</time></trkpt><trkpt lat="40.4055956" lon="9.6414602"><ele>13.0</ele><time>2026-03-27T17:57:57.848Z</time></trkpt><trkpt lat="40.4056507" lon="9.6413277"><ele>13.0</ele><time>2026-03-27T17:57:58.847Z</time></trkpt><trkpt lat="40.4057176" lon="9.6411992"><ele>13.0</ele><time>2026-03-27T17:57:59.84Z</time></trkpt><trkpt lat="40.4057897" lon="9.6410714"><ele>13.0</ele><time>2026-03-27T17:58:00.848Z</time></trkpt><trkpt lat="40.4058624" lon="9.6409431"><ele>12.5</ele><time>2026-03-27T17:58:01.839Z</time></trkpt><trkpt lat="40.4059329" lon="9.6408187"><ele>12.0</ele><time>2026-03-27T17:58:02.845Z</time></trkpt><trkpt lat="40.4060022" lon="9.640699"><ele>11.5</ele><time>2026-03-27T17:58:03.843Z</time></trkpt><trkpt lat="40.4060708" lon="9.6405766"><ele>11.0</ele><time>2026-03-27T17:58:04.845Z</time></trkpt><trkpt lat="40.4061438" lon="9.6404497"><ele>11.0</ele><time>2026-03-27T17:58:05.839Z</time></trkpt><trkpt lat="40.4062169" lon="9.6403178"><ele>11.0</ele><time>2026-03-27T17:58:06.837Z</time></trkpt><trkpt lat="40.4062905" lon="9.6401844"><ele>11.0</ele><time>2026-03-27T17:58:07.841Z</time></trkpt><trkpt lat="40.4063639" lon="9.6400522"><ele>11.0</ele><time>2026-03-27T17:58:08.843Z</time></trkpt><trkpt lat="40.4064362" lon="9.6399209"><ele>11.0</ele><time>2026-03-27T17:58:09.846Z</time></trkpt><trkpt lat="40.4065086" lon="9.6397906"><ele>11.0</ele><time>2026-03-27T17:58:10.841Z</time></trkpt><trkpt lat="40.4065806" lon="9.6396611"><ele>11.0</ele><time>2026-03-27T17:58:11.836Z</time></trkpt><trkpt lat="40.4066515" lon="9.6395335"><ele>11.0</ele><time>2026-03-27T17:58:12.842Z</time></trkpt><trkpt lat="40.4067221" lon="9.6394056"><ele>11.0</ele><time>2026-03-27T17:58:13.837Z</time></trkpt><trkpt lat="40.4067928" lon="9.6392793"><ele>11.0</ele><time>2026-03-27T17:58:14.838Z</time></trkpt><trkpt lat="40.4068627" lon="9.6391548"><ele>11.0</ele><time>2026-03-27T17:58:15.841Z</time></trkpt><trkpt lat="40.4069309" lon="9.639036"><ele>11.0</ele><time>2026-03-27T17:58:16.842Z</time></trkpt><trkpt lat="40.4069991" lon="9.6389253"><ele>11.0</ele><time>2026-03-27T17:58:17.841Z</time></trkpt><trkpt lat="40.4070673" lon="9.6388306"><ele>11.0</ele><time>2026-03-27T17:58:18.842Z</time></trkpt><trkpt lat="40.4071293" lon="9.6387461"><ele>11.0</ele><time>2026-03-27T17:58:19.844Z</time></trkpt><trkpt lat="40.407198" lon="9.6386979"><ele>11.0</ele><time>2026-03-27T17:58:20.84Z</time></trkpt><trkpt lat="40.4072722" lon="9.6386617"><ele>11.0</ele><time>2026-03-27T17:58:21.856Z</time></trkpt><trkpt lat="40.4073435" lon="9.6386406"><ele>11.0</ele><time>2026-03-27T17:58:22.842Z</time></trkpt><trkpt lat="40.4074474" lon="9.6386476"><ele>11.0</ele><time>2026-03-27T17:58:24.851Z</time></trkpt><trkpt lat="40.4075106" lon="9.6386478"><ele>11.0</ele><time>2026-03-27T18:02:20.827Z</time></trkpt><trkpt lat="40.4074432" lon="9.6385835"><ele>11.0</ele><time>2026-03-27T18:02:24.824Z</time></trkpt><trkpt lat="40.4073765" lon="9.6385997"><ele>11.0</ele><time>2026-03-27T18:02:27.824Z</time></trkpt><trkpt lat="40.407296" lon="9.638628"><ele>11.0</ele><time>2026-03-27T18:02:30.824Z</time></trkpt><trkpt lat="40.407229" lon="9.6386609"><ele>11.0</ele><time>2026-03-27T18:02:32.809Z</time></trkpt><trkpt lat="40.407116" lon="9.6387374"><ele>11.0</ele><time>2026-03-27T18:02:34.821Z</time></trkpt><trkpt lat="40.4070442" lon="9.638802"><ele>11.0</ele><time>2026-03-27T18:02:35.826Z</time></trkpt><trkpt lat="40.4069792" lon="9.6389027"><ele>11.0</ele><time>2026-03-27T18:02:36.818Z</time></trkpt><trkpt lat="40.4069133" lon="9.6390113"><ele>11.0</ele><time>2026-03-27T18:02:37.823Z</time></trkpt><trkpt lat="40.4068484" lon="9.6391296"><ele>11.0</ele><time>2026-03-27T18:02:38.814Z</time></trkpt><trkpt lat="40.4067777" lon="9.6392546"><ele>11.0</ele><time>2026-03-27T18:02:39.818Z</time></trkpt><trkpt lat="40.4066996" lon="9.6393903"><ele>11.0</ele><time>2026-03-27T18:02:40.822Z</time></trkpt><trkpt lat="40.4066164" lon="9.6395361"><ele>11.0</ele><time>2026-03-27T18:02:41.827Z</time></trkpt><trkpt lat="40.406529" lon="9.639692"><ele>11.0</ele><time>2026-03-27T18:02:42.831Z</time></trkpt><trkpt lat="40.4064392" lon="9.6398543"><ele>11.0</ele><time>2026-03-27T18:02:43.824Z</time></trkpt><trkpt lat="40.4063436" lon="9.6400272"><ele>11.0</ele><time>2026-03-27T18:02:44.825Z</time></trkpt><trkpt lat="40.4062447" lon="9.6402054"><ele>11.0</ele><time>2026-03-27T18:02:45.821Z</time></trkpt><trkpt lat="40.4061403" lon="9.6403924"><ele>11.0</ele><time>2026-03-27T18:02:46.825Z</time></trkpt><trkpt lat="40.406029" lon="9.6405895"><ele>11.0</ele><time>2026-03-27T18:02:47.824Z</time></trkpt><trkpt lat="40.4059168" lon="9.6407864"><ele>11.0</ele><time>2026-03-27T18:02:48.824Z</time></trkpt><trkpt lat="40.4058063" lon="9.6409821"><ele>11.666666666666666</ele><time>2026-03-27T18:02:49.822Z</time></trkpt><trkpt lat="40.4057056" lon="9.6411653"><ele>12.333333333333332</ele><time>2026-03-27T18:02:50.821Z</time></trkpt><trkpt lat="40.4056202" lon="9.6413382"><ele>13.0</ele><time>2026-03-27T18:02:51.827Z</time></trkpt><trkpt lat="40.4055552" lon="9.6415127"><ele>13.0</ele><time>2026-03-27T18:02:52.807Z</time></trkpt><trkpt lat="40.4055089" lon="9.6417027"><ele>13.0</ele><time>2026-03-27T18:02:53.822Z</time></trkpt><trkpt lat="40.4054732" lon="9.641908"><ele>13.0</ele><time>2026-03-27T18:02:54.829Z</time></trkpt><trkpt lat="40.405429" lon="9.642129"><ele>12.333333333333332</ele><time>2026-03-27T18:02:55.823Z</time></trkpt><trkpt lat="40.405369" lon="9.6423567"><ele>11.666666666666666</ele><time>2026-03-27T18:02:56.833Z</time></trkpt><trkpt lat="40.4053021" lon="9.6425864"><ele>11.0</ele><time>2026-03-27T18:02:57.826Z</time></trkpt><trkpt lat="40.4052354" lon="9.6428224"><ele>11.0</ele><time>2026-03-27T18:02:58.832Z</time></trkpt><trkpt lat="40.4051726" lon="9.6430661"><ele>11.0</ele><time>2026-03-27T18:02:59.829Z</time></trkpt><trkpt lat="40.4051101" lon="9.6433201"><ele>11.0</ele><time>2026-03-27T18:03:00.827Z</time></trkpt><trkpt lat="40.4050449" lon="9.6435789"><ele>11.0</ele><time>2026-03-27T18:03:01.827Z</time></trkpt><trkpt lat="40.4049763" lon="9.643841"><ele>11.0</ele><time>2026-03-27T18:03:02.825Z</time></trkpt><trkpt lat="40.4049079" lon="9.6441029"><ele>11.0</ele><time>2026-03-27T18:03:03.831Z</time></trkpt><trkpt lat="40.4048449" lon="9.644358"><ele>11.0</ele><time>2026-03-27T18:03:04.809Z</time></trkpt><trkpt lat="40.4047932" lon="9.6446055"><ele>11.0</ele><time>2026-03-27T18:03:05.822Z</time></trkpt><trkpt lat="40.4047559" lon="9.6448562"><ele>11.0</ele><time>2026-03-27T18:03:06.824Z</time></trkpt><trkpt lat="40.4047338" lon="9.6451115"><ele>12.0</ele><time>2026-03-27T18:03:07.807Z</time></trkpt><trkpt lat="40.4047236" lon="9.6453733"><ele>13.0</ele><time>2026-03-27T18:03:08.814Z</time></trkpt><trkpt lat="40.404719" lon="9.6456402"><ele>14.0</ele><time>2026-03-27T18:03:09.823Z</time></trkpt><trkpt lat="40.4047149" lon="9.6459047"><ele>15.0</ele><time>2026-03-27T18:03:10.826Z</time></trkpt><trkpt lat="40.4047118" lon="9.6461538"><ele>16.0</ele><time>2026-03-27T18:03:11.826Z</time></trkpt><trkpt lat="40.4047103" lon="9.6463909"><ele>17.0</ele><time>2026-03-27T18:03:12.822Z</time></trkpt><trkpt lat="40.4047142" lon="9.6466283"><ele>17.0</ele><time>2026-03-27T18:03:13.828Z</time></trkpt><trkpt lat="40.4047361" lon="9.6468643"><ele>17.0</ele><time>2026-03-27T18:03:14.826Z</time></trkpt><trkpt lat="40.4047802" lon="9.6470945"><ele>17.0</ele><time>2026-03-27T18:03:15.822Z</time></trkpt><trkpt lat="40.4048265" lon="9.6473142"><ele>16.666666666666668</ele><time>2026-03-27T18:03:16.819Z</time></trkpt><trkpt lat="40.4048873" lon="9.647529"><ele>16.333333333333332</ele><time>2026-03-27T18:03:17.824Z</time></trkpt><trkpt lat="40.4049392" lon="9.6477472"><ele>16.0</ele><time>2026-03-27T18:03:18.83Z</time></trkpt><trkpt lat="40.4049833" lon="9.647965"><ele>14.666666666666666</ele><time>2026-03-27T18:03:19.811Z</time></trkpt><trkpt lat="40.4050252" lon="9.6481833"><ele>13.333333333333332</ele><time>2026-03-27T18:03:20.821Z</time></trkpt><trkpt lat="40.4050667" lon="9.6483984"><ele>12.0</ele><time>2026-03-27T18:03:21.822Z</time></trkpt><trkpt lat="40.4050929" lon="9.6486172"><ele>12.0</ele><time>2026-03-27T18:03:22.816Z</time></trkpt><trkpt lat="40.4051087" lon="9.6488401"><ele>12.0</ele><time>2026-03-27T18:03:23.827Z</time></trkpt><trkpt lat="40.4051184" lon="9.649058"><ele>12.0</ele><time>2026-03-27T18:03:24.81Z</time></trkpt><trkpt lat="40.4051411" lon="9.6492661"><ele>12.333333333333332</ele><time>2026-03-27T18:03:25.822Z</time></trkpt><trkpt lat="40.4051816" lon="9.6494678"><ele>12.666666666666666</ele><time>2026-03-27T18:03:26.823Z</time></trkpt><trkpt lat="40.4052366" lon="9.6496665"><ele>13.0</ele><time>2026-03-27T18:03:27.829Z</time></trkpt><trkpt lat="40.4052974" lon="9.6498612"><ele>13.0</ele><time>2026-03-27T18:03:28.827Z</time></trkpt><trkpt lat="40.4053603" lon="9.6500509"><ele>13.0</ele><time>2026-03-27T18:03:29.819Z</time></trkpt><trkpt lat="40.4054218" lon="9.6502343"><ele>13.0</ele><time>2026-03-27T18:03:30.825Z</time></trkpt><trkpt lat="40.4054807" lon="9.6503986"><ele>13.0</ele><time>2026-03-27T18:03:31.812Z</time></trkpt><trkpt lat="40.4055305" lon="9.6505494"><ele>13.2</ele><time>2026-03-27T18:03:32.828Z</time></trkpt><trkpt lat="40.4055588" lon="9.650685"><ele>13.4</ele><time>2026-03-27T18:03:33.815Z</time></trkpt><trkpt lat="40.4055603" lon="9.6508149"><ele>13.599999999999998</ele><time>2026-03-27T18:03:34.816Z</time></trkpt><trkpt lat="40.4055352" lon="9.6509324"><ele>13.799999999999999</ele><time>2026-03-27T18:03:35.82Z</time></trkpt><trkpt lat="40.4054958" lon="9.6510408"><ele>14.0</ele><time>2026-03-27T18:03:36.813Z</time></trkpt><trkpt lat="40.4053953" lon="9.6510942"><ele>14.0</ele><time>2026-03-27T18:03:37.809Z</time></trkpt><trkpt lat="40.4052823" lon="9.6511199"><ele>14.0</ele><time>2026-03-27T18:03:38.82Z</time></trkpt><trkpt lat="40.4051581" lon="9.6511597"><ele>14.0</ele><time>2026-03-27T18:03:39.826Z</time></trkpt><trkpt lat="40.4050185" lon="9.6512077"><ele>14.0</ele><time>2026-03-27T18:03:40.813Z</time></trkpt><trkpt lat="40.4048704" lon="9.6512601"><ele>14.0</ele><time>2026-03-27T18:03:41.813Z</time></trkpt><trkpt lat="40.4047317" lon="9.6513158"><ele>14.0</ele><time>2026-03-27T18:03:42.813Z</time></trkpt><trkpt lat="40.4046064" lon="9.6513744"><ele>14.0</ele><time>2026-03-27T18:03:43.808Z</time></trkpt><trkpt lat="40.4044922" lon="9.6514373"><ele>14.0</ele><time>2026-03-27T18:03:44.807Z</time></trkpt><trkpt lat="40.4043877" lon="9.6515023"><ele>14.0</ele><time>2026-03-27T18:03:45.816Z</time></trkpt><trkpt lat="40.4043007" lon="9.6515832"><ele>14.0</ele><time>2026-03-27T18:03:46.811Z</time></trkpt><trkpt lat="40.4042334" lon="9.6516947"><ele>14.0</ele><time>2026-03-27T18:03:47.804Z</time></trkpt><trkpt lat="40.4041855" lon="9.6518331"><ele>14.0</ele><time>2026-03-27T18:03:48.808Z</time></trkpt><trkpt lat="40.4041388" lon="9.6519811"><ele>13.5</ele><time>2026-03-27T18:03:49.809Z</time></trkpt><trkpt lat="40.4040884" lon="9.652129"><ele>13.0</ele><time>2026-03-27T18:03:50.801Z</time></trkpt><trkpt lat="40.404005" lon="9.6522638"><ele>12.5</ele><time>2026-03-27T18:03:51.809Z</time></trkpt><trkpt lat="40.4038973" lon="9.6523738"><ele>12.0</ele><time>2026-03-27T18:03:52.802Z</time></trkpt><trkpt lat="40.403771" lon="9.6524758"><ele>12.0</ele><time>2026-03-27T18:03:53.806Z</time></trkpt><trkpt lat="40.4036404" lon="9.6525838"><ele>12.0</ele><time>2026-03-27T18:03:54.807Z</time></trkpt><trkpt lat="40.4034993" lon="9.6527"><ele>12.0</ele><time>2026-03-27T18:03:55.811Z</time></trkpt><trkpt lat="40.4033528" lon="9.6528215"><ele>12.333333333333332</ele><time>2026-03-27T18:03:56.799Z</time></trkpt><trkpt lat="40.4032012" lon="9.6529458"><ele>12.666666666666666</ele><time>2026-03-27T18:03:57.808Z</time></trkpt><trkpt lat="40.4030517" lon="9.6530725"><ele>13.0</ele><time>2026-03-27T18:03:58.813Z</time></trkpt><trkpt lat="40.4028966" lon="9.6531968"><ele>13.0</ele><time>2026-03-27T18:03:59.813Z</time></trkpt><trkpt lat="40.4027403" lon="9.6533127"><ele>13.0</ele><time>2026-03-27T18:04:00.808Z</time></trkpt><trkpt lat="40.4025732" lon="9.6534256"><ele>13.0</ele><time>2026-03-27T18:04:01.818Z</time></trkpt><trkpt lat="40.4024075" lon="9.6535376"><ele>13.333333333333332</ele><time>2026-03-27T18:04:02.811Z</time></trkpt><trkpt lat="40.4022458" lon="9.653647"><ele>13.666666666666668</ele><time>2026-03-27T18:04:03.817Z</time></trkpt><trkpt lat="40.4020847" lon="9.6537533"><ele>14.0</ele><time>2026-03-27T18:04:04.813Z</time></trkpt><trkpt lat="40.4019243" lon="9.6538569"><ele>14.0</ele><time>2026-03-27T18:04:05.802Z</time></trkpt><trkpt lat="40.4017637" lon="9.6539625"><ele>14.0</ele><time>2026-03-27T18:04:06.805Z</time></trkpt><trkpt lat="40.4016019" lon="9.6540723"><ele>14.0</ele><time>2026-03-27T18:04:07.802Z</time></trkpt><trkpt lat="40.4014379" lon="9.654182"><ele>12.333333333333334</ele><time>2026-03-27T18:04:08.804Z</time></trkpt><trkpt lat="40.4012764" lon="9.6542926"><ele>10.666666666666668</ele><time>2026-03-27T18:04:09.808Z</time></trkpt><trkpt lat="40.4011207" lon="9.6543964"><ele>9.0</ele><time>2026-03-27T18:04:10.816Z</time></trkpt><trkpt lat="40.4009673" lon="9.6544754"><ele>15.0</ele><time>2026-03-27T18:04:11.807Z</time></trkpt><trkpt lat="40.4008078" lon="9.6545286"><ele>21.0</ele><time>2026-03-27T18:04:12.807Z</time></trkpt><trkpt lat="40.4006538" lon="9.6545464"><ele>27.0</ele><time>2026-03-27T18:04:13.804Z</time></trkpt><trkpt lat="40.4005042" lon="9.6545306"><ele>24.0</ele><time>2026-03-27T18:04:14.802Z</time></trkpt><trkpt lat="40.4003561" lon="9.6545044"><ele>21.0</ele><time>2026-03-27T18:04:15.802Z</time></trkpt><trkpt lat="40.4002079" lon="9.6544228"><ele>18.0</ele><time>2026-03-27T18:04:16.812Z</time></trkpt><trkpt lat="40.4000518" lon="9.6543338"><ele>15.0</ele><time>2026-03-27T18:04:17.814Z</time></trkpt><trkpt lat="40.3998884" lon="9.6542373"><ele>12.0</ele><time>2026-03-27T18:04:18.808Z</time></trkpt><trkpt lat="40.3997204" lon="9.6541371"><ele>9.0</ele><time>2026-03-27T18:04:19.805Z</time></trkpt><trkpt lat="40.3995519" lon="9.6540335"><ele>8.0</ele><time>2026-03-27T18:04:20.81Z</time></trkpt><trkpt lat="40.3993769" lon="9.6539299"><ele>7.0</ele><time>2026-03-27T18:04:21.812Z</time></trkpt><trkpt lat="40.3992059" lon="9.6538333"><ele>6.0</ele><time>2026-03-27T18:04:22.812Z</time></trkpt><trkpt lat="40.3990352" lon="9.6537399"><ele>6.0</ele><time>2026-03-27T18:04:23.814Z</time></trkpt><trkpt lat="40.398877" lon="9.6536504"><ele>6.0</ele><time>2026-03-27T18:04:24.816Z</time></trkpt><trkpt lat="40.3987251" lon="9.6535675"><ele>6.0</ele><time>2026-03-27T18:04:25.817Z</time></trkpt><trkpt lat="40.3985984" lon="9.6534923"><ele>6.6</ele><time>2026-03-27T18:04:26.819Z</time></trkpt><trkpt lat="40.3984907" lon="9.6534261"><ele>7.199999999999999</ele><time>2026-03-27T18:04:27.807Z</time></trkpt><trkpt lat="40.3984021" lon="9.6533698"><ele>7.800000000000001</ele><time>2026-03-27T18:04:28.812Z</time></trkpt><trkpt lat="40.3983363" lon="9.6533033"><ele>8.4</ele><time>2026-03-27T18:04:29.797Z</time></trkpt><trkpt lat="40.398291" lon="9.6532161"><ele>9.0</ele><time>2026-03-27T18:04:30.818Z</time></trkpt><trkpt lat="40.3982689" lon="9.653112"><ele>9.0</ele><time>2026-03-27T18:04:31.807Z</time></trkpt><trkpt lat="40.3982643" lon="9.6529935"><ele>9.0</ele><time>2026-03-27T18:04:32.813Z</time></trkpt><trkpt lat="40.3982701" lon="9.6528632"><ele>9.0</ele><time>2026-03-27T18:04:33.808Z</time></trkpt><trkpt lat="40.3982851" lon="9.6527256"><ele>9.0</ele><time>2026-03-27T18:04:34.825Z</time></trkpt><trkpt lat="40.3983087" lon="9.6525776"><ele>9.0</ele><time>2026-03-27T18:04:35.822Z</time></trkpt><trkpt lat="40.3983417" lon="9.6524194"><ele>9.0</ele><time>2026-03-27T18:04:36.81Z</time></trkpt><trkpt lat="40.3983789" lon="9.6522455"><ele>9.0</ele><time>2026-03-27T18:04:37.809Z</time></trkpt><trkpt lat="40.3984151" lon="9.6520508"><ele>9.0</ele><time>2026-03-27T18:04:38.801Z</time></trkpt><trkpt lat="40.3984525" lon="9.6518449"><ele>9.333333333333334</ele><time>2026-03-27T18:04:39.813Z</time></trkpt><trkpt lat="40.3984743" lon="9.651621"><ele>9.666666666666668</ele><time>2026-03-27T18:04:40.811Z</time></trkpt><trkpt lat="40.3984814" lon="9.6513856"><ele>10.0</ele><time>2026-03-27T18:04:41.814Z</time></trkpt><trkpt lat="40.3984796" lon="9.6511341"><ele>11.333333333333334</ele><time>2026-03-27T18:04:42.8Z</time></trkpt><trkpt lat="40.3984732" lon="9.6508787"><ele>12.666666666666668</ele><time>2026-03-27T18:04:43.813Z</time></trkpt><trkpt lat="40.3984417" lon="9.6506168"><ele>14.0</ele><time>2026-03-27T18:04:44.803Z</time></trkpt><trkpt lat="40.3983967" lon="9.6503546"><ele>14.333333333333334</ele><time>2026-03-27T18:04:45.81Z</time></trkpt><trkpt lat="40.3983297" lon="9.6500835"><ele>14.666666666666668</ele><time>2026-03-27T18:04:46.815Z</time></trkpt><trkpt lat="40.3982522" lon="9.649816"><ele>15.0</ele><time>2026-03-27T18:04:47.807Z</time></trkpt><trkpt lat="40.3981574" lon="9.6495436"><ele>17.5</ele><time>2026-03-27T18:04:48.809Z</time></trkpt><trkpt lat="40.3980515" lon="9.6492671"><ele>20.0</ele><time>2026-03-27T18:04:49.808Z</time></trkpt><trkpt lat="40.3979411" lon="9.6490054"><ele>20.0</ele><time>2026-03-27T18:04:50.811Z</time></trkpt><trkpt lat="40.3978286" lon="9.648743"><ele>20.0</ele><time>2026-03-27T18:04:51.812Z</time></trkpt><trkpt lat="40.3977194" lon="9.6484804"><ele>17.5</ele><time>2026-03-27T18:04:52.811Z</time></trkpt><trkpt lat="40.3976099" lon="9.6482159"><ele>15.0</ele><time>2026-03-27T18:04:53.806Z</time></trkpt><trkpt lat="40.3974967" lon="9.6479519"><ele>13.0</ele><time>2026-03-27T18:04:54.807Z</time></trkpt><trkpt lat="40.397385" lon="9.6476863"><ele>11.0</ele><time>2026-03-27T18:04:55.804Z</time></trkpt><trkpt lat="40.3972757" lon="9.6474184"><ele>11.0</ele><time>2026-03-27T18:04:56.804Z</time></trkpt><trkpt lat="40.3971749" lon="9.6471474"><ele>11.0</ele><time>2026-03-27T18:04:57.812Z</time></trkpt><trkpt lat="40.3970881" lon="9.6468689"><ele>17.0</ele><time>2026-03-27T18:04:58.806Z</time></trkpt><trkpt lat="40.3970194" lon="9.6465831"><ele>23.0</ele><time>2026-03-27T18:04:59.807Z</time></trkpt><trkpt lat="40.3969705" lon="9.6462909"><ele>22.0</ele><time>2026-03-27T18:05:00.818Z</time></trkpt><trkpt lat="40.3969371" lon="9.6459918"><ele>21.0</ele><time>2026-03-27T18:05:01.808Z</time></trkpt><trkpt lat="40.3969097" lon="9.6456909"><ele>21.0</ele><time>2026-03-27T18:05:02.81Z</time></trkpt><trkpt lat="40.3968822" lon="9.6453907"><ele>21.0</ele><time>2026-03-27T18:05:03.811Z</time></trkpt><trkpt lat="40.3968534" lon="9.6450886"><ele>19.0</ele><time>2026-03-27T18:05:04.805Z</time></trkpt><trkpt lat="40.396822" lon="9.6447865"><ele>17.0</ele><time>2026-03-27T18:05:05.809Z</time></trkpt><trkpt lat="40.3967871" lon="9.6444838"><ele>15.0</ele><time>2026-03-27T18:05:06.802Z</time></trkpt><trkpt lat="40.3967487" lon="9.6441808"><ele>13.0</ele><time>2026-03-27T18:05:07.807Z</time></trkpt><trkpt lat="40.3967088" lon="9.6438768"><ele>11.5</ele><time>2026-03-27T18:05:08.802Z</time></trkpt><trkpt lat="40.3966646" lon="9.6435741"><ele>10.0</ele><time>2026-03-27T18:05:09.807Z</time></trkpt><trkpt lat="40.396617" lon="9.6432722"><ele>10.0</ele><time>2026-03-27T18:05:10.813Z</time></trkpt><trkpt lat="40.396569" lon="9.6429705"><ele>10.0</ele><time>2026-03-27T18:05:11.808Z</time></trkpt><trkpt lat="40.3965213" lon="9.6426682"><ele>10.0</ele><time>2026-03-27T18:05:12.811Z</time></trkpt><trkpt lat="40.3964739" lon="9.6423644"><ele>10.0</ele><time>2026-03-27T18:05:13.807Z</time></trkpt><trkpt lat="40.3964267" lon="9.6420613"><ele>9.0</ele><time>2026-03-27T18:05:14.811Z</time></trkpt><trkpt lat="40.3963792" lon="9.6417579"><ele>8.0</ele><time>2026-03-27T18:05:15.819Z</time></trkpt><trkpt lat="40.3963308" lon="9.6414558"><ele>13.0</ele><time>2026-03-27T18:05:16.817Z</time></trkpt><trkpt lat="40.3962811" lon="9.6411541"><ele>18.0</ele><time>2026-03-27T18:05:17.813Z</time></trkpt><trkpt lat="40.3962303" lon="9.6408521"><ele>18.0</ele><time>2026-03-27T18:05:18.795Z</time></trkpt><trkpt lat="40.3961799" lon="9.6405517"><ele>18.0</ele><time>2026-03-27T18:05:19.817Z</time></trkpt><trkpt lat="40.3961312" lon="9.6402495"><ele>15.5</ele><time>2026-03-27T18:05:20.81Z</time></trkpt><trkpt lat="40.3960827" lon="9.6399473"><ele>13.0</ele><time>2026-03-27T18:05:21.802Z</time></trkpt><trkpt lat="40.3960335" lon="9.6396444"><ele>12.0</ele><time>2026-03-27T18:05:22.81Z</time></trkpt><trkpt lat="40.3959835" lon="9.6393419"><ele>11.0</ele><time>2026-03-27T18:05:23.827Z</time></trkpt><trkpt lat="40.395934" lon="9.6390396"><ele>11.0</ele><time>2026-03-27T18:05:24.817Z</time></trkpt><trkpt lat="40.3958841" lon="9.6387366"><ele>11.0</ele><time>2026-03-27T18:05:25.805Z</time></trkpt><trkpt lat="40.3958349" lon="9.6384348"><ele>10.0</ele><time>2026-03-27T18:05:26.815Z</time></trkpt><trkpt lat="40.395786" lon="9.6381338"><ele>9.0</ele><time>2026-03-27T18:05:27.814Z</time></trkpt><trkpt lat="40.3957371" lon="9.6378331"><ele>8.5</ele><time>2026-03-27T18:05:28.829Z</time></trkpt><trkpt lat="40.3956881" lon="9.6375323"><ele>8.0</ele><time>2026-03-27T18:05:29.805Z</time></trkpt><trkpt lat="40.3956384" lon="9.6372328"><ele>8.0</ele><time>2026-03-27T18:05:30.819Z</time></trkpt><trkpt lat="40.3955893" lon="9.6369322"><ele>8.0</ele><time>2026-03-27T18:05:31.813Z</time></trkpt><trkpt lat="40.3955405" lon="9.6366306"><ele>13.5</ele><time>2026-03-27T18:05:32.811Z</time></trkpt><trkpt lat="40.3954918" lon="9.6363292"><ele>19.0</ele><time>2026-03-27T18:05:33.82Z</time></trkpt><trkpt lat="40.3954431" lon="9.6360276"><ele>20.5</ele><time>2026-03-27T18:05:34.813Z</time></trkpt><trkpt lat="40.3953936" lon="9.6357266"><ele>22.0</ele><time>2026-03-27T18:05:35.818Z</time></trkpt><trkpt lat="40.3953442" lon="9.6354252"><ele>19.0</ele><time>2026-03-27T18:05:36.812Z</time></trkpt><trkpt lat="40.3952952" lon="9.6351246"><ele>16.0</ele><time>2026-03-27T18:05:37.808Z</time></trkpt><trkpt lat="40.3952478" lon="9.634824"><ele>16.0</ele><time>2026-03-27T18:05:38.814Z</time></trkpt><trkpt lat="40.395204" lon="9.6345439"><ele>16.0</ele><time>2026-03-27T18:05:39.805Z</time></trkpt><trkpt lat="40.3951576" lon="9.6342483"><ele>16.0</ele><time>2026-03-27T18:05:40.821Z</time></trkpt><trkpt lat="40.3951063" lon="9.6339487"><ele>13.0</ele><time>2026-03-27T18:05:41.809Z</time></trkpt><trkpt lat="40.3950546" lon="9.6336491"><ele>10.0</ele><time>2026-03-27T18:05:42.82Z</time></trkpt><trkpt lat="40.3950047" lon="9.6333487"><ele>10.0</ele><time>2026-03-27T18:05:43.805Z</time></trkpt><trkpt lat="40.3949562" lon="9.6330486"><ele>10.0</ele><time>2026-03-27T18:05:44.811Z</time></trkpt><trkpt lat="40.3949057" lon="9.632749"><ele>9.5</ele><time>2026-03-27T18:05:45.814Z</time></trkpt><trkpt lat="40.3948569" lon="9.6324447"><ele>9.0</ele><time>2026-03-27T18:05:46.82Z</time></trkpt><trkpt lat="40.3948082" lon="9.6321456"><ele>9.0</ele><time>2026-03-27T18:05:47.814Z</time></trkpt><trkpt lat="40.3947573" lon="9.6318442"><ele>9.0</ele><time>2026-03-27T18:05:48.831Z</time></trkpt><trkpt lat="40.3947074" lon="9.6315442"><ele>11.5</ele><time>2026-03-27T18:05:49.809Z</time></trkpt><trkpt lat="40.3946548" lon="9.6312429"><ele>14.0</ele><time>2026-03-27T18:05:50.809Z</time></trkpt><trkpt lat="40.394598" lon="9.6309447"><ele>14.0</ele><time>2026-03-27T18:05:51.811Z</time></trkpt><trkpt lat="40.3945377" lon="9.6306468"><ele>14.0</ele><time>2026-03-27T18:05:52.823Z</time></trkpt><trkpt lat="40.3944703" lon="9.630352"><ele>13.5</ele><time>2026-03-27T18:05:53.813Z</time></trkpt><trkpt lat="40.3943933" lon="9.630061"><ele>13.0</ele><time>2026-03-27T18:05:54.812Z</time></trkpt><trkpt lat="40.3943095" lon="9.6297732"><ele>13.0</ele><time>2026-03-27T18:05:55.812Z</time></trkpt><trkpt lat="40.3942165" lon="9.6294903"><ele>13.0</ele><time>2026-03-27T18:05:56.803Z</time></trkpt><trkpt lat="40.3941147" lon="9.6292139"><ele>11.0</ele><time>2026-03-27T18:05:57.823Z</time></trkpt><trkpt lat="40.3940047" lon="9.6289426"><ele>9.0</ele><time>2026-03-27T18:05:58.811Z</time></trkpt><trkpt lat="40.393889" lon="9.6286761"><ele>8.5</ele><time>2026-03-27T18:05:59.809Z</time></trkpt><trkpt lat="40.3937697" lon="9.6284097"><ele>8.0</ele><time>2026-03-27T18:06:00.824Z</time></trkpt><trkpt lat="40.3936512" lon="9.6281439"><ele>8.0</ele><time>2026-03-27T18:06:01.812Z</time></trkpt><trkpt lat="40.3935347" lon="9.6278765"><ele>8.0</ele><time>2026-03-27T18:06:02.815Z</time></trkpt><trkpt lat="40.3934179" lon="9.6276084"><ele>9.0</ele><time>2026-03-27T18:06:03.807Z</time></trkpt><trkpt lat="40.3932992" lon="9.6273423"><ele>10.0</ele><time>2026-03-27T18:06:04.809Z</time></trkpt><trkpt lat="40.3931795" lon="9.627077"><ele>10.0</ele><time>2026-03-27T18:06:05.815Z</time></trkpt><trkpt lat="40.393059" lon="9.6268128"><ele>10.0</ele><time>2026-03-27T18:06:06.795Z</time></trkpt><trkpt lat="40.3929393" lon="9.6265485"><ele>10.0</ele><time>2026-03-27T18:06:07.807Z</time></trkpt><trkpt lat="40.3928185" lon="9.6262843"><ele>10.0</ele><time>2026-03-27T18:06:08.809Z</time></trkpt><trkpt lat="40.392698" lon="9.6260197"><ele>9.5</ele><time>2026-03-27T18:06:09.811Z</time></trkpt><trkpt lat="40.3925781" lon="9.6257546"><ele>9.0</ele><time>2026-03-27T18:06:10.794Z</time></trkpt><trkpt lat="40.392459" lon="9.6254893"><ele>8.5</ele><time>2026-03-27T18:06:11.815Z</time></trkpt><trkpt lat="40.3923404" lon="9.6252234"><ele>8.0</ele><time>2026-03-27T18:06:12.814Z</time></trkpt><trkpt lat="40.3922208" lon="9.6249576"><ele>8.5</ele><time>2026-03-27T18:06:13.807Z</time></trkpt><trkpt lat="40.3921004" lon="9.6246923"><ele>9.0</ele><time>2026-03-27T18:06:14.807Z</time></trkpt><trkpt lat="40.3919811" lon="9.6244264"><ele>10.5</ele><time>2026-03-27T18:06:15.818Z</time></trkpt><trkpt lat="40.3918619" lon="9.6241619"><ele>12.0</ele><time>2026-03-27T18:06:16.814Z</time></trkpt><trkpt lat="40.3917421" lon="9.6238963"><ele>11.5</ele><time>2026-03-27T18:06:17.819Z</time></trkpt><trkpt lat="40.3916228" lon="9.6236303"><ele>11.0</ele><time>2026-03-27T18:06:18.833Z</time></trkpt><trkpt lat="40.391504" lon="9.6233644"><ele>11.0</ele><time>2026-03-27T18:06:19.804Z</time></trkpt><trkpt lat="40.3913857" lon="9.6230989"><ele>11.0</ele><time>2026-03-27T18:06:20.814Z</time></trkpt><trkpt lat="40.391267" lon="9.6228336"><ele>12.0</ele><time>2026-03-27T18:06:21.813Z</time></trkpt><trkpt lat="40.3911474" lon="9.6225688"><ele>13.0</ele><time>2026-03-27T18:06:22.816Z</time></trkpt><trkpt lat="40.3910265" lon="9.6223052"><ele>13.0</ele><time>2026-03-27T18:06:23.806Z</time></trkpt><trkpt lat="40.3909056" lon="9.6220411"><ele>13.0</ele><time>2026-03-27T18:06:24.814Z</time></trkpt><trkpt lat="40.3907857" lon="9.6217755"><ele>11.5</ele><time>2026-03-27T18:06:25.807Z</time></trkpt><trkpt lat="40.390666" lon="9.6215094"><ele>10.0</ele><time>2026-03-27T18:06:26.806Z</time></trkpt><trkpt lat="40.3905477" lon="9.6212436"><ele>10.5</ele><time>2026-03-27T18:06:27.816Z</time></trkpt><trkpt lat="40.3904292" lon="9.6209779"><ele>11.0</ele><time>2026-03-27T18:06:28.813Z</time></trkpt><trkpt lat="40.39031" lon="9.620713"><ele>11.0</ele><time>2026-03-27T18:06:29.816Z</time></trkpt><trkpt lat="40.3901896" lon="9.6204485"><ele>11.0</ele><time>2026-03-27T18:06:30.805Z</time></trkpt><trkpt lat="40.3900683" lon="9.6201844"><ele>11.5</ele><time>2026-03-27T18:06:31.801Z</time></trkpt><trkpt lat="40.3899462" lon="9.619921"><ele>12.0</ele><time>2026-03-27T18:06:32.808Z</time></trkpt><trkpt lat="40.3898248" lon="9.6196578"><ele>12.5</ele><time>2026-03-27T18:06:33.8Z</time></trkpt><trkpt lat="40.3897041" lon="9.6193945"><ele>13.0</ele><time>2026-03-27T18:06:34.839Z</time></trkpt><trkpt lat="40.3895837" lon="9.6191314"><ele>13.0</ele><time>2026-03-27T18:06:35.807Z</time></trkpt><trkpt lat="40.3894629" lon="9.6188689"><ele>13.0</ele><time>2026-03-27T18:06:36.816Z</time></trkpt><trkpt lat="40.389346" lon="9.6186133"><ele>13.0</ele><time>2026-03-27T18:06:37.816Z</time></trkpt><trkpt lat="40.3892365" lon="9.6183755"><ele>13.0</ele><time>2026-03-27T18:06:38.811Z</time></trkpt><trkpt lat="40.389135" lon="9.618148"><ele>13.0</ele><time>2026-03-27T18:06:39.818Z</time></trkpt><trkpt lat="40.3890439" lon="9.6179279"><ele>12.666666666666666</ele><time>2026-03-27T18:06:40.813Z</time></trkpt><trkpt lat="40.3889607" lon="9.617712"><ele>12.333333333333332</ele><time>2026-03-27T18:06:41.816Z</time></trkpt><trkpt lat="40.3888858" lon="9.6175021"><ele>12.0</ele><time>2026-03-27T18:06:42.815Z</time></trkpt><trkpt lat="40.3888183" lon="9.6172971"><ele>14.333333333333332</ele><time>2026-03-27T18:06:43.811Z</time></trkpt><trkpt lat="40.3887559" lon="9.6170959"><ele>16.666666666666664</ele><time>2026-03-27T18:06:44.828Z</time></trkpt><trkpt lat="40.3886948" lon="9.6168978"><ele>19.0</ele><time>2026-03-27T18:06:45.817Z</time></trkpt><trkpt lat="40.3886357" lon="9.6167055"><ele>19.0</ele><time>2026-03-27T18:06:46.828Z</time></trkpt><trkpt lat="40.3885795" lon="9.6165215"><ele>19.0</ele><time>2026-03-27T18:06:47.817Z</time></trkpt><trkpt lat="40.3885292" lon="9.6163488"><ele>19.0</ele><time>2026-03-27T18:06:48.823Z</time></trkpt><trkpt lat="40.3884847" lon="9.6161875"><ele>19.0</ele><time>2026-03-27T18:06:49.826Z</time></trkpt><trkpt lat="40.3884421" lon="9.6160319"><ele>18.8</ele><time>2026-03-27T18:06:50.805Z</time></trkpt><trkpt lat="40.3884" lon="9.6158815"><ele>18.599999999999998</ele><time>2026-03-27T18:06:51.818Z</time></trkpt><trkpt lat="40.3883638" lon="9.6157493"><ele>18.4</ele><time>2026-03-27T18:06:52.818Z</time></trkpt><trkpt lat="40.3883281" lon="9.6156171"><ele>18.2</ele><time>2026-03-27T18:06:53.809Z</time></trkpt><trkpt lat="40.3882972" lon="9.615493"><ele>18.0</ele><time>2026-03-27T18:06:54.815Z</time></trkpt><trkpt lat="40.3882679" lon="9.6153898"><ele>17.666666666666668</ele><time>2026-03-27T18:06:55.828Z</time></trkpt><trkpt lat="40.3882424" lon="9.61528"><ele>17.333333333333332</ele><time>2026-03-27T18:06:57.814Z</time></trkpt><trkpt lat="40.3882212" lon="9.6151931"><ele>17.0</ele><time>2026-03-27T18:07:02.801Z</time></trkpt><trkpt lat="40.3881907" lon="9.6151025"><ele>16.666666666666664</ele><time>2026-03-27T18:07:05.806Z</time></trkpt><trkpt lat="40.388146" lon="9.6149673"><ele>16.333333333333332</ele><time>2026-03-27T18:07:13.798Z</time></trkpt><trkpt lat="40.3880768" lon="9.6148866"><ele>16.0</ele><time>2026-03-27T18:11:28.829Z</time></trkpt><trkpt lat="40.3880522" lon="9.6147883"><ele>15.999999999999998</ele><time>2026-03-27T18:11:30.824Z</time></trkpt><trkpt lat="40.388031" lon="9.6146871"><ele>16.0</ele><time>2026-03-27T18:11:32.819Z</time></trkpt><trkpt lat="40.3880104" lon="9.6145917"><ele>16.0</ele><time>2026-03-27T18:11:34.813Z</time></trkpt><trkpt lat="40.387979" lon="9.6144708"><ele>16.0</ele><time>2026-03-27T18:11:36.819Z</time></trkpt><trkpt lat="40.3879486" lon="9.6143907"><ele>15.999999999999998</ele><time>2026-03-27T18:11:37.817Z</time></trkpt><trkpt lat="40.3879157" lon="9.6142975"><ele>16.0</ele><time>2026-03-27T18:11:38.821Z</time></trkpt><trkpt lat="40.3878827" lon="9.6142062"><ele>16.2</ele><time>2026-03-27T18:11:39.818Z</time></trkpt><trkpt lat="40.3878394" lon="9.6140969"><ele>16.400000000000002</ele><time>2026-03-27T18:11:40.817Z</time></trkpt><trkpt lat="40.387788" lon="9.6139712"><ele>16.6</ele><time>2026-03-27T18:11:41.826Z</time></trkpt><trkpt lat="40.3877351" lon="9.6138452"><ele>16.8</ele><time>2026-03-27T18:11:42.816Z</time></trkpt><trkpt lat="40.3876813" lon="9.6137122"><ele>17.0</ele><time>2026-03-27T18:11:43.82Z</time></trkpt><trkpt lat="40.387622" lon="9.6135779"><ele>17.0</ele><time>2026-03-27T18:11:44.827Z</time></trkpt><trkpt lat="40.3875579" lon="9.613447"><ele>17.0</ele><time>2026-03-27T18:11:45.81Z</time></trkpt><trkpt lat="40.3874899" lon="9.6133152"><ele>17.0</ele><time>2026-03-27T18:11:46.824Z</time></trkpt><trkpt lat="40.3874206" lon="9.6131881"><ele>17.0</ele><time>2026-03-27T18:11:47.824Z</time></trkpt><trkpt lat="40.387351" lon="9.6130646"><ele>17.0</ele><time>2026-03-27T18:11:48.813Z</time></trkpt><trkpt lat="40.3872781" lon="9.6129422"><ele>17.0</ele><time>2026-03-27T18:11:49.829Z</time></trkpt><trkpt lat="40.3872033" lon="9.6128233"><ele>17.0</ele><time>2026-03-27T18:11:50.827Z</time></trkpt><trkpt lat="40.3871302" lon="9.6127067"><ele>17.0</ele><time>2026-03-27T18:11:51.824Z</time></trkpt><trkpt lat="40.3870524" lon="9.6125963"><ele>16.8</ele><time>2026-03-27T18:11:52.823Z</time></trkpt><trkpt lat="40.3869776" lon="9.6124893"><ele>16.6</ele><time>2026-03-27T18:11:53.836Z</time></trkpt><trkpt lat="40.3869013" lon="9.6123866"><ele>16.400000000000002</ele><time>2026-03-27T18:11:54.813Z</time></trkpt><trkpt lat="40.386826" lon="9.6122821"><ele>16.2</ele><time>2026-03-27T18:11:55.829Z</time></trkpt><trkpt lat="40.3867448" lon="9.6121783"><ele>16.0</ele><time>2026-03-27T18:11:56.834Z</time></trkpt><trkpt lat="40.3866609" lon="9.6120789"><ele>16.0</ele><time>2026-03-27T18:11:57.817Z</time></trkpt><trkpt lat="40.3865712" lon="9.6119864"><ele>16.0</ele><time>2026-03-27T18:11:58.83Z</time></trkpt><trkpt lat="40.3864738" lon="9.6118934"><ele>16.0</ele><time>2026-03-27T18:11:59.828Z</time></trkpt><trkpt lat="40.3863752" lon="9.6117922"><ele>16.0</ele><time>2026-03-27T18:12:00.826Z</time></trkpt><trkpt lat="40.3862728" lon="9.6116791"><ele>16.0</ele><time>2026-03-27T18:12:01.819Z</time></trkpt><trkpt lat="40.3861619" lon="9.6115589"><ele>16.0</ele><time>2026-03-27T18:12:02.839Z</time></trkpt><trkpt lat="40.3860487" lon="9.611433"><ele>16.0</ele><time>2026-03-27T18:12:03.827Z</time></trkpt><trkpt lat="40.3859398" lon="9.6113211"><ele>16.0</ele><time>2026-03-27T18:12:04.807Z</time></trkpt><trkpt lat="40.3858321" lon="9.6112142"><ele>16.25</ele><time>2026-03-27T18:12:05.836Z</time></trkpt><trkpt lat="40.3857234" lon="9.6111054"><ele>16.5</ele><time>2026-03-27T18:12:06.828Z</time></trkpt><trkpt lat="40.3856103" lon="9.6109959"><ele>16.75</ele><time>2026-03-27T18:12:07.82Z</time></trkpt><trkpt lat="40.3854961" lon="9.6108838"><ele>17.0</ele><time>2026-03-27T18:12:08.829Z</time></trkpt><trkpt lat="40.3853802" lon="9.6107718"><ele>17.0</ele><time>2026-03-27T18:12:09.825Z</time></trkpt><trkpt lat="40.3852654" lon="9.610661"><ele>17.0</ele><time>2026-03-27T18:12:10.826Z</time></trkpt><trkpt lat="40.3851514" lon="9.6105523"><ele>17.0</ele><time>2026-03-27T18:12:11.812Z</time></trkpt><trkpt lat="40.3850395" lon="9.6104455"><ele>17.0</ele><time>2026-03-27T18:12:12.82Z</time></trkpt><trkpt lat="40.3849341" lon="9.6103418"><ele>16.8</ele><time>2026-03-27T18:12:13.814Z</time></trkpt><trkpt lat="40.3848344" lon="9.6102403"><ele>16.6</ele><time>2026-03-27T18:12:14.82Z</time></trkpt><trkpt lat="40.3847385" lon="9.6101517"><ele>16.400000000000002</ele><time>2026-03-27T18:12:15.818Z</time></trkpt><trkpt lat="40.384655" lon="9.6100726"><ele>16.2</ele><time>2026-03-27T18:12:16.812Z</time></trkpt><trkpt lat="40.3845842" lon="9.6100042"><ele>16.0</ele><time>2026-03-27T18:12:17.835Z</time></trkpt><trkpt lat="40.3845182" lon="9.6099386"><ele>16.0</ele><time>2026-03-27T18:12:18.819Z</time></trkpt><trkpt lat="40.3844457" lon="9.6098678"><ele>16.0</ele><time>2026-03-27T18:12:19.818Z</time></trkpt><trkpt lat="40.3843685" lon="9.60979"><ele>16.0</ele><time>2026-03-27T18:12:20.831Z</time></trkpt><trkpt lat="40.384286" lon="9.6097078"><ele>16.0</ele><time>2026-03-27T18:12:21.834Z</time></trkpt><trkpt lat="40.384188" lon="9.6096134"><ele>16.0</ele><time>2026-03-27T18:12:22.813Z</time></trkpt><trkpt lat="40.3840843" lon="9.6095139"><ele>16.25</ele><time>2026-03-27T18:12:23.809Z</time></trkpt><trkpt lat="40.3839754" lon="9.6094115"><ele>16.5</ele><time>2026-03-27T18:12:24.818Z</time></trkpt><trkpt lat="40.3838594" lon="9.6093024"><ele>16.75</ele><time>2026-03-27T18:12:25.803Z</time></trkpt><trkpt lat="40.3837382" lon="9.6091837"><ele>17.0</ele><time>2026-03-27T18:12:26.818Z</time></trkpt><trkpt lat="40.3836155" lon="9.6090641"><ele>17.0</ele><time>2026-03-27T18:12:27.815Z</time></trkpt><trkpt lat="40.3834947" lon="9.608949"><ele>17.0</ele><time>2026-03-27T18:12:28.831Z</time></trkpt><trkpt lat="40.3833784" lon="9.6088351"><ele>17.0</ele><time>2026-03-27T18:12:29.829Z</time></trkpt><trkpt lat="40.3832611" lon="9.6087213"><ele>17.0</ele><time>2026-03-27T18:12:30.828Z</time></trkpt><trkpt lat="40.3831432" lon="9.6086042"><ele>16.5</ele><time>2026-03-27T18:12:31.82Z</time></trkpt><trkpt lat="40.3830237" lon="9.608486"><ele>16.0</ele><time>2026-03-27T18:12:32.834Z</time></trkpt><trkpt lat="40.3829028" lon="9.6083689"><ele>15.5</ele><time>2026-03-27T18:12:33.812Z</time></trkpt><trkpt lat="40.382784" lon="9.6082532"><ele>15.0</ele><time>2026-03-27T18:12:34.829Z</time></trkpt><trkpt lat="40.3826669" lon="9.6081393"><ele>16.25</ele><time>2026-03-27T18:12:35.832Z</time></trkpt><trkpt lat="40.3825501" lon="9.6080262"><ele>17.5</ele><time>2026-03-27T18:12:36.829Z</time></trkpt><trkpt lat="40.3824389" lon="9.6079088"><ele>18.75</ele><time>2026-03-27T18:12:37.829Z</time></trkpt><trkpt lat="40.3823294" lon="9.6077915"><ele>20.0</ele><time>2026-03-27T18:12:38.816Z</time></trkpt><trkpt lat="40.3822319" lon="9.6076848"><ele>20.8</ele><time>2026-03-27T18:12:39.834Z</time></trkpt><trkpt lat="40.3821359" lon="9.6075805"><ele>21.6</ele><time>2026-03-27T18:12:40.817Z</time></trkpt><trkpt lat="40.3820507" lon="9.6074837"><ele>22.4</ele><time>2026-03-27T18:12:41.82Z</time></trkpt><trkpt lat="40.3819823" lon="9.6074048"><ele>23.2</ele><time>2026-03-27T18:12:42.835Z</time></trkpt><trkpt lat="40.3819221" lon="9.6073365"><ele>24.0</ele><time>2026-03-27T18:12:43.819Z</time></trkpt><trkpt lat="40.3818607" lon="9.6072671"><ele>24.0</ele><time>2026-03-27T18:12:44.823Z</time></trkpt><trkpt lat="40.3817934" lon="9.6071875"><ele>24.0</ele><time>2026-03-27T18:12:45.832Z</time></trkpt><trkpt lat="40.3817262" lon="9.6071036"><ele>24.0</ele><time>2026-03-27T18:12:46.833Z</time></trkpt><trkpt lat="40.3816555" lon="9.6070163"><ele>24.0</ele><time>2026-03-27T18:12:47.819Z</time></trkpt><trkpt lat="40.3815805" lon="9.606922"><ele>24.0</ele><time>2026-03-27T18:12:48.828Z</time></trkpt><trkpt lat="40.3815006" lon="9.606817"><ele>24.0</ele><time>2026-03-27T18:12:49.819Z</time></trkpt><trkpt lat="40.381413" lon="9.6067037"><ele>24.0</ele><time>2026-03-27T18:12:50.833Z</time></trkpt><trkpt lat="40.3813176" lon="9.6065783"><ele>24.0</ele><time>2026-03-27T18:12:51.823Z</time></trkpt><trkpt lat="40.3812193" lon="9.6064491"><ele>24.0</ele><time>2026-03-27T18:12:52.829Z</time></trkpt><trkpt lat="40.3811226" lon="9.6063162"><ele>24.25</ele><time>2026-03-27T18:12:53.822Z</time></trkpt><trkpt lat="40.3810244" lon="9.6061809"><ele>24.5</ele><time>2026-03-27T18:12:54.829Z</time></trkpt><trkpt lat="40.380928" lon="9.6060497"><ele>24.75</ele><time>2026-03-27T18:12:55.824Z</time></trkpt><trkpt lat="40.3808374" lon="9.6059256"><ele>25.0</ele><time>2026-03-27T18:12:56.826Z</time></trkpt><trkpt lat="40.3807519" lon="9.60581"><ele>25.0</ele><time>2026-03-27T18:12:57.815Z</time></trkpt><trkpt lat="40.3806701" lon="9.6057028"><ele>25.0</ele><time>2026-03-27T18:12:58.823Z</time></trkpt><trkpt lat="40.3805915" lon="9.6055942"><ele>25.0</ele><time>2026-03-27T18:12:59.829Z</time></trkpt><trkpt lat="40.3805075" lon="9.6054704"><ele>25.0</ele><time>2026-03-27T18:13:00.83Z</time></trkpt><trkpt lat="40.3804178" lon="9.6053301"><ele>24.0</ele><time>2026-03-27T18:13:01.825Z</time></trkpt><trkpt lat="40.3803325" lon="9.6051792"><ele>23.0</ele><time>2026-03-27T18:13:02.817Z</time></trkpt><trkpt lat="40.3802508" lon="9.6050198"><ele>22.0</ele><time>2026-03-27T18:13:03.826Z</time></trkpt><trkpt lat="40.380178" lon="9.6048512"><ele>21.0</ele><time>2026-03-27T18:13:04.816Z</time></trkpt><trkpt lat="40.3801191" lon="9.604677"><ele>20.5</ele><time>2026-03-27T18:13:05.821Z</time></trkpt><trkpt lat="40.3800737" lon="9.6044915"><ele>20.0</ele><time>2026-03-27T18:13:06.812Z</time></trkpt><trkpt lat="40.3800438" lon="9.6042999"><ele>19.5</ele><time>2026-03-27T18:13:07.811Z</time></trkpt><trkpt lat="40.3800266" lon="9.6041044"><ele>19.0</ele><time>2026-03-27T18:13:08.833Z</time></trkpt><trkpt lat="40.3800173" lon="9.6039129"><ele>19.0</ele><time>2026-03-27T18:13:09.833Z</time></trkpt><trkpt lat="40.3800103" lon="9.6037282"><ele>19.0</ele><time>2026-03-27T18:13:10.82Z</time></trkpt><trkpt lat="40.3800051" lon="9.6035516"><ele>19.0</ele><time>2026-03-27T18:13:11.821Z</time></trkpt><trkpt lat="40.3800013" lon="9.603379"><ele>19.0</ele><time>2026-03-27T18:13:12.828Z</time></trkpt><trkpt lat="40.379998" lon="9.6032084"><ele>19.0</ele><time>2026-03-27T18:13:13.83Z</time></trkpt><trkpt lat="40.379994" lon="9.6030283"><ele>19.0</ele><time>2026-03-27T18:13:14.825Z</time></trkpt><trkpt lat="40.3799907" lon="9.6028429"><ele>19.0</ele><time>2026-03-27T18:13:15.831Z</time></trkpt><trkpt lat="40.3799825" lon="9.6026531"><ele>19.0</ele><time>2026-03-27T18:13:16.828Z</time></trkpt><trkpt lat="40.3799631" lon="9.6024608"><ele>18.666666666666664</ele><time>2026-03-27T18:13:17.827Z</time></trkpt><trkpt lat="40.3799315" lon="9.6022661"><ele>18.333333333333332</ele><time>2026-03-27T18:13:18.833Z</time></trkpt><trkpt lat="40.3798891" lon="9.6020723"><ele>18.0</ele><time>2026-03-27T18:13:19.811Z</time></trkpt><trkpt lat="40.3798347" lon="9.6018794"><ele>18.0</ele><time>2026-03-27T18:13:20.819Z</time></trkpt><trkpt lat="40.379766" lon="9.6016922"><ele>18.0</ele><time>2026-03-27T18:13:21.835Z</time></trkpt><trkpt lat="40.3796836" lon="9.6015142"><ele>18.0</ele><time>2026-03-27T18:13:22.828Z</time></trkpt><trkpt lat="40.3795876" lon="9.6013426"><ele>18.0</ele><time>2026-03-27T18:13:23.82Z</time></trkpt><trkpt lat="40.3794865" lon="9.6011803"><ele>18.0</ele><time>2026-03-27T18:13:24.827Z</time></trkpt><trkpt lat="40.3793868" lon="9.6010152"><ele>18.0</ele><time>2026-03-27T18:13:25.826Z</time></trkpt><trkpt lat="40.3792875" lon="9.6008521"><ele>17.333333333333332</ele><time>2026-03-27T18:13:26.82Z</time></trkpt><trkpt lat="40.3791842" lon="9.6006925"><ele>16.666666666666664</ele><time>2026-03-27T18:13:27.827Z</time></trkpt><trkpt lat="40.3790869" lon="9.600533"><ele>16.0</ele><time>2026-03-27T18:13:28.831Z</time></trkpt><trkpt lat="40.3789839" lon="9.6003763"><ele>16.333333333333332</ele><time>2026-03-27T18:13:29.82Z</time></trkpt><trkpt lat="40.3788801" lon="9.6002106"><ele>16.666666666666668</ele><time>2026-03-27T18:13:30.819Z</time></trkpt><trkpt lat="40.3787737" lon="9.6000336"><ele>17.0</ele><time>2026-03-27T18:13:31.842Z</time></trkpt><trkpt lat="40.3786601" lon="9.5998469"><ele>18.0</ele><time>2026-03-27T18:13:32.814Z</time></trkpt><trkpt lat="40.378536" lon="9.59965"><ele>19.0</ele><time>2026-03-27T18:13:33.828Z</time></trkpt><trkpt lat="40.3784096" lon="9.5994407"><ele>20.0</ele><time>2026-03-27T18:13:34.824Z</time></trkpt><trkpt lat="40.3782732" lon="9.5992273"><ele>20.333333333333336</ele><time>2026-03-27T18:13:35.814Z</time></trkpt><trkpt lat="40.3781346" lon="9.5990083"><ele>20.666666666666668</ele><time>2026-03-27T18:13:36.827Z</time></trkpt><trkpt lat="40.3779983" lon="9.5987923"><ele>21.0</ele><time>2026-03-27T18:13:37.826Z</time></trkpt><trkpt lat="40.3778641" lon="9.5985649"><ele>21.666666666666668</ele><time>2026-03-27T18:13:38.814Z</time></trkpt><trkpt lat="40.3777274" lon="9.598352"><ele>22.333333333333336</ele><time>2026-03-27T18:13:39.827Z</time></trkpt><trkpt lat="40.3775956" lon="9.5981323"><ele>23.0</ele><time>2026-03-27T18:13:40.827Z</time></trkpt><trkpt lat="40.3774611" lon="9.5979117"><ele>23.333333333333336</ele><time>2026-03-27T18:13:41.813Z</time></trkpt><trkpt lat="40.3773237" lon="9.597691"><ele>23.666666666666668</ele><time>2026-03-27T18:13:42.817Z</time></trkpt><trkpt lat="40.3771869" lon="9.5974719"><ele>24.0</ele><time>2026-03-27T18:13:43.822Z</time></trkpt><trkpt lat="40.3770522" lon="9.5972548"><ele>24.0</ele><time>2026-03-27T18:13:44.825Z</time></trkpt><trkpt lat="40.3769188" lon="9.5970425"><ele>24.0</ele><time>2026-03-27T18:13:45.799Z</time></trkpt><trkpt lat="40.3767852" lon="9.5968292"><ele>24.0</ele><time>2026-03-27T18:13:46.81Z</time></trkpt><trkpt lat="40.3766522" lon="9.5966138"><ele>23.666666666666668</ele><time>2026-03-27T18:13:47.813Z</time></trkpt><trkpt lat="40.3765183" lon="9.5963973"><ele>23.333333333333336</ele><time>2026-03-27T18:13:48.818Z</time></trkpt><trkpt lat="40.3763839" lon="9.5961776"><ele>23.0</ele><time>2026-03-27T18:13:49.811Z</time></trkpt><trkpt lat="40.3762466" lon="9.5959648"><ele>23.666666666666668</ele><time>2026-03-27T18:13:50.823Z</time></trkpt><trkpt lat="40.3761081" lon="9.5957391"><ele>24.333333333333336</ele><time>2026-03-27T18:13:51.815Z</time></trkpt><trkpt lat="40.375969" lon="9.5955156"><ele>25.0</ele><time>2026-03-27T18:13:52.825Z</time></trkpt><trkpt lat="40.3758293" lon="9.5952906"><ele>25.0</ele><time>2026-03-27T18:13:53.828Z</time></trkpt><trkpt lat="40.3756912" lon="9.5950655"><ele>25.0</ele><time>2026-03-27T18:13:54.824Z</time></trkpt><trkpt lat="40.3755524" lon="9.5948398"><ele>25.0</ele><time>2026-03-27T18:13:55.818Z</time></trkpt><trkpt lat="40.3754109" lon="9.5946175"><ele>24.666666666666668</ele><time>2026-03-27T18:13:56.809Z</time></trkpt><trkpt lat="40.3752684" lon="9.5943974"><ele>24.333333333333336</ele><time>2026-03-27T18:13:57.825Z</time></trkpt><trkpt lat="40.3751232" lon="9.5941794"><ele>24.0</ele><time>2026-03-27T18:13:58.814Z</time></trkpt><trkpt lat="40.3749726" lon="9.5939677"><ele>24.0</ele><time>2026-03-27T18:13:59.825Z</time></trkpt><trkpt lat="40.3748154" lon="9.5937656"><ele>24.0</ele><time>2026-03-27T18:14:00.818Z</time></trkpt><trkpt lat="40.3746547" lon="9.5935696"><ele>24.0</ele><time>2026-03-27T18:14:01.825Z</time></trkpt><trkpt lat="40.3744922" lon="9.5933795"><ele>24.333333333333336</ele><time>2026-03-27T18:14:02.818Z</time></trkpt><trkpt lat="40.3743255" lon="9.5931993"><ele>24.666666666666668</ele><time>2026-03-27T18:14:03.823Z</time></trkpt><trkpt lat="40.3741538" lon="9.5930299"><ele>25.0</ele><time>2026-03-27T18:14:04.824Z</time></trkpt><trkpt lat="40.3739781" lon="9.5928688"><ele>26.0</ele><time>2026-03-27T18:14:05.824Z</time></trkpt><trkpt lat="40.3738002" lon="9.592714"><ele>27.0</ele><time>2026-03-27T18:14:06.817Z</time></trkpt><trkpt lat="40.3736203" lon="9.5925619"><ele>28.0</ele><time>2026-03-27T18:14:07.821Z</time></trkpt><trkpt lat="40.3734383" lon="9.5924089"><ele>28.0</ele><time>2026-03-27T18:14:08.845Z</time></trkpt><trkpt lat="40.3732575" lon="9.5922486"><ele>28.0</ele><time>2026-03-27T18:14:09.82Z</time></trkpt><trkpt lat="40.3730821" lon="9.5920723"><ele>28.0</ele><time>2026-03-27T18:14:10.829Z</time></trkpt><trkpt lat="40.3729161" lon="9.591875"><ele>25.666666666666668</ele><time>2026-03-27T18:14:11.827Z</time></trkpt><trkpt lat="40.3727538" lon="9.5916704"><ele>23.333333333333336</ele><time>2026-03-27T18:14:12.812Z</time></trkpt><trkpt lat="40.372587" lon="9.5914783"><ele>21.0</ele><time>2026-03-27T18:14:13.828Z</time></trkpt><trkpt lat="40.3724088" lon="9.5913127"><ele>18.666666666666668</ele><time>2026-03-27T18:14:14.815Z</time></trkpt><trkpt lat="40.3722262" lon="9.5911594"><ele>16.333333333333336</ele><time>2026-03-27T18:14:15.821Z</time></trkpt><trkpt lat="40.3720439" lon="9.591011"><ele>14.0</ele><time>2026-03-27T18:14:16.834Z</time></trkpt><trkpt lat="40.3718607" lon="9.5908664"><ele>14.0</ele><time>2026-03-27T18:14:17.826Z</time></trkpt><trkpt lat="40.3716761" lon="9.5907273"><ele>14.0</ele><time>2026-03-27T18:14:18.819Z</time></trkpt><trkpt lat="40.3714966" lon="9.5905935"><ele>14.0</ele><time>2026-03-27T18:14:19.827Z</time></trkpt><trkpt lat="40.3713351" lon="9.59047"><ele>15.333333333333334</ele><time>2026-03-27T18:14:20.813Z</time></trkpt><trkpt lat="40.3711781" lon="9.590359"><ele>16.666666666666668</ele><time>2026-03-27T18:14:21.819Z</time></trkpt><trkpt lat="40.3710095" lon="9.5902673"><ele>18.0</ele><time>2026-03-27T18:14:22.815Z</time></trkpt><trkpt lat="40.3708312" lon="9.5901983"><ele>18.0</ele><time>2026-03-27T18:14:23.822Z</time></trkpt><trkpt lat="40.3706612" lon="9.5901474"><ele>18.0</ele><time>2026-03-27T18:14:24.814Z</time></trkpt><trkpt lat="40.3705041" lon="9.5900965"><ele>18.0</ele><time>2026-03-27T18:14:25.804Z</time></trkpt><trkpt lat="40.3703634" lon="9.5900219"><ele>18.666666666666668</ele><time>2026-03-27T18:14:26.823Z</time></trkpt><trkpt lat="40.3702192" lon="9.5899419"><ele>19.333333333333336</ele><time>2026-03-27T18:14:27.822Z</time></trkpt><trkpt lat="40.3700893" lon="9.5898073"><ele>20.0</ele><time>2026-03-27T18:14:28.813Z</time></trkpt><trkpt lat="40.3699607" lon="9.5896613"><ele>19.666666666666668</ele><time>2026-03-27T18:14:29.818Z</time></trkpt><trkpt lat="40.3698457" lon="9.5894982"><ele>19.333333333333332</ele><time>2026-03-27T18:14:30.824Z</time></trkpt><trkpt lat="40.36974" lon="9.5893159"><ele>19.0</ele><time>2026-03-27T18:14:31.811Z</time></trkpt><trkpt lat="40.3696514" lon="9.5891157"><ele>21.0</ele><time>2026-03-27T18:14:32.798Z</time></trkpt><trkpt lat="40.369583" lon="9.5889057"><ele>23.0</ele><time>2026-03-27T18:14:33.818Z</time></trkpt><trkpt lat="40.3695368" lon="9.5886863"><ele>25.0</ele><time>2026-03-27T18:14:34.823Z</time></trkpt><trkpt lat="40.3694972" lon="9.5884634"><ele>25.0</ele><time>2026-03-27T18:14:35.817Z</time></trkpt><trkpt lat="40.3695046" lon="9.5882361"><ele>25.0</ele><time>2026-03-27T18:14:36.826Z</time></trkpt><trkpt lat="40.369524" lon="9.5880067"><ele>25.0</ele><time>2026-03-27T18:14:37.813Z</time></trkpt><trkpt lat="40.3695733" lon="9.5877793"><ele>24.666666666666668</ele><time>2026-03-27T18:14:38.823Z</time></trkpt><trkpt lat="40.3696302" lon="9.5875501"><ele>24.333333333333336</ele><time>2026-03-27T18:14:39.819Z</time></trkpt><trkpt lat="40.3697091" lon="9.5873254"><ele>24.0</ele><time>2026-03-27T18:14:40.81Z</time></trkpt><trkpt lat="40.369803" lon="9.5870881"><ele>27.333333333333336</ele><time>2026-03-27T18:14:41.815Z</time></trkpt><trkpt lat="40.3699131" lon="9.5868507"><ele>30.666666666666668</ele><time>2026-03-27T18:14:42.818Z</time></trkpt><trkpt lat="40.3700305" lon="9.586606"><ele>34.0</ele><time>2026-03-27T18:14:43.82Z</time></trkpt><trkpt lat="40.3701541" lon="9.5863568"><ele>30.666666666666668</ele><time>2026-03-27T18:14:44.823Z</time></trkpt><trkpt lat="40.3702711" lon="9.5861069"><ele>27.333333333333336</ele><time>2026-03-27T18:14:45.82Z</time></trkpt><trkpt lat="40.3703747" lon="9.585882"><ele>24.0</ele><time>2026-03-27T18:14:46.809Z</time></trkpt><trkpt lat="40.370469" lon="9.585682"><ele>26.5</ele><time>2026-03-27T18:14:47.829Z</time></trkpt><trkpt lat="40.3705268" lon="9.5855265"><ele>29.0</ele><time>2026-03-27T18:14:48.828Z</time></trkpt><trkpt lat="40.3705609" lon="9.5853755"><ele>31.5</ele><time>2026-03-27T18:14:49.831Z</time></trkpt><trkpt lat="40.370551" lon="9.5851924"><ele>34.0</ele><time>2026-03-27T18:14:50.831Z</time></trkpt><trkpt lat="40.3705353" lon="9.5849974"><ele>34.0</ele><time>2026-03-27T18:14:51.83Z</time></trkpt><trkpt lat="40.3705391" lon="9.5847874"><ele>34.0</ele><time>2026-03-27T18:14:52.818Z</time></trkpt><trkpt lat="40.3705642" lon="9.5845904"><ele>34.0</ele><time>2026-03-27T18:14:53.82Z</time></trkpt><trkpt lat="40.3706132" lon="9.5843854"><ele>34.0</ele><time>2026-03-27T18:14:54.808Z</time></trkpt><trkpt lat="40.3706552" lon="9.584145"><ele>34.0</ele><time>2026-03-27T18:14:55.825Z</time></trkpt><trkpt lat="40.3706908" lon="9.5839012"><ele>34.0</ele><time>2026-03-27T18:14:56.813Z</time></trkpt><trkpt lat="40.3707159" lon="9.5836439"><ele>34.0</ele><time>2026-03-27T18:14:57.828Z</time></trkpt><trkpt lat="40.3707275" lon="9.5833919"><ele>34.0</ele><time>2026-03-27T18:14:58.83Z</time></trkpt><trkpt lat="40.3707221" lon="9.5831577"><ele>34.0</ele><time>2026-03-27T18:14:59.821Z</time></trkpt><trkpt lat="40.3706956" lon="9.5829402"><ele>35.0</ele><time>2026-03-27T18:15:00.818Z</time></trkpt><trkpt lat="40.3706421" lon="9.582731"><ele>36.0</ele><time>2026-03-27T18:15:01.828Z</time></trkpt><trkpt lat="40.3705608" lon="9.5825278"><ele>37.0</ele><time>2026-03-27T18:15:02.827Z</time></trkpt><trkpt lat="40.3704531" lon="9.582337"><ele>32.0</ele><time>2026-03-27T18:15:03.837Z</time></trkpt><trkpt lat="40.3703251" lon="9.5821488"><ele>27.0</ele><time>2026-03-27T18:15:04.838Z</time></trkpt><trkpt lat="40.3701844" lon="9.5819558"><ele>22.0</ele><time>2026-03-27T18:15:05.853Z</time></trkpt><trkpt lat="40.3700465" lon="9.5817733"><ele>22.0</ele><time>2026-03-27T18:15:06.839Z</time></trkpt><trkpt lat="40.3699153" lon="9.5815972"><ele>22.0</ele><time>2026-03-27T18:15:07.834Z</time></trkpt><trkpt lat="40.3698374" lon="9.5814149"><ele>22.0</ele><time>2026-03-27T18:15:08.832Z</time></trkpt><trkpt lat="40.3697477" lon="9.5812329"><ele>22.333333333333332</ele><time>2026-03-27T18:15:09.828Z</time></trkpt><trkpt lat="40.3697597" lon="9.5810465"><ele>22.666666666666668</ele><time>2026-03-27T18:15:10.837Z</time></trkpt><trkpt lat="40.3697786" lon="9.5808326"><ele>23.0</ele><time>2026-03-27T18:15:11.827Z</time></trkpt><trkpt lat="40.3698052" lon="9.5805887"><ele>23.0</ele><time>2026-03-27T18:15:12.835Z</time></trkpt><trkpt lat="40.3698264" lon="9.5803508"><ele>23.0</ele><time>2026-03-27T18:15:13.836Z</time></trkpt><trkpt lat="40.3698506" lon="9.5801268"><ele>23.0</ele><time>2026-03-27T18:15:14.825Z</time></trkpt><trkpt lat="40.3698421" lon="9.5798996"><ele>23.0</ele><time>2026-03-27T18:15:15.826Z</time></trkpt><trkpt lat="40.3697949" lon="9.5796683"><ele>23.0</ele><time>2026-03-27T18:15:16.829Z</time></trkpt><trkpt lat="40.369726" lon="9.5794308"><ele>23.0</ele><time>2026-03-27T18:15:17.825Z</time></trkpt><trkpt lat="40.3696395" lon="9.5791937"><ele>22.333333333333336</ele><time>2026-03-27T18:15:18.831Z</time></trkpt><trkpt lat="40.3695464" lon="9.5789522"><ele>21.666666666666668</ele><time>2026-03-27T18:15:19.841Z</time></trkpt><trkpt lat="40.369453" lon="9.5787101"><ele>21.0</ele><time>2026-03-27T18:15:20.835Z</time></trkpt><trkpt lat="40.3693563" lon="9.578478"><ele>21.0</ele><time>2026-03-27T18:15:21.833Z</time></trkpt><trkpt lat="40.3692539" lon="9.5782579"><ele>21.0</ele><time>2026-03-27T18:15:22.818Z</time></trkpt><trkpt lat="40.369144" lon="9.5780555"><ele>21.0</ele><time>2026-03-27T18:15:23.837Z</time></trkpt><trkpt lat="40.3690147" lon="9.5778644"><ele>21.666666666666668</ele><time>2026-03-27T18:15:24.838Z</time></trkpt><trkpt lat="40.3688672" lon="9.5776917"><ele>22.333333333333336</ele><time>2026-03-27T18:15:25.831Z</time></trkpt><trkpt lat="40.3687042" lon="9.5775325"><ele>23.0</ele><time>2026-03-27T18:15:26.811Z</time></trkpt><trkpt lat="40.3685291" lon="9.5773874"><ele>23.666666666666668</ele><time>2026-03-27T18:15:27.839Z</time></trkpt><trkpt lat="40.3683451" lon="9.577251"><ele>24.333333333333336</ele><time>2026-03-27T18:15:28.82Z</time></trkpt><trkpt lat="40.3681548" lon="9.5771206"><ele>25.0</ele><time>2026-03-27T18:15:29.821Z</time></trkpt><trkpt lat="40.3679667" lon="9.5769964"><ele>26.666666666666668</ele><time>2026-03-27T18:15:30.822Z</time></trkpt><trkpt lat="40.3677911" lon="9.5768804"><ele>28.333333333333336</ele><time>2026-03-27T18:15:31.833Z</time></trkpt><trkpt lat="40.3676296" lon="9.5767681"><ele>30.0</ele><time>2026-03-27T18:15:32.826Z</time></trkpt><trkpt lat="40.3674861" lon="9.5766511"><ele>30.0</ele><time>2026-03-27T18:15:33.827Z</time></trkpt><trkpt lat="40.3673547" lon="9.5765226"><ele>30.0</ele><time>2026-03-27T18:15:34.819Z</time></trkpt><trkpt lat="40.3672383" lon="9.5763831"><ele>30.0</ele><time>2026-03-27T18:15:35.83Z</time></trkpt><trkpt lat="40.3671362" lon="9.5762273"><ele>30.666666666666664</ele><time>2026-03-27T18:15:36.816Z</time></trkpt><trkpt lat="40.3670493" lon="9.5760514"><ele>31.333333333333332</ele><time>2026-03-27T18:15:37.812Z</time></trkpt><trkpt lat="40.3669834" lon="9.5758567"><ele>32.0</ele><time>2026-03-27T18:15:38.824Z</time></trkpt><trkpt lat="40.3669313" lon="9.5756446"><ele>32.0</ele><time>2026-03-27T18:15:39.844Z</time></trkpt><trkpt lat="40.3668873" lon="9.5754142"><ele>32.0</ele><time>2026-03-27T18:15:40.832Z</time></trkpt><trkpt lat="40.3668462" lon="9.5751658"><ele>32.0</ele><time>2026-03-27T18:15:41.814Z</time></trkpt><trkpt lat="40.3668061" lon="9.5749054"><ele>32.666666666666664</ele><time>2026-03-27T18:15:42.827Z</time></trkpt><trkpt lat="40.3667654" lon="9.5746509"><ele>33.333333333333336</ele><time>2026-03-27T18:15:43.827Z</time></trkpt><trkpt lat="40.3667172" lon="9.5744104"><ele>34.0</ele><time>2026-03-27T18:15:44.835Z</time></trkpt><trkpt lat="40.3666532" lon="9.5741743"><ele>35.0</ele><time>2026-03-27T18:15:45.829Z</time></trkpt><trkpt lat="40.3665715" lon="9.5739432"><ele>36.0</ele><time>2026-03-27T18:15:46.833Z</time></trkpt><trkpt lat="40.3664717" lon="9.573725"><ele>37.0</ele><time>2026-03-27T18:15:47.821Z</time></trkpt><trkpt lat="40.3663522" lon="9.573529"><ele>38.0</ele><time>2026-03-27T18:15:48.834Z</time></trkpt><trkpt lat="40.366213" lon="9.5733541"><ele>39.0</ele><time>2026-03-27T18:15:49.834Z</time></trkpt><trkpt lat="40.3660539" lon="9.5731952"><ele>40.0</ele><time>2026-03-27T18:15:50.821Z</time></trkpt><trkpt lat="40.3658775" lon="9.5730437"><ele>40.0</ele><time>2026-03-27T18:15:51.831Z</time></trkpt><trkpt lat="40.3656886" lon="9.5728948"><ele>40.0</ele><time>2026-03-27T18:15:52.829Z</time></trkpt><trkpt lat="40.3654977" lon="9.5727461"><ele>40.0</ele><time>2026-03-27T18:15:53.816Z</time></trkpt><trkpt lat="40.3653142" lon="9.5725925"><ele>41.66666666666667</ele><time>2026-03-27T18:15:54.83Z</time></trkpt><trkpt lat="40.3651395" lon="9.5724261"><ele>43.333333333333336</ele><time>2026-03-27T18:15:55.824Z</time></trkpt><trkpt lat="40.3649768" lon="9.5722459"><ele>45.0</ele><time>2026-03-27T18:15:56.815Z</time></trkpt><trkpt lat="40.3648361" lon="9.572068"><ele>47.66666666666667</ele><time>2026-03-27T18:15:57.813Z</time></trkpt><trkpt lat="40.3647141" lon="9.5719053"><ele>50.333333333333336</ele><time>2026-03-27T18:15:58.827Z</time></trkpt><trkpt lat="40.3645972" lon="9.5717613"><ele>53.0</ele><time>2026-03-27T18:15:59.814Z</time></trkpt><trkpt lat="40.3644699" lon="9.571645"><ele>53.0</ele><time>2026-03-27T18:16:00.83Z</time></trkpt><trkpt lat="40.364332" lon="9.5715556"><ele>53.0</ele><time>2026-03-27T18:16:01.826Z</time></trkpt><trkpt lat="40.364168" lon="9.5715209"><ele>53.0</ele><time>2026-03-27T18:16:02.828Z</time></trkpt><trkpt lat="40.3639856" lon="9.5714961"><ele>53.66666666666667</ele><time>2026-03-27T18:16:03.815Z</time></trkpt><trkpt lat="40.3637832" lon="9.5714978"><ele>54.33333333333333</ele><time>2026-03-27T18:16:04.832Z</time></trkpt><trkpt lat="40.3635657" lon="9.5714946"><ele>55.0</ele><time>2026-03-27T18:16:05.82Z</time></trkpt><trkpt lat="40.3633591" lon="9.5714917"><ele>55.0</ele><time>2026-03-27T18:16:06.828Z</time></trkpt><trkpt lat="40.3631574" lon="9.5714972"><ele>55.0</ele><time>2026-03-27T18:16:07.817Z</time></trkpt><trkpt lat="40.362959" lon="9.5715279"><ele>55.0</ele><time>2026-03-27T18:16:08.823Z</time></trkpt><trkpt lat="40.3627595" lon="9.5715871"><ele>57.666666666666664</ele><time>2026-03-27T18:16:09.812Z</time></trkpt><trkpt lat="40.3625732" lon="9.5716508"><ele>60.33333333333333</ele><time>2026-03-27T18:16:10.841Z</time></trkpt><trkpt lat="40.3623965" lon="9.5716993"><ele>63.0</ele><time>2026-03-27T18:16:11.807Z</time></trkpt><trkpt lat="40.3622144" lon="9.5717178"><ele>66.0</ele><time>2026-03-27T18:16:12.825Z</time></trkpt><trkpt lat="40.3620312" lon="9.5717315"><ele>69.0</ele><time>2026-03-27T18:16:13.821Z</time></trkpt><trkpt lat="40.3618357" lon="9.5717636"><ele>72.0</ele><time>2026-03-27T18:16:14.82Z</time></trkpt><trkpt lat="40.3616541" lon="9.571813"><ele>72.0</ele><time>2026-03-27T18:16:15.813Z</time></trkpt><trkpt lat="40.3614653" lon="9.5718453"><ele>72.0</ele><time>2026-03-27T18:16:16.826Z</time></trkpt><trkpt lat="40.3612777" lon="9.5718542"><ele>72.0</ele><time>2026-03-27T18:16:17.825Z</time></trkpt><trkpt lat="40.3610839" lon="9.5718436"><ele>72.33333333333333</ele><time>2026-03-27T18:16:18.83Z</time></trkpt><trkpt lat="40.3608876" lon="9.5718112"><ele>72.66666666666666</ele><time>2026-03-27T18:16:19.826Z</time></trkpt><trkpt lat="40.3606926" lon="9.5717535"><ele>73.0</ele><time>2026-03-27T18:16:20.82Z</time></trkpt><trkpt lat="40.3605004" lon="9.5716732"><ele>72.33333333333333</ele><time>2026-03-27T18:16:21.828Z</time></trkpt><trkpt lat="40.3603091" lon="9.5715742"><ele>71.66666666666667</ele><time>2026-03-27T18:16:22.827Z</time></trkpt><trkpt lat="40.3601197" lon="9.571467"><ele>71.0</ele><time>2026-03-27T18:16:23.834Z</time></trkpt><trkpt lat="40.3599293" lon="9.5713579"><ele>71.0</ele><time>2026-03-27T18:16:24.813Z</time></trkpt><trkpt lat="40.3597472" lon="9.5712586"><ele>71.0</ele><time>2026-03-27T18:16:25.816Z</time></trkpt><trkpt lat="40.359569" lon="9.5711569"><ele>71.0</ele><time>2026-03-27T18:16:26.809Z</time></trkpt><trkpt lat="40.3594022" lon="9.5710527"><ele>75.33333333333334</ele><time>2026-03-27T18:16:27.813Z</time></trkpt><trkpt lat="40.3592416" lon="9.5709247"><ele>79.66666666666667</ele><time>2026-03-27T18:16:28.815Z</time></trkpt><trkpt lat="40.3590698" lon="9.5707855"><ele>84.0</ele><time>2026-03-27T18:16:29.816Z</time></trkpt><trkpt lat="40.3589029" lon="9.5706416"><ele>85.33333333333333</ele><time>2026-03-27T18:16:30.823Z</time></trkpt><trkpt lat="40.3587403" lon="9.5704883"><ele>86.66666666666666</ele><time>2026-03-27T18:16:31.827Z</time></trkpt><trkpt lat="40.3585895" lon="9.570323"><ele>88.0</ele><time>2026-03-27T18:16:32.819Z</time></trkpt><trkpt lat="40.3584483" lon="9.5701503"><ele>89.25</ele><time>2026-03-27T18:16:33.82Z</time></trkpt><trkpt lat="40.3583303" lon="9.5699769"><ele>90.5</ele><time>2026-03-27T18:16:34.827Z</time></trkpt><trkpt lat="40.3582405" lon="9.5698201"><ele>91.75</ele><time>2026-03-27T18:16:35.817Z</time></trkpt><trkpt lat="40.3581685" lon="9.56969"><ele>93.0</ele><time>2026-03-27T18:16:36.81Z</time></trkpt><trkpt lat="40.3581099" lon="9.5695937"><ele>93.0</ele><time>2026-03-27T18:16:37.824Z</time></trkpt><trkpt lat="40.3580472" lon="9.5695342"><ele>93.0</ele><time>2026-03-27T18:16:38.812Z</time></trkpt><trkpt lat="40.3579822" lon="9.5695104"><ele>93.0</ele><time>2026-03-27T18:16:39.805Z</time></trkpt><trkpt lat="40.3578798" lon="9.5695244"><ele>93.0</ele><time>2026-03-27T18:16:41.812Z</time></trkpt><trkpt lat="40.3578109" lon="9.5696143"><ele>93.0</ele><time>2026-03-27T18:16:43.824Z</time></trkpt><trkpt lat="40.3577674" lon="9.569738"><ele>93.0</ele><time>2026-03-27T18:16:45.81Z</time></trkpt><trkpt lat="40.3577445" lon="9.5698738"><ele>93.60000000000001</ele><time>2026-03-27T18:16:47.818Z</time></trkpt><trkpt lat="40.3577248" lon="9.5700142"><ele>94.2</ele><time>2026-03-27T18:16:49.823Z</time></trkpt><trkpt lat="40.3577234" lon="9.5701542"><ele>94.8</ele><time>2026-03-27T18:16:51.808Z</time></trkpt><trkpt lat="40.3577501" lon="9.5702816"><ele>95.4</ele><time>2026-03-27T18:16:53.82Z</time></trkpt><trkpt lat="40.3578013" lon="9.5703953"><ele>96.0</ele><time>2026-03-27T18:16:55.825Z</time></trkpt><trkpt lat="40.3578569" lon="9.5705049"><ele>94.6</ele><time>2026-03-27T18:16:57.827Z</time></trkpt><trkpt lat="40.3579092" lon="9.5706324"><ele>93.19999999999999</ele><time>2026-03-27T18:16:59.825Z</time></trkpt><trkpt lat="40.3579076" lon="9.5707692"><ele>91.80000000000001</ele><time>2026-03-27T18:17:01.832Z</time></trkpt><trkpt lat="40.3578193" lon="9.5708253"><ele>90.4</ele><time>2026-03-27T18:17:03.822Z</time></trkpt><trkpt lat="40.3577205" lon="9.5707515"><ele>89.0</ele><time>2026-03-27T18:17:05.812Z</time></trkpt><trkpt lat="40.3576804" lon="9.5706555"><ele>89.0</ele><time>2026-03-27T18:17:06.822Z</time></trkpt><trkpt lat="40.3576457" lon="9.5705407"><ele>89.0</ele><time>2026-03-27T18:17:07.808Z</time></trkpt><trkpt lat="40.3576108" lon="9.5704102"><ele>89.0</ele><time>2026-03-27T18:17:08.823Z</time></trkpt><trkpt lat="40.3575759" lon="9.5702667"><ele>89.0</ele><time>2026-03-27T18:17:09.815Z</time></trkpt><trkpt lat="40.357552" lon="9.5701077"><ele>89.0</ele><time>2026-03-27T18:17:10.82Z</time></trkpt><trkpt lat="40.3575435" lon="9.5699374"><ele>90.75</ele><time>2026-03-27T18:17:11.828Z</time></trkpt><trkpt lat="40.3575426" lon="9.5697574"><ele>92.5</ele><time>2026-03-27T18:17:12.828Z</time></trkpt><trkpt lat="40.3575383" lon="9.5695758"><ele>94.25</ele><time>2026-03-27T18:17:13.832Z</time></trkpt><trkpt lat="40.3575291" lon="9.5693935"><ele>96.0</ele><time>2026-03-27T18:17:14.838Z</time></trkpt><trkpt lat="40.3575412" lon="9.5692099"><ele>98.75</ele><time>2026-03-27T18:17:15.833Z</time></trkpt><trkpt lat="40.357577" lon="9.5690315"><ele>101.5</ele><time>2026-03-27T18:17:16.829Z</time></trkpt><trkpt lat="40.3576296" lon="9.5688723"><ele>104.25</ele><time>2026-03-27T18:17:17.829Z</time></trkpt><trkpt lat="40.3576768" lon="9.5687361"><ele>107.0</ele><time>2026-03-27T18:17:18.824Z</time></trkpt><trkpt lat="40.3577019" lon="9.568615"><ele>107.83333333333333</ele><time>2026-03-27T18:17:19.813Z</time></trkpt><trkpt lat="40.3577026" lon="9.5685113"><ele>108.66666666666666</ele><time>2026-03-27T18:17:20.824Z</time></trkpt><trkpt lat="40.3576671" lon="9.5684315"><ele>109.5</ele><time>2026-03-27T18:17:21.815Z</time></trkpt><trkpt lat="40.357606" lon="9.568387"><ele>110.33333333333334</ele><time>2026-03-27T18:17:22.822Z</time></trkpt><trkpt lat="40.357533" lon="9.5683949"><ele>111.16666666666667</ele><time>2026-03-27T18:17:23.81Z</time></trkpt><trkpt lat="40.3574655" lon="9.568458"><ele>112.0</ele><time>2026-03-27T18:17:24.812Z</time></trkpt><trkpt lat="40.3573997" lon="9.5685547"><ele>110.75</ele><time>2026-03-27T18:17:25.823Z</time></trkpt><trkpt lat="40.357386" lon="9.5687024"><ele>109.5</ele><time>2026-03-27T18:17:26.819Z</time></trkpt><trkpt lat="40.3573738" lon="9.568869"><ele>108.25</ele><time>2026-03-27T18:17:27.82Z</time></trkpt><trkpt lat="40.3573522" lon="9.5690458"><ele>107.0</ele><time>2026-03-27T18:17:28.821Z</time></trkpt><trkpt lat="40.357331" lon="9.569205"><ele>106.99999999999999</ele><time>2026-03-27T18:17:29.835Z</time></trkpt><trkpt lat="40.3573085" lon="9.5693377"><ele>107.0</ele><time>2026-03-27T18:17:30.832Z</time></trkpt><trkpt lat="40.3572663" lon="9.5694394"><ele>107.0</ele><time>2026-03-27T18:17:31.829Z</time></trkpt><trkpt lat="40.3572084" lon="9.5694945"><ele>107.0</ele><time>2026-03-27T18:17:32.813Z</time></trkpt><trkpt lat="40.3571435" lon="9.5694877"><ele>106.99999999999999</ele><time>2026-03-27T18:17:33.821Z</time></trkpt><trkpt lat="40.3570934" lon="9.5694302"><ele>107.0</ele><time>2026-03-27T18:17:34.819Z</time></trkpt><trkpt lat="40.3570771" lon="9.5693402"><ele>107.25</ele><time>2026-03-27T18:17:35.812Z</time></trkpt><trkpt lat="40.3570759" lon="9.5692256"><ele>107.5</ele><time>2026-03-27T18:17:36.825Z</time></trkpt><trkpt lat="40.3571151" lon="9.5690899"><ele>107.75</ele><time>2026-03-27T18:17:37.809Z</time></trkpt><trkpt lat="40.3571504" lon="9.568931"><ele>108.0</ele><time>2026-03-27T18:17:38.813Z</time></trkpt><trkpt lat="40.3571977" lon="9.5687505"><ele>109.33333333333334</ele><time>2026-03-27T18:17:39.828Z</time></trkpt><trkpt lat="40.3572515" lon="9.5685513"><ele>110.66666666666667</ele><time>2026-03-27T18:17:40.833Z</time></trkpt><trkpt lat="40.3573128" lon="9.5683646"><ele>112.0</ele><time>2026-03-27T18:17:41.83Z</time></trkpt><trkpt lat="40.3573788" lon="9.5681831"><ele>112.0</ele><time>2026-03-27T18:17:42.838Z</time></trkpt><trkpt lat="40.3574365" lon="9.5679897"><ele>112.0</ele><time>2026-03-27T18:17:43.833Z</time></trkpt><trkpt lat="40.3574808" lon="9.5677843"><ele>112.0</ele><time>2026-03-27T18:17:44.831Z</time></trkpt><trkpt lat="40.3575134" lon="9.5675679"><ele>116.0</ele><time>2026-03-27T18:17:45.829Z</time></trkpt><trkpt lat="40.3575346" lon="9.5673518"><ele>120.0</ele><time>2026-03-27T18:17:46.817Z</time></trkpt><trkpt lat="40.3575409" lon="9.5671367"><ele>124.0</ele><time>2026-03-27T18:17:47.819Z</time></trkpt><trkpt lat="40.3575186" lon="9.566922"><ele>126.0</ele><time>2026-03-27T18:17:48.836Z</time></trkpt><trkpt lat="40.3574799" lon="9.5667052"><ele>128.0</ele><time>2026-03-27T18:17:49.806Z</time></trkpt><trkpt lat="40.3574318" lon="9.5664877"><ele>130.0</ele><time>2026-03-27T18:17:50.832Z</time></trkpt><trkpt lat="40.3573814" lon="9.5662726"><ele>131.0</ele><time>2026-03-27T18:17:51.821Z</time></trkpt><trkpt lat="40.3573278" lon="9.5660658"><ele>132.0</ele><time>2026-03-27T18:17:52.829Z</time></trkpt><trkpt lat="40.3572586" lon="9.5658536"><ele>133.0</ele><time>2026-03-27T18:17:53.838Z</time></trkpt><trkpt lat="40.3571803" lon="9.5656351"><ele>138.66666666666669</ele><time>2026-03-27T18:17:54.833Z</time></trkpt><trkpt lat="40.3571063" lon="9.5654088"><ele>144.33333333333334</ele><time>2026-03-27T18:17:55.827Z</time></trkpt><trkpt lat="40.3570303" lon="9.5651824"><ele>150.0</ele><time>2026-03-27T18:17:56.819Z</time></trkpt><trkpt lat="40.3569564" lon="9.5649558"><ele>150.0</ele><time>2026-03-27T18:17:57.801Z</time></trkpt><trkpt lat="40.3568797" lon="9.5647288"><ele>150.0</ele><time>2026-03-27T18:17:58.827Z</time></trkpt><trkpt lat="40.356799" lon="9.5645079"><ele>150.0</ele><time>2026-03-27T18:17:59.831Z</time></trkpt><trkpt lat="40.3567093" lon="9.564287"><ele>149.33333333333334</ele><time>2026-03-27T18:18:00.827Z</time></trkpt><trkpt lat="40.3566138" lon="9.5640675"><ele>148.66666666666669</ele><time>2026-03-27T18:18:01.832Z</time></trkpt><trkpt lat="40.3565164" lon="9.5638533"><ele>148.0</ele><time>2026-03-27T18:18:02.825Z</time></trkpt><trkpt lat="40.3564198" lon="9.5636425"><ele>151.66666666666669</ele><time>2026-03-27T18:18:03.833Z</time></trkpt><trkpt lat="40.3563275" lon="9.5634442"><ele>155.33333333333334</ele><time>2026-03-27T18:18:04.828Z</time></trkpt><trkpt lat="40.356249" lon="9.5632662"><ele>159.0</ele><time>2026-03-27T18:18:05.816Z</time></trkpt><trkpt lat="40.3561633" lon="9.5631127"><ele>159.0</ele><time>2026-03-27T18:18:06.832Z</time></trkpt><trkpt lat="40.3560628" lon="9.5629684"><ele>159.0</ele><time>2026-03-27T18:18:07.811Z</time></trkpt><trkpt lat="40.3559468" lon="9.5628436"><ele>159.0</ele><time>2026-03-27T18:18:08.821Z</time></trkpt><trkpt lat="40.3558119" lon="9.5627354"><ele>160.0</ele><time>2026-03-27T18:18:09.832Z</time></trkpt><trkpt lat="40.3556719" lon="9.5626476"><ele>161.0</ele><time>2026-03-27T18:18:10.826Z</time></trkpt><trkpt lat="40.3555396" lon="9.5625642"><ele>162.0</ele><time>2026-03-27T18:18:11.817Z</time></trkpt><trkpt lat="40.3554162" lon="9.5624852"><ele>163.0</ele><time>2026-03-27T18:18:12.825Z</time></trkpt><trkpt lat="40.3553125" lon="9.5623757"><ele>163.0</ele><time>2026-03-27T18:18:13.819Z</time></trkpt><trkpt lat="40.355244" lon="9.5622219"><ele>163.0</ele><time>2026-03-27T18:18:14.825Z</time></trkpt><trkpt lat="40.3552068" lon="9.5620385"><ele>163.0</ele><time>2026-03-27T18:18:15.821Z</time></trkpt><trkpt lat="40.3551662" lon="9.5618298"><ele>163.0</ele><time>2026-03-27T18:18:16.819Z</time></trkpt><trkpt lat="40.3551355" lon="9.5616241"><ele>162.0</ele><time>2026-03-27T18:18:17.821Z</time></trkpt><trkpt lat="40.3550877" lon="9.5613968"><ele>161.0</ele><time>2026-03-27T18:18:18.838Z</time></trkpt><trkpt lat="40.355023" lon="9.5611585"><ele>160.0</ele><time>2026-03-27T18:18:19.822Z</time></trkpt><trkpt lat="40.3549547" lon="9.5609135"><ele>160.0</ele><time>2026-03-27T18:18:20.823Z</time></trkpt><trkpt lat="40.3548894" lon="9.560672"><ele>160.0</ele><time>2026-03-27T18:18:21.816Z</time></trkpt><trkpt lat="40.3548188" lon="9.5604315"><ele>160.0</ele><time>2026-03-27T18:18:22.829Z</time></trkpt><trkpt lat="40.35474" lon="9.5601852"><ele>160.0</ele><time>2026-03-27T18:18:23.819Z</time></trkpt><trkpt lat="40.3546513" lon="9.5599386"><ele>160.0</ele><time>2026-03-27T18:18:24.809Z</time></trkpt><trkpt lat="40.3545539" lon="9.559691"><ele>160.0</ele><time>2026-03-27T18:18:25.835Z</time></trkpt><trkpt lat="40.3544534" lon="9.5594443"><ele>160.0</ele><time>2026-03-27T18:18:26.823Z</time></trkpt><trkpt lat="40.3543528" lon="9.5592048"><ele>160.0</ele><time>2026-03-27T18:18:27.82Z</time></trkpt><trkpt lat="40.3542582" lon="9.5589797"><ele>160.0</ele><time>2026-03-27T18:18:28.833Z</time></trkpt><trkpt lat="40.3541698" lon="9.558768"><ele>159.33333333333334</ele><time>2026-03-27T18:18:29.831Z</time></trkpt><trkpt lat="40.3540875" lon="9.5585678"><ele>158.66666666666666</ele><time>2026-03-27T18:18:30.829Z</time></trkpt><trkpt lat="40.3540148" lon="9.5583831"><ele>158.0</ele><time>2026-03-27T18:18:31.821Z</time></trkpt><trkpt lat="40.3539506" lon="9.558214"><ele>158.0</ele><time>2026-03-27T18:18:32.815Z</time></trkpt><trkpt lat="40.3539189" lon="9.5580485"><ele>158.0</ele><time>2026-03-27T18:18:33.826Z</time></trkpt><trkpt lat="40.3539169" lon="9.557887"><ele>158.0</ele><time>2026-03-27T18:18:34.829Z</time></trkpt><trkpt lat="40.3539428" lon="9.5577174"><ele>158.0</ele><time>2026-03-27T18:18:35.825Z</time></trkpt><trkpt lat="40.3539909" lon="9.5575277"><ele>159.0</ele><time>2026-03-27T18:18:36.822Z</time></trkpt><trkpt lat="40.3540435" lon="9.5573224"><ele>160.0</ele><time>2026-03-27T18:18:37.822Z</time></trkpt><trkpt lat="40.3540986" lon="9.5571023"><ele>161.0</ele><time>2026-03-27T18:18:38.832Z</time></trkpt><trkpt lat="40.3541547" lon="9.556878"><ele>161.75</ele><time>2026-03-27T18:18:39.814Z</time></trkpt><trkpt lat="40.3542043" lon="9.5566705"><ele>162.5</ele><time>2026-03-27T18:18:40.843Z</time></trkpt><trkpt lat="40.3542448" lon="9.556483"><ele>163.25</ele><time>2026-03-27T18:18:41.828Z</time></trkpt><trkpt lat="40.35427" lon="9.5563097"><ele>164.0</ele><time>2026-03-27T18:18:42.818Z</time></trkpt><trkpt lat="40.3542739" lon="9.5561377"><ele>164.0</ele><time>2026-03-27T18:18:43.818Z</time></trkpt><trkpt lat="40.3542522" lon="9.5559554"><ele>164.0</ele><time>2026-03-27T18:18:44.82Z</time></trkpt><trkpt lat="40.3542155" lon="9.5557662"><ele>164.0</ele><time>2026-03-27T18:18:45.825Z</time></trkpt><trkpt lat="40.3541676" lon="9.5555804"><ele>164.0</ele><time>2026-03-27T18:18:46.823Z</time></trkpt><trkpt lat="40.354108" lon="9.5553931"><ele>164.0</ele><time>2026-03-27T18:18:47.827Z</time></trkpt><trkpt lat="40.3540148" lon="9.5552189"><ele>164.0</ele><time>2026-03-27T18:18:48.826Z</time></trkpt><trkpt lat="40.3539079" lon="9.5550485"><ele>164.0</ele><time>2026-03-27T18:18:49.825Z</time></trkpt><trkpt lat="40.3537844" lon="9.5548703"><ele>165.33333333333331</ele><time>2026-03-27T18:18:50.829Z</time></trkpt><trkpt lat="40.353666" lon="9.554697"><ele>166.66666666666666</ele><time>2026-03-27T18:18:51.826Z</time></trkpt><trkpt lat="40.353559" lon="9.5545439"><ele>168.0</ele><time>2026-03-27T18:18:52.83Z</time></trkpt><trkpt lat="40.3534689" lon="9.5543929"><ele>168.25</ele><time>2026-03-27T18:18:53.825Z</time></trkpt><trkpt lat="40.3533942" lon="9.5542327"><ele>168.5</ele><time>2026-03-27T18:18:54.824Z</time></trkpt><trkpt lat="40.3533418" lon="9.5540626"><ele>168.75</ele><time>2026-03-27T18:18:55.816Z</time></trkpt><trkpt lat="40.353315" lon="9.5538791"><ele>169.0</ele><time>2026-03-27T18:18:56.826Z</time></trkpt><trkpt lat="40.3533237" lon="9.5536867"><ele>170.0</ele><time>2026-03-27T18:18:57.833Z</time></trkpt><trkpt lat="40.3533602" lon="9.5534964"><ele>171.0</ele><time>2026-03-27T18:18:58.831Z</time></trkpt><trkpt lat="40.3533925" lon="9.5533099"><ele>172.0</ele><time>2026-03-27T18:18:59.829Z</time></trkpt><trkpt lat="40.3533989" lon="9.5531126"><ele>173.0</ele><time>2026-03-27T18:19:00.81Z</time></trkpt><trkpt lat="40.3533776" lon="9.5529029"><ele>174.0</ele><time>2026-03-27T18:19:01.834Z</time></trkpt><trkpt lat="40.3533443" lon="9.5526823"><ele>175.0</ele><time>2026-03-27T18:19:02.828Z</time></trkpt><trkpt lat="40.3533042" lon="9.5524526"><ele>176.0</ele><time>2026-03-27T18:19:03.831Z</time></trkpt><trkpt lat="40.3532593" lon="9.5522207"><ele>177.0</ele><time>2026-03-27T18:19:04.829Z</time></trkpt><trkpt lat="40.3532122" lon="9.5519914"><ele>178.0</ele><time>2026-03-27T18:19:05.828Z</time></trkpt><trkpt lat="40.3531638" lon="9.5517605"><ele>179.0</ele><time>2026-03-27T18:19:06.837Z</time></trkpt><trkpt lat="40.3531163" lon="9.551526"><ele>179.0</ele><time>2026-03-27T18:19:07.816Z</time></trkpt><trkpt lat="40.3530684" lon="9.5512857"><ele>179.0</ele><time>2026-03-27T18:19:08.823Z</time></trkpt><trkpt lat="40.3530189" lon="9.5510425"><ele>179.0</ele><time>2026-03-27T18:19:09.816Z</time></trkpt><trkpt lat="40.3529713" lon="9.550795"><ele>180.0</ele><time>2026-03-27T18:19:10.812Z</time></trkpt><trkpt lat="40.3529214" lon="9.550544"><ele>181.0</ele><time>2026-03-27T18:19:11.836Z</time></trkpt><trkpt lat="40.3528713" lon="9.550289"><ele>182.0</ele><time>2026-03-27T18:19:12.828Z</time></trkpt><trkpt lat="40.3528211" lon="9.5500294"><ele>182.33333333333331</ele><time>2026-03-27T18:19:13.829Z</time></trkpt><trkpt lat="40.352769" lon="9.5497651"><ele>182.66666666666666</ele><time>2026-03-27T18:19:14.833Z</time></trkpt><trkpt lat="40.3527162" lon="9.5494965"><ele>183.0</ele><time>2026-03-27T18:19:15.832Z</time></trkpt><trkpt lat="40.3526621" lon="9.5492258"><ele>183.0</ele><time>2026-03-27T18:19:16.838Z</time></trkpt><trkpt lat="40.3526098" lon="9.5489573"><ele>183.0</ele><time>2026-03-27T18:19:17.832Z</time></trkpt><trkpt lat="40.3525562" lon="9.5486878"><ele>183.0</ele><time>2026-03-27T18:19:18.829Z</time></trkpt><trkpt lat="40.3525024" lon="9.5484166"><ele>183.0</ele><time>2026-03-27T18:19:19.83Z</time></trkpt><trkpt lat="40.3524488" lon="9.5481435"><ele>183.0</ele><time>2026-03-27T18:19:20.831Z</time></trkpt><trkpt lat="40.3523938" lon="9.5478688"><ele>183.0</ele><time>2026-03-27T18:19:21.832Z</time></trkpt><trkpt lat="40.352338" lon="9.547592"><ele>183.0</ele><time>2026-03-27T18:19:22.819Z</time></trkpt><trkpt lat="40.3522834" lon="9.5473131"><ele>183.0</ele><time>2026-03-27T18:19:23.829Z</time></trkpt><trkpt lat="40.3522304" lon="9.547033"><ele>183.0</ele><time>2026-03-27T18:19:24.832Z</time></trkpt><trkpt lat="40.3521786" lon="9.5467515"><ele>183.0</ele><time>2026-03-27T18:19:25.829Z</time></trkpt><trkpt lat="40.3521253" lon="9.5464703"><ele>183.0</ele><time>2026-03-27T18:19:26.834Z</time></trkpt><trkpt lat="40.3520707" lon="9.5461888"><ele>183.0</ele><time>2026-03-27T18:19:27.83Z</time></trkpt><trkpt lat="40.3520148" lon="9.545908"><ele>183.33333333333334</ele><time>2026-03-27T18:19:28.827Z</time></trkpt><trkpt lat="40.3519579" lon="9.545627"><ele>183.66666666666669</ele><time>2026-03-27T18:19:29.822Z</time></trkpt><trkpt lat="40.3519008" lon="9.5453461"><ele>184.0</ele><time>2026-03-27T18:19:30.824Z</time></trkpt><trkpt lat="40.3518442" lon="9.5450648"><ele>184.66666666666669</ele><time>2026-03-27T18:19:31.827Z</time></trkpt><trkpt lat="40.3517884" lon="9.5447833"><ele>185.33333333333334</ele><time>2026-03-27T18:19:32.823Z</time></trkpt><trkpt lat="40.3517334" lon="9.5444997"><ele>186.0</ele><time>2026-03-27T18:19:33.824Z</time></trkpt><trkpt lat="40.3516777" lon="9.5442133"><ele>186.0</ele><time>2026-03-27T18:19:34.829Z</time></trkpt><trkpt lat="40.3516211" lon="9.5439237"><ele>186.0</ele><time>2026-03-27T18:19:35.831Z</time></trkpt><trkpt lat="40.3515638" lon="9.5436306"><ele>185.0</ele><time>2026-03-27T18:19:36.826Z</time></trkpt><trkpt lat="40.351506" lon="9.543334"><ele>184.0</ele><time>2026-03-27T18:19:37.827Z</time></trkpt><trkpt lat="40.3514469" lon="9.5430366"><ele>183.5</ele><time>2026-03-27T18:19:38.825Z</time></trkpt><trkpt lat="40.3513864" lon="9.5427388"><ele>183.0</ele><time>2026-03-27T18:19:39.838Z</time></trkpt><trkpt lat="40.3513225" lon="9.5424541"><ele>183.5</ele><time>2026-03-27T18:19:40.834Z</time></trkpt><trkpt lat="40.3512658" lon="9.5421629"><ele>184.0</ele><time>2026-03-27T18:19:41.836Z</time></trkpt><trkpt lat="40.3512115" lon="9.5418733"><ele>184.0</ele><time>2026-03-27T18:19:42.84Z</time></trkpt><trkpt lat="40.3511553" lon="9.5415854"><ele>184.0</ele><time>2026-03-27T18:19:43.837Z</time></trkpt><trkpt lat="40.3511016" lon="9.5413029"><ele>184.0</ele><time>2026-03-27T18:19:44.837Z</time></trkpt><trkpt lat="40.351049" lon="9.5410283"><ele>184.0</ele><time>2026-03-27T18:19:45.831Z</time></trkpt><trkpt lat="40.3509964" lon="9.540765"><ele>184.0</ele><time>2026-03-27T18:19:46.826Z</time></trkpt><trkpt lat="40.3509474" lon="9.5405183"><ele>184.0</ele><time>2026-03-27T18:19:47.824Z</time></trkpt><trkpt lat="40.3509019" lon="9.5402855"><ele>184.0</ele><time>2026-03-27T18:19:48.834Z</time></trkpt><trkpt lat="40.3508598" lon="9.5400729"><ele>184.0</ele><time>2026-03-27T18:19:49.835Z</time></trkpt><trkpt lat="40.3508214" lon="9.5398757"><ele>184.0</ele><time>2026-03-27T18:19:50.84Z</time></trkpt><trkpt lat="40.3507866" lon="9.5396959"><ele>184.0</ele><time>2026-03-27T18:19:51.82Z</time></trkpt><trkpt lat="40.3507542" lon="9.5395427"><ele>184.0</ele><time>2026-03-27T18:19:52.811Z</time></trkpt><trkpt lat="40.3507261" lon="9.5394124"><ele>184.0</ele><time>2026-03-27T18:19:53.804Z</time></trkpt><trkpt lat="40.3506988" lon="9.5392994"><ele>184.0</ele><time>2026-03-27T18:19:54.804Z</time></trkpt><trkpt lat="40.3506759" lon="9.539195"><ele>184.0</ele><time>2026-03-27T18:19:55.811Z</time></trkpt><trkpt lat="40.3506547" lon="9.5390887"><ele>184.0</ele><time>2026-03-27T18:19:56.815Z</time></trkpt><trkpt lat="40.3506346" lon="9.5389747"><ele>184.0</ele><time>2026-03-27T18:19:57.813Z</time></trkpt><trkpt lat="40.3506111" lon="9.5388604"><ele>184.0</ele><time>2026-03-27T18:19:58.815Z</time></trkpt><trkpt lat="40.3505885" lon="9.5387323"><ele>184.0</ele><time>2026-03-27T18:19:59.826Z</time></trkpt><trkpt lat="40.3505531" lon="9.5385863"><ele>184.0</ele><time>2026-03-27T18:20:00.828Z</time></trkpt><trkpt lat="40.3505322" lon="9.5384155"><ele>183.5</ele><time>2026-03-27T18:20:01.832Z</time></trkpt><trkpt lat="40.3505159" lon="9.5382339"><ele>183.0</ele><time>2026-03-27T18:20:02.84Z</time></trkpt><trkpt lat="40.3505056" lon="9.5380467"><ele>182.5</ele><time>2026-03-27T18:20:03.826Z</time></trkpt><trkpt lat="40.3505035" lon="9.5378624"><ele>182.0</ele><time>2026-03-27T18:20:04.819Z</time></trkpt><trkpt lat="40.3505072" lon="9.5376868"><ele>181.8</ele><time>2026-03-27T18:20:05.842Z</time></trkpt><trkpt lat="40.350516" lon="9.5375403"><ele>181.6</ele><time>2026-03-27T18:20:06.829Z</time></trkpt><trkpt lat="40.3505237" lon="9.5374308"><ele>181.4</ele><time>2026-03-27T18:20:07.82Z</time></trkpt><trkpt lat="40.3505405" lon="9.5373013"><ele>181.20000000000002</ele><time>2026-03-27T18:20:09.834Z</time></trkpt><trkpt lat="40.3505084" lon="9.5374166"><ele>181.0</ele><time>2026-03-27T18:20:16.815Z</time></trkpt><trkpt lat="40.3504994" lon="9.5375679"><ele>181.0</ele><time>2026-03-27T18:20:18.817Z</time></trkpt><trkpt lat="40.3504903" lon="9.5376642"><ele>181.0</ele><time>2026-03-27T18:20:19.827Z</time></trkpt><trkpt lat="40.3504809" lon="9.5377755"><ele>181.0</ele><time>2026-03-27T18:20:20.827Z</time></trkpt><trkpt lat="40.3504763" lon="9.5378968"><ele>181.0</ele><time>2026-03-27T18:20:21.823Z</time></trkpt><trkpt lat="40.3504794" lon="9.5380368"><ele>181.0</ele><time>2026-03-27T18:20:22.821Z</time></trkpt><trkpt lat="40.3504884" lon="9.5381861"><ele>181.25</ele><time>2026-03-27T18:20:23.823Z</time></trkpt><trkpt lat="40.3504995" lon="9.5383324"><ele>181.5</ele><time>2026-03-27T18:20:24.818Z</time></trkpt><trkpt lat="40.3505176" lon="9.5384857"><ele>181.75</ele><time>2026-03-27T18:20:25.826Z</time></trkpt><trkpt lat="40.3505419" lon="9.5386284"><ele>182.0</ele><time>2026-03-27T18:20:26.831Z</time></trkpt><trkpt lat="40.3505675" lon="9.5387726"><ele>182.39999999999998</ele><time>2026-03-27T18:20:27.824Z</time></trkpt><trkpt lat="40.350597" lon="9.538919"><ele>182.79999999999998</ele><time>2026-03-27T18:20:28.829Z</time></trkpt><trkpt lat="40.350624" lon="9.5390529"><ele>183.2</ele><time>2026-03-27T18:20:29.823Z</time></trkpt><trkpt lat="40.3506478" lon="9.5391721"><ele>183.6</ele><time>2026-03-27T18:20:30.823Z</time></trkpt><trkpt lat="40.3506672" lon="9.5392773"><ele>184.0</ele><time>2026-03-27T18:20:31.822Z</time></trkpt><trkpt lat="40.3506826" lon="9.5393645"><ele>184.0</ele><time>2026-03-27T18:20:32.821Z</time></trkpt><trkpt lat="40.3506815" lon="9.5394768"><ele>184.0</ele><time>2026-03-27T18:20:34.818Z</time></trkpt><trkpt lat="40.3506223" lon="9.5395403"><ele>184.0</ele><time>2026-03-27T18:20:36.833Z</time></trkpt><trkpt lat="40.3505329" lon="9.5395759"><ele>184.0</ele><time>2026-03-27T18:20:38.819Z</time></trkpt><trkpt lat="40.3504082" lon="9.5395959"><ele>184.0</ele><time>2026-03-27T18:20:40.83Z</time></trkpt><trkpt lat="40.3503348" lon="9.5396171"><ele>183.85714285714286</ele><time>2026-03-27T18:20:41.821Z</time></trkpt><trkpt lat="40.3502596" lon="9.5396429"><ele>183.7142857142857</ele><time>2026-03-27T18:20:42.819Z</time></trkpt><trkpt lat="40.3501842" lon="9.5396645"><ele>183.57142857142856</ele><time>2026-03-27T18:20:43.824Z</time></trkpt><trkpt lat="40.3501119" lon="9.5396815"><ele>183.42857142857144</ele><time>2026-03-27T18:20:44.809Z</time></trkpt><trkpt lat="40.3500398" lon="9.5397011"><ele>183.28571428571428</ele><time>2026-03-27T18:20:45.828Z</time></trkpt><trkpt lat="40.3499741" lon="9.5397257"><ele>183.14285714285714</ele><time>2026-03-27T18:20:46.824Z</time></trkpt><trkpt lat="40.3499135" lon="9.5397508"><ele>183.0</ele><time>2026-03-27T18:20:47.827Z</time></trkpt><trkpt lat="40.349849" lon="9.539782"><ele>183.0</ele><time>2026-03-27T18:20:48.827Z</time></trkpt><trkpt lat="40.3497849" lon="9.5398149"><ele>183.0</ele><time>2026-03-27T18:20:49.833Z</time></trkpt><trkpt lat="40.3497199" lon="9.5398375"><ele>183.0</ele><time>2026-03-27T18:20:50.829Z</time></trkpt><trkpt lat="40.349648" lon="9.5398672"><ele>183.0</ele><time>2026-03-27T18:20:51.832Z</time></trkpt><trkpt lat="40.3495778" lon="9.5398817"><ele>183.0</ele><time>2026-03-27T18:20:52.814Z</time></trkpt><trkpt lat="40.3495003" lon="9.5398977"><ele>183.0</ele><time>2026-03-27T18:20:53.827Z</time></trkpt><trkpt lat="40.3494279" lon="9.5399185"><ele>183.0</ele><time>2026-03-27T18:20:54.829Z</time></trkpt><trkpt lat="40.3493583" lon="9.5399409"><ele>183.0</ele><time>2026-03-27T18:20:55.825Z</time></trkpt><trkpt lat="40.3492891" lon="9.5399398"><ele>183.0</ele><time>2026-03-27T18:20:56.831Z</time></trkpt><trkpt lat="40.349205" lon="9.5399525"><ele>183.0</ele><time>2026-03-27T18:20:57.829Z</time></trkpt><trkpt lat="40.3491187" lon="9.5399698"><ele>183.0</ele><time>2026-03-27T18:20:58.83Z</time></trkpt><trkpt lat="40.3490397" lon="9.5399838"><ele>183.0</ele><time>2026-03-27T18:20:59.83Z</time></trkpt><trkpt lat="40.348958" lon="9.539991"><ele>183.0</ele><time>2026-03-27T18:21:00.825Z</time></trkpt><trkpt lat="40.3488855" lon="9.5400068"><ele>183.14285714285714</ele><time>2026-03-27T18:21:01.84Z</time></trkpt><trkpt lat="40.348812" lon="9.5400187"><ele>183.28571428571428</ele><time>2026-03-27T18:21:02.828Z</time></trkpt><trkpt lat="40.3487398" lon="9.5400307"><ele>183.42857142857144</ele><time>2026-03-27T18:21:03.83Z</time></trkpt><trkpt lat="40.3486707" lon="9.5400485"><ele>183.57142857142856</ele><time>2026-03-27T18:21:04.831Z</time></trkpt><trkpt lat="40.3486054" lon="9.5400494"><ele>183.7142857142857</ele><time>2026-03-27T18:21:05.834Z</time></trkpt><trkpt lat="40.3485253" lon="9.5400494"><ele>183.85714285714286</ele><time>2026-03-27T18:21:06.827Z</time></trkpt><trkpt lat="40.3484502" lon="9.5400479"><ele>184.0</ele><time>2026-03-27T18:21:07.835Z</time></trkpt><trkpt lat="40.3483813" lon="9.54002"><ele>184.0</ele><time>2026-03-27T18:21:08.819Z</time></trkpt><trkpt lat="40.3483194" lon="9.5399815"><ele>184.0</ele><time>2026-03-27T18:21:09.826Z</time></trkpt><trkpt lat="40.3482581" lon="9.5399231"><ele>184.0</ele><time>2026-03-27T18:21:10.826Z</time></trkpt><trkpt lat="40.3481945" lon="9.5398626"><ele>184.0</ele><time>2026-03-27T18:21:11.822Z</time></trkpt><trkpt lat="40.3481281" lon="9.5398243"><ele>184.0</ele><time>2026-03-27T18:21:12.828Z</time></trkpt><trkpt lat="40.3480565" lon="9.539792"><ele>184.0</ele><time>2026-03-27T18:21:13.825Z</time></trkpt><trkpt lat="40.347978" lon="9.5397691"><ele>184.0</ele><time>2026-03-27T18:21:14.827Z</time></trkpt><trkpt lat="40.3478987" lon="9.5397747"><ele>184.0</ele><time>2026-03-27T18:21:15.816Z</time></trkpt><trkpt lat="40.3478102" lon="9.5397786"><ele>184.0</ele><time>2026-03-27T18:21:16.832Z</time></trkpt><trkpt lat="40.3477276" lon="9.5397484"><ele>184.0</ele><time>2026-03-27T18:21:17.818Z</time></trkpt><trkpt lat="40.3476486" lon="9.5397161"><ele>184.0</ele><time>2026-03-27T18:21:18.831Z</time></trkpt><trkpt lat="40.3475668" lon="9.5396917"><ele>184.0</ele><time>2026-03-27T18:21:19.839Z</time></trkpt><trkpt lat="40.3474855" lon="9.5396742"><ele>184.0</ele><time>2026-03-27T18:21:20.827Z</time></trkpt><trkpt lat="40.3474143" lon="9.5396445"><ele>184.0</ele><time>2026-03-27T18:21:21.827Z</time></trkpt><trkpt lat="40.3473414" lon="9.5396158"><ele>184.0</ele><time>2026-03-27T18:21:22.831Z</time></trkpt><trkpt lat="40.347278" lon="9.5395866"><ele>184.0</ele><time>2026-03-27T18:21:23.818Z</time></trkpt><trkpt lat="40.3471856" lon="9.5395127"><ele>184.0</ele><time>2026-03-27T18:21:25.825Z</time></trkpt><trkpt lat="40.347145" lon="9.5394001"><ele>184.0</ele><time>2026-03-27T18:21:27.824Z</time></trkpt><trkpt lat="40.347138" lon="9.5392557"><ele>183.0</ele><time>2026-03-27T18:21:29.831Z</time></trkpt><trkpt lat="40.3471251" lon="9.5391717"><ele>182.0</ele><time>2026-03-27T18:21:30.829Z</time></trkpt><trkpt lat="40.3471111" lon="9.5390857"><ele>181.0</ele><time>2026-03-27T18:21:31.827Z</time></trkpt><trkpt lat="40.3470903" lon="9.538999"><ele>180.0</ele><time>2026-03-27T18:21:32.832Z</time></trkpt><trkpt lat="40.347042" lon="9.5388333"><ele>179.0</ele><time>2026-03-27T18:21:34.83Z</time></trkpt><trkpt lat="40.3470164" lon="9.5387402"><ele>178.0</ele><time>2026-03-27T18:21:35.83Z</time></trkpt><trkpt lat="40.3469883" lon="9.5386453"><ele>177.2</ele><time>2026-03-27T18:21:36.815Z</time></trkpt><trkpt lat="40.346953" lon="9.5385566"><ele>176.4</ele><time>2026-03-27T18:21:37.812Z</time></trkpt><trkpt lat="40.3469157" lon="9.538479"><ele>175.6</ele><time>2026-03-27T18:21:38.806Z</time></trkpt><trkpt lat="40.3468481" lon="9.5383684"><ele>174.79999999999998</ele><time>2026-03-27T18:21:40.833Z</time></trkpt><trkpt lat="40.346766" lon="9.5383363"><ele>174.0</ele><time>2026-03-27T18:21:42.824Z</time></trkpt><trkpt lat="40.3466572" lon="9.5383726"><ele>174.0</ele><time>2026-03-27T18:21:44.825Z</time></trkpt><trkpt lat="40.3465868" lon="9.5384"><ele>174.0</ele><time>2026-03-27T18:21:45.821Z</time></trkpt><trkpt lat="40.3465135" lon="9.5384235"><ele>174.0</ele><time>2026-03-27T18:21:46.83Z</time></trkpt><trkpt lat="40.3464419" lon="9.5384493"><ele>174.0</ele><time>2026-03-27T18:21:47.819Z</time></trkpt><trkpt lat="40.3463725" lon="9.5384797"><ele>174.0</ele><time>2026-03-27T18:21:48.826Z</time></trkpt><trkpt lat="40.3463025" lon="9.5385149"><ele>174.0</ele><time>2026-03-27T18:21:49.826Z</time></trkpt><trkpt lat="40.3462309" lon="9.5385537"><ele>174.0</ele><time>2026-03-27T18:21:50.823Z</time></trkpt><trkpt lat="40.3461573" lon="9.5385931"><ele>174.0</ele><time>2026-03-27T18:21:51.821Z</time></trkpt><trkpt lat="40.3460845" lon="9.538631"><ele>174.0</ele><time>2026-03-27T18:21:52.823Z</time></trkpt><trkpt lat="40.3460153" lon="9.5386671"><ele>174.0</ele><time>2026-03-27T18:21:53.831Z</time></trkpt><trkpt lat="40.3459472" lon="9.5387008"><ele>174.0</ele><time>2026-03-27T18:21:54.827Z</time></trkpt><trkpt lat="40.345881" lon="9.5387321"><ele>174.0</ele><time>2026-03-27T18:21:55.829Z</time></trkpt><trkpt lat="40.3458122" lon="9.5387623"><ele>174.0</ele><time>2026-03-27T18:21:56.829Z</time></trkpt><trkpt lat="40.3457451" lon="9.5387967"><ele>174.0</ele><time>2026-03-27T18:21:57.829Z</time></trkpt><trkpt lat="40.3456746" lon="9.5388322"><ele>174.0</ele><time>2026-03-27T18:21:58.832Z</time></trkpt><trkpt lat="40.3455999" lon="9.538875"><ele>174.0</ele><time>2026-03-27T18:21:59.827Z</time></trkpt><trkpt lat="40.3455237" lon="9.5389143"><ele>174.0</ele><time>2026-03-27T18:22:00.827Z</time></trkpt><trkpt lat="40.3454494" lon="9.5389548"><ele>174.0</ele><time>2026-03-27T18:22:01.83Z</time></trkpt><trkpt lat="40.3453749" lon="9.5389939"><ele>174.0</ele><time>2026-03-27T18:22:02.829Z</time></trkpt><trkpt lat="40.3452934" lon="9.5390259"><ele>174.0</ele><time>2026-03-27T18:22:03.823Z</time></trkpt><trkpt lat="40.3452114" lon="9.5390496"><ele>174.0</ele><time>2026-03-27T18:22:04.823Z</time></trkpt><trkpt lat="40.3451299" lon="9.5390679"><ele>174.0</ele><time>2026-03-27T18:22:05.826Z</time></trkpt><trkpt lat="40.3450495" lon="9.5390854"><ele>174.0</ele><time>2026-03-27T18:22:06.828Z</time></trkpt><trkpt lat="40.344971" lon="9.5391026"><ele>174.0</ele><time>2026-03-27T18:22:07.822Z</time></trkpt><trkpt lat="40.3448938" lon="9.5391182"><ele>174.0</ele><time>2026-03-27T18:22:08.833Z</time></trkpt><trkpt lat="40.3448196" lon="9.5391315"><ele>174.0</ele><time>2026-03-27T18:22:09.831Z</time></trkpt><trkpt lat="40.3447451" lon="9.5391445"><ele>174.16666666666666</ele><time>2026-03-27T18:22:10.828Z</time></trkpt><trkpt lat="40.3446693" lon="9.5391563"><ele>174.33333333333334</ele><time>2026-03-27T18:22:11.813Z</time></trkpt><trkpt lat="40.3445903" lon="9.5391666"><ele>174.5</ele><time>2026-03-27T18:22:12.834Z</time></trkpt><trkpt lat="40.3445118" lon="9.5391796"><ele>174.66666666666669</ele><time>2026-03-27T18:22:13.826Z</time></trkpt><trkpt lat="40.3444388" lon="9.5391868"><ele>174.83333333333334</ele><time>2026-03-27T18:22:14.821Z</time></trkpt><trkpt lat="40.3443669" lon="9.539192"><ele>175.0</ele><time>2026-03-27T18:22:15.815Z</time></trkpt><trkpt lat="40.3442882" lon="9.5391764"><ele>175.0</ele><time>2026-03-27T18:22:16.818Z</time></trkpt><trkpt lat="40.3442115" lon="9.5391512"><ele>175.0</ele><time>2026-03-27T18:22:17.815Z</time></trkpt><trkpt lat="40.3441344" lon="9.5391228"><ele>175.0</ele><time>2026-03-27T18:22:18.825Z</time></trkpt><trkpt lat="40.3440546" lon="9.5390817"><ele>175.0</ele><time>2026-03-27T18:22:19.823Z</time></trkpt><trkpt lat="40.3439741" lon="9.5390454"><ele>175.0</ele><time>2026-03-27T18:22:20.819Z</time></trkpt><trkpt lat="40.3438883" lon="9.5390097"><ele>175.0</ele><time>2026-03-27T18:22:21.822Z</time></trkpt><trkpt lat="40.3437969" lon="9.5389798"><ele>175.33333333333334</ele><time>2026-03-27T18:22:22.823Z</time></trkpt><trkpt lat="40.3437046" lon="9.5389562"><ele>175.66666666666669</ele><time>2026-03-27T18:22:23.818Z</time></trkpt><trkpt lat="40.3436132" lon="9.5389327"><ele>176.0</ele><time>2026-03-27T18:22:24.811Z</time></trkpt><trkpt lat="40.343526" lon="9.53891"><ele>176.33333333333334</ele><time>2026-03-27T18:22:25.827Z</time></trkpt><trkpt lat="40.3434459" lon="9.5388771"><ele>176.66666666666666</ele><time>2026-03-27T18:22:26.824Z</time></trkpt><trkpt lat="40.3433682" lon="9.5388404"><ele>177.0</ele><time>2026-03-27T18:22:27.813Z</time></trkpt><trkpt lat="40.3432951" lon="9.5388082"><ele>177.0</ele><time>2026-03-27T18:22:28.828Z</time></trkpt><trkpt lat="40.3432209" lon="9.5387667"><ele>177.0</ele><time>2026-03-27T18:22:29.83Z</time></trkpt><trkpt lat="40.3431415" lon="9.5387275"><ele>177.0</ele><time>2026-03-27T18:22:30.815Z</time></trkpt><trkpt lat="40.3430742" lon="9.5387"><ele>177.0</ele><time>2026-03-27T18:22:31.824Z</time></trkpt><trkpt lat="40.3429641" lon="9.5386776"><ele>177.0</ele><time>2026-03-27T18:22:33.82Z</time></trkpt><trkpt lat="40.3428444" lon="9.5387011"><ele>176.33333333333334</ele><time>2026-03-27T18:22:35.821Z</time></trkpt><trkpt lat="40.3427682" lon="9.5387305"><ele>175.66666666666666</ele><time>2026-03-27T18:22:36.834Z</time></trkpt><trkpt lat="40.3426883" lon="9.5387552"><ele>175.0</ele><time>2026-03-27T18:22:37.838Z</time></trkpt><trkpt lat="40.3426071" lon="9.538787"><ele>174.33333333333331</ele><time>2026-03-27T18:22:38.83Z</time></trkpt><trkpt lat="40.3425272" lon="9.5388237"><ele>173.66666666666666</ele><time>2026-03-27T18:22:39.829Z</time></trkpt><trkpt lat="40.3424449" lon="9.5388618"><ele>173.0</ele><time>2026-03-27T18:22:40.828Z</time></trkpt><trkpt lat="40.3423599" lon="9.5388986"><ele>173.0</ele><time>2026-03-27T18:22:41.834Z</time></trkpt><trkpt lat="40.3422709" lon="9.5389389"><ele>173.0</ele><time>2026-03-27T18:22:42.832Z</time></trkpt><trkpt lat="40.3421796" lon="9.5389849"><ele>173.0</ele><time>2026-03-27T18:22:43.832Z</time></trkpt><trkpt lat="40.3420873" lon="9.5390312"><ele>173.0</ele><time>2026-03-27T18:22:44.828Z</time></trkpt><trkpt lat="40.3419949" lon="9.539078"><ele>173.0</ele><time>2026-03-27T18:22:45.827Z</time></trkpt><trkpt lat="40.3419" lon="9.5391203"><ele>172.8</ele><time>2026-03-27T18:22:46.827Z</time></trkpt><trkpt lat="40.3418079" lon="9.5391733"><ele>172.60000000000002</ele><time>2026-03-27T18:22:47.836Z</time></trkpt><trkpt lat="40.3417159" lon="9.5392378"><ele>172.39999999999998</ele><time>2026-03-27T18:22:48.827Z</time></trkpt><trkpt lat="40.3416314" lon="9.5393132"><ele>172.2</ele><time>2026-03-27T18:22:49.821Z</time></trkpt><trkpt lat="40.3415525" lon="9.5393882"><ele>172.0</ele><time>2026-03-27T18:22:50.805Z</time></trkpt><trkpt lat="40.3414721" lon="9.5394576"><ele>172.0</ele><time>2026-03-27T18:22:51.82Z</time></trkpt><trkpt lat="40.3413847" lon="9.5395245"><ele>172.0</ele><time>2026-03-27T18:22:52.827Z</time></trkpt><trkpt lat="40.3412954" lon="9.5395836"><ele>172.0</ele><time>2026-03-27T18:22:53.824Z</time></trkpt><trkpt lat="40.3412166" lon="9.5396364"><ele>172.0</ele><time>2026-03-27T18:22:54.819Z</time></trkpt><trkpt lat="40.3411353" lon="9.5396559"><ele>172.0</ele><time>2026-03-27T18:22:55.831Z</time></trkpt><trkpt lat="40.3410555" lon="9.5396616"><ele>171.5</ele><time>2026-03-27T18:22:56.832Z</time></trkpt><trkpt lat="40.3409758" lon="9.5396603"><ele>171.0</ele><time>2026-03-27T18:22:57.827Z</time></trkpt><trkpt lat="40.3408971" lon="9.5396599"><ele>170.5</ele><time>2026-03-27T18:22:58.817Z</time></trkpt><trkpt lat="40.3408276" lon="9.5396566"><ele>170.0</ele><time>2026-03-27T18:22:59.828Z</time></trkpt><trkpt lat="40.3407264" lon="9.539627"><ele>169.5</ele><time>2026-03-27T18:23:01.823Z</time></trkpt><trkpt lat="40.3406514" lon="9.5396282"><ele>169.0</ele><time>2026-03-27T18:23:04.826Z</time></trkpt><trkpt lat="40.3406343" lon="9.5397216"><ele>169.0</ele><time>2026-03-27T18:23:08.827Z</time></trkpt><trkpt lat="40.3406394" lon="9.5398257"><ele>169.0</ele><time>2026-03-27T18:23:11.826Z</time></trkpt><trkpt lat="40.3406544" lon="9.5399596"><ele>169.0</ele><time>2026-03-27T18:23:13.829Z</time></trkpt><trkpt lat="40.3406616" lon="9.54005"><ele>169.0</ele><time>2026-03-27T18:23:14.841Z</time></trkpt><trkpt lat="40.3406604" lon="9.5401524"><ele>169.0</ele><time>2026-03-27T18:23:15.833Z</time></trkpt><trkpt lat="40.3406579" lon="9.5402659"><ele>169.0</ele><time>2026-03-27T18:23:16.823Z</time></trkpt><trkpt lat="40.3406582" lon="9.5403867"><ele>169.39999999999998</ele><time>2026-03-27T18:23:17.824Z</time></trkpt><trkpt lat="40.3406617" lon="9.540511"><ele>169.8</ele><time>2026-03-27T18:23:18.825Z</time></trkpt><trkpt lat="40.3406689" lon="9.5406442"><ele>170.2</ele><time>2026-03-27T18:23:19.829Z</time></trkpt><trkpt lat="40.3406771" lon="9.5407813"><ele>170.60000000000002</ele><time>2026-03-27T18:23:20.84Z</time></trkpt><trkpt lat="40.3406853" lon="9.5409203"><ele>171.0</ele><time>2026-03-27T18:23:21.832Z</time></trkpt><trkpt lat="40.340694" lon="9.541055"><ele>171.0</ele><time>2026-03-27T18:23:22.832Z</time></trkpt><trkpt lat="40.3407026" lon="9.5411862"><ele>171.0</ele><time>2026-03-27T18:23:23.831Z</time></trkpt><trkpt lat="40.3407124" lon="9.5413164"><ele>171.0</ele><time>2026-03-27T18:23:24.83Z</time></trkpt><trkpt lat="40.3407226" lon="9.5414463"><ele>171.0</ele><time>2026-03-27T18:23:25.827Z</time></trkpt><trkpt lat="40.3407325" lon="9.5415797"><ele>171.0</ele><time>2026-03-27T18:23:26.825Z</time></trkpt><trkpt lat="40.340744" lon="9.5417078"><ele>171.8</ele><time>2026-03-27T18:23:27.829Z</time></trkpt><trkpt lat="40.3407547" lon="9.5418319"><ele>172.60000000000002</ele><time>2026-03-27T18:23:28.826Z</time></trkpt><trkpt lat="40.3407665" lon="9.5419498"><ele>173.4</ele><time>2026-03-27T18:23:29.838Z</time></trkpt><trkpt lat="40.3407844" lon="9.542071"><ele>174.2</ele><time>2026-03-27T18:23:30.83Z</time></trkpt><trkpt lat="40.3408054" lon="9.5421954"><ele>175.0</ele><time>2026-03-27T18:23:31.822Z</time></trkpt><trkpt lat="40.3408495" lon="9.5423105"><ele>175.8</ele><time>2026-03-27T18:23:32.82Z</time></trkpt><trkpt lat="40.3408944" lon="9.5424254"><ele>176.6</ele><time>2026-03-27T18:23:33.829Z</time></trkpt><trkpt lat="40.340954" lon="9.5425291"><ele>177.39999999999998</ele><time>2026-03-27T18:23:34.83Z</time></trkpt><trkpt lat="40.3410191" lon="9.5426302"><ele>178.2</ele><time>2026-03-27T18:23:35.828Z</time></trkpt><trkpt lat="40.3410897" lon="9.54273"><ele>179.0</ele><time>2026-03-27T18:23:36.813Z</time></trkpt><trkpt lat="40.3411638" lon="9.5428202"><ele>179.39999999999998</ele><time>2026-03-27T18:23:37.827Z</time></trkpt><trkpt lat="40.3412392" lon="9.5429001"><ele>179.8</ele><time>2026-03-27T18:23:38.824Z</time></trkpt><trkpt lat="40.3413192" lon="9.5429691"><ele>180.2</ele><time>2026-03-27T18:23:39.826Z</time></trkpt><trkpt lat="40.3413995" lon="9.543022"><ele>180.60000000000002</ele><time>2026-03-27T18:23:40.825Z</time></trkpt><trkpt lat="40.3414854" lon="9.5430546"><ele>181.0</ele><time>2026-03-27T18:23:41.829Z</time></trkpt><trkpt lat="40.341571" lon="9.5430791"><ele>181.20000000000002</ele><time>2026-03-27T18:23:42.831Z</time></trkpt><trkpt lat="40.3416493" lon="9.5431045"><ele>181.4</ele><time>2026-03-27T18:23:43.811Z</time></trkpt><trkpt lat="40.3417156" lon="9.5431237"><ele>181.6</ele><time>2026-03-27T18:23:44.802Z</time></trkpt><trkpt lat="40.3418307" lon="9.5431592"><ele>181.8</ele><time>2026-03-27T18:23:46.813Z</time></trkpt><trkpt lat="40.3419398" lon="9.5431863"><ele>182.0</ele><time>2026-03-27T18:23:48.823Z</time></trkpt><trkpt lat="40.3420236" lon="9.5432059"><ele>182.0</ele><time>2026-03-27T18:23:50.808Z</time></trkpt><trkpt lat="40.3420898" lon="9.5432312"><ele>182.0</ele><time>2026-03-27T18:23:52.825Z</time></trkpt><trkpt lat="40.3421315" lon="9.543302"><ele>182.0</ele><time>2026-03-27T18:23:54.81Z</time></trkpt><trkpt lat="40.3421633" lon="9.5433778"><ele>182.0</ele><time>2026-03-27T18:23:57.816Z</time></trkpt><trkpt lat="40.3422022" lon="9.5434478"><ele>182.0</ele><time>2026-03-27T18:24:02.818Z</time></trkpt></trkseg></trk></gpx>